<?xml version='1.0' encoding='UTF-8'?><gpx version="1.1" creator="JPX - https://github.com/jenetics/jpx" xmlns="http://www.topografix.com/GPX/1/1"><trk><trkseg><trkpt lat="45.3089517" lon="7.6352033"><ele>314.75</ele><time>2026-05-01T08:23:10.804Z</time></trkpt><trkpt lat="45.308895" lon="7.635035"><ele>314.5</ele><time>2026-05-01T08:23:11.805Z</time></trkpt><trkpt lat="45.3088433" lon="7.6348617"><ele>314.25</ele><time>2026-05-01T08:23:12.805Z</time></trkpt><trkpt lat="45.3087683" lon="7.63474"><ele>314.0</ele><time>2026-05-01T08:23:13.805Z</time></trkpt><trkpt lat="45.30873" lon="7.6345983"><ele>314.2</ele><time>2026-05-01T08:23:14.8Z</time></trkpt><trkpt lat="45.308685" lon="7.634465"><ele>314.4</ele><time>2026-05-01T08:23:15.8Z</time></trkpt><trkpt lat="45.3086433" lon="7.6343467"><ele>314.6</ele><time>2026-05-01T08:23:16.8Z</time></trkpt><trkpt lat="45.3085867" lon="7.63427"><ele>314.8</ele><time>2026-05-01T08:23:17.8Z</time></trkpt><trkpt lat="45.308485" lon="7.6342133"><ele>315.0</ele><time>2026-05-01T08:23:18.8Z</time></trkpt><trkpt lat="45.3083617" lon="7.6341867"><ele>315.0</ele><time>2026-05-01T08:23:19.8Z</time></trkpt><trkpt lat="45.3082183" lon="7.6341633"><ele>315.0</ele><time>2026-05-01T08:23:20.8Z</time></trkpt><trkpt lat="45.308075" lon="7.6341417"><ele>315.0</ele><time>2026-05-01T08:23:21.8Z</time></trkpt><trkpt lat="45.3079417" lon="7.6341183"><ele>315.0</ele><time>2026-05-01T08:23:22.8Z</time></trkpt><trkpt lat="45.3078317" lon="7.63409"><ele>315.2</ele><time>2026-05-01T08:23:23.8Z</time></trkpt><trkpt lat="45.307755" lon="7.63406"><ele>315.4</ele><time>2026-05-01T08:23:24.8Z</time></trkpt><trkpt lat="45.30768" lon="7.6340033"><ele>315.6</ele><time>2026-05-01T08:23:25.8Z</time></trkpt><trkpt lat="45.3076283" lon="7.6339183"><ele>315.8</ele><time>2026-05-01T08:23:26.8Z</time></trkpt><trkpt lat="45.3076233" lon="7.63374"><ele>316.0</ele><time>2026-05-01T08:23:27.8Z</time></trkpt><trkpt lat="45.307635" lon="7.6335317"><ele>316.0</ele><time>2026-05-01T08:23:28.8Z</time></trkpt><trkpt lat="45.3076417" lon="7.6333217"><ele>316.0</ele><time>2026-05-01T08:23:29.8Z</time></trkpt><trkpt lat="45.3076483" lon="7.633105"><ele>316.0</ele><time>2026-05-01T08:23:30.8Z</time></trkpt><trkpt lat="45.3076567" lon="7.6328867"><ele>316.66666666666663</ele><time>2026-05-01T08:23:31.8Z</time></trkpt><trkpt lat="45.30766" lon="7.632665"><ele>317.3333333333333</ele><time>2026-05-01T08:23:32.8Z</time></trkpt><trkpt lat="45.30766" lon="7.632445"><ele>318.0</ele><time>2026-05-01T08:23:33.8Z</time></trkpt><trkpt lat="45.30766" lon="7.63222"><ele>318.0</ele><time>2026-05-01T08:23:34.8Z</time></trkpt><trkpt lat="45.3076583" lon="7.6320017"><ele>318.0</ele><time>2026-05-01T08:23:35.8Z</time></trkpt><trkpt lat="45.3076583" lon="7.63178"><ele>318.0</ele><time>2026-05-01T08:23:36.8Z</time></trkpt><trkpt lat="45.3076567" lon="7.63156"><ele>318.0</ele><time>2026-05-01T08:23:37.8Z</time></trkpt><trkpt lat="45.3076567" lon="7.6313417"><ele>318.0</ele><time>2026-05-01T08:23:38.8Z</time></trkpt><trkpt lat="45.3076567" lon="7.631125"><ele>318.0</ele><time>2026-05-01T08:23:39.8Z</time></trkpt><trkpt lat="45.307655" lon="7.63091"><ele>318.25</ele><time>2026-05-01T08:23:40.8Z</time></trkpt><trkpt lat="45.3076567" lon="7.6306933"><ele>318.5</ele><time>2026-05-01T08:23:41.8Z</time></trkpt><trkpt lat="45.30766" lon="7.6304767"><ele>318.75</ele><time>2026-05-01T08:23:42.8Z</time></trkpt><trkpt lat="45.307655" lon="7.6302733"><ele>319.0</ele><time>2026-05-01T08:23:43.799Z</time></trkpt><trkpt lat="45.30765" lon="7.6300683"><ele>319.5</ele><time>2026-05-01T08:23:44.8Z</time></trkpt><trkpt lat="45.3076433" lon="7.6298867"><ele>320.0</ele><time>2026-05-01T08:23:45.8Z</time></trkpt><trkpt lat="45.3076383" lon="7.6296917"><ele>320.5</ele><time>2026-05-01T08:23:46.8Z</time></trkpt><trkpt lat="45.3076317" lon="7.6294983"><ele>321.0</ele><time>2026-05-01T08:23:47.799Z</time></trkpt><trkpt lat="45.3076183" lon="7.6293117"><ele>321.5</ele><time>2026-05-01T08:23:48.8Z</time></trkpt><trkpt lat="45.307615" lon="7.6291317"><ele>322.0</ele><time>2026-05-01T08:23:49.8Z</time></trkpt><trkpt lat="45.3076267" lon="7.628945"><ele>322.5</ele><time>2026-05-01T08:23:50.8Z</time></trkpt><trkpt lat="45.3076467" lon="7.6287717"><ele>323.0</ele><time>2026-05-01T08:23:51.799Z</time></trkpt><trkpt lat="45.3076833" lon="7.6285967"><ele>323.5</ele><time>2026-05-01T08:23:52.8Z</time></trkpt><trkpt lat="45.3077067" lon="7.62843"><ele>324.0</ele><time>2026-05-01T08:23:53.8Z</time></trkpt><trkpt lat="45.3077667" lon="7.6282433"><ele>324.5</ele><time>2026-05-01T08:23:54.8Z</time></trkpt><trkpt lat="45.3078333" lon="7.628055"><ele>325.0</ele><time>2026-05-01T08:23:55.8Z</time></trkpt><trkpt lat="45.3079067" lon="7.6278583"><ele>325.5</ele><time>2026-05-01T08:23:56.8Z</time></trkpt><trkpt lat="45.307975" lon="7.6276583"><ele>326.0</ele><time>2026-05-01T08:23:57.8Z</time></trkpt><trkpt lat="45.30804" lon="7.6274683"><ele>326.5</ele><time>2026-05-01T08:23:58.8Z</time></trkpt><trkpt lat="45.3081033" lon="7.6272933"><ele>327.0</ele><time>2026-05-01T08:23:59.8Z</time></trkpt><trkpt lat="45.3081633" lon="7.6271383"><ele>326.25</ele><time>2026-05-01T08:24:00.8Z</time></trkpt><trkpt lat="45.308225" lon="7.6269867"><ele>325.5</ele><time>2026-05-01T08:24:01.8Z</time></trkpt><trkpt lat="45.3082833" lon="7.6268267"><ele>324.75</ele><time>2026-05-01T08:24:02.8Z</time></trkpt><trkpt lat="45.308365" lon="7.62668"><ele>324.0</ele><time>2026-05-01T08:24:03.8Z</time></trkpt><trkpt lat="45.3084667" lon="7.6265417"><ele>324.0</ele><time>2026-05-01T08:24:04.8Z</time></trkpt><trkpt lat="45.3085767" lon="7.6264183"><ele>324.0</ele><time>2026-05-01T08:24:05.8Z</time></trkpt><trkpt lat="45.308695" lon="7.626285"><ele>324.0</ele><time>2026-05-01T08:24:06.8Z</time></trkpt><trkpt lat="45.30881" lon="7.6261567"><ele>324.0</ele><time>2026-05-01T08:24:07.8Z</time></trkpt><trkpt lat="45.30892" lon="7.6260333"><ele>323.79999999999995</ele><time>2026-05-01T08:24:08.8Z</time></trkpt><trkpt lat="45.3090183" lon="7.625925"><ele>323.59999999999997</ele><time>2026-05-01T08:24:09.8Z</time></trkpt><trkpt lat="45.3091133" lon="7.6258267"><ele>323.4</ele><time>2026-05-01T08:24:10.8Z</time></trkpt><trkpt lat="45.3091933" lon="7.6257417"><ele>323.2</ele><time>2026-05-01T08:24:11.8Z</time></trkpt><trkpt lat="45.3092583" lon="7.6256733"><ele>323.0</ele><time>2026-05-01T08:24:12.799Z</time></trkpt><trkpt lat="45.3093233" lon="7.62564"><ele>323.0</ele><time>2026-05-01T08:24:13.8Z</time></trkpt><trkpt lat="45.3094417" lon="7.625665"><ele>323.0</ele><time>2026-05-01T08:24:15.8Z</time></trkpt><trkpt lat="45.30952" lon="7.62574"><ele>323.0</ele><time>2026-05-01T08:24:16.8Z</time></trkpt><trkpt lat="45.3096267" lon="7.6258583"><ele>323.0</ele><time>2026-05-01T08:24:17.8Z</time></trkpt><trkpt lat="45.30974" lon="7.625965"><ele>323.4</ele><time>2026-05-01T08:24:18.8Z</time></trkpt><trkpt lat="45.3098483" lon="7.626065"><ele>323.79999999999995</ele><time>2026-05-01T08:24:19.8Z</time></trkpt><trkpt lat="45.309955" lon="7.6261233"><ele>324.2</ele><time>2026-05-01T08:24:20.799Z</time></trkpt><trkpt lat="45.31005" lon="7.626165"><ele>324.6</ele><time>2026-05-01T08:24:21.8Z</time></trkpt><trkpt lat="45.3101467" lon="7.6261917"><ele>325.0</ele><time>2026-05-01T08:24:22.8Z</time></trkpt><trkpt lat="45.3102383" lon="7.626215"><ele>325.0</ele><time>2026-05-01T08:24:23.799Z</time></trkpt><trkpt lat="45.3103217" lon="7.6262267"><ele>325.0</ele><time>2026-05-01T08:24:24.8Z</time></trkpt><trkpt lat="45.310395" lon="7.6262217"><ele>325.0</ele><time>2026-05-01T08:24:25.8Z</time></trkpt><trkpt lat="45.3104783" lon="7.626195"><ele>325.0</ele><time>2026-05-01T08:24:26.8Z</time></trkpt><trkpt lat="45.31056" lon="7.6261283"><ele>325.0</ele><time>2026-05-01T08:24:27.8Z</time></trkpt><trkpt lat="45.3106733" lon="7.626045"><ele>325.0</ele><time>2026-05-01T08:24:28.8Z</time></trkpt><trkpt lat="45.3107917" lon="7.625975"><ele>325.0</ele><time>2026-05-01T08:24:29.8Z</time></trkpt><trkpt lat="45.3109067" lon="7.6259117"><ele>325.0</ele><time>2026-05-01T08:24:30.8Z</time></trkpt><trkpt lat="45.3110183" lon="7.625855"><ele>325.0</ele><time>2026-05-01T08:24:31.8Z</time></trkpt><trkpt lat="45.3111267" lon="7.6257983"><ele>325.0</ele><time>2026-05-01T08:24:32.8Z</time></trkpt><trkpt lat="45.3112317" lon="7.6257167"><ele>325.0</ele><time>2026-05-01T08:24:33.8Z</time></trkpt><trkpt lat="45.3113417" lon="7.6256133"><ele>325.0</ele><time>2026-05-01T08:24:34.8Z</time></trkpt><trkpt lat="45.3114467" lon="7.625505"><ele>325.0</ele><time>2026-05-01T08:24:35.8Z</time></trkpt><trkpt lat="45.3115317" lon="7.6254183"><ele>325.0</ele><time>2026-05-01T08:24:36.8Z</time></trkpt><trkpt lat="45.31162" lon="7.62535"><ele>325.0</ele><time>2026-05-01T08:24:37.8Z</time></trkpt><trkpt lat="45.31172" lon="7.625325"><ele>325.0</ele><time>2026-05-01T08:24:38.8Z</time></trkpt><trkpt lat="45.3118233" lon="7.6253233"><ele>325.0</ele><time>2026-05-01T08:24:39.8Z</time></trkpt><trkpt lat="45.311915" lon="7.62533"><ele>325.0</ele><time>2026-05-01T08:24:40.8Z</time></trkpt><trkpt lat="45.311995" lon="7.62533"><ele>325.0</ele><time>2026-05-01T08:24:41.8Z</time></trkpt><trkpt lat="45.3120967" lon="7.625285"><ele>325.0</ele><time>2026-05-01T08:24:43.8Z</time></trkpt><trkpt lat="45.3121167" lon="7.6251333"><ele>325.0</ele><time>2026-05-01T08:24:45.8Z</time></trkpt><trkpt lat="45.3121167" lon="7.6250133"><ele>325.0</ele><time>2026-05-01T08:24:46.8Z</time></trkpt><trkpt lat="45.31211" lon="7.6248667"><ele>325.0</ele><time>2026-05-01T08:24:47.799Z</time></trkpt><trkpt lat="45.3121117" lon="7.6247433"><ele>325.0</ele><time>2026-05-01T08:24:48.8Z</time></trkpt><trkpt lat="45.31212" lon="7.624645"><ele>325.0</ele><time>2026-05-01T08:24:49.8Z</time></trkpt><trkpt lat="45.3121367" lon="7.6245067"><ele>325.0</ele><time>2026-05-01T08:24:51.799Z</time></trkpt><trkpt lat="45.3121983" lon="7.624465"><ele>325.0</ele><time>2026-05-01T08:24:53.8Z</time></trkpt><trkpt lat="45.3123283" lon="7.62451"><ele>325.0</ele><time>2026-05-01T08:24:55.8Z</time></trkpt><trkpt lat="45.3124217" lon="7.6245367"><ele>325.25</ele><time>2026-05-01T08:24:56.8Z</time></trkpt><trkpt lat="45.3125267" lon="7.62454"><ele>325.5</ele><time>2026-05-01T08:24:57.8Z</time></trkpt><trkpt lat="45.3126417" lon="7.62453"><ele>325.75</ele><time>2026-05-01T08:24:58.8Z</time></trkpt><trkpt lat="45.3127617" lon="7.6245233"><ele>326.0</ele><time>2026-05-01T08:24:59.8Z</time></trkpt><trkpt lat="45.312895" lon="7.62454"><ele>326.0</ele><time>2026-05-01T08:25:00.8Z</time></trkpt><trkpt lat="45.31304" lon="7.62457"><ele>326.0</ele><time>2026-05-01T08:25:01.8Z</time></trkpt><trkpt lat="45.3131767" lon="7.6245967"><ele>326.0</ele><time>2026-05-01T08:25:02.8Z</time></trkpt><trkpt lat="45.3132983" lon="7.62462"><ele>326.0</ele><time>2026-05-01T08:25:03.799Z</time></trkpt><trkpt lat="45.31341" lon="7.62464"><ele>325.75</ele><time>2026-05-01T08:25:04.8Z</time></trkpt><trkpt lat="45.3135167" lon="7.6246583"><ele>325.5</ele><time>2026-05-01T08:25:05.8Z</time></trkpt><trkpt lat="45.31363" lon="7.62468"><ele>325.25</ele><time>2026-05-01T08:25:06.799Z</time></trkpt><trkpt lat="45.3137517" lon="7.6247"><ele>325.0</ele><time>2026-05-01T08:25:07.8Z</time></trkpt><trkpt lat="45.3138817" lon="7.624715"><ele>324.75</ele><time>2026-05-01T08:25:08.8Z</time></trkpt><trkpt lat="45.3140033" lon="7.6247083"><ele>324.5</ele><time>2026-05-01T08:25:09.8Z</time></trkpt><trkpt lat="45.31413" lon="7.62468"><ele>324.25</ele><time>2026-05-01T08:25:10.8Z</time></trkpt><trkpt lat="45.31426" lon="7.6246517"><ele>324.0</ele><time>2026-05-01T08:25:11.8Z</time></trkpt><trkpt lat="45.314385" lon="7.6246233"><ele>324.0</ele><time>2026-05-01T08:25:12.8Z</time></trkpt><trkpt lat="45.3145" lon="7.6245917"><ele>324.0</ele><time>2026-05-01T08:25:13.8Z</time></trkpt><trkpt lat="45.3146233" lon="7.6245333"><ele>324.0</ele><time>2026-05-01T08:25:14.8Z</time></trkpt><trkpt lat="45.3147533" lon="7.624455"><ele>324.0</ele><time>2026-05-01T08:25:15.8Z</time></trkpt><trkpt lat="45.3148817" lon="7.624395"><ele>324.5</ele><time>2026-05-01T08:25:16.8Z</time></trkpt><trkpt lat="45.31499" lon="7.6243483"><ele>325.0</ele><time>2026-05-01T08:25:17.8Z</time></trkpt><trkpt lat="45.3151167" lon="7.624325"><ele>325.5</ele><time>2026-05-01T08:25:18.8Z</time></trkpt><trkpt lat="45.3152633" lon="7.6243317"><ele>326.0</ele><time>2026-05-01T08:25:19.8Z</time></trkpt><trkpt lat="45.31541" lon="7.62433"><ele>326.0</ele><time>2026-05-01T08:25:20.8Z</time></trkpt><trkpt lat="45.3155583" lon="7.624315"><ele>326.0</ele><time>2026-05-01T08:25:21.8Z</time></trkpt><trkpt lat="45.31573" lon="7.6242883"><ele>326.0</ele><time>2026-05-01T08:25:22.8Z</time></trkpt><trkpt lat="45.31588" lon="7.6242683"><ele>325.75</ele><time>2026-05-01T08:25:23.8Z</time></trkpt><trkpt lat="45.31602" lon="7.624255"><ele>325.5</ele><time>2026-05-01T08:25:24.8Z</time></trkpt><trkpt lat="45.3161633" lon="7.624255"><ele>325.25</ele><time>2026-05-01T08:25:25.8Z</time></trkpt><trkpt lat="45.3163233" lon="7.6242583"><ele>325.0</ele><time>2026-05-01T08:25:26.8Z</time></trkpt><trkpt lat="45.3164783" lon="7.624265"><ele>325.5</ele><time>2026-05-01T08:25:27.8Z</time></trkpt><trkpt lat="45.31662" lon="7.6242567"><ele>326.0</ele><time>2026-05-01T08:25:28.8Z</time></trkpt><trkpt lat="45.3167517" lon="7.6242483"><ele>326.5</ele><time>2026-05-01T08:25:29.8Z</time></trkpt><trkpt lat="45.316895" lon="7.62426"><ele>327.0</ele><time>2026-05-01T08:25:30.8Z</time></trkpt><trkpt lat="45.31705" lon="7.6242817"><ele>327.0</ele><time>2026-05-01T08:25:31.799Z</time></trkpt><trkpt lat="45.317205" lon="7.6243033"><ele>327.0</ele><time>2026-05-01T08:25:32.8Z</time></trkpt><trkpt lat="45.3173467" lon="7.6243183"><ele>327.0</ele><time>2026-05-01T08:25:33.8Z</time></trkpt><trkpt lat="45.3174683" lon="7.62433"><ele>327.0</ele><time>2026-05-01T08:25:34.8Z</time></trkpt><trkpt lat="45.3175733" lon="7.6243517"><ele>327.0</ele><time>2026-05-01T08:25:35.8Z</time></trkpt><trkpt lat="45.3176633" lon="7.624365"><ele>327.0</ele><time>2026-05-01T08:25:36.8Z</time></trkpt><trkpt lat="45.3177367" lon="7.6243867"><ele>327.0</ele><time>2026-05-01T08:25:37.8Z</time></trkpt><trkpt lat="45.3177933" lon="7.6244267"><ele>327.0</ele><time>2026-05-01T08:25:38.8Z</time></trkpt><trkpt lat="45.3178617" lon="7.624565"><ele>327.0</ele><time>2026-05-01T08:25:40.8Z</time></trkpt><trkpt lat="45.3178617" lon="7.6246667"><ele>327.0</ele><time>2026-05-01T08:25:41.8Z</time></trkpt><trkpt lat="45.3178583" lon="7.624765"><ele>326.6666666666667</ele><time>2026-05-01T08:25:42.8Z</time></trkpt><trkpt lat="45.31787" lon="7.6248583"><ele>326.3333333333333</ele><time>2026-05-01T08:25:43.8Z</time></trkpt><trkpt lat="45.3178867" lon="7.6249583"><ele>326.0</ele><time>2026-05-01T08:25:44.8Z</time></trkpt><trkpt lat="45.3179217" lon="7.6250433"><ele>325.66666666666663</ele><time>2026-05-01T08:25:45.8Z</time></trkpt><trkpt lat="45.317975" lon="7.6251217"><ele>325.3333333333333</ele><time>2026-05-01T08:25:46.799Z</time></trkpt><trkpt lat="45.3180683" lon="7.62517"><ele>325.0</ele><time>2026-05-01T08:25:47.8Z</time></trkpt><trkpt lat="45.3181733" lon="7.6252183"><ele>324.75</ele><time>2026-05-01T08:25:48.8Z</time></trkpt><trkpt lat="45.3182983" lon="7.62525"><ele>324.5</ele><time>2026-05-01T08:25:49.8Z</time></trkpt><trkpt lat="45.31843" lon="7.6252617"><ele>324.25</ele><time>2026-05-01T08:25:50.8Z</time></trkpt><trkpt lat="45.31856" lon="7.6252567"><ele>324.0</ele><time>2026-05-01T08:25:51.8Z</time></trkpt><trkpt lat="45.3186717" lon="7.6252433"><ele>324.0</ele><time>2026-05-01T08:25:52.799Z</time></trkpt><trkpt lat="45.318775" lon="7.6252067"><ele>324.0</ele><time>2026-05-01T08:25:53.8Z</time></trkpt><trkpt lat="45.3188733" lon="7.6251633"><ele>324.0</ele><time>2026-05-01T08:25:54.8Z</time></trkpt><trkpt lat="45.3189467" lon="7.6251333"><ele>324.0</ele><time>2026-05-01T08:25:55.8Z</time></trkpt><trkpt lat="45.3190417" lon="7.6250867"><ele>324.0</ele><time>2026-05-01T08:25:57.799Z</time></trkpt><trkpt lat="45.3191" lon="7.6250483"><ele>324.4</ele><time>2026-05-01T08:26:00.8Z</time></trkpt><trkpt lat="45.3191533" lon="7.6249733"><ele>324.79999999999995</ele><time>2026-05-01T08:26:02.8Z</time></trkpt><trkpt lat="45.3192067" lon="7.6248333"><ele>325.20000000000005</ele><time>2026-05-01T08:26:04.8Z</time></trkpt><trkpt lat="45.31925" lon="7.624715"><ele>325.6</ele><time>2026-05-01T08:26:06.8Z</time></trkpt><trkpt lat="45.3193033" lon="7.62456"><ele>326.0</ele><time>2026-05-01T08:26:08.8Z</time></trkpt><trkpt lat="45.3193383" lon="7.6244833"><ele>326.20000000000005</ele><time>2026-05-01T08:26:09.8Z</time></trkpt><trkpt lat="45.3193767" lon="7.6243833"><ele>326.40000000000003</ele><time>2026-05-01T08:26:10.8Z</time></trkpt><trkpt lat="45.31942" lon="7.62426"><ele>326.6</ele><time>2026-05-01T08:26:11.8Z</time></trkpt><trkpt lat="45.3194633" lon="7.6241367"><ele>326.8</ele><time>2026-05-01T08:26:12.8Z</time></trkpt><trkpt lat="45.3195067" lon="7.6240033"><ele>327.0</ele><time>2026-05-01T08:26:13.8Z</time></trkpt><trkpt lat="45.3195467" lon="7.6238617"><ele>327.0</ele><time>2026-05-01T08:26:14.8Z</time></trkpt><trkpt lat="45.319595" lon="7.62373"><ele>327.0</ele><time>2026-05-01T08:26:15.8Z</time></trkpt><trkpt lat="45.3196417" lon="7.6235933"><ele>327.0</ele><time>2026-05-01T08:26:16.8Z</time></trkpt><trkpt lat="45.3196933" lon="7.623455"><ele>327.0</ele><time>2026-05-01T08:26:17.8Z</time></trkpt><trkpt lat="45.3197467" lon="7.6233133"><ele>327.0</ele><time>2026-05-01T08:26:18.8Z</time></trkpt><trkpt lat="45.3197933" lon="7.6231783"><ele>327.25</ele><time>2026-05-01T08:26:19.8Z</time></trkpt><trkpt lat="45.3198617" lon="7.6230317"><ele>327.5</ele><time>2026-05-01T08:26:20.8Z</time></trkpt><trkpt lat="45.319935" lon="7.6228833"><ele>327.75</ele><time>2026-05-01T08:26:21.8Z</time></trkpt><trkpt lat="45.3200183" lon="7.622735"><ele>328.0</ele><time>2026-05-01T08:26:22.8Z</time></trkpt><trkpt lat="45.3200967" lon="7.6226067"><ele>328.0</ele><time>2026-05-01T08:26:23.8Z</time></trkpt><trkpt lat="45.3201667" lon="7.6224983"><ele>328.0</ele><time>2026-05-01T08:26:24.8Z</time></trkpt><trkpt lat="45.3202367" lon="7.62238"><ele>328.0</ele><time>2026-05-01T08:26:25.8Z</time></trkpt><trkpt lat="45.3203133" lon="7.6222533"><ele>328.0</ele><time>2026-05-01T08:26:26.799Z</time></trkpt><trkpt lat="45.3203933" lon="7.6221267"><ele>328.0</ele><time>2026-05-01T08:26:27.8Z</time></trkpt><trkpt lat="45.32048" lon="7.6219983"><ele>328.75</ele><time>2026-05-01T08:26:28.799Z</time></trkpt><trkpt lat="45.3205717" lon="7.62185"><ele>329.5</ele><time>2026-05-01T08:26:29.8Z</time></trkpt><trkpt lat="45.32065" lon="7.6217133"><ele>330.25</ele><time>2026-05-01T08:26:30.8Z</time></trkpt><trkpt lat="45.320735" lon="7.6215933"><ele>331.0</ele><time>2026-05-01T08:26:31.799Z</time></trkpt><trkpt lat="45.3207983" lon="7.621475"><ele>331.0</ele><time>2026-05-01T08:26:32.8Z</time></trkpt><trkpt lat="45.3208567" lon="7.6213617"><ele>331.0</ele><time>2026-05-01T08:26:33.8Z</time></trkpt><trkpt lat="45.3209167" lon="7.6212667"><ele>331.0</ele><time>2026-05-01T08:26:34.8Z</time></trkpt><trkpt lat="45.3209767" lon="7.6211767"><ele>331.0</ele><time>2026-05-01T08:26:35.8Z</time></trkpt><trkpt lat="45.3210283" lon="7.621105"><ele>331.0</ele><time>2026-05-01T08:26:36.8Z</time></trkpt><trkpt lat="45.3210717" lon="7.6210283"><ele>331.0</ele><time>2026-05-01T08:26:38.8Z</time></trkpt><trkpt lat="45.3211467" lon="7.6210433"><ele>331.20000000000005</ele><time>2026-05-01T08:26:44.8Z</time></trkpt><trkpt lat="45.3212067" lon="7.6210767"><ele>331.40000000000003</ele><time>2026-05-01T08:26:45.8Z</time></trkpt><trkpt lat="45.3213" lon="7.6211333"><ele>331.6</ele><time>2026-05-01T08:26:46.8Z</time></trkpt><trkpt lat="45.3214083" lon="7.6212167"><ele>331.8</ele><time>2026-05-01T08:26:47.8Z</time></trkpt><trkpt lat="45.3215467" lon="7.6213167"><ele>332.0</ele><time>2026-05-01T08:26:48.8Z</time></trkpt><trkpt lat="45.3216883" lon="7.6214"><ele>332.0</ele><time>2026-05-01T08:26:49.8Z</time></trkpt><trkpt lat="45.32183" lon="7.621495"><ele>332.0</ele><time>2026-05-01T08:26:50.8Z</time></trkpt><trkpt lat="45.3219733" lon="7.6215917"><ele>332.0</ele><time>2026-05-01T08:26:51.8Z</time></trkpt><trkpt lat="45.3221167" lon="7.6216967"><ele>332.75</ele><time>2026-05-01T08:26:52.8Z</time></trkpt><trkpt lat="45.3222517" lon="7.621805"><ele>333.5</ele><time>2026-05-01T08:26:53.8Z</time></trkpt><trkpt lat="45.322375" lon="7.6218967"><ele>334.25</ele><time>2026-05-01T08:26:54.8Z</time></trkpt><trkpt lat="45.3224883" lon="7.6219617"><ele>335.0</ele><time>2026-05-01T08:26:55.8Z</time></trkpt><trkpt lat="45.3225867" lon="7.622045"><ele>335.0</ele><time>2026-05-01T08:26:56.8Z</time></trkpt><trkpt lat="45.3226767" lon="7.6220667"><ele>335.0</ele><time>2026-05-01T08:26:57.8Z</time></trkpt><trkpt lat="45.3227567" lon="7.622055"><ele>335.0</ele><time>2026-05-01T08:26:58.8Z</time></trkpt><trkpt lat="45.32284" lon="7.622015"><ele>335.0</ele><time>2026-05-01T08:26:59.8Z</time></trkpt><trkpt lat="45.3229317" lon="7.6219267"><ele>335.0</ele><time>2026-05-01T08:27:00.8Z</time></trkpt><trkpt lat="45.3230433" lon="7.6218117"><ele>336.75</ele><time>2026-05-01T08:27:01.8Z</time></trkpt><trkpt lat="45.3231433" lon="7.6216867"><ele>338.5</ele><time>2026-05-01T08:27:02.8Z</time></trkpt><trkpt lat="45.323255" lon="7.62159"><ele>340.25</ele><time>2026-05-01T08:27:03.8Z</time></trkpt><trkpt lat="45.3233617" lon="7.6214967"><ele>342.0</ele><time>2026-05-01T08:27:04.799Z</time></trkpt><trkpt lat="45.3234717" lon="7.6214167"><ele>342.0</ele><time>2026-05-01T08:27:05.8Z</time></trkpt><trkpt lat="45.32358" lon="7.6214017"><ele>342.0</ele><time>2026-05-01T08:27:06.8Z</time></trkpt><trkpt lat="45.3237" lon="7.621435"><ele>342.0</ele><time>2026-05-01T08:27:07.799Z</time></trkpt><trkpt lat="45.323815" lon="7.6214917"><ele>342.0</ele><time>2026-05-01T08:27:08.8Z</time></trkpt><trkpt lat="45.3239333" lon="7.62158"><ele>345.5</ele><time>2026-05-01T08:27:09.8Z</time></trkpt><trkpt lat="45.3240433" lon="7.62163"><ele>349.0</ele><time>2026-05-01T08:27:10.8Z</time></trkpt><trkpt lat="45.3241633" lon="7.621615"><ele>352.5</ele><time>2026-05-01T08:27:11.8Z</time></trkpt><trkpt lat="45.3242883" lon="7.6215517"><ele>356.0</ele><time>2026-05-01T08:27:12.8Z</time></trkpt><trkpt lat="45.32442" lon="7.6214633"><ele>356.0</ele><time>2026-05-01T08:27:13.8Z</time></trkpt><trkpt lat="45.3245533" lon="7.6213683"><ele>356.0</ele><time>2026-05-01T08:27:14.8Z</time></trkpt><trkpt lat="45.3246883" lon="7.621265"><ele>356.0</ele><time>2026-05-01T08:27:15.8Z</time></trkpt><trkpt lat="45.32479" lon="7.6211683"><ele>356.0</ele><time>2026-05-01T08:27:16.8Z</time></trkpt><trkpt lat="45.3249067" lon="7.6210667"><ele>357.0</ele><time>2026-05-01T08:27:17.8Z</time></trkpt><trkpt lat="45.325" lon="7.6209833"><ele>358.0</ele><time>2026-05-01T08:27:18.8Z</time></trkpt><trkpt lat="45.3251" lon="7.62089"><ele>359.0</ele><time>2026-05-01T08:27:19.8Z</time></trkpt><trkpt lat="45.32518" lon="7.620825"><ele>360.0</ele><time>2026-05-01T08:27:20.8Z</time></trkpt><trkpt lat="45.3252667" lon="7.6207733"><ele>361.0</ele><time>2026-05-01T08:27:21.8Z</time></trkpt><trkpt lat="45.3253467" lon="7.6207617"><ele>361.0</ele><time>2026-05-01T08:27:22.8Z</time></trkpt><trkpt lat="45.3254167" lon="7.620785"><ele>361.0</ele><time>2026-05-01T08:27:23.8Z</time></trkpt><trkpt lat="45.3254983" lon="7.6208967"><ele>361.0</ele><time>2026-05-01T08:27:25.8Z</time></trkpt><trkpt lat="45.3255917" lon="7.620955"><ele>361.0</ele><time>2026-05-01T08:27:27.799Z</time></trkpt><trkpt lat="45.3257367" lon="7.6209283"><ele>361.0</ele><time>2026-05-01T08:27:29.8Z</time></trkpt><trkpt lat="45.3258433" lon="7.6209133"><ele>363.5</ele><time>2026-05-01T08:27:30.8Z</time></trkpt><trkpt lat="45.3259633" lon="7.6209117"><ele>366.0</ele><time>2026-05-01T08:27:31.8Z</time></trkpt><trkpt lat="45.3260933" lon="7.6209517"><ele>368.5</ele><time>2026-05-01T08:27:32.8Z</time></trkpt><trkpt lat="45.3262117" lon="7.621015"><ele>371.0</ele><time>2026-05-01T08:27:33.8Z</time></trkpt><trkpt lat="45.326315" lon="7.62109"><ele>374.0</ele><time>2026-05-01T08:27:34.8Z</time></trkpt><trkpt lat="45.3263933" lon="7.6211833"><ele>377.0</ele><time>2026-05-01T08:27:35.8Z</time></trkpt><trkpt lat="45.326455" lon="7.6212983"><ele>380.0</ele><time>2026-05-01T08:27:36.8Z</time></trkpt><trkpt lat="45.3265283" lon="7.6213867"><ele>383.0</ele><time>2026-05-01T08:27:37.8Z</time></trkpt><trkpt lat="45.3265917" lon="7.6214233"><ele>386.0</ele><time>2026-05-01T08:27:38.799Z</time></trkpt><trkpt lat="45.326675" lon="7.621425"><ele>386.6</ele><time>2026-05-01T08:27:39.799Z</time></trkpt><trkpt lat="45.3267717" lon="7.6214067"><ele>387.20000000000005</ele><time>2026-05-01T08:27:40.8Z</time></trkpt><trkpt lat="45.3268767" lon="7.6213733"><ele>387.79999999999995</ele><time>2026-05-01T08:27:41.8Z</time></trkpt><trkpt lat="45.326975" lon="7.62133"><ele>388.4</ele><time>2026-05-01T08:27:42.8Z</time></trkpt><trkpt lat="45.3270667" lon="7.6212883"><ele>389.0</ele><time>2026-05-01T08:27:43.8Z</time></trkpt><trkpt lat="45.3271483" lon="7.6212467"><ele>388.99999999999994</ele><time>2026-05-01T08:27:44.8Z</time></trkpt><trkpt lat="45.32722" lon="7.6211717"><ele>389.0</ele><time>2026-05-01T08:27:45.8Z</time></trkpt><trkpt lat="45.3272583" lon="7.6210783"><ele>389.0</ele><time>2026-05-01T08:27:46.8Z</time></trkpt><trkpt lat="45.3272783" lon="7.6209833"><ele>389.0</ele><time>2026-05-01T08:27:47.8Z</time></trkpt><trkpt lat="45.3272817" lon="7.6208883"><ele>388.99999999999994</ele><time>2026-05-01T08:27:48.8Z</time></trkpt><trkpt lat="45.3272617" lon="7.620765"><ele>389.0</ele><time>2026-05-01T08:27:49.8Z</time></trkpt><trkpt lat="45.3272283" lon="7.6206117"><ele>387.25</ele><time>2026-05-01T08:27:50.8Z</time></trkpt><trkpt lat="45.3271783" lon="7.620425"><ele>385.5</ele><time>2026-05-01T08:27:51.8Z</time></trkpt><trkpt lat="45.3271283" lon="7.6202233"><ele>383.75</ele><time>2026-05-01T08:27:52.8Z</time></trkpt><trkpt lat="45.327105" lon="7.6200567"><ele>382.0</ele><time>2026-05-01T08:27:53.8Z</time></trkpt><trkpt lat="45.3270917" lon="7.6199183"><ele>382.0</ele><time>2026-05-01T08:27:54.8Z</time></trkpt><trkpt lat="45.327095" lon="7.61981"><ele>382.0</ele><time>2026-05-01T08:27:55.8Z</time></trkpt><trkpt lat="45.3271183" lon="7.6197267"><ele>382.0</ele><time>2026-05-01T08:27:56.8Z</time></trkpt><trkpt lat="45.3272017" lon="7.619625"><ele>382.0</ele><time>2026-05-01T08:27:58.8Z</time></trkpt><trkpt lat="45.3272917" lon="7.6197433"><ele>382.0</ele><time>2026-05-01T08:28:00.8Z</time></trkpt><trkpt lat="45.3273117" lon="7.6198917"><ele>384.8333333333333</ele><time>2026-05-01T08:28:01.8Z</time></trkpt><trkpt lat="45.327325" lon="7.6200233"><ele>387.66666666666663</ele><time>2026-05-01T08:28:02.8Z</time></trkpt><trkpt lat="45.3273533" lon="7.62015"><ele>390.5</ele><time>2026-05-01T08:28:03.8Z</time></trkpt><trkpt lat="45.3273783" lon="7.620255"><ele>393.3333333333333</ele><time>2026-05-01T08:28:04.8Z</time></trkpt><trkpt lat="45.3274083" lon="7.620365"><ele>396.1666666666667</ele><time>2026-05-01T08:28:05.799Z</time></trkpt><trkpt lat="45.327445" lon="7.62049"><ele>399.0</ele><time>2026-05-01T08:28:06.8Z</time></trkpt><trkpt lat="45.3274883" lon="7.6206183"><ele>399.0</ele><time>2026-05-01T08:28:07.8Z</time></trkpt><trkpt lat="45.3275267" lon="7.6207483"><ele>399.0</ele><time>2026-05-01T08:28:08.801Z</time></trkpt><trkpt lat="45.3275717" lon="7.620875"><ele>399.0</ele><time>2026-05-01T08:28:09.8Z</time></trkpt><trkpt lat="45.32763" lon="7.6209933"><ele>399.0</ele><time>2026-05-01T08:28:10.801Z</time></trkpt><trkpt lat="45.3276933" lon="7.621105"><ele>399.0</ele><time>2026-05-01T08:28:11.801Z</time></trkpt><trkpt lat="45.32776" lon="7.62121"><ele>399.0</ele><time>2026-05-01T08:28:12.801Z</time></trkpt><trkpt lat="45.3278317" lon="7.6212967"><ele>399.0</ele><time>2026-05-01T08:28:13.801Z</time></trkpt><trkpt lat="45.3279217" lon="7.621365"><ele>399.0</ele><time>2026-05-01T08:28:14.801Z</time></trkpt><trkpt lat="45.328015" lon="7.6214283"><ele>399.0</ele><time>2026-05-01T08:28:15.801Z</time></trkpt><trkpt lat="45.3281083" lon="7.621495"><ele>399.0</ele><time>2026-05-01T08:28:16.801Z</time></trkpt><trkpt lat="45.3281883" lon="7.621575"><ele>400.1666666666667</ele><time>2026-05-01T08:28:17.801Z</time></trkpt><trkpt lat="45.3282567" lon="7.6216567"><ele>401.33333333333337</ele><time>2026-05-01T08:28:18.801Z</time></trkpt><trkpt lat="45.3283183" lon="7.6217317"><ele>402.5</ele><time>2026-05-01T08:28:19.801Z</time></trkpt><trkpt lat="45.3283633" lon="7.6218117"><ele>403.6666666666667</ele><time>2026-05-01T08:28:20.801Z</time></trkpt><trkpt lat="45.3284067" lon="7.6218917"><ele>404.83333333333337</ele><time>2026-05-01T08:28:21.801Z</time></trkpt><trkpt lat="45.32844" lon="7.62198"><ele>406.0</ele><time>2026-05-01T08:28:22.801Z</time></trkpt><trkpt lat="45.3284617" lon="7.6220717"><ele>406.00000000000006</ele><time>2026-05-01T08:28:23.801Z</time></trkpt><trkpt lat="45.3284617" lon="7.6221683"><ele>406.0</ele><time>2026-05-01T08:28:24.801Z</time></trkpt><trkpt lat="45.3284483" lon="7.6222633"><ele>406.0</ele><time>2026-05-01T08:28:25.8Z</time></trkpt><trkpt lat="45.3284117" lon="7.6223717"><ele>406.0</ele><time>2026-05-01T08:28:26.801Z</time></trkpt><trkpt lat="45.3283617" lon="7.62249"><ele>406.00000000000006</ele><time>2026-05-01T08:28:27.801Z</time></trkpt><trkpt lat="45.3283067" lon="7.622615"><ele>406.0</ele><time>2026-05-01T08:28:28.801Z</time></trkpt><trkpt lat="45.3282567" lon="7.62274"><ele>406.6</ele><time>2026-05-01T08:28:29.801Z</time></trkpt><trkpt lat="45.3282117" lon="7.622865"><ele>407.20000000000005</ele><time>2026-05-01T08:28:30.801Z</time></trkpt><trkpt lat="45.3281667" lon="7.6229833"><ele>407.79999999999995</ele><time>2026-05-01T08:28:31.801Z</time></trkpt><trkpt lat="45.3281133" lon="7.62309"><ele>408.4</ele><time>2026-05-01T08:28:32.801Z</time></trkpt><trkpt lat="45.3280617" lon="7.623185"><ele>409.0</ele><time>2026-05-01T08:28:33.801Z</time></trkpt><trkpt lat="45.3280083" lon="7.6232783"><ele>409.00000000000006</ele><time>2026-05-01T08:28:34.8Z</time></trkpt><trkpt lat="45.3279567" lon="7.6233683"><ele>409.0</ele><time>2026-05-01T08:28:35.801Z</time></trkpt><trkpt lat="45.3279167" lon="7.6234417"><ele>409.0</ele><time>2026-05-01T08:28:36.801Z</time></trkpt><trkpt lat="45.3278867" lon="7.62355"><ele>409.0</ele><time>2026-05-01T08:28:38.801Z</time></trkpt><trkpt lat="45.32798" lon="7.6234983"><ele>409.00000000000006</ele><time>2026-05-01T08:28:42.801Z</time></trkpt><trkpt lat="45.3280583" lon="7.6233683"><ele>409.0</ele><time>2026-05-01T08:28:43.801Z</time></trkpt><trkpt lat="45.32816" lon="7.6232133"><ele>408.25</ele><time>2026-05-01T08:28:44.8Z</time></trkpt><trkpt lat="45.32828" lon="7.6230467"><ele>407.5</ele><time>2026-05-01T08:28:45.801Z</time></trkpt><trkpt lat="45.3283883" lon="7.6228933"><ele>406.75</ele><time>2026-05-01T08:28:46.801Z</time></trkpt><trkpt lat="45.328475" lon="7.6227583"><ele>406.0</ele><time>2026-05-01T08:28:47.801Z</time></trkpt><trkpt lat="45.3285583" lon="7.6226283"><ele>406.0</ele><time>2026-05-01T08:28:48.801Z</time></trkpt><trkpt lat="45.3286583" lon="7.6224867"><ele>406.0</ele><time>2026-05-01T08:28:49.8Z</time></trkpt><trkpt lat="45.3287733" lon="7.6223483"><ele>406.0</ele><time>2026-05-01T08:28:50.801Z</time></trkpt><trkpt lat="45.3288917" lon="7.622235"><ele>406.0</ele><time>2026-05-01T08:28:51.801Z</time></trkpt><trkpt lat="45.32903" lon="7.6221433"><ele>404.33333333333337</ele><time>2026-05-01T08:28:52.801Z</time></trkpt><trkpt lat="45.3291833" lon="7.62204"><ele>402.66666666666663</ele><time>2026-05-01T08:28:53.801Z</time></trkpt><trkpt lat="45.329325" lon="7.6219617"><ele>401.0</ele><time>2026-05-01T08:28:54.801Z</time></trkpt><trkpt lat="45.329455" lon="7.6218817"><ele>401.0</ele><time>2026-05-01T08:28:55.801Z</time></trkpt><trkpt lat="45.3295733" lon="7.621815"><ele>401.0</ele><time>2026-05-01T08:28:56.801Z</time></trkpt><trkpt lat="45.3296867" lon="7.6217633"><ele>401.0</ele><time>2026-05-01T08:28:57.801Z</time></trkpt><trkpt lat="45.329805" lon="7.6217217"><ele>401.0</ele><time>2026-05-01T08:28:58.801Z</time></trkpt><trkpt lat="45.329905" lon="7.621675"><ele>397.25</ele><time>2026-05-01T08:28:59.801Z</time></trkpt><trkpt lat="45.33" lon="7.6216467"><ele>393.5</ele><time>2026-05-01T08:29:00.801Z</time></trkpt><trkpt lat="45.3301183" lon="7.62162"><ele>389.75</ele><time>2026-05-01T08:29:01.801Z</time></trkpt><trkpt lat="45.330245" lon="7.6215967"><ele>386.0</ele><time>2026-05-01T08:29:02.801Z</time></trkpt><trkpt lat="45.3303817" lon="7.62159"><ele>386.0</ele><time>2026-05-01T08:29:03.801Z</time></trkpt><trkpt lat="45.3305117" lon="7.621605"><ele>386.0</ele><time>2026-05-01T08:29:04.801Z</time></trkpt><trkpt lat="45.33064" lon="7.6216283"><ele>386.0</ele><time>2026-05-01T08:29:05.801Z</time></trkpt><trkpt lat="45.3307717" lon="7.6216733"><ele>386.0</ele><time>2026-05-01T08:29:06.801Z</time></trkpt><trkpt lat="45.330905" lon="7.621745"><ele>384.75</ele><time>2026-05-01T08:29:07.801Z</time></trkpt><trkpt lat="45.33103" lon="7.6218317"><ele>383.5</ele><time>2026-05-01T08:29:08.801Z</time></trkpt><trkpt lat="45.3311567" lon="7.6219167"><ele>382.25</ele><time>2026-05-01T08:29:09.801Z</time></trkpt><trkpt lat="45.331285" lon="7.622005"><ele>381.0</ele><time>2026-05-01T08:29:10.801Z</time></trkpt><trkpt lat="45.33141" lon="7.6220983"><ele>379.75</ele><time>2026-05-01T08:29:11.801Z</time></trkpt><trkpt lat="45.3315367" lon="7.6221983"><ele>378.5</ele><time>2026-05-01T08:29:12.801Z</time></trkpt><trkpt lat="45.3316633" lon="7.6222933"><ele>377.25</ele><time>2026-05-01T08:29:13.801Z</time></trkpt><trkpt lat="45.3317933" lon="7.6223917"><ele>376.0</ele><time>2026-05-01T08:29:14.801Z</time></trkpt><trkpt lat="45.3319167" lon="7.6224933"><ele>376.0</ele><time>2026-05-01T08:29:15.801Z</time></trkpt><trkpt lat="45.3320383" lon="7.6226133"><ele>376.0</ele><time>2026-05-01T08:29:16.801Z</time></trkpt><trkpt lat="45.332165" lon="7.622715"><ele>376.0</ele><time>2026-05-01T08:29:17.801Z</time></trkpt><trkpt lat="45.3322917" lon="7.6228183"><ele>376.0</ele><time>2026-05-01T08:29:18.801Z</time></trkpt><trkpt lat="45.3324183" lon="7.6229167"><ele>376.75</ele><time>2026-05-01T08:29:19.801Z</time></trkpt><trkpt lat="45.3325467" lon="7.6230167"><ele>377.5</ele><time>2026-05-01T08:29:20.801Z</time></trkpt><trkpt lat="45.332675" lon="7.623115"><ele>378.25</ele><time>2026-05-01T08:29:21.801Z</time></trkpt><trkpt lat="45.3327967" lon="7.623215"><ele>379.0</ele><time>2026-05-01T08:29:22.801Z</time></trkpt><trkpt lat="45.3329183" lon="7.62332"><ele>379.0</ele><time>2026-05-01T08:29:23.8Z</time></trkpt><trkpt lat="45.3330367" lon="7.623405"><ele>379.0</ele><time>2026-05-01T08:29:24.801Z</time></trkpt><trkpt lat="45.3331467" lon="7.6235033"><ele>379.0</ele><time>2026-05-01T08:29:25.801Z</time></trkpt><trkpt lat="45.33325" lon="7.62358"><ele>379.0</ele><time>2026-05-01T08:29:26.801Z</time></trkpt><trkpt lat="45.3333283" lon="7.6236383"><ele>378.6</ele><time>2026-05-01T08:29:27.8Z</time></trkpt><trkpt lat="45.3333967" lon="7.62369"><ele>378.2</ele><time>2026-05-01T08:29:28.801Z</time></trkpt><trkpt lat="45.33345" lon="7.6238117"><ele>377.8</ele><time>2026-05-01T08:29:30.801Z</time></trkpt><trkpt lat="45.3334033" lon="7.6240117"><ele>377.40000000000003</ele><time>2026-05-01T08:29:32.801Z</time></trkpt><trkpt lat="45.3333517" lon="7.6241683"><ele>377.0</ele><time>2026-05-01T08:29:33.801Z</time></trkpt><trkpt lat="45.3332733" lon="7.6243533"><ele>376.6</ele><time>2026-05-01T08:29:34.801Z</time></trkpt><trkpt lat="45.3332183" lon="7.6245217"><ele>376.20000000000005</ele><time>2026-05-01T08:29:35.801Z</time></trkpt><trkpt lat="45.333165" lon="7.6246783"><ele>375.8</ele><time>2026-05-01T08:29:36.801Z</time></trkpt><trkpt lat="45.3331217" lon="7.6248033"><ele>375.4</ele><time>2026-05-01T08:29:37.801Z</time></trkpt><trkpt lat="45.333085" lon="7.6249083"><ele>375.0</ele><time>2026-05-01T08:29:38.801Z</time></trkpt><trkpt lat="45.3330683" lon="7.6250517"><ele>375.0</ele><time>2026-05-01T08:29:40.801Z</time></trkpt><trkpt lat="45.3331383" lon="7.6251667"><ele>375.0</ele><time>2026-05-01T08:29:42.801Z</time></trkpt><trkpt lat="45.33321" lon="7.6252117"><ele>375.0</ele><time>2026-05-01T08:29:43.801Z</time></trkpt><trkpt lat="45.3332883" lon="7.625235"><ele>375.0</ele><time>2026-05-01T08:29:44.801Z</time></trkpt><trkpt lat="45.3333517" lon="7.6252467"><ele>375.0</ele><time>2026-05-01T08:29:45.801Z</time></trkpt><trkpt lat="45.3334383" lon="7.6252467"><ele>375.0</ele><time>2026-05-01T08:29:47.801Z</time></trkpt><trkpt lat="45.3334817" lon="7.6253767"><ele>374.4</ele><time>2026-05-01T08:29:50.801Z</time></trkpt><trkpt lat="45.3334817" lon="7.625485"><ele>373.8</ele><time>2026-05-01T08:29:51.801Z</time></trkpt><trkpt lat="45.3334733" lon="7.6256133"><ele>373.20000000000005</ele><time>2026-05-01T08:29:52.801Z</time></trkpt><trkpt lat="45.3334633" lon="7.6257567"><ele>372.6</ele><time>2026-05-01T08:29:53.801Z</time></trkpt><trkpt lat="45.33345" lon="7.62592"><ele>372.0</ele><time>2026-05-01T08:29:54.801Z</time></trkpt><trkpt lat="45.3334367" lon="7.6260667"><ele>371.8</ele><time>2026-05-01T08:29:55.801Z</time></trkpt><trkpt lat="45.3334267" lon="7.62621"><ele>371.6</ele><time>2026-05-01T08:29:56.801Z</time></trkpt><trkpt lat="45.3334133" lon="7.6263533"><ele>371.40000000000003</ele><time>2026-05-01T08:29:57.801Z</time></trkpt><trkpt lat="45.333405" lon="7.6265083"><ele>371.20000000000005</ele><time>2026-05-01T08:29:58.801Z</time></trkpt><trkpt lat="45.333405" lon="7.6266733"><ele>371.0</ele><time>2026-05-01T08:29:59.801Z</time></trkpt><trkpt lat="45.333395" lon="7.6268283"><ele>370.25</ele><time>2026-05-01T08:30:00.801Z</time></trkpt><trkpt lat="45.3333883" lon="7.6269867"><ele>369.5</ele><time>2026-05-01T08:30:01.801Z</time></trkpt><trkpt lat="45.33339" lon="7.6271433"><ele>368.75</ele><time>2026-05-01T08:30:02.801Z</time></trkpt><trkpt lat="45.3333967" lon="7.62731"><ele>368.0</ele><time>2026-05-01T08:30:03.801Z</time></trkpt><trkpt lat="45.3334067" lon="7.62748"><ele>368.0</ele><time>2026-05-01T08:30:04.8Z</time></trkpt><trkpt lat="45.3334217" lon="7.62765"><ele>368.0</ele><time>2026-05-01T08:30:05.8Z</time></trkpt><trkpt lat="45.3334433" lon="7.6278"><ele>368.0</ele><time>2026-05-01T08:30:06.801Z</time></trkpt><trkpt lat="45.3334467" lon="7.6279283"><ele>368.0</ele><time>2026-05-01T08:30:07.801Z</time></trkpt><trkpt lat="45.3334717" lon="7.628055"><ele>368.0</ele><time>2026-05-01T08:30:08.801Z</time></trkpt><trkpt lat="45.333495" lon="7.628175"><ele>367.79999999999995</ele><time>2026-05-01T08:30:09.801Z</time></trkpt><trkpt lat="45.3335117" lon="7.6282917"><ele>367.6</ele><time>2026-05-01T08:30:10.801Z</time></trkpt><trkpt lat="45.3335167" lon="7.6284183"><ele>367.4</ele><time>2026-05-01T08:30:11.801Z</time></trkpt><trkpt lat="45.333495" lon="7.6285583"><ele>367.20000000000005</ele><time>2026-05-01T08:30:12.801Z</time></trkpt><trkpt lat="45.3334917" lon="7.6287183"><ele>367.0</ele><time>2026-05-01T08:30:13.801Z</time></trkpt><trkpt lat="45.3334817" lon="7.6288817"><ele>366.75</ele><time>2026-05-01T08:30:14.801Z</time></trkpt><trkpt lat="45.3334633" lon="7.6290533"><ele>366.5</ele><time>2026-05-01T08:30:15.8Z</time></trkpt><trkpt lat="45.333435" lon="7.62923"><ele>366.25</ele><time>2026-05-01T08:30:16.801Z</time></trkpt><trkpt lat="45.3334083" lon="7.6294133"><ele>366.0</ele><time>2026-05-01T08:30:17.801Z</time></trkpt><trkpt lat="45.3333733" lon="7.629595"><ele>366.0</ele><time>2026-05-01T08:30:18.801Z</time></trkpt><trkpt lat="45.3333467" lon="7.6297833"><ele>366.0</ele><time>2026-05-01T08:30:19.801Z</time></trkpt><trkpt lat="45.3333217" lon="7.6299717"><ele>366.0</ele><time>2026-05-01T08:30:20.801Z</time></trkpt><trkpt lat="45.33329" lon="7.6301567"><ele>366.0</ele><time>2026-05-01T08:30:21.801Z</time></trkpt><trkpt lat="45.333255" lon="7.6303467"><ele>366.0</ele><time>2026-05-01T08:30:22.801Z</time></trkpt><trkpt lat="45.3332117" lon="7.6305367"><ele>366.0</ele><time>2026-05-01T08:30:23.801Z</time></trkpt><trkpt lat="45.3331583" lon="7.6307267"><ele>366.0</ele><time>2026-05-01T08:30:24.801Z</time></trkpt><trkpt lat="45.333095" lon="7.6309067"><ele>366.0</ele><time>2026-05-01T08:30:25.801Z</time></trkpt><trkpt lat="45.3330283" lon="7.6310817"><ele>364.75</ele><time>2026-05-01T08:30:26.801Z</time></trkpt><trkpt lat="45.33296" lon="7.6312483"><ele>363.5</ele><time>2026-05-01T08:30:27.801Z</time></trkpt><trkpt lat="45.332895" lon="7.6314117"><ele>362.25</ele><time>2026-05-01T08:30:28.801Z</time></trkpt><trkpt lat="45.3328433" lon="7.6315767"><ele>361.0</ele><time>2026-05-01T08:30:29.801Z</time></trkpt><trkpt lat="45.3327917" lon="7.6317533"><ele>361.0</ele><time>2026-05-01T08:30:30.801Z</time></trkpt><trkpt lat="45.3327433" lon="7.6319467"><ele>361.0</ele><time>2026-05-01T08:30:31.801Z</time></trkpt><trkpt lat="45.3327067" lon="7.6321533"><ele>361.0</ele><time>2026-05-01T08:30:32.8Z</time></trkpt><trkpt lat="45.33268" lon="7.6323717"><ele>360.0</ele><time>2026-05-01T08:30:33.801Z</time></trkpt><trkpt lat="45.3326533" lon="7.6326"><ele>359.0</ele><time>2026-05-01T08:30:34.801Z</time></trkpt><trkpt lat="45.3326333" lon="7.6328267"><ele>358.0</ele><time>2026-05-01T08:30:35.801Z</time></trkpt><trkpt lat="45.3326133" lon="7.63304"><ele>357.5</ele><time>2026-05-01T08:30:36.801Z</time></trkpt><trkpt lat="45.3325967" lon="7.6332417"><ele>357.0</ele><time>2026-05-01T08:30:37.801Z</time></trkpt><trkpt lat="45.3325783" lon="7.63343"><ele>356.5</ele><time>2026-05-01T08:30:38.801Z</time></trkpt><trkpt lat="45.3325667" lon="7.63361"><ele>356.0</ele><time>2026-05-01T08:30:39.801Z</time></trkpt><trkpt lat="45.3325533" lon="7.6337767"><ele>355.5</ele><time>2026-05-01T08:30:40.801Z</time></trkpt><trkpt lat="45.3325367" lon="7.633945"><ele>355.0</ele><time>2026-05-01T08:30:41.801Z</time></trkpt><trkpt lat="45.3324983" lon="7.6341083"><ele>354.5</ele><time>2026-05-01T08:30:42.801Z</time></trkpt><trkpt lat="45.332445" lon="7.6342567"><ele>354.0</ele><time>2026-05-01T08:30:43.801Z</time></trkpt><trkpt lat="45.3323833" lon="7.634395"><ele>353.5</ele><time>2026-05-01T08:30:44.8Z</time></trkpt><trkpt lat="45.332315" lon="7.6345317"><ele>353.0</ele><time>2026-05-01T08:30:45.801Z</time></trkpt><trkpt lat="45.3322317" lon="7.6346733"><ele>352.5</ele><time>2026-05-01T08:30:46.801Z</time></trkpt><trkpt lat="45.33214" lon="7.6348117"><ele>352.0</ele><time>2026-05-01T08:30:47.801Z</time></trkpt><trkpt lat="45.3320367" lon="7.6349483"><ele>350.66666666666663</ele><time>2026-05-01T08:30:48.801Z</time></trkpt><trkpt lat="45.33193" lon="7.6351"><ele>349.3333333333333</ele><time>2026-05-01T08:30:49.801Z</time></trkpt><trkpt lat="45.3318233" lon="7.6352567"><ele>348.0</ele><time>2026-05-01T08:30:50.801Z</time></trkpt><trkpt lat="45.331705" lon="7.6354117"><ele>347.3333333333333</ele><time>2026-05-01T08:30:51.801Z</time></trkpt><trkpt lat="45.3315917" lon="7.6355517"><ele>346.66666666666663</ele><time>2026-05-01T08:30:52.801Z</time></trkpt><trkpt lat="45.3314733" lon="7.635735"><ele>346.0</ele><time>2026-05-01T08:30:53.801Z</time></trkpt><trkpt lat="45.3313583" lon="7.6358967"><ele>346.0</ele><time>2026-05-01T08:30:54.8Z</time></trkpt><trkpt lat="45.3312517" lon="7.6360583"><ele>346.0</ele><time>2026-05-01T08:30:55.801Z</time></trkpt><trkpt lat="45.3311467" lon="7.6362167"><ele>346.0</ele><time>2026-05-01T08:30:56.801Z</time></trkpt><trkpt lat="45.3310383" lon="7.6363667"><ele>345.5</ele><time>2026-05-01T08:30:57.801Z</time></trkpt><trkpt lat="45.3309317" lon="7.6365183"><ele>345.0</ele><time>2026-05-01T08:30:58.801Z</time></trkpt><trkpt lat="45.330825" lon="7.63667"><ele>344.5</ele><time>2026-05-01T08:30:59.801Z</time></trkpt><trkpt lat="45.3307217" lon="7.6368133"><ele>344.0</ele><time>2026-05-01T08:31:00.801Z</time></trkpt><trkpt lat="45.330615" lon="7.636965"><ele>343.75</ele><time>2026-05-01T08:31:01.801Z</time></trkpt><trkpt lat="45.33051" lon="7.6371117"><ele>343.5</ele><time>2026-05-01T08:31:02.801Z</time></trkpt><trkpt lat="45.3304167" lon="7.63727"><ele>343.25</ele><time>2026-05-01T08:31:03.801Z</time></trkpt><trkpt lat="45.33032" lon="7.6374367"><ele>343.0</ele><time>2026-05-01T08:31:04.801Z</time></trkpt><trkpt lat="45.3302267" lon="7.6376167"><ele>343.0</ele><time>2026-05-01T08:31:05.8Z</time></trkpt><trkpt lat="45.330145" lon="7.637795"><ele>343.0</ele><time>2026-05-01T08:31:06.801Z</time></trkpt><trkpt lat="45.3300717" lon="7.63796"><ele>343.0</ele><time>2026-05-01T08:31:07.801Z</time></trkpt><trkpt lat="45.3299833" lon="7.6381017"><ele>343.0</ele><time>2026-05-01T08:31:08.801Z</time></trkpt><trkpt lat="45.3299" lon="7.6382383"><ele>342.4</ele><time>2026-05-01T08:31:09.801Z</time></trkpt><trkpt lat="45.329815" lon="7.638355"><ele>341.79999999999995</ele><time>2026-05-01T08:31:10.801Z</time></trkpt><trkpt lat="45.329735" lon="7.638455"><ele>341.2</ele><time>2026-05-01T08:31:11.801Z</time></trkpt><trkpt lat="45.3296667" lon="7.6385333"><ele>340.6</ele><time>2026-05-01T08:31:12.801Z</time></trkpt><trkpt lat="45.3296083" lon="7.6385967"><ele>340.0</ele><time>2026-05-01T08:31:13.801Z</time></trkpt><trkpt lat="45.32952" lon="7.638685"><ele>339.8571428571429</ele><time>2026-05-01T08:31:15.801Z</time></trkpt><trkpt lat="45.3294633" lon="7.63874"><ele>339.71428571428567</ele><time>2026-05-01T08:31:17.801Z</time></trkpt><trkpt lat="45.3294083" lon="7.63879"><ele>339.57142857142856</ele><time>2026-05-01T08:31:21.801Z</time></trkpt><trkpt lat="45.329335" lon="7.6388833"><ele>339.42857142857144</ele><time>2026-05-01T08:32:09.801Z</time></trkpt><trkpt lat="45.3292883" lon="7.6389533"><ele>339.28571428571433</ele><time>2026-05-01T08:32:10.801Z</time></trkpt><trkpt lat="45.329245" lon="7.63903"><ele>339.1428571428571</ele><time>2026-05-01T08:32:11.801Z</time></trkpt><trkpt lat="45.3291983" lon="7.6391117"><ele>339.0</ele><time>2026-05-01T08:32:12.801Z</time></trkpt><trkpt lat="45.3291533" lon="7.6392067"><ele>339.0</ele><time>2026-05-01T08:32:13.801Z</time></trkpt><trkpt lat="45.3291083" lon="7.6393017"><ele>339.0</ele><time>2026-05-01T08:32:14.801Z</time></trkpt><trkpt lat="45.3290517" lon="7.639425"><ele>339.0</ele><time>2026-05-01T08:32:15.801Z</time></trkpt><trkpt lat="45.3290133" lon="7.6395483"><ele>339.0</ele><time>2026-05-01T08:32:16.801Z</time></trkpt><trkpt lat="45.328985" lon="7.6396783"><ele>339.0</ele><time>2026-05-01T08:32:17.801Z</time></trkpt><trkpt lat="45.3289667" lon="7.6398133"><ele>338.6</ele><time>2026-05-01T08:32:18.801Z</time></trkpt><trkpt lat="45.32894" lon="7.639955"><ele>338.2</ele><time>2026-05-01T08:32:19.801Z</time></trkpt><trkpt lat="45.3289283" lon="7.6401017"><ele>337.8</ele><time>2026-05-01T08:32:20.801Z</time></trkpt><trkpt lat="45.3289383" lon="7.640255"><ele>337.40000000000003</ele><time>2026-05-01T08:32:21.8Z</time></trkpt><trkpt lat="45.3289483" lon="7.6404133"><ele>337.0</ele><time>2026-05-01T08:32:22.801Z</time></trkpt><trkpt lat="45.3289617" lon="7.640585"><ele>336.5</ele><time>2026-05-01T08:32:23.801Z</time></trkpt><trkpt lat="45.32897" lon="7.6407583"><ele>336.0</ele><time>2026-05-01T08:32:24.801Z</time></trkpt><trkpt lat="45.32897" lon="7.6409367"><ele>335.5</ele><time>2026-05-01T08:32:25.801Z</time></trkpt><trkpt lat="45.328985" lon="7.6410917"><ele>335.0</ele><time>2026-05-01T08:32:26.801Z</time></trkpt><trkpt lat="45.3290033" lon="7.6412633"><ele>334.75</ele><time>2026-05-01T08:32:27.801Z</time></trkpt><trkpt lat="45.3290183" lon="7.641425"><ele>334.5</ele><time>2026-05-01T08:32:28.801Z</time></trkpt><trkpt lat="45.329025" lon="7.6415883"><ele>334.25</ele><time>2026-05-01T08:32:29.801Z</time></trkpt><trkpt lat="45.32902" lon="7.641765"><ele>334.0</ele><time>2026-05-01T08:32:30.801Z</time></trkpt><trkpt lat="45.3290183" lon="7.641945"><ele>333.25</ele><time>2026-05-01T08:32:31.801Z</time></trkpt><trkpt lat="45.3290183" lon="7.6421267"><ele>332.5</ele><time>2026-05-01T08:32:32.801Z</time></trkpt><trkpt lat="45.3290133" lon="7.6423117"><ele>331.75</ele><time>2026-05-01T08:32:33.8Z</time></trkpt><trkpt lat="45.329005" lon="7.6424983"><ele>331.0</ele><time>2026-05-01T08:32:34.801Z</time></trkpt><trkpt lat="45.3290017" lon="7.6426883"><ele>330.75</ele><time>2026-05-01T08:32:35.801Z</time></trkpt><trkpt lat="45.329005" lon="7.6428833"><ele>330.5</ele><time>2026-05-01T08:32:36.801Z</time></trkpt><trkpt lat="45.32901" lon="7.6430783"><ele>330.25</ele><time>2026-05-01T08:32:37.801Z</time></trkpt><trkpt lat="45.3290133" lon="7.6432617"><ele>330.0</ele><time>2026-05-01T08:32:38.801Z</time></trkpt><trkpt lat="45.3290133" lon="7.6434383"><ele>330.0</ele><time>2026-05-01T08:32:39.801Z</time></trkpt><trkpt lat="45.329" lon="7.6435917"><ele>330.0</ele><time>2026-05-01T08:32:40.801Z</time></trkpt><trkpt lat="45.3289767" lon="7.6437217"><ele>330.0</ele><time>2026-05-01T08:32:41.801Z</time></trkpt><trkpt lat="45.3289533" lon="7.6438417"><ele>330.0</ele><time>2026-05-01T08:32:42.801Z</time></trkpt><trkpt lat="45.3289333" lon="7.6439433"><ele>330.0</ele><time>2026-05-01T08:32:43.801Z</time></trkpt><trkpt lat="45.3289033" lon="7.64404"><ele>330.0</ele><time>2026-05-01T08:32:44.801Z</time></trkpt><trkpt lat="45.328865" lon="7.644125"><ele>330.0</ele><time>2026-05-01T08:32:45.801Z</time></trkpt><trkpt lat="45.328855" lon="7.644285"><ele>330.0</ele><time>2026-05-01T08:32:47.801Z</time></trkpt><trkpt lat="45.3289367" lon="7.6444"><ele>330.0</ele><time>2026-05-01T08:32:49.801Z</time></trkpt><trkpt lat="45.3289933" lon="7.6444517"><ele>330.0</ele><time>2026-05-01T08:32:50.801Z</time></trkpt><trkpt lat="45.3290433" lon="7.64453"><ele>330.0</ele><time>2026-05-01T08:32:51.801Z</time></trkpt><trkpt lat="45.3290783" lon="7.6446283"><ele>330.0</ele><time>2026-05-01T08:32:52.801Z</time></trkpt><trkpt lat="45.329105" lon="7.6447517"><ele>329.6</ele><time>2026-05-01T08:32:53.801Z</time></trkpt><trkpt lat="45.329125" lon="7.6448883"><ele>329.2</ele><time>2026-05-01T08:32:54.801Z</time></trkpt><trkpt lat="45.3291467" lon="7.6450383"><ele>328.79999999999995</ele><time>2026-05-01T08:32:55.801Z</time></trkpt><trkpt lat="45.329175" lon="7.6451867"><ele>328.4</ele><time>2026-05-01T08:32:56.801Z</time></trkpt><trkpt lat="45.3292133" lon="7.645345"><ele>328.0</ele><time>2026-05-01T08:32:57.801Z</time></trkpt><trkpt lat="45.329255" lon="7.6455017"><ele>326.75</ele><time>2026-05-01T08:32:58.801Z</time></trkpt><trkpt lat="45.3293167" lon="7.645675"><ele>325.5</ele><time>2026-05-01T08:32:59.801Z</time></trkpt><trkpt lat="45.3293717" lon="7.645865"><ele>324.25</ele><time>2026-05-01T08:33:00.801Z</time></trkpt><trkpt lat="45.3294233" lon="7.6460433"><ele>323.0</ele><time>2026-05-01T08:33:01.801Z</time></trkpt><trkpt lat="45.3294767" lon="7.6462167"><ele>322.75</ele><time>2026-05-01T08:33:02.801Z</time></trkpt><trkpt lat="45.3295267" lon="7.6463933"><ele>322.5</ele><time>2026-05-01T08:33:03.801Z</time></trkpt><trkpt lat="45.3295717" lon="7.646575"><ele>322.25</ele><time>2026-05-01T08:33:04.801Z</time></trkpt><trkpt lat="45.3295983" lon="7.6467583"><ele>322.0</ele><time>2026-05-01T08:33:05.801Z</time></trkpt><trkpt lat="45.329605" lon="7.6469433"><ele>322.0</ele><time>2026-05-01T08:33:06.801Z</time></trkpt><trkpt lat="45.3296017" lon="7.647125"><ele>322.0</ele><time>2026-05-01T08:33:07.801Z</time></trkpt><trkpt lat="45.32957" lon="7.64731"><ele>322.0</ele><time>2026-05-01T08:33:08.801Z</time></trkpt><trkpt lat="45.3295467" lon="7.6474883"><ele>322.0</ele><time>2026-05-01T08:33:09.801Z</time></trkpt><trkpt lat="45.32951" lon="7.6476667"><ele>322.0</ele><time>2026-05-01T08:33:10.801Z</time></trkpt><trkpt lat="45.3294733" lon="7.6478517"><ele>322.0</ele><time>2026-05-01T08:33:11.801Z</time></trkpt><trkpt lat="45.329435" lon="7.6480333"><ele>322.0</ele><time>2026-05-01T08:33:12.801Z</time></trkpt><trkpt lat="45.3294" lon="7.648215"><ele>322.0</ele><time>2026-05-01T08:33:13.801Z</time></trkpt><trkpt lat="45.3293633" lon="7.648405"><ele>322.0</ele><time>2026-05-01T08:33:14.801Z</time></trkpt><trkpt lat="45.3293333" lon="7.648595"><ele>322.0</ele><time>2026-05-01T08:33:15.801Z</time></trkpt><trkpt lat="45.3293033" lon="7.6487817"><ele>322.0</ele><time>2026-05-01T08:33:16.801Z</time></trkpt><trkpt lat="45.32927" lon="7.6489683"><ele>322.0</ele><time>2026-05-01T08:33:17.801Z</time></trkpt><trkpt lat="45.32924" lon="7.649165"><ele>321.5</ele><time>2026-05-01T08:33:18.801Z</time></trkpt><trkpt lat="45.3292117" lon="7.6493433"><ele>321.0</ele><time>2026-05-01T08:33:19.801Z</time></trkpt><trkpt lat="45.3291933" lon="7.6495233"><ele>320.5</ele><time>2026-05-01T08:33:20.801Z</time></trkpt><trkpt lat="45.3291717" lon="7.64971"><ele>320.0</ele><time>2026-05-01T08:33:21.8Z</time></trkpt><trkpt lat="45.32915" lon="7.6498733"><ele>319.75</ele><time>2026-05-01T08:33:22.801Z</time></trkpt><trkpt lat="45.3291333" lon="7.650035"><ele>319.5</ele><time>2026-05-01T08:33:23.801Z</time></trkpt><trkpt lat="45.3291167" lon="7.6502033"><ele>319.25</ele><time>2026-05-01T08:33:24.801Z</time></trkpt><trkpt lat="45.329095" lon="7.6503583"><ele>319.0</ele><time>2026-05-01T08:33:25.801Z</time></trkpt><trkpt lat="45.32907" lon="7.6505183"><ele>318.4</ele><time>2026-05-01T08:33:26.801Z</time></trkpt><trkpt lat="45.32905" lon="7.650675"><ele>317.79999999999995</ele><time>2026-05-01T08:33:27.801Z</time></trkpt><trkpt lat="45.3290367" lon="7.65082"><ele>317.20000000000005</ele><time>2026-05-01T08:33:28.801Z</time></trkpt><trkpt lat="45.3290183" lon="7.650955"><ele>316.6</ele><time>2026-05-01T08:33:29.8Z</time></trkpt><trkpt lat="45.329005" lon="7.6510817"><ele>316.0</ele><time>2026-05-01T08:33:30.801Z</time></trkpt><trkpt lat="45.3289933" lon="7.6512083"><ele>316.0</ele><time>2026-05-01T08:33:31.801Z</time></trkpt><trkpt lat="45.3290067" lon="7.6513317"><ele>316.0</ele><time>2026-05-01T08:33:32.801Z</time></trkpt><trkpt lat="45.3290367" lon="7.6514517"><ele>316.0</ele><time>2026-05-01T08:33:33.801Z</time></trkpt><trkpt lat="45.32908" lon="7.65157"><ele>316.0</ele><time>2026-05-01T08:33:34.801Z</time></trkpt><trkpt lat="45.3291567" lon="7.6516533"><ele>316.0</ele><time>2026-05-01T08:33:35.801Z</time></trkpt><trkpt lat="45.329235" lon="7.6517383"><ele>316.0</ele><time>2026-05-01T08:33:36.801Z</time></trkpt><trkpt lat="45.3293167" lon="7.65182"><ele>316.0</ele><time>2026-05-01T08:33:37.801Z</time></trkpt><trkpt lat="45.3293917" lon="7.6519183"><ele>316.0</ele><time>2026-05-01T08:33:38.801Z</time></trkpt><trkpt lat="45.3294533" lon="7.652035"><ele>316.0</ele><time>2026-05-01T08:33:39.801Z</time></trkpt><trkpt lat="45.3295133" lon="7.6521583"><ele>316.0</ele><time>2026-05-01T08:33:40.801Z</time></trkpt><trkpt lat="45.3295717" lon="7.6522833"><ele>316.2</ele><time>2026-05-01T08:33:41.801Z</time></trkpt><trkpt lat="45.3296217" lon="7.652405"><ele>316.40000000000003</ele><time>2026-05-01T08:33:42.801Z</time></trkpt><trkpt lat="45.329675" lon="7.65253"><ele>316.6</ele><time>2026-05-01T08:33:43.801Z</time></trkpt><trkpt lat="45.329725" lon="7.6526633"><ele>316.8</ele><time>2026-05-01T08:33:44.801Z</time></trkpt><trkpt lat="45.3297733" lon="7.6527933"><ele>317.0</ele><time>2026-05-01T08:33:45.801Z</time></trkpt><trkpt lat="45.3298283" lon="7.6529117"><ele>317.0</ele><time>2026-05-01T08:33:46.801Z</time></trkpt><trkpt lat="45.3298717" lon="7.6530333"><ele>317.0</ele><time>2026-05-01T08:33:47.801Z</time></trkpt><trkpt lat="45.32992" lon="7.6531417"><ele>317.0</ele><time>2026-05-01T08:33:48.801Z</time></trkpt><trkpt lat="45.329965" lon="7.65324"><ele>317.0</ele><time>2026-05-01T08:33:49.801Z</time></trkpt><trkpt lat="45.33001" lon="7.65333"><ele>317.0</ele><time>2026-05-01T08:33:50.8Z</time></trkpt><trkpt lat="45.330045" lon="7.6534233"><ele>317.0</ele><time>2026-05-01T08:33:51.801Z</time></trkpt><trkpt lat="45.3300817" lon="7.6535167"><ele>317.0</ele><time>2026-05-01T08:33:52.801Z</time></trkpt><trkpt lat="45.3301133" lon="7.6536183"><ele>317.0</ele><time>2026-05-01T08:33:53.801Z</time></trkpt><trkpt lat="45.3301717" lon="7.6537267"><ele>317.0</ele><time>2026-05-01T08:33:54.801Z</time></trkpt><trkpt lat="45.3302317" lon="7.6538083"><ele>317.0</ele><time>2026-05-01T08:33:55.8Z</time></trkpt><trkpt lat="45.3303067" lon="7.6538683"><ele>317.0</ele><time>2026-05-01T08:33:56.801Z</time></trkpt><trkpt lat="45.3304" lon="7.6539033"><ele>317.0</ele><time>2026-05-01T08:33:57.801Z</time></trkpt><trkpt lat="45.3305133" lon="7.6539267"><ele>317.75</ele><time>2026-05-01T08:33:58.801Z</time></trkpt><trkpt lat="45.3306267" lon="7.653945"><ele>318.5</ele><time>2026-05-01T08:33:59.801Z</time></trkpt><trkpt lat="45.3307483" lon="7.6539667"><ele>319.25</ele><time>2026-05-01T08:34:00.801Z</time></trkpt><trkpt lat="45.3308733" lon="7.6539867"><ele>320.0</ele><time>2026-05-01T08:34:01.801Z</time></trkpt><trkpt lat="45.3310133" lon="7.654"><ele>320.0</ele><time>2026-05-01T08:34:02.8Z</time></trkpt><trkpt lat="45.3311633" lon="7.65402"><ele>320.0</ele><time>2026-05-01T08:34:03.801Z</time></trkpt><trkpt lat="45.3313017" lon="7.65404"><ele>320.0</ele><time>2026-05-01T08:34:04.801Z</time></trkpt><trkpt lat="45.3314517" lon="7.6540567"><ele>320.0</ele><time>2026-05-01T08:34:05.801Z</time></trkpt><trkpt lat="45.3316183" lon="7.6540767"><ele>319.6666666666667</ele><time>2026-05-01T08:34:06.801Z</time></trkpt><trkpt lat="45.3317717" lon="7.6541083"><ele>319.3333333333333</ele><time>2026-05-01T08:34:07.801Z</time></trkpt><trkpt lat="45.3319283" lon="7.6541367"><ele>319.0</ele><time>2026-05-01T08:34:08.801Z</time></trkpt><trkpt lat="45.3320883" lon="7.6541567"><ele>319.66666666666663</ele><time>2026-05-01T08:34:09.8Z</time></trkpt><trkpt lat="45.3322467" lon="7.6541767"><ele>320.3333333333333</ele><time>2026-05-01T08:34:10.801Z</time></trkpt><trkpt lat="45.332405" lon="7.6541883"><ele>321.0</ele><time>2026-05-01T08:34:11.801Z</time></trkpt><trkpt lat="45.33256" lon="7.6542117"><ele>321.0</ele><time>2026-05-01T08:34:12.801Z</time></trkpt><trkpt lat="45.332715" lon="7.6542517"><ele>321.0</ele><time>2026-05-01T08:34:13.801Z</time></trkpt><trkpt lat="45.3328683" lon="7.6542933"><ele>321.0</ele><time>2026-05-01T08:34:14.801Z</time></trkpt><trkpt lat="45.33303" lon="7.654315"><ele>321.5</ele><time>2026-05-01T08:34:15.801Z</time></trkpt><trkpt lat="45.3331733" lon="7.6543283"><ele>322.0</ele><time>2026-05-01T08:34:16.801Z</time></trkpt><trkpt lat="45.3333017" lon="7.65436"><ele>322.5</ele><time>2026-05-01T08:34:17.801Z</time></trkpt><trkpt lat="45.3334283" lon="7.65438"><ele>323.0</ele><time>2026-05-01T08:34:18.801Z</time></trkpt><trkpt lat="45.3335417" lon="7.65439"><ele>323.0</ele><time>2026-05-01T08:34:19.801Z</time></trkpt><trkpt lat="45.3336367" lon="7.6544017"><ele>323.0</ele><time>2026-05-01T08:34:20.801Z</time></trkpt><trkpt lat="45.3337133" lon="7.65442"><ele>323.0</ele><time>2026-05-01T08:34:21.801Z</time></trkpt><trkpt lat="45.3337867" lon="7.65454"><ele>323.0</ele><time>2026-05-01T08:34:23.801Z</time></trkpt><trkpt lat="45.33381" lon="7.65463"><ele>323.0</ele><time>2026-05-01T08:34:24.801Z</time></trkpt><trkpt lat="45.3338533" lon="7.6547117"><ele>323.0</ele><time>2026-05-01T08:34:25.801Z</time></trkpt><trkpt lat="45.3339083" lon="7.65476"><ele>323.4</ele><time>2026-05-01T08:34:26.801Z</time></trkpt><trkpt lat="45.3339767" lon="7.65477"><ele>323.79999999999995</ele><time>2026-05-01T08:34:27.801Z</time></trkpt><trkpt lat="45.334065" lon="7.6547383"><ele>324.2</ele><time>2026-05-01T08:34:28.801Z</time></trkpt><trkpt lat="45.3341783" lon="7.6546867"><ele>324.6</ele><time>2026-05-01T08:34:29.801Z</time></trkpt><trkpt lat="45.3343117" lon="7.6546367"><ele>325.0</ele><time>2026-05-01T08:34:30.801Z</time></trkpt><trkpt lat="45.3344533" lon="7.6546017"><ele>325.0</ele><time>2026-05-01T08:34:31.801Z</time></trkpt><trkpt lat="45.3345983" lon="7.65459"><ele>325.0</ele><time>2026-05-01T08:34:32.801Z</time></trkpt><trkpt lat="45.3347483" lon="7.6545867"><ele>325.0</ele><time>2026-05-01T08:34:33.801Z</time></trkpt><trkpt lat="45.3348917" lon="7.6546"><ele>325.0</ele><time>2026-05-01T08:34:34.801Z</time></trkpt><trkpt lat="45.335035" lon="7.654615"><ele>325.0</ele><time>2026-05-01T08:34:35.8Z</time></trkpt><trkpt lat="45.335175" lon="7.654645"><ele>325.0</ele><time>2026-05-01T08:34:36.801Z</time></trkpt><trkpt lat="45.33533" lon="7.65466"><ele>325.0</ele><time>2026-05-01T08:34:37.801Z</time></trkpt><trkpt lat="45.335475" lon="7.65468"><ele>325.0</ele><time>2026-05-01T08:34:38.801Z</time></trkpt><trkpt lat="45.3356233" lon="7.6547083"><ele>325.0</ele><time>2026-05-01T08:34:39.801Z</time></trkpt><trkpt lat="45.335775" lon="7.6547367"><ele>325.0</ele><time>2026-05-01T08:34:40.801Z</time></trkpt><trkpt lat="45.3359283" lon="7.6547583"><ele>325.0</ele><time>2026-05-01T08:34:41.801Z</time></trkpt><trkpt lat="45.3360883" lon="7.6547717"><ele>325.0</ele><time>2026-05-01T08:34:42.801Z</time></trkpt><trkpt lat="45.3362383" lon="7.6547967"><ele>325.0</ele><time>2026-05-01T08:34:43.801Z</time></trkpt><trkpt lat="45.3363833" lon="7.654825"><ele>325.0</ele><time>2026-05-01T08:34:44.801Z</time></trkpt><trkpt lat="45.3365383" lon="7.6548483"><ele>326.0</ele><time>2026-05-01T08:34:45.801Z</time></trkpt><trkpt lat="45.3366917" lon="7.6548767"><ele>327.0</ele><time>2026-05-01T08:34:46.801Z</time></trkpt><trkpt lat="45.3368417" lon="7.654905"><ele>328.0</ele><time>2026-05-01T08:34:47.801Z</time></trkpt><trkpt lat="45.3369933" lon="7.654925"><ele>328.0</ele><time>2026-05-01T08:34:48.801Z</time></trkpt><trkpt lat="45.3371417" lon="7.6549517"><ele>328.0</ele><time>2026-05-01T08:34:49.801Z</time></trkpt><trkpt lat="45.3372917" lon="7.6549833"><ele>328.0</ele><time>2026-05-01T08:34:50.801Z</time></trkpt><trkpt lat="45.3374517" lon="7.6550083"><ele>328.0</ele><time>2026-05-01T08:34:51.801Z</time></trkpt><trkpt lat="45.3376167" lon="7.6550383"><ele>328.0</ele><time>2026-05-01T08:34:52.801Z</time></trkpt><trkpt lat="45.3377867" lon="7.6550667"><ele>328.0</ele><time>2026-05-01T08:34:53.801Z</time></trkpt><trkpt lat="45.337955" lon="7.655095"><ele>327.66666666666663</ele><time>2026-05-01T08:34:54.8Z</time></trkpt><trkpt lat="45.3381183" lon="7.6551233"><ele>327.3333333333333</ele><time>2026-05-01T08:34:55.8Z</time></trkpt><trkpt lat="45.33828" lon="7.655145"><ele>327.0</ele><time>2026-05-01T08:34:56.801Z</time></trkpt><trkpt lat="45.338455" lon="7.6551767"><ele>327.0</ele><time>2026-05-01T08:34:57.801Z</time></trkpt><trkpt lat="45.33863" lon="7.6552067"><ele>327.0</ele><time>2026-05-01T08:34:58.801Z</time></trkpt><trkpt lat="45.3387967" lon="7.6552317"><ele>327.0</ele><time>2026-05-01T08:34:59.801Z</time></trkpt><trkpt lat="45.3389617" lon="7.6552583"><ele>328.0</ele><time>2026-05-01T08:35:00.801Z</time></trkpt><trkpt lat="45.33913" lon="7.6552883"><ele>329.0</ele><time>2026-05-01T08:35:01.801Z</time></trkpt><trkpt lat="45.3393017" lon="7.6553167"><ele>330.0</ele><time>2026-05-01T08:35:02.8Z</time></trkpt><trkpt lat="45.3394783" lon="7.6553417"><ele>330.0</ele><time>2026-05-01T08:35:03.801Z</time></trkpt><trkpt lat="45.3396467" lon="7.6553667"><ele>330.0</ele><time>2026-05-01T08:35:04.8Z</time></trkpt><trkpt lat="45.33981" lon="7.6553867"><ele>330.0</ele><time>2026-05-01T08:35:05.801Z</time></trkpt><trkpt lat="45.33997" lon="7.6554167"><ele>330.6666666666667</ele><time>2026-05-01T08:35:06.801Z</time></trkpt><trkpt lat="45.340125" lon="7.6554433"><ele>331.33333333333337</ele><time>2026-05-01T08:35:07.801Z</time></trkpt><trkpt lat="45.3402883" lon="7.6554717"><ele>332.0</ele><time>2026-05-01T08:35:08.801Z</time></trkpt><trkpt lat="45.3404467" lon="7.65549"><ele>332.33333333333337</ele><time>2026-05-01T08:35:09.801Z</time></trkpt><trkpt lat="45.3406167" lon="7.6555183"><ele>332.6666666666667</ele><time>2026-05-01T08:35:10.801Z</time></trkpt><trkpt lat="45.340785" lon="7.6555433"><ele>333.0</ele><time>2026-05-01T08:35:11.801Z</time></trkpt><trkpt lat="45.3409617" lon="7.6555733"><ele>333.0</ele><time>2026-05-01T08:35:12.801Z</time></trkpt><trkpt lat="45.3411333" lon="7.6556017"><ele>333.0</ele><time>2026-05-01T08:35:13.8Z</time></trkpt><trkpt lat="45.341305" lon="7.6556233"><ele>333.0</ele><time>2026-05-01T08:35:14.801Z</time></trkpt><trkpt lat="45.3414783" lon="7.6556517"><ele>333.0</ele><time>2026-05-01T08:35:15.801Z</time></trkpt><trkpt lat="45.3416467" lon="7.6556717"><ele>333.0</ele><time>2026-05-01T08:35:16.801Z</time></trkpt><trkpt lat="45.3418167" lon="7.6556967"><ele>333.0</ele><time>2026-05-01T08:35:17.801Z</time></trkpt><trkpt lat="45.34199" lon="7.65572"><ele>333.0</ele><time>2026-05-01T08:35:18.801Z</time></trkpt><trkpt lat="45.342165" lon="7.6557483"><ele>333.0</ele><time>2026-05-01T08:35:19.801Z</time></trkpt><trkpt lat="45.3423417" lon="7.6557767"><ele>333.0</ele><time>2026-05-01T08:35:20.801Z</time></trkpt><trkpt lat="45.34252" lon="7.6558033"><ele>333.3333333333333</ele><time>2026-05-01T08:35:21.801Z</time></trkpt><trkpt lat="45.3427" lon="7.65583"><ele>333.66666666666663</ele><time>2026-05-01T08:35:22.801Z</time></trkpt><trkpt lat="45.3428817" lon="7.6558567"><ele>334.0</ele><time>2026-05-01T08:35:23.801Z</time></trkpt><trkpt lat="45.3430633" lon="7.655885"><ele>335.3333333333333</ele><time>2026-05-01T08:35:24.801Z</time></trkpt><trkpt lat="45.34325" lon="7.6559183"><ele>336.6666666666667</ele><time>2026-05-01T08:35:25.801Z</time></trkpt><trkpt lat="45.3434233" lon="7.6559517"><ele>338.0</ele><time>2026-05-01T08:35:26.801Z</time></trkpt><trkpt lat="45.3436117" lon="7.6559733"><ele>338.0</ele><time>2026-05-01T08:35:27.801Z</time></trkpt><trkpt lat="45.3437967" lon="7.6560033"><ele>338.0</ele><time>2026-05-01T08:35:28.801Z</time></trkpt><trkpt lat="45.3439783" lon="7.656035"><ele>338.0</ele><time>2026-05-01T08:35:29.801Z</time></trkpt><trkpt lat="45.34416" lon="7.6560667"><ele>337.33333333333337</ele><time>2026-05-01T08:35:30.801Z</time></trkpt><trkpt lat="45.3443383" lon="7.6560983"><ele>336.6666666666667</ele><time>2026-05-01T08:35:31.801Z</time></trkpt><trkpt lat="45.344515" lon="7.6561333"><ele>336.0</ele><time>2026-05-01T08:35:32.801Z</time></trkpt><trkpt lat="45.3446967" lon="7.656165"><ele>336.3333333333333</ele><time>2026-05-01T08:35:33.801Z</time></trkpt><trkpt lat="45.3448717" lon="7.6562017"><ele>336.66666666666663</ele><time>2026-05-01T08:35:34.801Z</time></trkpt><trkpt lat="45.34506" lon="7.656235"><ele>337.0</ele><time>2026-05-01T08:35:35.801Z</time></trkpt><trkpt lat="45.3452517" lon="7.65626"><ele>337.0</ele><time>2026-05-01T08:35:36.801Z</time></trkpt><trkpt lat="45.3454383" lon="7.6563017"><ele>337.0</ele><time>2026-05-01T08:35:37.801Z</time></trkpt><trkpt lat="45.3456283" lon="7.65633"><ele>337.0</ele><time>2026-05-01T08:35:38.801Z</time></trkpt><trkpt lat="45.3458233" lon="7.6563517"><ele>337.66666666666663</ele><time>2026-05-01T08:35:39.801Z</time></trkpt><trkpt lat="45.34601" lon="7.6563783"><ele>338.3333333333333</ele><time>2026-05-01T08:35:40.801Z</time></trkpt><trkpt lat="45.3462" lon="7.656415"><ele>339.0</ele><time>2026-05-01T08:35:41.801Z</time></trkpt><trkpt lat="45.346395" lon="7.65645"><ele>339.0</ele><time>2026-05-01T08:35:42.801Z</time></trkpt><trkpt lat="45.3465883" lon="7.6564717"><ele>339.0</ele><time>2026-05-01T08:35:43.801Z</time></trkpt><trkpt lat="45.3467783" lon="7.6565"><ele>339.0</ele><time>2026-05-01T08:35:44.801Z</time></trkpt><trkpt lat="45.3469667" lon="7.6565367"><ele>339.0</ele><time>2026-05-01T08:35:45.8Z</time></trkpt><trkpt lat="45.34716" lon="7.656565"><ele>339.0</ele><time>2026-05-01T08:35:46.801Z</time></trkpt><trkpt lat="45.3473533" lon="7.656595"><ele>339.0</ele><time>2026-05-01T08:35:47.801Z</time></trkpt><trkpt lat="45.3475467" lon="7.6566267"><ele>339.3333333333333</ele><time>2026-05-01T08:35:48.801Z</time></trkpt><trkpt lat="45.3477433" lon="7.6566633"><ele>339.66666666666663</ele><time>2026-05-01T08:35:49.8Z</time></trkpt><trkpt lat="45.3479383" lon="7.65669"><ele>340.0</ele><time>2026-05-01T08:35:50.801Z</time></trkpt><trkpt lat="45.3481367" lon="7.6567217"><ele>340.66666666666663</ele><time>2026-05-01T08:35:51.801Z</time></trkpt><trkpt lat="45.348335" lon="7.6567483"><ele>341.3333333333333</ele><time>2026-05-01T08:35:52.801Z</time></trkpt><trkpt lat="45.3485283" lon="7.6567767"><ele>342.0</ele><time>2026-05-01T08:35:53.801Z</time></trkpt><trkpt lat="45.348725" lon="7.6568083"><ele>343.0</ele><time>2026-05-01T08:35:54.801Z</time></trkpt><trkpt lat="45.3489233" lon="7.6568367"><ele>344.0</ele><time>2026-05-01T08:35:55.801Z</time></trkpt><trkpt lat="45.3491117" lon="7.656875"><ele>345.0</ele><time>2026-05-01T08:35:56.801Z</time></trkpt><trkpt lat="45.34928" lon="7.6569167"><ele>345.0</ele><time>2026-05-01T08:35:57.801Z</time></trkpt><trkpt lat="45.349485" lon="7.6569383"><ele>345.0</ele><time>2026-05-01T08:35:58.801Z</time></trkpt><trkpt lat="45.3496733" lon="7.6569583"><ele>345.0</ele><time>2026-05-01T08:35:59.801Z</time></trkpt><trkpt lat="45.34986" lon="7.656985"><ele>345.3333333333333</ele><time>2026-05-01T08:36:00.801Z</time></trkpt><trkpt lat="45.3500467" lon="7.6570117"><ele>345.66666666666663</ele><time>2026-05-01T08:36:01.801Z</time></trkpt><trkpt lat="45.3502383" lon="7.65704"><ele>346.0</ele><time>2026-05-01T08:36:02.801Z</time></trkpt><trkpt lat="45.350425" lon="7.6570717"><ele>346.0</ele><time>2026-05-01T08:36:03.801Z</time></trkpt><trkpt lat="45.3506117" lon="7.6571083"><ele>346.0</ele><time>2026-05-01T08:36:04.801Z</time></trkpt><trkpt lat="45.3507917" lon="7.6571433"><ele>346.0</ele><time>2026-05-01T08:36:05.801Z</time></trkpt><trkpt lat="45.3509667" lon="7.6571767"><ele>346.0</ele><time>2026-05-01T08:36:06.801Z</time></trkpt><trkpt lat="45.3511283" lon="7.65721"><ele>346.0</ele><time>2026-05-01T08:36:07.801Z</time></trkpt><trkpt lat="45.351285" lon="7.657225"><ele>346.0</ele><time>2026-05-01T08:36:08.801Z</time></trkpt><trkpt lat="45.3514283" lon="7.6572517"><ele>346.4</ele><time>2026-05-01T08:36:09.801Z</time></trkpt><trkpt lat="45.3515683" lon="7.6572867"><ele>346.8</ele><time>2026-05-01T08:36:10.801Z</time></trkpt><trkpt lat="45.3516867" lon="7.6573217"><ele>347.2</ele><time>2026-05-01T08:36:11.801Z</time></trkpt><trkpt lat="45.3517733" lon="7.657355"><ele>347.59999999999997</ele><time>2026-05-01T08:36:12.801Z</time></trkpt><trkpt lat="45.35185" lon="7.6573917"><ele>348.0</ele><time>2026-05-01T08:36:13.801Z</time></trkpt><trkpt lat="45.3519233" lon="7.6574317"><ele>348.0</ele><time>2026-05-01T08:36:14.801Z</time></trkpt><trkpt lat="45.3519933" lon="7.65747"><ele>348.0</ele><time>2026-05-01T08:36:15.801Z</time></trkpt><trkpt lat="45.3520617" lon="7.65751"><ele>348.0</ele><time>2026-05-01T08:36:16.801Z</time></trkpt><trkpt lat="45.3521367" lon="7.65755"><ele>348.0</ele><time>2026-05-01T08:36:17.801Z</time></trkpt><trkpt lat="45.3522267" lon="7.6575567"><ele>348.0</ele><time>2026-05-01T08:36:18.801Z</time></trkpt><trkpt lat="45.3523283" lon="7.65754"><ele>348.0</ele><time>2026-05-01T08:36:19.801Z</time></trkpt><trkpt lat="45.3524383" lon="7.6575083"><ele>348.25</ele><time>2026-05-01T08:36:20.801Z</time></trkpt><trkpt lat="45.3525683" lon="7.6574783"><ele>348.5</ele><time>2026-05-01T08:36:21.801Z</time></trkpt><trkpt lat="45.3527133" lon="7.657475"><ele>348.75</ele><time>2026-05-01T08:36:22.801Z</time></trkpt><trkpt lat="45.3528833" lon="7.6574783"><ele>349.0</ele><time>2026-05-01T08:36:23.801Z</time></trkpt><trkpt lat="45.35306" lon="7.6575117"><ele>349.3333333333333</ele><time>2026-05-01T08:36:24.801Z</time></trkpt><trkpt lat="45.3532567" lon="7.6575333"><ele>349.6666666666667</ele><time>2026-05-01T08:36:25.801Z</time></trkpt><trkpt lat="45.3534533" lon="7.65756"><ele>350.0</ele><time>2026-05-01T08:36:26.801Z</time></trkpt><trkpt lat="45.35366" lon="7.6575967"><ele>351.0</ele><time>2026-05-01T08:36:27.801Z</time></trkpt><trkpt lat="45.3538733" lon="7.6576333"><ele>352.0</ele><time>2026-05-01T08:36:28.801Z</time></trkpt><trkpt lat="45.3540783" lon="7.6576817"><ele>353.0</ele><time>2026-05-01T08:36:29.801Z</time></trkpt><trkpt lat="45.3542833" lon="7.6577217"><ele>353.0</ele><time>2026-05-01T08:36:30.801Z</time></trkpt><trkpt lat="45.3544967" lon="7.6577517"><ele>353.0</ele><time>2026-05-01T08:36:31.801Z</time></trkpt><trkpt lat="45.35471" lon="7.6577933"><ele>353.0</ele><time>2026-05-01T08:36:32.801Z</time></trkpt><trkpt lat="45.3549167" lon="7.65783"><ele>352.6666666666667</ele><time>2026-05-01T08:36:33.801Z</time></trkpt><trkpt lat="45.355125" lon="7.6578617"><ele>352.3333333333333</ele><time>2026-05-01T08:36:34.801Z</time></trkpt><trkpt lat="45.355335" lon="7.6579017"><ele>352.0</ele><time>2026-05-01T08:36:35.801Z</time></trkpt><trkpt lat="45.35555" lon="7.6579367"><ele>352.0</ele><time>2026-05-01T08:36:36.801Z</time></trkpt><trkpt lat="45.3557617" lon="7.65796"><ele>352.0</ele><time>2026-05-01T08:36:37.801Z</time></trkpt><trkpt lat="45.3559667" lon="7.6579983"><ele>352.0</ele><time>2026-05-01T08:36:38.801Z</time></trkpt><trkpt lat="45.3561783" lon="7.6580267"><ele>352.66666666666663</ele><time>2026-05-01T08:36:39.801Z</time></trkpt><trkpt lat="45.3563833" lon="7.65806"><ele>353.3333333333333</ele><time>2026-05-01T08:36:40.801Z</time></trkpt><trkpt lat="45.35659" lon="7.6580917"><ele>354.0</ele><time>2026-05-01T08:36:41.801Z</time></trkpt><trkpt lat="45.356795" lon="7.6581283"><ele>354.0</ele><time>2026-05-01T08:36:42.801Z</time></trkpt><trkpt lat="45.3569917" lon="7.6581683"><ele>354.0</ele><time>2026-05-01T08:36:43.801Z</time></trkpt><trkpt lat="45.357195" lon="7.6581983"><ele>354.0</ele><time>2026-05-01T08:36:44.801Z</time></trkpt><trkpt lat="45.3573983" lon="7.658225"><ele>355.0</ele><time>2026-05-01T08:36:45.801Z</time></trkpt><trkpt lat="45.3576083" lon="7.6582583"><ele>356.0</ele><time>2026-05-01T08:36:46.801Z</time></trkpt><trkpt lat="45.3578117" lon="7.65828"><ele>357.0</ele><time>2026-05-01T08:36:47.801Z</time></trkpt><trkpt lat="45.3580217" lon="7.65831"><ele>357.3333333333333</ele><time>2026-05-01T08:36:48.801Z</time></trkpt><trkpt lat="45.3582133" lon="7.658345"><ele>357.66666666666663</ele><time>2026-05-01T08:36:49.801Z</time></trkpt><trkpt lat="45.358415" lon="7.6583683"><ele>358.0</ele><time>2026-05-01T08:36:50.801Z</time></trkpt><trkpt lat="45.3586117" lon="7.6584017"><ele>358.0</ele><time>2026-05-01T08:36:51.801Z</time></trkpt><trkpt lat="45.3588183" lon="7.65842"><ele>358.0</ele><time>2026-05-01T08:36:52.801Z</time></trkpt><trkpt lat="45.3590167" lon="7.6584533"><ele>358.0</ele><time>2026-05-01T08:36:53.801Z</time></trkpt><trkpt lat="45.35922" lon="7.6584867"><ele>359.0</ele><time>2026-05-01T08:36:54.801Z</time></trkpt><trkpt lat="45.3594067" lon="7.6585183"><ele>360.0</ele><time>2026-05-01T08:36:55.801Z</time></trkpt><trkpt lat="45.3596017" lon="7.65854"><ele>361.0</ele><time>2026-05-01T08:36:56.801Z</time></trkpt><trkpt lat="45.35979" lon="7.6585717"><ele>361.0</ele><time>2026-05-01T08:36:57.801Z</time></trkpt><trkpt lat="45.3599583" lon="7.6586067"><ele>361.0</ele><time>2026-05-01T08:36:58.801Z</time></trkpt><trkpt lat="45.360095" lon="7.6586667"><ele>361.0</ele><time>2026-05-01T08:36:59.801Z</time></trkpt><trkpt lat="45.3603033" lon="7.65883"><ele>361.4</ele><time>2026-05-01T08:37:01.801Z</time></trkpt><trkpt lat="45.3603917" lon="7.65889"><ele>361.8</ele><time>2026-05-01T08:37:02.8Z</time></trkpt><trkpt lat="45.3604867" lon="7.6589"><ele>362.2</ele><time>2026-05-01T08:37:03.801Z</time></trkpt><trkpt lat="45.360585" lon="7.6588617"><ele>362.59999999999997</ele><time>2026-05-01T08:37:04.801Z</time></trkpt><trkpt lat="45.3607017" lon="7.6588283"><ele>363.0</ele><time>2026-05-01T08:37:05.801Z</time></trkpt><trkpt lat="45.3608317" lon="7.658805"><ele>363.6666666666667</ele><time>2026-05-01T08:37:06.801Z</time></trkpt><trkpt lat="45.3609717" lon="7.6588067"><ele>364.33333333333337</ele><time>2026-05-01T08:37:07.8Z</time></trkpt><trkpt lat="45.3611333" lon="7.658815"><ele>365.0</ele><time>2026-05-01T08:37:08.801Z</time></trkpt><trkpt lat="45.361295" lon="7.6588317"><ele>364.6666666666667</ele><time>2026-05-01T08:37:09.801Z</time></trkpt><trkpt lat="45.36147" lon="7.658865"><ele>364.3333333333333</ele><time>2026-05-01T08:37:10.801Z</time></trkpt><trkpt lat="45.3616483" lon="7.6588967"><ele>364.0</ele><time>2026-05-01T08:37:11.801Z</time></trkpt><trkpt lat="45.3618367" lon="7.658915"><ele>364.0</ele><time>2026-05-01T08:37:12.801Z</time></trkpt><trkpt lat="45.3620317" lon="7.6589383"><ele>364.0</ele><time>2026-05-01T08:37:13.801Z</time></trkpt><trkpt lat="45.362225" lon="7.6589667"><ele>364.0</ele><time>2026-05-01T08:37:14.801Z</time></trkpt><trkpt lat="45.362425" lon="7.6590017"><ele>364.66666666666663</ele><time>2026-05-01T08:37:15.801Z</time></trkpt><trkpt lat="45.3626317" lon="7.6590433"><ele>365.3333333333333</ele><time>2026-05-01T08:37:16.801Z</time></trkpt><trkpt lat="45.3628333" lon="7.659085"><ele>366.0</ele><time>2026-05-01T08:37:17.801Z</time></trkpt><trkpt lat="45.3630367" lon="7.6591233"><ele>367.3333333333333</ele><time>2026-05-01T08:37:18.801Z</time></trkpt><trkpt lat="45.3632417" lon="7.6591633"><ele>368.66666666666663</ele><time>2026-05-01T08:37:19.801Z</time></trkpt><trkpt lat="45.3634483" lon="7.6591933"><ele>370.0</ele><time>2026-05-01T08:37:20.801Z</time></trkpt><trkpt lat="45.363665" lon="7.65922"><ele>370.66666666666663</ele><time>2026-05-01T08:37:21.801Z</time></trkpt><trkpt lat="45.363875" lon="7.659255"><ele>371.3333333333333</ele><time>2026-05-01T08:37:22.801Z</time></trkpt><trkpt lat="45.3640767" lon="7.6592833"><ele>372.0</ele><time>2026-05-01T08:37:23.801Z</time></trkpt><trkpt lat="45.3642917" lon="7.659315"><ele>372.0</ele><time>2026-05-01T08:37:24.8Z</time></trkpt><trkpt lat="45.3644983" lon="7.6593483"><ele>372.0</ele><time>2026-05-01T08:37:25.801Z</time></trkpt><trkpt lat="45.3647067" lon="7.6593783"><ele>372.0</ele><time>2026-05-01T08:37:26.801Z</time></trkpt><trkpt lat="45.3649133" lon="7.6594133"><ele>372.3333333333333</ele><time>2026-05-01T08:37:27.801Z</time></trkpt><trkpt lat="45.3651117" lon="7.6594367"><ele>372.66666666666663</ele><time>2026-05-01T08:37:28.801Z</time></trkpt><trkpt lat="45.36532" lon="7.6594717"><ele>373.0</ele><time>2026-05-01T08:37:29.801Z</time></trkpt><trkpt lat="45.3655117" lon="7.6595067"><ele>373.3333333333333</ele><time>2026-05-01T08:37:30.8Z</time></trkpt><trkpt lat="45.36571" lon="7.6595317"><ele>373.6666666666667</ele><time>2026-05-01T08:37:31.801Z</time></trkpt><trkpt lat="45.36592" lon="7.65956"><ele>374.0</ele><time>2026-05-01T08:37:32.801Z</time></trkpt><trkpt lat="45.3661317" lon="7.6595783"><ele>374.0</ele><time>2026-05-01T08:37:33.801Z</time></trkpt><trkpt lat="45.36633" lon="7.6596183"><ele>374.0</ele><time>2026-05-01T08:37:34.801Z</time></trkpt><trkpt lat="45.36653" lon="7.65965"><ele>374.0</ele><time>2026-05-01T08:37:35.801Z</time></trkpt><trkpt lat="45.36673" lon="7.659685"><ele>374.0</ele><time>2026-05-01T08:37:36.801Z</time></trkpt><trkpt lat="45.3669267" lon="7.6597283"><ele>374.0</ele><time>2026-05-01T08:37:37.801Z</time></trkpt><trkpt lat="45.3671183" lon="7.6597717"><ele>374.0</ele><time>2026-05-01T08:37:38.801Z</time></trkpt><trkpt lat="45.3673083" lon="7.659815"><ele>374.6666666666667</ele><time>2026-05-01T08:37:39.801Z</time></trkpt><trkpt lat="45.3674917" lon="7.6598417"><ele>375.3333333333333</ele><time>2026-05-01T08:37:40.801Z</time></trkpt><trkpt lat="45.3676733" lon="7.659875"><ele>376.0</ele><time>2026-05-01T08:37:41.801Z</time></trkpt><trkpt lat="45.3678383" lon="7.6599017"><ele>376.0</ele><time>2026-05-01T08:37:42.801Z</time></trkpt><trkpt lat="45.367985" lon="7.659905"><ele>376.0</ele><time>2026-05-01T08:37:43.801Z</time></trkpt><trkpt lat="45.3681217" lon="7.6599283"><ele>376.0</ele><time>2026-05-01T08:37:44.801Z</time></trkpt><trkpt lat="45.3682517" lon="7.6599433"><ele>376.0</ele><time>2026-05-01T08:37:45.801Z</time></trkpt><trkpt lat="45.3683667" lon="7.6599717"><ele>376.20000000000005</ele><time>2026-05-01T08:37:46.801Z</time></trkpt><trkpt lat="45.3684817" lon="7.6599983"><ele>376.40000000000003</ele><time>2026-05-01T08:37:47.801Z</time></trkpt><trkpt lat="45.3685883" lon="7.6600167"><ele>376.6</ele><time>2026-05-01T08:37:48.801Z</time></trkpt><trkpt lat="45.368695" lon="7.6600433"><ele>376.8</ele><time>2026-05-01T08:37:49.801Z</time></trkpt><trkpt lat="45.368795" lon="7.6600667"><ele>377.0</ele><time>2026-05-01T08:37:50.801Z</time></trkpt><trkpt lat="45.36889" lon="7.660085"><ele>377.0</ele><time>2026-05-01T08:37:51.801Z</time></trkpt><trkpt lat="45.3689717" lon="7.6600967"><ele>377.0</ele><time>2026-05-01T08:37:52.801Z</time></trkpt><trkpt lat="45.3690367" lon="7.6601067"><ele>377.0</ele><time>2026-05-01T08:37:53.801Z</time></trkpt><trkpt lat="45.3691417" lon="7.66012"><ele>377.0</ele><time>2026-05-01T08:38:35.801Z</time></trkpt><trkpt lat="45.3692583" lon="7.6601183"><ele>377.0</ele><time>2026-05-01T08:38:37.801Z</time></trkpt><trkpt lat="45.3693333" lon="7.6601033"><ele>377.0</ele><time>2026-05-01T08:38:38.801Z</time></trkpt><trkpt lat="45.3694" lon="7.6600833"><ele>377.0</ele><time>2026-05-01T08:38:39.801Z</time></trkpt><trkpt lat="45.3694833" lon="7.6600167"><ele>377.0</ele><time>2026-05-01T08:38:41.8Z</time></trkpt><trkpt lat="45.369555" lon="7.6598817"><ele>377.0</ele><time>2026-05-01T08:38:43.801Z</time></trkpt><trkpt lat="45.369595" lon="7.6597833"><ele>377.0</ele><time>2026-05-01T08:38:44.801Z</time></trkpt><trkpt lat="45.3696283" lon="7.6596883"><ele>377.0</ele><time>2026-05-01T08:38:45.801Z</time></trkpt><trkpt lat="45.3696667" lon="7.6595883"><ele>377.0</ele><time>2026-05-01T08:38:46.801Z</time></trkpt><trkpt lat="45.3696883" lon="7.6594933"><ele>377.5</ele><time>2026-05-01T08:38:47.801Z</time></trkpt><trkpt lat="45.3697267" lon="7.6593583"><ele>378.0</ele><time>2026-05-01T08:38:49.801Z</time></trkpt><trkpt lat="45.369775" lon="7.6592217"><ele>378.5</ele><time>2026-05-01T08:38:51.801Z</time></trkpt><trkpt lat="45.3698017" lon="7.65914"><ele>379.0</ele><time>2026-05-01T08:38:52.801Z</time></trkpt><trkpt lat="45.369855" lon="7.65906"><ele>379.5</ele><time>2026-05-01T08:38:53.801Z</time></trkpt><trkpt lat="45.3698967" lon="7.658945"><ele>380.0</ele><time>2026-05-01T08:38:54.801Z</time></trkpt><trkpt lat="45.36993" lon="7.6588217"><ele>380.0</ele><time>2026-05-01T08:38:55.801Z</time></trkpt><trkpt lat="45.3699717" lon="7.658685"><ele>380.0</ele><time>2026-05-01T08:38:56.801Z</time></trkpt><trkpt lat="45.3700183" lon="7.6585267"><ele>380.0</ele><time>2026-05-01T08:38:57.801Z</time></trkpt><trkpt lat="45.3700567" lon="7.6583683"><ele>380.0</ele><time>2026-05-01T08:38:58.801Z</time></trkpt><trkpt lat="45.3701033" lon="7.65821"><ele>380.33333333333337</ele><time>2026-05-01T08:38:59.801Z</time></trkpt><trkpt lat="45.37015" lon="7.658075"><ele>380.6666666666667</ele><time>2026-05-01T08:39:00.801Z</time></trkpt><trkpt lat="45.3701967" lon="7.65795"><ele>381.0</ele><time>2026-05-01T08:39:01.801Z</time></trkpt><trkpt lat="45.3702417" lon="7.6578433"><ele>381.3333333333333</ele><time>2026-05-01T08:39:02.8Z</time></trkpt><trkpt lat="45.3702817" lon="7.65775"><ele>381.66666666666663</ele><time>2026-05-01T08:39:03.801Z</time></trkpt><trkpt lat="45.370315" lon="7.6576683"><ele>382.0</ele><time>2026-05-01T08:39:04.801Z</time></trkpt><trkpt lat="45.3703617" lon="7.6575783"><ele>382.5</ele><time>2026-05-01T08:39:05.801Z</time></trkpt><trkpt lat="45.370405" lon="7.6574783"><ele>383.0</ele><time>2026-05-01T08:39:06.801Z</time></trkpt><trkpt lat="45.3704383" lon="7.65738"><ele>383.5</ele><time>2026-05-01T08:39:07.801Z</time></trkpt><trkpt lat="45.370465" lon="7.657295"><ele>384.0</ele><time>2026-05-01T08:39:08.801Z</time></trkpt><trkpt lat="45.3704983" lon="7.6572167"><ele>384.50000000000006</ele><time>2026-05-01T08:39:09.801Z</time></trkpt><trkpt lat="45.3705733" lon="7.6570867"><ele>385.0</ele><time>2026-05-01T08:39:11.801Z</time></trkpt><trkpt lat="45.370665" lon="7.6570633"><ele>385.5</ele><time>2026-05-01T08:39:13.801Z</time></trkpt><trkpt lat="45.3707283" lon="7.657075"><ele>386.0</ele><time>2026-05-01T08:39:14.801Z</time></trkpt><trkpt lat="45.3708533" lon="7.6571933"><ele>386.5</ele><time>2026-05-01T08:39:16.801Z</time></trkpt><trkpt lat="45.37096" lon="7.65727"><ele>387.0</ele><time>2026-05-01T08:39:17.801Z</time></trkpt><trkpt lat="45.3710917" lon="7.657355"><ele>387.0</ele><time>2026-05-01T08:39:18.801Z</time></trkpt><trkpt lat="45.3711883" lon="7.657425"><ele>387.0</ele><time>2026-05-01T08:39:19.801Z</time></trkpt><trkpt lat="45.371295" lon="7.6575"><ele>387.0</ele><time>2026-05-01T08:39:20.801Z</time></trkpt><trkpt lat="45.371375" lon="7.657555"><ele>387.0</ele><time>2026-05-01T08:39:21.801Z</time></trkpt><trkpt lat="45.3714567" lon="7.6575733"><ele>387.0</ele><time>2026-05-01T08:39:22.801Z</time></trkpt><trkpt lat="45.3715283" lon="7.6575617"><ele>387.6666666666667</ele><time>2026-05-01T08:39:23.801Z</time></trkpt><trkpt lat="45.371595" lon="7.6575467"><ele>388.33333333333337</ele><time>2026-05-01T08:39:24.801Z</time></trkpt><trkpt lat="45.37168" lon="7.6575217"><ele>389.0</ele><time>2026-05-01T08:39:25.801Z</time></trkpt><trkpt lat="45.3717833" lon="7.6575083"><ele>389.6666666666667</ele><time>2026-05-01T08:39:26.801Z</time></trkpt><trkpt lat="45.3718917" lon="7.6575083"><ele>390.33333333333337</ele><time>2026-05-01T08:39:27.801Z</time></trkpt><trkpt lat="45.3719733" lon="7.6575067"><ele>391.0</ele><time>2026-05-01T08:39:28.8Z</time></trkpt><trkpt lat="45.3720733" lon="7.6575217"><ele>391.0</ele><time>2026-05-01T08:39:29.801Z</time></trkpt><trkpt lat="45.3721817" lon="7.657515"><ele>391.0</ele><time>2026-05-01T08:39:30.8Z</time></trkpt><trkpt lat="45.3722983" lon="7.6574967"><ele>391.0</ele><time>2026-05-01T08:39:31.8Z</time></trkpt><trkpt lat="45.3724317" lon="7.657465"><ele>391.0</ele><time>2026-05-01T08:39:32.801Z</time></trkpt><trkpt lat="45.37256" lon="7.657405"><ele>390.75</ele><time>2026-05-01T08:39:33.801Z</time></trkpt><trkpt lat="45.3726867" lon="7.65732"><ele>390.5</ele><time>2026-05-01T08:39:34.801Z</time></trkpt><trkpt lat="45.3728117" lon="7.6572367"><ele>390.25</ele><time>2026-05-01T08:39:35.801Z</time></trkpt><trkpt lat="45.3729333" lon="7.6571617"><ele>390.0</ele><time>2026-05-01T08:39:36.801Z</time></trkpt><trkpt lat="45.3730417" lon="7.6570817"><ele>390.0</ele><time>2026-05-01T08:39:37.801Z</time></trkpt><trkpt lat="45.37315" lon="7.65701"><ele>390.0</ele><time>2026-05-01T08:39:38.801Z</time></trkpt><trkpt lat="45.37326" lon="7.6569517"><ele>390.0</ele><time>2026-05-01T08:39:39.801Z</time></trkpt><trkpt lat="45.37335" lon="7.6569067"><ele>390.0</ele><time>2026-05-01T08:39:40.801Z</time></trkpt><trkpt lat="45.3734133" lon="7.6568633"><ele>390.0</ele><time>2026-05-01T08:39:41.801Z</time></trkpt><trkpt lat="45.3735283" lon="7.6568483"><ele>390.0</ele><time>2026-05-01T08:39:43.801Z</time></trkpt><trkpt lat="45.3736117" lon="7.6569817"><ele>390.0</ele><time>2026-05-01T08:39:45.801Z</time></trkpt><trkpt lat="45.3736533" lon="7.6570967"><ele>390.0</ele><time>2026-05-01T08:39:46.801Z</time></trkpt><trkpt lat="45.3736867" lon="7.657225"><ele>390.0</ele><time>2026-05-01T08:39:47.801Z</time></trkpt><trkpt lat="45.3737" lon="7.6573533"><ele>390.0</ele><time>2026-05-01T08:39:48.8Z</time></trkpt><trkpt lat="45.3737267" lon="7.6574733"><ele>390.0</ele><time>2026-05-01T08:39:49.801Z</time></trkpt><trkpt lat="45.3737617" lon="7.6575933"><ele>390.0</ele><time>2026-05-01T08:39:50.801Z</time></trkpt><trkpt lat="45.37382" lon="7.6576917"><ele>390.0</ele><time>2026-05-01T08:39:51.801Z</time></trkpt><trkpt lat="45.3738867" lon="7.6577833"><ele>390.0</ele><time>2026-05-01T08:39:52.801Z</time></trkpt><trkpt lat="45.3739783" lon="7.6578517"><ele>390.0</ele><time>2026-05-01T08:39:53.801Z</time></trkpt><trkpt lat="45.3740817" lon="7.6579267"><ele>389.5</ele><time>2026-05-01T08:39:54.801Z</time></trkpt><trkpt lat="45.3742217" lon="7.65799"><ele>389.0</ele><time>2026-05-01T08:39:55.801Z</time></trkpt><trkpt lat="45.37436" lon="7.6580517"><ele>388.5</ele><time>2026-05-01T08:39:56.801Z</time></trkpt><trkpt lat="45.3745067" lon="7.6581033"><ele>388.0</ele><time>2026-05-01T08:39:57.801Z</time></trkpt><trkpt lat="45.37465" lon="7.6581467"><ele>387.5</ele><time>2026-05-01T08:39:58.801Z</time></trkpt><trkpt lat="45.374795" lon="7.6581783"><ele>387.0</ele><time>2026-05-01T08:39:59.801Z</time></trkpt><trkpt lat="45.3749433" lon="7.6582133"><ele>386.5</ele><time>2026-05-01T08:40:00.801Z</time></trkpt><trkpt lat="45.3750933" lon="7.6582483"><ele>386.0</ele><time>2026-05-01T08:40:01.801Z</time></trkpt><trkpt lat="45.3752383" lon="7.6582767"><ele>386.0</ele><time>2026-05-01T08:40:02.801Z</time></trkpt><trkpt lat="45.3753767" lon="7.6582967"><ele>386.0</ele><time>2026-05-01T08:40:03.801Z</time></trkpt><trkpt lat="45.3755033" lon="7.65832"><ele>386.0</ele><time>2026-05-01T08:40:04.801Z</time></trkpt><trkpt lat="45.375615" lon="7.6583483"><ele>386.0</ele><time>2026-05-01T08:40:05.801Z</time></trkpt><trkpt lat="45.3757183" lon="7.6583733"><ele>386.75</ele><time>2026-05-01T08:40:06.801Z</time></trkpt><trkpt lat="45.3758167" lon="7.658405"><ele>387.5</ele><time>2026-05-01T08:40:07.801Z</time></trkpt><trkpt lat="45.37593" lon="7.658425"><ele>388.25</ele><time>2026-05-01T08:40:08.801Z</time></trkpt><trkpt lat="45.3760483" lon="7.6584533"><ele>389.0</ele><time>2026-05-01T08:40:09.8Z</time></trkpt><trkpt lat="45.3761867" lon="7.6584833"><ele>389.0</ele><time>2026-05-01T08:40:10.801Z</time></trkpt><trkpt lat="45.37635" lon="7.6585167"><ele>389.0</ele><time>2026-05-01T08:40:11.801Z</time></trkpt><trkpt lat="45.3765267" lon="7.6585467"><ele>389.0</ele><time>2026-05-01T08:40:12.801Z</time></trkpt><trkpt lat="45.3767083" lon="7.6585883"><ele>389.0</ele><time>2026-05-01T08:40:13.801Z</time></trkpt><trkpt lat="45.3769033" lon="7.6586167"><ele>389.0</ele><time>2026-05-01T08:40:14.801Z</time></trkpt><trkpt lat="45.377085" lon="7.658675"><ele>389.0</ele><time>2026-05-01T08:40:15.801Z</time></trkpt><trkpt lat="45.3772733" lon="7.658735"><ele>389.3333333333333</ele><time>2026-05-01T08:40:16.801Z</time></trkpt><trkpt lat="45.3774667" lon="7.658795"><ele>389.66666666666663</ele><time>2026-05-01T08:40:17.801Z</time></trkpt><trkpt lat="45.3776633" lon="7.6588417"><ele>390.0</ele><time>2026-05-01T08:40:18.801Z</time></trkpt><trkpt lat="45.3778633" lon="7.6588917"><ele>390.33333333333337</ele><time>2026-05-01T08:40:19.801Z</time></trkpt><trkpt lat="45.3780633" lon="7.658935"><ele>390.6666666666667</ele><time>2026-05-01T08:40:20.801Z</time></trkpt><trkpt lat="45.3782583" lon="7.65898"><ele>391.0</ele><time>2026-05-01T08:40:21.801Z</time></trkpt><trkpt lat="45.3784517" lon="7.6590333"><ele>391.0</ele><time>2026-05-01T08:40:22.801Z</time></trkpt><trkpt lat="45.3786367" lon="7.6590883"><ele>391.0</ele><time>2026-05-01T08:40:23.801Z</time></trkpt><trkpt lat="45.37883" lon="7.6591283"><ele>391.0</ele><time>2026-05-01T08:40:24.801Z</time></trkpt><trkpt lat="45.3790217" lon="7.6591783"><ele>391.33333333333337</ele><time>2026-05-01T08:40:25.801Z</time></trkpt><trkpt lat="45.37922" lon="7.6592183"><ele>391.66666666666663</ele><time>2026-05-01T08:40:26.801Z</time></trkpt><trkpt lat="45.3794133" lon="7.65926"><ele>392.0</ele><time>2026-05-01T08:40:27.801Z</time></trkpt><trkpt lat="45.3796117" lon="7.65931"><ele>392.3333333333333</ele><time>2026-05-01T08:40:28.801Z</time></trkpt><trkpt lat="45.3797983" lon="7.659365"><ele>392.66666666666663</ele><time>2026-05-01T08:40:29.801Z</time></trkpt><trkpt lat="45.3799883" lon="7.6594133"><ele>393.0</ele><time>2026-05-01T08:40:30.801Z</time></trkpt><trkpt lat="45.3801967" lon="7.6594417"><ele>392.0</ele><time>2026-05-01T08:40:31.801Z</time></trkpt><trkpt lat="45.3803717" lon="7.6594933"><ele>391.0</ele><time>2026-05-01T08:40:32.801Z</time></trkpt><trkpt lat="45.3805667" lon="7.659545"><ele>390.0</ele><time>2026-05-01T08:40:33.801Z</time></trkpt><trkpt lat="45.3807733" lon="7.65959"><ele>388.66666666666663</ele><time>2026-05-01T08:40:34.801Z</time></trkpt><trkpt lat="45.3809717" lon="7.65964"><ele>387.3333333333333</ele><time>2026-05-01T08:40:35.801Z</time></trkpt><trkpt lat="45.3811617" lon="7.6597"><ele>386.0</ele><time>2026-05-01T08:40:36.801Z</time></trkpt><trkpt lat="45.3813567" lon="7.6597583"><ele>386.0</ele><time>2026-05-01T08:40:37.801Z</time></trkpt><trkpt lat="45.3815583" lon="7.6598"><ele>386.0</ele><time>2026-05-01T08:40:38.801Z</time></trkpt><trkpt lat="45.3817567" lon="7.65985"><ele>386.0</ele><time>2026-05-01T08:40:39.801Z</time></trkpt><trkpt lat="45.3819567" lon="7.6598917"><ele>386.0</ele><time>2026-05-01T08:40:40.801Z</time></trkpt><trkpt lat="45.38215" lon="7.6599333"><ele>386.0</ele><time>2026-05-01T08:40:41.801Z</time></trkpt><trkpt lat="45.3823533" lon="7.6599767"><ele>386.0</ele><time>2026-05-01T08:40:42.801Z</time></trkpt><trkpt lat="45.3825567" lon="7.6600217"><ele>386.0</ele><time>2026-05-01T08:40:43.801Z</time></trkpt><trkpt lat="45.382745" lon="7.6600667"><ele>386.0</ele><time>2026-05-01T08:40:44.801Z</time></trkpt><trkpt lat="45.3829333" lon="7.6601183"><ele>386.0</ele><time>2026-05-01T08:40:45.801Z</time></trkpt><trkpt lat="45.3831183" lon="7.6601717"><ele>386.3333333333333</ele><time>2026-05-01T08:40:46.801Z</time></trkpt><trkpt lat="45.3833033" lon="7.6602117"><ele>386.66666666666663</ele><time>2026-05-01T08:40:47.8Z</time></trkpt><trkpt lat="45.383485" lon="7.6602517"><ele>387.0</ele><time>2026-05-01T08:40:48.801Z</time></trkpt><trkpt lat="45.3836583" lon="7.6602933"><ele>387.0</ele><time>2026-05-01T08:40:49.801Z</time></trkpt><trkpt lat="45.383805" lon="7.6603417"><ele>387.0</ele><time>2026-05-01T08:40:50.801Z</time></trkpt><trkpt lat="45.3839383" lon="7.6603833"><ele>387.0</ele><time>2026-05-01T08:40:51.801Z</time></trkpt><trkpt lat="45.384055" lon="7.6604117"><ele>387.0</ele><time>2026-05-01T08:40:52.801Z</time></trkpt><trkpt lat="45.3841583" lon="7.6604067"><ele>387.0</ele><time>2026-05-01T08:40:53.801Z</time></trkpt><trkpt lat="45.3842333" lon="7.66038"><ele>387.0</ele><time>2026-05-01T08:40:54.801Z</time></trkpt><trkpt lat="45.3842883" lon="7.6603133"><ele>387.0</ele><time>2026-05-01T08:40:55.801Z</time></trkpt><trkpt lat="45.3843217" lon="7.6602133"><ele>387.0</ele><time>2026-05-01T08:40:56.801Z</time></trkpt><trkpt lat="45.38433" lon="7.6600833"><ele>387.0</ele><time>2026-05-01T08:40:57.801Z</time></trkpt><trkpt lat="45.38434" lon="7.6599583"><ele>387.0</ele><time>2026-05-01T08:40:58.801Z</time></trkpt><trkpt lat="45.3843633" lon="7.659865"><ele>387.0</ele><time>2026-05-01T08:40:59.801Z</time></trkpt><trkpt lat="45.3844233" lon="7.6597383"><ele>387.0</ele><time>2026-05-01T08:41:01.801Z</time></trkpt><trkpt lat="45.3845467" lon="7.65967"><ele>387.0</ele><time>2026-05-01T08:41:03.801Z</time></trkpt><trkpt lat="45.3846267" lon="7.6596533"><ele>387.0</ele><time>2026-05-01T08:41:04.801Z</time></trkpt><trkpt lat="45.38471" lon="7.6596533"><ele>387.0</ele><time>2026-05-01T08:41:05.801Z</time></trkpt><trkpt lat="45.3847917" lon="7.6596617"><ele>387.6666666666667</ele><time>2026-05-01T08:41:06.801Z</time></trkpt><trkpt lat="45.3848733" lon="7.6596783"><ele>388.33333333333337</ele><time>2026-05-01T08:41:07.801Z</time></trkpt><trkpt lat="45.3849533" lon="7.6596967"><ele>389.0</ele><time>2026-05-01T08:41:08.801Z</time></trkpt><trkpt lat="45.3850283" lon="7.65972"><ele>389.6666666666667</ele><time>2026-05-01T08:41:09.801Z</time></trkpt><trkpt lat="45.3850917" lon="7.6597533"><ele>390.33333333333337</ele><time>2026-05-01T08:41:10.801Z</time></trkpt><trkpt lat="45.3851483" lon="7.6598117"><ele>391.0</ele><time>2026-05-01T08:41:11.801Z</time></trkpt><trkpt lat="45.3852067" lon="7.6599567"><ele>391.0</ele><time>2026-05-01T08:41:13.801Z</time></trkpt><trkpt lat="45.3852067" lon="7.66009"><ele>391.0</ele><time>2026-05-01T08:41:15.801Z</time></trkpt><trkpt lat="45.3851933" lon="7.6601967"><ele>391.0</ele><time>2026-05-01T08:41:17.801Z</time></trkpt><trkpt lat="45.3851517" lon="7.6603583"><ele>391.0</ele><time>2026-05-01T08:41:19.801Z</time></trkpt><trkpt lat="45.38511" lon="7.66046"><ele>391.0</ele><time>2026-05-01T08:41:20.801Z</time></trkpt><trkpt lat="45.385055" lon="7.6605817"><ele>391.0</ele><time>2026-05-01T08:41:21.801Z</time></trkpt><trkpt lat="45.38499" lon="7.6607183"><ele>391.0</ele><time>2026-05-01T08:41:22.801Z</time></trkpt><trkpt lat="45.3849133" lon="7.6608617"><ele>391.0</ele><time>2026-05-01T08:41:23.801Z</time></trkpt><trkpt lat="45.3848383" lon="7.6610067"><ele>391.0</ele><time>2026-05-01T08:41:24.801Z</time></trkpt><trkpt lat="45.3847767" lon="7.6611483"><ele>391.0</ele><time>2026-05-01T08:41:25.801Z</time></trkpt><trkpt lat="45.3847083" lon="7.661285"><ele>391.0</ele><time>2026-05-01T08:41:26.801Z</time></trkpt><trkpt lat="45.3846417" lon="7.6614317"><ele>391.0</ele><time>2026-05-01T08:41:27.801Z</time></trkpt><trkpt lat="45.3845683" lon="7.6615833"><ele>391.0</ele><time>2026-05-01T08:41:28.801Z</time></trkpt><trkpt lat="45.3844917" lon="7.66173"><ele>390.75</ele><time>2026-05-01T08:41:29.8Z</time></trkpt><trkpt lat="45.3844117" lon="7.6618767"><ele>390.5</ele><time>2026-05-01T08:41:30.801Z</time></trkpt><trkpt lat="45.3843333" lon="7.6620117"><ele>390.25</ele><time>2026-05-01T08:41:31.801Z</time></trkpt><trkpt lat="45.38425" lon="7.662155"><ele>390.0</ele><time>2026-05-01T08:41:32.801Z</time></trkpt><trkpt lat="45.38417" lon="7.662285"><ele>389.6</ele><time>2026-05-01T08:41:33.801Z</time></trkpt><trkpt lat="45.3840983" lon="7.662415"><ele>389.2</ele><time>2026-05-01T08:41:34.801Z</time></trkpt><trkpt lat="45.3840217" lon="7.6625433"><ele>388.79999999999995</ele><time>2026-05-01T08:41:35.801Z</time></trkpt><trkpt lat="45.383945" lon="7.6626533"><ele>388.4</ele><time>2026-05-01T08:41:36.801Z</time></trkpt><trkpt lat="45.3838783" lon="7.66275"><ele>388.0</ele><time>2026-05-01T08:41:37.801Z</time></trkpt><trkpt lat="45.3838217" lon="7.6628267"><ele>387.50000000000006</ele><time>2026-05-01T08:41:38.801Z</time></trkpt><trkpt lat="45.38377" lon="7.6628783"><ele>387.0</ele><time>2026-05-01T08:41:39.801Z</time></trkpt><trkpt lat="45.3837183" lon="7.6629417"><ele>386.5</ele><time>2026-05-01T08:41:40.801Z</time></trkpt><trkpt lat="45.3836217" lon="7.6630217"><ele>386.0</ele><time>2026-05-01T08:41:42.801Z</time></trkpt><trkpt lat="45.3835617" lon="7.66307"><ele>385.50000000000006</ele><time>2026-05-01T08:41:43.801Z</time></trkpt><trkpt lat="45.3834933" lon="7.6631333"><ele>385.0</ele><time>2026-05-01T08:41:44.801Z</time></trkpt><trkpt lat="45.3834383" lon="7.6632317"><ele>385.0</ele><time>2026-05-01T08:41:45.801Z</time></trkpt><trkpt lat="45.3834" lon="7.6633467"><ele>385.0</ele><time>2026-05-01T08:41:46.801Z</time></trkpt><trkpt lat="45.38339" lon="7.6634733"><ele>385.0</ele><time>2026-05-01T08:41:47.801Z</time></trkpt><trkpt lat="45.3834267" lon="7.6636"><ele>385.0</ele><time>2026-05-01T08:41:48.801Z</time></trkpt><trkpt lat="45.383495" lon="7.6636883"><ele>385.0</ele><time>2026-05-01T08:41:49.801Z</time></trkpt><trkpt lat="45.3835833" lon="7.6637433"><ele>384.8</ele><time>2026-05-01T08:41:50.8Z</time></trkpt><trkpt lat="45.3836783" lon="7.6637483"><ele>384.6</ele><time>2026-05-01T08:41:51.801Z</time></trkpt><trkpt lat="45.3837617" lon="7.6637033"><ele>384.4</ele><time>2026-05-01T08:41:52.801Z</time></trkpt><trkpt lat="45.3838483" lon="7.66362"><ele>384.2</ele><time>2026-05-01T08:41:53.801Z</time></trkpt><trkpt lat="45.38392" lon="7.6634967"><ele>384.0</ele><time>2026-05-01T08:41:54.801Z</time></trkpt><trkpt lat="45.3840017" lon="7.6633783"><ele>385.0</ele><time>2026-05-01T08:41:55.801Z</time></trkpt><trkpt lat="45.3841017" lon="7.6632767"><ele>386.0</ele><time>2026-05-01T08:41:56.801Z</time></trkpt><trkpt lat="45.3842117" lon="7.6632083"><ele>387.0</ele><time>2026-05-01T08:41:57.801Z</time></trkpt><trkpt lat="45.3843583" lon="7.6631617"><ele>388.0</ele><time>2026-05-01T08:41:58.801Z</time></trkpt><trkpt lat="45.3845083" lon="7.6631117"><ele>388.0</ele><time>2026-05-01T08:41:59.8Z</time></trkpt><trkpt lat="45.3846583" lon="7.663055"><ele>388.0</ele><time>2026-05-01T08:42:00.801Z</time></trkpt><trkpt lat="45.3848033" lon="7.66298"><ele>388.0</ele><time>2026-05-01T08:42:01.801Z</time></trkpt><trkpt lat="45.3849667" lon="7.6629017"><ele>388.33333333333337</ele><time>2026-05-01T08:42:02.801Z</time></trkpt><trkpt lat="45.3851367" lon="7.6628167"><ele>388.66666666666663</ele><time>2026-05-01T08:42:03.801Z</time></trkpt><trkpt lat="45.3853033" lon="7.66273"><ele>389.0</ele><time>2026-05-01T08:42:04.801Z</time></trkpt><trkpt lat="45.3854833" lon="7.6626433"><ele>386.3333333333333</ele><time>2026-05-01T08:42:05.801Z</time></trkpt><trkpt lat="45.38566" lon="7.6625417"><ele>383.66666666666663</ele><time>2026-05-01T08:42:06.801Z</time></trkpt><trkpt lat="45.3858367" lon="7.6624383"><ele>381.0</ele><time>2026-05-01T08:42:07.801Z</time></trkpt><trkpt lat="45.3860183" lon="7.6623383"><ele>381.0</ele><time>2026-05-01T08:42:08.801Z</time></trkpt><trkpt lat="45.3861967" lon="7.66224"><ele>381.0</ele><time>2026-05-01T08:42:09.801Z</time></trkpt><trkpt lat="45.38638" lon="7.66214"><ele>381.0</ele><time>2026-05-01T08:42:10.801Z</time></trkpt><trkpt lat="45.3865683" lon="7.6620417"><ele>380.6666666666667</ele><time>2026-05-01T08:42:11.801Z</time></trkpt><trkpt lat="45.3867583" lon="7.661945"><ele>380.33333333333337</ele><time>2026-05-01T08:42:12.801Z</time></trkpt><trkpt lat="45.3869467" lon="7.66185"><ele>380.0</ele><time>2026-05-01T08:42:13.801Z</time></trkpt><trkpt lat="45.387135" lon="7.6617517"><ele>377.33333333333337</ele><time>2026-05-01T08:42:14.801Z</time></trkpt><trkpt lat="45.3873233" lon="7.6616517"><ele>374.6666666666667</ele><time>2026-05-01T08:42:15.801Z</time></trkpt><trkpt lat="45.3875017" lon="7.66156"><ele>372.0</ele><time>2026-05-01T08:42:16.801Z</time></trkpt><trkpt lat="45.3876983" lon="7.6614583"><ele>372.0</ele><time>2026-05-01T08:42:17.801Z</time></trkpt><trkpt lat="45.3878867" lon="7.6613683"><ele>372.0</ele><time>2026-05-01T08:42:18.801Z</time></trkpt><trkpt lat="45.38807" lon="7.6612867"><ele>372.0</ele><time>2026-05-01T08:42:19.801Z</time></trkpt><trkpt lat="45.3882533" lon="7.6611983"><ele>373.0</ele><time>2026-05-01T08:42:20.801Z</time></trkpt><trkpt lat="45.38844" lon="7.6611017"><ele>374.0</ele><time>2026-05-01T08:42:21.801Z</time></trkpt><trkpt lat="45.38862" lon="7.66101"><ele>375.0</ele><time>2026-05-01T08:42:22.801Z</time></trkpt><trkpt lat="45.3888" lon="7.6609183"><ele>374.3333333333333</ele><time>2026-05-01T08:42:23.801Z</time></trkpt><trkpt lat="45.3889783" lon="7.6608267"><ele>373.66666666666663</ele><time>2026-05-01T08:42:24.801Z</time></trkpt><trkpt lat="45.389155" lon="7.6607433"><ele>373.0</ele><time>2026-05-01T08:42:25.801Z</time></trkpt><trkpt lat="45.3893333" lon="7.6606583"><ele>373.0</ele><time>2026-05-01T08:42:26.801Z</time></trkpt><trkpt lat="45.3895083" lon="7.6605867"><ele>373.0</ele><time>2026-05-01T08:42:27.801Z</time></trkpt><trkpt lat="45.3896933" lon="7.66053"><ele>373.0</ele><time>2026-05-01T08:42:28.801Z</time></trkpt><trkpt lat="45.3898883" lon="7.660475"><ele>373.0</ele><time>2026-05-01T08:42:29.801Z</time></trkpt><trkpt lat="45.3900883" lon="7.6604283"><ele>373.0</ele><time>2026-05-01T08:42:30.801Z</time></trkpt><trkpt lat="45.3902717" lon="7.660395"><ele>373.0</ele><time>2026-05-01T08:42:31.801Z</time></trkpt><trkpt lat="45.3904483" lon="7.6603583"><ele>372.66666666666663</ele><time>2026-05-01T08:42:32.801Z</time></trkpt><trkpt lat="45.3906317" lon="7.6603417"><ele>372.3333333333333</ele><time>2026-05-01T08:42:33.801Z</time></trkpt><trkpt lat="45.3908117" lon="7.660345"><ele>372.0</ele><time>2026-05-01T08:42:34.801Z</time></trkpt><trkpt lat="45.3909933" lon="7.6603417"><ele>372.0</ele><time>2026-05-01T08:42:35.801Z</time></trkpt><trkpt lat="45.3911633" lon="7.660345"><ele>372.0</ele><time>2026-05-01T08:42:36.8Z</time></trkpt><trkpt lat="45.3913333" lon="7.6603467"><ele>372.0</ele><time>2026-05-01T08:42:37.801Z</time></trkpt><trkpt lat="45.3915033" lon="7.6603483"><ele>372.3333333333333</ele><time>2026-05-01T08:42:38.801Z</time></trkpt><trkpt lat="45.3916783" lon="7.6603617"><ele>372.66666666666663</ele><time>2026-05-01T08:42:39.801Z</time></trkpt><trkpt lat="45.3918567" lon="7.6603683"><ele>373.0</ele><time>2026-05-01T08:42:40.801Z</time></trkpt><trkpt lat="45.3920317" lon="7.6603717"><ele>372.3333333333333</ele><time>2026-05-01T08:42:41.801Z</time></trkpt><trkpt lat="45.3922083" lon="7.660375"><ele>371.6666666666667</ele><time>2026-05-01T08:42:42.801Z</time></trkpt><trkpt lat="45.3923833" lon="7.6603883"><ele>371.0</ele><time>2026-05-01T08:42:43.801Z</time></trkpt><trkpt lat="45.3925667" lon="7.6603917"><ele>371.0</ele><time>2026-05-01T08:42:44.801Z</time></trkpt><trkpt lat="45.3927433" lon="7.66038"><ele>371.0</ele><time>2026-05-01T08:42:45.801Z</time></trkpt><trkpt lat="45.39293" lon="7.6603867"><ele>371.0</ele><time>2026-05-01T08:42:46.801Z</time></trkpt><trkpt lat="45.393115" lon="7.6603933"><ele>370.6666666666667</ele><time>2026-05-01T08:42:47.8Z</time></trkpt><trkpt lat="45.3933" lon="7.6603933"><ele>370.3333333333333</ele><time>2026-05-01T08:42:48.801Z</time></trkpt><trkpt lat="45.3934833" lon="7.6603917"><ele>370.0</ele><time>2026-05-01T08:42:49.801Z</time></trkpt><trkpt lat="45.3936667" lon="7.6603867"><ele>371.66666666666663</ele><time>2026-05-01T08:42:50.801Z</time></trkpt><trkpt lat="45.39385" lon="7.660375"><ele>373.3333333333333</ele><time>2026-05-01T08:42:51.801Z</time></trkpt><trkpt lat="45.39405" lon="7.66038"><ele>375.0</ele><time>2026-05-01T08:42:52.801Z</time></trkpt><trkpt lat="45.3942417" lon="7.6603883"><ele>375.0</ele><time>2026-05-01T08:42:53.801Z</time></trkpt><trkpt lat="45.39442" lon="7.6604017"><ele>375.0</ele><time>2026-05-01T08:42:54.801Z</time></trkpt><trkpt lat="45.3945933" lon="7.6604017"><ele>375.0</ele><time>2026-05-01T08:42:55.801Z</time></trkpt><trkpt lat="45.3947533" lon="7.660415"><ele>376.0</ele><time>2026-05-01T08:42:56.801Z</time></trkpt><trkpt lat="45.3948933" lon="7.6604217"><ele>377.0</ele><time>2026-05-01T08:42:57.801Z</time></trkpt><trkpt lat="45.39502" lon="7.66042"><ele>378.0</ele><time>2026-05-01T08:42:58.801Z</time></trkpt><trkpt lat="45.39513" lon="7.6604183"><ele>379.0</ele><time>2026-05-01T08:42:59.801Z</time></trkpt><trkpt lat="45.3952267" lon="7.6604233"><ele>379.0</ele><time>2026-05-01T08:43:00.801Z</time></trkpt><trkpt lat="45.3953083" lon="7.66044"><ele>379.0</ele><time>2026-05-01T08:43:01.801Z</time></trkpt><trkpt lat="45.39538" lon="7.6604683"><ele>379.0</ele><time>2026-05-01T08:43:02.801Z</time></trkpt><trkpt lat="45.3954683" lon="7.6605567"><ele>379.0</ele><time>2026-05-01T08:43:04.801Z</time></trkpt><trkpt lat="45.3954617" lon="7.660665"><ele>379.0</ele><time>2026-05-01T08:43:06.801Z</time></trkpt><trkpt lat="45.3954117" lon="7.6607267"><ele>379.0</ele><time>2026-05-01T08:43:07.801Z</time></trkpt><trkpt lat="45.3953067" lon="7.660805"><ele>379.0</ele><time>2026-05-01T08:43:08.801Z</time></trkpt><trkpt lat="45.3951817" lon="7.6608883"><ele>379.0</ele><time>2026-05-01T08:43:09.8Z</time></trkpt><trkpt lat="45.39504" lon="7.6609733"><ele>379.0</ele><time>2026-05-01T08:43:10.801Z</time></trkpt><trkpt lat="45.3948733" lon="7.66107"><ele>381.3333333333333</ele><time>2026-05-01T08:43:11.801Z</time></trkpt><trkpt lat="45.394705" lon="7.6611767"><ele>383.66666666666663</ele><time>2026-05-01T08:43:12.8Z</time></trkpt><trkpt lat="45.3945417" lon="7.6612733"><ele>386.0</ele><time>2026-05-01T08:43:13.801Z</time></trkpt><trkpt lat="45.394365" lon="7.66138"><ele>386.0</ele><time>2026-05-01T08:43:14.801Z</time></trkpt><trkpt lat="45.39421" lon="7.6614933"><ele>386.0</ele><time>2026-05-01T08:43:15.801Z</time></trkpt><trkpt lat="45.3940733" lon="7.6615917"><ele>386.0</ele><time>2026-05-01T08:43:16.801Z</time></trkpt><trkpt lat="45.39392" lon="7.6617133"><ele>384.0</ele><time>2026-05-01T08:43:17.801Z</time></trkpt><trkpt lat="45.3937767" lon="7.6618567"><ele>382.0</ele><time>2026-05-01T08:43:18.801Z</time></trkpt><trkpt lat="45.3936383" lon="7.662"><ele>380.0</ele><time>2026-05-01T08:43:19.801Z</time></trkpt><trkpt lat="45.393505" lon="7.662155"><ele>380.0</ele><time>2026-05-01T08:43:20.801Z</time></trkpt><trkpt lat="45.3933717" lon="7.6623117"><ele>380.0</ele><time>2026-05-01T08:43:21.801Z</time></trkpt><trkpt lat="45.39323" lon="7.6624533"><ele>380.0</ele><time>2026-05-01T08:43:22.801Z</time></trkpt><trkpt lat="45.3930833" lon="7.66261"><ele>378.6666666666667</ele><time>2026-05-01T08:43:23.801Z</time></trkpt><trkpt lat="45.3929467" lon="7.66275"><ele>377.3333333333333</ele><time>2026-05-01T08:43:24.801Z</time></trkpt><trkpt lat="45.3928033" lon="7.6629033"><ele>376.0</ele><time>2026-05-01T08:43:25.801Z</time></trkpt><trkpt lat="45.3926717" lon="7.6630617"><ele>376.0</ele><time>2026-05-01T08:43:26.801Z</time></trkpt><trkpt lat="45.3925183" lon="7.6632183"><ele>376.0</ele><time>2026-05-01T08:43:27.801Z</time></trkpt><trkpt lat="45.392385" lon="7.663385"><ele>376.0</ele><time>2026-05-01T08:43:28.801Z</time></trkpt><trkpt lat="45.3922533" lon="7.663565"><ele>373.66666666666663</ele><time>2026-05-01T08:43:29.801Z</time></trkpt><trkpt lat="45.392145" lon="7.6637883"><ele>371.3333333333333</ele><time>2026-05-01T08:43:30.801Z</time></trkpt><trkpt lat="45.39206" lon="7.6640167"><ele>369.0</ele><time>2026-05-01T08:43:31.801Z</time></trkpt><trkpt lat="45.3920067" lon="7.6642667"><ele>369.3333333333333</ele><time>2026-05-01T08:43:32.801Z</time></trkpt><trkpt lat="45.391965" lon="7.664515"><ele>369.66666666666663</ele><time>2026-05-01T08:43:33.8Z</time></trkpt><trkpt lat="45.3919267" lon="7.6647667"><ele>370.0</ele><time>2026-05-01T08:43:34.801Z</time></trkpt><trkpt lat="45.3918883" lon="7.6650167"><ele>370.0</ele><time>2026-05-01T08:43:35.801Z</time></trkpt><trkpt lat="45.3918517" lon="7.6652383"><ele>370.0</ele><time>2026-05-01T08:43:36.801Z</time></trkpt><trkpt lat="45.3918083" lon="7.6654533"><ele>370.0</ele><time>2026-05-01T08:43:37.801Z</time></trkpt><trkpt lat="45.39175" lon="7.6656583"><ele>370.66666666666663</ele><time>2026-05-01T08:43:38.801Z</time></trkpt><trkpt lat="45.3916733" lon="7.6658517"><ele>371.3333333333333</ele><time>2026-05-01T08:43:39.801Z</time></trkpt><trkpt lat="45.3915983" lon="7.6660467"><ele>372.0</ele><time>2026-05-01T08:43:40.801Z</time></trkpt><trkpt lat="45.391525" lon="7.6662133"><ele>371.25</ele><time>2026-05-01T08:43:41.801Z</time></trkpt><trkpt lat="45.391445" lon="7.6663833"><ele>370.5</ele><time>2026-05-01T08:43:42.801Z</time></trkpt><trkpt lat="45.39138" lon="7.6665667"><ele>369.75</ele><time>2026-05-01T08:43:43.801Z</time></trkpt><trkpt lat="45.3912833" lon="7.666725"><ele>369.0</ele><time>2026-05-01T08:43:44.801Z</time></trkpt><trkpt lat="45.391205" lon="7.6669083"><ele>371.6666666666667</ele><time>2026-05-01T08:43:45.801Z</time></trkpt><trkpt lat="45.3911167" lon="7.6670883"><ele>374.33333333333337</ele><time>2026-05-01T08:43:46.801Z</time></trkpt><trkpt lat="45.3910167" lon="7.6672617"><ele>377.0</ele><time>2026-05-01T08:43:47.801Z</time></trkpt><trkpt lat="45.3909133" lon="7.6674433"><ele>377.0</ele><time>2026-05-01T08:43:48.801Z</time></trkpt><trkpt lat="45.3907933" lon="7.6676183"><ele>377.0</ele><time>2026-05-01T08:43:49.801Z</time></trkpt><trkpt lat="45.3906767" lon="7.6678033"><ele>377.0</ele><time>2026-05-01T08:43:50.801Z</time></trkpt><trkpt lat="45.3905583" lon="7.6679933"><ele>374.0</ele><time>2026-05-01T08:43:51.801Z</time></trkpt><trkpt lat="45.3904533" lon="7.6681833"><ele>371.0</ele><time>2026-05-01T08:43:52.801Z</time></trkpt><trkpt lat="45.3903367" lon="7.6683867"><ele>368.0</ele><time>2026-05-01T08:43:53.801Z</time></trkpt><trkpt lat="45.3902183" lon="7.6685933"><ele>372.33333333333337</ele><time>2026-05-01T08:43:54.801Z</time></trkpt><trkpt lat="45.3901033" lon="7.6688133"><ele>376.6666666666667</ele><time>2026-05-01T08:43:55.801Z</time></trkpt><trkpt lat="45.3899917" lon="7.669015"><ele>381.0</ele><time>2026-05-01T08:43:56.801Z</time></trkpt><trkpt lat="45.389885" lon="7.6692267"><ele>381.0</ele><time>2026-05-01T08:43:57.801Z</time></trkpt><trkpt lat="45.3897783" lon="7.6694417"><ele>381.0</ele><time>2026-05-01T08:43:58.801Z</time></trkpt><trkpt lat="45.3896617" lon="7.6696617"><ele>381.0</ele><time>2026-05-01T08:43:59.801Z</time></trkpt><trkpt lat="45.38955" lon="7.66989"><ele>380.6666666666667</ele><time>2026-05-01T08:44:00.8Z</time></trkpt><trkpt lat="45.3894333" lon="7.6701133"><ele>380.33333333333337</ele><time>2026-05-01T08:44:01.801Z</time></trkpt><trkpt lat="45.38932" lon="7.67034"><ele>380.0</ele><time>2026-05-01T08:44:02.801Z</time></trkpt><trkpt lat="45.389185" lon="7.670565"><ele>380.0</ele><time>2026-05-01T08:44:03.801Z</time></trkpt><trkpt lat="45.3890767" lon="7.670795"><ele>380.0</ele><time>2026-05-01T08:44:04.801Z</time></trkpt><trkpt lat="45.3889617" lon="7.6710267"><ele>380.0</ele><time>2026-05-01T08:44:05.801Z</time></trkpt><trkpt lat="45.3888517" lon="7.6712583"><ele>376.6666666666667</ele><time>2026-05-01T08:44:06.801Z</time></trkpt><trkpt lat="45.3887417" lon="7.6715033"><ele>373.3333333333333</ele><time>2026-05-01T08:44:07.801Z</time></trkpt><trkpt lat="45.3886417" lon="7.671745"><ele>370.0</ele><time>2026-05-01T08:44:08.801Z</time></trkpt><trkpt lat="45.3885533" lon="7.6719883"><ele>370.0</ele><time>2026-05-01T08:44:09.801Z</time></trkpt><trkpt lat="45.3884583" lon="7.6722467"><ele>370.0</ele><time>2026-05-01T08:44:10.801Z</time></trkpt><trkpt lat="45.3883633" lon="7.6725033"><ele>370.0</ele><time>2026-05-01T08:44:11.801Z</time></trkpt><trkpt lat="45.3882683" lon="7.67275"><ele>367.0</ele><time>2026-05-01T08:44:12.801Z</time></trkpt><trkpt lat="45.3881667" lon="7.672995"><ele>364.0</ele><time>2026-05-01T08:44:13.801Z</time></trkpt><trkpt lat="45.3880567" lon="7.6732317"><ele>361.0</ele><time>2026-05-01T08:44:14.801Z</time></trkpt><trkpt lat="45.387935" lon="7.6734717"><ele>363.66666666666663</ele><time>2026-05-01T08:44:15.801Z</time></trkpt><trkpt lat="45.38782" lon="7.6737017"><ele>366.3333333333333</ele><time>2026-05-01T08:44:16.801Z</time></trkpt><trkpt lat="45.3877117" lon="7.6739267"><ele>369.0</ele><time>2026-05-01T08:44:17.801Z</time></trkpt><trkpt lat="45.3875983" lon="7.6741417"><ele>369.0</ele><time>2026-05-01T08:44:18.801Z</time></trkpt><trkpt lat="45.3874933" lon="7.6743533"><ele>369.0</ele><time>2026-05-01T08:44:19.801Z</time></trkpt><trkpt lat="45.3873867" lon="7.6745683"><ele>369.0</ele><time>2026-05-01T08:44:20.801Z</time></trkpt><trkpt lat="45.3872933" lon="7.67479"><ele>369.6666666666667</ele><time>2026-05-01T08:44:21.801Z</time></trkpt><trkpt lat="45.3872117" lon="7.6750267"><ele>370.33333333333337</ele><time>2026-05-01T08:44:22.801Z</time></trkpt><trkpt lat="45.3871283" lon="7.67526"><ele>371.0</ele><time>2026-05-01T08:44:23.801Z</time></trkpt><trkpt lat="45.3870683" lon="7.6754933"><ele>369.33333333333337</ele><time>2026-05-01T08:44:24.801Z</time></trkpt><trkpt lat="45.3870083" lon="7.6757117"><ele>367.6666666666667</ele><time>2026-05-01T08:44:25.801Z</time></trkpt><trkpt lat="45.38695" lon="7.6759267"><ele>366.0</ele><time>2026-05-01T08:44:26.801Z</time></trkpt><trkpt lat="45.3868983" lon="7.6761067"><ele>365.75</ele><time>2026-05-01T08:44:27.8Z</time></trkpt><trkpt lat="45.3868483" lon="7.6762833"><ele>365.5</ele><time>2026-05-01T08:44:28.801Z</time></trkpt><trkpt lat="45.3867767" lon="7.6764533"><ele>365.25</ele><time>2026-05-01T08:44:29.801Z</time></trkpt><trkpt lat="45.386705" lon="7.676635"><ele>365.0</ele><time>2026-05-01T08:44:30.801Z</time></trkpt><trkpt lat="45.3866167" lon="7.6768267"><ele>364.33333333333337</ele><time>2026-05-01T08:44:31.801Z</time></trkpt><trkpt lat="45.38652" lon="7.6770217"><ele>363.6666666666667</ele><time>2026-05-01T08:44:32.801Z</time></trkpt><trkpt lat="45.386425" lon="7.6772233"><ele>363.0</ele><time>2026-05-01T08:44:33.8Z</time></trkpt><trkpt lat="45.386315" lon="7.677425"><ele>361.3333333333333</ele><time>2026-05-01T08:44:34.801Z</time></trkpt><trkpt lat="45.3862017" lon="7.6776383"><ele>359.66666666666663</ele><time>2026-05-01T08:44:35.801Z</time></trkpt><trkpt lat="45.3860883" lon="7.6778767"><ele>358.0</ele><time>2026-05-01T08:44:36.801Z</time></trkpt><trkpt lat="45.3859733" lon="7.678105"><ele>357.66666666666663</ele><time>2026-05-01T08:44:37.801Z</time></trkpt><trkpt lat="45.3858667" lon="7.6783417"><ele>357.3333333333333</ele><time>2026-05-01T08:44:38.801Z</time></trkpt><trkpt lat="45.3857583" lon="7.6785667"><ele>357.0</ele><time>2026-05-01T08:44:39.801Z</time></trkpt><trkpt lat="45.3856483" lon="7.6787917"><ele>357.0</ele><time>2026-05-01T08:44:40.801Z</time></trkpt><trkpt lat="45.3855433" lon="7.6790217"><ele>357.0</ele><time>2026-05-01T08:44:41.801Z</time></trkpt><trkpt lat="45.3854267" lon="7.67926"><ele>357.0</ele><time>2026-05-01T08:44:42.801Z</time></trkpt><trkpt lat="45.3853183" lon="7.6794983"><ele>357.3333333333333</ele><time>2026-05-01T08:44:43.801Z</time></trkpt><trkpt lat="45.3851967" lon="7.6797483"><ele>357.66666666666663</ele><time>2026-05-01T08:44:44.801Z</time></trkpt><trkpt lat="45.38508" lon="7.6799733"><ele>358.0</ele><time>2026-05-01T08:44:45.801Z</time></trkpt><trkpt lat="45.38497" lon="7.680205"><ele>358.0</ele><time>2026-05-01T08:44:46.801Z</time></trkpt><trkpt lat="45.3848567" lon="7.68043"><ele>358.0</ele><time>2026-05-01T08:44:47.801Z</time></trkpt><trkpt lat="45.38475" lon="7.6806583"><ele>358.0</ele><time>2026-05-01T08:44:48.801Z</time></trkpt><trkpt lat="45.3846317" lon="7.6808933"><ele>357.0</ele><time>2026-05-01T08:44:49.801Z</time></trkpt><trkpt lat="45.38451" lon="7.6811333"><ele>356.0</ele><time>2026-05-01T08:44:50.801Z</time></trkpt><trkpt lat="45.3844017" lon="7.6813683"><ele>355.0</ele><time>2026-05-01T08:44:51.801Z</time></trkpt><trkpt lat="45.384295" lon="7.6815833"><ele>355.0</ele><time>2026-05-01T08:44:52.801Z</time></trkpt><trkpt lat="45.3841983" lon="7.68179"><ele>355.0</ele><time>2026-05-01T08:44:53.801Z</time></trkpt><trkpt lat="45.3841033" lon="7.681995"><ele>355.0</ele><time>2026-05-01T08:44:54.801Z</time></trkpt><trkpt lat="45.384005" lon="7.6822"><ele>355.0</ele><time>2026-05-01T08:44:55.801Z</time></trkpt><trkpt lat="45.383925" lon="7.6824"><ele>355.0</ele><time>2026-05-01T08:44:56.801Z</time></trkpt><trkpt lat="45.3838567" lon="7.6825917"><ele>355.0</ele><time>2026-05-01T08:44:57.801Z</time></trkpt><trkpt lat="45.3838117" lon="7.6827767"><ele>354.5</ele><time>2026-05-01T08:44:58.801Z</time></trkpt><trkpt lat="45.383755" lon="7.6829683"><ele>354.0</ele><time>2026-05-01T08:44:59.801Z</time></trkpt><trkpt lat="45.3837067" lon="7.6831633"><ele>353.5</ele><time>2026-05-01T08:45:00.801Z</time></trkpt><trkpt lat="45.3836583" lon="7.6833533"><ele>353.0</ele><time>2026-05-01T08:45:01.801Z</time></trkpt><trkpt lat="45.3836017" lon="7.683555"><ele>352.33333333333337</ele><time>2026-05-01T08:45:02.801Z</time></trkpt><trkpt lat="45.3835517" lon="7.68377"><ele>351.6666666666667</ele><time>2026-05-01T08:45:03.801Z</time></trkpt><trkpt lat="45.3835117" lon="7.68399"><ele>351.0</ele><time>2026-05-01T08:45:04.801Z</time></trkpt><trkpt lat="45.3834833" lon="7.68421"><ele>351.0</ele><time>2026-05-01T08:45:05.8Z</time></trkpt><trkpt lat="45.383455" lon="7.6844467"><ele>351.0</ele><time>2026-05-01T08:45:06.8Z</time></trkpt><trkpt lat="45.3834317" lon="7.684685"><ele>351.0</ele><time>2026-05-01T08:45:07.801Z</time></trkpt><trkpt lat="45.3834117" lon="7.6849383"><ele>351.0</ele><time>2026-05-01T08:45:08.801Z</time></trkpt><trkpt lat="45.3834" lon="7.6852033"><ele>351.0</ele><time>2026-05-01T08:45:09.801Z</time></trkpt><trkpt lat="45.383395" lon="7.6854567"><ele>351.0</ele><time>2026-05-01T08:45:10.801Z</time></trkpt><trkpt lat="45.3833883" lon="7.6857133"><ele>351.3333333333333</ele><time>2026-05-01T08:45:11.801Z</time></trkpt><trkpt lat="45.3833867" lon="7.6859533"><ele>351.66666666666663</ele><time>2026-05-01T08:45:12.801Z</time></trkpt><trkpt lat="45.3833917" lon="7.686195"><ele>352.0</ele><time>2026-05-01T08:45:13.801Z</time></trkpt><trkpt lat="45.3834033" lon="7.68641"><ele>352.5</ele><time>2026-05-01T08:45:14.801Z</time></trkpt><trkpt lat="45.3834033" lon="7.68661"><ele>353.0</ele><time>2026-05-01T08:45:15.801Z</time></trkpt><trkpt lat="45.38341" lon="7.6867883"><ele>353.5</ele><time>2026-05-01T08:45:16.801Z</time></trkpt><trkpt lat="45.383415" lon="7.686935"><ele>354.0</ele><time>2026-05-01T08:45:17.801Z</time></trkpt><trkpt lat="45.383415" lon="7.6870583"><ele>354.5</ele><time>2026-05-01T08:45:18.801Z</time></trkpt><trkpt lat="45.3834117" lon="7.687155"><ele>355.0</ele><time>2026-05-01T08:45:19.801Z</time></trkpt><trkpt lat="45.3834083" lon="7.6872667"><ele>355.5</ele><time>2026-05-01T08:45:21.801Z</time></trkpt><trkpt lat="45.383425" lon="7.6873833"><ele>356.0</ele><time>2026-05-01T08:46:45.801Z</time></trkpt><trkpt lat="45.3834333" lon="7.6875017"><ele>356.5</ele><time>2026-05-01T08:46:46.801Z</time></trkpt><trkpt lat="45.383445" lon="7.6876367"><ele>357.0</ele><time>2026-05-01T08:46:47.801Z</time></trkpt><trkpt lat="45.38345" lon="7.6877817"><ele>357.0</ele><time>2026-05-01T08:46:48.801Z</time></trkpt><trkpt lat="45.3834483" lon="7.6879283"><ele>357.0</ele><time>2026-05-01T08:46:49.801Z</time></trkpt><trkpt lat="45.38345" lon="7.6880817"><ele>357.0</ele><time>2026-05-01T08:46:50.801Z</time></trkpt><trkpt lat="45.3834467" lon="7.6882467"><ele>357.0</ele><time>2026-05-01T08:46:51.801Z</time></trkpt><trkpt lat="45.3834483" lon="7.6884067"><ele>357.0</ele><time>2026-05-01T08:46:52.801Z</time></trkpt><trkpt lat="45.3834483" lon="7.6885817"><ele>357.5</ele><time>2026-05-01T08:46:53.801Z</time></trkpt><trkpt lat="45.3834383" lon="7.6887567"><ele>358.0</ele><time>2026-05-01T08:46:54.801Z</time></trkpt><trkpt lat="45.3834317" lon="7.68894"><ele>358.5</ele><time>2026-05-01T08:46:55.801Z</time></trkpt><trkpt lat="45.3834367" lon="7.6891467"><ele>359.0</ele><time>2026-05-01T08:46:56.801Z</time></trkpt><trkpt lat="45.3834283" lon="7.689345"><ele>358.75</ele><time>2026-05-01T08:46:57.8Z</time></trkpt><trkpt lat="45.3834317" lon="7.6895383"><ele>358.5</ele><time>2026-05-01T08:46:58.801Z</time></trkpt><trkpt lat="45.3834433" lon="7.6897433"><ele>358.25</ele><time>2026-05-01T08:46:59.801Z</time></trkpt><trkpt lat="45.383465" lon="7.6899483"><ele>358.0</ele><time>2026-05-01T08:47:00.801Z</time></trkpt><trkpt lat="45.3834783" lon="7.6901683"><ele>357.66666666666663</ele><time>2026-05-01T08:47:01.801Z</time></trkpt><trkpt lat="45.3834967" lon="7.69038"><ele>357.3333333333333</ele><time>2026-05-01T08:47:02.801Z</time></trkpt><trkpt lat="45.383525" lon="7.6905983"><ele>357.0</ele><time>2026-05-01T08:47:03.801Z</time></trkpt><trkpt lat="45.383545" lon="7.6908317"><ele>357.0</ele><time>2026-05-01T08:47:04.801Z</time></trkpt><trkpt lat="45.3835717" lon="7.6910683"><ele>357.0</ele><time>2026-05-01T08:47:05.8Z</time></trkpt><trkpt lat="45.3835967" lon="7.6913067"><ele>357.0</ele><time>2026-05-01T08:47:06.801Z</time></trkpt><trkpt lat="45.38363" lon="7.6915583"><ele>356.6666666666667</ele><time>2026-05-01T08:47:07.801Z</time></trkpt><trkpt lat="45.383665" lon="7.6918083"><ele>356.33333333333337</ele><time>2026-05-01T08:47:08.801Z</time></trkpt><trkpt lat="45.383705" lon="7.6920483"><ele>356.0</ele><time>2026-05-01T08:47:09.801Z</time></trkpt><trkpt lat="45.383735" lon="7.692285"><ele>355.33333333333337</ele><time>2026-05-01T08:47:10.801Z</time></trkpt><trkpt lat="45.3837617" lon="7.6925183"><ele>354.6666666666667</ele><time>2026-05-01T08:47:11.801Z</time></trkpt><trkpt lat="45.3838017" lon="7.6927567"><ele>354.0</ele><time>2026-05-01T08:47:12.801Z</time></trkpt><trkpt lat="45.383825" lon="7.6930033"><ele>354.3333333333333</ele><time>2026-05-01T08:47:13.801Z</time></trkpt><trkpt lat="45.38386" lon="7.69326"><ele>354.66666666666663</ele><time>2026-05-01T08:47:14.801Z</time></trkpt><trkpt lat="45.3838883" lon="7.693505"><ele>355.0</ele><time>2026-05-01T08:47:15.801Z</time></trkpt><trkpt lat="45.3839017" lon="7.6937433"><ele>355.0</ele><time>2026-05-01T08:47:16.801Z</time></trkpt><trkpt lat="45.3839433" lon="7.6939767"><ele>355.0</ele><time>2026-05-01T08:47:17.801Z</time></trkpt><trkpt lat="45.3839767" lon="7.69424"><ele>355.0</ele><time>2026-05-01T08:47:18.801Z</time></trkpt><trkpt lat="45.3840117" lon="7.6944967"><ele>354.3333333333333</ele><time>2026-05-01T08:47:19.8Z</time></trkpt><trkpt lat="45.3840383" lon="7.6947517"><ele>353.6666666666667</ele><time>2026-05-01T08:47:20.8Z</time></trkpt><trkpt lat="45.3840783" lon="7.694995"><ele>353.0</ele><time>2026-05-01T08:47:21.801Z</time></trkpt><trkpt lat="45.3841117" lon="7.695235"><ele>353.0</ele><time>2026-05-01T08:47:22.801Z</time></trkpt><trkpt lat="45.38413" lon="7.6954683"><ele>353.0</ele><time>2026-05-01T08:47:23.801Z</time></trkpt><trkpt lat="45.3841583" lon="7.6956983"><ele>353.0</ele><time>2026-05-01T08:47:24.801Z</time></trkpt><trkpt lat="45.384155" lon="7.69592"><ele>353.33333333333337</ele><time>2026-05-01T08:47:25.801Z</time></trkpt><trkpt lat="45.3841267" lon="7.6961533"><ele>353.6666666666667</ele><time>2026-05-01T08:47:26.801Z</time></trkpt><trkpt lat="45.38408" lon="7.6963817"><ele>354.0</ele><time>2026-05-01T08:47:27.801Z</time></trkpt><trkpt lat="45.3840033" lon="7.6966033"><ele>354.0</ele><time>2026-05-01T08:47:28.801Z</time></trkpt><trkpt lat="45.3839117" lon="7.6968167"><ele>354.0</ele><time>2026-05-01T08:47:29.801Z</time></trkpt><trkpt lat="45.3838133" lon="7.6970183"><ele>354.0</ele><time>2026-05-01T08:47:30.801Z</time></trkpt><trkpt lat="45.3837017" lon="7.69723"><ele>353.6666666666667</ele><time>2026-05-01T08:47:31.801Z</time></trkpt><trkpt lat="45.3835883" lon="7.6974367"><ele>353.33333333333337</ele><time>2026-05-01T08:47:32.801Z</time></trkpt><trkpt lat="45.3835083" lon="7.69766"><ele>353.0</ele><time>2026-05-01T08:47:33.801Z</time></trkpt><trkpt lat="45.3834083" lon="7.6978733"><ele>352.33333333333337</ele><time>2026-05-01T08:47:34.801Z</time></trkpt><trkpt lat="45.3833067" lon="7.6980867"><ele>351.6666666666667</ele><time>2026-05-01T08:47:35.801Z</time></trkpt><trkpt lat="45.3831967" lon="7.6983"><ele>351.0</ele><time>2026-05-01T08:47:36.801Z</time></trkpt><trkpt lat="45.3830917" lon="7.698515"><ele>351.0</ele><time>2026-05-01T08:47:37.801Z</time></trkpt><trkpt lat="45.3829833" lon="7.698725"><ele>351.0</ele><time>2026-05-01T08:47:38.801Z</time></trkpt><trkpt lat="45.38288" lon="7.6989467"><ele>351.0</ele><time>2026-05-01T08:47:39.801Z</time></trkpt><trkpt lat="45.38276" lon="7.6991667"><ele>351.0</ele><time>2026-05-01T08:47:40.801Z</time></trkpt><trkpt lat="45.3826583" lon="7.6993883"><ele>351.0</ele><time>2026-05-01T08:47:41.801Z</time></trkpt><trkpt lat="45.3825667" lon="7.6996033"><ele>351.0</ele><time>2026-05-01T08:47:42.801Z</time></trkpt><trkpt lat="45.3824783" lon="7.699825"><ele>350.6666666666667</ele><time>2026-05-01T08:47:43.801Z</time></trkpt><trkpt lat="45.382385" lon="7.7000567"><ele>350.33333333333337</ele><time>2026-05-01T08:47:44.801Z</time></trkpt><trkpt lat="45.3822917" lon="7.7002817"><ele>350.0</ele><time>2026-05-01T08:47:45.801Z</time></trkpt><trkpt lat="45.3822" lon="7.7005217"><ele>350.33333333333337</ele><time>2026-05-01T08:47:46.801Z</time></trkpt><trkpt lat="45.3821217" lon="7.700745"><ele>350.6666666666667</ele><time>2026-05-01T08:47:47.801Z</time></trkpt><trkpt lat="45.382035" lon="7.70098"><ele>351.0</ele><time>2026-05-01T08:47:48.801Z</time></trkpt><trkpt lat="45.3819583" lon="7.7012067"><ele>350.3333333333333</ele><time>2026-05-01T08:47:49.801Z</time></trkpt><trkpt lat="45.3818683" lon="7.7014383"><ele>349.66666666666663</ele><time>2026-05-01T08:47:50.801Z</time></trkpt><trkpt lat="45.3817983" lon="7.7016683"><ele>349.0</ele><time>2026-05-01T08:47:51.801Z</time></trkpt><trkpt lat="45.3817167" lon="7.70189"><ele>348.0</ele><time>2026-05-01T08:47:52.801Z</time></trkpt><trkpt lat="45.38164" lon="7.7021033"><ele>347.0</ele><time>2026-05-01T08:47:53.801Z</time></trkpt><trkpt lat="45.381555" lon="7.7023317"><ele>346.0</ele><time>2026-05-01T08:47:54.801Z</time></trkpt><trkpt lat="45.3815" lon="7.7025733"><ele>346.0</ele><time>2026-05-01T08:47:55.801Z</time></trkpt><trkpt lat="45.3814467" lon="7.7028117"><ele>346.0</ele><time>2026-05-01T08:47:56.801Z</time></trkpt><trkpt lat="45.3813933" lon="7.7030583"><ele>346.0</ele><time>2026-05-01T08:47:57.801Z</time></trkpt><trkpt lat="45.3813583" lon="7.7033167"><ele>346.0</ele><time>2026-05-01T08:47:58.801Z</time></trkpt><trkpt lat="45.3813283" lon="7.7035733"><ele>346.0</ele><time>2026-05-01T08:47:59.801Z</time></trkpt><trkpt lat="45.3813033" lon="7.7038283"><ele>346.0</ele><time>2026-05-01T08:48:00.801Z</time></trkpt><trkpt lat="45.3812833" lon="7.70408"><ele>345.66666666666663</ele><time>2026-05-01T08:48:01.801Z</time></trkpt><trkpt lat="45.3812667" lon="7.704315"><ele>345.3333333333333</ele><time>2026-05-01T08:48:02.801Z</time></trkpt><trkpt lat="45.3812383" lon="7.704535"><ele>345.0</ele><time>2026-05-01T08:48:03.801Z</time></trkpt><trkpt lat="45.3812317" lon="7.7047317"><ele>345.0</ele><time>2026-05-01T08:48:04.8Z</time></trkpt><trkpt lat="45.3812133" lon="7.7049267"><ele>345.0</ele><time>2026-05-01T08:48:05.801Z</time></trkpt><trkpt lat="45.3811967" lon="7.7051267"><ele>345.0</ele><time>2026-05-01T08:48:06.801Z</time></trkpt><trkpt lat="45.3811733" lon="7.70534"><ele>345.0</ele><time>2026-05-01T08:48:07.801Z</time></trkpt><trkpt lat="45.3811517" lon="7.705555"><ele>345.25</ele><time>2026-05-01T08:48:08.8Z</time></trkpt><trkpt lat="45.3811467" lon="7.705765"><ele>345.5</ele><time>2026-05-01T08:48:09.801Z</time></trkpt><trkpt lat="45.3811483" lon="7.70597"><ele>345.75</ele><time>2026-05-01T08:48:10.801Z</time></trkpt><trkpt lat="45.3811983" lon="7.706175"><ele>346.0</ele><time>2026-05-01T08:48:11.801Z</time></trkpt><trkpt lat="45.3812567" lon="7.706365"><ele>345.5</ele><time>2026-05-01T08:48:12.801Z</time></trkpt><trkpt lat="45.3813083" lon="7.7065483"><ele>345.0</ele><time>2026-05-01T08:48:13.801Z</time></trkpt><trkpt lat="45.3813783" lon="7.7067117"><ele>344.5</ele><time>2026-05-01T08:48:14.801Z</time></trkpt><trkpt lat="45.38142" lon="7.7068467"><ele>344.0</ele><time>2026-05-01T08:48:15.801Z</time></trkpt><trkpt lat="45.3814483" lon="7.7069467"><ele>343.83333333333337</ele><time>2026-05-01T08:48:16.801Z</time></trkpt><trkpt lat="45.38147" lon="7.7071133"><ele>343.6666666666667</ele><time>2026-05-01T08:48:18.801Z</time></trkpt><trkpt lat="45.38146" lon="7.7072067"><ele>343.5</ele><time>2026-05-01T08:48:19.801Z</time></trkpt><trkpt lat="45.3814317" lon="7.707305"><ele>343.3333333333333</ele><time>2026-05-01T08:48:20.801Z</time></trkpt><trkpt lat="45.3813867" lon="7.7073967"><ele>343.16666666666663</ele><time>2026-05-01T08:48:21.801Z</time></trkpt><trkpt lat="45.3813117" lon="7.7074767"><ele>343.0</ele><time>2026-05-01T08:48:22.801Z</time></trkpt><trkpt lat="45.3812217" lon="7.7075533"><ele>343.0</ele><time>2026-05-01T08:48:23.801Z</time></trkpt><trkpt lat="45.38112" lon="7.7076167"><ele>343.0</ele><time>2026-05-01T08:48:24.801Z</time></trkpt><trkpt lat="45.3809933" lon="7.7076817"><ele>343.0</ele><time>2026-05-01T08:48:25.801Z</time></trkpt><trkpt lat="45.3808683" lon="7.7077633"><ele>343.0</ele><time>2026-05-01T08:48:26.801Z</time></trkpt><trkpt lat="45.3807367" lon="7.70784"><ele>343.25</ele><time>2026-05-01T08:48:27.801Z</time></trkpt><trkpt lat="45.3806" lon="7.7079117"><ele>343.5</ele><time>2026-05-01T08:48:28.801Z</time></trkpt><trkpt lat="45.38047" lon="7.707995"><ele>343.75</ele><time>2026-05-01T08:48:29.801Z</time></trkpt><trkpt lat="45.3803417" lon="7.7080917"><ele>344.0</ele><time>2026-05-01T08:48:30.801Z</time></trkpt><trkpt lat="45.3802017" lon="7.7081883"><ele>344.33333333333337</ele><time>2026-05-01T08:48:31.801Z</time></trkpt><trkpt lat="45.3800583" lon="7.7082767"><ele>344.6666666666667</ele><time>2026-05-01T08:48:32.801Z</time></trkpt><trkpt lat="45.3799117" lon="7.7083733"><ele>345.0</ele><time>2026-05-01T08:48:33.801Z</time></trkpt><trkpt lat="45.37977" lon="7.7084633"><ele>344.3333333333333</ele><time>2026-05-01T08:48:34.801Z</time></trkpt><trkpt lat="45.3796167" lon="7.7085717"><ele>343.66666666666663</ele><time>2026-05-01T08:48:35.801Z</time></trkpt><trkpt lat="45.3794733" lon="7.7086783"><ele>343.0</ele><time>2026-05-01T08:48:36.801Z</time></trkpt><trkpt lat="45.3793283" lon="7.7087883"><ele>342.66666666666663</ele><time>2026-05-01T08:48:37.801Z</time></trkpt><trkpt lat="45.379185" lon="7.7088883"><ele>342.3333333333333</ele><time>2026-05-01T08:48:38.8Z</time></trkpt><trkpt lat="45.3790383" lon="7.7089867"><ele>342.0</ele><time>2026-05-01T08:48:39.8Z</time></trkpt><trkpt lat="45.3788883" lon="7.70908"><ele>342.0</ele><time>2026-05-01T08:48:40.801Z</time></trkpt><trkpt lat="45.378745" lon="7.70917"><ele>342.0</ele><time>2026-05-01T08:48:41.801Z</time></trkpt><trkpt lat="45.3786217" lon="7.70927"><ele>342.0</ele><time>2026-05-01T08:48:42.801Z</time></trkpt><trkpt lat="45.37849" lon="7.7093667"><ele>342.0</ele><time>2026-05-01T08:48:43.801Z</time></trkpt><trkpt lat="45.3783667" lon="7.7094667"><ele>342.0</ele><time>2026-05-01T08:48:44.801Z</time></trkpt><trkpt lat="45.378245" lon="7.709565"><ele>342.0</ele><time>2026-05-01T08:48:45.801Z</time></trkpt><trkpt lat="45.3781217" lon="7.7096633"><ele>342.0</ele><time>2026-05-01T08:48:46.801Z</time></trkpt><trkpt lat="45.3780033" lon="7.7097633"><ele>342.0</ele><time>2026-05-01T08:48:47.801Z</time></trkpt><trkpt lat="45.3778933" lon="7.7098583"><ele>341.5</ele><time>2026-05-01T08:48:48.801Z</time></trkpt><trkpt lat="45.3777867" lon="7.7099517"><ele>341.0</ele><time>2026-05-01T08:48:49.8Z</time></trkpt><trkpt lat="45.377685" lon="7.7100333"><ele>340.5</ele><time>2026-05-01T08:48:50.801Z</time></trkpt><trkpt lat="45.3775817" lon="7.7101"><ele>340.0</ele><time>2026-05-01T08:48:51.8Z</time></trkpt><trkpt lat="45.3774617" lon="7.7101233"><ele>340.0</ele><time>2026-05-01T08:48:52.801Z</time></trkpt><trkpt lat="45.37733" lon="7.710135"><ele>340.0</ele><time>2026-05-01T08:48:53.801Z</time></trkpt><trkpt lat="45.3771867" lon="7.7101233"><ele>340.0</ele><time>2026-05-01T08:48:54.801Z</time></trkpt><trkpt lat="45.3770333" lon="7.7101333"><ele>340.0</ele><time>2026-05-01T08:48:55.801Z</time></trkpt><trkpt lat="45.3768833" lon="7.71014"><ele>340.3333333333333</ele><time>2026-05-01T08:48:56.8Z</time></trkpt><trkpt lat="45.37672" lon="7.7101617"><ele>340.6666666666667</ele><time>2026-05-01T08:48:57.8Z</time></trkpt><trkpt lat="45.3765567" lon="7.7101817"><ele>341.0</ele><time>2026-05-01T08:48:58.801Z</time></trkpt><trkpt lat="45.376405" lon="7.7101967"><ele>341.0</ele><time>2026-05-01T08:48:59.801Z</time></trkpt><trkpt lat="45.3762333" lon="7.7102117"><ele>341.0</ele><time>2026-05-01T08:49:00.801Z</time></trkpt><trkpt lat="45.37605" lon="7.710225"><ele>341.0</ele><time>2026-05-01T08:49:01.801Z</time></trkpt><trkpt lat="45.3758683" lon="7.7102367"><ele>341.0</ele><time>2026-05-01T08:49:02.801Z</time></trkpt><trkpt lat="45.3756917" lon="7.71025"><ele>341.0</ele><time>2026-05-01T08:49:03.801Z</time></trkpt><trkpt lat="45.375525" lon="7.71025"><ele>341.0</ele><time>2026-05-01T08:49:04.801Z</time></trkpt><trkpt lat="45.37535" lon="7.7102483"><ele>340.6666666666667</ele><time>2026-05-01T08:49:05.801Z</time></trkpt><trkpt lat="45.3751683" lon="7.7102383"><ele>340.3333333333333</ele><time>2026-05-01T08:49:06.801Z</time></trkpt><trkpt lat="45.3749917" lon="7.7102233"><ele>340.0</ele><time>2026-05-01T08:49:07.8Z</time></trkpt><trkpt lat="45.3748117" lon="7.71021"><ele>339.66666666666663</ele><time>2026-05-01T08:49:08.801Z</time></trkpt><trkpt lat="45.3746367" lon="7.7101983"><ele>339.3333333333333</ele><time>2026-05-01T08:49:09.801Z</time></trkpt><trkpt lat="45.37446" lon="7.7101933"><ele>339.0</ele><time>2026-05-01T08:49:10.801Z</time></trkpt><trkpt lat="45.3742917" lon="7.710185"><ele>339.0</ele><time>2026-05-01T08:49:11.801Z</time></trkpt><trkpt lat="45.37414" lon="7.7101767"><ele>339.0</ele><time>2026-05-01T08:49:12.801Z</time></trkpt><trkpt lat="45.3739933" lon="7.7101567"><ele>339.0</ele><time>2026-05-01T08:49:13.8Z</time></trkpt><trkpt lat="45.3738567" lon="7.7101317"><ele>339.0</ele><time>2026-05-01T08:49:14.801Z</time></trkpt><trkpt lat="45.373725" lon="7.7101033"><ele>339.0</ele><time>2026-05-01T08:49:15.801Z</time></trkpt><trkpt lat="45.373595" lon="7.71008"><ele>339.0</ele><time>2026-05-01T08:49:16.801Z</time></trkpt><trkpt lat="45.373475" lon="7.71006"><ele>339.0</ele><time>2026-05-01T08:49:17.801Z</time></trkpt><trkpt lat="45.373365" lon="7.7100517"><ele>339.0</ele><time>2026-05-01T08:49:18.801Z</time></trkpt><trkpt lat="45.3732633" lon="7.7100667"><ele>339.0</ele><time>2026-05-01T08:49:19.801Z</time></trkpt><trkpt lat="45.3731517" lon="7.7101017"><ele>339.0</ele><time>2026-05-01T08:49:20.801Z</time></trkpt><trkpt lat="45.37303" lon="7.7101467"><ele>339.0</ele><time>2026-05-01T08:49:21.801Z</time></trkpt><trkpt lat="45.372905" lon="7.7101833"><ele>339.0</ele><time>2026-05-01T08:49:22.801Z</time></trkpt><trkpt lat="45.3727817" lon="7.7101967"><ele>338.75</ele><time>2026-05-01T08:49:23.801Z</time></trkpt><trkpt lat="45.3726583" lon="7.7102117"><ele>338.5</ele><time>2026-05-01T08:49:24.801Z</time></trkpt><trkpt lat="45.3725367" lon="7.7101933"><ele>338.25</ele><time>2026-05-01T08:49:25.801Z</time></trkpt><trkpt lat="45.3724067" lon="7.7101733"><ele>338.0</ele><time>2026-05-01T08:49:26.8Z</time></trkpt><trkpt lat="45.3722833" lon="7.7101633"><ele>337.83333333333337</ele><time>2026-05-01T08:49:27.801Z</time></trkpt><trkpt lat="45.3721767" lon="7.7101617"><ele>337.6666666666667</ele><time>2026-05-01T08:49:28.801Z</time></trkpt><trkpt lat="45.3721" lon="7.71016"><ele>337.5</ele><time>2026-05-01T08:49:29.801Z</time></trkpt><trkpt lat="45.3720183" lon="7.710145"><ele>337.3333333333333</ele><time>2026-05-01T08:49:32.801Z</time></trkpt><trkpt lat="45.37193" lon="7.7101517"><ele>337.16666666666663</ele><time>2026-05-01T08:49:34.801Z</time></trkpt><trkpt lat="45.3718517" lon="7.7101633"><ele>337.0</ele><time>2026-05-01T08:49:35.801Z</time></trkpt><trkpt lat="45.3717667" lon="7.7101617"><ele>337.0</ele><time>2026-05-01T08:49:36.801Z</time></trkpt><trkpt lat="45.3716817" lon="7.710145"><ele>337.0</ele><time>2026-05-01T08:49:37.801Z</time></trkpt><trkpt lat="45.3716067" lon="7.7101267"><ele>337.0</ele><time>2026-05-01T08:49:38.801Z</time></trkpt><trkpt lat="45.3715367" lon="7.7101083"><ele>337.0</ele><time>2026-05-01T08:49:39.801Z</time></trkpt><trkpt lat="45.3714633" lon="7.7101017"><ele>337.0</ele><time>2026-05-01T08:49:40.801Z</time></trkpt><trkpt lat="45.371375" lon="7.7101283"><ele>337.0</ele><time>2026-05-01T08:49:41.801Z</time></trkpt><trkpt lat="45.3712733" lon="7.7101767"><ele>336.6</ele><time>2026-05-01T08:49:42.801Z</time></trkpt><trkpt lat="45.3711567" lon="7.710245"><ele>336.20000000000005</ele><time>2026-05-01T08:49:43.801Z</time></trkpt><trkpt lat="45.371055" lon="7.7103167"><ele>335.8</ele><time>2026-05-01T08:49:44.801Z</time></trkpt><trkpt lat="45.3709683" lon="7.71039"><ele>335.4</ele><time>2026-05-01T08:49:45.801Z</time></trkpt><trkpt lat="45.3708883" lon="7.71045"><ele>335.0</ele><time>2026-05-01T08:49:46.801Z</time></trkpt><trkpt lat="45.3708183" lon="7.7105383"><ele>335.0</ele><time>2026-05-01T08:49:47.801Z</time></trkpt><trkpt lat="45.370745" lon="7.7106283"><ele>335.0</ele><time>2026-05-01T08:49:48.801Z</time></trkpt><trkpt lat="45.3706833" lon="7.71074"><ele>335.0</ele><time>2026-05-01T08:49:49.801Z</time></trkpt><trkpt lat="45.3706117" lon="7.7108633"><ele>335.0</ele><time>2026-05-01T08:49:50.801Z</time></trkpt><trkpt lat="45.37054" lon="7.710985"><ele>335.0</ele><time>2026-05-01T08:49:51.801Z</time></trkpt><trkpt lat="45.3704683" lon="7.711095"><ele>334.5</ele><time>2026-05-01T08:49:52.8Z</time></trkpt><trkpt lat="45.3704017" lon="7.7112"><ele>334.0</ele><time>2026-05-01T08:49:53.801Z</time></trkpt><trkpt lat="45.37034" lon="7.711295"><ele>333.5</ele><time>2026-05-01T08:49:54.801Z</time></trkpt><trkpt lat="45.3702867" lon="7.7113767"><ele>333.0</ele><time>2026-05-01T08:49:55.801Z</time></trkpt><trkpt lat="45.370235" lon="7.7114417"><ele>332.5</ele><time>2026-05-01T08:49:56.801Z</time></trkpt><trkpt lat="45.3701417" lon="7.7114883"><ele>332.0</ele><time>2026-05-01T08:49:58.8Z</time></trkpt><trkpt lat="45.3700467" lon="7.7114317"><ele>332.0</ele><time>2026-05-01T08:50:00.801Z</time></trkpt><trkpt lat="45.3699767" lon="7.7113867"><ele>332.0</ele><time>2026-05-01T08:50:01.801Z</time></trkpt><trkpt lat="45.3698883" lon="7.7113383"><ele>332.0</ele><time>2026-05-01T08:50:02.801Z</time></trkpt><trkpt lat="45.3697883" lon="7.71128"><ele>332.0</ele><time>2026-05-01T08:50:03.801Z</time></trkpt><trkpt lat="45.3696733" lon="7.711215"><ele>332.0</ele><time>2026-05-01T08:50:04.801Z</time></trkpt><trkpt lat="45.369555" lon="7.7111583"><ele>331.40000000000003</ele><time>2026-05-01T08:50:05.8Z</time></trkpt><trkpt lat="45.36945" lon="7.7111"><ele>330.8</ele><time>2026-05-01T08:50:06.801Z</time></trkpt><trkpt lat="45.36935" lon="7.711075"><ele>330.2</ele><time>2026-05-01T08:50:07.801Z</time></trkpt><trkpt lat="45.3692617" lon="7.711055"><ele>329.6</ele><time>2026-05-01T08:50:08.801Z</time></trkpt><trkpt lat="45.36918" lon="7.71102"><ele>329.0</ele><time>2026-05-01T08:50:09.801Z</time></trkpt><trkpt lat="45.3691017" lon="7.7109717"><ele>329.0</ele><time>2026-05-01T08:50:10.801Z</time></trkpt><trkpt lat="45.36904" lon="7.710915"><ele>329.0</ele><time>2026-05-01T08:50:11.801Z</time></trkpt><trkpt lat="45.36899" lon="7.7108367"><ele>329.0</ele><time>2026-05-01T08:50:12.801Z</time></trkpt><trkpt lat="45.36894" lon="7.71074"><ele>329.0</ele><time>2026-05-01T08:50:13.801Z</time></trkpt><trkpt lat="45.3688883" lon="7.7106267"><ele>329.0</ele><time>2026-05-01T08:50:14.801Z</time></trkpt><trkpt lat="45.368835" lon="7.7105083"><ele>329.0</ele><time>2026-05-01T08:50:15.801Z</time></trkpt><trkpt lat="45.3687783" lon="7.7103783"><ele>328.4</ele><time>2026-05-01T08:50:16.801Z</time></trkpt><trkpt lat="45.368725" lon="7.7102633"><ele>327.79999999999995</ele><time>2026-05-01T08:50:17.801Z</time></trkpt><trkpt lat="45.3686817" lon="7.71016"><ele>327.20000000000005</ele><time>2026-05-01T08:50:18.801Z</time></trkpt><trkpt lat="45.3686383" lon="7.7100633"><ele>326.6</ele><time>2026-05-01T08:50:19.801Z</time></trkpt><trkpt lat="45.3685983" lon="7.70998"><ele>326.0</ele><time>2026-05-01T08:50:20.801Z</time></trkpt><trkpt lat="45.368505" lon="7.70988"><ele>326.0</ele><time>2026-05-01T08:50:22.801Z</time></trkpt><trkpt lat="45.3683933" lon="7.70983"><ele>326.0</ele><time>2026-05-01T08:50:24.801Z</time></trkpt><trkpt lat="45.3683283" lon="7.7097883"><ele>326.0</ele><time>2026-05-01T08:50:25.801Z</time></trkpt><trkpt lat="45.3682483" lon="7.7097483"><ele>326.0</ele><time>2026-05-01T08:50:26.801Z</time></trkpt><trkpt lat="45.3681683" lon="7.7097083"><ele>326.0</ele><time>2026-05-01T08:50:27.801Z</time></trkpt><trkpt lat="45.36809" lon="7.70966"><ele>326.0</ele><time>2026-05-01T08:50:28.801Z</time></trkpt><trkpt lat="45.3680283" lon="7.709615"><ele>326.0</ele><time>2026-05-01T08:50:29.801Z</time></trkpt><trkpt lat="45.3679667" lon="7.7095867"><ele>326.0</ele><time>2026-05-01T08:50:30.801Z</time></trkpt><trkpt lat="45.367885" lon="7.7095667"><ele>326.0</ele><time>2026-05-01T08:50:32.801Z</time></trkpt><trkpt lat="45.367825" lon="7.7097083"><ele>326.0</ele><time>2026-05-01T08:50:35.801Z</time></trkpt><trkpt lat="45.3678017" lon="7.7098233"><ele>326.0</ele><time>2026-05-01T08:50:36.801Z</time></trkpt><trkpt lat="45.3677833" lon="7.70996"><ele>326.0</ele><time>2026-05-01T08:50:37.801Z</time></trkpt><trkpt lat="45.367745" lon="7.7100867"><ele>326.0</ele><time>2026-05-01T08:50:38.801Z</time></trkpt><trkpt lat="45.3677117" lon="7.7101917"><ele>326.0</ele><time>2026-05-01T08:50:39.801Z</time></trkpt><trkpt lat="45.3676733" lon="7.7102933"><ele>326.0</ele><time>2026-05-01T08:50:40.801Z</time></trkpt><trkpt lat="45.36761" lon="7.71044"><ele>326.0</ele><time>2026-05-01T08:50:42.801Z</time></trkpt><trkpt lat="45.3675617" lon="7.710515"><ele>326.0</ele><time>2026-05-01T08:50:43.801Z</time></trkpt><trkpt lat="45.3674983" lon="7.7105933"><ele>326.0</ele><time>2026-05-01T08:50:44.801Z</time></trkpt><trkpt lat="45.3674283" lon="7.71067"><ele>326.1666666666667</ele><time>2026-05-01T08:50:45.801Z</time></trkpt><trkpt lat="45.36736" lon="7.710745"><ele>326.33333333333337</ele><time>2026-05-01T08:50:46.801Z</time></trkpt><trkpt lat="45.3672933" lon="7.7108117"><ele>326.5</ele><time>2026-05-01T08:50:47.801Z</time></trkpt><trkpt lat="45.3672183" lon="7.71087"><ele>326.6666666666667</ele><time>2026-05-01T08:50:48.801Z</time></trkpt><trkpt lat="45.3671317" lon="7.7109167"><ele>326.8333333333333</ele><time>2026-05-01T08:50:49.801Z</time></trkpt><trkpt lat="45.36705" lon="7.7109683"><ele>327.0</ele><time>2026-05-01T08:50:50.801Z</time></trkpt><trkpt lat="45.3669583" lon="7.7110117"><ele>326.5</ele><time>2026-05-01T08:50:51.801Z</time></trkpt><trkpt lat="45.3668717" lon="7.7110633"><ele>326.0</ele><time>2026-05-01T08:50:52.801Z</time></trkpt><trkpt lat="45.3667917" lon="7.711115"><ele>325.5</ele><time>2026-05-01T08:50:53.801Z</time></trkpt><trkpt lat="45.366715" lon="7.71116"><ele>325.0</ele><time>2026-05-01T08:50:54.801Z</time></trkpt><trkpt lat="45.3666383" lon="7.7112083"><ele>324.5</ele><time>2026-05-01T08:50:55.801Z</time></trkpt><trkpt lat="45.36657" lon="7.7112517"><ele>324.0</ele><time>2026-05-01T08:50:56.801Z</time></trkpt><trkpt lat="45.3665" lon="7.7112833"><ele>324.14285714285717</ele><time>2026-05-01T08:50:57.801Z</time></trkpt><trkpt lat="45.3664383" lon="7.7113167"><ele>324.2857142857143</ele><time>2026-05-01T08:50:58.801Z</time></trkpt><trkpt lat="45.3663683" lon="7.7113583"><ele>324.42857142857144</ele><time>2026-05-01T08:50:59.801Z</time></trkpt><trkpt lat="45.366305" lon="7.711405"><ele>324.57142857142856</ele><time>2026-05-01T08:51:00.801Z</time></trkpt><trkpt lat="45.366225" lon="7.7114433"><ele>324.7142857142857</ele><time>2026-05-01T08:51:01.8Z</time></trkpt><trkpt lat="45.3661583" lon="7.7114883"><ele>324.85714285714283</ele><time>2026-05-01T08:51:02.801Z</time></trkpt><trkpt lat="45.366095" lon="7.7115217"><ele>325.0</ele><time>2026-05-01T08:51:03.801Z</time></trkpt><trkpt lat="45.3660367" lon="7.7115567"><ele>325.0</ele><time>2026-05-01T08:51:04.801Z</time></trkpt><trkpt lat="45.3659517" lon="7.7115917"><ele>325.0</ele><time>2026-05-01T08:51:06.801Z</time></trkpt><trkpt lat="45.3658683" lon="7.71156"><ele>325.0</ele><time>2026-05-01T08:51:09.801Z</time></trkpt><trkpt lat="45.365795" lon="7.711485"><ele>325.0</ele><time>2026-05-01T08:51:11.801Z</time></trkpt><trkpt lat="45.3657333" lon="7.7114333"><ele>325.0</ele><time>2026-05-01T08:51:12.801Z</time></trkpt><trkpt lat="45.3656667" lon="7.7113967"><ele>325.0</ele><time>2026-05-01T08:51:13.8Z</time></trkpt><trkpt lat="45.3655917" lon="7.71137"><ele>325.16666666666663</ele><time>2026-05-01T08:51:14.801Z</time></trkpt><trkpt lat="45.36551" lon="7.7113467"><ele>325.3333333333333</ele><time>2026-05-01T08:51:15.801Z</time></trkpt><trkpt lat="45.3654267" lon="7.71132"><ele>325.5</ele><time>2026-05-01T08:51:16.801Z</time></trkpt><trkpt lat="45.3653467" lon="7.7113133"><ele>325.6666666666667</ele><time>2026-05-01T08:51:17.8Z</time></trkpt><trkpt lat="45.3652767" lon="7.7113083"><ele>325.83333333333337</ele><time>2026-05-01T08:51:18.801Z</time></trkpt><trkpt lat="45.365165" lon="7.7113483"><ele>326.0</ele><time>2026-05-01T08:51:20.801Z</time></trkpt><trkpt lat="45.36509" lon="7.7113833"><ele>326.0</ele><time>2026-05-01T08:51:22.801Z</time></trkpt><trkpt lat="45.3650183" lon="7.7113717"><ele>326.0</ele><time>2026-05-01T08:51:24.801Z</time></trkpt><trkpt lat="45.3649433" lon="7.7113417"><ele>326.0</ele><time>2026-05-01T08:51:26.801Z</time></trkpt><trkpt lat="45.3648667" lon="7.7113633"><ele>326.0</ele><time>2026-05-01T08:51:28.801Z</time></trkpt><trkpt lat="45.3647617" lon="7.7114583"><ele>326.0</ele><time>2026-05-01T08:51:30.801Z</time></trkpt><trkpt lat="45.3647" lon="7.7115167"><ele>326.0</ele><time>2026-05-01T08:51:31.801Z</time></trkpt><trkpt lat="45.3646367" lon="7.7115783"><ele>325.33333333333337</ele><time>2026-05-01T08:51:32.801Z</time></trkpt><trkpt lat="45.36457" lon="7.7116283"><ele>324.6666666666667</ele><time>2026-05-01T08:51:33.801Z</time></trkpt><trkpt lat="45.3645017" lon="7.711685"><ele>324.0</ele><time>2026-05-01T08:51:34.801Z</time></trkpt><trkpt lat="45.364445" lon="7.7117267"><ele>323.3333333333333</ele><time>2026-05-01T08:51:35.801Z</time></trkpt><trkpt lat="45.364385" lon="7.71181"><ele>322.66666666666663</ele><time>2026-05-01T08:51:37.801Z</time></trkpt><trkpt lat="45.36441" lon="7.711945"><ele>322.0</ele><time>2026-05-01T08:51:39.801Z</time></trkpt><trkpt lat="45.3644433" lon="7.71204"><ele>322.0</ele><time>2026-05-01T08:51:40.801Z</time></trkpt><trkpt lat="45.364475" lon="7.71213"><ele>322.0</ele><time>2026-05-01T08:51:41.801Z</time></trkpt><trkpt lat="45.3644983" lon="7.7122217"><ele>322.0</ele><time>2026-05-01T08:51:42.801Z</time></trkpt><trkpt lat="45.3645167" lon="7.712325"><ele>322.0</ele><time>2026-05-01T08:51:43.801Z</time></trkpt><trkpt lat="45.36452" lon="7.7124467"><ele>322.0</ele><time>2026-05-01T08:51:44.801Z</time></trkpt><trkpt lat="45.3645167" lon="7.7125833"><ele>322.0</ele><time>2026-05-01T08:51:45.801Z</time></trkpt><trkpt lat="45.3645017" lon="7.7127117"><ele>321.66666666666663</ele><time>2026-05-01T08:51:46.801Z</time></trkpt><trkpt lat="45.36447" lon="7.71285"><ele>321.3333333333333</ele><time>2026-05-01T08:51:47.801Z</time></trkpt><trkpt lat="45.3644417" lon="7.712975"><ele>321.0</ele><time>2026-05-01T08:51:48.801Z</time></trkpt><trkpt lat="45.3644" lon="7.7131067"><ele>320.6666666666667</ele><time>2026-05-01T08:51:49.801Z</time></trkpt><trkpt lat="45.364375" lon="7.71321"><ele>320.33333333333337</ele><time>2026-05-01T08:51:50.801Z</time></trkpt><trkpt lat="45.3643483" lon="7.7132917"><ele>320.0</ele><time>2026-05-01T08:51:51.801Z</time></trkpt><trkpt lat="45.364305" lon="7.71337"><ele>320.0</ele><time>2026-05-01T08:51:52.801Z</time></trkpt><trkpt lat="45.3641967" lon="7.71351"><ele>320.0</ele><time>2026-05-01T08:51:54.801Z</time></trkpt><trkpt lat="45.3641367" lon="7.7135967"><ele>320.0</ele><time>2026-05-01T08:51:55.801Z</time></trkpt><trkpt lat="45.3640717" lon="7.713695"><ele>320.0</ele><time>2026-05-01T08:51:56.801Z</time></trkpt><trkpt lat="45.364015" lon="7.7138"><ele>320.0</ele><time>2026-05-01T08:51:57.801Z</time></trkpt><trkpt lat="45.3639667" lon="7.71391"><ele>320.0</ele><time>2026-05-01T08:51:58.8Z</time></trkpt><trkpt lat="45.3639233" lon="7.7140133"><ele>320.0</ele><time>2026-05-01T08:51:59.801Z</time></trkpt><trkpt lat="45.3638833" lon="7.71412"><ele>320.0</ele><time>2026-05-01T08:52:00.801Z</time></trkpt><trkpt lat="45.363825" lon="7.7142217"><ele>320.0</ele><time>2026-05-01T08:52:01.801Z</time></trkpt><trkpt lat="45.3637633" lon="7.7143117"><ele>320.0</ele><time>2026-05-01T08:52:02.801Z</time></trkpt><trkpt lat="45.3637067" lon="7.7143967"><ele>320.0</ele><time>2026-05-01T08:52:03.801Z</time></trkpt><trkpt lat="45.36366" lon="7.7144783"><ele>320.8</ele><time>2026-05-01T08:52:04.801Z</time></trkpt><trkpt lat="45.3636067" lon="7.7145467"><ele>321.6</ele><time>2026-05-01T08:52:05.801Z</time></trkpt><trkpt lat="45.3635617" lon="7.71464"><ele>322.4</ele><time>2026-05-01T08:52:07.801Z</time></trkpt><trkpt lat="45.3635833" lon="7.7147267"><ele>323.2</ele><time>2026-05-01T08:52:09.801Z</time></trkpt><trkpt lat="45.3636683" lon="7.714885"><ele>324.0</ele><time>2026-05-01T08:52:11.801Z</time></trkpt><trkpt lat="45.36375" lon="7.7149833"><ele>324.0</ele><time>2026-05-01T08:52:12.801Z</time></trkpt><trkpt lat="45.3638467" lon="7.7151067"><ele>324.0</ele><time>2026-05-01T08:52:13.801Z</time></trkpt><trkpt lat="45.3639533" lon="7.7152433"><ele>324.0</ele><time>2026-05-01T08:52:14.801Z</time></trkpt><trkpt lat="45.364075" lon="7.7153767"><ele>324.0</ele><time>2026-05-01T08:52:15.801Z</time></trkpt><trkpt lat="45.3641983" lon="7.7154933"><ele>322.75</ele><time>2026-05-01T08:52:16.801Z</time></trkpt><trkpt lat="45.3643033" lon="7.7156117"><ele>321.5</ele><time>2026-05-01T08:52:17.801Z</time></trkpt><trkpt lat="45.364405" lon="7.7157317"><ele>320.25</ele><time>2026-05-01T08:52:18.801Z</time></trkpt><trkpt lat="45.3645017" lon="7.7158617"><ele>319.0</ele><time>2026-05-01T08:52:19.801Z</time></trkpt><trkpt lat="45.3646017" lon="7.7159983"><ele>319.5</ele><time>2026-05-01T08:52:20.801Z</time></trkpt><trkpt lat="45.3647083" lon="7.716125"><ele>320.0</ele><time>2026-05-01T08:52:21.801Z</time></trkpt><trkpt lat="45.36482" lon="7.7162617"><ele>320.5</ele><time>2026-05-01T08:52:22.801Z</time></trkpt><trkpt lat="45.3649367" lon="7.7163967"><ele>321.0</ele><time>2026-05-01T08:52:23.8Z</time></trkpt><trkpt lat="45.3650367" lon="7.7165233"><ele>321.0</ele><time>2026-05-01T08:52:24.801Z</time></trkpt><trkpt lat="45.365125" lon="7.7166483"><ele>321.0</ele><time>2026-05-01T08:52:25.801Z</time></trkpt><trkpt lat="45.3652217" lon="7.7167767"><ele>321.0</ele><time>2026-05-01T08:52:26.801Z</time></trkpt><trkpt lat="45.3653067" lon="7.7168983"><ele>321.0</ele><time>2026-05-01T08:52:27.801Z</time></trkpt><trkpt lat="45.3653833" lon="7.7170033"><ele>321.20000000000005</ele><time>2026-05-01T08:52:28.801Z</time></trkpt><trkpt lat="45.3654433" lon="7.7171033"><ele>321.40000000000003</ele><time>2026-05-01T08:52:29.801Z</time></trkpt><trkpt lat="45.3654917" lon="7.7171883"><ele>321.6</ele><time>2026-05-01T08:52:30.801Z</time></trkpt><trkpt lat="45.36554" lon="7.717295"><ele>321.8</ele><time>2026-05-01T08:52:32.801Z</time></trkpt><trkpt lat="45.3654533" lon="7.71742"><ele>322.0</ele><time>2026-05-01T08:52:36.801Z</time></trkpt><trkpt lat="45.36537" lon="7.71749"><ele>322.25</ele><time>2026-05-01T08:52:37.801Z</time></trkpt><trkpt lat="45.3652733" lon="7.71758"><ele>322.5</ele><time>2026-05-01T08:52:38.801Z</time></trkpt><trkpt lat="45.36517" lon="7.7176883"><ele>322.75</ele><time>2026-05-01T08:52:39.801Z</time></trkpt><trkpt lat="45.3650783" lon="7.7177917"><ele>323.0</ele><time>2026-05-01T08:52:40.801Z</time></trkpt><trkpt lat="45.3649983" lon="7.7178867"><ele>322.6666666666667</ele><time>2026-05-01T08:52:41.801Z</time></trkpt><trkpt lat="45.3649367" lon="7.7179633"><ele>322.33333333333337</ele><time>2026-05-01T08:52:42.801Z</time></trkpt><trkpt lat="45.3648833" lon="7.7180433"><ele>322.0</ele><time>2026-05-01T08:52:44.801Z</time></trkpt><trkpt lat="45.364825" lon="7.718155"><ele>321.6666666666667</ele><time>2026-05-01T08:52:57.801Z</time></trkpt><trkpt lat="45.36487" lon="7.7180583"><ele>321.3333333333333</ele><time>2026-05-01T08:53:06.801Z</time></trkpt><trkpt lat="45.3649183" lon="7.7179783"><ele>321.0</ele><time>2026-05-01T08:53:07.801Z</time></trkpt><trkpt lat="45.3649867" lon="7.7178783"><ele>321.0</ele><time>2026-05-01T08:53:08.801Z</time></trkpt><trkpt lat="45.36507" lon="7.7177617"><ele>321.0</ele><time>2026-05-01T08:53:09.801Z</time></trkpt><trkpt lat="45.3652017" lon="7.7176267"><ele>321.0</ele><time>2026-05-01T08:53:10.801Z</time></trkpt><trkpt lat="45.3653233" lon="7.7175217"><ele>321.0</ele><time>2026-05-01T08:53:11.8Z</time></trkpt><trkpt lat="45.3654167" lon="7.7174367"><ele>321.1666666666667</ele><time>2026-05-01T08:53:12.801Z</time></trkpt><trkpt lat="45.3654867" lon="7.7173783"><ele>321.3333333333333</ele><time>2026-05-01T08:53:13.801Z</time></trkpt><trkpt lat="45.3655733" lon="7.7173067"><ele>321.5</ele><time>2026-05-01T08:53:15.801Z</time></trkpt><trkpt lat="45.3655083" lon="7.7173483"><ele>321.66666666666663</ele><time>2026-05-01T08:53:24.801Z</time></trkpt><trkpt lat="45.3654417" lon="7.7173917"><ele>321.8333333333333</ele><time>2026-05-01T08:55:33.801Z</time></trkpt><trkpt lat="45.365355" lon="7.7174867"><ele>322.0</ele><time>2026-05-01T08:55:35.801Z</time></trkpt><trkpt lat="45.365285" lon="7.71755"><ele>322.20000000000005</ele><time>2026-05-01T08:55:36.801Z</time></trkpt><trkpt lat="45.3652133" lon="7.71763"><ele>322.4</ele><time>2026-05-01T08:55:37.801Z</time></trkpt><trkpt lat="45.3651367" lon="7.71772"><ele>322.6</ele><time>2026-05-01T08:55:38.801Z</time></trkpt><trkpt lat="45.365055" lon="7.717815"><ele>322.79999999999995</ele><time>2026-05-01T08:55:39.801Z</time></trkpt><trkpt lat="45.3649767" lon="7.7179167"><ele>323.0</ele><time>2026-05-01T08:55:40.801Z</time></trkpt><trkpt lat="45.3649017" lon="7.7180217"><ele>322.5</ele><time>2026-05-01T08:55:41.801Z</time></trkpt><trkpt lat="45.364825" lon="7.7181383"><ele>322.0</ele><time>2026-05-01T08:55:42.801Z</time></trkpt><trkpt lat="45.3647367" lon="7.7182583"><ele>321.5</ele><time>2026-05-01T08:55:43.801Z</time></trkpt><trkpt lat="45.3646633" lon="7.7183767"><ele>321.0</ele><time>2026-05-01T08:55:44.8Z</time></trkpt><trkpt lat="45.3645933" lon="7.7184883"><ele>320.25</ele><time>2026-05-01T08:55:45.8Z</time></trkpt><trkpt lat="45.3645083" lon="7.7186067"><ele>319.5</ele><time>2026-05-01T08:55:46.801Z</time></trkpt><trkpt lat="45.3644233" lon="7.71872"><ele>318.75</ele><time>2026-05-01T08:55:47.801Z</time></trkpt><trkpt lat="45.3643317" lon="7.7188417"><ele>318.0</ele><time>2026-05-01T08:55:48.801Z</time></trkpt><trkpt lat="45.3642317" lon="7.7189567"><ele>318.0</ele><time>2026-05-01T08:55:49.8Z</time></trkpt><trkpt lat="45.3641333" lon="7.7190817"><ele>318.0</ele><time>2026-05-01T08:55:50.801Z</time></trkpt><trkpt lat="45.3640267" lon="7.7192183"><ele>318.0</ele><time>2026-05-01T08:55:51.801Z</time></trkpt><trkpt lat="45.36393" lon="7.7193517"><ele>318.0</ele><time>2026-05-01T08:55:52.801Z</time></trkpt><trkpt lat="45.3638317" lon="7.7194867"><ele>318.0</ele><time>2026-05-01T08:55:53.801Z</time></trkpt><trkpt lat="45.363725" lon="7.7195933"><ele>318.0</ele><time>2026-05-01T08:55:54.801Z</time></trkpt><trkpt lat="45.363615" lon="7.7196883"><ele>318.0</ele><time>2026-05-01T08:55:55.801Z</time></trkpt><trkpt lat="45.3634867" lon="7.71978"><ele>318.0</ele><time>2026-05-01T08:55:56.801Z</time></trkpt><trkpt lat="45.363365" lon="7.7198733"><ele>318.0</ele><time>2026-05-01T08:55:57.801Z</time></trkpt><trkpt lat="45.3632417" lon="7.7199517"><ele>318.0</ele><time>2026-05-01T08:55:58.801Z</time></trkpt><trkpt lat="45.3631367" lon="7.7200033"><ele>318.0</ele><time>2026-05-01T08:55:59.801Z</time></trkpt><trkpt lat="45.3630383" lon="7.720045"><ele>318.0</ele><time>2026-05-01T08:56:00.801Z</time></trkpt><trkpt lat="45.3629417" lon="7.72008"><ele>318.0</ele><time>2026-05-01T08:56:01.801Z</time></trkpt><trkpt lat="45.3628583" lon="7.72012"><ele>317.8</ele><time>2026-05-01T08:56:02.801Z</time></trkpt><trkpt lat="45.362795" lon="7.7201517"><ele>317.6</ele><time>2026-05-01T08:56:03.801Z</time></trkpt><trkpt lat="45.3627083" lon="7.720205"><ele>317.4</ele><time>2026-05-01T08:56:05.801Z</time></trkpt><trkpt lat="45.362615" lon="7.7202583"><ele>317.2</ele><time>2026-05-01T08:56:20.801Z</time></trkpt><trkpt lat="45.3625317" lon="7.7203267"><ele>317.0</ele><time>2026-05-01T08:56:22.801Z</time></trkpt><trkpt lat="45.3624567" lon="7.7204067"><ele>316.8</ele><time>2026-05-01T08:56:24.801Z</time></trkpt><trkpt lat="45.36237" lon="7.7205017"><ele>316.6</ele><time>2026-05-01T08:56:26.801Z</time></trkpt><trkpt lat="45.3622633" lon="7.7205983"><ele>316.40000000000003</ele><time>2026-05-01T08:56:28.801Z</time></trkpt><trkpt lat="45.362195" lon="7.7206483"><ele>316.2</ele><time>2026-05-01T08:56:29.801Z</time></trkpt><trkpt lat="45.36212" lon="7.7206933"><ele>316.0</ele><time>2026-05-01T08:56:30.801Z</time></trkpt><trkpt lat="45.3620317" lon="7.72074"><ele>315.8</ele><time>2026-05-01T08:56:31.801Z</time></trkpt><trkpt lat="45.3619417" lon="7.720785"><ele>315.6</ele><time>2026-05-01T08:56:32.801Z</time></trkpt><trkpt lat="45.3618517" lon="7.7208283"><ele>315.4</ele><time>2026-05-01T08:56:33.801Z</time></trkpt><trkpt lat="45.3617567" lon="7.720875"><ele>315.2</ele><time>2026-05-01T08:56:34.801Z</time></trkpt><trkpt lat="45.36166" lon="7.720935"><ele>315.0</ele><time>2026-05-01T08:56:35.801Z</time></trkpt><trkpt lat="45.361565" lon="7.7209917"><ele>315.0</ele><time>2026-05-01T08:56:36.801Z</time></trkpt><trkpt lat="45.36147" lon="7.7210517"><ele>315.0</ele><time>2026-05-01T08:56:37.801Z</time></trkpt><trkpt lat="45.3613783" lon="7.72112"><ele>315.0</ele><time>2026-05-01T08:56:38.801Z</time></trkpt><trkpt lat="45.3612883" lon="7.7211883"><ele>315.0</ele><time>2026-05-01T08:56:39.801Z</time></trkpt><trkpt lat="45.3611933" lon="7.7212633"><ele>315.0</ele><time>2026-05-01T08:56:40.801Z</time></trkpt><trkpt lat="45.3610917" lon="7.7213367"><ele>314.8</ele><time>2026-05-01T08:56:41.801Z</time></trkpt><trkpt lat="45.360985" lon="7.721405"><ele>314.6</ele><time>2026-05-01T08:56:42.801Z</time></trkpt><trkpt lat="45.36088" lon="7.7214717"><ele>314.4</ele><time>2026-05-01T08:56:43.801Z</time></trkpt><trkpt lat="45.36078" lon="7.72152"><ele>314.2</ele><time>2026-05-01T08:56:44.801Z</time></trkpt><trkpt lat="45.3606883" lon="7.721565"><ele>314.0</ele><time>2026-05-01T08:56:45.801Z</time></trkpt><trkpt lat="45.3605967" lon="7.721605"><ele>314.0</ele><time>2026-05-01T08:56:46.801Z</time></trkpt><trkpt lat="45.3605117" lon="7.7216383"><ele>314.0</ele><time>2026-05-01T08:56:47.801Z</time></trkpt><trkpt lat="45.36043" lon="7.7216767"><ele>314.0</ele><time>2026-05-01T08:56:48.801Z</time></trkpt><trkpt lat="45.360345" lon="7.7217317"><ele>314.0</ele><time>2026-05-01T08:56:49.801Z</time></trkpt><trkpt lat="45.3602633" lon="7.7217967"><ele>314.0</ele><time>2026-05-01T08:56:50.801Z</time></trkpt><trkpt lat="45.3601917" lon="7.72187"><ele>314.0</ele><time>2026-05-01T08:56:51.801Z</time></trkpt><trkpt lat="45.36011" lon="7.7219467"><ele>314.0</ele><time>2026-05-01T08:56:52.801Z</time></trkpt><trkpt lat="45.36004" lon="7.7220233"><ele>314.0</ele><time>2026-05-01T08:56:53.8Z</time></trkpt><trkpt lat="45.3599717" lon="7.722105"><ele>314.0</ele><time>2026-05-01T08:56:54.801Z</time></trkpt><trkpt lat="45.3599083" lon="7.7221833"><ele>314.0</ele><time>2026-05-01T08:56:55.801Z</time></trkpt><trkpt lat="45.35985" lon="7.7222467"><ele>314.0</ele><time>2026-05-01T08:56:56.801Z</time></trkpt><trkpt lat="45.3597567" lon="7.7223467"><ele>313.59999999999997</ele><time>2026-05-01T08:56:58.801Z</time></trkpt><trkpt lat="45.3596817" lon="7.72231"><ele>313.2</ele><time>2026-05-01T08:57:00.801Z</time></trkpt><trkpt lat="45.3595717" lon="7.72219"><ele>312.79999999999995</ele><time>2026-05-01T08:57:02.801Z</time></trkpt><trkpt lat="45.3595067" lon="7.722115"><ele>312.4</ele><time>2026-05-01T08:57:03.801Z</time></trkpt><trkpt lat="45.3594317" lon="7.7220317"><ele>312.0</ele><time>2026-05-01T08:57:04.801Z</time></trkpt><trkpt lat="45.3593417" lon="7.7219483"><ele>312.0</ele><time>2026-05-01T08:57:05.801Z</time></trkpt><trkpt lat="45.3592433" lon="7.72188"><ele>312.0</ele><time>2026-05-01T08:57:06.801Z</time></trkpt><trkpt lat="45.3591367" lon="7.72184"><ele>312.0</ele><time>2026-05-01T08:57:07.801Z</time></trkpt><trkpt lat="45.359035" lon="7.7218333"><ele>312.0</ele><time>2026-05-01T08:57:08.801Z</time></trkpt><trkpt lat="45.35892" lon="7.7218533"><ele>312.0</ele><time>2026-05-01T08:57:09.801Z</time></trkpt><trkpt lat="45.3587917" lon="7.7218817"><ele>312.0</ele><time>2026-05-01T08:57:10.801Z</time></trkpt><trkpt lat="45.3586683" lon="7.7219183"><ele>312.0</ele><time>2026-05-01T08:57:11.801Z</time></trkpt><trkpt lat="45.3585483" lon="7.721925"><ele>312.0</ele><time>2026-05-01T08:57:12.801Z</time></trkpt><trkpt lat="45.3584367" lon="7.7219017"><ele>312.0</ele><time>2026-05-01T08:57:13.8Z</time></trkpt><trkpt lat="45.358335" lon="7.7218567"><ele>311.75</ele><time>2026-05-01T08:57:14.801Z</time></trkpt><trkpt lat="45.3582233" lon="7.72179"><ele>311.5</ele><time>2026-05-01T08:57:15.801Z</time></trkpt><trkpt lat="45.3581167" lon="7.7217083"><ele>311.25</ele><time>2026-05-01T08:57:16.801Z</time></trkpt><trkpt lat="45.3579917" lon="7.72162"><ele>311.0</ele><time>2026-05-01T08:57:17.801Z</time></trkpt><trkpt lat="45.3578783" lon="7.72152"><ele>311.0</ele><time>2026-05-01T08:57:18.801Z</time></trkpt><trkpt lat="45.357785" lon="7.7214117"><ele>311.0</ele><time>2026-05-01T08:57:19.801Z</time></trkpt><trkpt lat="45.3576967" lon="7.7212967"><ele>311.0</ele><time>2026-05-01T08:57:20.801Z</time></trkpt><trkpt lat="45.3576217" lon="7.721185"><ele>311.0</ele><time>2026-05-01T08:57:21.801Z</time></trkpt><trkpt lat="45.3575517" lon="7.7211067"><ele>311.0</ele><time>2026-05-01T08:57:22.801Z</time></trkpt><trkpt lat="45.3574833" lon="7.72106"><ele>311.0</ele><time>2026-05-01T08:57:23.801Z</time></trkpt><trkpt lat="45.357415" lon="7.7210467"><ele>311.0</ele><time>2026-05-01T08:57:24.801Z</time></trkpt><trkpt lat="45.35735" lon="7.721065"><ele>311.0</ele><time>2026-05-01T08:57:25.801Z</time></trkpt><trkpt lat="45.3572983" lon="7.7211183"><ele>311.0</ele><time>2026-05-01T08:57:26.801Z</time></trkpt><trkpt lat="45.3572283" lon="7.72119"><ele>311.0</ele><time>2026-05-01T08:57:27.801Z</time></trkpt><trkpt lat="45.3571583" lon="7.7212583"><ele>311.0</ele><time>2026-05-01T08:57:28.801Z</time></trkpt><trkpt lat="45.3570917" lon="7.7213133"><ele>311.0</ele><time>2026-05-01T08:57:29.801Z</time></trkpt><trkpt lat="45.3570183" lon="7.7213683"><ele>311.0</ele><time>2026-05-01T08:57:30.801Z</time></trkpt><trkpt lat="45.356945" lon="7.7214217"><ele>311.0</ele><time>2026-05-01T08:57:31.8Z</time></trkpt><trkpt lat="45.356875" lon="7.7214617"><ele>311.0</ele><time>2026-05-01T08:57:32.8Z</time></trkpt><trkpt lat="45.3568133" lon="7.721495"><ele>311.0</ele><time>2026-05-01T08:57:33.801Z</time></trkpt><trkpt lat="45.3567133" lon="7.7215517"><ele>311.0</ele><time>2026-05-01T08:57:35.801Z</time></trkpt><trkpt lat="45.3566533" lon="7.7215833"><ele>311.0</ele><time>2026-05-01T08:57:36.801Z</time></trkpt><trkpt lat="45.35659" lon="7.7216083"><ele>311.0</ele><time>2026-05-01T08:57:37.8Z</time></trkpt><trkpt lat="45.3565183" lon="7.7216417"><ele>311.0</ele><time>2026-05-01T08:57:38.801Z</time></trkpt><trkpt lat="45.3564467" lon="7.7216767"><ele>311.0</ele><time>2026-05-01T08:57:39.801Z</time></trkpt><trkpt lat="45.3563683" lon="7.7217133"><ele>311.0</ele><time>2026-05-01T08:57:40.801Z</time></trkpt><trkpt lat="45.3562933" lon="7.7217517"><ele>311.0</ele><time>2026-05-01T08:57:41.801Z</time></trkpt><trkpt lat="45.3562233" lon="7.72179"><ele>311.0</ele><time>2026-05-01T08:57:42.801Z</time></trkpt><trkpt lat="45.3561183" lon="7.72183"><ele>310.83333333333337</ele><time>2026-05-01T08:57:44.801Z</time></trkpt><trkpt lat="45.3560467" lon="7.72182"><ele>310.6666666666667</ele><time>2026-05-01T08:57:46.801Z</time></trkpt><trkpt lat="45.356005" lon="7.7217433"><ele>310.5</ele><time>2026-05-01T08:57:48.801Z</time></trkpt><trkpt lat="45.3559333" lon="7.7216033"><ele>310.3333333333333</ele><time>2026-05-01T08:57:50.801Z</time></trkpt><trkpt lat="45.3558917" lon="7.7215167"><ele>310.16666666666663</ele><time>2026-05-01T08:57:51.801Z</time></trkpt><trkpt lat="45.355845" lon="7.721425"><ele>310.0</ele><time>2026-05-01T08:57:52.801Z</time></trkpt><trkpt lat="45.355795" lon="7.7213333"><ele>310.0</ele><time>2026-05-01T08:57:53.801Z</time></trkpt><trkpt lat="45.3557483" lon="7.72125"><ele>310.0</ele><time>2026-05-01T08:57:54.801Z</time></trkpt><trkpt lat="45.355675" lon="7.72112"><ele>310.0</ele><time>2026-05-01T08:57:56.801Z</time></trkpt><trkpt lat="45.35559" lon="7.721005"><ele>310.0</ele><time>2026-05-01T08:57:58.801Z</time></trkpt><trkpt lat="45.35552" lon="7.7209167"><ele>310.0</ele><time>2026-05-01T08:58:00.801Z</time></trkpt><trkpt lat="45.3554667" lon="7.7208267"><ele>310.6</ele><time>2026-05-01T08:58:02.801Z</time></trkpt><trkpt lat="45.3554283" lon="7.72075"><ele>311.2</ele><time>2026-05-01T08:58:04.801Z</time></trkpt><trkpt lat="45.355455" lon="7.7206167"><ele>311.8</ele><time>2026-05-01T08:58:07.801Z</time></trkpt><trkpt lat="45.35552" lon="7.720465"><ele>312.4</ele><time>2026-05-01T08:58:09.801Z</time></trkpt><trkpt lat="45.355555" lon="7.7203833"><ele>313.0</ele><time>2026-05-01T08:58:10.801Z</time></trkpt><trkpt lat="45.355615" lon="7.7202467"><ele>312.6</ele><time>2026-05-01T08:58:12.801Z</time></trkpt><trkpt lat="45.3556583" lon="7.7201117"><ele>312.20000000000005</ele><time>2026-05-01T08:58:14.801Z</time></trkpt><trkpt lat="45.3556867" lon="7.719985"><ele>311.8</ele><time>2026-05-01T08:58:16.801Z</time></trkpt><trkpt lat="45.3557033" lon="7.7198567"><ele>311.40000000000003</ele><time>2026-05-01T08:58:18.8Z</time></trkpt><trkpt lat="45.3557333" lon="7.7197333"><ele>311.0</ele><time>2026-05-01T08:58:20.801Z</time></trkpt><trkpt lat="45.3557667" lon="7.71964"><ele>311.0</ele><time>2026-05-01T08:58:22.801Z</time></trkpt><trkpt lat="45.3557867" lon="7.7195183"><ele>311.0</ele><time>2026-05-01T08:58:25.801Z</time></trkpt><trkpt lat="45.3557767" lon="7.71942"><ele>311.0</ele><time>2026-05-01T08:58:27.801Z</time></trkpt><trkpt lat="45.3557533" lon="7.7192317"><ele>311.0</ele><time>2026-05-01T08:58:36.801Z</time></trkpt><trkpt lat="45.35578" lon="7.7191133"><ele>311.0</ele><time>2026-05-01T08:58:38.801Z</time></trkpt><trkpt lat="45.355805" lon="7.71903"><ele>311.0</ele><time>2026-05-01T08:58:39.801Z</time></trkpt><trkpt lat="45.355835" lon="7.71894"><ele>311.0</ele><time>2026-05-01T08:58:40.8Z</time></trkpt><trkpt lat="45.35588" lon="7.718835"><ele>311.0</ele><time>2026-05-01T08:58:41.801Z</time></trkpt><trkpt lat="45.3559183" lon="7.718745"><ele>311.0</ele><time>2026-05-01T08:58:42.801Z</time></trkpt><trkpt lat="45.355995" lon="7.71862"><ele>311.0</ele><time>2026-05-01T08:58:44.801Z</time></trkpt><trkpt lat="45.3560667" lon="7.7184967"><ele>311.0</ele><time>2026-05-01T08:58:46.8Z</time></trkpt><trkpt lat="45.3561083" lon="7.7184117"><ele>311.0</ele><time>2026-05-01T08:58:47.801Z</time></trkpt><trkpt lat="45.3561383" lon="7.718315"><ele>311.0</ele><time>2026-05-01T08:58:48.801Z</time></trkpt><trkpt lat="45.3561617" lon="7.7182217"><ele>311.0</ele><time>2026-05-01T08:58:49.801Z</time></trkpt><trkpt lat="45.3562167" lon="7.7180933"><ele>311.0</ele><time>2026-05-01T08:58:51.801Z</time></trkpt><trkpt lat="45.3562683" lon="7.717985"><ele>311.0</ele><time>2026-05-01T08:58:54.8Z</time></trkpt><trkpt lat="45.3563133" lon="7.7178767"><ele>311.0</ele><time>2026-05-01T08:58:57.801Z</time></trkpt><trkpt lat="45.3563417" lon="7.7177667"><ele>311.6</ele><time>2026-05-01T08:58:59.801Z</time></trkpt><trkpt lat="45.35637" lon="7.7176567"><ele>312.20000000000005</ele><time>2026-05-01T08:59:01.8Z</time></trkpt><trkpt lat="45.3563917" lon="7.71754"><ele>312.79999999999995</ele><time>2026-05-01T08:59:03.801Z</time></trkpt><trkpt lat="45.35643" lon="7.7174267"><ele>313.4</ele><time>2026-05-01T08:59:05.801Z</time></trkpt><trkpt lat="45.3564833" lon="7.7173033"><ele>314.0</ele><time>2026-05-01T08:59:07.801Z</time></trkpt><trkpt lat="45.3565567" lon="7.7172017"><ele>314.0</ele><time>2026-05-01T08:59:09.801Z</time></trkpt><trkpt lat="45.3566133" lon="7.7170783"><ele>314.0</ele><time>2026-05-01T08:59:11.801Z</time></trkpt><trkpt lat="45.3566717" lon="7.7169383"><ele>314.0</ele><time>2026-05-01T08:59:13.801Z</time></trkpt><trkpt lat="45.3567033" lon="7.71682"><ele>314.0</ele><time>2026-05-01T08:59:15.801Z</time></trkpt><trkpt lat="45.3567383" lon="7.7166833"><ele>314.0</ele><time>2026-05-01T08:59:17.801Z</time></trkpt><trkpt lat="45.3567633" lon="7.7165883"><ele>314.1666666666667</ele><time>2026-05-01T08:59:18.801Z</time></trkpt><trkpt lat="45.3567867" lon="7.7164933"><ele>314.33333333333337</ele><time>2026-05-01T08:59:19.801Z</time></trkpt><trkpt lat="45.3568083" lon="7.7164033"><ele>314.5</ele><time>2026-05-01T08:59:20.801Z</time></trkpt><trkpt lat="45.35685" lon="7.71627"><ele>314.6666666666667</ele><time>2026-05-01T08:59:22.801Z</time></trkpt><trkpt lat="45.356935" lon="7.71614"><ele>314.8333333333333</ele><time>2026-05-01T08:59:24.801Z</time></trkpt><trkpt lat="45.3569967" lon="7.7160617"><ele>315.0</ele><time>2026-05-01T08:59:25.801Z</time></trkpt><trkpt lat="45.3570517" lon="7.7159817"><ele>315.0</ele><time>2026-05-01T08:59:26.801Z</time></trkpt><trkpt lat="45.3571017" lon="7.7158833"><ele>315.0</ele><time>2026-05-01T08:59:27.801Z</time></trkpt><trkpt lat="45.35715" lon="7.7157783"><ele>315.0</ele><time>2026-05-01T08:59:28.801Z</time></trkpt><trkpt lat="45.3571983" lon="7.715655"><ele>315.0</ele><time>2026-05-01T08:59:29.801Z</time></trkpt><trkpt lat="45.357235" lon="7.7155583"><ele>315.0</ele><time>2026-05-01T08:59:30.801Z</time></trkpt><trkpt lat="45.3572883" lon="7.7154367"><ele>315.0</ele><time>2026-05-01T08:59:32.801Z</time></trkpt><trkpt lat="45.3573383" lon="7.715375"><ele>315.0</ele><time>2026-05-01T08:59:35.801Z</time></trkpt><trkpt lat="45.357405" lon="7.7153233"><ele>315.0</ele><time>2026-05-01T08:59:38.801Z</time></trkpt><trkpt lat="45.35743" lon="7.715235"><ele>315.0</ele><time>2026-05-01T08:59:42.801Z</time></trkpt><trkpt lat="45.3573683" lon="7.715265"><ele>315.0</ele><time>2026-05-01T08:59:46.8Z</time></trkpt><trkpt lat="45.3573283" lon="7.7153417"><ele>315.0</ele><time>2026-05-01T08:59:49.801Z</time></trkpt><trkpt lat="45.3572933" lon="7.71545"><ele>315.0</ele><time>2026-05-01T09:00:04.801Z</time></trkpt><trkpt lat="45.3572483" lon="7.7155983"><ele>315.0</ele><time>2026-05-01T09:00:06.801Z</time></trkpt><trkpt lat="45.3572117" lon="7.7156933"><ele>315.0</ele><time>2026-05-01T09:00:07.8Z</time></trkpt><trkpt lat="45.3571667" lon="7.7157933"><ele>315.0</ele><time>2026-05-01T09:00:08.801Z</time></trkpt><trkpt lat="45.357125" lon="7.715885"><ele>315.0</ele><time>2026-05-01T09:00:09.801Z</time></trkpt><trkpt lat="45.3570817" lon="7.7159617"><ele>315.0</ele><time>2026-05-01T09:00:10.801Z</time></trkpt><trkpt lat="45.357035" lon="7.7160233"><ele>315.0</ele><time>2026-05-01T09:00:11.801Z</time></trkpt><trkpt lat="45.356985" lon="7.71608"><ele>315.0</ele><time>2026-05-01T09:00:12.801Z</time></trkpt><trkpt lat="45.3569233" lon="7.716195"><ele>315.2</ele><time>2026-05-01T09:00:14.801Z</time></trkpt><trkpt lat="45.35687" lon="7.71637"><ele>315.4</ele><time>2026-05-01T09:00:16.801Z</time></trkpt><trkpt lat="45.3568433" lon="7.7164917"><ele>315.6</ele><time>2026-05-01T09:00:17.801Z</time></trkpt><trkpt lat="45.3568167" lon="7.7166233"><ele>315.8</ele><time>2026-05-01T09:00:18.801Z</time></trkpt><trkpt lat="45.3567883" lon="7.716735"><ele>316.0</ele><time>2026-05-01T09:00:19.801Z</time></trkpt><trkpt lat="45.3567567" lon="7.7168483"><ele>315.66666666666663</ele><time>2026-05-01T09:00:20.801Z</time></trkpt><trkpt lat="45.3567117" lon="7.7169567"><ele>315.3333333333333</ele><time>2026-05-01T09:00:21.801Z</time></trkpt><trkpt lat="45.3566533" lon="7.717065"><ele>315.0</ele><time>2026-05-01T09:00:22.801Z</time></trkpt><trkpt lat="45.356595" lon="7.7171733"><ele>314.6666666666667</ele><time>2026-05-01T09:00:23.801Z</time></trkpt><trkpt lat="45.356545" lon="7.7172567"><ele>314.33333333333337</ele><time>2026-05-01T09:00:24.801Z</time></trkpt><trkpt lat="45.3565017" lon="7.717345"><ele>314.0</ele><time>2026-05-01T09:00:25.801Z</time></trkpt><trkpt lat="45.35647" lon="7.7174367"><ele>314.0</ele><time>2026-05-01T09:00:26.801Z</time></trkpt><trkpt lat="45.3564517" lon="7.717525"><ele>314.0</ele><time>2026-05-01T09:00:27.801Z</time></trkpt><trkpt lat="45.35642" lon="7.7176733"><ele>314.0</ele><time>2026-05-01T09:00:29.801Z</time></trkpt><trkpt lat="45.3563933" lon="7.7177583"><ele>314.0</ele><time>2026-05-01T09:00:31.801Z</time></trkpt><trkpt lat="45.356345" lon="7.7178517"><ele>314.0</ele><time>2026-05-01T09:00:34.801Z</time></trkpt><trkpt lat="45.3563367" lon="7.7179633"><ele>314.0</ele><time>2026-05-01T09:00:37.801Z</time></trkpt><trkpt lat="45.35633" lon="7.7180833"><ele>313.5</ele><time>2026-05-01T09:00:39.801Z</time></trkpt><trkpt lat="45.3563" lon="7.7182067"><ele>313.0</ele><time>2026-05-01T09:00:41.801Z</time></trkpt><trkpt lat="45.3562367" lon="7.718335"><ele>312.5</ele><time>2026-05-01T09:00:43.801Z</time></trkpt><trkpt lat="45.35619" lon="7.7184217"><ele>312.0</ele><time>2026-05-01T09:00:44.801Z</time></trkpt><trkpt lat="45.3561383" lon="7.7185083"><ele>311.5</ele><time>2026-05-01T09:00:45.801Z</time></trkpt><trkpt lat="45.35608" lon="7.7186033"><ele>311.0</ele><time>2026-05-01T09:00:46.801Z</time></trkpt><trkpt lat="45.3560083" lon="7.71869"><ele>311.0</ele><time>2026-05-01T09:00:47.801Z</time></trkpt><trkpt lat="45.35595" lon="7.7187817"><ele>311.0</ele><time>2026-05-01T09:00:48.8Z</time></trkpt><trkpt lat="45.3559067" lon="7.71885"><ele>311.0</ele><time>2026-05-01T09:00:49.801Z</time></trkpt><trkpt lat="45.355845" lon="7.7189433"><ele>311.0</ele><time>2026-05-01T09:00:51.8Z</time></trkpt><trkpt lat="45.355745" lon="7.7189483"><ele>311.0</ele><time>2026-05-01T09:00:57.801Z</time></trkpt><trkpt lat="45.3556417" lon="7.7188917"><ele>311.0</ele><time>2026-05-01T09:00:59.801Z</time></trkpt><trkpt lat="45.35556" lon="7.7188567"><ele>311.0</ele><time>2026-05-01T09:01:02.801Z</time></trkpt><trkpt lat="45.3554967" lon="7.7188933"><ele>311.0</ele><time>2026-05-01T09:01:04.801Z</time></trkpt><trkpt lat="45.3554383" lon="7.7189533"><ele>311.0</ele><time>2026-05-01T09:01:06.801Z</time></trkpt><trkpt lat="45.3553683" lon="7.7190067"><ele>311.0</ele><time>2026-05-01T09:01:08.801Z</time></trkpt><trkpt lat="45.3552867" lon="7.7190383"><ele>311.0</ele><time>2026-05-01T09:01:10.801Z</time></trkpt><trkpt lat="45.355215" lon="7.71908"><ele>311.2</ele><time>2026-05-01T09:01:13.801Z</time></trkpt><trkpt lat="45.3551083" lon="7.719125"><ele>311.40000000000003</ele><time>2026-05-01T09:01:20.801Z</time></trkpt><trkpt lat="45.35502" lon="7.71916"><ele>311.6</ele><time>2026-05-01T09:01:22.801Z</time></trkpt><trkpt lat="45.3549167" lon="7.719175"><ele>311.8</ele><time>2026-05-01T09:01:24.801Z</time></trkpt><trkpt lat="45.3548133" lon="7.7191833"><ele>312.0</ele><time>2026-05-01T09:01:26.801Z</time></trkpt><trkpt lat="45.354695" lon="7.719195"><ele>312.0</ele><time>2026-05-01T09:01:28.801Z</time></trkpt><trkpt lat="45.354585" lon="7.7191983"><ele>312.0</ele><time>2026-05-01T09:01:30.8Z</time></trkpt><trkpt lat="45.3544733" lon="7.7192033"><ele>312.0</ele><time>2026-05-01T09:01:32.801Z</time></trkpt><trkpt lat="45.3543783" lon="7.7191733"><ele>312.0</ele><time>2026-05-01T09:01:34.801Z</time></trkpt><trkpt lat="45.3542817" lon="7.7190917"><ele>312.0</ele><time>2026-05-01T09:01:36.801Z</time></trkpt><trkpt lat="45.3542333" lon="7.7190317"><ele>312.0</ele><time>2026-05-01T09:01:37.801Z</time></trkpt><trkpt lat="45.35418" lon="7.7189717"><ele>312.0</ele><time>2026-05-01T09:01:38.801Z</time></trkpt><trkpt lat="45.3541033" lon="7.7188833"><ele>312.0</ele><time>2026-05-01T09:01:40.801Z</time></trkpt><trkpt lat="45.354045" lon="7.7188117"><ele>312.0</ele><time>2026-05-01T09:01:42.801Z</time></trkpt><trkpt lat="45.353975" lon="7.7187367"><ele>312.0</ele><time>2026-05-01T09:01:44.8Z</time></trkpt><trkpt lat="45.3539033" lon="7.7186683"><ele>312.0</ele><time>2026-05-01T09:01:46.801Z</time></trkpt><trkpt lat="45.3538367" lon="7.718645"><ele>311.8</ele><time>2026-05-01T09:01:48.801Z</time></trkpt><trkpt lat="45.3537583" lon="7.7187"><ele>311.6</ele><time>2026-05-01T09:01:51.801Z</time></trkpt><trkpt lat="45.3537033" lon="7.7187783"><ele>311.40000000000003</ele><time>2026-05-01T09:01:53.801Z</time></trkpt><trkpt lat="45.3536383" lon="7.7188617"><ele>311.2</ele><time>2026-05-01T09:01:55.801Z</time></trkpt><trkpt lat="45.3535733" lon="7.7189533"><ele>311.0</ele><time>2026-05-01T09:01:57.801Z</time></trkpt><trkpt lat="45.3534833" lon="7.71905"><ele>311.0</ele><time>2026-05-01T09:01:59.8Z</time></trkpt><trkpt lat="45.353445" lon="7.7191233"><ele>311.0</ele><time>2026-05-01T09:02:01.801Z</time></trkpt><trkpt lat="45.3533867" lon="7.7192233"><ele>311.0</ele><time>2026-05-01T09:02:04.8Z</time></trkpt><trkpt lat="45.3533717" lon="7.7193183"><ele>311.0</ele><time>2026-05-01T09:02:07.801Z</time></trkpt><trkpt lat="45.353345" lon="7.71942"><ele>311.0</ele><time>2026-05-01T09:02:09.8Z</time></trkpt><trkpt lat="45.353305" lon="7.7195333"><ele>311.0</ele><time>2026-05-01T09:02:11.801Z</time></trkpt><trkpt lat="45.3532617" lon="7.71963"><ele>310.6666666666667</ele><time>2026-05-01T09:02:13.801Z</time></trkpt><trkpt lat="45.3532167" lon="7.7197267"><ele>310.33333333333337</ele><time>2026-05-01T09:02:15.801Z</time></trkpt><trkpt lat="45.35316" lon="7.71985"><ele>310.0</ele><time>2026-05-01T09:02:17.801Z</time></trkpt><trkpt lat="45.3531083" lon="7.7199783"><ele>309.6666666666667</ele><time>2026-05-01T09:02:19.801Z</time></trkpt><trkpt lat="45.35306" lon="7.7200383"><ele>309.3333333333333</ele><time>2026-05-01T09:02:20.801Z</time></trkpt><trkpt lat="45.352985" lon="7.720115"><ele>309.0</ele><time>2026-05-01T09:02:23.801Z</time></trkpt><trkpt lat="45.3529167" lon="7.7201517"><ele>309.00000000000006</ele><time>2026-05-01T09:02:26.801Z</time></trkpt><trkpt lat="45.352845" lon="7.7201017"><ele>309.0</ele><time>2026-05-01T09:02:30.801Z</time></trkpt><trkpt lat="45.352785" lon="7.7200267"><ele>309.0</ele><time>2026-05-01T09:02:33.801Z</time></trkpt><trkpt lat="45.3527167" lon="7.7199783"><ele>309.0</ele><time>2026-05-01T09:02:35.801Z</time></trkpt><trkpt lat="45.3526533" lon="7.71995"><ele>309.0</ele><time>2026-05-01T09:02:37.801Z</time></trkpt><trkpt lat="45.352585" lon="7.7199167"><ele>309.00000000000006</ele><time>2026-05-01T09:02:39.801Z</time></trkpt><trkpt lat="45.3525233" lon="7.719885"><ele>309.0</ele><time>2026-05-01T09:02:41.801Z</time></trkpt><trkpt lat="45.352455" lon="7.7198517"><ele>309.0</ele><time>2026-05-01T09:02:43.801Z</time></trkpt><trkpt lat="45.3523767" lon="7.7198"><ele>309.0</ele><time>2026-05-01T09:02:45.801Z</time></trkpt><trkpt lat="45.3523117" lon="7.7197583"><ele>309.0</ele><time>2026-05-01T09:02:47.801Z</time></trkpt><trkpt lat="45.3522383" lon="7.719765"><ele>309.0</ele><time>2026-05-01T09:02:49.801Z</time></trkpt><trkpt lat="45.352135" lon="7.7198333"><ele>309.0</ele><time>2026-05-01T09:02:51.801Z</time></trkpt><trkpt lat="45.352065" lon="7.719875"><ele>309.0</ele><time>2026-05-01T09:02:52.8Z</time></trkpt><trkpt lat="45.351985" lon="7.7199183"><ele>309.0</ele><time>2026-05-01T09:02:53.801Z</time></trkpt><trkpt lat="45.351895" lon="7.7199633"><ele>309.0</ele><time>2026-05-01T09:02:54.801Z</time></trkpt><trkpt lat="45.3517833" lon="7.72001"><ele>309.0</ele><time>2026-05-01T09:02:55.801Z</time></trkpt><trkpt lat="45.3516633" lon="7.72007"><ele>309.0</ele><time>2026-05-01T09:02:56.801Z</time></trkpt><trkpt lat="45.3515483" lon="7.720155"><ele>308.75</ele><time>2026-05-01T09:02:57.801Z</time></trkpt><trkpt lat="45.3514317" lon="7.7202417"><ele>308.5</ele><time>2026-05-01T09:02:58.801Z</time></trkpt><trkpt lat="45.351315" lon="7.7203167"><ele>308.25</ele><time>2026-05-01T09:02:59.801Z</time></trkpt><trkpt lat="45.3512133" lon="7.7203717"><ele>308.0</ele><time>2026-05-01T09:03:00.801Z</time></trkpt><trkpt lat="45.35111" lon="7.7204133"><ele>308.0</ele><time>2026-05-01T09:03:01.801Z</time></trkpt><trkpt lat="45.3510133" lon="7.720465"><ele>308.0</ele><time>2026-05-01T09:03:02.801Z</time></trkpt><trkpt lat="45.35092" lon="7.72054"><ele>308.0</ele><time>2026-05-01T09:03:03.8Z</time></trkpt><trkpt lat="45.3508333" lon="7.7206417"><ele>308.0</ele><time>2026-05-01T09:03:04.801Z</time></trkpt><trkpt lat="45.3507467" lon="7.7207617"><ele>308.0</ele><time>2026-05-01T09:03:05.801Z</time></trkpt><trkpt lat="45.3506583" lon="7.7208833"><ele>308.0</ele><time>2026-05-01T09:03:06.801Z</time></trkpt><trkpt lat="45.3505717" lon="7.7209883"><ele>308.0</ele><time>2026-05-01T09:03:07.801Z</time></trkpt><trkpt lat="45.350485" lon="7.7210917"><ele>308.0</ele><time>2026-05-01T09:03:08.801Z</time></trkpt><trkpt lat="45.3504183" lon="7.7212133"><ele>308.0</ele><time>2026-05-01T09:03:09.801Z</time></trkpt><trkpt lat="45.350335" lon="7.7213417"><ele>307.5</ele><time>2026-05-01T09:03:10.801Z</time></trkpt><trkpt lat="45.3502467" lon="7.721475"><ele>307.0</ele><time>2026-05-01T09:03:11.801Z</time></trkpt><trkpt lat="45.35015" lon="7.721615"><ele>306.5</ele><time>2026-05-01T09:03:12.801Z</time></trkpt><trkpt lat="45.3500383" lon="7.7217783"><ele>306.0</ele><time>2026-05-01T09:03:13.801Z</time></trkpt><trkpt lat="45.34995" lon="7.7219367"><ele>306.0</ele><time>2026-05-01T09:03:14.801Z</time></trkpt><trkpt lat="45.3498517" lon="7.7220683"><ele>306.0</ele><time>2026-05-01T09:03:15.801Z</time></trkpt><trkpt lat="45.349785" lon="7.72217"><ele>306.0</ele><time>2026-05-01T09:03:16.801Z</time></trkpt><trkpt lat="45.349725" lon="7.7222217"><ele>306.0</ele><time>2026-05-01T09:03:17.801Z</time></trkpt><trkpt lat="45.34965" lon="7.7222667"><ele>306.0</ele><time>2026-05-01T09:03:18.801Z</time></trkpt><trkpt lat="45.34958" lon="7.7223017"><ele>306.0</ele><time>2026-05-01T09:03:19.801Z</time></trkpt><trkpt lat="45.3494983" lon="7.72236"><ele>306.0</ele><time>2026-05-01T09:03:20.801Z</time></trkpt><trkpt lat="45.34942" lon="7.7224433"><ele>306.0</ele><time>2026-05-01T09:03:21.8Z</time></trkpt><trkpt lat="45.349325" lon="7.72254"><ele>306.0</ele><time>2026-05-01T09:03:22.801Z</time></trkpt><trkpt lat="45.34923" lon="7.722625"><ele>306.0</ele><time>2026-05-01T09:03:23.801Z</time></trkpt><trkpt lat="45.3491383" lon="7.7227083"><ele>306.25</ele><time>2026-05-01T09:03:24.801Z</time></trkpt><trkpt lat="45.3490583" lon="7.7227967"><ele>306.5</ele><time>2026-05-01T09:03:25.801Z</time></trkpt><trkpt lat="45.348975" lon="7.72292"><ele>306.75</ele><time>2026-05-01T09:03:26.801Z</time></trkpt><trkpt lat="45.3488817" lon="7.7230683"><ele>307.0</ele><time>2026-05-01T09:03:27.801Z</time></trkpt><trkpt lat="45.3487633" lon="7.7232167"><ele>305.66666666666663</ele><time>2026-05-01T09:03:28.801Z</time></trkpt><trkpt lat="45.3486117" lon="7.72335"><ele>304.3333333333333</ele><time>2026-05-01T09:03:29.801Z</time></trkpt><trkpt lat="45.3484567" lon="7.72346"><ele>303.0</ele><time>2026-05-01T09:03:30.801Z</time></trkpt><trkpt lat="45.348325" lon="7.7235533"><ele>302.8</ele><time>2026-05-01T09:03:31.801Z</time></trkpt><trkpt lat="45.348215" lon="7.7236533"><ele>302.6</ele><time>2026-05-01T09:03:32.801Z</time></trkpt><trkpt lat="45.3481217" lon="7.72375"><ele>302.4</ele><time>2026-05-01T09:03:33.801Z</time></trkpt><trkpt lat="45.34805" lon="7.7238383"><ele>302.2</ele><time>2026-05-01T09:03:34.801Z</time></trkpt><trkpt lat="45.34798" lon="7.723895"><ele>302.0</ele><time>2026-05-01T09:03:35.801Z</time></trkpt><trkpt lat="45.3479033" lon="7.7239233"><ele>301.6</ele><time>2026-05-01T09:03:36.801Z</time></trkpt><trkpt lat="45.3478167" lon="7.7239233"><ele>301.2</ele><time>2026-05-01T09:03:37.801Z</time></trkpt><trkpt lat="45.347725" lon="7.72394"><ele>300.8</ele><time>2026-05-01T09:03:38.801Z</time></trkpt><trkpt lat="45.3476317" lon="7.723975"><ele>300.4</ele><time>2026-05-01T09:03:39.801Z</time></trkpt><trkpt lat="45.347525" lon="7.7240467"><ele>300.0</ele><time>2026-05-01T09:03:40.801Z</time></trkpt><trkpt lat="45.34742" lon="7.72415"><ele>300.0</ele><time>2026-05-01T09:03:41.8Z</time></trkpt><trkpt lat="45.34732" lon="7.724275"><ele>300.0</ele><time>2026-05-01T09:03:42.801Z</time></trkpt><trkpt lat="45.347225" lon="7.7243967"><ele>300.0</ele><time>2026-05-01T09:03:43.801Z</time></trkpt><trkpt lat="45.347125" lon="7.7244917"><ele>300.0</ele><time>2026-05-01T09:03:44.801Z</time></trkpt><trkpt lat="45.3470083" lon="7.72456"><ele>300.0</ele><time>2026-05-01T09:03:45.801Z</time></trkpt><trkpt lat="45.3468933" lon="7.72459"><ele>300.0</ele><time>2026-05-01T09:03:46.801Z</time></trkpt><trkpt lat="45.3467783" lon="7.7246217"><ele>300.0</ele><time>2026-05-01T09:03:47.801Z</time></trkpt><trkpt lat="45.3466867" lon="7.724675"><ele>300.0</ele><time>2026-05-01T09:03:48.801Z</time></trkpt><trkpt lat="45.3465967" lon="7.724755"><ele>300.0</ele><time>2026-05-01T09:03:49.801Z</time></trkpt><trkpt lat="45.3464983" lon="7.7248733"><ele>300.0</ele><time>2026-05-01T09:03:50.801Z</time></trkpt><trkpt lat="45.3463983" lon="7.7250233"><ele>300.0</ele><time>2026-05-01T09:03:51.801Z</time></trkpt><trkpt lat="45.3463033" lon="7.72519"><ele>300.0</ele><time>2026-05-01T09:03:52.801Z</time></trkpt><trkpt lat="45.34618" lon="7.7253567"><ele>299.0</ele><time>2026-05-01T09:03:53.801Z</time></trkpt><trkpt lat="45.3460417" lon="7.7255167"><ele>298.0</ele><time>2026-05-01T09:03:54.801Z</time></trkpt><trkpt lat="45.3459167" lon="7.72569"><ele>297.0</ele><time>2026-05-01T09:03:55.801Z</time></trkpt><trkpt lat="45.34579" lon="7.7258633"><ele>297.0</ele><time>2026-05-01T09:03:56.801Z</time></trkpt><trkpt lat="45.3456617" lon="7.7260167"><ele>297.0</ele><time>2026-05-01T09:03:57.801Z</time></trkpt><trkpt lat="45.34551" lon="7.726145"><ele>297.0</ele><time>2026-05-01T09:03:58.801Z</time></trkpt><trkpt lat="45.34534" lon="7.7262633"><ele>297.0</ele><time>2026-05-01T09:03:59.801Z</time></trkpt><trkpt lat="45.3451717" lon="7.7263833"><ele>297.0</ele><time>2026-05-01T09:04:00.8Z</time></trkpt><trkpt lat="45.3450067" lon="7.7265167"><ele>297.0</ele><time>2026-05-01T09:04:01.801Z</time></trkpt><trkpt lat="45.3448483" lon="7.7266783"><ele>297.0</ele><time>2026-05-01T09:04:02.801Z</time></trkpt><trkpt lat="45.344715" lon="7.7268367"><ele>297.0</ele><time>2026-05-01T09:04:03.8Z</time></trkpt><trkpt lat="45.3446017" lon="7.7269833"><ele>297.0</ele><time>2026-05-01T09:04:04.801Z</time></trkpt><trkpt lat="45.3445067" lon="7.7271367"><ele>297.0</ele><time>2026-05-01T09:04:05.801Z</time></trkpt><trkpt lat="45.3444167" lon="7.7273017"><ele>297.0</ele><time>2026-05-01T09:04:06.801Z</time></trkpt><trkpt lat="45.3443267" lon="7.7274483"><ele>297.0</ele><time>2026-05-01T09:04:07.801Z</time></trkpt><trkpt lat="45.344205" lon="7.727575"><ele>297.0</ele><time>2026-05-01T09:04:08.801Z</time></trkpt><trkpt lat="45.3440717" lon="7.727695"><ele>297.25</ele><time>2026-05-01T09:04:09.801Z</time></trkpt><trkpt lat="45.3439267" lon="7.727795"><ele>297.5</ele><time>2026-05-01T09:04:10.801Z</time></trkpt><trkpt lat="45.3438067" lon="7.7279"><ele>297.75</ele><time>2026-05-01T09:04:11.801Z</time></trkpt><trkpt lat="45.3437017" lon="7.7279867"><ele>298.0</ele><time>2026-05-01T09:04:12.801Z</time></trkpt><trkpt lat="45.3436117" lon="7.7280883"><ele>298.0</ele><time>2026-05-01T09:04:13.801Z</time></trkpt><trkpt lat="45.343535" lon="7.728215"><ele>298.0</ele><time>2026-05-01T09:04:14.801Z</time></trkpt><trkpt lat="45.34347" lon="7.7283517"><ele>298.0</ele><time>2026-05-01T09:04:15.801Z</time></trkpt><trkpt lat="45.34341" lon="7.7284633"><ele>298.0</ele><time>2026-05-01T09:04:16.801Z</time></trkpt><trkpt lat="45.3433583" lon="7.7285433"><ele>298.0</ele><time>2026-05-01T09:04:17.801Z</time></trkpt><trkpt lat="45.3433" lon="7.728595"><ele>298.0</ele><time>2026-05-01T09:04:19.801Z</time></trkpt><trkpt lat="45.34323" lon="7.728555"><ele>298.0</ele><time>2026-05-01T09:04:36.801Z</time></trkpt><trkpt lat="45.3431617" lon="7.7285417"><ele>298.0</ele><time>2026-05-01T09:04:38.8Z</time></trkpt><trkpt lat="45.3430417" lon="7.728545"><ele>298.0</ele><time>2026-05-01T09:04:39.8Z</time></trkpt><trkpt lat="45.34292" lon="7.7285467"><ele>298.0</ele><time>2026-05-01T09:04:40.801Z</time></trkpt><trkpt lat="45.34279" lon="7.72858"><ele>298.25</ele><time>2026-05-01T09:04:41.801Z</time></trkpt><trkpt lat="45.3426533" lon="7.728645"><ele>298.5</ele><time>2026-05-01T09:04:42.801Z</time></trkpt><trkpt lat="45.3425217" lon="7.7287433"><ele>298.75</ele><time>2026-05-01T09:04:43.801Z</time></trkpt><trkpt lat="45.3423917" lon="7.728855"><ele>299.0</ele><time>2026-05-01T09:04:44.801Z</time></trkpt><trkpt lat="45.3422617" lon="7.7289783"><ele>298.33333333333337</ele><time>2026-05-01T09:04:45.8Z</time></trkpt><trkpt lat="45.3421483" lon="7.72912"><ele>297.6666666666667</ele><time>2026-05-01T09:04:46.801Z</time></trkpt><trkpt lat="45.342015" lon="7.7292533"><ele>297.0</ele><time>2026-05-01T09:04:47.801Z</time></trkpt><trkpt lat="45.3418833" lon="7.7293783"><ele>297.3333333333333</ele><time>2026-05-01T09:04:48.801Z</time></trkpt><trkpt lat="45.3417533" lon="7.7295083"><ele>297.66666666666663</ele><time>2026-05-01T09:04:49.801Z</time></trkpt><trkpt lat="45.3416267" lon="7.7296333"><ele>298.0</ele><time>2026-05-01T09:04:50.801Z</time></trkpt><trkpt lat="45.3415117" lon="7.7297517"><ele>298.0</ele><time>2026-05-01T09:04:51.801Z</time></trkpt><trkpt lat="45.341395" lon="7.72986"><ele>298.0</ele><time>2026-05-01T09:04:52.801Z</time></trkpt><trkpt lat="45.3412783" lon="7.7299717"><ele>298.0</ele><time>2026-05-01T09:04:53.801Z</time></trkpt><trkpt lat="45.3411733" lon="7.7300867"><ele>298.0</ele><time>2026-05-01T09:04:54.801Z</time></trkpt><trkpt lat="45.3410783" lon="7.73021"><ele>297.25</ele><time>2026-05-01T09:04:55.801Z</time></trkpt><trkpt lat="45.3409883" lon="7.7303367"><ele>296.5</ele><time>2026-05-01T09:04:56.801Z</time></trkpt><trkpt lat="45.3409067" lon="7.7304867"><ele>295.75</ele><time>2026-05-01T09:04:57.801Z</time></trkpt><trkpt lat="45.340835" lon="7.73064"><ele>295.0</ele><time>2026-05-01T09:04:58.801Z</time></trkpt><trkpt lat="45.340765" lon="7.7307767"><ele>295.0</ele><time>2026-05-01T09:04:59.801Z</time></trkpt><trkpt lat="45.340675" lon="7.7308967"><ele>295.0</ele><time>2026-05-01T09:05:00.801Z</time></trkpt><trkpt lat="45.3405717" lon="7.7310133"><ele>295.0</ele><time>2026-05-01T09:05:01.801Z</time></trkpt><trkpt lat="45.3404617" lon="7.7311117"><ele>295.0</ele><time>2026-05-01T09:05:02.801Z</time></trkpt><trkpt lat="45.340375" lon="7.731185"><ele>294.2</ele><time>2026-05-01T09:05:03.801Z</time></trkpt><trkpt lat="45.3402783" lon="7.73124"><ele>293.4</ele><time>2026-05-01T09:05:04.801Z</time></trkpt><trkpt lat="45.3401767" lon="7.731275"><ele>292.6</ele><time>2026-05-01T09:05:05.8Z</time></trkpt><trkpt lat="45.3400883" lon="7.7313183"><ele>291.8</ele><time>2026-05-01T09:05:06.801Z</time></trkpt><trkpt lat="45.3400217" lon="7.7314033"><ele>291.0</ele><time>2026-05-01T09:05:07.8Z</time></trkpt><trkpt lat="45.3399567" lon="7.731515"><ele>291.0</ele><time>2026-05-01T09:05:08.801Z</time></trkpt><trkpt lat="45.3398833" lon="7.7316483"><ele>291.0</ele><time>2026-05-01T09:05:09.801Z</time></trkpt><trkpt lat="45.3397917" lon="7.73176"><ele>291.0</ele><time>2026-05-01T09:05:10.801Z</time></trkpt><trkpt lat="45.3396917" lon="7.7318533"><ele>291.0</ele><time>2026-05-01T09:05:11.801Z</time></trkpt><trkpt lat="45.3395783" lon="7.7319583"><ele>291.5</ele><time>2026-05-01T09:05:12.801Z</time></trkpt><trkpt lat="45.339455" lon="7.732035"><ele>292.0</ele><time>2026-05-01T09:05:13.801Z</time></trkpt><trkpt lat="45.3393283" lon="7.7320917"><ele>292.5</ele><time>2026-05-01T09:05:14.801Z</time></trkpt><trkpt lat="45.3391933" lon="7.73215"><ele>293.0</ele><time>2026-05-01T09:05:15.801Z</time></trkpt><trkpt lat="45.33906" lon="7.7322183"><ele>293.0</ele><time>2026-05-01T09:05:16.801Z</time></trkpt><trkpt lat="45.3389217" lon="7.7323117"><ele>293.0</ele><time>2026-05-01T09:05:17.801Z</time></trkpt><trkpt lat="45.3387917" lon="7.7324283"><ele>293.0</ele><time>2026-05-01T09:05:18.801Z</time></trkpt><trkpt lat="45.3386667" lon="7.7325317"><ele>293.6666666666667</ele><time>2026-05-01T09:05:19.801Z</time></trkpt><trkpt lat="45.33855" lon="7.7326217"><ele>294.3333333333333</ele><time>2026-05-01T09:05:20.801Z</time></trkpt><trkpt lat="45.3384033" lon="7.7327033"><ele>295.0</ele><time>2026-05-01T09:05:21.801Z</time></trkpt><trkpt lat="45.3382633" lon="7.7328167"><ele>295.3333333333333</ele><time>2026-05-01T09:05:22.801Z</time></trkpt><trkpt lat="45.33815" lon="7.7329483"><ele>295.6666666666667</ele><time>2026-05-01T09:05:23.8Z</time></trkpt><trkpt lat="45.3380317" lon="7.7330967"><ele>296.0</ele><time>2026-05-01T09:05:24.801Z</time></trkpt><trkpt lat="45.3379117" lon="7.7332417"><ele>295.0</ele><time>2026-05-01T09:05:25.801Z</time></trkpt><trkpt lat="45.3377867" lon="7.7333867"><ele>294.0</ele><time>2026-05-01T09:05:26.801Z</time></trkpt><trkpt lat="45.3376583" lon="7.7334983"><ele>293.0</ele><time>2026-05-01T09:05:27.801Z</time></trkpt><trkpt lat="45.33753" lon="7.733575"><ele>293.0</ele><time>2026-05-01T09:05:28.801Z</time></trkpt><trkpt lat="45.337395" lon="7.7335733"><ele>293.0</ele><time>2026-05-01T09:05:29.801Z</time></trkpt><trkpt lat="45.3372467" lon="7.7335517"><ele>293.0</ele><time>2026-05-01T09:05:30.801Z</time></trkpt><trkpt lat="45.3370883" lon="7.733525"><ele>293.0</ele><time>2026-05-01T09:05:31.801Z</time></trkpt><trkpt lat="45.3369333" lon="7.7335067"><ele>291.75</ele><time>2026-05-01T09:05:32.801Z</time></trkpt><trkpt lat="45.3367817" lon="7.733505"><ele>290.5</ele><time>2026-05-01T09:05:33.801Z</time></trkpt><trkpt lat="45.336645" lon="7.7335133"><ele>289.25</ele><time>2026-05-01T09:05:34.801Z</time></trkpt><trkpt lat="45.336525" lon="7.7335267"><ele>288.0</ele><time>2026-05-01T09:05:35.801Z</time></trkpt><trkpt lat="45.3364217" lon="7.73353"><ele>288.0</ele><time>2026-05-01T09:05:36.801Z</time></trkpt><trkpt lat="45.3363417" lon="7.73353"><ele>288.0</ele><time>2026-05-01T09:05:37.801Z</time></trkpt><trkpt lat="45.336235" lon="7.7335383"><ele>288.0</ele><time>2026-05-01T09:05:39.801Z</time></trkpt><trkpt lat="45.3361583" lon="7.73353"><ele>288.0</ele><time>2026-05-01T09:05:43.801Z</time></trkpt><trkpt lat="45.336105" lon="7.73346"><ele>288.0</ele><time>2026-05-01T09:05:45.8Z</time></trkpt><trkpt lat="45.336035" lon="7.73343"><ele>288.0</ele><time>2026-05-01T09:05:47.801Z</time></trkpt><trkpt lat="45.3359867" lon="7.7335083"><ele>287.6666666666667</ele><time>2026-05-01T09:05:49.801Z</time></trkpt><trkpt lat="45.335945" lon="7.73359"><ele>287.3333333333333</ele><time>2026-05-01T09:05:51.801Z</time></trkpt><trkpt lat="45.3358817" lon="7.7336583"><ele>287.0</ele><time>2026-05-01T09:05:53.801Z</time></trkpt><trkpt lat="45.3358017" lon="7.7337017"><ele>286.66666666666663</ele><time>2026-05-01T09:05:55.801Z</time></trkpt><trkpt lat="45.3357433" lon="7.73375"><ele>286.3333333333333</ele><time>2026-05-01T09:05:57.801Z</time></trkpt><trkpt lat="45.33571" lon="7.7338517"><ele>286.0</ele><time>2026-05-01T09:05:59.801Z</time></trkpt><trkpt lat="45.3356117" lon="7.734015"><ele>286.0</ele><time>2026-05-01T09:06:01.801Z</time></trkpt><trkpt lat="45.3355233" lon="7.73413"><ele>286.0</ele><time>2026-05-01T09:06:02.801Z</time></trkpt><trkpt lat="45.33541" lon="7.7342667"><ele>286.0</ele><time>2026-05-01T09:06:03.801Z</time></trkpt><trkpt lat="45.3352933" lon="7.734405"><ele>286.0</ele><time>2026-05-01T09:06:04.801Z</time></trkpt><trkpt lat="45.3351567" lon="7.7345633"><ele>286.0</ele><time>2026-05-01T09:06:05.801Z</time></trkpt><trkpt lat="45.3350267" lon="7.7347283"><ele>286.0</ele><time>2026-05-01T09:06:06.801Z</time></trkpt><trkpt lat="45.3348933" lon="7.7348933"><ele>286.0</ele><time>2026-05-01T09:06:07.801Z</time></trkpt><trkpt lat="45.3347567" lon="7.7350583"><ele>286.3333333333333</ele><time>2026-05-01T09:06:08.801Z</time></trkpt><trkpt lat="45.3346083" lon="7.7352317"><ele>286.6666666666667</ele><time>2026-05-01T09:06:09.801Z</time></trkpt><trkpt lat="45.3344683" lon="7.7354117"><ele>287.0</ele><time>2026-05-01T09:06:10.801Z</time></trkpt><trkpt lat="45.33432" lon="7.7355867"><ele>287.0</ele><time>2026-05-01T09:06:11.801Z</time></trkpt><trkpt lat="45.3341783" lon="7.7357567"><ele>287.0</ele><time>2026-05-01T09:06:12.801Z</time></trkpt><trkpt lat="45.334025" lon="7.73592"><ele>287.0</ele><time>2026-05-01T09:06:13.801Z</time></trkpt><trkpt lat="45.33388" lon="7.7360883"><ele>286.6666666666667</ele><time>2026-05-01T09:06:14.801Z</time></trkpt><trkpt lat="45.3337517" lon="7.7362567"><ele>286.3333333333333</ele><time>2026-05-01T09:06:15.801Z</time></trkpt><trkpt lat="45.3336183" lon="7.7364333"><ele>286.0</ele><time>2026-05-01T09:06:16.801Z</time></trkpt><trkpt lat="45.3334817" lon="7.7366133"><ele>286.0</ele><time>2026-05-01T09:06:17.801Z</time></trkpt><trkpt lat="45.333345" lon="7.736785"><ele>286.0</ele><time>2026-05-01T09:06:18.801Z</time></trkpt><trkpt lat="45.3331983" lon="7.7369583"><ele>286.0</ele><time>2026-05-01T09:06:19.801Z</time></trkpt><trkpt lat="45.333065" lon="7.7371267"><ele>284.3333333333333</ele><time>2026-05-01T09:06:20.801Z</time></trkpt><trkpt lat="45.332935" lon="7.7372817"><ele>282.6666666666667</ele><time>2026-05-01T09:06:21.801Z</time></trkpt><trkpt lat="45.3328033" lon="7.737435"><ele>281.0</ele><time>2026-05-01T09:06:22.8Z</time></trkpt><trkpt lat="45.332655" lon="7.7375567"><ele>281.0</ele><time>2026-05-01T09:06:23.8Z</time></trkpt><trkpt lat="45.3324983" lon="7.7376633"><ele>281.0</ele><time>2026-05-01T09:06:24.801Z</time></trkpt><trkpt lat="45.33234" lon="7.7377583"><ele>281.0</ele><time>2026-05-01T09:06:25.801Z</time></trkpt><trkpt lat="45.3321717" lon="7.7378683"><ele>281.33333333333337</ele><time>2026-05-01T09:06:26.8Z</time></trkpt><trkpt lat="45.3319983" lon="7.73798"><ele>281.6666666666667</ele><time>2026-05-01T09:06:27.801Z</time></trkpt><trkpt lat="45.33183" lon="7.7380917"><ele>282.0</ele><time>2026-05-01T09:06:28.801Z</time></trkpt><trkpt lat="45.3316717" lon="7.7382033"><ele>282.0</ele><time>2026-05-01T09:06:29.801Z</time></trkpt><trkpt lat="45.33152" lon="7.7383067"><ele>282.0</ele><time>2026-05-01T09:06:30.801Z</time></trkpt><trkpt lat="45.3313683" lon="7.7384083"><ele>282.0</ele><time>2026-05-01T09:06:31.801Z</time></trkpt><trkpt lat="45.331225" lon="7.73851"><ele>281.75</ele><time>2026-05-01T09:06:32.801Z</time></trkpt><trkpt lat="45.33108" lon="7.7386067"><ele>281.5</ele><time>2026-05-01T09:06:33.801Z</time></trkpt><trkpt lat="45.3309467" lon="7.7386917"><ele>281.25</ele><time>2026-05-01T09:06:34.801Z</time></trkpt><trkpt lat="45.3308217" lon="7.7387867"><ele>281.0</ele><time>2026-05-01T09:06:35.801Z</time></trkpt><trkpt lat="45.330715" lon="7.738875"><ele>281.0</ele><time>2026-05-01T09:06:36.801Z</time></trkpt><trkpt lat="45.3306317" lon="7.739"><ele>281.0</ele><time>2026-05-01T09:06:37.8Z</time></trkpt><trkpt lat="45.330595" lon="7.739135"><ele>281.0</ele><time>2026-05-01T09:06:38.801Z</time></trkpt><trkpt lat="45.3305833" lon="7.73929"><ele>281.0</ele><time>2026-05-01T09:06:39.801Z</time></trkpt><trkpt lat="45.3306133" lon="7.73948"><ele>280.6666666666667</ele><time>2026-05-01T09:06:40.801Z</time></trkpt><trkpt lat="45.3306667" lon="7.739695"><ele>280.3333333333333</ele><time>2026-05-01T09:06:41.801Z</time></trkpt><trkpt lat="45.3307067" lon="7.7399267"><ele>280.0</ele><time>2026-05-01T09:06:42.801Z</time></trkpt><trkpt lat="45.33075" lon="7.7401617"><ele>280.3333333333333</ele><time>2026-05-01T09:06:43.801Z</time></trkpt><trkpt lat="45.330795" lon="7.740405"><ele>280.6666666666667</ele><time>2026-05-01T09:06:44.8Z</time></trkpt><trkpt lat="45.3308367" lon="7.7406517"><ele>281.0</ele><time>2026-05-01T09:06:45.801Z</time></trkpt><trkpt lat="45.3308783" lon="7.7409067"><ele>280.6666666666667</ele><time>2026-05-01T09:06:46.801Z</time></trkpt><trkpt lat="45.3309217" lon="7.7411583"><ele>280.3333333333333</ele><time>2026-05-01T09:06:47.801Z</time></trkpt><trkpt lat="45.3309667" lon="7.7414117"><ele>280.0</ele><time>2026-05-01T09:06:48.801Z</time></trkpt><trkpt lat="45.3310117" lon="7.74165"><ele>280.0</ele><time>2026-05-01T09:06:49.801Z</time></trkpt><trkpt lat="45.3310417" lon="7.7418733"><ele>280.0</ele><time>2026-05-01T09:06:50.801Z</time></trkpt><trkpt lat="45.3310667" lon="7.74208"><ele>280.0</ele><time>2026-05-01T09:06:51.801Z</time></trkpt><trkpt lat="45.3310733" lon="7.742265"><ele>280.0</ele><time>2026-05-01T09:06:52.8Z</time></trkpt><trkpt lat="45.331065" lon="7.7424167"><ele>280.0</ele><time>2026-05-01T09:06:53.801Z</time></trkpt><trkpt lat="45.3310183" lon="7.7425383"><ele>280.0</ele><time>2026-05-01T09:06:54.801Z</time></trkpt><trkpt lat="45.330945" lon="7.742635"><ele>280.0</ele><time>2026-05-01T09:06:55.801Z</time></trkpt><trkpt lat="45.3308283" lon="7.7426983"><ele>280.0</ele><time>2026-05-01T09:06:56.801Z</time></trkpt><trkpt lat="45.33067" lon="7.7427383"><ele>280.3333333333333</ele><time>2026-05-01T09:06:57.801Z</time></trkpt><trkpt lat="45.3305017" lon="7.7427667"><ele>280.6666666666667</ele><time>2026-05-01T09:06:58.801Z</time></trkpt><trkpt lat="45.33033" lon="7.7428117"><ele>281.0</ele><time>2026-05-01T09:06:59.801Z</time></trkpt><trkpt lat="45.330155" lon="7.7428467"><ele>281.0</ele><time>2026-05-01T09:07:00.801Z</time></trkpt><trkpt lat="45.3299767" lon="7.7428917"><ele>281.0</ele><time>2026-05-01T09:07:01.801Z</time></trkpt><trkpt lat="45.3297833" lon="7.7429567"><ele>281.0</ele><time>2026-05-01T09:07:02.801Z</time></trkpt><trkpt lat="45.3296117" lon="7.7430533"><ele>280.0</ele><time>2026-05-01T09:07:03.801Z</time></trkpt><trkpt lat="45.3294383" lon="7.743165"><ele>279.0</ele><time>2026-05-01T09:07:04.801Z</time></trkpt><trkpt lat="45.329265" lon="7.7433"><ele>278.0</ele><time>2026-05-01T09:07:05.8Z</time></trkpt><trkpt lat="45.3290933" lon="7.74343"><ele>278.33333333333337</ele><time>2026-05-01T09:07:06.801Z</time></trkpt><trkpt lat="45.32893" lon="7.74357"><ele>278.6666666666667</ele><time>2026-05-01T09:07:07.801Z</time></trkpt><trkpt lat="45.3287667" lon="7.743715"><ele>279.0</ele><time>2026-05-01T09:07:08.801Z</time></trkpt><trkpt lat="45.3286" lon="7.7438683"><ele>278.3333333333333</ele><time>2026-05-01T09:07:09.801Z</time></trkpt><trkpt lat="45.328425" lon="7.744025"><ele>277.66666666666663</ele><time>2026-05-01T09:07:10.801Z</time></trkpt><trkpt lat="45.328255" lon="7.7441867"><ele>277.0</ele><time>2026-05-01T09:07:11.801Z</time></trkpt><trkpt lat="45.328095" lon="7.74435"><ele>277.3333333333333</ele><time>2026-05-01T09:07:12.801Z</time></trkpt><trkpt lat="45.3279433" lon="7.7445217"><ele>277.6666666666667</ele><time>2026-05-01T09:07:13.801Z</time></trkpt><trkpt lat="45.3278017" lon="7.7446917"><ele>278.0</ele><time>2026-05-01T09:07:14.801Z</time></trkpt><trkpt lat="45.327685" lon="7.744885"><ele>278.0</ele><time>2026-05-01T09:07:15.801Z</time></trkpt><trkpt lat="45.32758" lon="7.7450983"><ele>278.0</ele><time>2026-05-01T09:07:16.801Z</time></trkpt><trkpt lat="45.32748" lon="7.7453317"><ele>278.0</ele><time>2026-05-01T09:07:17.801Z</time></trkpt><trkpt lat="45.327375" lon="7.7455717"><ele>278.0</ele><time>2026-05-01T09:07:18.801Z</time></trkpt><trkpt lat="45.32727" lon="7.74581"><ele>278.0</ele><time>2026-05-01T09:07:19.801Z</time></trkpt><trkpt lat="45.327155" lon="7.7460283"><ele>278.0</ele><time>2026-05-01T09:07:20.801Z</time></trkpt><trkpt lat="45.327025" lon="7.74621"><ele>277.33333333333337</ele><time>2026-05-01T09:07:21.801Z</time></trkpt><trkpt lat="45.3268833" lon="7.7463717"><ele>276.6666666666667</ele><time>2026-05-01T09:07:22.8Z</time></trkpt><trkpt lat="45.326735" lon="7.7464933"><ele>276.0</ele><time>2026-05-01T09:07:23.801Z</time></trkpt><trkpt lat="45.32658" lon="7.7465817"><ele>276.0</ele><time>2026-05-01T09:07:24.801Z</time></trkpt><trkpt lat="45.326435" lon="7.74664"><ele>276.0</ele><time>2026-05-01T09:07:25.801Z</time></trkpt><trkpt lat="45.326295" lon="7.7467"><ele>276.0</ele><time>2026-05-01T09:07:26.801Z</time></trkpt><trkpt lat="45.326185" lon="7.7467633"><ele>276.0</ele><time>2026-05-01T09:07:27.801Z</time></trkpt><trkpt lat="45.3260983" lon="7.7468633"><ele>276.0</ele><time>2026-05-01T09:07:28.8Z</time></trkpt><trkpt lat="45.326035" lon="7.7470083"><ele>276.0</ele><time>2026-05-01T09:07:29.801Z</time></trkpt><trkpt lat="45.3260083" lon="7.7471917"><ele>276.0</ele><time>2026-05-01T09:07:30.801Z</time></trkpt><trkpt lat="45.3260017" lon="7.7473967"><ele>276.0</ele><time>2026-05-01T09:07:31.801Z</time></trkpt><trkpt lat="45.3260233" lon="7.7476267"><ele>276.0</ele><time>2026-05-01T09:07:32.801Z</time></trkpt><trkpt lat="45.32608" lon="7.7478583"><ele>276.0</ele><time>2026-05-01T09:07:33.801Z</time></trkpt><trkpt lat="45.3261483" lon="7.7480983"><ele>276.0</ele><time>2026-05-01T09:07:34.8Z</time></trkpt><trkpt lat="45.326215" lon="7.74834"><ele>275.6666666666667</ele><time>2026-05-01T09:07:35.801Z</time></trkpt><trkpt lat="45.3262867" lon="7.748585"><ele>275.33333333333337</ele><time>2026-05-01T09:07:36.801Z</time></trkpt><trkpt lat="45.32635" lon="7.7488383"><ele>275.0</ele><time>2026-05-01T09:07:37.801Z</time></trkpt><trkpt lat="45.326405" lon="7.7490883"><ele>274.6666666666667</ele><time>2026-05-01T09:07:38.801Z</time></trkpt><trkpt lat="45.3264517" lon="7.749335"><ele>274.3333333333333</ele><time>2026-05-01T09:07:39.8Z</time></trkpt><trkpt lat="45.3264933" lon="7.749575"><ele>274.0</ele><time>2026-05-01T09:07:40.801Z</time></trkpt><trkpt lat="45.3265317" lon="7.7498033"><ele>274.0</ele><time>2026-05-01T09:07:41.801Z</time></trkpt><trkpt lat="45.3265933" lon="7.75002"><ele>274.0</ele><time>2026-05-01T09:07:42.801Z</time></trkpt><trkpt lat="45.3266733" lon="7.7502383"><ele>274.0</ele><time>2026-05-01T09:07:43.801Z</time></trkpt><trkpt lat="45.3267783" lon="7.7504317"><ele>273.66666666666663</ele><time>2026-05-01T09:07:44.801Z</time></trkpt><trkpt lat="45.3268967" lon="7.750615"><ele>273.3333333333333</ele><time>2026-05-01T09:07:45.801Z</time></trkpt><trkpt lat="45.327015" lon="7.7508"><ele>273.0</ele><time>2026-05-01T09:07:46.801Z</time></trkpt><trkpt lat="45.3271367" lon="7.7509833"><ele>273.6666666666667</ele><time>2026-05-01T09:07:47.801Z</time></trkpt><trkpt lat="45.327265" lon="7.7511567"><ele>274.33333333333337</ele><time>2026-05-01T09:07:48.801Z</time></trkpt><trkpt lat="45.32739" lon="7.75134"><ele>275.0</ele><time>2026-05-01T09:07:49.801Z</time></trkpt><trkpt lat="45.3275117" lon="7.751525"><ele>275.0</ele><time>2026-05-01T09:07:50.801Z</time></trkpt><trkpt lat="45.3276367" lon="7.751705"><ele>275.0</ele><time>2026-05-01T09:07:51.8Z</time></trkpt><trkpt lat="45.3277667" lon="7.7518717"><ele>275.0</ele><time>2026-05-01T09:07:52.801Z</time></trkpt><trkpt lat="45.3278967" lon="7.752045"><ele>275.33333333333337</ele><time>2026-05-01T09:07:53.801Z</time></trkpt><trkpt lat="45.3280183" lon="7.75221"><ele>275.6666666666667</ele><time>2026-05-01T09:07:54.8Z</time></trkpt><trkpt lat="45.3281317" lon="7.75239"><ele>276.0</ele><time>2026-05-01T09:07:55.801Z</time></trkpt><trkpt lat="45.3282317" lon="7.75259"><ele>276.6666666666667</ele><time>2026-05-01T09:07:56.801Z</time></trkpt><trkpt lat="45.3283183" lon="7.7527983"><ele>277.33333333333337</ele><time>2026-05-01T09:07:57.801Z</time></trkpt><trkpt lat="45.32838" lon="7.7530067"><ele>278.0</ele><time>2026-05-01T09:07:58.801Z</time></trkpt><trkpt lat="45.3284317" lon="7.7532167"><ele>278.0</ele><time>2026-05-01T09:07:59.801Z</time></trkpt><trkpt lat="45.3284833" lon="7.7534283"><ele>278.0</ele><time>2026-05-01T09:08:00.801Z</time></trkpt><trkpt lat="45.3285183" lon="7.753655"><ele>278.0</ele><time>2026-05-01T09:08:01.801Z</time></trkpt><trkpt lat="45.3285367" lon="7.7538933"><ele>277.6666666666667</ele><time>2026-05-01T09:08:02.801Z</time></trkpt><trkpt lat="45.3285517" lon="7.7541417"><ele>277.3333333333333</ele><time>2026-05-01T09:08:03.801Z</time></trkpt><trkpt lat="45.32856" lon="7.7543917"><ele>277.0</ele><time>2026-05-01T09:08:04.801Z</time></trkpt><trkpt lat="45.3285783" lon="7.7546317"><ele>276.66666666666663</ele><time>2026-05-01T09:08:05.801Z</time></trkpt><trkpt lat="45.3286" lon="7.754865"><ele>276.3333333333333</ele><time>2026-05-01T09:08:06.801Z</time></trkpt><trkpt lat="45.3286283" lon="7.7550917"><ele>276.0</ele><time>2026-05-01T09:08:07.801Z</time></trkpt><trkpt lat="45.3286483" lon="7.7552967"><ele>276.0</ele><time>2026-05-01T09:08:08.801Z</time></trkpt><trkpt lat="45.3286583" lon="7.7554983"><ele>276.0</ele><time>2026-05-01T09:08:09.801Z</time></trkpt><trkpt lat="45.328655" lon="7.7557067"><ele>276.0</ele><time>2026-05-01T09:08:10.801Z</time></trkpt><trkpt lat="45.328645" lon="7.7559167"><ele>276.0</ele><time>2026-05-01T09:08:11.801Z</time></trkpt><trkpt lat="45.328605" lon="7.7561233"><ele>276.0</ele><time>2026-05-01T09:08:12.801Z</time></trkpt><trkpt lat="45.32857" lon="7.75633"><ele>276.0</ele><time>2026-05-01T09:08:13.801Z</time></trkpt><trkpt lat="45.3285433" lon="7.7565317"><ele>276.0</ele><time>2026-05-01T09:08:14.801Z</time></trkpt><trkpt lat="45.3285367" lon="7.7567433"><ele>276.0</ele><time>2026-05-01T09:08:15.801Z</time></trkpt><trkpt lat="45.32854" lon="7.7569717"><ele>276.0</ele><time>2026-05-01T09:08:16.801Z</time></trkpt><trkpt lat="45.3285683" lon="7.7571783"><ele>276.0</ele><time>2026-05-01T09:08:17.801Z</time></trkpt><trkpt lat="45.3286217" lon="7.7573567"><ele>276.0</ele><time>2026-05-01T09:08:18.801Z</time></trkpt><trkpt lat="45.3286783" lon="7.75753"><ele>276.0</ele><time>2026-05-01T09:08:19.801Z</time></trkpt><trkpt lat="45.3287283" lon="7.7576967"><ele>276.25</ele><time>2026-05-01T09:08:20.801Z</time></trkpt><trkpt lat="45.3287883" lon="7.757855"><ele>276.5</ele><time>2026-05-01T09:08:21.801Z</time></trkpt><trkpt lat="45.328855" lon="7.7579917"><ele>276.75</ele><time>2026-05-01T09:08:22.801Z</time></trkpt><trkpt lat="45.328945" lon="7.7581233"><ele>277.0</ele><time>2026-05-01T09:08:23.801Z</time></trkpt><trkpt lat="45.3290267" lon="7.7582317"><ele>277.0</ele><time>2026-05-01T09:08:24.801Z</time></trkpt><trkpt lat="45.32909" lon="7.7583283"><ele>277.0</ele><time>2026-05-01T09:08:25.801Z</time></trkpt><trkpt lat="45.329155" lon="7.7584183"><ele>277.0</ele><time>2026-05-01T09:08:26.801Z</time></trkpt><trkpt lat="45.329205" lon="7.7584883"><ele>277.0</ele><time>2026-05-01T09:08:27.801Z</time></trkpt><trkpt lat="45.3292567" lon="7.7585633"><ele>277.0</ele><time>2026-05-01T09:08:29.801Z</time></trkpt><trkpt lat="45.3291683" lon="7.758655"><ele>277.0</ele><time>2026-05-01T09:08:37.801Z</time></trkpt><trkpt lat="45.3291233" lon="7.7587283"><ele>277.0</ele><time>2026-05-01T09:08:38.801Z</time></trkpt><trkpt lat="45.3290667" lon="7.7588183"><ele>277.0</ele><time>2026-05-01T09:08:39.801Z</time></trkpt><trkpt lat="45.329" lon="7.7589083"><ele>277.0</ele><time>2026-05-01T09:08:40.801Z</time></trkpt><trkpt lat="45.32894" lon="7.7589833"><ele>277.0</ele><time>2026-05-01T09:08:41.801Z</time></trkpt><trkpt lat="45.328885" lon="7.7590417"><ele>277.0</ele><time>2026-05-01T09:08:42.801Z</time></trkpt><trkpt lat="45.3288017" lon="7.7590933"><ele>277.0</ele><time>2026-05-01T09:08:43.801Z</time></trkpt><trkpt lat="45.32871" lon="7.7591667"><ele>277.0</ele><time>2026-05-01T09:08:44.801Z</time></trkpt><trkpt lat="45.3286267" lon="7.7592283"><ele>277.0</ele><time>2026-05-01T09:08:45.801Z</time></trkpt><trkpt lat="45.3285583" lon="7.7592867"><ele>277.0</ele><time>2026-05-01T09:08:46.801Z</time></trkpt><trkpt lat="45.3285017" lon="7.7593383"><ele>277.0</ele><time>2026-05-01T09:08:47.801Z</time></trkpt><trkpt lat="45.32845" lon="7.7593917"><ele>277.0</ele><time>2026-05-01T09:08:48.801Z</time></trkpt><trkpt lat="45.3283983" lon="7.7594467"><ele>277.0</ele><time>2026-05-01T09:08:49.801Z</time></trkpt><trkpt lat="45.3283317" lon="7.7595083"><ele>277.0</ele><time>2026-05-01T09:08:50.801Z</time></trkpt><trkpt lat="45.328265" lon="7.7595783"><ele>277.0</ele><time>2026-05-01T09:08:51.801Z</time></trkpt><trkpt lat="45.3281967" lon="7.7596433"><ele>277.0</ele><time>2026-05-01T09:08:52.801Z</time></trkpt><trkpt lat="45.328135" lon="7.7596933"><ele>277.0</ele><time>2026-05-01T09:08:53.801Z</time></trkpt><trkpt lat="45.3280967" lon="7.7597817"><ele>277.0</ele><time>2026-05-01T09:08:54.801Z</time></trkpt><trkpt lat="45.3280283" lon="7.75984"><ele>277.0</ele><time>2026-05-01T09:08:55.801Z</time></trkpt><trkpt lat="45.3279533" lon="7.7598917"><ele>277.0</ele><time>2026-05-01T09:08:56.801Z</time></trkpt><trkpt lat="45.3278567" lon="7.7599417"><ele>276.75</ele><time>2026-05-01T09:08:57.801Z</time></trkpt><trkpt lat="45.32775" lon="7.76"><ele>276.5</ele><time>2026-05-01T09:08:58.801Z</time></trkpt><trkpt lat="45.3276417" lon="7.76009"><ele>276.25</ele><time>2026-05-01T09:08:59.801Z</time></trkpt><trkpt lat="45.3275267" lon="7.7602117"><ele>276.0</ele><time>2026-05-01T09:09:00.801Z</time></trkpt><trkpt lat="45.3274" lon="7.7603533"><ele>275.75</ele><time>2026-05-01T09:09:01.801Z</time></trkpt><trkpt lat="45.3272867" lon="7.7605167"><ele>275.5</ele><time>2026-05-01T09:09:02.801Z</time></trkpt><trkpt lat="45.3271917" lon="7.760675"><ele>275.25</ele><time>2026-05-01T09:09:03.8Z</time></trkpt><trkpt lat="45.327135" lon="7.7608333"><ele>275.0</ele><time>2026-05-01T09:09:04.8Z</time></trkpt><trkpt lat="45.3270967" lon="7.760985"><ele>274.6666666666667</ele><time>2026-05-01T09:09:05.801Z</time></trkpt><trkpt lat="45.3270717" lon="7.7611167"><ele>274.33333333333337</ele><time>2026-05-01T09:09:06.801Z</time></trkpt><trkpt lat="45.3270433" lon="7.761205"><ele>274.0</ele><time>2026-05-01T09:09:07.801Z</time></trkpt><trkpt lat="45.32699" lon="7.7613017"><ele>273.6666666666667</ele><time>2026-05-01T09:09:09.801Z</time></trkpt><trkpt lat="45.3269167" lon="7.7613083"><ele>273.3333333333333</ele><time>2026-05-01T09:09:11.801Z</time></trkpt><trkpt lat="45.326835" lon="7.761275"><ele>273.0</ele><time>2026-05-01T09:09:12.801Z</time></trkpt><trkpt lat="45.3267283" lon="7.7612267"><ele>273.0</ele><time>2026-05-01T09:09:13.801Z</time></trkpt><trkpt lat="45.3266083" lon="7.7611917"><ele>273.0</ele><time>2026-05-01T09:09:14.801Z</time></trkpt><trkpt lat="45.3264733" lon="7.76116"><ele>273.0</ele><time>2026-05-01T09:09:15.801Z</time></trkpt><trkpt lat="45.3263117" lon="7.7611183"><ele>273.0</ele><time>2026-05-01T09:09:16.801Z</time></trkpt><trkpt lat="45.326135" lon="7.7610767"><ele>273.3333333333333</ele><time>2026-05-01T09:09:17.801Z</time></trkpt><trkpt lat="45.3259483" lon="7.76103"><ele>273.66666666666663</ele><time>2026-05-01T09:09:18.801Z</time></trkpt><trkpt lat="45.3257467" lon="7.7609783"><ele>274.0</ele><time>2026-05-01T09:09:19.8Z</time></trkpt><trkpt lat="45.3255467" lon="7.760925"><ele>273.3333333333333</ele><time>2026-05-01T09:09:20.801Z</time></trkpt><trkpt lat="45.3253417" lon="7.7608867"><ele>272.6666666666667</ele><time>2026-05-01T09:09:21.801Z</time></trkpt><trkpt lat="45.325135" lon="7.76085"><ele>272.0</ele><time>2026-05-01T09:09:22.801Z</time></trkpt><trkpt lat="45.32492" lon="7.7607917"><ele>271.6666666666667</ele><time>2026-05-01T09:09:23.801Z</time></trkpt><trkpt lat="45.32471" lon="7.760745"><ele>271.3333333333333</ele><time>2026-05-01T09:09:24.801Z</time></trkpt><trkpt lat="45.324505" lon="7.7606983"><ele>271.0</ele><time>2026-05-01T09:09:25.801Z</time></trkpt><trkpt lat="45.3242933" lon="7.7606533"><ele>271.0</ele><time>2026-05-01T09:09:26.801Z</time></trkpt><trkpt lat="45.3241083" lon="7.7606067"><ele>271.0</ele><time>2026-05-01T09:09:27.801Z</time></trkpt><trkpt lat="45.3239133" lon="7.7605533"><ele>271.0</ele><time>2026-05-01T09:09:28.801Z</time></trkpt><trkpt lat="45.32372" lon="7.7605033"><ele>270.3333333333333</ele><time>2026-05-01T09:09:29.801Z</time></trkpt><trkpt lat="45.3235183" lon="7.760455"><ele>269.6666666666667</ele><time>2026-05-01T09:09:30.801Z</time></trkpt><trkpt lat="45.3233167" lon="7.7604033"><ele>269.0</ele><time>2026-05-01T09:09:31.801Z</time></trkpt><trkpt lat="45.3231033" lon="7.7603617"><ele>269.33333333333337</ele><time>2026-05-01T09:09:32.801Z</time></trkpt><trkpt lat="45.3228983" lon="7.7603167"><ele>269.6666666666667</ele><time>2026-05-01T09:09:33.801Z</time></trkpt><trkpt lat="45.3226917" lon="7.7602767"><ele>270.0</ele><time>2026-05-01T09:09:34.801Z</time></trkpt><trkpt lat="45.32249" lon="7.7602333"><ele>270.0</ele><time>2026-05-01T09:09:35.801Z</time></trkpt><trkpt lat="45.3222817" lon="7.76018"><ele>270.0</ele><time>2026-05-01T09:09:36.801Z</time></trkpt><trkpt lat="45.3220833" lon="7.760135"><ele>270.0</ele><time>2026-05-01T09:09:37.801Z</time></trkpt><trkpt lat="45.3218817" lon="7.76008"><ele>270.0</ele><time>2026-05-01T09:09:38.801Z</time></trkpt><trkpt lat="45.321675" lon="7.7600317"><ele>270.0</ele><time>2026-05-01T09:09:39.801Z</time></trkpt><trkpt lat="45.3214733" lon="7.7599817"><ele>270.0</ele><time>2026-05-01T09:09:40.801Z</time></trkpt><trkpt lat="45.32127" lon="7.759935"><ele>269.6666666666667</ele><time>2026-05-01T09:09:41.801Z</time></trkpt><trkpt lat="45.321065" lon="7.75989"><ele>269.33333333333337</ele><time>2026-05-01T09:09:42.801Z</time></trkpt><trkpt lat="45.3208633" lon="7.7598433"><ele>269.0</ele><time>2026-05-01T09:09:43.801Z</time></trkpt><trkpt lat="45.32066" lon="7.7597983"><ele>269.0</ele><time>2026-05-01T09:09:44.801Z</time></trkpt><trkpt lat="45.3204567" lon="7.75975"><ele>269.0</ele><time>2026-05-01T09:09:45.801Z</time></trkpt><trkpt lat="45.32025" lon="7.759695"><ele>269.0</ele><time>2026-05-01T09:09:46.801Z</time></trkpt><trkpt lat="45.3200467" lon="7.7596467"><ele>269.0</ele><time>2026-05-01T09:09:47.801Z</time></trkpt><trkpt lat="45.31984" lon="7.7595967"><ele>269.0</ele><time>2026-05-01T09:09:48.8Z</time></trkpt><trkpt lat="45.3196333" lon="7.7595467"><ele>269.0</ele><time>2026-05-01T09:09:49.801Z</time></trkpt><trkpt lat="45.3194267" lon="7.7595067"><ele>268.6666666666667</ele><time>2026-05-01T09:09:50.801Z</time></trkpt><trkpt lat="45.31922" lon="7.7594583"><ele>268.3333333333333</ele><time>2026-05-01T09:09:51.801Z</time></trkpt><trkpt lat="45.3190067" lon="7.7594067"><ele>268.0</ele><time>2026-05-01T09:09:52.8Z</time></trkpt><trkpt lat="45.318805" lon="7.759355"><ele>267.66666666666663</ele><time>2026-05-01T09:09:53.801Z</time></trkpt><trkpt lat="45.3186" lon="7.75931"><ele>267.3333333333333</ele><time>2026-05-01T09:09:54.801Z</time></trkpt><trkpt lat="45.3183933" lon="7.7592583"><ele>267.0</ele><time>2026-05-01T09:09:55.801Z</time></trkpt><trkpt lat="45.3181883" lon="7.7592083"><ele>267.0</ele><time>2026-05-01T09:09:56.801Z</time></trkpt><trkpt lat="45.31798" lon="7.7591567"><ele>267.0</ele><time>2026-05-01T09:09:57.8Z</time></trkpt><trkpt lat="45.3177733" lon="7.7591133"><ele>267.0</ele><time>2026-05-01T09:09:58.801Z</time></trkpt><trkpt lat="45.3175667" lon="7.75907"><ele>267.0</ele><time>2026-05-01T09:09:59.801Z</time></trkpt><trkpt lat="45.3173517" lon="7.7590217"><ele>267.0</ele><time>2026-05-01T09:10:00.801Z</time></trkpt><trkpt lat="45.3171383" lon="7.7589717"><ele>267.0</ele><time>2026-05-01T09:10:01.801Z</time></trkpt><trkpt lat="45.3169267" lon="7.7589217"><ele>266.6666666666667</ele><time>2026-05-01T09:10:02.801Z</time></trkpt><trkpt lat="45.3167117" lon="7.758875"><ele>266.33333333333337</ele><time>2026-05-01T09:10:03.801Z</time></trkpt><trkpt lat="45.3165033" lon="7.7588233"><ele>266.0</ele><time>2026-05-01T09:10:04.801Z</time></trkpt><trkpt lat="45.3162983" lon="7.75877"><ele>266.0</ele><time>2026-05-01T09:10:05.801Z</time></trkpt><trkpt lat="45.3160867" lon="7.7587267"><ele>266.0</ele><time>2026-05-01T09:10:06.801Z</time></trkpt><trkpt lat="45.31588" lon="7.7586683"><ele>266.0</ele><time>2026-05-01T09:10:07.801Z</time></trkpt><trkpt lat="45.315675" lon="7.758625"><ele>265.33333333333337</ele><time>2026-05-01T09:10:08.801Z</time></trkpt><trkpt lat="45.315465" lon="7.75858"><ele>264.6666666666667</ele><time>2026-05-01T09:10:09.801Z</time></trkpt><trkpt lat="45.3152467" lon="7.7585317"><ele>264.0</ele><time>2026-05-01T09:10:10.801Z</time></trkpt><trkpt lat="45.3150367" lon="7.7584817"><ele>263.6666666666667</ele><time>2026-05-01T09:10:11.801Z</time></trkpt><trkpt lat="45.3148283" lon="7.7584317"><ele>263.33333333333337</ele><time>2026-05-01T09:10:12.801Z</time></trkpt><trkpt lat="45.3146167" lon="7.7583817"><ele>263.0</ele><time>2026-05-01T09:10:13.801Z</time></trkpt><trkpt lat="45.3144017" lon="7.7583217"><ele>263.0</ele><time>2026-05-01T09:10:14.801Z</time></trkpt><trkpt lat="45.3141983" lon="7.758275"><ele>263.0</ele><time>2026-05-01T09:10:15.801Z</time></trkpt><trkpt lat="45.3139917" lon="7.7582333"><ele>263.0</ele><time>2026-05-01T09:10:16.801Z</time></trkpt><trkpt lat="45.3137867" lon="7.7581883"><ele>263.0</ele><time>2026-05-01T09:10:17.801Z</time></trkpt><trkpt lat="45.3135767" lon="7.75814"><ele>263.0</ele><time>2026-05-01T09:10:18.801Z</time></trkpt><trkpt lat="45.3133767" lon="7.75808"><ele>263.0</ele><time>2026-05-01T09:10:19.801Z</time></trkpt><trkpt lat="45.3131783" lon="7.7580033"><ele>263.33333333333337</ele><time>2026-05-01T09:10:20.8Z</time></trkpt><trkpt lat="45.3129783" lon="7.7579067"><ele>263.6666666666667</ele><time>2026-05-01T09:10:21.8Z</time></trkpt><trkpt lat="45.3127767" lon="7.7578"><ele>264.0</ele><time>2026-05-01T09:10:22.801Z</time></trkpt><trkpt lat="45.3125783" lon="7.7576833"><ele>263.5</ele><time>2026-05-01T09:10:23.801Z</time></trkpt><trkpt lat="45.3123717" lon="7.7575533"><ele>263.0</ele><time>2026-05-01T09:10:24.801Z</time></trkpt><trkpt lat="45.3121667" lon="7.7574117"><ele>263.0</ele><time>2026-05-01T09:10:25.801Z</time></trkpt><trkpt lat="45.3119683" lon="7.7572783"><ele>263.0</ele><time>2026-05-01T09:10:26.801Z</time></trkpt><trkpt lat="45.3117617" lon="7.7571417"><ele>263.0</ele><time>2026-05-01T09:10:27.801Z</time></trkpt><trkpt lat="45.3115617" lon="7.756995"><ele>263.33333333333337</ele><time>2026-05-01T09:10:28.801Z</time></trkpt><trkpt lat="45.3113667" lon="7.75685"><ele>263.6666666666667</ele><time>2026-05-01T09:10:29.801Z</time></trkpt><trkpt lat="45.3111733" lon="7.7567033"><ele>264.0</ele><time>2026-05-01T09:10:30.801Z</time></trkpt><trkpt lat="45.3109767" lon="7.7565633"><ele>264.0</ele><time>2026-05-01T09:10:31.801Z</time></trkpt><trkpt lat="45.31078" lon="7.756415"><ele>264.0</ele><time>2026-05-01T09:10:32.801Z</time></trkpt><trkpt lat="45.3105867" lon="7.7562717"><ele>264.0</ele><time>2026-05-01T09:10:33.801Z</time></trkpt><trkpt lat="45.3103883" lon="7.7561217"><ele>263.6666666666667</ele><time>2026-05-01T09:10:34.801Z</time></trkpt><trkpt lat="45.3101883" lon="7.7559733"><ele>263.33333333333337</ele><time>2026-05-01T09:10:35.801Z</time></trkpt><trkpt lat="45.30999" lon="7.7558317"><ele>263.0</ele><time>2026-05-01T09:10:36.8Z</time></trkpt><trkpt lat="45.309795" lon="7.7557"><ele>261.33333333333337</ele><time>2026-05-01T09:10:37.801Z</time></trkpt><trkpt lat="45.3096" lon="7.7555667"><ele>259.6666666666667</ele><time>2026-05-01T09:10:38.801Z</time></trkpt><trkpt lat="45.3094" lon="7.75543"><ele>258.0</ele><time>2026-05-01T09:10:39.801Z</time></trkpt><trkpt lat="45.309205" lon="7.7552867"><ele>259.0</ele><time>2026-05-01T09:10:40.801Z</time></trkpt><trkpt lat="45.3090133" lon="7.755135"><ele>260.0</ele><time>2026-05-01T09:10:41.801Z</time></trkpt><trkpt lat="45.30882" lon="7.7549917"><ele>261.0</ele><time>2026-05-01T09:10:42.801Z</time></trkpt><trkpt lat="45.3086283" lon="7.7548483"><ele>262.0</ele><time>2026-05-01T09:10:43.801Z</time></trkpt><trkpt lat="45.30844" lon="7.754715"><ele>263.0</ele><time>2026-05-01T09:10:44.801Z</time></trkpt><trkpt lat="45.3082533" lon="7.7545883"><ele>264.0</ele><time>2026-05-01T09:10:45.801Z</time></trkpt><trkpt lat="45.3080667" lon="7.7544567"><ele>264.0</ele><time>2026-05-01T09:10:46.801Z</time></trkpt><trkpt lat="45.30788" lon="7.754325"><ele>264.0</ele><time>2026-05-01T09:10:47.801Z</time></trkpt><trkpt lat="45.3076983" lon="7.7541883"><ele>264.0</ele><time>2026-05-01T09:10:48.8Z</time></trkpt><trkpt lat="45.307525" lon="7.7540333"><ele>264.0</ele><time>2026-05-01T09:10:49.801Z</time></trkpt><trkpt lat="45.30736" lon="7.7538783"><ele>264.0</ele><time>2026-05-01T09:10:50.801Z</time></trkpt><trkpt lat="45.3071967" lon="7.7536967"><ele>264.0</ele><time>2026-05-01T09:10:51.801Z</time></trkpt><trkpt lat="45.3070317" lon="7.7534933"><ele>263.6666666666667</ele><time>2026-05-01T09:10:52.801Z</time></trkpt><trkpt lat="45.306875" lon="7.753275"><ele>263.33333333333337</ele><time>2026-05-01T09:10:53.8Z</time></trkpt><trkpt lat="45.3067383" lon="7.7530383"><ele>263.0</ele><time>2026-05-01T09:10:54.801Z</time></trkpt><trkpt lat="45.306615" lon="7.7527767"><ele>263.33333333333337</ele><time>2026-05-01T09:10:55.801Z</time></trkpt><trkpt lat="45.30651" lon="7.752515"><ele>263.6666666666667</ele><time>2026-05-01T09:10:56.801Z</time></trkpt><trkpt lat="45.3064167" lon="7.7522533"><ele>264.0</ele><time>2026-05-01T09:10:57.801Z</time></trkpt><trkpt lat="45.3063367" lon="7.7519783"><ele>263.6666666666667</ele><time>2026-05-01T09:10:58.801Z</time></trkpt><trkpt lat="45.3062683" lon="7.7516967"><ele>263.33333333333337</ele><time>2026-05-01T09:10:59.801Z</time></trkpt><trkpt lat="45.30621" lon="7.7514067"><ele>263.0</ele><time>2026-05-01T09:11:00.801Z</time></trkpt><trkpt lat="45.3061467" lon="7.7511067"><ele>263.6666666666667</ele><time>2026-05-01T09:11:01.801Z</time></trkpt><trkpt lat="45.3060817" lon="7.75081"><ele>264.3333333333333</ele><time>2026-05-01T09:11:02.801Z</time></trkpt><trkpt lat="45.306015" lon="7.75052"><ele>265.0</ele><time>2026-05-01T09:11:03.801Z</time></trkpt><trkpt lat="45.3059583" lon="7.750235"><ele>266.3333333333333</ele><time>2026-05-01T09:11:04.801Z</time></trkpt><trkpt lat="45.3059133" lon="7.7499533"><ele>267.6666666666667</ele><time>2026-05-01T09:11:05.801Z</time></trkpt><trkpt lat="45.3058683" lon="7.7496883"><ele>269.0</ele><time>2026-05-01T09:11:06.801Z</time></trkpt><trkpt lat="45.3058217" lon="7.749435"><ele>271.33333333333337</ele><time>2026-05-01T09:11:07.801Z</time></trkpt><trkpt lat="45.3057733" lon="7.7492017"><ele>273.6666666666667</ele><time>2026-05-01T09:11:08.801Z</time></trkpt><trkpt lat="45.3057283" lon="7.748975"><ele>276.0</ele><time>2026-05-01T09:11:09.801Z</time></trkpt><trkpt lat="45.3056833" lon="7.7487667"><ele>276.0</ele><time>2026-05-01T09:11:10.801Z</time></trkpt><trkpt lat="45.3056433" lon="7.7485517"><ele>276.0</ele><time>2026-05-01T09:11:11.801Z</time></trkpt><trkpt lat="45.30561" lon="7.7483233"><ele>276.0</ele><time>2026-05-01T09:11:12.801Z</time></trkpt><trkpt lat="45.3055767" lon="7.7481067"><ele>275.75</ele><time>2026-05-01T09:11:13.801Z</time></trkpt><trkpt lat="45.305555" lon="7.7478967"><ele>275.5</ele><time>2026-05-01T09:11:14.801Z</time></trkpt><trkpt lat="45.3055117" lon="7.7477"><ele>275.25</ele><time>2026-05-01T09:11:15.801Z</time></trkpt><trkpt lat="45.3054733" lon="7.7475367"><ele>275.0</ele><time>2026-05-01T09:11:16.801Z</time></trkpt><trkpt lat="45.3054433" lon="7.747425"><ele>275.33333333333337</ele><time>2026-05-01T09:11:17.801Z</time></trkpt><trkpt lat="45.30543" lon="7.747305"><ele>275.6666666666667</ele><time>2026-05-01T09:11:18.8Z</time></trkpt><trkpt lat="45.3054183" lon="7.7471917"><ele>276.0</ele><time>2026-05-01T09:11:19.801Z</time></trkpt><trkpt lat="45.3054117" lon="7.74709"><ele>276.3333333333333</ele><time>2026-05-01T09:11:20.801Z</time></trkpt><trkpt lat="45.3053933" lon="7.746955"><ele>276.66666666666663</ele><time>2026-05-01T09:11:22.801Z</time></trkpt><trkpt lat="45.3053883" lon="7.7468083"><ele>277.0</ele><time>2026-05-01T09:11:24.801Z</time></trkpt><trkpt lat="45.30538" lon="7.7466917"><ele>277.3333333333333</ele><time>2026-05-01T09:11:27.801Z</time></trkpt><trkpt lat="45.305385" lon="7.746595"><ele>277.66666666666663</ele><time>2026-05-01T09:11:30.801Z</time></trkpt><trkpt lat="45.3052917" lon="7.7465367"><ele>278.0</ele><time>2026-05-01T09:18:24.801Z</time></trkpt><trkpt lat="45.3052517" lon="7.7464617"><ele>278.3333333333333</ele><time>2026-05-01T09:24:17.799Z</time></trkpt><trkpt lat="45.305255" lon="7.7463667"><ele>278.6666666666667</ele><time>2026-05-01T09:24:20.799Z</time></trkpt><trkpt lat="45.305195" lon="7.7463067"><ele>279.0</ele><time>2026-05-01T09:24:25.799Z</time></trkpt><trkpt lat="45.3051483" lon="7.7463933"><ele>279.0</ele><time>2026-05-01T09:24:29.799Z</time></trkpt><trkpt lat="45.305155" lon="7.7464917"><ele>279.0</ele><time>2026-05-01T09:24:31.799Z</time></trkpt><trkpt lat="45.3051633" lon="7.7466183"><ele>279.0</ele><time>2026-05-01T09:24:34.798Z</time></trkpt><trkpt lat="45.3051883" lon="7.7467117"><ele>279.0</ele><time>2026-05-01T09:24:37.799Z</time></trkpt><trkpt lat="45.3052233" lon="7.74684"><ele>279.0</ele><time>2026-05-01T09:24:52.799Z</time></trkpt><trkpt lat="45.305225" lon="7.7469317"><ele>279.0</ele><time>2026-05-01T09:24:53.799Z</time></trkpt><trkpt lat="45.30524" lon="7.7470267"><ele>278.59999999999997</ele><time>2026-05-01T09:24:54.799Z</time></trkpt><trkpt lat="45.305255" lon="7.7471433"><ele>278.2</ele><time>2026-05-01T09:24:55.799Z</time></trkpt><trkpt lat="45.30528" lon="7.7472617"><ele>277.79999999999995</ele><time>2026-05-01T09:24:56.798Z</time></trkpt><trkpt lat="45.3053067" lon="7.74739"><ele>277.4</ele><time>2026-05-01T09:24:57.799Z</time></trkpt><trkpt lat="45.3053367" lon="7.7475433"><ele>277.0</ele><time>2026-05-01T09:24:58.799Z</time></trkpt><trkpt lat="45.3053683" lon="7.7476983"><ele>276.5</ele><time>2026-05-01T09:24:59.799Z</time></trkpt><trkpt lat="45.305415" lon="7.74785"><ele>276.0</ele><time>2026-05-01T09:25:00.799Z</time></trkpt><trkpt lat="45.3054617" lon="7.748"><ele>275.5</ele><time>2026-05-01T09:25:01.798Z</time></trkpt><trkpt lat="45.3054883" lon="7.7481567"><ele>275.0</ele><time>2026-05-01T09:25:02.799Z</time></trkpt><trkpt lat="45.30552" lon="7.748305"><ele>275.0</ele><time>2026-05-01T09:25:03.799Z</time></trkpt><trkpt lat="45.30556" lon="7.74842"><ele>275.0</ele><time>2026-05-01T09:25:04.799Z</time></trkpt><trkpt lat="45.3056" lon="7.748545"><ele>275.0</ele><time>2026-05-01T09:25:05.799Z</time></trkpt><trkpt lat="45.3056333" lon="7.7486783"><ele>275.0</ele><time>2026-05-01T09:25:06.799Z</time></trkpt><trkpt lat="45.305665" lon="7.748825"><ele>275.0</ele><time>2026-05-01T09:25:07.799Z</time></trkpt><trkpt lat="45.3057267" lon="7.7489833"><ele>275.25</ele><time>2026-05-01T09:25:08.799Z</time></trkpt><trkpt lat="45.30574" lon="7.7491367"><ele>275.5</ele><time>2026-05-01T09:25:09.799Z</time></trkpt><trkpt lat="45.3057583" lon="7.7492983"><ele>275.75</ele><time>2026-05-01T09:25:10.799Z</time></trkpt><trkpt lat="45.305795" lon="7.749445"><ele>276.0</ele><time>2026-05-01T09:25:11.799Z</time></trkpt><trkpt lat="45.3058317" lon="7.7496217"><ele>274.25</ele><time>2026-05-01T09:25:12.799Z</time></trkpt><trkpt lat="45.3058583" lon="7.749795"><ele>272.5</ele><time>2026-05-01T09:25:13.799Z</time></trkpt><trkpt lat="45.3058917" lon="7.74997"><ele>270.75</ele><time>2026-05-01T09:25:14.799Z</time></trkpt><trkpt lat="45.3059283" lon="7.750145"><ele>269.0</ele><time>2026-05-01T09:25:15.799Z</time></trkpt><trkpt lat="45.3059667" lon="7.7503233"><ele>268.0</ele><time>2026-05-01T09:25:16.799Z</time></trkpt><trkpt lat="45.306005" lon="7.7505133"><ele>267.0</ele><time>2026-05-01T09:25:17.799Z</time></trkpt><trkpt lat="45.30604" lon="7.7506917"><ele>266.0</ele><time>2026-05-01T09:25:18.799Z</time></trkpt><trkpt lat="45.3060783" lon="7.7508767"><ele>265.0</ele><time>2026-05-01T09:25:19.799Z</time></trkpt><trkpt lat="45.3061217" lon="7.75105"><ele>264.5</ele><time>2026-05-01T09:25:20.799Z</time></trkpt><trkpt lat="45.3061683" lon="7.7512233"><ele>264.0</ele><time>2026-05-01T09:25:21.799Z</time></trkpt><trkpt lat="45.306205" lon="7.7513983"><ele>263.5</ele><time>2026-05-01T09:25:22.799Z</time></trkpt><trkpt lat="45.30624" lon="7.75158"><ele>263.0</ele><time>2026-05-01T09:25:23.799Z</time></trkpt><trkpt lat="45.306275" lon="7.7517617"><ele>262.75</ele><time>2026-05-01T09:25:24.799Z</time></trkpt><trkpt lat="45.30631" lon="7.7519417"><ele>262.5</ele><time>2026-05-01T09:25:25.799Z</time></trkpt><trkpt lat="45.3063567" lon="7.7521233"><ele>262.25</ele><time>2026-05-01T09:25:26.799Z</time></trkpt><trkpt lat="45.30641" lon="7.7523"><ele>262.0</ele><time>2026-05-01T09:25:27.799Z</time></trkpt><trkpt lat="45.3064683" lon="7.7524767"><ele>262.25</ele><time>2026-05-01T09:25:28.799Z</time></trkpt><trkpt lat="45.3065383" lon="7.7526467"><ele>262.5</ele><time>2026-05-01T09:25:29.799Z</time></trkpt><trkpt lat="45.306605" lon="7.7528033"><ele>262.75</ele><time>2026-05-01T09:25:30.799Z</time></trkpt><trkpt lat="45.30667" lon="7.75295"><ele>263.0</ele><time>2026-05-01T09:25:31.799Z</time></trkpt><trkpt lat="45.3067333" lon="7.7530733"><ele>263.0</ele><time>2026-05-01T09:25:32.798Z</time></trkpt><trkpt lat="45.30677" lon="7.7531717"><ele>263.0</ele><time>2026-05-01T09:25:33.799Z</time></trkpt><trkpt lat="45.306785" lon="7.7532617"><ele>263.0</ele><time>2026-05-01T09:25:34.799Z</time></trkpt><trkpt lat="45.3067167" lon="7.7534183"><ele>263.0</ele><time>2026-05-01T09:25:36.799Z</time></trkpt><trkpt lat="45.3066383" lon="7.7535133"><ele>263.0</ele><time>2026-05-01T09:25:37.799Z</time></trkpt><trkpt lat="45.3065333" lon="7.7536217"><ele>262.6666666666667</ele><time>2026-05-01T09:25:38.799Z</time></trkpt><trkpt lat="45.3064083" lon="7.753745"><ele>262.3333333333333</ele><time>2026-05-01T09:25:39.799Z</time></trkpt><trkpt lat="45.3062833" lon="7.753875"><ele>262.0</ele><time>2026-05-01T09:25:40.799Z</time></trkpt><trkpt lat="45.3061733" lon="7.7540083"><ele>262.0</ele><time>2026-05-01T09:25:41.799Z</time></trkpt><trkpt lat="45.3060667" lon="7.7541317"><ele>262.0</ele><time>2026-05-01T09:25:42.798Z</time></trkpt><trkpt lat="45.30595" lon="7.754275"><ele>262.0</ele><time>2026-05-01T09:25:43.799Z</time></trkpt><trkpt lat="45.30583" lon="7.7544133"><ele>262.0</ele><time>2026-05-01T09:25:44.799Z</time></trkpt><trkpt lat="45.305715" lon="7.7545717"><ele>261.75</ele><time>2026-05-01T09:25:45.799Z</time></trkpt><trkpt lat="45.3056117" lon="7.7547217"><ele>261.5</ele><time>2026-05-01T09:25:46.799Z</time></trkpt><trkpt lat="45.305515" lon="7.75487"><ele>261.25</ele><time>2026-05-01T09:25:47.799Z</time></trkpt><trkpt lat="45.3054083" lon="7.7550267"><ele>261.0</ele><time>2026-05-01T09:25:48.799Z</time></trkpt><trkpt lat="45.3053017" lon="7.7551733"><ele>260.3333333333333</ele><time>2026-05-01T09:25:49.799Z</time></trkpt><trkpt lat="45.3051933" lon="7.75532"><ele>259.66666666666663</ele><time>2026-05-01T09:25:50.799Z</time></trkpt><trkpt lat="45.3050767" lon="7.75548"><ele>259.0</ele><time>2026-05-01T09:25:51.799Z</time></trkpt><trkpt lat="45.3049733" lon="7.7556333"><ele>259.0</ele><time>2026-05-01T09:25:52.799Z</time></trkpt><trkpt lat="45.304875" lon="7.7557833"><ele>259.0</ele><time>2026-05-01T09:25:53.798Z</time></trkpt><trkpt lat="45.3047683" lon="7.7559267"><ele>259.0</ele><time>2026-05-01T09:25:54.799Z</time></trkpt><trkpt lat="45.3046583" lon="7.7560683"><ele>259.0</ele><time>2026-05-01T09:25:55.799Z</time></trkpt><trkpt lat="45.3045533" lon="7.7562117"><ele>259.0</ele><time>2026-05-01T09:25:56.799Z</time></trkpt><trkpt lat="45.3044433" lon="7.75636"><ele>259.0</ele><time>2026-05-01T09:25:57.799Z</time></trkpt><trkpt lat="45.3043417" lon="7.756505"><ele>259.0</ele><time>2026-05-01T09:25:58.799Z</time></trkpt><trkpt lat="45.3042483" lon="7.75663"><ele>259.0</ele><time>2026-05-01T09:25:59.799Z</time></trkpt><trkpt lat="45.304165" lon="7.7567467"><ele>259.0</ele><time>2026-05-01T09:26:00.799Z</time></trkpt><trkpt lat="45.3040967" lon="7.756845"><ele>259.0</ele><time>2026-05-01T09:26:01.799Z</time></trkpt><trkpt lat="45.3040383" lon="7.7569217"><ele>259.0</ele><time>2026-05-01T09:26:02.799Z</time></trkpt><trkpt lat="45.303995" lon="7.757065"><ele>259.0</ele><time>2026-05-01T09:26:04.799Z</time></trkpt><trkpt lat="45.3039967" lon="7.7571683"><ele>259.0</ele><time>2026-05-01T09:26:05.799Z</time></trkpt><trkpt lat="45.3040083" lon="7.757295"><ele>259.0</ele><time>2026-05-01T09:26:06.799Z</time></trkpt><trkpt lat="45.304045" lon="7.757465"><ele>258.75</ele><time>2026-05-01T09:26:07.799Z</time></trkpt><trkpt lat="45.30409" lon="7.757645"><ele>258.5</ele><time>2026-05-01T09:26:08.799Z</time></trkpt><trkpt lat="45.3041317" lon="7.757845"><ele>258.25</ele><time>2026-05-01T09:26:09.799Z</time></trkpt><trkpt lat="45.3041733" lon="7.7580517"><ele>258.0</ele><time>2026-05-01T09:26:10.799Z</time></trkpt><trkpt lat="45.3042067" lon="7.7582617"><ele>257.6666666666667</ele><time>2026-05-01T09:26:11.799Z</time></trkpt><trkpt lat="45.3042383" lon="7.7584783"><ele>257.33333333333337</ele><time>2026-05-01T09:26:12.799Z</time></trkpt><trkpt lat="45.3042817" lon="7.7587067"><ele>257.0</ele><time>2026-05-01T09:26:13.799Z</time></trkpt><trkpt lat="45.3043217" lon="7.7589433"><ele>257.0</ele><time>2026-05-01T09:26:14.799Z</time></trkpt><trkpt lat="45.3043617" lon="7.759175"><ele>257.0</ele><time>2026-05-01T09:26:15.799Z</time></trkpt><trkpt lat="45.3043917" lon="7.759415"><ele>257.0</ele><time>2026-05-01T09:26:16.799Z</time></trkpt><trkpt lat="45.3044217" lon="7.75964"><ele>257.25</ele><time>2026-05-01T09:26:17.799Z</time></trkpt><trkpt lat="45.3044517" lon="7.75984"><ele>257.5</ele><time>2026-05-01T09:26:18.799Z</time></trkpt><trkpt lat="45.3044717" lon="7.76002"><ele>257.75</ele><time>2026-05-01T09:26:19.799Z</time></trkpt><trkpt lat="45.3044883" lon="7.7601833"><ele>258.0</ele><time>2026-05-01T09:26:20.799Z</time></trkpt><trkpt lat="45.3044967" lon="7.7603283"><ele>258.0</ele><time>2026-05-01T09:26:21.799Z</time></trkpt><trkpt lat="45.3044817" lon="7.760465"><ele>258.0</ele><time>2026-05-01T09:26:22.799Z</time></trkpt><trkpt lat="45.30444" lon="7.7606"><ele>258.0</ele><time>2026-05-01T09:26:23.799Z</time></trkpt><trkpt lat="45.3043733" lon="7.760745"><ele>258.0</ele><time>2026-05-01T09:26:24.798Z</time></trkpt><trkpt lat="45.3042833" lon="7.76089"><ele>258.3333333333333</ele><time>2026-05-01T09:26:25.799Z</time></trkpt><trkpt lat="45.3041883" lon="7.76105"><ele>258.66666666666663</ele><time>2026-05-01T09:26:26.798Z</time></trkpt><trkpt lat="45.3040783" lon="7.7612217"><ele>259.0</ele><time>2026-05-01T09:26:27.799Z</time></trkpt><trkpt lat="45.3039867" lon="7.761375"><ele>258.75</ele><time>2026-05-01T09:26:28.799Z</time></trkpt><trkpt lat="45.303895" lon="7.761505"><ele>258.5</ele><time>2026-05-01T09:26:29.799Z</time></trkpt><trkpt lat="45.303805" lon="7.7616267"><ele>258.25</ele><time>2026-05-01T09:26:30.799Z</time></trkpt><trkpt lat="45.3037083" lon="7.761735"><ele>258.0</ele><time>2026-05-01T09:26:31.799Z</time></trkpt><trkpt lat="45.3036067" lon="7.7618283"><ele>257.8</ele><time>2026-05-01T09:26:32.799Z</time></trkpt><trkpt lat="45.303515" lon="7.7619183"><ele>257.6</ele><time>2026-05-01T09:26:33.799Z</time></trkpt><trkpt lat="45.303445" lon="7.7619983"><ele>257.4</ele><time>2026-05-01T09:26:34.799Z</time></trkpt><trkpt lat="45.3033833" lon="7.7620633"><ele>257.2</ele><time>2026-05-01T09:26:35.799Z</time></trkpt><trkpt lat="45.3033033" lon="7.76217"><ele>257.0</ele><time>2026-05-01T09:26:37.799Z</time></trkpt><trkpt lat="45.30327" lon="7.7623083"><ele>257.0</ele><time>2026-05-01T09:26:39.799Z</time></trkpt><trkpt lat="45.3032583" lon="7.76241"><ele>257.0</ele><time>2026-05-01T09:26:41.799Z</time></trkpt><trkpt lat="45.3032283" lon="7.7625733"><ele>257.0</ele><time>2026-05-01T09:28:07.799Z</time></trkpt><trkpt lat="45.3031917" lon="7.7626633"><ele>257.0</ele><time>2026-05-01T09:28:08.799Z</time></trkpt><trkpt lat="45.3031417" lon="7.762735"><ele>257.0</ele><time>2026-05-01T09:28:09.799Z</time></trkpt><trkpt lat="45.303085" lon="7.7628067"><ele>257.0</ele><time>2026-05-01T09:28:10.799Z</time></trkpt><trkpt lat="45.303035" lon="7.762885"><ele>257.0</ele><time>2026-05-01T09:28:11.799Z</time></trkpt><trkpt lat="45.303" lon="7.7629633"><ele>257.0</ele><time>2026-05-01T09:28:12.799Z</time></trkpt><trkpt lat="45.3029833" lon="7.76305"><ele>257.0</ele><time>2026-05-01T09:28:13.799Z</time></trkpt><trkpt lat="45.3029883" lon="7.7631633"><ele>257.0</ele><time>2026-05-01T09:28:14.799Z</time></trkpt><trkpt lat="45.303005" lon="7.763305"><ele>257.0</ele><time>2026-05-01T09:28:15.799Z</time></trkpt><trkpt lat="45.3030433" lon="7.7635017"><ele>257.33333333333337</ele><time>2026-05-01T09:28:16.799Z</time></trkpt><trkpt lat="45.3031117" lon="7.7637333"><ele>257.6666666666667</ele><time>2026-05-01T09:28:17.799Z</time></trkpt><trkpt lat="45.303175" lon="7.76394"><ele>258.0</ele><time>2026-05-01T09:28:18.799Z</time></trkpt><trkpt lat="45.3032267" lon="7.7641183"><ele>258.0</ele><time>2026-05-01T09:28:19.799Z</time></trkpt><trkpt lat="45.3032667" lon="7.7642783"><ele>258.0</ele><time>2026-05-01T09:28:20.799Z</time></trkpt><trkpt lat="45.3032967" lon="7.76445"><ele>258.0</ele><time>2026-05-01T09:28:21.799Z</time></trkpt><trkpt lat="45.3033167" lon="7.7646417"><ele>258.0</ele><time>2026-05-01T09:28:22.799Z</time></trkpt><trkpt lat="45.30332" lon="7.76484"><ele>257.8</ele><time>2026-05-01T09:28:23.799Z</time></trkpt><trkpt lat="45.3033017" lon="7.765045"><ele>257.6</ele><time>2026-05-01T09:28:24.798Z</time></trkpt><trkpt lat="45.3032667" lon="7.7652033"><ele>257.4</ele><time>2026-05-01T09:28:25.798Z</time></trkpt><trkpt lat="45.3032383" lon="7.7653183"><ele>257.2</ele><time>2026-05-01T09:28:26.798Z</time></trkpt><trkpt lat="45.3032" lon="7.76542"><ele>257.0</ele><time>2026-05-01T09:28:27.797Z</time></trkpt><trkpt lat="45.30314" lon="7.7655167"><ele>257.0</ele><time>2026-05-01T09:28:28.798Z</time></trkpt><trkpt lat="45.3030617" lon="7.7656217"><ele>257.0</ele><time>2026-05-01T09:28:29.798Z</time></trkpt><trkpt lat="45.302965" lon="7.7657317"><ele>257.0</ele><time>2026-05-01T09:28:30.798Z</time></trkpt><trkpt lat="45.3028633" lon="7.7658383"><ele>257.0</ele><time>2026-05-01T09:28:31.798Z</time></trkpt><trkpt lat="45.30278" lon="7.7659483"><ele>257.2</ele><time>2026-05-01T09:28:32.797Z</time></trkpt><trkpt lat="45.3027233" lon="7.76606"><ele>257.4</ele><time>2026-05-01T09:28:33.797Z</time></trkpt><trkpt lat="45.3026883" lon="7.7661817"><ele>257.6</ele><time>2026-05-01T09:28:34.798Z</time></trkpt><trkpt lat="45.3026667" lon="7.7663267"><ele>257.8</ele><time>2026-05-01T09:28:35.798Z</time></trkpt><trkpt lat="45.302655" lon="7.7664867"><ele>258.0</ele><time>2026-05-01T09:28:36.798Z</time></trkpt><trkpt lat="45.3026433" lon="7.7666233"><ele>258.0</ele><time>2026-05-01T09:28:37.798Z</time></trkpt><trkpt lat="45.302625" lon="7.7667517"><ele>258.0</ele><time>2026-05-01T09:28:38.798Z</time></trkpt><trkpt lat="45.30259" lon="7.7668567"><ele>258.0</ele><time>2026-05-01T09:28:39.798Z</time></trkpt><trkpt lat="45.3025317" lon="7.7669533"><ele>258.0</ele><time>2026-05-01T09:28:40.798Z</time></trkpt><trkpt lat="45.3024467" lon="7.7670583"><ele>258.0</ele><time>2026-05-01T09:28:41.798Z</time></trkpt><trkpt lat="45.3023417" lon="7.7671767"><ele>258.0</ele><time>2026-05-01T09:28:42.798Z</time></trkpt><trkpt lat="45.3022217" lon="7.7673217"><ele>258.0</ele><time>2026-05-01T09:28:43.798Z</time></trkpt><trkpt lat="45.3020533" lon="7.7674983"><ele>258.0</ele><time>2026-05-01T09:28:44.798Z</time></trkpt><trkpt lat="45.301875" lon="7.7676717"><ele>257.0</ele><time>2026-05-01T09:28:45.798Z</time></trkpt><trkpt lat="45.3016833" lon="7.767865"><ele>256.0</ele><time>2026-05-01T09:28:46.798Z</time></trkpt><trkpt lat="45.301485" lon="7.768045"><ele>255.5</ele><time>2026-05-01T09:28:47.798Z</time></trkpt><trkpt lat="45.3012583" lon="7.768235"><ele>255.0</ele><time>2026-05-01T09:28:48.798Z</time></trkpt><trkpt lat="45.3010517" lon="7.7684167"><ele>254.0</ele><time>2026-05-01T09:28:49.798Z</time></trkpt><trkpt lat="45.3008417" lon="7.7686067"><ele>253.0</ele><time>2026-05-01T09:28:50.798Z</time></trkpt><trkpt lat="45.3006233" lon="7.7688067"><ele>253.0</ele><time>2026-05-01T09:28:51.798Z</time></trkpt><trkpt lat="45.3004117" lon="7.76901"><ele>253.0</ele><time>2026-05-01T09:28:52.798Z</time></trkpt><trkpt lat="45.300215" lon="7.7692"><ele>253.0</ele><time>2026-05-01T09:28:53.798Z</time></trkpt><trkpt lat="45.3000317" lon="7.769375"><ele>253.0</ele><time>2026-05-01T09:28:54.798Z</time></trkpt><trkpt lat="45.2998567" lon="7.7695433"><ele>253.0</ele><time>2026-05-01T09:28:55.798Z</time></trkpt><trkpt lat="45.29969" lon="7.769705"><ele>253.0</ele><time>2026-05-01T09:28:56.798Z</time></trkpt><trkpt lat="45.2995267" lon="7.7698633"><ele>253.0</ele><time>2026-05-01T09:28:57.798Z</time></trkpt><trkpt lat="45.2993583" lon="7.77002"><ele>253.0</ele><time>2026-05-01T09:28:58.798Z</time></trkpt><trkpt lat="45.29919" lon="7.7701717"><ele>253.33333333333331</ele><time>2026-05-01T09:28:59.798Z</time></trkpt><trkpt lat="45.2990383" lon="7.7703183"><ele>253.66666666666669</ele><time>2026-05-01T09:29:00.798Z</time></trkpt><trkpt lat="45.2988967" lon="7.77046"><ele>254.0</ele><time>2026-05-01T09:29:01.798Z</time></trkpt><trkpt lat="45.2987483" lon="7.7705933"><ele>254.0</ele><time>2026-05-01T09:29:02.798Z</time></trkpt><trkpt lat="45.2985983" lon="7.7707233"><ele>254.0</ele><time>2026-05-01T09:29:03.798Z</time></trkpt><trkpt lat="45.29844" lon="7.7708633"><ele>254.0</ele><time>2026-05-01T09:29:04.797Z</time></trkpt><trkpt lat="45.29829" lon="7.7709983"><ele>254.0</ele><time>2026-05-01T09:29:05.798Z</time></trkpt><trkpt lat="45.298145" lon="7.7711417"><ele>254.0</ele><time>2026-05-01T09:29:06.798Z</time></trkpt><trkpt lat="45.2980217" lon="7.7712767"><ele>254.0</ele><time>2026-05-01T09:29:07.798Z</time></trkpt><trkpt lat="45.29788" lon="7.771435"><ele>252.66666666666669</ele><time>2026-05-01T09:29:08.798Z</time></trkpt><trkpt lat="45.2977417" lon="7.771595"><ele>251.33333333333331</ele><time>2026-05-01T09:29:09.798Z</time></trkpt><trkpt lat="45.2976033" lon="7.77173"><ele>250.0</ele><time>2026-05-01T09:29:10.798Z</time></trkpt><trkpt lat="45.2974767" lon="7.7718733"><ele>250.0</ele><time>2026-05-01T09:29:11.798Z</time></trkpt><trkpt lat="45.2973567" lon="7.7720067"><ele>250.0</ele><time>2026-05-01T09:29:12.798Z</time></trkpt><trkpt lat="45.2972267" lon="7.7721367"><ele>250.0</ele><time>2026-05-01T09:29:13.797Z</time></trkpt><trkpt lat="45.29709" lon="7.772275"><ele>249.66666666666666</ele><time>2026-05-01T09:29:14.798Z</time></trkpt><trkpt lat="45.2969533" lon="7.7724017"><ele>249.33333333333331</ele><time>2026-05-01T09:29:15.798Z</time></trkpt><trkpt lat="45.2968083" lon="7.7725383"><ele>249.0</ele><time>2026-05-01T09:29:16.798Z</time></trkpt><trkpt lat="45.296685" lon="7.772655"><ele>248.75</ele><time>2026-05-01T09:29:17.798Z</time></trkpt><trkpt lat="45.2965567" lon="7.7727633"><ele>248.5</ele><time>2026-05-01T09:29:18.798Z</time></trkpt><trkpt lat="45.2964683" lon="7.77284"><ele>248.25</ele><time>2026-05-01T09:29:19.798Z</time></trkpt><trkpt lat="45.296385" lon="7.7729"><ele>248.0</ele><time>2026-05-01T09:29:20.798Z</time></trkpt><trkpt lat="45.2962983" lon="7.7729817"><ele>248.0</ele><time>2026-05-01T09:29:21.798Z</time></trkpt><trkpt lat="45.2962033" lon="7.7730767"><ele>248.0</ele><time>2026-05-01T09:29:22.798Z</time></trkpt><trkpt lat="45.2960917" lon="7.7731783"><ele>248.0</ele><time>2026-05-01T09:29:23.798Z</time></trkpt><trkpt lat="45.2959917" lon="7.77328"><ele>248.0</ele><time>2026-05-01T09:29:24.798Z</time></trkpt><trkpt lat="45.2959067" lon="7.773365"><ele>248.00000000000003</ele><time>2026-05-01T09:29:25.798Z</time></trkpt><trkpt lat="45.2958217" lon="7.7734267"><ele>248.0</ele><time>2026-05-01T09:29:26.798Z</time></trkpt><trkpt lat="45.295755" lon="7.7734883"><ele>248.0</ele><time>2026-05-01T09:29:27.798Z</time></trkpt><trkpt lat="45.295695" lon="7.7735467"><ele>248.0</ele><time>2026-05-01T09:29:28.798Z</time></trkpt><trkpt lat="45.295645" lon="7.7736183"><ele>248.00000000000003</ele><time>2026-05-01T09:29:29.798Z</time></trkpt><trkpt lat="45.2956217" lon="7.7737567"><ele>248.0</ele><time>2026-05-01T09:29:31.798Z</time></trkpt><trkpt lat="45.2956617" lon="7.7738567"><ele>247.60000000000002</ele><time>2026-05-01T09:29:34.798Z</time></trkpt><trkpt lat="45.2957317" lon="7.7739583"><ele>247.20000000000002</ele><time>2026-05-01T09:29:40.798Z</time></trkpt><trkpt lat="45.29576" lon="7.7740583"><ele>246.8</ele><time>2026-05-01T09:29:44.798Z</time></trkpt><trkpt lat="45.2957917" lon="7.774145"><ele>246.4</ele><time>2026-05-01T09:29:46.798Z</time></trkpt><trkpt lat="45.2958583" lon="7.7743183"><ele>246.0</ele><time>2026-05-01T09:29:48.798Z</time></trkpt><trkpt lat="45.295925" lon="7.7744383"><ele>245.8</ele><time>2026-05-01T09:29:49.798Z</time></trkpt><trkpt lat="45.2960033" lon="7.7745833"><ele>245.60000000000002</ele><time>2026-05-01T09:29:50.798Z</time></trkpt><trkpt lat="45.29607" lon="7.774715"><ele>245.4</ele><time>2026-05-01T09:29:51.798Z</time></trkpt><trkpt lat="45.2961183" lon="7.77482"><ele>245.2</ele><time>2026-05-01T09:29:52.798Z</time></trkpt><trkpt lat="45.2961417" lon="7.7749117"><ele>245.0</ele><time>2026-05-01T09:29:53.798Z</time></trkpt><trkpt lat="45.2961133" lon="7.7751033"><ele>244.75</ele><time>2026-05-01T09:29:55.798Z</time></trkpt><trkpt lat="45.29607" lon="7.77522"><ele>244.5</ele><time>2026-05-01T09:29:56.798Z</time></trkpt><trkpt lat="45.2959983" lon="7.77535"><ele>244.25</ele><time>2026-05-01T09:29:57.798Z</time></trkpt><trkpt lat="45.2959033" lon="7.7755033"><ele>244.0</ele><time>2026-05-01T09:29:58.797Z</time></trkpt><trkpt lat="45.2957983" lon="7.7756517"><ele>244.0</ele><time>2026-05-01T09:29:59.798Z</time></trkpt><trkpt lat="45.2956983" lon="7.77579"><ele>244.0</ele><time>2026-05-01T09:30:00.798Z</time></trkpt><trkpt lat="45.2955933" lon="7.77591"><ele>244.0</ele><time>2026-05-01T09:30:01.797Z</time></trkpt><trkpt lat="45.2954867" lon="7.776005"><ele>244.0</ele><time>2026-05-01T09:30:02.797Z</time></trkpt><trkpt lat="45.2953667" lon="7.776085"><ele>245.5</ele><time>2026-05-01T09:30:03.797Z</time></trkpt><trkpt lat="45.29523" lon="7.7761583"><ele>247.0</ele><time>2026-05-01T09:30:04.798Z</time></trkpt><trkpt lat="45.2950933" lon="7.7762517"><ele>248.5</ele><time>2026-05-01T09:30:05.798Z</time></trkpt><trkpt lat="45.2949683" lon="7.776335"><ele>250.0</ele><time>2026-05-01T09:30:06.798Z</time></trkpt><trkpt lat="45.2948667" lon="7.77639"><ele>249.99999999999997</ele><time>2026-05-01T09:30:07.798Z</time></trkpt><trkpt lat="45.2947817" lon="7.7764"><ele>250.0</ele><time>2026-05-01T09:30:08.798Z</time></trkpt><trkpt lat="45.294695" lon="7.7763967"><ele>250.0</ele><time>2026-05-01T09:30:09.798Z</time></trkpt><trkpt lat="45.2946117" lon="7.7763567"><ele>250.0</ele><time>2026-05-01T09:30:10.798Z</time></trkpt><trkpt lat="45.2945283" lon="7.7763033"><ele>249.99999999999997</ele><time>2026-05-01T09:30:11.798Z</time></trkpt><trkpt lat="45.2944517" lon="7.7762517"><ele>250.0</ele><time>2026-05-01T09:30:12.798Z</time></trkpt><trkpt lat="45.294385" lon="7.7762117"><ele>250.0</ele><time>2026-05-01T09:30:13.798Z</time></trkpt><trkpt lat="45.2943233" lon="7.7761917"><ele>250.0</ele><time>2026-05-01T09:30:14.798Z</time></trkpt><trkpt lat="45.29423" lon="7.776185"><ele>250.0</ele><time>2026-05-01T09:30:16.798Z</time></trkpt><trkpt lat="45.2941333" lon="7.7761883"><ele>250.0</ele><time>2026-05-01T09:30:18.798Z</time></trkpt><trkpt lat="45.294015" lon="7.7761933"><ele>250.0</ele><time>2026-05-01T09:30:20.798Z</time></trkpt><trkpt lat="45.2939117" lon="7.77619"><ele>249.99999999999997</ele><time>2026-05-01T09:30:22.798Z</time></trkpt><trkpt lat="45.2938233" lon="7.7761917"><ele>250.0</ele><time>2026-05-01T09:30:24.798Z</time></trkpt><trkpt lat="45.29376" lon="7.7761983"><ele>250.0</ele><time>2026-05-01T09:30:25.798Z</time></trkpt><trkpt lat="45.293685" lon="7.7762033"><ele>250.0</ele><time>2026-05-01T09:30:26.798Z</time></trkpt><trkpt lat="45.2935967" lon="7.77621"><ele>249.99999999999997</ele><time>2026-05-01T09:30:27.798Z</time></trkpt><trkpt lat="45.2934883" lon="7.7762183"><ele>250.0</ele><time>2026-05-01T09:30:28.798Z</time></trkpt><trkpt lat="45.2933717" lon="7.7762283"><ele>250.0</ele><time>2026-05-01T09:30:29.798Z</time></trkpt><trkpt lat="45.2932617" lon="7.776245"><ele>250.0</ele><time>2026-05-01T09:30:30.798Z</time></trkpt><trkpt lat="45.2931533" lon="7.7762783"><ele>250.0</ele><time>2026-05-01T09:30:31.798Z</time></trkpt><trkpt lat="45.2930467" lon="7.776325"><ele>250.0</ele><time>2026-05-01T09:30:32.798Z</time></trkpt><trkpt lat="45.2929467" lon="7.77636"><ele>250.0</ele><time>2026-05-01T09:30:33.798Z</time></trkpt><trkpt lat="45.2928667" lon="7.776395"><ele>249.99999999999997</ele><time>2026-05-01T09:30:34.798Z</time></trkpt><trkpt lat="45.2927933" lon="7.776425"><ele>250.0</ele><time>2026-05-01T09:30:35.797Z</time></trkpt><trkpt lat="45.2927267" lon="7.77644"><ele>250.0</ele><time>2026-05-01T09:30:36.798Z</time></trkpt><trkpt lat="45.292635" lon="7.77644"><ele>250.0</ele><time>2026-05-01T09:30:38.798Z</time></trkpt><trkpt lat="45.2925633" lon="7.7764"><ele>249.99999999999997</ele><time>2026-05-01T09:30:58.798Z</time></trkpt><trkpt lat="45.2924883" lon="7.776355"><ele>250.0</ele><time>2026-05-01T09:31:00.798Z</time></trkpt><trkpt lat="45.2923567" lon="7.776285"><ele>250.0</ele><time>2026-05-01T09:31:02.798Z</time></trkpt><trkpt lat="45.2922567" lon="7.77623"><ele>250.0</ele><time>2026-05-01T09:31:03.798Z</time></trkpt><trkpt lat="45.292135" lon="7.7761717"><ele>250.0</ele><time>2026-05-01T09:31:04.798Z</time></trkpt><trkpt lat="45.2920183" lon="7.7761183"><ele>250.0</ele><time>2026-05-01T09:31:05.798Z</time></trkpt><trkpt lat="45.2919217" lon="7.7760583"><ele>249.83333333333331</ele><time>2026-05-01T09:31:06.797Z</time></trkpt><trkpt lat="45.2918433" lon="7.7759967"><ele>249.66666666666666</ele><time>2026-05-01T09:31:07.798Z</time></trkpt><trkpt lat="45.2917733" lon="7.7759033"><ele>249.5</ele><time>2026-05-01T09:31:08.798Z</time></trkpt><trkpt lat="45.2917233" lon="7.775805"><ele>249.33333333333331</ele><time>2026-05-01T09:31:09.798Z</time></trkpt><trkpt lat="45.29168" lon="7.7757133"><ele>249.16666666666666</ele><time>2026-05-01T09:31:10.798Z</time></trkpt><trkpt lat="45.291655" lon="7.7756067"><ele>249.0</ele><time>2026-05-01T09:31:11.798Z</time></trkpt><trkpt lat="45.2916533" lon="7.7754917"><ele>249.0</ele><time>2026-05-01T09:31:12.798Z</time></trkpt><trkpt lat="45.2916617" lon="7.7753633"><ele>249.0</ele><time>2026-05-01T09:31:13.798Z</time></trkpt><trkpt lat="45.2916717" lon="7.7752583"><ele>249.0</ele><time>2026-05-01T09:31:14.798Z</time></trkpt><trkpt lat="45.2917383" lon="7.7751233"><ele>249.0</ele><time>2026-05-01T09:31:16.798Z</time></trkpt><trkpt lat="45.2917983" lon="7.77508"><ele>249.0</ele><time>2026-05-01T09:31:17.798Z</time></trkpt><trkpt lat="45.2918717" lon="7.775055"><ele>249.0</ele><time>2026-05-01T09:31:18.798Z</time></trkpt><trkpt lat="45.291955" lon="7.77502"><ele>248.83333333333334</ele><time>2026-05-01T09:31:19.798Z</time></trkpt><trkpt lat="45.292035" lon="7.7749717"><ele>248.66666666666669</ele><time>2026-05-01T09:31:20.797Z</time></trkpt><trkpt lat="45.2921083" lon="7.7749117"><ele>248.5</ele><time>2026-05-01T09:31:21.798Z</time></trkpt><trkpt lat="45.2921533" lon="7.7748483"><ele>248.33333333333334</ele><time>2026-05-01T09:31:22.798Z</time></trkpt><trkpt lat="45.292185" lon="7.7747667"><ele>248.16666666666669</ele><time>2026-05-01T09:31:23.798Z</time></trkpt><trkpt lat="45.2921967" lon="7.7746667"><ele>248.0</ele><time>2026-05-01T09:31:24.798Z</time></trkpt><trkpt lat="45.2922" lon="7.7745533"><ele>248.0</ele><time>2026-05-01T09:31:25.798Z</time></trkpt><trkpt lat="45.2921917" lon="7.7744167"><ele>248.0</ele><time>2026-05-01T09:31:26.798Z</time></trkpt><trkpt lat="45.292175" lon="7.7742683"><ele>248.0</ele><time>2026-05-01T09:31:27.798Z</time></trkpt><trkpt lat="45.2921467" lon="7.7741417"><ele>248.0</ele><time>2026-05-01T09:31:28.797Z</time></trkpt><trkpt lat="45.29211" lon="7.774025"><ele>248.0</ele><time>2026-05-01T09:31:29.798Z</time></trkpt><trkpt lat="45.2920633" lon="7.7739283"><ele>248.0</ele><time>2026-05-01T09:31:30.798Z</time></trkpt><trkpt lat="45.292005" lon="7.773845"><ele>248.00000000000003</ele><time>2026-05-01T09:31:31.798Z</time></trkpt><trkpt lat="45.2919467" lon="7.77379"><ele>248.0</ele><time>2026-05-01T09:31:32.798Z</time></trkpt><trkpt lat="45.2918833" lon="7.7737483"><ele>248.0</ele><time>2026-05-01T09:31:33.798Z</time></trkpt><trkpt lat="45.29181" lon="7.7737283"><ele>248.00000000000003</ele><time>2026-05-01T09:31:34.798Z</time></trkpt><trkpt lat="45.2917433" lon="7.7737317"><ele>248.0</ele><time>2026-05-01T09:31:35.798Z</time></trkpt><trkpt lat="45.291675" lon="7.7737567"><ele>248.0</ele><time>2026-05-01T09:31:36.798Z</time></trkpt><trkpt lat="45.2915933" lon="7.773795"><ele>248.0</ele><time>2026-05-01T09:31:37.798Z</time></trkpt><trkpt lat="45.291515" lon="7.7738567"><ele>248.0</ele><time>2026-05-01T09:31:38.798Z</time></trkpt><trkpt lat="45.29144" lon="7.7739283"><ele>248.0</ele><time>2026-05-01T09:31:39.798Z</time></trkpt><trkpt lat="45.29137" lon="7.7740083"><ele>248.0</ele><time>2026-05-01T09:31:40.798Z</time></trkpt><trkpt lat="45.29129" lon="7.774085"><ele>248.0</ele><time>2026-05-01T09:31:41.798Z</time></trkpt><trkpt lat="45.2912167" lon="7.7741617"><ele>248.60000000000002</ele><time>2026-05-01T09:31:42.797Z</time></trkpt><trkpt lat="45.2911367" lon="7.7742517"><ele>249.20000000000002</ele><time>2026-05-01T09:31:43.798Z</time></trkpt><trkpt lat="45.2910533" lon="7.774335"><ele>249.8</ele><time>2026-05-01T09:31:44.798Z</time></trkpt><trkpt lat="45.2909883" lon="7.7743967"><ele>250.4</ele><time>2026-05-01T09:31:45.798Z</time></trkpt><trkpt lat="45.2909217" lon="7.7744517"><ele>251.0</ele><time>2026-05-01T09:31:46.798Z</time></trkpt><trkpt lat="45.2908367" lon="7.77456"><ele>251.0</ele><time>2026-05-01T09:31:48.798Z</time></trkpt><trkpt lat="45.29079" lon="7.7747167"><ele>251.00000000000003</ele><time>2026-05-01T09:31:50.798Z</time></trkpt><trkpt lat="45.2907667" lon="7.7748267"><ele>251.00000000000003</ele><time>2026-05-01T09:31:51.798Z</time></trkpt><trkpt lat="45.2907483" lon="7.7749633"><ele>251.0</ele><time>2026-05-01T09:31:52.798Z</time></trkpt><trkpt lat="45.29072" lon="7.7750983"><ele>251.0</ele><time>2026-05-01T09:31:53.798Z</time></trkpt><trkpt lat="45.290675" lon="7.7752433"><ele>250.5</ele><time>2026-05-01T09:31:54.798Z</time></trkpt><trkpt lat="45.29062" lon="7.7753917"><ele>250.0</ele><time>2026-05-01T09:31:55.798Z</time></trkpt><trkpt lat="45.2905583" lon="7.7755333"><ele>249.5</ele><time>2026-05-01T09:31:56.798Z</time></trkpt><trkpt lat="45.2904917" lon="7.775675"><ele>249.0</ele><time>2026-05-01T09:31:57.798Z</time></trkpt><trkpt lat="45.2904233" lon="7.775805"><ele>248.79999999999998</ele><time>2026-05-01T09:31:58.798Z</time></trkpt><trkpt lat="45.290355" lon="7.77592"><ele>248.59999999999997</ele><time>2026-05-01T09:31:59.798Z</time></trkpt><trkpt lat="45.2902917" lon="7.77604"><ele>248.4</ele><time>2026-05-01T09:32:00.798Z</time></trkpt><trkpt lat="45.290235" lon="7.7761467"><ele>248.2</ele><time>2026-05-01T09:32:01.798Z</time></trkpt><trkpt lat="45.2901833" lon="7.7762433"><ele>248.0</ele><time>2026-05-01T09:32:02.798Z</time></trkpt><trkpt lat="45.2901333" lon="7.7763117"><ele>247.8</ele><time>2026-05-01T09:32:03.797Z</time></trkpt><trkpt lat="45.29005" lon="7.7763267"><ele>247.60000000000002</ele><time>2026-05-01T09:32:05.798Z</time></trkpt><trkpt lat="45.2899233" lon="7.7763217"><ele>247.39999999999998</ele><time>2026-05-01T09:32:07.798Z</time></trkpt><trkpt lat="45.2898367" lon="7.7763367"><ele>247.2</ele><time>2026-05-01T09:32:08.798Z</time></trkpt><trkpt lat="45.289755" lon="7.776355"><ele>247.0</ele><time>2026-05-01T09:32:09.798Z</time></trkpt><trkpt lat="45.2896867" lon="7.7763783"><ele>246.66666666666666</ele><time>2026-05-01T09:32:10.798Z</time></trkpt><trkpt lat="45.2896283" lon="7.7764133"><ele>246.33333333333331</ele><time>2026-05-01T09:32:11.798Z</time></trkpt><trkpt lat="45.2895533" lon="7.776475"><ele>246.0</ele><time>2026-05-01T09:32:13.798Z</time></trkpt><trkpt lat="45.2894983" lon="7.77654"><ele>245.66666666666669</ele><time>2026-05-01T09:32:15.798Z</time></trkpt><trkpt lat="45.2894267" lon="7.7764767"><ele>245.33333333333334</ele><time>2026-05-01T09:32:18.798Z</time></trkpt><trkpt lat="45.2893867" lon="7.77629"><ele>245.0</ele><time>2026-05-01T09:32:20.798Z</time></trkpt><trkpt lat="45.28937" lon="7.77615"><ele>245.5</ele><time>2026-05-01T09:32:21.798Z</time></trkpt><trkpt lat="45.2893517" lon="7.77597"><ele>246.0</ele><time>2026-05-01T09:32:22.798Z</time></trkpt><trkpt lat="45.2893267" lon="7.7757483"><ele>246.5</ele><time>2026-05-01T09:32:23.798Z</time></trkpt><trkpt lat="45.2892933" lon="7.77553"><ele>247.0</ele><time>2026-05-01T09:32:24.798Z</time></trkpt><trkpt lat="45.289275" lon="7.7753233"><ele>248.0</ele><time>2026-05-01T09:32:25.798Z</time></trkpt><trkpt lat="45.2892617" lon="7.7751467"><ele>249.0</ele><time>2026-05-01T09:32:26.798Z</time></trkpt><trkpt lat="45.28925" lon="7.7749783"><ele>250.0</ele><time>2026-05-01T09:32:27.798Z</time></trkpt><trkpt lat="45.2892267" lon="7.7747967"><ele>251.0</ele><time>2026-05-01T09:32:28.797Z</time></trkpt><trkpt lat="45.289205" lon="7.7746033"><ele>251.0</ele><time>2026-05-01T09:32:29.798Z</time></trkpt><trkpt lat="45.2891883" lon="7.77441"><ele>251.0</ele><time>2026-05-01T09:32:30.798Z</time></trkpt><trkpt lat="45.28916" lon="7.77422"><ele>251.0</ele><time>2026-05-01T09:32:31.798Z</time></trkpt><trkpt lat="45.2891383" lon="7.7740383"><ele>251.0</ele><time>2026-05-01T09:32:32.798Z</time></trkpt><trkpt lat="45.2891133" lon="7.7738583"><ele>250.75</ele><time>2026-05-01T09:32:33.798Z</time></trkpt><trkpt lat="45.2890767" lon="7.7736767"><ele>250.5</ele><time>2026-05-01T09:32:34.798Z</time></trkpt><trkpt lat="45.2890633" lon="7.77351"><ele>250.25</ele><time>2026-05-01T09:32:35.798Z</time></trkpt><trkpt lat="45.2890483" lon="7.7733483"><ele>250.0</ele><time>2026-05-01T09:32:36.798Z</time></trkpt><trkpt lat="45.289025" lon="7.7731817"><ele>249.25</ele><time>2026-05-01T09:32:37.798Z</time></trkpt><trkpt lat="45.2889817" lon="7.773015"><ele>248.5</ele><time>2026-05-01T09:32:38.798Z</time></trkpt><trkpt lat="45.28895" lon="7.7728633"><ele>247.75</ele><time>2026-05-01T09:32:39.798Z</time></trkpt><trkpt lat="45.2889033" lon="7.7727167"><ele>247.0</ele><time>2026-05-01T09:32:40.798Z</time></trkpt><trkpt lat="45.28885" lon="7.77256"><ele>247.0</ele><time>2026-05-01T09:32:41.798Z</time></trkpt><trkpt lat="45.2887967" lon="7.7723933"><ele>247.0</ele><time>2026-05-01T09:32:42.798Z</time></trkpt><trkpt lat="45.2887383" lon="7.7722183"><ele>247.0</ele><time>2026-05-01T09:32:43.798Z</time></trkpt><trkpt lat="45.28868" lon="7.7720417"><ele>247.0</ele><time>2026-05-01T09:32:44.798Z</time></trkpt><trkpt lat="45.2886183" lon="7.77186"><ele>246.75</ele><time>2026-05-01T09:32:45.798Z</time></trkpt><trkpt lat="45.2885517" lon="7.771665"><ele>246.5</ele><time>2026-05-01T09:32:46.798Z</time></trkpt><trkpt lat="45.2884867" lon="7.771485"><ele>246.25</ele><time>2026-05-01T09:32:47.798Z</time></trkpt><trkpt lat="45.28844" lon="7.7713283"><ele>246.0</ele><time>2026-05-01T09:32:48.798Z</time></trkpt><trkpt lat="45.2883917" lon="7.7711967"><ele>246.0</ele><time>2026-05-01T09:32:49.798Z</time></trkpt><trkpt lat="45.28835" lon="7.7710617"><ele>246.00000000000003</ele><time>2026-05-01T09:32:50.798Z</time></trkpt><trkpt lat="45.2882917" lon="7.7709333"><ele>246.00000000000003</ele><time>2026-05-01T09:32:51.798Z</time></trkpt><trkpt lat="45.28825" lon="7.770805"><ele>246.0</ele><time>2026-05-01T09:32:52.798Z</time></trkpt><trkpt lat="45.28822" lon="7.7706967"><ele>246.0</ele><time>2026-05-01T09:32:53.798Z</time></trkpt><trkpt lat="45.2881933" lon="7.7705917"><ele>246.20000000000002</ele><time>2026-05-01T09:32:54.798Z</time></trkpt><trkpt lat="45.2881317" lon="7.7704567"><ele>246.40000000000003</ele><time>2026-05-01T09:32:56.798Z</time></trkpt><trkpt lat="45.2880717" lon="7.7704217"><ele>246.6</ele><time>2026-05-01T09:32:58.798Z</time></trkpt><trkpt lat="45.2880033" lon="7.7704717"><ele>246.8</ele><time>2026-05-01T09:33:00.798Z</time></trkpt><trkpt lat="45.2878883" lon="7.7705817"><ele>247.0</ele><time>2026-05-01T09:33:02.798Z</time></trkpt><trkpt lat="45.287795" lon="7.7706317"><ele>247.0</ele><time>2026-05-01T09:33:03.798Z</time></trkpt><trkpt lat="45.2876917" lon="7.7706867"><ele>247.0</ele><time>2026-05-01T09:33:04.798Z</time></trkpt><trkpt lat="45.2876017" lon="7.770755"><ele>247.0</ele><time>2026-05-01T09:33:05.798Z</time></trkpt><trkpt lat="45.2875217" lon="7.7708383"><ele>247.0</ele><time>2026-05-01T09:33:06.798Z</time></trkpt><trkpt lat="45.2874383" lon="7.77096"><ele>247.0</ele><time>2026-05-01T09:33:07.798Z</time></trkpt><trkpt lat="45.2873817" lon="7.7711267"><ele>246.75</ele><time>2026-05-01T09:33:08.798Z</time></trkpt><trkpt lat="45.287325" lon="7.7712667"><ele>246.5</ele><time>2026-05-01T09:33:09.798Z</time></trkpt><trkpt lat="45.2872483" lon="7.77137"><ele>246.25</ele><time>2026-05-01T09:33:10.798Z</time></trkpt><trkpt lat="45.28714" lon="7.771455"><ele>246.0</ele><time>2026-05-01T09:33:11.798Z</time></trkpt><trkpt lat="45.28701" lon="7.7715283"><ele>246.0</ele><time>2026-05-01T09:33:12.798Z</time></trkpt><trkpt lat="45.2868583" lon="7.7716133"><ele>246.0</ele><time>2026-05-01T09:33:13.798Z</time></trkpt><trkpt lat="45.2867017" lon="7.7717083"><ele>246.0</ele><time>2026-05-01T09:33:14.798Z</time></trkpt><trkpt lat="45.2865433" lon="7.77182"><ele>246.0</ele><time>2026-05-01T09:33:15.798Z</time></trkpt><trkpt lat="45.2863817" lon="7.7719467"><ele>246.0</ele><time>2026-05-01T09:33:16.798Z</time></trkpt><trkpt lat="45.2862233" lon="7.7720767"><ele>246.0</ele><time>2026-05-01T09:33:17.798Z</time></trkpt><trkpt lat="45.2860733" lon="7.7721983"><ele>246.0</ele><time>2026-05-01T09:33:18.798Z</time></trkpt><trkpt lat="45.2859533" lon="7.7722983"><ele>246.0</ele><time>2026-05-01T09:33:19.798Z</time></trkpt><trkpt lat="45.2858517" lon="7.7723983"><ele>246.0</ele><time>2026-05-01T09:33:20.798Z</time></trkpt><trkpt lat="45.2857633" lon="7.7725217"><ele>246.0</ele><time>2026-05-01T09:33:21.798Z</time></trkpt><trkpt lat="45.285695" lon="7.7726317"><ele>246.0</ele><time>2026-05-01T09:33:22.798Z</time></trkpt><trkpt lat="45.2856133" lon="7.772715"><ele>246.00000000000003</ele><time>2026-05-01T09:33:23.798Z</time></trkpt><trkpt lat="45.2855183" lon="7.7727717"><ele>246.00000000000003</ele><time>2026-05-01T09:33:24.797Z</time></trkpt><trkpt lat="45.285405" lon="7.7728183"><ele>246.0</ele><time>2026-05-01T09:33:25.798Z</time></trkpt><trkpt lat="45.2852817" lon="7.77286"><ele>246.0</ele><time>2026-05-01T09:33:26.798Z</time></trkpt><trkpt lat="45.2851717" lon="7.772905"><ele>246.0</ele><time>2026-05-01T09:33:27.798Z</time></trkpt><trkpt lat="45.2850767" lon="7.7729583"><ele>246.00000000000003</ele><time>2026-05-01T09:33:28.798Z</time></trkpt><trkpt lat="45.284995" lon="7.77302"><ele>246.00000000000003</ele><time>2026-05-01T09:33:29.798Z</time></trkpt><trkpt lat="45.2849183" lon="7.7731067"><ele>246.0</ele><time>2026-05-01T09:33:30.798Z</time></trkpt><trkpt lat="45.2848333" lon="7.7732367"><ele>246.0</ele><time>2026-05-01T09:33:31.798Z</time></trkpt><trkpt lat="45.284735" lon="7.7733967"><ele>245.5</ele><time>2026-05-01T09:33:32.798Z</time></trkpt><trkpt lat="45.2846283" lon="7.7735467"><ele>245.0</ele><time>2026-05-01T09:33:33.798Z</time></trkpt><trkpt lat="45.2845317" lon="7.7736767"><ele>244.5</ele><time>2026-05-01T09:33:34.798Z</time></trkpt><trkpt lat="45.2844333" lon="7.773785"><ele>244.0</ele><time>2026-05-01T09:33:35.798Z</time></trkpt><trkpt lat="45.2843467" lon="7.7738583"><ele>244.0</ele><time>2026-05-01T09:33:36.798Z</time></trkpt><trkpt lat="45.2842633" lon="7.7739067"><ele>244.0</ele><time>2026-05-01T09:33:37.798Z</time></trkpt><trkpt lat="45.2841583" lon="7.773915"><ele>244.0</ele><time>2026-05-01T09:33:38.798Z</time></trkpt><trkpt lat="45.2840217" lon="7.77393"><ele>244.0</ele><time>2026-05-01T09:33:39.798Z</time></trkpt><trkpt lat="45.283865" lon="7.77397"><ele>243.79999999999998</ele><time>2026-05-01T09:33:40.798Z</time></trkpt><trkpt lat="45.2837367" lon="7.7739883"><ele>243.59999999999997</ele><time>2026-05-01T09:33:41.798Z</time></trkpt><trkpt lat="45.2836267" lon="7.77401"><ele>243.4</ele><time>2026-05-01T09:33:42.798Z</time></trkpt><trkpt lat="45.2835533" lon="7.77402"><ele>243.2</ele><time>2026-05-01T09:33:43.798Z</time></trkpt><trkpt lat="45.283455" lon="7.77409"><ele>243.0</ele><time>2026-05-01T09:33:45.798Z</time></trkpt><trkpt lat="45.283435" lon="7.7742467"><ele>242.5</ele><time>2026-05-01T09:33:47.798Z</time></trkpt><trkpt lat="45.28346" lon="7.7743767"><ele>242.0</ele><time>2026-05-01T09:33:48.797Z</time></trkpt><trkpt lat="45.2835033" lon="7.77454"><ele>241.5</ele><time>2026-05-01T09:33:49.798Z</time></trkpt><trkpt lat="45.283555" lon="7.77472"><ele>241.0</ele><time>2026-05-01T09:33:50.798Z</time></trkpt><trkpt lat="45.2836083" lon="7.7748867"><ele>240.99999999999997</ele><time>2026-05-01T09:33:51.798Z</time></trkpt><trkpt lat="45.283655" lon="7.7750117"><ele>241.0</ele><time>2026-05-01T09:33:52.798Z</time></trkpt><trkpt lat="45.2836883" lon="7.7751083"><ele>241.0</ele><time>2026-05-01T09:33:53.798Z</time></trkpt><trkpt lat="45.283675" lon="7.7752133"><ele>241.0</ele><time>2026-05-01T09:33:55.798Z</time></trkpt><trkpt lat="45.2835817" lon="7.77523"><ele>240.99999999999997</ele><time>2026-05-01T09:33:57.798Z</time></trkpt><trkpt lat="45.2834967" lon="7.775235"><ele>241.0</ele><time>2026-05-01T09:33:58.798Z</time></trkpt><trkpt lat="45.2833867" lon="7.77525"><ele>241.20000000000002</ele><time>2026-05-01T09:33:59.798Z</time></trkpt><trkpt lat="45.2832717" lon="7.775265"><ele>241.40000000000003</ele><time>2026-05-01T09:34:00.798Z</time></trkpt><trkpt lat="45.2831633" lon="7.7752817"><ele>241.6</ele><time>2026-05-01T09:34:01.797Z</time></trkpt><trkpt lat="45.283065" lon="7.7753"><ele>241.8</ele><time>2026-05-01T09:34:02.798Z</time></trkpt><trkpt lat="45.282975" lon="7.7753183"><ele>242.0</ele><time>2026-05-01T09:34:03.798Z</time></trkpt><trkpt lat="45.2828817" lon="7.7753433"><ele>241.6</ele><time>2026-05-01T09:34:04.798Z</time></trkpt><trkpt lat="45.2827833" lon="7.7753683"><ele>241.2</ele><time>2026-05-01T09:34:05.798Z</time></trkpt><trkpt lat="45.2826883" lon="7.775405"><ele>240.8</ele><time>2026-05-01T09:34:06.798Z</time></trkpt><trkpt lat="45.2825967" lon="7.7754667"><ele>240.4</ele><time>2026-05-01T09:34:07.798Z</time></trkpt><trkpt lat="45.2824867" lon="7.7755417"><ele>240.0</ele><time>2026-05-01T09:34:08.798Z</time></trkpt><trkpt lat="45.282375" lon="7.7756167"><ele>240.0</ele><time>2026-05-01T09:34:09.798Z</time></trkpt><trkpt lat="45.2822717" lon="7.7756883"><ele>240.0</ele><time>2026-05-01T09:34:10.798Z</time></trkpt><trkpt lat="45.2821717" lon="7.77576"><ele>240.0</ele><time>2026-05-01T09:34:11.798Z</time></trkpt><trkpt lat="45.2820867" lon="7.7758167"><ele>240.0</ele><time>2026-05-01T09:34:12.798Z</time></trkpt><trkpt lat="45.2820217" lon="7.7758533"><ele>240.0</ele><time>2026-05-01T09:34:13.798Z</time></trkpt><trkpt lat="45.2819517" lon="7.77597"><ele>239.75</ele><time>2026-05-01T09:34:15.798Z</time></trkpt><trkpt lat="45.28198" lon="7.7761433"><ele>239.5</ele><time>2026-05-01T09:34:17.798Z</time></trkpt><trkpt lat="45.282035" lon="7.7762717"><ele>239.25</ele><time>2026-05-01T09:34:18.798Z</time></trkpt><trkpt lat="45.2820967" lon="7.77643"><ele>239.0</ele><time>2026-05-01T09:34:19.798Z</time></trkpt><trkpt lat="45.2821417" lon="7.7765883"><ele>239.00000000000003</ele><time>2026-05-01T09:34:20.798Z</time></trkpt><trkpt lat="45.28218" lon="7.7767183"><ele>239.0</ele><time>2026-05-01T09:34:21.798Z</time></trkpt><trkpt lat="45.28222" lon="7.7768183"><ele>239.0</ele><time>2026-05-01T09:34:22.797Z</time></trkpt><trkpt lat="45.2822333" lon="7.77691"><ele>239.0</ele><time>2026-05-01T09:34:23.798Z</time></trkpt><trkpt lat="45.2822083" lon="7.7770233"><ele>239.00000000000003</ele><time>2026-05-01T09:34:25.798Z</time></trkpt><trkpt lat="45.282145" lon="7.777055"><ele>239.0</ele><time>2026-05-01T09:34:26.798Z</time></trkpt><trkpt lat="45.28205" lon="7.7770933"><ele>238.75</ele><time>2026-05-01T09:34:27.798Z</time></trkpt><trkpt lat="45.2819167" lon="7.777155"><ele>238.5</ele><time>2026-05-01T09:34:28.798Z</time></trkpt><trkpt lat="45.2817683" lon="7.7772133"><ele>238.25</ele><time>2026-05-01T09:34:29.798Z</time></trkpt><trkpt lat="45.2816417" lon="7.7772633"><ele>238.0</ele><time>2026-05-01T09:34:30.798Z</time></trkpt><trkpt lat="45.28152" lon="7.77731"><ele>238.0</ele><time>2026-05-01T09:34:31.798Z</time></trkpt><trkpt lat="45.281385" lon="7.7773767"><ele>238.0</ele><time>2026-05-01T09:34:32.798Z</time></trkpt><trkpt lat="45.281245" lon="7.7774433"><ele>238.0</ele><time>2026-05-01T09:34:33.798Z</time></trkpt><trkpt lat="45.2811117" lon="7.77751"><ele>238.0</ele><time>2026-05-01T09:34:34.798Z</time></trkpt><trkpt lat="45.2809867" lon="7.7775683"><ele>238.0</ele><time>2026-05-01T09:34:35.798Z</time></trkpt><trkpt lat="45.28088" lon="7.7776183"><ele>238.0</ele><time>2026-05-01T09:34:36.798Z</time></trkpt><trkpt lat="45.2807733" lon="7.7776617"><ele>238.0</ele><time>2026-05-01T09:34:37.798Z</time></trkpt><trkpt lat="45.2806733" lon="7.77771"><ele>238.0</ele><time>2026-05-01T09:34:38.798Z</time></trkpt><trkpt lat="45.2806" lon="7.77777"><ele>238.0</ele><time>2026-05-01T09:34:39.798Z</time></trkpt><trkpt lat="45.2805383" lon="7.7778517"><ele>237.99999999999997</ele><time>2026-05-01T09:34:40.798Z</time></trkpt><trkpt lat="45.2804917" lon="7.777955"><ele>238.0</ele><time>2026-05-01T09:34:41.797Z</time></trkpt><trkpt lat="45.2804517" lon="7.7780417"><ele>238.0</ele><time>2026-05-01T09:34:42.798Z</time></trkpt><trkpt lat="45.2804033" lon="7.778105"><ele>238.0</ele><time>2026-05-01T09:34:43.798Z</time></trkpt><trkpt lat="45.280325" lon="7.778165"><ele>237.99999999999997</ele><time>2026-05-01T09:34:44.798Z</time></trkpt><trkpt lat="45.2802067" lon="7.7782317"><ele>238.0</ele><time>2026-05-01T09:34:45.798Z</time></trkpt><trkpt lat="45.2800817" lon="7.778285"><ele>238.0</ele><time>2026-05-01T09:34:46.798Z</time></trkpt><trkpt lat="45.2799667" lon="7.778325"><ele>238.0</ele><time>2026-05-01T09:34:47.798Z</time></trkpt><trkpt lat="45.2798817" lon="7.77837"><ele>238.0</ele><time>2026-05-01T09:34:48.798Z</time></trkpt><trkpt lat="45.2798133" lon="7.7784433"><ele>238.0</ele><time>2026-05-01T09:34:49.798Z</time></trkpt><trkpt lat="45.2797517" lon="7.7785467"><ele>238.0</ele><time>2026-05-01T09:34:50.798Z</time></trkpt><trkpt lat="45.279705" lon="7.7786367"><ele>237.8</ele><time>2026-05-01T09:34:51.798Z</time></trkpt><trkpt lat="45.2796533" lon="7.778705"><ele>237.60000000000002</ele><time>2026-05-01T09:34:52.798Z</time></trkpt><trkpt lat="45.279575" lon="7.77873"><ele>237.39999999999998</ele><time>2026-05-01T09:34:53.798Z</time></trkpt><trkpt lat="45.2794683" lon="7.7787383"><ele>237.2</ele><time>2026-05-01T09:34:54.798Z</time></trkpt><trkpt lat="45.279345" lon="7.778745"><ele>237.0</ele><time>2026-05-01T09:34:55.798Z</time></trkpt><trkpt lat="45.279225" lon="7.7787683"><ele>237.0</ele><time>2026-05-01T09:34:56.798Z</time></trkpt><trkpt lat="45.2791183" lon="7.7787967"><ele>237.0</ele><time>2026-05-01T09:34:57.798Z</time></trkpt><trkpt lat="45.2790317" lon="7.7788267"><ele>237.0</ele><time>2026-05-01T09:34:58.798Z</time></trkpt><trkpt lat="45.278965" lon="7.7788583"><ele>237.0</ele><time>2026-05-01T09:34:59.798Z</time></trkpt><trkpt lat="45.2788883" lon="7.7788717"><ele>237.0</ele><time>2026-05-01T09:35:01.798Z</time></trkpt><trkpt lat="45.2788467" lon="7.7787533"><ele>237.0</ele><time>2026-05-01T09:35:08.798Z</time></trkpt><trkpt lat="45.278815" lon="7.7786233"><ele>237.75</ele><time>2026-05-01T09:35:09.798Z</time></trkpt><trkpt lat="45.2787817" lon="7.77847"><ele>238.5</ele><time>2026-05-01T09:35:10.797Z</time></trkpt><trkpt lat="45.2787467" lon="7.7783083"><ele>239.25</ele><time>2026-05-01T09:35:11.798Z</time></trkpt><trkpt lat="45.2787083" lon="7.77815"><ele>240.0</ele><time>2026-05-01T09:35:12.797Z</time></trkpt><trkpt lat="45.2786717" lon="7.778"><ele>240.0</ele><time>2026-05-01T09:35:13.798Z</time></trkpt><trkpt lat="45.278625" lon="7.7778667"><ele>240.0</ele><time>2026-05-01T09:35:14.798Z</time></trkpt><trkpt lat="45.2785783" lon="7.77775"><ele>240.0</ele><time>2026-05-01T09:35:15.798Z</time></trkpt><trkpt lat="45.2785283" lon="7.7776317"><ele>240.0</ele><time>2026-05-01T09:35:16.798Z</time></trkpt><trkpt lat="45.2784717" lon="7.777505"><ele>240.0</ele><time>2026-05-01T09:35:17.798Z</time></trkpt><trkpt lat="45.2784133" lon="7.7773667"><ele>239.8</ele><time>2026-05-01T09:35:18.798Z</time></trkpt><trkpt lat="45.2783467" lon="7.7772167"><ele>239.6</ele><time>2026-05-01T09:35:19.798Z</time></trkpt><trkpt lat="45.2783" lon="7.7770917"><ele>239.39999999999998</ele><time>2026-05-01T09:35:20.798Z</time></trkpt><trkpt lat="45.2782667" lon="7.7769983"><ele>239.2</ele><time>2026-05-01T09:35:21.798Z</time></trkpt><trkpt lat="45.2782233" lon="7.7768633"><ele>239.0</ele><time>2026-05-01T09:35:23.798Z</time></trkpt><trkpt lat="45.278175" lon="7.7766717"><ele>239.0</ele><time>2026-05-01T09:35:25.798Z</time></trkpt><trkpt lat="45.278135" lon="7.77654"><ele>239.0</ele><time>2026-05-01T09:35:26.797Z</time></trkpt><trkpt lat="45.2780833" lon="7.7763917"><ele>239.0</ele><time>2026-05-01T09:35:27.798Z</time></trkpt><trkpt lat="45.2780333" lon="7.7762167"><ele>239.0</ele><time>2026-05-01T09:35:28.798Z</time></trkpt><trkpt lat="45.277985" lon="7.77605"><ele>239.0</ele><time>2026-05-01T09:35:29.798Z</time></trkpt><trkpt lat="45.2779467" lon="7.77586"><ele>239.0</ele><time>2026-05-01T09:35:30.798Z</time></trkpt><trkpt lat="45.2779017" lon="7.7756683"><ele>239.0</ele><time>2026-05-01T09:35:31.798Z</time></trkpt><trkpt lat="45.2778383" lon="7.775475"><ele>239.0</ele><time>2026-05-01T09:35:32.798Z</time></trkpt><trkpt lat="45.2777633" lon="7.7752667"><ele>239.25</ele><time>2026-05-01T09:35:33.798Z</time></trkpt><trkpt lat="45.2776983" lon="7.7750883"><ele>239.5</ele><time>2026-05-01T09:35:34.797Z</time></trkpt><trkpt lat="45.2776517" lon="7.7749133"><ele>239.75</ele><time>2026-05-01T09:35:35.798Z</time></trkpt><trkpt lat="45.2775867" lon="7.774755"><ele>240.0</ele><time>2026-05-01T09:35:36.798Z</time></trkpt><trkpt lat="45.27753" lon="7.77461"><ele>240.0</ele><time>2026-05-01T09:35:37.798Z</time></trkpt><trkpt lat="45.2774767" lon="7.7744417"><ele>240.0</ele><time>2026-05-01T09:35:38.798Z</time></trkpt><trkpt lat="45.27744" lon="7.7742867"><ele>240.0</ele><time>2026-05-01T09:35:39.798Z</time></trkpt><trkpt lat="45.277405" lon="7.77416"><ele>240.0</ele><time>2026-05-01T09:35:40.797Z</time></trkpt><trkpt lat="45.2773667" lon="7.7740567"><ele>240.0</ele><time>2026-05-01T09:35:41.798Z</time></trkpt><trkpt lat="45.2773183" lon="7.7739683"><ele>240.4</ele><time>2026-05-01T09:35:42.798Z</time></trkpt><trkpt lat="45.277255" lon="7.77389"><ele>240.8</ele><time>2026-05-01T09:35:43.798Z</time></trkpt><trkpt lat="45.2771883" lon="7.7738433"><ele>241.2</ele><time>2026-05-01T09:35:44.798Z</time></trkpt><trkpt lat="45.2771" lon="7.7738317"><ele>241.6</ele><time>2026-05-01T09:35:45.798Z</time></trkpt><trkpt lat="45.27698" lon="7.77385"><ele>242.0</ele><time>2026-05-01T09:35:46.798Z</time></trkpt><trkpt lat="45.2768317" lon="7.7739017"><ele>242.0</ele><time>2026-05-01T09:35:47.798Z</time></trkpt><trkpt lat="45.2766783" lon="7.773945"><ele>242.0</ele><time>2026-05-01T09:35:48.798Z</time></trkpt><trkpt lat="45.2765267" lon="7.7739867"><ele>242.0</ele><time>2026-05-01T09:35:49.798Z</time></trkpt><trkpt lat="45.2764067" lon="7.77403"><ele>242.0</ele><time>2026-05-01T09:35:50.798Z</time></trkpt><trkpt lat="45.2762983" lon="7.774075"><ele>241.66666666666669</ele><time>2026-05-01T09:35:51.798Z</time></trkpt><trkpt lat="45.2761667" lon="7.77417"><ele>241.33333333333331</ele><time>2026-05-01T09:35:52.798Z</time></trkpt><trkpt lat="45.2760217" lon="7.77429"><ele>241.0</ele><time>2026-05-01T09:35:53.798Z</time></trkpt><trkpt lat="45.2758767" lon="7.77442"><ele>240.25</ele><time>2026-05-01T09:35:54.798Z</time></trkpt><trkpt lat="45.2757433" lon="7.77453"><ele>239.5</ele><time>2026-05-01T09:35:55.798Z</time></trkpt><trkpt lat="45.27563" lon="7.7746417"><ele>238.75</ele><time>2026-05-01T09:35:56.798Z</time></trkpt><trkpt lat="45.275515" lon="7.7747567"><ele>238.0</ele><time>2026-05-01T09:35:57.798Z</time></trkpt><trkpt lat="45.2754167" lon="7.7748517"><ele>237.99999999999997</ele><time>2026-05-01T09:35:58.798Z</time></trkpt><trkpt lat="45.275355" lon="7.7749217"><ele>238.0</ele><time>2026-05-01T09:35:59.798Z</time></trkpt><trkpt lat="45.2752783" lon="7.774975"><ele>238.0</ele><time>2026-05-01T09:36:01.798Z</time></trkpt><trkpt lat="45.27521" lon="7.7749667"><ele>238.0</ele><time>2026-05-01T09:36:05.798Z</time></trkpt><trkpt lat="45.2751233" lon="7.7749733"><ele>237.99999999999997</ele><time>2026-05-01T09:36:08.798Z</time></trkpt><trkpt lat="45.275055" lon="7.77499"><ele>238.0</ele><time>2026-05-01T09:36:10.798Z</time></trkpt><trkpt lat="45.2749633" lon="7.7750267"><ele>237.99999999999997</ele><time>2026-05-01T09:36:13.797Z</time></trkpt><trkpt lat="45.2748983" lon="7.77506"><ele>238.0</ele><time>2026-05-01T09:36:15.798Z</time></trkpt><trkpt lat="45.2747983" lon="7.7750917"><ele>238.0</ele><time>2026-05-01T09:36:17.798Z</time></trkpt><trkpt lat="45.27473" lon="7.7751117"><ele>238.0</ele><time>2026-05-01T09:36:18.798Z</time></trkpt><trkpt lat="45.2746467" lon="7.77514"><ele>237.99999999999997</ele><time>2026-05-01T09:36:19.798Z</time></trkpt><trkpt lat="45.2745583" lon="7.7751717"><ele>238.0</ele><time>2026-05-01T09:36:20.798Z</time></trkpt><trkpt lat="45.27446" lon="7.7752083"><ele>238.2</ele><time>2026-05-01T09:36:21.798Z</time></trkpt><trkpt lat="45.27436" lon="7.77524"><ele>238.4</ele><time>2026-05-01T09:36:22.798Z</time></trkpt><trkpt lat="45.2742533" lon="7.7752817"><ele>238.59999999999997</ele><time>2026-05-01T09:36:23.798Z</time></trkpt><trkpt lat="45.274145" lon="7.77533"><ele>238.79999999999998</ele><time>2026-05-01T09:36:24.798Z</time></trkpt><trkpt lat="45.274035" lon="7.7753833"><ele>239.0</ele><time>2026-05-01T09:36:25.798Z</time></trkpt><trkpt lat="45.273925" lon="7.7754283"><ele>238.5</ele><time>2026-05-01T09:36:26.798Z</time></trkpt><trkpt lat="45.2738067" lon="7.7754717"><ele>238.0</ele><time>2026-05-01T09:36:27.797Z</time></trkpt><trkpt lat="45.2736733" lon="7.7755167"><ele>237.5</ele><time>2026-05-01T09:36:28.797Z</time></trkpt><trkpt lat="45.273545" lon="7.7755567"><ele>237.0</ele><time>2026-05-01T09:36:29.798Z</time></trkpt><trkpt lat="45.2734167" lon="7.7756"><ele>237.0</ele><time>2026-05-01T09:36:30.798Z</time></trkpt><trkpt lat="45.2732733" lon="7.77565"><ele>237.0</ele><time>2026-05-01T09:36:31.798Z</time></trkpt><trkpt lat="45.27313" lon="7.7757"><ele>237.0</ele><time>2026-05-01T09:36:32.797Z</time></trkpt><trkpt lat="45.2729883" lon="7.775755"><ele>237.0</ele><time>2026-05-01T09:36:33.798Z</time></trkpt><trkpt lat="45.272835" lon="7.7758083"><ele>236.33333333333331</ele><time>2026-05-01T09:36:34.798Z</time></trkpt><trkpt lat="45.2726867" lon="7.7758683"><ele>235.66666666666666</ele><time>2026-05-01T09:36:35.798Z</time></trkpt><trkpt lat="45.2725333" lon="7.7759267"><ele>235.0</ele><time>2026-05-01T09:36:36.798Z</time></trkpt><trkpt lat="45.2723867" lon="7.77598"><ele>235.0</ele><time>2026-05-01T09:36:37.798Z</time></trkpt><trkpt lat="45.2722333" lon="7.7760333"><ele>235.0</ele><time>2026-05-01T09:36:38.798Z</time></trkpt><trkpt lat="45.2720917" lon="7.7760783"><ele>235.0</ele><time>2026-05-01T09:36:39.798Z</time></trkpt><trkpt lat="45.2719567" lon="7.7761267"><ele>235.0</ele><time>2026-05-01T09:36:40.798Z</time></trkpt><trkpt lat="45.2718283" lon="7.776175"><ele>235.0</ele><time>2026-05-01T09:36:41.798Z</time></trkpt><trkpt lat="45.2717" lon="7.776215"><ele>235.0</ele><time>2026-05-01T09:36:42.798Z</time></trkpt><trkpt lat="45.2715883" lon="7.776265"><ele>235.0</ele><time>2026-05-01T09:36:43.798Z</time></trkpt><trkpt lat="45.2714717" lon="7.7763017"><ele>235.0</ele><time>2026-05-01T09:36:44.798Z</time></trkpt><trkpt lat="45.2713633" lon="7.776335"><ele>235.0</ele><time>2026-05-01T09:36:45.798Z</time></trkpt><trkpt lat="45.2712683" lon="7.77636"><ele>235.0</ele><time>2026-05-01T09:36:46.798Z</time></trkpt><trkpt lat="45.271195" lon="7.77638"><ele>235.0</ele><time>2026-05-01T09:36:47.798Z</time></trkpt><trkpt lat="45.2711317" lon="7.7764133"><ele>235.0</ele><time>2026-05-01T09:36:48.798Z</time></trkpt><trkpt lat="45.271065" lon="7.7765"><ele>235.0</ele><time>2026-05-01T09:36:50.798Z</time></trkpt><trkpt lat="45.271045" lon="7.776695"><ele>234.75</ele><time>2026-05-01T09:36:52.798Z</time></trkpt><trkpt lat="45.2710383" lon="7.776865"><ele>234.5</ele><time>2026-05-01T09:36:53.798Z</time></trkpt><trkpt lat="45.2710333" lon="7.7770667"><ele>234.25</ele><time>2026-05-01T09:36:54.798Z</time></trkpt><trkpt lat="45.2710167" lon="7.7773217"><ele>234.0</ele><time>2026-05-01T09:36:55.798Z</time></trkpt><trkpt lat="45.2710017" lon="7.7775883"><ele>234.0</ele><time>2026-05-01T09:36:56.798Z</time></trkpt><trkpt lat="45.2709867" lon="7.7778567"><ele>234.0</ele><time>2026-05-01T09:36:57.798Z</time></trkpt><trkpt lat="45.2709783" lon="7.7781183"><ele>234.0</ele><time>2026-05-01T09:36:58.797Z</time></trkpt><trkpt lat="45.2709667" lon="7.7783533"><ele>233.75</ele><time>2026-05-01T09:36:59.798Z</time></trkpt><trkpt lat="45.2709517" lon="7.7785633"><ele>233.5</ele><time>2026-05-01T09:37:00.798Z</time></trkpt><trkpt lat="45.270945" lon="7.77873"><ele>233.25</ele><time>2026-05-01T09:37:01.798Z</time></trkpt><trkpt lat="45.2709283" lon="7.7788683"><ele>233.0</ele><time>2026-05-01T09:37:02.797Z</time></trkpt><trkpt lat="45.2708917" lon="7.7789983"><ele>233.0</ele><time>2026-05-01T09:37:03.798Z</time></trkpt><trkpt lat="45.2708367" lon="7.7791133"><ele>233.0</ele><time>2026-05-01T09:37:04.798Z</time></trkpt><trkpt lat="45.27075" lon="7.7792267"><ele>233.0</ele><time>2026-05-01T09:37:05.798Z</time></trkpt><trkpt lat="45.2706233" lon="7.7793617"><ele>233.0</ele><time>2026-05-01T09:37:06.798Z</time></trkpt><trkpt lat="45.2704667" lon="7.7795317"><ele>234.0</ele><time>2026-05-01T09:37:07.798Z</time></trkpt><trkpt lat="45.27031" lon="7.779725"><ele>235.0</ele><time>2026-05-01T09:37:08.798Z</time></trkpt><trkpt lat="45.270125" lon="7.7799533"><ele>235.5</ele><time>2026-05-01T09:37:09.798Z</time></trkpt><trkpt lat="45.2699333" lon="7.7801833"><ele>236.0</ele><time>2026-05-01T09:37:10.797Z</time></trkpt><trkpt lat="45.269735" lon="7.7804283"><ele>236.0</ele><time>2026-05-01T09:37:11.798Z</time></trkpt><trkpt lat="45.2695317" lon="7.7806883"><ele>236.0</ele><time>2026-05-01T09:37:12.798Z</time></trkpt><trkpt lat="45.2693283" lon="7.7809517"><ele>236.0</ele><time>2026-05-01T09:37:13.798Z</time></trkpt><trkpt lat="45.2691133" lon="7.7812183"><ele>236.0</ele><time>2026-05-01T09:37:14.798Z</time></trkpt><trkpt lat="45.268905" lon="7.7814783"><ele>235.5</ele><time>2026-05-01T09:37:15.798Z</time></trkpt><trkpt lat="45.2687033" lon="7.7817267"><ele>235.0</ele><time>2026-05-01T09:37:16.798Z</time></trkpt><trkpt lat="45.268515" lon="7.78197"><ele>235.0</ele><time>2026-05-01T09:37:17.798Z</time></trkpt><trkpt lat="45.2683167" lon="7.78219"><ele>235.0</ele><time>2026-05-01T09:37:18.798Z</time></trkpt><trkpt lat="45.2681483" lon="7.7823983"><ele>235.0</ele><time>2026-05-01T09:37:19.798Z</time></trkpt><trkpt lat="45.268" lon="7.7825767"><ele>235.0</ele><time>2026-05-01T09:37:20.798Z</time></trkpt><trkpt lat="45.2678417" lon="7.78276"><ele>235.0</ele><time>2026-05-01T09:37:21.798Z</time></trkpt><trkpt lat="45.2676867" lon="7.7829633"><ele>235.0</ele><time>2026-05-01T09:37:22.797Z</time></trkpt><trkpt lat="45.2675333" lon="7.7831683"><ele>235.0</ele><time>2026-05-01T09:37:23.798Z</time></trkpt><trkpt lat="45.2673933" lon="7.7833483"><ele>235.0</ele><time>2026-05-01T09:37:24.798Z</time></trkpt><trkpt lat="45.2672633" lon="7.7835033"><ele>235.25</ele><time>2026-05-01T09:37:25.798Z</time></trkpt><trkpt lat="45.2671583" lon="7.783615"><ele>235.5</ele><time>2026-05-01T09:37:26.798Z</time></trkpt><trkpt lat="45.2670333" lon="7.78372"><ele>235.75</ele><time>2026-05-01T09:37:27.798Z</time></trkpt><trkpt lat="45.266875" lon="7.7838183"><ele>236.0</ele><time>2026-05-01T09:37:28.798Z</time></trkpt><trkpt lat="45.2666783" lon="7.7839167"><ele>236.0</ele><time>2026-05-01T09:37:29.798Z</time></trkpt><trkpt lat="45.2664683" lon="7.784045"><ele>236.0</ele><time>2026-05-01T09:37:30.798Z</time></trkpt><trkpt lat="45.2662133" lon="7.7841867"><ele>236.0</ele><time>2026-05-01T09:37:31.798Z</time></trkpt><trkpt lat="45.265975" lon="7.78433"><ele>236.0</ele><time>2026-05-01T09:37:32.797Z</time></trkpt><trkpt lat="45.26572" lon="7.7844733"><ele>235.5</ele><time>2026-05-01T09:37:33.798Z</time></trkpt><trkpt lat="45.26546" lon="7.78462"><ele>235.0</ele><time>2026-05-01T09:37:34.798Z</time></trkpt><trkpt lat="45.2652117" lon="7.784765"><ele>235.0</ele><time>2026-05-01T09:37:35.798Z</time></trkpt><trkpt lat="45.2649667" lon="7.7849117"><ele>235.0</ele><time>2026-05-01T09:37:36.798Z</time></trkpt><trkpt lat="45.2647233" lon="7.7850583"><ele>233.5</ele><time>2026-05-01T09:37:37.798Z</time></trkpt><trkpt lat="45.2645067" lon="7.785185"><ele>232.0</ele><time>2026-05-01T09:37:38.798Z</time></trkpt><trkpt lat="45.2642883" lon="7.7852883"><ele>232.0</ele><time>2026-05-01T09:37:39.798Z</time></trkpt><trkpt lat="45.2640833" lon="7.78539"><ele>232.0</ele><time>2026-05-01T09:37:40.798Z</time></trkpt><trkpt lat="45.26389" lon="7.7855067"><ele>232.0</ele><time>2026-05-01T09:37:41.798Z</time></trkpt><trkpt lat="45.2636617" lon="7.78559"><ele>230.0</ele><time>2026-05-01T09:37:42.798Z</time></trkpt><trkpt lat="45.2634517" lon="7.7856583"><ele>228.0</ele><time>2026-05-01T09:37:43.798Z</time></trkpt><trkpt lat="45.2632383" lon="7.785725"><ele>226.0</ele><time>2026-05-01T09:37:44.798Z</time></trkpt><trkpt lat="45.2630017" lon="7.7857817"><ele>226.0</ele><time>2026-05-01T09:37:45.798Z</time></trkpt><trkpt lat="45.2627617" lon="7.7858383"><ele>226.0</ele><time>2026-05-01T09:37:46.798Z</time></trkpt><trkpt lat="45.2625017" lon="7.785895"><ele>227.5</ele><time>2026-05-01T09:37:47.798Z</time></trkpt><trkpt lat="45.2622233" lon="7.78596"><ele>229.0</ele><time>2026-05-01T09:37:48.798Z</time></trkpt><trkpt lat="45.261955" lon="7.7860317"><ele>229.0</ele><time>2026-05-01T09:37:49.798Z</time></trkpt><trkpt lat="45.2617017" lon="7.7861017"><ele>229.0</ele><time>2026-05-01T09:37:50.798Z</time></trkpt><trkpt lat="45.2614783" lon="7.7861667"><ele>228.33333333333331</ele><time>2026-05-01T09:37:51.798Z</time></trkpt><trkpt lat="45.2612833" lon="7.7862233"><ele>227.66666666666669</ele><time>2026-05-01T09:37:52.798Z</time></trkpt><trkpt lat="45.2611033" lon="7.786275"><ele>227.0</ele><time>2026-05-01T09:37:53.798Z</time></trkpt><trkpt lat="45.26093" lon="7.786335"><ele>227.0</ele><time>2026-05-01T09:37:54.798Z</time></trkpt><trkpt lat="45.260765" lon="7.78637"><ele>227.0</ele><time>2026-05-01T09:37:55.798Z</time></trkpt><trkpt lat="45.2606067" lon="7.7864"><ele>227.0</ele><time>2026-05-01T09:37:56.798Z</time></trkpt><trkpt lat="45.26046" lon="7.786435"><ele>227.0</ele><time>2026-05-01T09:37:57.798Z</time></trkpt><trkpt lat="45.2603233" lon="7.7864633"><ele>227.0</ele><time>2026-05-01T09:37:58.798Z</time></trkpt><trkpt lat="45.2601983" lon="7.78649"><ele>227.0</ele><time>2026-05-01T09:37:59.797Z</time></trkpt><trkpt lat="45.26007" lon="7.7865183"><ele>227.0</ele><time>2026-05-01T09:38:00.798Z</time></trkpt><trkpt lat="45.25993" lon="7.78655"><ele>227.0</ele><time>2026-05-01T09:38:01.798Z</time></trkpt><trkpt lat="45.2597867" lon="7.7865917"><ele>227.0</ele><time>2026-05-01T09:38:02.798Z</time></trkpt><trkpt lat="45.25965" lon="7.786635"><ele>227.0</ele><time>2026-05-01T09:38:03.798Z</time></trkpt><trkpt lat="45.2595283" lon="7.78666"><ele>227.0</ele><time>2026-05-01T09:38:04.798Z</time></trkpt><trkpt lat="45.2594133" lon="7.7866933"><ele>227.16666666666669</ele><time>2026-05-01T09:38:05.798Z</time></trkpt><trkpt lat="45.259325" lon="7.7867117"><ele>227.33333333333334</ele><time>2026-05-01T09:38:06.798Z</time></trkpt><trkpt lat="45.259245" lon="7.78673"><ele>227.5</ele><time>2026-05-01T09:38:07.798Z</time></trkpt><trkpt lat="45.2591817" lon="7.7867467"><ele>227.66666666666669</ele><time>2026-05-01T09:38:08.798Z</time></trkpt><trkpt lat="45.2590567" lon="7.7867633"><ele>227.83333333333334</ele><time>2026-05-01T09:38:10.798Z</time></trkpt><trkpt lat="45.258985" lon="7.7867767"><ele>228.0</ele><time>2026-05-01T09:38:11.798Z</time></trkpt><trkpt lat="45.258915" lon="7.78679"><ele>228.16666666666666</ele><time>2026-05-01T09:38:12.798Z</time></trkpt><trkpt lat="45.2588517" lon="7.7867917"><ele>228.33333333333331</ele><time>2026-05-01T09:38:13.798Z</time></trkpt><trkpt lat="45.2587567" lon="7.7867633"><ele>228.5</ele><time>2026-05-01T09:38:15.798Z</time></trkpt><trkpt lat="45.2586517" lon="7.78669"><ele>228.66666666666666</ele><time>2026-05-01T09:38:17.798Z</time></trkpt><trkpt lat="45.2585983" lon="7.7866383"><ele>228.83333333333331</ele><time>2026-05-01T09:38:18.798Z</time></trkpt><trkpt lat="45.258535" lon="7.7865283"><ele>229.0</ele><time>2026-05-01T09:38:20.798Z</time></trkpt><trkpt lat="45.2584867" lon="7.7864517"><ele>228.99999999999997</ele><time>2026-05-01T09:38:22.798Z</time></trkpt><trkpt lat="45.2584317" lon="7.7863983"><ele>229.0</ele><time>2026-05-01T09:38:58.797Z</time></trkpt><trkpt lat="45.258345" lon="7.78638"><ele>229.0</ele><time>2026-05-01T09:39:00.798Z</time></trkpt><trkpt lat="45.258275" lon="7.7863783"><ele>229.0</ele><time>2026-05-01T09:39:01.797Z</time></trkpt><trkpt lat="45.2582017" lon="7.7863817"><ele>228.99999999999997</ele><time>2026-05-01T09:39:02.798Z</time></trkpt><trkpt lat="45.2581283" lon="7.786385"><ele>229.0</ele><time>2026-05-01T09:39:03.798Z</time></trkpt><trkpt lat="45.2580033" lon="7.7863967"><ele>228.49999999999997</ele><time>2026-05-01T09:39:05.797Z</time></trkpt><trkpt lat="45.25794" lon="7.7864067"><ele>228.0</ele><time>2026-05-01T09:39:06.798Z</time></trkpt><trkpt lat="45.25782" lon="7.786435"><ele>227.5</ele><time>2026-05-01T09:39:08.798Z</time></trkpt><trkpt lat="45.257755" lon="7.7864517"><ele>227.0</ele><time>2026-05-01T09:39:09.798Z</time></trkpt><trkpt lat="45.2576817" lon="7.7864667"><ele>226.49999999999997</ele><time>2026-05-01T09:39:10.798Z</time></trkpt><trkpt lat="45.25761" lon="7.7864817"><ele>226.0</ele><time>2026-05-01T09:39:11.798Z</time></trkpt><trkpt lat="45.2575383" lon="7.7864917"><ele>225.99999999999997</ele><time>2026-05-01T09:39:12.798Z</time></trkpt><trkpt lat="45.2574633" lon="7.78651"><ele>226.0</ele><time>2026-05-01T09:39:13.798Z</time></trkpt><trkpt lat="45.257385" lon="7.7865233"><ele>226.0</ele><time>2026-05-01T09:39:14.798Z</time></trkpt><trkpt lat="45.2573133" lon="7.786545"><ele>226.0</ele><time>2026-05-01T09:39:15.798Z</time></trkpt><trkpt lat="45.2572417" lon="7.78656"><ele>225.99999999999997</ele><time>2026-05-01T09:39:16.798Z</time></trkpt><trkpt lat="45.2571517" lon="7.7865717"><ele>226.0</ele><time>2026-05-01T09:39:17.798Z</time></trkpt><trkpt lat="45.2570717" lon="7.78659"><ele>225.8</ele><time>2026-05-01T09:39:18.798Z</time></trkpt><trkpt lat="45.256985" lon="7.78661"><ele>225.60000000000002</ele><time>2026-05-01T09:39:19.798Z</time></trkpt><trkpt lat="45.2568817" lon="7.7866383"><ele>225.4</ele><time>2026-05-01T09:39:20.798Z</time></trkpt><trkpt lat="45.2567833" lon="7.7866733"><ele>225.2</ele><time>2026-05-01T09:39:21.798Z</time></trkpt><trkpt lat="45.2566967" lon="7.7866983"><ele>225.0</ele><time>2026-05-01T09:39:22.798Z</time></trkpt><trkpt lat="45.256625" lon="7.78673"><ele>225.0</ele><time>2026-05-01T09:39:23.798Z</time></trkpt><trkpt lat="45.25656" lon="7.7867683"><ele>225.0</ele><time>2026-05-01T09:39:24.798Z</time></trkpt><trkpt lat="45.2564817" lon="7.78689"><ele>225.0</ele><time>2026-05-01T09:39:26.798Z</time></trkpt><trkpt lat="45.25645" lon="7.786975"><ele>225.0</ele><time>2026-05-01T09:39:27.798Z</time></trkpt><trkpt lat="45.256405" lon="7.7870717"><ele>225.0</ele><time>2026-05-01T09:39:28.798Z</time></trkpt><trkpt lat="45.2563667" lon="7.7871817"><ele>225.0</ele><time>2026-05-01T09:39:29.798Z</time></trkpt><trkpt lat="45.2563283" lon="7.7873067"><ele>225.0</ele><time>2026-05-01T09:39:30.798Z</time></trkpt><trkpt lat="45.2562867" lon="7.7874267"><ele>225.0</ele><time>2026-05-01T09:39:31.798Z</time></trkpt><trkpt lat="45.25623" lon="7.7875383"><ele>225.0</ele><time>2026-05-01T09:39:32.798Z</time></trkpt><trkpt lat="45.2561783" lon="7.7876417"><ele>225.0</ele><time>2026-05-01T09:39:33.798Z</time></trkpt><trkpt lat="45.2561333" lon="7.7877383"><ele>225.0</ele><time>2026-05-01T09:39:34.798Z</time></trkpt><trkpt lat="45.256085" lon="7.7878267"><ele>225.0</ele><time>2026-05-01T09:39:35.798Z</time></trkpt><trkpt lat="45.2560117" lon="7.7879817"><ele>225.0</ele><time>2026-05-01T09:39:37.798Z</time></trkpt><trkpt lat="45.2559833" lon="7.78807"><ele>225.0</ele><time>2026-05-01T09:39:38.798Z</time></trkpt><trkpt lat="45.2559467" lon="7.788145"><ele>225.0</ele><time>2026-05-01T09:39:39.798Z</time></trkpt><trkpt lat="45.255905" lon="7.7882233"><ele>225.0</ele><time>2026-05-01T09:39:40.798Z</time></trkpt><trkpt lat="45.255845" lon="7.788365"><ele>225.0</ele><time>2026-05-01T09:39:42.798Z</time></trkpt><trkpt lat="45.25579" lon="7.78851"><ele>225.0</ele><time>2026-05-01T09:39:44.798Z</time></trkpt><trkpt lat="45.2557233" lon="7.788655"><ele>225.0</ele><time>2026-05-01T09:39:46.798Z</time></trkpt><trkpt lat="45.2556833" lon="7.7887317"><ele>225.0</ele><time>2026-05-01T09:39:47.798Z</time></trkpt><trkpt lat="45.2556383" lon="7.7888183"><ele>225.0</ele><time>2026-05-01T09:39:48.798Z</time></trkpt><trkpt lat="45.2555983" lon="7.78891"><ele>225.0</ele><time>2026-05-01T09:39:49.798Z</time></trkpt><trkpt lat="45.2555517" lon="7.7890133"><ele>225.0</ele><time>2026-05-01T09:39:50.798Z</time></trkpt><trkpt lat="45.2555133" lon="7.7891133"><ele>225.0</ele><time>2026-05-01T09:39:51.798Z</time></trkpt><trkpt lat="45.2554733" lon="7.7892083"><ele>225.33333333333334</ele><time>2026-05-01T09:39:52.798Z</time></trkpt><trkpt lat="45.25544" lon="7.7892917"><ele>225.66666666666669</ele><time>2026-05-01T09:39:53.798Z</time></trkpt><trkpt lat="45.2554" lon="7.7893867"><ele>226.0</ele><time>2026-05-01T09:39:54.798Z</time></trkpt><trkpt lat="45.2553583" lon="7.7894817"><ele>226.33333333333334</ele><time>2026-05-01T09:39:55.798Z</time></trkpt><trkpt lat="45.255315" lon="7.789575"><ele>226.66666666666669</ele><time>2026-05-01T09:39:56.798Z</time></trkpt><trkpt lat="45.25527" lon="7.7896717"><ele>227.0</ele><time>2026-05-01T09:39:57.798Z</time></trkpt><trkpt lat="45.2552283" lon="7.7897567"><ele>227.0</ele><time>2026-05-01T09:39:58.798Z</time></trkpt><trkpt lat="45.2551817" lon="7.7899067"><ele>227.0</ele><time>2026-05-01T09:40:00.798Z</time></trkpt><trkpt lat="45.2551467" lon="7.7900133"><ele>227.0</ele><time>2026-05-01T09:40:01.798Z</time></trkpt><trkpt lat="45.255115" lon="7.7902017"><ele>227.0</ele><time>2026-05-01T09:40:03.798Z</time></trkpt><trkpt lat="45.255075" lon="7.790355"><ele>226.75</ele><time>2026-05-01T09:40:05.798Z</time></trkpt><trkpt lat="45.255075" lon="7.7905083"><ele>226.5</ele><time>2026-05-01T09:40:07.798Z</time></trkpt><trkpt lat="45.2550867" lon="7.7906633"><ele>226.25</ele><time>2026-05-01T09:40:09.798Z</time></trkpt><trkpt lat="45.2550617" lon="7.79082"><ele>226.0</ele><time>2026-05-01T09:40:11.798Z</time></trkpt><trkpt lat="45.25503" lon="7.7909917"><ele>226.0</ele><time>2026-05-01T09:40:13.798Z</time></trkpt><trkpt lat="45.2550217" lon="7.791155"><ele>226.00000000000003</ele><time>2026-05-01T09:40:15.798Z</time></trkpt><trkpt lat="45.25502" lon="7.7913317"><ele>226.00000000000003</ele><time>2026-05-01T09:40:17.797Z</time></trkpt><trkpt lat="45.2550267" lon="7.7914217"><ele>226.0</ele><time>2026-05-01T09:40:18.798Z</time></trkpt><trkpt lat="45.2550333" lon="7.7915117"><ele>226.0</ele><time>2026-05-01T09:40:19.798Z</time></trkpt><trkpt lat="45.2550367" lon="7.791685"><ele>225.99999999999997</ele><time>2026-05-01T09:40:21.798Z</time></trkpt><trkpt lat="45.2550383" lon="7.7917917"><ele>226.0</ele><time>2026-05-01T09:40:22.798Z</time></trkpt><trkpt lat="45.25504" lon="7.7919033"><ele>226.0</ele><time>2026-05-01T09:40:23.797Z</time></trkpt><trkpt lat="45.255035" lon="7.7920067"><ele>226.0</ele><time>2026-05-01T09:40:24.798Z</time></trkpt><trkpt lat="45.25504" lon="7.7921017"><ele>225.99999999999997</ele><time>2026-05-01T09:40:25.798Z</time></trkpt><trkpt lat="45.25505" lon="7.7921917"><ele>226.0</ele><time>2026-05-01T09:40:26.798Z</time></trkpt><trkpt lat="45.2550883" lon="7.7923583"><ele>225.99999999999997</ele><time>2026-05-01T09:40:28.798Z</time></trkpt><trkpt lat="45.2551133" lon="7.792455"><ele>226.0</ele><time>2026-05-01T09:40:29.798Z</time></trkpt><trkpt lat="45.25514" lon="7.79258"><ele>226.0</ele><time>2026-05-01T09:40:30.798Z</time></trkpt><trkpt lat="45.2551733" lon="7.7926917"><ele>226.0</ele><time>2026-05-01T09:40:31.798Z</time></trkpt><trkpt lat="45.2552133" lon="7.7928017"><ele>225.99999999999997</ele><time>2026-05-01T09:40:32.798Z</time></trkpt><trkpt lat="45.25525" lon="7.7929067"><ele>226.0</ele><time>2026-05-01T09:40:33.798Z</time></trkpt><trkpt lat="45.2552883" lon="7.7930017"><ele>226.0</ele><time>2026-05-01T09:40:34.797Z</time></trkpt><trkpt lat="45.255325" lon="7.7930767"><ele>226.00000000000003</ele><time>2026-05-01T09:40:35.798Z</time></trkpt><trkpt lat="45.2553983" lon="7.7932117"><ele>226.00000000000003</ele><time>2026-05-01T09:40:37.798Z</time></trkpt><trkpt lat="45.25544" lon="7.793285"><ele>226.0</ele><time>2026-05-01T09:40:38.798Z</time></trkpt><trkpt lat="45.2555117" lon="7.7934083"><ele>226.0</ele><time>2026-05-01T09:40:40.798Z</time></trkpt><trkpt lat="45.2555367" lon="7.7935483"><ele>225.60000000000002</ele><time>2026-05-01T09:40:42.798Z</time></trkpt><trkpt lat="45.2555067" lon="7.7936733"><ele>225.20000000000002</ele><time>2026-05-01T09:40:44.798Z</time></trkpt><trkpt lat="45.2554283" lon="7.793765"><ele>224.79999999999998</ele><time>2026-05-01T09:40:46.798Z</time></trkpt><trkpt lat="45.2553717" lon="7.7938083"><ele>224.39999999999998</ele><time>2026-05-01T09:40:47.798Z</time></trkpt><trkpt lat="45.2553083" lon="7.79394"><ele>224.0</ele><time>2026-05-01T09:40:49.798Z</time></trkpt><trkpt lat="45.25533" lon="7.794085"><ele>224.0</ele><time>2026-05-01T09:40:51.798Z</time></trkpt><trkpt lat="45.2553717" lon="7.7942217"><ele>223.99999999999997</ele><time>2026-05-01T09:40:53.798Z</time></trkpt><trkpt lat="45.2553883" lon="7.7943567"><ele>223.99999999999997</ele><time>2026-05-01T09:40:55.798Z</time></trkpt><trkpt lat="45.25539" lon="7.794525"><ele>224.0</ele><time>2026-05-01T09:40:57.798Z</time></trkpt><trkpt lat="45.255355" lon="7.7946733"><ele>224.0</ele><time>2026-05-01T09:40:59.798Z</time></trkpt><trkpt lat="45.2552883" lon="7.7947883"><ele>223.75</ele><time>2026-05-01T09:41:01.798Z</time></trkpt><trkpt lat="45.25519" lon="7.79487"><ele>223.5</ele><time>2026-05-01T09:41:03.798Z</time></trkpt><trkpt lat="45.2550833" lon="7.794945"><ele>223.25</ele><time>2026-05-01T09:41:05.798Z</time></trkpt><trkpt lat="45.2549733" lon="7.794985"><ele>223.0</ele><time>2026-05-01T09:41:07.798Z</time></trkpt><trkpt lat="45.25485" lon="7.7949883"><ele>223.33333333333331</ele><time>2026-05-01T09:41:09.798Z</time></trkpt><trkpt lat="45.2547133" lon="7.7950017"><ele>223.66666666666666</ele><time>2026-05-01T09:41:11.798Z</time></trkpt><trkpt lat="45.2546367" lon="7.7950267"><ele>224.0</ele><time>2026-05-01T09:41:12.797Z</time></trkpt><trkpt lat="45.254565" lon="7.7950433"><ele>224.33333333333331</ele><time>2026-05-01T09:41:13.798Z</time></trkpt><trkpt lat="45.2544967" lon="7.7950633"><ele>224.66666666666666</ele><time>2026-05-01T09:41:14.797Z</time></trkpt><trkpt lat="45.2544383" lon="7.7951017"><ele>225.0</ele><time>2026-05-01T09:41:15.798Z</time></trkpt><trkpt lat="45.2543333" lon="7.7951333"><ele>225.0</ele><time>2026-05-01T09:41:17.798Z</time></trkpt><trkpt lat="45.2542683" lon="7.795135"><ele>225.0</ele><time>2026-05-01T09:41:18.798Z</time></trkpt><trkpt lat="45.254195" lon="7.7951383"><ele>225.0</ele><time>2026-05-01T09:41:19.798Z</time></trkpt><trkpt lat="45.25412" lon="7.7951383"><ele>225.0</ele><time>2026-05-01T09:41:20.798Z</time></trkpt><trkpt lat="45.2540567" lon="7.79514"><ele>225.0</ele><time>2026-05-01T09:41:21.798Z</time></trkpt><trkpt lat="45.2539933" lon="7.7951517"><ele>225.0</ele><time>2026-05-01T09:41:22.798Z</time></trkpt><trkpt lat="45.2538833" lon="7.7951933"><ele>224.83333333333334</ele><time>2026-05-01T09:41:24.798Z</time></trkpt><trkpt lat="45.2538117" lon="7.7952067"><ele>224.66666666666669</ele><time>2026-05-01T09:41:25.798Z</time></trkpt><trkpt lat="45.2537383" lon="7.7952283"><ele>224.5</ele><time>2026-05-01T09:41:26.798Z</time></trkpt><trkpt lat="45.253665" lon="7.7952433"><ele>224.33333333333334</ele><time>2026-05-01T09:41:27.798Z</time></trkpt><trkpt lat="45.2535667" lon="7.795265"><ele>224.16666666666669</ele><time>2026-05-01T09:41:29.798Z</time></trkpt><trkpt lat="45.2534967" lon="7.79531"><ele>224.0</ele><time>2026-05-01T09:41:31.798Z</time></trkpt><trkpt lat="45.253445" lon="7.7953617"><ele>224.0</ele><time>2026-05-01T09:41:33.798Z</time></trkpt><trkpt lat="45.25336" lon="7.7954467"><ele>223.99999999999997</ele><time>2026-05-01T09:41:35.798Z</time></trkpt><trkpt lat="45.25328" lon="7.7955633"><ele>223.99999999999997</ele><time>2026-05-01T09:41:37.798Z</time></trkpt><trkpt lat="45.253205" lon="7.7956883"><ele>224.0</ele><time>2026-05-01T09:41:39.798Z</time></trkpt><trkpt lat="45.2531383" lon="7.7958067"><ele>224.0</ele><time>2026-05-01T09:41:41.798Z</time></trkpt><trkpt lat="45.25308" lon="7.7959"><ele>224.00000000000003</ele><time>2026-05-01T09:41:43.798Z</time></trkpt><trkpt lat="45.2530317" lon="7.7959583"><ele>224.0</ele><time>2026-05-01T09:41:45.798Z</time></trkpt><trkpt lat="45.2530733" lon="7.79589"><ele>224.0</ele><time>2026-05-01T09:44:15.797Z</time></trkpt><trkpt lat="45.253125" lon="7.795775"><ele>224.0</ele><time>2026-05-01T09:44:18.796Z</time></trkpt><trkpt lat="45.25317" lon="7.7956633"><ele>224.00000000000003</ele><time>2026-05-01T09:44:20.797Z</time></trkpt><trkpt lat="45.2532233" lon="7.7955633"><ele>224.0</ele><time>2026-05-01T09:44:22.797Z</time></trkpt><trkpt lat="45.2532867" lon="7.7954833"><ele>224.00000000000003</ele><time>2026-05-01T09:44:24.797Z</time></trkpt><trkpt lat="45.253365" lon="7.7954233"><ele>224.0</ele><time>2026-05-01T09:44:27.797Z</time></trkpt><trkpt lat="45.2534233" lon="7.7953833"><ele>224.0</ele><time>2026-05-01T09:44:30.797Z</time></trkpt><trkpt lat="45.2535117" lon="7.795325"><ele>224.0</ele><time>2026-05-01T09:44:37.797Z</time></trkpt><trkpt lat="45.2536117" lon="7.7952983"><ele>224.00000000000003</ele><time>2026-05-01T09:44:39.797Z</time></trkpt><trkpt lat="45.2536783" lon="7.7952817"><ele>224.0</ele><time>2026-05-01T09:44:40.797Z</time></trkpt><trkpt lat="45.253785" lon="7.7952333"><ele>224.00000000000003</ele><time>2026-05-01T09:44:42.797Z</time></trkpt><trkpt lat="45.2538933" lon="7.7952133"><ele>224.0</ele><time>2026-05-01T09:44:44.797Z</time></trkpt><trkpt lat="45.2539583" lon="7.7952133"><ele>224.0</ele><time>2026-05-01T09:44:45.797Z</time></trkpt><trkpt lat="45.2540217" lon="7.795215"><ele>224.0</ele><time>2026-05-01T09:44:46.797Z</time></trkpt><trkpt lat="45.254085" lon="7.7952233"><ele>224.00000000000003</ele><time>2026-05-01T09:44:47.797Z</time></trkpt><trkpt lat="45.254185" lon="7.7952217"><ele>224.0</ele><time>2026-05-01T09:44:49.797Z</time></trkpt><trkpt lat="45.2542717" lon="7.7951933"><ele>224.16666666666669</ele><time>2026-05-01T09:44:51.796Z</time></trkpt><trkpt lat="45.2543817" lon="7.795155"><ele>224.33333333333334</ele><time>2026-05-01T09:44:53.797Z</time></trkpt><trkpt lat="45.254495" lon="7.7951217"><ele>224.5</ele><time>2026-05-01T09:44:55.797Z</time></trkpt><trkpt lat="45.25456" lon="7.795115"><ele>224.66666666666669</ele><time>2026-05-01T09:44:56.797Z</time></trkpt><trkpt lat="45.254635" lon="7.795115"><ele>224.83333333333334</ele><time>2026-05-01T09:44:57.797Z</time></trkpt><trkpt lat="45.2547067" lon="7.7951183"><ele>225.0</ele><time>2026-05-01T09:44:58.797Z</time></trkpt><trkpt lat="45.2547733" lon="7.795115"><ele>224.6</ele><time>2026-05-01T09:44:59.797Z</time></trkpt><trkpt lat="45.2548367" lon="7.79511"><ele>224.2</ele><time>2026-05-01T09:45:00.797Z</time></trkpt><trkpt lat="45.254945" lon="7.7950667"><ele>223.8</ele><time>2026-05-01T09:45:02.797Z</time></trkpt><trkpt lat="45.25505" lon="7.7950267"><ele>223.4</ele><time>2026-05-01T09:45:04.797Z</time></trkpt><trkpt lat="45.2551283" lon="7.79502"><ele>223.0</ele><time>2026-05-01T09:45:06.797Z</time></trkpt><trkpt lat="45.255235" lon="7.7949467"><ele>222.99999999999997</ele><time>2026-05-01T09:45:27.797Z</time></trkpt><trkpt lat="45.2552817" lon="7.7948367"><ele>223.0</ele><time>2026-05-01T09:45:29.797Z</time></trkpt><trkpt lat="45.2553083" lon="7.79471"><ele>223.0</ele><time>2026-05-01T09:45:31.797Z</time></trkpt><trkpt lat="45.2553283" lon="7.7945717"><ele>223.0</ele><time>2026-05-01T09:45:33.797Z</time></trkpt><trkpt lat="45.2553233" lon="7.7944667"><ele>222.99999999999997</ele><time>2026-05-01T09:45:35.797Z</time></trkpt><trkpt lat="45.2553217" lon="7.7943683"><ele>223.0</ele><time>2026-05-01T09:45:37.797Z</time></trkpt><trkpt lat="45.2553367" lon="7.7942417"><ele>223.2</ele><time>2026-05-01T09:45:39.797Z</time></trkpt><trkpt lat="45.255385" lon="7.794115"><ele>223.4</ele><time>2026-05-01T09:45:41.797Z</time></trkpt><trkpt lat="45.2554633" lon="7.7940267"><ele>223.59999999999997</ele><time>2026-05-01T09:45:43.797Z</time></trkpt><trkpt lat="45.2555383" lon="7.7939217"><ele>223.79999999999998</ele><time>2026-05-01T09:45:45.797Z</time></trkpt><trkpt lat="45.2555917" lon="7.7937967"><ele>224.0</ele><time>2026-05-01T09:45:47.797Z</time></trkpt><trkpt lat="45.255595" lon="7.7936533"><ele>224.0</ele><time>2026-05-01T09:45:49.797Z</time></trkpt><trkpt lat="45.2555567" lon="7.79353"><ele>223.99999999999997</ele><time>2026-05-01T09:45:51.796Z</time></trkpt><trkpt lat="45.2555033" lon="7.79341"><ele>223.99999999999997</ele><time>2026-05-01T09:45:53.797Z</time></trkpt><trkpt lat="45.25543" lon="7.79327"><ele>224.0</ele><time>2026-05-01T09:45:55.797Z</time></trkpt><trkpt lat="45.25536" lon="7.7931267"><ele>224.0</ele><time>2026-05-01T09:45:57.797Z</time></trkpt><trkpt lat="45.2553167" lon="7.7930433"><ele>224.33333333333334</ele><time>2026-05-01T09:45:58.797Z</time></trkpt><trkpt lat="45.2552783" lon="7.7929667"><ele>224.66666666666669</ele><time>2026-05-01T09:45:59.797Z</time></trkpt><trkpt lat="45.2552383" lon="7.792885"><ele>225.0</ele><time>2026-05-01T09:46:00.797Z</time></trkpt><trkpt lat="45.25519" lon="7.7927967"><ele>225.33333333333331</ele><time>2026-05-01T09:46:01.797Z</time></trkpt><trkpt lat="45.2551517" lon="7.79271"><ele>225.66666666666666</ele><time>2026-05-01T09:46:02.797Z</time></trkpt><trkpt lat="45.25512" lon="7.79262"><ele>226.0</ele><time>2026-05-01T09:46:03.797Z</time></trkpt><trkpt lat="45.255075" lon="7.792455"><ele>226.16666666666666</ele><time>2026-05-01T09:46:05.797Z</time></trkpt><trkpt lat="45.255055" lon="7.79237"><ele>226.33333333333331</ele><time>2026-05-01T09:46:06.797Z</time></trkpt><trkpt lat="45.2550267" lon="7.7922183"><ele>226.5</ele><time>2026-05-01T09:46:08.797Z</time></trkpt><trkpt lat="45.2550017" lon="7.7921083"><ele>226.66666666666669</ele><time>2026-05-01T09:46:10.797Z</time></trkpt><trkpt lat="45.25494" lon="7.79213"><ele>226.83333333333334</ele><time>2026-05-01T09:46:43.797Z</time></trkpt><trkpt lat="45.2548867" lon="7.7922117"><ele>227.0</ele><time>2026-05-01T09:46:46.797Z</time></trkpt><trkpt lat="45.254835" lon="7.7922667"><ele>227.00000000000003</ele><time>2026-05-01T09:46:48.797Z</time></trkpt><trkpt lat="45.2547883" lon="7.7923383"><ele>227.0</ele><time>2026-05-01T09:46:51.797Z</time></trkpt><trkpt lat="45.2547633" lon="7.7924433"><ele>227.0</ele><time>2026-05-01T09:46:54.797Z</time></trkpt><trkpt lat="45.25472" lon="7.7925383"><ele>227.0</ele><time>2026-05-01T09:46:56.797Z</time></trkpt><trkpt lat="45.2546867" lon="7.7926183"><ele>227.00000000000003</ele><time>2026-05-01T09:46:58.797Z</time></trkpt><trkpt lat="45.2546167" lon="7.7926883"><ele>227.0</ele><time>2026-05-01T09:47:00.797Z</time></trkpt><trkpt lat="45.25453" lon="7.7927717"><ele>226.39999999999998</ele><time>2026-05-01T09:47:03.797Z</time></trkpt><trkpt lat="45.2544383" lon="7.79285"><ele>225.79999999999998</ele><time>2026-05-01T09:47:05.797Z</time></trkpt><trkpt lat="45.2543367" lon="7.7929483"><ele>225.2</ele><time>2026-05-01T09:47:07.797Z</time></trkpt><trkpt lat="45.2542383" lon="7.7930433"><ele>224.6</ele><time>2026-05-01T09:47:09.797Z</time></trkpt><trkpt lat="45.2541833" lon="7.7930933"><ele>224.0</ele><time>2026-05-01T09:47:10.797Z</time></trkpt><trkpt lat="45.2541283" lon="7.7931517"><ele>224.00000000000003</ele><time>2026-05-01T09:47:11.796Z</time></trkpt><trkpt lat="45.2540467" lon="7.793225"><ele>224.0</ele><time>2026-05-01T09:47:13.797Z</time></trkpt><trkpt lat="45.2539867" lon="7.7932783"><ele>224.0</ele><time>2026-05-01T09:47:15.797Z</time></trkpt><trkpt lat="45.25392" lon="7.7933"><ele>224.0</ele><time>2026-05-01T09:47:18.797Z</time></trkpt><trkpt lat="45.2538383" lon="7.7932967"><ele>224.00000000000003</ele><time>2026-05-01T09:47:21.797Z</time></trkpt><trkpt lat="45.2537567" lon="7.7932917"><ele>224.0</ele><time>2026-05-01T09:47:23.797Z</time></trkpt><trkpt lat="45.2536767" lon="7.79331"><ele>224.16666666666669</ele><time>2026-05-01T09:47:25.797Z</time></trkpt><trkpt lat="45.2536033" lon="7.793335"><ele>224.33333333333334</ele><time>2026-05-01T09:47:27.797Z</time></trkpt><trkpt lat="45.2535233" lon="7.7933367"><ele>224.5</ele><time>2026-05-01T09:47:29.797Z</time></trkpt><trkpt lat="45.25345" lon="7.7933617"><ele>224.66666666666669</ele><time>2026-05-01T09:47:31.797Z</time></trkpt><trkpt lat="45.2533717" lon="7.793395"><ele>224.83333333333334</ele><time>2026-05-01T09:47:33.797Z</time></trkpt><trkpt lat="45.2532883" lon="7.7934283"><ele>225.0</ele><time>2026-05-01T09:47:35.797Z</time></trkpt><trkpt lat="45.2532283" lon="7.793465"><ele>225.00000000000003</ele><time>2026-05-01T09:47:37.797Z</time></trkpt><trkpt lat="45.2531667" lon="7.7935033"><ele>225.0</ele><time>2026-05-01T09:47:40.797Z</time></trkpt><trkpt lat="45.2531017" lon="7.793525"><ele>225.00000000000003</ele><time>2026-05-01T09:47:42.797Z</time></trkpt><trkpt lat="45.25303" lon="7.79354"><ele>225.00000000000003</ele><time>2026-05-01T09:47:44.797Z</time></trkpt><trkpt lat="45.2529567" lon="7.793565"><ele>225.0</ele><time>2026-05-01T09:47:46.797Z</time></trkpt><trkpt lat="45.2528717" lon="7.7935983"><ele>225.00000000000003</ele><time>2026-05-01T09:47:48.797Z</time></trkpt><trkpt lat="45.252795" lon="7.7936267"><ele>225.00000000000003</ele><time>2026-05-01T09:47:50.797Z</time></trkpt><trkpt lat="45.25271" lon="7.7936667"><ele>225.0</ele><time>2026-05-01T09:47:52.797Z</time></trkpt><trkpt lat="45.252645" lon="7.7937267"><ele>225.0</ele><time>2026-05-01T09:47:54.797Z</time></trkpt><trkpt lat="45.252575" lon="7.79381"><ele>225.0</ele><time>2026-05-01T09:47:56.797Z</time></trkpt><trkpt lat="45.2524767" lon="7.7938867"><ele>225.0</ele><time>2026-05-01T09:47:58.797Z</time></trkpt><trkpt lat="45.2523717" lon="7.793965"><ele>225.0</ele><time>2026-05-01T09:48:00.797Z</time></trkpt><trkpt lat="45.25232" lon="7.7940183"><ele>224.83333333333334</ele><time>2026-05-01T09:48:01.797Z</time></trkpt><trkpt lat="45.2522283" lon="7.7941117"><ele>224.66666666666669</ele><time>2026-05-01T09:48:03.797Z</time></trkpt><trkpt lat="45.2521467" lon="7.7941783"><ele>224.5</ele><time>2026-05-01T09:48:05.797Z</time></trkpt><trkpt lat="45.252085" lon="7.7942383"><ele>224.33333333333334</ele><time>2026-05-01T09:48:07.797Z</time></trkpt><trkpt lat="45.2520283" lon="7.79429"><ele>224.16666666666669</ele><time>2026-05-01T09:48:09.797Z</time></trkpt><trkpt lat="45.25196" lon="7.794335"><ele>224.0</ele><time>2026-05-01T09:48:11.797Z</time></trkpt><trkpt lat="45.25189" lon="7.7943867"><ele>224.00000000000003</ele><time>2026-05-01T09:48:13.797Z</time></trkpt><trkpt lat="45.2518367" lon="7.7944533"><ele>224.0</ele><time>2026-05-01T09:48:15.797Z</time></trkpt><trkpt lat="45.2517833" lon="7.7945167"><ele>224.0</ele><time>2026-05-01T09:48:17.797Z</time></trkpt><trkpt lat="45.2517167" lon="7.7945767"><ele>224.0</ele><time>2026-05-01T09:48:19.797Z</time></trkpt><trkpt lat="45.2516467" lon="7.794615"><ele>224.00000000000003</ele><time>2026-05-01T09:48:21.797Z</time></trkpt><trkpt lat="45.2515583" lon="7.7946367"><ele>224.0</ele><time>2026-05-01T09:48:23.796Z</time></trkpt><trkpt lat="45.251465" lon="7.7946433"><ele>223.79999999999998</ele><time>2026-05-01T09:48:25.797Z</time></trkpt><trkpt lat="45.251375" lon="7.794655"><ele>223.59999999999997</ele><time>2026-05-01T09:48:27.797Z</time></trkpt><trkpt lat="45.2512717" lon="7.79467"><ele>223.4</ele><time>2026-05-01T09:48:29.797Z</time></trkpt><trkpt lat="45.2511583" lon="7.7947083"><ele>223.2</ele><time>2026-05-01T09:48:31.797Z</time></trkpt><trkpt lat="45.2510567" lon="7.7947433"><ele>223.0</ele><time>2026-05-01T09:48:33.797Z</time></trkpt><trkpt lat="45.250935" lon="7.79478"><ele>223.0</ele><time>2026-05-01T09:48:35.797Z</time></trkpt><trkpt lat="45.2508283" lon="7.7948067"><ele>223.0</ele><time>2026-05-01T09:48:37.797Z</time></trkpt><trkpt lat="45.2507267" lon="7.7948367"><ele>223.0</ele><time>2026-05-01T09:48:39.797Z</time></trkpt><trkpt lat="45.250615" lon="7.7948717"><ele>223.0</ele><time>2026-05-01T09:48:41.797Z</time></trkpt><trkpt lat="45.2505217" lon="7.7948867"><ele>223.0</ele><time>2026-05-01T09:48:43.797Z</time></trkpt><trkpt lat="45.2504133" lon="7.7949017"><ele>223.0</ele><time>2026-05-01T09:48:45.797Z</time></trkpt><trkpt lat="45.25031" lon="7.7949233"><ele>223.0</ele><time>2026-05-01T09:48:47.797Z</time></trkpt><trkpt lat="45.2502083" lon="7.7949517"><ele>223.0</ele><time>2026-05-01T09:48:49.797Z</time></trkpt><trkpt lat="45.2501033" lon="7.7949617"><ele>223.0</ele><time>2026-05-01T09:48:51.797Z</time></trkpt><trkpt lat="45.2500217" lon="7.7949583"><ele>223.0</ele><time>2026-05-01T09:48:53.797Z</time></trkpt><trkpt lat="45.2499183" lon="7.7949667"><ele>222.99999999999997</ele><time>2026-05-01T09:48:55.797Z</time></trkpt><trkpt lat="45.24982" lon="7.794955"><ele>223.0</ele><time>2026-05-01T09:48:57.797Z</time></trkpt><trkpt lat="45.249735" lon="7.794955"><ele>223.0</ele><time>2026-05-01T09:48:59.797Z</time></trkpt><trkpt lat="45.2496583" lon="7.7949383"><ele>223.0</ele><time>2026-05-01T09:49:01.797Z</time></trkpt><trkpt lat="45.2495717" lon="7.794935"><ele>222.99999999999997</ele><time>2026-05-01T09:49:03.797Z</time></trkpt><trkpt lat="45.2494783" lon="7.7949433"><ele>223.0</ele><time>2026-05-01T09:49:05.797Z</time></trkpt><trkpt lat="45.2494017" lon="7.7949433"><ele>223.83333333333331</ele><time>2026-05-01T09:49:07.797Z</time></trkpt><trkpt lat="45.2493" lon="7.7949133"><ele>224.66666666666666</ele><time>2026-05-01T09:49:39.797Z</time></trkpt><trkpt lat="45.2492117" lon="7.7948417"><ele>225.5</ele><time>2026-05-01T09:49:42.797Z</time></trkpt><trkpt lat="45.2491433" lon="7.7947567"><ele>226.33333333333331</ele><time>2026-05-01T09:49:45.797Z</time></trkpt><trkpt lat="45.2490867" lon="7.7946933"><ele>227.16666666666666</ele><time>2026-05-01T09:49:47.797Z</time></trkpt><trkpt lat="45.2490317" lon="7.7946183"><ele>228.0</ele><time>2026-05-01T09:49:49.797Z</time></trkpt><trkpt lat="45.2489633" lon="7.7945333"><ele>227.66666666666666</ele><time>2026-05-01T09:49:51.797Z</time></trkpt><trkpt lat="45.248905" lon="7.7944733"><ele>227.33333333333331</ele><time>2026-05-01T09:49:53.797Z</time></trkpt><trkpt lat="45.2488333" lon="7.794435"><ele>227.0</ele><time>2026-05-01T09:49:55.797Z</time></trkpt><trkpt lat="45.2487583" lon="7.79444"><ele>226.66666666666666</ele><time>2026-05-01T09:49:58.797Z</time></trkpt><trkpt lat="45.248695" lon="7.7945317"><ele>226.33333333333331</ele><time>2026-05-01T09:50:01.797Z</time></trkpt><trkpt lat="45.248655" lon="7.7946033"><ele>226.0</ele><time>2026-05-01T09:50:03.797Z</time></trkpt><trkpt lat="45.24859" lon="7.7946833"><ele>226.0</ele><time>2026-05-01T09:50:05.797Z</time></trkpt><trkpt lat="45.2485083" lon="7.7947617"><ele>226.00000000000003</ele><time>2026-05-01T09:50:07.797Z</time></trkpt><trkpt lat="45.248435" lon="7.7948217"><ele>226.00000000000003</ele><time>2026-05-01T09:50:09.797Z</time></trkpt><trkpt lat="45.2483617" lon="7.7948733"><ele>226.0</ele><time>2026-05-01T09:50:11.797Z</time></trkpt><trkpt lat="45.2482583" lon="7.794935"><ele>226.0</ele><time>2026-05-01T09:50:13.797Z</time></trkpt><trkpt lat="45.248165" lon="7.7949933"><ele>225.16666666666666</ele><time>2026-05-01T09:50:15.797Z</time></trkpt><trkpt lat="45.2480817" lon="7.7950683"><ele>224.33333333333331</ele><time>2026-05-01T09:50:17.797Z</time></trkpt><trkpt lat="45.24802" lon="7.7951483"><ele>223.5</ele><time>2026-05-01T09:50:19.797Z</time></trkpt><trkpt lat="45.24796" lon="7.79523"><ele>222.66666666666669</ele><time>2026-05-01T09:50:21.797Z</time></trkpt><trkpt lat="45.247895" lon="7.7953667"><ele>221.83333333333334</ele><time>2026-05-01T09:50:23.797Z</time></trkpt><trkpt lat="45.24786" lon="7.795445"><ele>221.0</ele><time>2026-05-01T09:50:24.797Z</time></trkpt><trkpt lat="45.2477967" lon="7.79558"><ele>221.0</ele><time>2026-05-01T09:50:26.797Z</time></trkpt><trkpt lat="45.2477333" lon="7.7956883"><ele>221.00000000000003</ele><time>2026-05-01T09:50:28.797Z</time></trkpt><trkpt lat="45.2476617" lon="7.7958067"><ele>221.00000000000003</ele><time>2026-05-01T09:50:30.797Z</time></trkpt><trkpt lat="45.2475983" lon="7.7959117"><ele>221.0</ele><time>2026-05-01T09:50:32.797Z</time></trkpt><trkpt lat="45.2475383" lon="7.79604"><ele>221.0</ele><time>2026-05-01T09:50:34.797Z</time></trkpt><trkpt lat="45.24748" lon="7.7961983"><ele>221.33333333333334</ele><time>2026-05-01T09:50:36.797Z</time></trkpt><trkpt lat="45.2474483" lon="7.7962883"><ele>221.66666666666669</ele><time>2026-05-01T09:50:37.797Z</time></trkpt><trkpt lat="45.247425" lon="7.7963767"><ele>222.0</ele><time>2026-05-01T09:50:38.797Z</time></trkpt><trkpt lat="45.2474267" lon="7.7965333"><ele>222.33333333333331</ele><time>2026-05-01T09:50:40.797Z</time></trkpt><trkpt lat="45.2474367" lon="7.7966233"><ele>222.66666666666666</ele><time>2026-05-01T09:50:41.797Z</time></trkpt><trkpt lat="45.2474567" lon="7.796725"><ele>223.0</ele><time>2026-05-01T09:50:42.797Z</time></trkpt><trkpt lat="45.247475" lon="7.79684"><ele>223.16666666666666</ele><time>2026-05-01T09:50:43.797Z</time></trkpt><trkpt lat="45.2474983" lon="7.7969517"><ele>223.33333333333331</ele><time>2026-05-01T09:50:44.797Z</time></trkpt><trkpt lat="45.2475217" lon="7.7970817"><ele>223.5</ele><time>2026-05-01T09:50:45.797Z</time></trkpt><trkpt lat="45.247535" lon="7.7972117"><ele>223.66666666666669</ele><time>2026-05-01T09:50:46.797Z</time></trkpt><trkpt lat="45.24754" lon="7.7973367"><ele>223.83333333333334</ele><time>2026-05-01T09:50:47.797Z</time></trkpt><trkpt lat="45.2475417" lon="7.7974333"><ele>224.0</ele><time>2026-05-01T09:50:48.797Z</time></trkpt><trkpt lat="45.2475217" lon="7.797625"><ele>223.6</ele><time>2026-05-01T09:50:50.797Z</time></trkpt><trkpt lat="45.2475067" lon="7.7977417"><ele>223.2</ele><time>2026-05-01T09:50:51.797Z</time></trkpt><trkpt lat="45.2474683" lon="7.7978817"><ele>222.79999999999998</ele><time>2026-05-01T09:50:52.797Z</time></trkpt><trkpt lat="45.2474183" lon="7.7980433"><ele>222.39999999999998</ele><time>2026-05-01T09:50:53.796Z</time></trkpt><trkpt lat="45.2473733" lon="7.798205"><ele>222.0</ele><time>2026-05-01T09:50:54.797Z</time></trkpt><trkpt lat="45.2473383" lon="7.7983467"><ele>222.0</ele><time>2026-05-01T09:50:55.797Z</time></trkpt><trkpt lat="45.2472967" lon="7.798475"><ele>222.0</ele><time>2026-05-01T09:50:56.797Z</time></trkpt><trkpt lat="45.2472367" lon="7.7985767"><ele>222.0</ele><time>2026-05-01T09:50:57.797Z</time></trkpt><trkpt lat="45.24717" lon="7.7986783"><ele>222.0</ele><time>2026-05-01T09:50:58.797Z</time></trkpt><trkpt lat="45.2470867" lon="7.7988"><ele>222.0</ele><time>2026-05-01T09:50:59.797Z</time></trkpt><trkpt lat="45.2470067" lon="7.798925"><ele>221.8</ele><time>2026-05-01T09:51:00.797Z</time></trkpt><trkpt lat="45.2469333" lon="7.79905"><ele>221.6</ele><time>2026-05-01T09:51:01.797Z</time></trkpt><trkpt lat="45.246875" lon="7.799165"><ele>221.40000000000003</ele><time>2026-05-01T09:51:02.797Z</time></trkpt><trkpt lat="45.2468217" lon="7.7992533"><ele>221.20000000000002</ele><time>2026-05-01T09:51:03.797Z</time></trkpt><trkpt lat="45.2467833" lon="7.7993267"><ele>221.0</ele><time>2026-05-01T09:51:04.797Z</time></trkpt><trkpt lat="45.2467267" lon="7.7994367"><ele>221.0</ele><time>2026-05-01T09:51:06.796Z</time></trkpt><trkpt lat="45.2466717" lon="7.79954"><ele>221.00000000000003</ele><time>2026-05-01T09:51:08.797Z</time></trkpt><trkpt lat="45.246625" lon="7.79966"><ele>221.00000000000003</ele><time>2026-05-01T09:51:11.797Z</time></trkpt><trkpt lat="45.2465633" lon="7.7997383"><ele>221.0</ele><time>2026-05-01T09:51:12.796Z</time></trkpt><trkpt lat="45.24649" lon="7.7998217"><ele>221.0</ele><time>2026-05-01T09:51:13.797Z</time></trkpt><trkpt lat="45.24641" lon="7.79989"><ele>220.60000000000002</ele><time>2026-05-01T09:51:14.797Z</time></trkpt><trkpt lat="45.2463233" lon="7.7999517"><ele>220.20000000000002</ele><time>2026-05-01T09:51:15.797Z</time></trkpt><trkpt lat="45.2462183" lon="7.7999933"><ele>219.79999999999998</ele><time>2026-05-01T09:51:16.797Z</time></trkpt><trkpt lat="45.24611" lon="7.80004"><ele>219.39999999999998</ele><time>2026-05-01T09:51:17.797Z</time></trkpt><trkpt lat="45.246" lon="7.800075"><ele>219.0</ele><time>2026-05-01T09:51:18.797Z</time></trkpt><trkpt lat="45.2458833" lon="7.8001033"><ele>219.0</ele><time>2026-05-01T09:51:19.797Z</time></trkpt><trkpt lat="45.2457867" lon="7.8001383"><ele>218.99999999999997</ele><time>2026-05-01T09:51:20.797Z</time></trkpt><trkpt lat="45.2456917" lon="7.8001867"><ele>218.99999999999997</ele><time>2026-05-01T09:51:21.797Z</time></trkpt><trkpt lat="45.2455967" lon="7.8002367"><ele>219.0</ele><time>2026-05-01T09:51:22.797Z</time></trkpt><trkpt lat="45.245495" lon="7.800285"><ele>219.0</ele><time>2026-05-01T09:51:23.797Z</time></trkpt><trkpt lat="45.2454033" lon="7.800325"><ele>218.66666666666666</ele><time>2026-05-01T09:51:24.797Z</time></trkpt><trkpt lat="45.2453183" lon="7.8003633"><ele>218.33333333333331</ele><time>2026-05-01T09:51:25.796Z</time></trkpt><trkpt lat="45.2452383" lon="7.8004017"><ele>218.0</ele><time>2026-05-01T09:51:26.797Z</time></trkpt><trkpt lat="45.2451533" lon="7.8004417"><ele>217.66666666666666</ele><time>2026-05-01T09:51:27.797Z</time></trkpt><trkpt lat="45.2450633" lon="7.8004667"><ele>217.33333333333331</ele><time>2026-05-01T09:51:28.797Z</time></trkpt><trkpt lat="45.2449717" lon="7.8004967"><ele>217.0</ele><time>2026-05-01T09:51:29.797Z</time></trkpt><trkpt lat="45.244885" lon="7.8005383"><ele>216.99999999999997</ele><time>2026-05-01T09:51:30.797Z</time></trkpt><trkpt lat="45.24481" lon="7.800585"><ele>217.0</ele><time>2026-05-01T09:51:31.797Z</time></trkpt><trkpt lat="45.2447417" lon="7.8006533"><ele>217.0</ele><time>2026-05-01T09:51:32.797Z</time></trkpt><trkpt lat="45.2446733" lon="7.8007433"><ele>217.0</ele><time>2026-05-01T09:51:33.797Z</time></trkpt><trkpt lat="45.2446" lon="7.80083"><ele>216.99999999999997</ele><time>2026-05-01T09:51:34.797Z</time></trkpt><trkpt lat="45.2445267" lon="7.8009067"><ele>217.0</ele><time>2026-05-01T09:51:35.797Z</time></trkpt><trkpt lat="45.244455" lon="7.80097"><ele>216.8</ele><time>2026-05-01T09:51:36.796Z</time></trkpt><trkpt lat="45.24439" lon="7.8010117"><ele>216.6</ele><time>2026-05-01T09:51:37.797Z</time></trkpt><trkpt lat="45.24428" lon="7.8010583"><ele>216.40000000000003</ele><time>2026-05-01T09:51:39.797Z</time></trkpt><trkpt lat="45.2442217" lon="7.8011667"><ele>216.20000000000002</ele><time>2026-05-01T09:52:45.797Z</time></trkpt><trkpt lat="45.2442617" lon="7.8013283"><ele>216.0</ele><time>2026-05-01T09:52:47.797Z</time></trkpt><trkpt lat="45.2443083" lon="7.801425"><ele>216.0</ele><time>2026-05-01T09:52:48.797Z</time></trkpt><trkpt lat="45.2443633" lon="7.8015233"><ele>216.00000000000003</ele><time>2026-05-01T09:52:49.797Z</time></trkpt><trkpt lat="45.2444183" lon="7.801635"><ele>216.00000000000003</ele><time>2026-05-01T09:52:50.797Z</time></trkpt><trkpt lat="45.24448" lon="7.8017483"><ele>216.0</ele><time>2026-05-01T09:52:51.797Z</time></trkpt><trkpt lat="45.2445467" lon="7.801865"><ele>216.0</ele><time>2026-05-01T09:52:52.797Z</time></trkpt><trkpt lat="45.2446017" lon="7.8019833"><ele>216.0</ele><time>2026-05-01T09:52:53.797Z</time></trkpt><trkpt lat="45.2446683" lon="7.802105"><ele>216.0</ele><time>2026-05-01T09:52:54.797Z</time></trkpt><trkpt lat="45.24474" lon="7.8022367"><ele>216.0</ele><time>2026-05-01T09:52:55.797Z</time></trkpt><trkpt lat="45.244805" lon="7.8023767"><ele>216.0</ele><time>2026-05-01T09:52:56.797Z</time></trkpt><trkpt lat="45.2448783" lon="7.8025233"><ele>216.0</ele><time>2026-05-01T09:52:57.797Z</time></trkpt><trkpt lat="45.2449567" lon="7.80268"><ele>216.0</ele><time>2026-05-01T09:52:58.797Z</time></trkpt><trkpt lat="45.2450167" lon="7.802845"><ele>216.0</ele><time>2026-05-01T09:52:59.797Z</time></trkpt><trkpt lat="45.245095" lon="7.8029983"><ele>216.0</ele><time>2026-05-01T09:53:00.797Z</time></trkpt><trkpt lat="45.2451817" lon="7.8031633"><ele>216.0</ele><time>2026-05-01T09:53:01.797Z</time></trkpt><trkpt lat="45.245265" lon="7.80333"><ele>216.0</ele><time>2026-05-01T09:53:02.797Z</time></trkpt><trkpt lat="45.2453533" lon="7.8035033"><ele>216.0</ele><time>2026-05-01T09:53:03.797Z</time></trkpt><trkpt lat="45.2454383" lon="7.80367"><ele>216.0</ele><time>2026-05-01T09:53:04.797Z</time></trkpt><trkpt lat="45.245525" lon="7.8038633"><ele>216.66666666666669</ele><time>2026-05-01T09:53:05.797Z</time></trkpt><trkpt lat="45.24562" lon="7.8040433"><ele>217.33333333333334</ele><time>2026-05-01T09:53:06.797Z</time></trkpt><trkpt lat="45.245715" lon="7.8042283"><ele>218.0</ele><time>2026-05-01T09:53:07.797Z</time></trkpt><trkpt lat="45.2458033" lon="7.804415"><ele>218.0</ele><time>2026-05-01T09:53:08.797Z</time></trkpt><trkpt lat="45.2458883" lon="7.80461"><ele>218.0</ele><time>2026-05-01T09:53:09.797Z</time></trkpt><trkpt lat="45.2459833" lon="7.8047967"><ele>218.0</ele><time>2026-05-01T09:53:10.797Z</time></trkpt><trkpt lat="45.2460683" lon="7.80499"><ele>217.66666666666669</ele><time>2026-05-01T09:53:11.797Z</time></trkpt><trkpt lat="45.2461767" lon="7.8051833"><ele>217.33333333333331</ele><time>2026-05-01T09:53:12.797Z</time></trkpt><trkpt lat="45.2462717" lon="7.8053783"><ele>217.0</ele><time>2026-05-01T09:53:13.797Z</time></trkpt><trkpt lat="45.2463733" lon="7.8055817"><ele>215.33333333333331</ele><time>2026-05-01T09:53:14.797Z</time></trkpt><trkpt lat="45.2464733" lon="7.8057867"><ele>213.66666666666669</ele><time>2026-05-01T09:53:15.796Z</time></trkpt><trkpt lat="45.2465783" lon="7.8059817"><ele>212.0</ele><time>2026-05-01T09:53:16.797Z</time></trkpt><trkpt lat="45.24669" lon="7.8061767"><ele>211.66666666666669</ele><time>2026-05-01T09:53:17.797Z</time></trkpt><trkpt lat="45.2467917" lon="7.80639"><ele>211.33333333333331</ele><time>2026-05-01T09:53:18.796Z</time></trkpt><trkpt lat="45.246895" lon="7.8065917"><ele>211.0</ele><time>2026-05-01T09:53:19.796Z</time></trkpt><trkpt lat="45.247" lon="7.8068017"><ele>211.33333333333331</ele><time>2026-05-01T09:53:20.797Z</time></trkpt><trkpt lat="45.2471017" lon="7.8069967"><ele>211.66666666666669</ele><time>2026-05-01T09:53:21.797Z</time></trkpt><trkpt lat="45.2472" lon="7.80719"><ele>212.0</ele><time>2026-05-01T09:53:22.797Z</time></trkpt><trkpt lat="45.2472967" lon="7.8073833"><ele>213.33333333333334</ele><time>2026-05-01T09:53:23.797Z</time></trkpt><trkpt lat="45.2474017" lon="7.8075883"><ele>214.66666666666669</ele><time>2026-05-01T09:53:24.797Z</time></trkpt><trkpt lat="45.2474967" lon="7.8077817"><ele>216.0</ele><time>2026-05-01T09:53:25.797Z</time></trkpt><trkpt lat="45.2475933" lon="7.8079833"><ele>216.66666666666669</ele><time>2026-05-01T09:53:26.797Z</time></trkpt><trkpt lat="45.2476917" lon="7.8081817"><ele>217.33333333333334</ele><time>2026-05-01T09:53:27.797Z</time></trkpt><trkpt lat="45.2477967" lon="7.8083767"><ele>218.0</ele><time>2026-05-01T09:53:28.797Z</time></trkpt><trkpt lat="45.2478967" lon="7.8085583"><ele>218.0</ele><time>2026-05-01T09:53:29.797Z</time></trkpt><trkpt lat="45.248005" lon="7.808725"><ele>218.0</ele><time>2026-05-01T09:53:30.797Z</time></trkpt><trkpt lat="45.24813" lon="7.8088817"><ele>218.0</ele><time>2026-05-01T09:53:31.797Z</time></trkpt><trkpt lat="45.2482567" lon="7.80902"><ele>218.33333333333334</ele><time>2026-05-01T09:53:32.797Z</time></trkpt><trkpt lat="45.248395" lon="7.8091617"><ele>218.66666666666669</ele><time>2026-05-01T09:53:33.797Z</time></trkpt><trkpt lat="45.2485433" lon="7.8092867"><ele>219.0</ele><time>2026-05-01T09:53:34.797Z</time></trkpt><trkpt lat="45.2486883" lon="7.809405"><ele>218.33333333333331</ele><time>2026-05-01T09:53:35.797Z</time></trkpt><trkpt lat="45.2488383" lon="7.8095083"><ele>217.66666666666666</ele><time>2026-05-01T09:53:36.797Z</time></trkpt><trkpt lat="45.248985" lon="7.8095867"><ele>217.0</ele><time>2026-05-01T09:53:37.797Z</time></trkpt><trkpt lat="45.2491467" lon="7.8096517"><ele>217.0</ele><time>2026-05-01T09:53:38.797Z</time></trkpt><trkpt lat="45.2492867" lon="7.8097133"><ele>217.0</ele><time>2026-05-01T09:53:39.796Z</time></trkpt><trkpt lat="45.2494467" lon="7.809745"><ele>217.0</ele><time>2026-05-01T09:53:40.797Z</time></trkpt><trkpt lat="45.2496017" lon="7.8097833"><ele>217.0</ele><time>2026-05-01T09:53:41.797Z</time></trkpt><trkpt lat="45.2497517" lon="7.8098067"><ele>217.0</ele><time>2026-05-01T09:53:42.796Z</time></trkpt><trkpt lat="45.2499" lon="7.80982"><ele>217.0</ele><time>2026-05-01T09:53:43.797Z</time></trkpt><trkpt lat="45.25006" lon="7.8098267"><ele>217.0</ele><time>2026-05-01T09:53:44.797Z</time></trkpt><trkpt lat="45.250225" lon="7.8098317"><ele>217.0</ele><time>2026-05-01T09:53:45.797Z</time></trkpt><trkpt lat="45.2503967" lon="7.809835"><ele>217.0</ele><time>2026-05-01T09:53:46.797Z</time></trkpt><trkpt lat="45.2505633" lon="7.8098467"><ele>217.33333333333331</ele><time>2026-05-01T09:53:47.797Z</time></trkpt><trkpt lat="45.2507283" lon="7.8098583"><ele>217.66666666666669</ele><time>2026-05-01T09:53:48.797Z</time></trkpt><trkpt lat="45.2509" lon="7.80987"><ele>218.0</ele><time>2026-05-01T09:53:49.796Z</time></trkpt><trkpt lat="45.25107" lon="7.80988"><ele>218.0</ele><time>2026-05-01T09:53:50.797Z</time></trkpt><trkpt lat="45.2512367" lon="7.8098883"><ele>218.0</ele><time>2026-05-01T09:53:51.797Z</time></trkpt><trkpt lat="45.2514017" lon="7.809905"><ele>218.0</ele><time>2026-05-01T09:53:52.797Z</time></trkpt><trkpt lat="45.2515583" lon="7.80992"><ele>218.25</ele><time>2026-05-01T09:53:53.797Z</time></trkpt><trkpt lat="45.2517133" lon="7.80993"><ele>218.5</ele><time>2026-05-01T09:53:54.796Z</time></trkpt><trkpt lat="45.2518633" lon="7.80994"><ele>218.75</ele><time>2026-05-01T09:53:55.797Z</time></trkpt><trkpt lat="45.252005" lon="7.8099467"><ele>219.0</ele><time>2026-05-01T09:53:56.797Z</time></trkpt><trkpt lat="45.25215" lon="7.8099567"><ele>218.75</ele><time>2026-05-01T09:53:57.797Z</time></trkpt><trkpt lat="45.2522917" lon="7.8099717"><ele>218.5</ele><time>2026-05-01T09:53:58.797Z</time></trkpt><trkpt lat="45.2524367" lon="7.8099883"><ele>218.25</ele><time>2026-05-01T09:53:59.797Z</time></trkpt><trkpt lat="45.2525833" lon="7.8099983"><ele>218.0</ele><time>2026-05-01T09:54:00.796Z</time></trkpt><trkpt lat="45.2527333" lon="7.8100067"><ele>218.0</ele><time>2026-05-01T09:54:01.797Z</time></trkpt><trkpt lat="45.2528883" lon="7.810025"><ele>218.0</ele><time>2026-05-01T09:54:02.797Z</time></trkpt><trkpt lat="45.2530417" lon="7.810035"><ele>218.0</ele><time>2026-05-01T09:54:03.797Z</time></trkpt><trkpt lat="45.25319" lon="7.81004"><ele>218.66666666666669</ele><time>2026-05-01T09:54:04.797Z</time></trkpt><trkpt lat="45.253345" lon="7.8100567"><ele>219.33333333333331</ele><time>2026-05-01T09:54:05.797Z</time></trkpt><trkpt lat="45.2535083" lon="7.81007"><ele>220.0</ele><time>2026-05-01T09:54:06.797Z</time></trkpt><trkpt lat="45.25367" lon="7.8100833"><ele>220.0</ele><time>2026-05-01T09:54:07.797Z</time></trkpt><trkpt lat="45.2538317" lon="7.810105"><ele>220.0</ele><time>2026-05-01T09:54:08.797Z</time></trkpt><trkpt lat="45.2539983" lon="7.8101183"><ele>220.0</ele><time>2026-05-01T09:54:09.797Z</time></trkpt><trkpt lat="45.254165" lon="7.8101283"><ele>220.0</ele><time>2026-05-01T09:54:10.797Z</time></trkpt><trkpt lat="45.2543317" lon="7.8101433"><ele>220.0</ele><time>2026-05-01T09:54:11.797Z</time></trkpt><trkpt lat="45.2545017" lon="7.810155"><ele>220.0</ele><time>2026-05-01T09:54:12.797Z</time></trkpt><trkpt lat="45.254665" lon="7.8101683"><ele>219.66666666666666</ele><time>2026-05-01T09:54:13.797Z</time></trkpt><trkpt lat="45.2548433" lon="7.810185"><ele>219.33333333333331</ele><time>2026-05-01T09:54:14.796Z</time></trkpt><trkpt lat="45.2550183" lon="7.8102"><ele>219.0</ele><time>2026-05-01T09:54:15.797Z</time></trkpt><trkpt lat="45.2551933" lon="7.8102133"><ele>219.0</ele><time>2026-05-01T09:54:16.797Z</time></trkpt><trkpt lat="45.255365" lon="7.8102333"><ele>219.0</ele><time>2026-05-01T09:54:17.797Z</time></trkpt><trkpt lat="45.2555383" lon="7.8102433"><ele>219.0</ele><time>2026-05-01T09:54:18.797Z</time></trkpt><trkpt lat="45.2557133" lon="7.8102583"><ele>219.0</ele><time>2026-05-01T09:54:19.797Z</time></trkpt><trkpt lat="45.2558883" lon="7.8102733"><ele>219.0</ele><time>2026-05-01T09:54:20.797Z</time></trkpt><trkpt lat="45.256065" lon="7.8102817"><ele>219.0</ele><time>2026-05-01T09:54:21.797Z</time></trkpt><trkpt lat="45.256235" lon="7.8102983"><ele>219.0</ele><time>2026-05-01T09:54:22.797Z</time></trkpt><trkpt lat="45.2564067" lon="7.8103167"><ele>219.0</ele><time>2026-05-01T09:54:23.797Z</time></trkpt><trkpt lat="45.2565817" lon="7.8103283"><ele>219.0</ele><time>2026-05-01T09:54:24.797Z</time></trkpt><trkpt lat="45.256755" lon="7.8103417"><ele>219.66666666666669</ele><time>2026-05-01T09:54:25.797Z</time></trkpt><trkpt lat="45.2569267" lon="7.8103567"><ele>220.33333333333334</ele><time>2026-05-01T09:54:26.797Z</time></trkpt><trkpt lat="45.2571033" lon="7.8103733"><ele>221.0</ele><time>2026-05-01T09:54:27.797Z</time></trkpt><trkpt lat="45.2572717" lon="7.8103817"><ele>220.0</ele><time>2026-05-01T09:54:28.797Z</time></trkpt><trkpt lat="45.257445" lon="7.8103933"><ele>219.0</ele><time>2026-05-01T09:54:29.797Z</time></trkpt><trkpt lat="45.257615" lon="7.810405"><ele>218.0</ele><time>2026-05-01T09:54:30.797Z</time></trkpt><trkpt lat="45.2577833" lon="7.81042"><ele>218.0</ele><time>2026-05-01T09:54:31.797Z</time></trkpt><trkpt lat="45.2579583" lon="7.810435"><ele>218.0</ele><time>2026-05-01T09:54:32.797Z</time></trkpt><trkpt lat="45.2581283" lon="7.8104417"><ele>218.0</ele><time>2026-05-01T09:54:33.797Z</time></trkpt><trkpt lat="45.2583017" lon="7.8104567"><ele>218.66666666666669</ele><time>2026-05-01T09:54:34.797Z</time></trkpt><trkpt lat="45.2584767" lon="7.8104867"><ele>219.33333333333331</ele><time>2026-05-01T09:54:35.797Z</time></trkpt><trkpt lat="45.2586483" lon="7.8105117"><ele>220.0</ele><time>2026-05-01T09:54:36.797Z</time></trkpt><trkpt lat="45.2588183" lon="7.810555"><ele>220.33333333333331</ele><time>2026-05-01T09:54:37.797Z</time></trkpt><trkpt lat="45.2589817" lon="7.8106083"><ele>220.66666666666669</ele><time>2026-05-01T09:54:38.797Z</time></trkpt><trkpt lat="45.25915" lon="7.8106633"><ele>221.0</ele><time>2026-05-01T09:54:39.797Z</time></trkpt><trkpt lat="45.25932" lon="7.81073"><ele>221.0</ele><time>2026-05-01T09:54:40.797Z</time></trkpt><trkpt lat="45.2594867" lon="7.8107917"><ele>221.0</ele><time>2026-05-01T09:54:41.797Z</time></trkpt><trkpt lat="45.2596533" lon="7.810855"><ele>221.0</ele><time>2026-05-01T09:54:42.797Z</time></trkpt><trkpt lat="45.2598317" lon="7.8109167"><ele>221.66666666666669</ele><time>2026-05-01T09:54:43.796Z</time></trkpt><trkpt lat="45.260005" lon="7.8109817"><ele>222.33333333333331</ele><time>2026-05-01T09:54:44.796Z</time></trkpt><trkpt lat="45.2601717" lon="7.8110367"><ele>223.0</ele><time>2026-05-01T09:54:45.797Z</time></trkpt><trkpt lat="45.2603433" lon="7.8110917"><ele>223.0</ele><time>2026-05-01T09:54:46.797Z</time></trkpt><trkpt lat="45.260505" lon="7.81114"><ele>223.0</ele><time>2026-05-01T09:54:47.797Z</time></trkpt><trkpt lat="45.2606633" lon="7.8111867"><ele>223.0</ele><time>2026-05-01T09:54:48.797Z</time></trkpt><trkpt lat="45.2608317" lon="7.81122"><ele>222.66666666666666</ele><time>2026-05-01T09:54:49.797Z</time></trkpt><trkpt lat="45.2610033" lon="7.8112483"><ele>222.33333333333331</ele><time>2026-05-01T09:54:50.796Z</time></trkpt><trkpt lat="45.26118" lon="7.81127"><ele>222.0</ele><time>2026-05-01T09:54:51.797Z</time></trkpt><trkpt lat="45.2613567" lon="7.811285"><ele>223.0</ele><time>2026-05-01T09:54:52.797Z</time></trkpt><trkpt lat="45.2615383" lon="7.8113"><ele>224.0</ele><time>2026-05-01T09:54:53.797Z</time></trkpt><trkpt lat="45.2617083" lon="7.81131"><ele>225.0</ele><time>2026-05-01T09:54:54.797Z</time></trkpt><trkpt lat="45.26188" lon="7.8113133"><ele>225.0</ele><time>2026-05-01T09:54:55.797Z</time></trkpt><trkpt lat="45.26205" lon="7.8113233"><ele>225.0</ele><time>2026-05-01T09:54:56.796Z</time></trkpt><trkpt lat="45.2622217" lon="7.811335"><ele>225.0</ele><time>2026-05-01T09:54:57.797Z</time></trkpt><trkpt lat="45.26239" lon="7.81134"><ele>225.33333333333331</ele><time>2026-05-01T09:54:58.797Z</time></trkpt><trkpt lat="45.2625667" lon="7.811345"><ele>225.66666666666666</ele><time>2026-05-01T09:54:59.797Z</time></trkpt><trkpt lat="45.2627417" lon="7.8113517"><ele>226.0</ele><time>2026-05-01T09:55:00.797Z</time></trkpt><trkpt lat="45.262915" lon="7.8113583"><ele>226.0</ele><time>2026-05-01T09:55:01.796Z</time></trkpt><trkpt lat="45.2630867" lon="7.8113667"><ele>226.0</ele><time>2026-05-01T09:55:02.797Z</time></trkpt><trkpt lat="45.263255" lon="7.8113733"><ele>226.0</ele><time>2026-05-01T09:55:03.797Z</time></trkpt><trkpt lat="45.26343" lon="7.81138"><ele>226.66666666666666</ele><time>2026-05-01T09:55:04.797Z</time></trkpt><trkpt lat="45.2636017" lon="7.81138"><ele>227.33333333333331</ele><time>2026-05-01T09:55:05.797Z</time></trkpt><trkpt lat="45.2637767" lon="7.811395"><ele>228.0</ele><time>2026-05-01T09:55:06.797Z</time></trkpt><trkpt lat="45.263945" lon="7.811435"><ele>227.33333333333331</ele><time>2026-05-01T09:55:07.797Z</time></trkpt><trkpt lat="45.2641133" lon="7.8115"><ele>226.66666666666666</ele><time>2026-05-01T09:55:08.797Z</time></trkpt><trkpt lat="45.2642667" lon="7.81156"><ele>226.0</ele><time>2026-05-01T09:55:09.796Z</time></trkpt><trkpt lat="45.2644267" lon="7.81161"><ele>226.0</ele><time>2026-05-01T09:55:10.797Z</time></trkpt><trkpt lat="45.2645917" lon="7.8116433"><ele>226.0</ele><time>2026-05-01T09:55:11.796Z</time></trkpt><trkpt lat="45.2647533" lon="7.8116817"><ele>226.0</ele><time>2026-05-01T09:55:12.797Z</time></trkpt><trkpt lat="45.2649167" lon="7.8117017"><ele>226.25</ele><time>2026-05-01T09:55:13.797Z</time></trkpt><trkpt lat="45.2650583" lon="7.8117283"><ele>226.5</ele><time>2026-05-01T09:55:14.796Z</time></trkpt><trkpt lat="45.2652033" lon="7.81177"><ele>226.75</ele><time>2026-05-01T09:55:15.797Z</time></trkpt><trkpt lat="45.265325" lon="7.8118317"><ele>227.0</ele><time>2026-05-01T09:55:16.797Z</time></trkpt><trkpt lat="45.2654333" lon="7.8119333"><ele>227.0</ele><time>2026-05-01T09:55:17.797Z</time></trkpt><trkpt lat="45.265515" lon="7.8120733"><ele>227.0</ele><time>2026-05-01T09:55:18.797Z</time></trkpt><trkpt lat="45.26556" lon="7.812245"><ele>227.0</ele><time>2026-05-01T09:55:19.796Z</time></trkpt><trkpt lat="45.2655817" lon="7.8124383"><ele>227.0</ele><time>2026-05-01T09:55:20.797Z</time></trkpt><trkpt lat="45.2655833" lon="7.8126583"><ele>227.0</ele><time>2026-05-01T09:55:21.797Z</time></trkpt><trkpt lat="45.265585" lon="7.81288"><ele>227.0</ele><time>2026-05-01T09:55:22.797Z</time></trkpt><trkpt lat="45.265585" lon="7.8131"><ele>227.0</ele><time>2026-05-01T09:55:23.797Z</time></trkpt><trkpt lat="45.2655867" lon="7.813325"><ele>226.33333333333334</ele><time>2026-05-01T09:55:24.797Z</time></trkpt><trkpt lat="45.2655983" lon="7.8135417"><ele>225.66666666666669</ele><time>2026-05-01T09:55:25.797Z</time></trkpt><trkpt lat="45.26561" lon="7.8137633"><ele>225.0</ele><time>2026-05-01T09:55:26.797Z</time></trkpt><trkpt lat="45.265625" lon="7.813985"><ele>225.0</ele><time>2026-05-01T09:55:27.796Z</time></trkpt><trkpt lat="45.265655" lon="7.814195"><ele>225.0</ele><time>2026-05-01T09:55:28.797Z</time></trkpt><trkpt lat="45.265705" lon="7.8144033"><ele>225.0</ele><time>2026-05-01T09:55:29.797Z</time></trkpt><trkpt lat="45.2657717" lon="7.814605"><ele>225.66666666666669</ele><time>2026-05-01T09:55:30.797Z</time></trkpt><trkpt lat="45.2658633" lon="7.8147917"><ele>226.33333333333334</ele><time>2026-05-01T09:55:31.797Z</time></trkpt><trkpt lat="45.2659717" lon="7.8149617"><ele>227.0</ele><time>2026-05-01T09:55:32.796Z</time></trkpt><trkpt lat="45.26609" lon="7.8151283"><ele>226.66666666666669</ele><time>2026-05-01T09:55:33.797Z</time></trkpt><trkpt lat="45.266225" lon="7.815295"><ele>226.33333333333331</ele><time>2026-05-01T09:55:34.797Z</time></trkpt><trkpt lat="45.2663567" lon="7.8154533"><ele>226.0</ele><time>2026-05-01T09:55:35.797Z</time></trkpt><trkpt lat="45.2664917" lon="7.81562"><ele>226.66666666666666</ele><time>2026-05-01T09:55:36.797Z</time></trkpt><trkpt lat="45.2666233" lon="7.8157817"><ele>227.33333333333331</ele><time>2026-05-01T09:55:37.797Z</time></trkpt><trkpt lat="45.266755" lon="7.8159367"><ele>228.0</ele><time>2026-05-01T09:55:38.797Z</time></trkpt><trkpt lat="45.266885" lon="7.81609"><ele>228.33333333333331</ele><time>2026-05-01T09:55:39.797Z</time></trkpt><trkpt lat="45.26701" lon="7.81624"><ele>228.66666666666666</ele><time>2026-05-01T09:55:40.797Z</time></trkpt><trkpt lat="45.2671367" lon="7.816395"><ele>229.0</ele><time>2026-05-01T09:55:41.797Z</time></trkpt><trkpt lat="45.2672567" lon="7.8165367"><ele>229.0</ele><time>2026-05-01T09:55:42.797Z</time></trkpt><trkpt lat="45.26738" lon="7.81668"><ele>229.0</ele><time>2026-05-01T09:55:43.797Z</time></trkpt><trkpt lat="45.2675083" lon="7.816825"><ele>229.0</ele><time>2026-05-01T09:55:44.797Z</time></trkpt><trkpt lat="45.2676283" lon="7.8169533"><ele>229.0</ele><time>2026-05-01T09:55:45.797Z</time></trkpt><trkpt lat="45.2677483" lon="7.8170867"><ele>229.0</ele><time>2026-05-01T09:55:46.797Z</time></trkpt><trkpt lat="45.26787" lon="7.8172183"><ele>229.0</ele><time>2026-05-01T09:55:47.797Z</time></trkpt><trkpt lat="45.2679917" lon="7.8173533"><ele>229.0</ele><time>2026-05-01T09:55:48.797Z</time></trkpt><trkpt lat="45.268105" lon="7.8174817"><ele>229.0</ele><time>2026-05-01T09:55:49.797Z</time></trkpt><trkpt lat="45.2682217" lon="7.8176083"><ele>229.0</ele><time>2026-05-01T09:55:50.797Z</time></trkpt><trkpt lat="45.2683383" lon="7.8177383"><ele>229.0</ele><time>2026-05-01T09:55:51.797Z</time></trkpt><trkpt lat="45.268445" lon="7.81787"><ele>229.0</ele><time>2026-05-01T09:55:52.796Z</time></trkpt><trkpt lat="45.268555" lon="7.8180033"><ele>229.0</ele><time>2026-05-01T09:55:53.797Z</time></trkpt><trkpt lat="45.26867" lon="7.8181217"><ele>229.0</ele><time>2026-05-01T09:55:54.797Z</time></trkpt><trkpt lat="45.268785" lon="7.8182517"><ele>229.0</ele><time>2026-05-01T09:55:55.797Z</time></trkpt><trkpt lat="45.2689033" lon="7.8183883"><ele>229.33333333333331</ele><time>2026-05-01T09:55:56.797Z</time></trkpt><trkpt lat="45.2690283" lon="7.81852"><ele>229.66666666666669</ele><time>2026-05-01T09:55:57.797Z</time></trkpt><trkpt lat="45.2691683" lon="7.81865"><ele>230.0</ele><time>2026-05-01T09:55:58.797Z</time></trkpt><trkpt lat="45.2692867" lon="7.8187783"><ele>230.0</ele><time>2026-05-01T09:55:59.797Z</time></trkpt><trkpt lat="45.26941" lon="7.8189083"><ele>230.0</ele><time>2026-05-01T09:56:00.797Z</time></trkpt><trkpt lat="45.2695267" lon="7.8190467"><ele>230.0</ele><time>2026-05-01T09:56:01.797Z</time></trkpt><trkpt lat="45.2696483" lon="7.8191817"><ele>230.0</ele><time>2026-05-01T09:56:02.797Z</time></trkpt><trkpt lat="45.2697533" lon="7.8193167"><ele>230.0</ele><time>2026-05-01T09:56:03.797Z</time></trkpt><trkpt lat="45.2698633" lon="7.8194417"><ele>230.0</ele><time>2026-05-01T09:56:04.797Z</time></trkpt><trkpt lat="45.2699633" lon="7.819565"><ele>230.0</ele><time>2026-05-01T09:56:05.797Z</time></trkpt><trkpt lat="45.2700617" lon="7.8196917"><ele>230.2</ele><time>2026-05-01T09:56:06.797Z</time></trkpt><trkpt lat="45.27014" lon="7.81982"><ele>230.4</ele><time>2026-05-01T09:56:07.797Z</time></trkpt><trkpt lat="45.2701967" lon="7.8199567"><ele>230.60000000000002</ele><time>2026-05-01T09:56:08.797Z</time></trkpt><trkpt lat="45.2702417" lon="7.8200917"><ele>230.8</ele><time>2026-05-01T09:56:09.797Z</time></trkpt><trkpt lat="45.2702833" lon="7.82023"><ele>231.0</ele><time>2026-05-01T09:56:10.797Z</time></trkpt><trkpt lat="45.2703233" lon="7.8203817"><ele>231.0</ele><time>2026-05-01T09:56:11.797Z</time></trkpt><trkpt lat="45.2703617" lon="7.82052"><ele>231.00000000000003</ele><time>2026-05-01T09:56:12.797Z</time></trkpt><trkpt lat="45.27041" lon="7.820635"><ele>231.00000000000003</ele><time>2026-05-01T09:56:13.797Z</time></trkpt><trkpt lat="45.2704583" lon="7.8207517"><ele>231.0</ele><time>2026-05-01T09:56:14.797Z</time></trkpt><trkpt lat="45.27054" lon="7.8208417"><ele>231.0</ele><time>2026-05-01T09:56:15.797Z</time></trkpt><trkpt lat="45.2706283" lon="7.82092"><ele>231.4</ele><time>2026-05-01T09:56:16.797Z</time></trkpt><trkpt lat="45.2707167" lon="7.8210117"><ele>231.8</ele><time>2026-05-01T09:56:17.797Z</time></trkpt><trkpt lat="45.2707967" lon="7.8211167"><ele>232.20000000000002</ele><time>2026-05-01T09:56:18.797Z</time></trkpt><trkpt lat="45.2708767" lon="7.821225"><ele>232.60000000000002</ele><time>2026-05-01T09:56:19.797Z</time></trkpt><trkpt lat="45.2709517" lon="7.8213167"><ele>233.0</ele><time>2026-05-01T09:56:20.796Z</time></trkpt><trkpt lat="45.2710183" lon="7.82141"><ele>233.00000000000003</ele><time>2026-05-01T09:56:21.797Z</time></trkpt><trkpt lat="45.2710733" lon="7.82148"><ele>233.0</ele><time>2026-05-01T09:56:22.797Z</time></trkpt><trkpt lat="45.2711533" lon="7.8215767"><ele>233.0</ele><time>2026-05-01T09:56:24.797Z</time></trkpt><trkpt lat="45.2711517" lon="7.8216683"><ele>233.0</ele><time>2026-05-01T09:56:27.797Z</time></trkpt><trkpt lat="45.271115" lon="7.8218"><ele>233.00000000000003</ele><time>2026-05-01T09:56:29.797Z</time></trkpt><trkpt lat="45.2710883" lon="7.8218983"><ele>233.0</ele><time>2026-05-01T09:56:30.797Z</time></trkpt><trkpt lat="45.2710617" lon="7.8220067"><ele>233.0</ele><time>2026-05-01T09:56:31.796Z</time></trkpt><trkpt lat="45.2710267" lon="7.8221217"><ele>233.0</ele><time>2026-05-01T09:56:32.797Z</time></trkpt><trkpt lat="45.2709917" lon="7.8222367"><ele>233.0</ele><time>2026-05-01T09:56:33.797Z</time></trkpt><trkpt lat="45.2709533" lon="7.8223583"><ele>233.0</ele><time>2026-05-01T09:56:34.797Z</time></trkpt><trkpt lat="45.2709267" lon="7.8224917"><ele>233.0</ele><time>2026-05-01T09:56:35.797Z</time></trkpt><trkpt lat="45.2709033" lon="7.8226233"><ele>233.0</ele><time>2026-05-01T09:56:36.797Z</time></trkpt><trkpt lat="45.27088" lon="7.822755"><ele>233.0</ele><time>2026-05-01T09:56:37.796Z</time></trkpt><trkpt lat="45.2708617" lon="7.8228833"><ele>233.0</ele><time>2026-05-01T09:56:38.797Z</time></trkpt><trkpt lat="45.27085" lon="7.82301"><ele>233.0</ele><time>2026-05-01T09:56:39.797Z</time></trkpt><trkpt lat="45.2708433" lon="7.8231417"><ele>233.0</ele><time>2026-05-01T09:56:40.797Z</time></trkpt><trkpt lat="45.2708317" lon="7.8232817"><ele>233.0</ele><time>2026-05-01T09:56:41.796Z</time></trkpt><trkpt lat="45.270825" lon="7.82342"><ele>233.0</ele><time>2026-05-01T09:56:42.797Z</time></trkpt><trkpt lat="45.2708233" lon="7.8235667"><ele>233.0</ele><time>2026-05-01T09:56:43.797Z</time></trkpt><trkpt lat="45.2708183" lon="7.8237117"><ele>233.0</ele><time>2026-05-01T09:56:44.797Z</time></trkpt><trkpt lat="45.2708167" lon="7.8238417"><ele>233.0</ele><time>2026-05-01T09:56:45.797Z</time></trkpt><trkpt lat="45.2708217" lon="7.8239533"><ele>233.50000000000003</ele><time>2026-05-01T09:56:46.797Z</time></trkpt><trkpt lat="45.2708117" lon="7.8241117"><ele>234.0</ele><time>2026-05-01T09:56:48.797Z</time></trkpt><trkpt lat="45.270805" lon="7.824255"><ele>234.5</ele><time>2026-05-01T09:56:50.797Z</time></trkpt><trkpt lat="45.2708133" lon="7.8243483"><ele>235.0</ele><time>2026-05-01T09:56:51.797Z</time></trkpt><trkpt lat="45.2708167" lon="7.8244483"><ele>235.50000000000003</ele><time>2026-05-01T09:56:52.797Z</time></trkpt><trkpt lat="45.27082" lon="7.82457"><ele>236.0</ele><time>2026-05-01T09:56:53.797Z</time></trkpt><trkpt lat="45.2708133" lon="7.82471"><ele>236.8</ele><time>2026-05-01T09:56:54.797Z</time></trkpt><trkpt lat="45.2708017" lon="7.8248617"><ele>237.60000000000002</ele><time>2026-05-01T09:56:55.797Z</time></trkpt><trkpt lat="45.2708083" lon="7.8250217"><ele>238.4</ele><time>2026-05-01T09:56:56.797Z</time></trkpt><trkpt lat="45.27081" lon="7.8251767"><ele>239.2</ele><time>2026-05-01T09:56:57.797Z</time></trkpt><trkpt lat="45.2708067" lon="7.82534"><ele>240.0</ele><time>2026-05-01T09:56:58.797Z</time></trkpt><trkpt lat="45.2708" lon="7.8255083"><ele>241.25</ele><time>2026-05-01T09:56:59.797Z</time></trkpt><trkpt lat="45.2707783" lon="7.8256917"><ele>242.5</ele><time>2026-05-01T09:57:00.797Z</time></trkpt><trkpt lat="45.270775" lon="7.8258817"><ele>243.75</ele><time>2026-05-01T09:57:01.797Z</time></trkpt><trkpt lat="45.2708017" lon="7.82606"><ele>245.0</ele><time>2026-05-01T09:57:02.797Z</time></trkpt><trkpt lat="45.270825" lon="7.8262417"><ele>245.5</ele><time>2026-05-01T09:57:03.797Z</time></trkpt><trkpt lat="45.2708517" lon="7.82643"><ele>246.0</ele><time>2026-05-01T09:57:04.797Z</time></trkpt><trkpt lat="45.2708783" lon="7.82662"><ele>246.5</ele><time>2026-05-01T09:57:05.797Z</time></trkpt><trkpt lat="45.2709133" lon="7.826815"><ele>247.0</ele><time>2026-05-01T09:57:06.797Z</time></trkpt><trkpt lat="45.270945" lon="7.8270117"><ele>247.0</ele><time>2026-05-01T09:57:07.797Z</time></trkpt><trkpt lat="45.270975" lon="7.8272117"><ele>247.0</ele><time>2026-05-01T09:57:08.797Z</time></trkpt><trkpt lat="45.2710117" lon="7.8273967"><ele>247.0</ele><time>2026-05-01T09:57:09.797Z</time></trkpt><trkpt lat="45.271015" lon="7.8275817"><ele>247.0</ele><time>2026-05-01T09:57:10.797Z</time></trkpt><trkpt lat="45.2710483" lon="7.8277267"><ele>246.5</ele><time>2026-05-01T09:57:11.797Z</time></trkpt><trkpt lat="45.27106" lon="7.82789"><ele>246.0</ele><time>2026-05-01T09:57:12.797Z</time></trkpt><trkpt lat="45.2710667" lon="7.82808"><ele>245.5</ele><time>2026-05-01T09:57:13.797Z</time></trkpt><trkpt lat="45.2710583" lon="7.8282767"><ele>245.0</ele><time>2026-05-01T09:57:14.797Z</time></trkpt><trkpt lat="45.2710583" lon="7.8284833"><ele>245.0</ele><time>2026-05-01T09:57:15.797Z</time></trkpt><trkpt lat="45.2710317" lon="7.8287017"><ele>245.0</ele><time>2026-05-01T09:57:16.797Z</time></trkpt><trkpt lat="45.2710117" lon="7.8289183"><ele>245.0</ele><time>2026-05-01T09:57:17.797Z</time></trkpt><trkpt lat="45.2709883" lon="7.8291267"><ele>245.0</ele><time>2026-05-01T09:57:18.797Z</time></trkpt><trkpt lat="45.27097" lon="7.82934"><ele>245.0</ele><time>2026-05-01T09:57:19.797Z</time></trkpt><trkpt lat="45.2709483" lon="7.829545"><ele>245.0</ele><time>2026-05-01T09:57:20.797Z</time></trkpt><trkpt lat="45.2709217" lon="7.82975"><ele>245.0</ele><time>2026-05-01T09:57:21.796Z</time></trkpt><trkpt lat="45.2709" lon="7.829945"><ele>245.0</ele><time>2026-05-01T09:57:22.797Z</time></trkpt><trkpt lat="45.270885" lon="7.83012"><ele>245.0</ele><time>2026-05-01T09:57:23.797Z</time></trkpt><trkpt lat="45.2708667" lon="7.8302867"><ele>245.0</ele><time>2026-05-01T09:57:24.797Z</time></trkpt><trkpt lat="45.27085" lon="7.8304333"><ele>245.0</ele><time>2026-05-01T09:57:25.797Z</time></trkpt><trkpt lat="45.2708267" lon="7.830565"><ele>245.0</ele><time>2026-05-01T09:57:26.797Z</time></trkpt><trkpt lat="45.270815" lon="7.830705"><ele>244.8</ele><time>2026-05-01T09:57:27.797Z</time></trkpt><trkpt lat="45.270795" lon="7.83084"><ele>244.6</ele><time>2026-05-01T09:57:28.797Z</time></trkpt><trkpt lat="45.2707783" lon="7.8309733"><ele>244.39999999999998</ele><time>2026-05-01T09:57:29.797Z</time></trkpt><trkpt lat="45.2707533" lon="7.8311017"><ele>244.2</ele><time>2026-05-01T09:57:30.797Z</time></trkpt><trkpt lat="45.2707267" lon="7.8312267"><ele>244.0</ele><time>2026-05-01T09:57:31.797Z</time></trkpt><trkpt lat="45.2707" lon="7.831355"><ele>244.0</ele><time>2026-05-01T09:57:32.797Z</time></trkpt><trkpt lat="45.2706783" lon="7.8314867"><ele>244.0</ele><time>2026-05-01T09:57:33.797Z</time></trkpt><trkpt lat="45.270645" lon="7.83163"><ele>244.0</ele><time>2026-05-01T09:57:34.797Z</time></trkpt><trkpt lat="45.2706067" lon="7.8318017"><ele>244.0</ele><time>2026-05-01T09:57:35.797Z</time></trkpt><trkpt lat="45.2705733" lon="7.8319783"><ele>243.5</ele><time>2026-05-01T09:57:36.797Z</time></trkpt><trkpt lat="45.2705517" lon="7.8321717"><ele>243.0</ele><time>2026-05-01T09:57:37.797Z</time></trkpt><trkpt lat="45.2705383" lon="7.8323717"><ele>242.5</ele><time>2026-05-01T09:57:38.797Z</time></trkpt><trkpt lat="45.2705167" lon="7.8325883"><ele>242.0</ele><time>2026-05-01T09:57:39.797Z</time></trkpt><trkpt lat="45.2705117" lon="7.8328017"><ele>242.0</ele><time>2026-05-01T09:57:40.797Z</time></trkpt><trkpt lat="45.2705067" lon="7.83304"><ele>242.0</ele><time>2026-05-01T09:57:41.796Z</time></trkpt><trkpt lat="45.270495" lon="7.8332833"><ele>242.0</ele><time>2026-05-01T09:57:42.797Z</time></trkpt><trkpt lat="45.2704817" lon="7.83352"><ele>241.66666666666669</ele><time>2026-05-01T09:57:43.797Z</time></trkpt><trkpt lat="45.2704733" lon="7.83376"><ele>241.33333333333331</ele><time>2026-05-01T09:57:44.797Z</time></trkpt><trkpt lat="45.2704633" lon="7.834005"><ele>241.0</ele><time>2026-05-01T09:57:45.797Z</time></trkpt><trkpt lat="45.2704517" lon="7.8342533"><ele>241.33333333333331</ele><time>2026-05-01T09:57:46.797Z</time></trkpt><trkpt lat="45.2704417" lon="7.8344967"><ele>241.66666666666669</ele><time>2026-05-01T09:57:47.796Z</time></trkpt><trkpt lat="45.2704367" lon="7.8347333"><ele>242.0</ele><time>2026-05-01T09:57:48.797Z</time></trkpt><trkpt lat="45.27043" lon="7.8349717"><ele>243.0</ele><time>2026-05-01T09:57:49.796Z</time></trkpt><trkpt lat="45.2704267" lon="7.8352033"><ele>244.0</ele><time>2026-05-01T09:57:50.797Z</time></trkpt><trkpt lat="45.2704233" lon="7.835425"><ele>245.0</ele><time>2026-05-01T09:57:51.796Z</time></trkpt><trkpt lat="45.2704183" lon="7.83565"><ele>245.0</ele><time>2026-05-01T09:57:52.797Z</time></trkpt><trkpt lat="45.270415" lon="7.8358433"><ele>245.0</ele><time>2026-05-01T09:57:53.797Z</time></trkpt><trkpt lat="45.2704117" lon="7.8360133"><ele>245.0</ele><time>2026-05-01T09:57:54.797Z</time></trkpt><trkpt lat="45.2704117" lon="7.8361783"><ele>245.0</ele><time>2026-05-01T09:57:55.797Z</time></trkpt><trkpt lat="45.2704083" lon="7.8363467"><ele>244.5</ele><time>2026-05-01T09:57:56.797Z</time></trkpt><trkpt lat="45.2704183" lon="7.8365067"><ele>244.0</ele><time>2026-05-01T09:57:57.797Z</time></trkpt><trkpt lat="45.270445" lon="7.8366683"><ele>243.5</ele><time>2026-05-01T09:57:58.797Z</time></trkpt><trkpt lat="45.2704833" lon="7.83683"><ele>243.0</ele><time>2026-05-01T09:57:59.797Z</time></trkpt><trkpt lat="45.2705317" lon="7.8369917"><ele>243.0</ele><time>2026-05-01T09:58:00.797Z</time></trkpt><trkpt lat="45.27057" lon="7.837135"><ele>243.0</ele><time>2026-05-01T09:58:01.797Z</time></trkpt><trkpt lat="45.27061" lon="7.8372667"><ele>243.0</ele><time>2026-05-01T09:58:02.797Z</time></trkpt><trkpt lat="45.2706367" lon="7.8373733"><ele>243.0</ele><time>2026-05-01T09:58:03.797Z</time></trkpt><trkpt lat="45.27067" lon="7.8374783"><ele>243.0</ele><time>2026-05-01T09:58:04.797Z</time></trkpt><trkpt lat="45.2707" lon="7.8375667"><ele>243.0</ele><time>2026-05-01T09:58:05.797Z</time></trkpt><trkpt lat="45.2707633" lon="7.8377"><ele>243.33333333333334</ele><time>2026-05-01T09:58:07.796Z</time></trkpt><trkpt lat="45.270855" lon="7.83776"><ele>243.66666666666669</ele><time>2026-05-01T09:58:09.797Z</time></trkpt><trkpt lat="45.2709233" lon="7.8377517"><ele>244.0</ele><time>2026-05-01T09:58:10.796Z</time></trkpt><trkpt lat="45.271" lon="7.8377233"><ele>244.33333333333334</ele><time>2026-05-01T09:58:11.796Z</time></trkpt><trkpt lat="45.2710817" lon="7.8376783"><ele>244.66666666666669</ele><time>2026-05-01T09:58:12.797Z</time></trkpt><trkpt lat="45.2711783" lon="7.8376383"><ele>245.0</ele><time>2026-05-01T09:58:13.797Z</time></trkpt><trkpt lat="45.2712833" lon="7.8375983"><ele>245.0</ele><time>2026-05-01T09:58:14.797Z</time></trkpt><trkpt lat="45.2713933" lon="7.83757"><ele>245.0</ele><time>2026-05-01T09:58:15.797Z</time></trkpt><trkpt lat="45.2715067" lon="7.8375483"><ele>245.0</ele><time>2026-05-01T09:58:16.797Z</time></trkpt><trkpt lat="45.2716333" lon="7.8375217"><ele>245.0</ele><time>2026-05-01T09:58:17.797Z</time></trkpt><trkpt lat="45.2717567" lon="7.8375067"><ele>245.25</ele><time>2026-05-01T09:58:18.797Z</time></trkpt><trkpt lat="45.2718833" lon="7.83749"><ele>245.5</ele><time>2026-05-01T09:58:19.797Z</time></trkpt><trkpt lat="45.2720083" lon="7.8374667"><ele>245.75</ele><time>2026-05-01T09:58:20.797Z</time></trkpt><trkpt lat="45.2721333" lon="7.83744"><ele>246.0</ele><time>2026-05-01T09:58:21.797Z</time></trkpt><trkpt lat="45.27227" lon="7.837415"><ele>245.75</ele><time>2026-05-01T09:58:22.797Z</time></trkpt><trkpt lat="45.27242" lon="7.8373967"><ele>245.5</ele><time>2026-05-01T09:58:23.797Z</time></trkpt><trkpt lat="45.272555" lon="7.8373767"><ele>245.25</ele><time>2026-05-01T09:58:24.797Z</time></trkpt><trkpt lat="45.2727017" lon="7.837375"><ele>245.0</ele><time>2026-05-01T09:58:25.797Z</time></trkpt><trkpt lat="45.2728317" lon="7.8373767"><ele>245.0</ele><time>2026-05-01T09:58:26.797Z</time></trkpt><trkpt lat="45.2729483" lon="7.8373833"><ele>245.0</ele><time>2026-05-01T09:58:27.797Z</time></trkpt><trkpt lat="45.27304" lon="7.8374017"><ele>245.0</ele><time>2026-05-01T09:58:28.797Z</time></trkpt><trkpt lat="45.2731217" lon="7.8374333"><ele>245.0</ele><time>2026-05-01T09:58:29.797Z</time></trkpt><trkpt lat="45.273195" lon="7.8374917"><ele>245.0</ele><time>2026-05-01T09:58:30.797Z</time></trkpt><trkpt lat="45.27325" lon="7.83758"><ele>245.16666666666669</ele><time>2026-05-01T09:58:31.797Z</time></trkpt><trkpt lat="45.2732833" lon="7.8377"><ele>245.33333333333334</ele><time>2026-05-01T09:58:32.797Z</time></trkpt><trkpt lat="45.2733217" lon="7.8378017"><ele>245.5</ele><time>2026-05-01T09:58:33.797Z</time></trkpt><trkpt lat="45.27336" lon="7.837885"><ele>245.66666666666669</ele><time>2026-05-01T09:58:34.797Z</time></trkpt><trkpt lat="45.2734117" lon="7.8379583"><ele>245.83333333333334</ele><time>2026-05-01T09:58:35.797Z</time></trkpt><trkpt lat="45.27349" lon="7.83803"><ele>246.0</ele><time>2026-05-01T09:58:36.797Z</time></trkpt><trkpt lat="45.2735883" lon="7.8380883"><ele>246.0</ele><time>2026-05-01T09:58:37.797Z</time></trkpt><trkpt lat="45.2737083" lon="7.8381283"><ele>246.0</ele><time>2026-05-01T09:58:38.797Z</time></trkpt><trkpt lat="45.27384" lon="7.83814"><ele>246.0</ele><time>2026-05-01T09:58:39.797Z</time></trkpt><trkpt lat="45.2739783" lon="7.83815"><ele>246.0</ele><time>2026-05-01T09:58:40.797Z</time></trkpt><trkpt lat="45.2741217" lon="7.8381617"><ele>246.33333333333331</ele><time>2026-05-01T09:58:41.797Z</time></trkpt><trkpt lat="45.274285" lon="7.8381817"><ele>246.66666666666666</ele><time>2026-05-01T09:58:42.797Z</time></trkpt><trkpt lat="45.2744517" lon="7.83817"><ele>247.0</ele><time>2026-05-01T09:58:43.797Z</time></trkpt><trkpt lat="45.27462" lon="7.8381417"><ele>247.0</ele><time>2026-05-01T09:58:44.796Z</time></trkpt><trkpt lat="45.274775" lon="7.83812"><ele>247.0</ele><time>2026-05-01T09:58:45.797Z</time></trkpt><trkpt lat="45.2748933" lon="7.83812"><ele>247.0</ele><time>2026-05-01T09:58:46.796Z</time></trkpt><trkpt lat="45.2749767" lon="7.838115"><ele>247.0</ele><time>2026-05-01T09:58:47.797Z</time></trkpt><trkpt lat="45.2750533" lon="7.8381333"><ele>247.0</ele><time>2026-05-01T09:58:48.797Z</time></trkpt><trkpt lat="45.2751083" lon="7.83818"><ele>247.0</ele><time>2026-05-01T09:58:49.797Z</time></trkpt><trkpt lat="45.2751733" lon="7.8383483"><ele>247.0</ele><time>2026-05-01T09:58:51.796Z</time></trkpt><trkpt lat="45.275175" lon="7.8385"><ele>247.0</ele><time>2026-05-01T09:58:52.796Z</time></trkpt><trkpt lat="45.2751733" lon="7.8386717"><ele>247.0</ele><time>2026-05-01T09:58:53.797Z</time></trkpt><trkpt lat="45.2751733" lon="7.8388717"><ele>246.66666666666666</ele><time>2026-05-01T09:58:54.797Z</time></trkpt><trkpt lat="45.2751783" lon="7.839095"><ele>246.33333333333331</ele><time>2026-05-01T09:58:55.797Z</time></trkpt><trkpt lat="45.275205" lon="7.8393217"><ele>246.0</ele><time>2026-05-01T09:58:56.797Z</time></trkpt><trkpt lat="45.2752267" lon="7.8395783"><ele>246.0</ele><time>2026-05-01T09:58:57.797Z</time></trkpt><trkpt lat="45.2752617" lon="7.8398117"><ele>246.0</ele><time>2026-05-01T09:58:58.797Z</time></trkpt><trkpt lat="45.2753" lon="7.84002"><ele>246.0</ele><time>2026-05-01T09:58:59.797Z</time></trkpt><trkpt lat="45.2753317" lon="7.840215"><ele>246.0</ele><time>2026-05-01T09:59:00.797Z</time></trkpt><trkpt lat="45.2753583" lon="7.840385"><ele>246.00000000000003</ele><time>2026-05-01T09:59:01.797Z</time></trkpt><trkpt lat="45.275385" lon="7.840535"><ele>246.00000000000003</ele><time>2026-05-01T09:59:02.797Z</time></trkpt><trkpt lat="45.275405" lon="7.840675"><ele>246.0</ele><time>2026-05-01T09:59:03.797Z</time></trkpt><trkpt lat="45.2754283" lon="7.8408017"><ele>246.0</ele><time>2026-05-01T09:59:04.797Z</time></trkpt><trkpt lat="45.27545" lon="7.8409183"><ele>246.0</ele><time>2026-05-01T09:59:05.797Z</time></trkpt><trkpt lat="45.2754683" lon="7.841035"><ele>246.0</ele><time>2026-05-01T09:59:06.797Z</time></trkpt><trkpt lat="45.2754867" lon="7.841155"><ele>246.0</ele><time>2026-05-01T09:59:07.797Z</time></trkpt><trkpt lat="45.2755183" lon="7.8412617"><ele>246.0</ele><time>2026-05-01T09:59:08.797Z</time></trkpt><trkpt lat="45.27554" lon="7.8413683"><ele>246.0</ele><time>2026-05-01T09:59:09.797Z</time></trkpt><trkpt lat="45.275555" lon="7.841475"><ele>246.0</ele><time>2026-05-01T09:59:10.797Z</time></trkpt><trkpt lat="45.2755817" lon="7.8415833"><ele>246.00000000000003</ele><time>2026-05-01T09:59:11.797Z</time></trkpt><trkpt lat="45.2756033" lon="7.8416933"><ele>246.0</ele><time>2026-05-01T09:59:12.797Z</time></trkpt><trkpt lat="45.2756217" lon="7.8418017"><ele>246.00000000000003</ele><time>2026-05-01T09:59:13.797Z</time></trkpt><trkpt lat="45.2756383" lon="7.8419033"><ele>246.00000000000003</ele><time>2026-05-01T09:59:14.797Z</time></trkpt><trkpt lat="45.2756533" lon="7.8420017"><ele>246.0</ele><time>2026-05-01T09:59:15.797Z</time></trkpt><trkpt lat="45.2756683" lon="7.8421017"><ele>246.00000000000003</ele><time>2026-05-01T09:59:16.797Z</time></trkpt><trkpt lat="45.2756867" lon="7.8422017"><ele>246.00000000000003</ele><time>2026-05-01T09:59:17.797Z</time></trkpt><trkpt lat="45.2756983" lon="7.8422983"><ele>246.16666666666666</ele><time>2026-05-01T09:59:18.797Z</time></trkpt><trkpt lat="45.27571" lon="7.8423883"><ele>246.33333333333331</ele><time>2026-05-01T09:59:19.797Z</time></trkpt><trkpt lat="45.2757217" lon="7.8424783"><ele>246.5</ele><time>2026-05-01T09:59:20.797Z</time></trkpt><trkpt lat="45.275735" lon="7.8425667"><ele>246.66666666666666</ele><time>2026-05-01T09:59:21.797Z</time></trkpt><trkpt lat="45.2757583" lon="7.842745"><ele>246.83333333333331</ele><time>2026-05-01T09:59:23.797Z</time></trkpt><trkpt lat="45.2757933" lon="7.8429183"><ele>247.0</ele><time>2026-05-01T09:59:25.797Z</time></trkpt><trkpt lat="45.27581" lon="7.8430133"><ele>246.66666666666666</ele><time>2026-05-01T09:59:26.797Z</time></trkpt><trkpt lat="45.2758267" lon="7.8431083"><ele>246.33333333333331</ele><time>2026-05-01T09:59:27.797Z</time></trkpt><trkpt lat="45.2758367" lon="7.8431983"><ele>246.0</ele><time>2026-05-01T09:59:28.797Z</time></trkpt><trkpt lat="45.2758733" lon="7.8433683"><ele>245.66666666666669</ele><time>2026-05-01T09:59:30.797Z</time></trkpt><trkpt lat="45.2758917" lon="7.8434583"><ele>245.33333333333334</ele><time>2026-05-01T09:59:31.797Z</time></trkpt><trkpt lat="45.27591" lon="7.8435583"><ele>245.0</ele><time>2026-05-01T09:59:32.797Z</time></trkpt><trkpt lat="45.2759233" lon="7.8436483"><ele>244.83333333333334</ele><time>2026-05-01T09:59:33.797Z</time></trkpt><trkpt lat="45.27594" lon="7.8437433"><ele>244.66666666666669</ele><time>2026-05-01T09:59:34.797Z</time></trkpt><trkpt lat="45.2759567" lon="7.8438333"><ele>244.5</ele><time>2026-05-01T09:59:35.797Z</time></trkpt><trkpt lat="45.2759717" lon="7.843925"><ele>244.33333333333331</ele><time>2026-05-01T09:59:36.796Z</time></trkpt><trkpt lat="45.2759833" lon="7.8440267"><ele>244.16666666666666</ele><time>2026-05-01T09:59:37.797Z</time></trkpt><trkpt lat="45.2759967" lon="7.84414"><ele>244.0</ele><time>2026-05-01T09:59:38.797Z</time></trkpt><trkpt lat="45.276015" lon="7.8442783"><ele>244.5</ele><time>2026-05-01T09:59:39.797Z</time></trkpt><trkpt lat="45.276035" lon="7.8444333"><ele>245.0</ele><time>2026-05-01T09:59:40.797Z</time></trkpt><trkpt lat="45.2760567" lon="7.8446133"><ele>245.5</ele><time>2026-05-01T09:59:41.797Z</time></trkpt><trkpt lat="45.27608" lon="7.8448"><ele>246.0</ele><time>2026-05-01T09:59:42.797Z</time></trkpt><trkpt lat="45.2761183" lon="7.8450033"><ele>246.0</ele><time>2026-05-01T09:59:43.797Z</time></trkpt><trkpt lat="45.2761567" lon="7.8452183"><ele>246.0</ele><time>2026-05-01T09:59:44.797Z</time></trkpt><trkpt lat="45.2761933" lon="7.84544"><ele>246.0</ele><time>2026-05-01T09:59:45.797Z</time></trkpt><trkpt lat="45.2762233" lon="7.8456533"><ele>246.0</ele><time>2026-05-01T09:59:46.797Z</time></trkpt><trkpt lat="45.276255" lon="7.84586"><ele>246.0</ele><time>2026-05-01T09:59:47.797Z</time></trkpt><trkpt lat="45.276285" lon="7.8460683"><ele>246.0</ele><time>2026-05-01T09:59:48.797Z</time></trkpt><trkpt lat="45.2763233" lon="7.84628"><ele>246.0</ele><time>2026-05-01T09:59:49.797Z</time></trkpt><trkpt lat="45.2763617" lon="7.8464933"><ele>246.0</ele><time>2026-05-01T09:59:50.797Z</time></trkpt><trkpt lat="45.2764083" lon="7.8466983"><ele>246.0</ele><time>2026-05-01T09:59:51.797Z</time></trkpt><trkpt lat="45.2764417" lon="7.8468833"><ele>246.0</ele><time>2026-05-01T09:59:52.797Z</time></trkpt><trkpt lat="45.2764733" lon="7.847075"><ele>245.5</ele><time>2026-05-01T09:59:53.797Z</time></trkpt><trkpt lat="45.27649" lon="7.8472633"><ele>245.0</ele><time>2026-05-01T09:59:54.797Z</time></trkpt><trkpt lat="45.2765017" lon="7.84745"><ele>244.5</ele><time>2026-05-01T09:59:55.797Z</time></trkpt><trkpt lat="45.2764933" lon="7.847635"><ele>244.0</ele><time>2026-05-01T09:59:56.797Z</time></trkpt><trkpt lat="45.2764917" lon="7.847835"><ele>243.75</ele><time>2026-05-01T09:59:57.797Z</time></trkpt><trkpt lat="45.2764783" lon="7.84803"><ele>243.5</ele><time>2026-05-01T09:59:58.797Z</time></trkpt><trkpt lat="45.2764667" lon="7.8482117"><ele>243.25</ele><time>2026-05-01T09:59:59.797Z</time></trkpt><trkpt lat="45.2764583" lon="7.8483867"><ele>243.0</ele><time>2026-05-01T10:00:00.797Z</time></trkpt><trkpt lat="45.2764383" lon="7.848525"><ele>243.0</ele><time>2026-05-01T10:00:01.797Z</time></trkpt><trkpt lat="45.2764383" lon="7.8486383"><ele>243.0</ele><time>2026-05-01T10:00:02.797Z</time></trkpt><trkpt lat="45.2764983" lon="7.8487883"><ele>243.0</ele><time>2026-05-01T10:00:04.797Z</time></trkpt><trkpt lat="45.2765567" lon="7.8488417"><ele>243.0</ele><time>2026-05-01T10:00:05.797Z</time></trkpt><trkpt lat="45.276675" lon="7.8489067"><ele>243.0</ele><time>2026-05-01T10:00:07.797Z</time></trkpt><trkpt lat="45.2767217" lon="7.84897"><ele>243.0</ele><time>2026-05-01T10:00:08.797Z</time></trkpt><trkpt lat="45.2767583" lon="7.8490667"><ele>243.0</ele><time>2026-05-01T10:00:09.797Z</time></trkpt><trkpt lat="45.2767933" lon="7.8491883"><ele>243.0</ele><time>2026-05-01T10:00:10.797Z</time></trkpt><trkpt lat="45.2768433" lon="7.8493267"><ele>243.0</ele><time>2026-05-01T10:00:11.797Z</time></trkpt><trkpt lat="45.27691" lon="7.8494633"><ele>243.0</ele><time>2026-05-01T10:00:12.797Z</time></trkpt><trkpt lat="45.2769867" lon="7.8495767"><ele>243.2</ele><time>2026-05-01T10:00:13.797Z</time></trkpt><trkpt lat="45.2770633" lon="7.8496983"><ele>243.4</ele><time>2026-05-01T10:00:14.796Z</time></trkpt><trkpt lat="45.27713" lon="7.849835"><ele>243.59999999999997</ele><time>2026-05-01T10:00:15.797Z</time></trkpt><trkpt lat="45.2771767" lon="7.8499733"><ele>243.79999999999998</ele><time>2026-05-01T10:00:16.797Z</time></trkpt><trkpt lat="45.2772017" lon="7.8500967"><ele>244.0</ele><time>2026-05-01T10:00:17.796Z</time></trkpt><trkpt lat="45.27721" lon="7.8501883"><ele>244.49999999999997</ele><time>2026-05-01T10:00:18.797Z</time></trkpt><trkpt lat="45.2771883" lon="7.85028"><ele>245.0</ele><time>2026-05-01T10:00:20.797Z</time></trkpt><trkpt lat="45.2771367" lon="7.850355"><ele>245.5</ele><time>2026-05-01T10:00:28.797Z</time></trkpt><trkpt lat="45.2770867" lon="7.8504433"><ele>246.0</ele><time>2026-05-01T10:00:36.797Z</time></trkpt><trkpt lat="45.277045" lon="7.8505333"><ele>246.49999999999997</ele><time>2026-05-01T10:00:37.797Z</time></trkpt><trkpt lat="45.2769783" lon="7.8506533"><ele>247.0</ele><time>2026-05-01T10:00:38.797Z</time></trkpt><trkpt lat="45.2768883" lon="7.8507817"><ele>247.0</ele><time>2026-05-01T10:00:39.797Z</time></trkpt><trkpt lat="45.27679" lon="7.8509067"><ele>247.0</ele><time>2026-05-01T10:00:40.797Z</time></trkpt><trkpt lat="45.2767233" lon="7.8510233"><ele>247.0</ele><time>2026-05-01T10:00:41.797Z</time></trkpt><trkpt lat="45.27668" lon="7.8511417"><ele>247.0</ele><time>2026-05-01T10:00:42.797Z</time></trkpt><trkpt lat="45.2766633" lon="7.85126"><ele>247.0</ele><time>2026-05-01T10:00:43.797Z</time></trkpt><trkpt lat="45.2766667" lon="7.85136"><ele>247.16666666666666</ele><time>2026-05-01T10:00:44.797Z</time></trkpt><trkpt lat="45.2767" lon="7.8514467"><ele>247.33333333333331</ele><time>2026-05-01T10:00:45.796Z</time></trkpt><trkpt lat="45.2767583" lon="7.8515267"><ele>247.5</ele><time>2026-05-01T10:00:46.797Z</time></trkpt><trkpt lat="45.2768417" lon="7.8515917"><ele>247.66666666666669</ele><time>2026-05-01T10:00:47.796Z</time></trkpt><trkpt lat="45.276905" lon="7.8516733"><ele>247.83333333333334</ele><time>2026-05-01T10:00:48.797Z</time></trkpt><trkpt lat="45.27694" lon="7.851765"><ele>248.0</ele><time>2026-05-01T10:00:49.797Z</time></trkpt><trkpt lat="45.27695" lon="7.8518633"><ele>248.16666666666669</ele><time>2026-05-01T10:00:50.797Z</time></trkpt><trkpt lat="45.2769633" lon="7.8519517"><ele>248.33333333333334</ele><time>2026-05-01T10:00:51.797Z</time></trkpt><trkpt lat="45.2769717" lon="7.8520817"><ele>248.5</ele><time>2026-05-01T10:00:53.797Z</time></trkpt><trkpt lat="45.2769817" lon="7.8522"><ele>248.66666666666669</ele><time>2026-05-01T10:00:55.797Z</time></trkpt><trkpt lat="45.2770067" lon="7.85236"><ele>248.83333333333334</ele><time>2026-05-01T10:00:57.797Z</time></trkpt><trkpt lat="45.27703" lon="7.8524583"><ele>249.0</ele><time>2026-05-01T10:00:58.797Z</time></trkpt><trkpt lat="45.2770417" lon="7.8525583"><ele>249.16666666666666</ele><time>2026-05-01T10:00:59.797Z</time></trkpt><trkpt lat="45.27705" lon="7.85266"><ele>249.33333333333331</ele><time>2026-05-01T10:01:00.797Z</time></trkpt><trkpt lat="45.2770567" lon="7.8527733"><ele>249.5</ele><time>2026-05-01T10:01:01.796Z</time></trkpt><trkpt lat="45.2770567" lon="7.8529"><ele>249.66666666666666</ele><time>2026-05-01T10:01:02.797Z</time></trkpt><trkpt lat="45.2770633" lon="7.85304"><ele>249.83333333333331</ele><time>2026-05-01T10:01:03.797Z</time></trkpt><trkpt lat="45.27708" lon="7.8531933"><ele>250.0</ele><time>2026-05-01T10:01:04.797Z</time></trkpt><trkpt lat="45.2771017" lon="7.8533567"><ele>250.0</ele><time>2026-05-01T10:01:05.797Z</time></trkpt><trkpt lat="45.27712" lon="7.853525"><ele>250.0</ele><time>2026-05-01T10:01:06.797Z</time></trkpt><trkpt lat="45.277145" lon="7.8536917"><ele>250.0</ele><time>2026-05-01T10:01:07.797Z</time></trkpt><trkpt lat="45.27716" lon="7.85387"><ele>250.0</ele><time>2026-05-01T10:01:08.797Z</time></trkpt><trkpt lat="45.277175" lon="7.8540517"><ele>250.0</ele><time>2026-05-01T10:01:09.797Z</time></trkpt><trkpt lat="45.2771983" lon="7.85424"><ele>250.0</ele><time>2026-05-01T10:01:10.797Z</time></trkpt><trkpt lat="45.2772133" lon="7.8544217"><ele>250.0</ele><time>2026-05-01T10:01:11.797Z</time></trkpt><trkpt lat="45.2772383" lon="7.854605"><ele>250.0</ele><time>2026-05-01T10:01:12.797Z</time></trkpt><trkpt lat="45.27725" lon="7.854795"><ele>249.75</ele><time>2026-05-01T10:01:13.797Z</time></trkpt><trkpt lat="45.27727" lon="7.85499"><ele>249.5</ele><time>2026-05-01T10:01:14.796Z</time></trkpt><trkpt lat="45.277295" lon="7.8551883"><ele>249.25</ele><time>2026-05-01T10:01:15.797Z</time></trkpt><trkpt lat="45.27732" lon="7.85538"><ele>249.0</ele><time>2026-05-01T10:01:16.796Z</time></trkpt><trkpt lat="45.2773367" lon="7.85558"><ele>249.0</ele><time>2026-05-01T10:01:17.797Z</time></trkpt><trkpt lat="45.2773717" lon="7.8557717"><ele>249.0</ele><time>2026-05-01T10:01:18.797Z</time></trkpt><trkpt lat="45.2774033" lon="7.85596"><ele>249.0</ele><time>2026-05-01T10:01:19.797Z</time></trkpt><trkpt lat="45.277465" lon="7.8561417"><ele>249.0</ele><time>2026-05-01T10:01:20.796Z</time></trkpt><trkpt lat="45.2775317" lon="7.8563283"><ele>249.0</ele><time>2026-05-01T10:01:21.796Z</time></trkpt><trkpt lat="45.2776017" lon="7.8565133"><ele>249.0</ele><time>2026-05-01T10:01:22.796Z</time></trkpt><trkpt lat="45.27767" lon="7.8567033"><ele>249.0</ele><time>2026-05-01T10:01:23.796Z</time></trkpt><trkpt lat="45.2777383" lon="7.8569033"><ele>248.66666666666669</ele><time>2026-05-01T10:01:24.796Z</time></trkpt><trkpt lat="45.2778117" lon="7.85711"><ele>248.33333333333334</ele><time>2026-05-01T10:01:25.795Z</time></trkpt><trkpt lat="45.277885" lon="7.8573067"><ele>248.0</ele><time>2026-05-01T10:01:26.796Z</time></trkpt><trkpt lat="45.27796" lon="7.85751"><ele>248.33333333333334</ele><time>2026-05-01T10:01:27.796Z</time></trkpt><trkpt lat="45.2780317" lon="7.857705"><ele>248.66666666666669</ele><time>2026-05-01T10:01:28.796Z</time></trkpt><trkpt lat="45.2781067" lon="7.8578983"><ele>249.0</ele><time>2026-05-01T10:01:29.796Z</time></trkpt><trkpt lat="45.2781783" lon="7.8580933"><ele>249.0</ele><time>2026-05-01T10:01:30.796Z</time></trkpt><trkpt lat="45.278255" lon="7.8582883"><ele>249.0</ele><time>2026-05-01T10:01:31.796Z</time></trkpt><trkpt lat="45.27832" lon="7.8584717"><ele>249.0</ele><time>2026-05-01T10:01:32.796Z</time></trkpt><trkpt lat="45.2783833" lon="7.85863"><ele>249.0</ele><time>2026-05-01T10:01:33.796Z</time></trkpt><trkpt lat="45.27844" lon="7.8587933"><ele>248.75</ele><time>2026-05-01T10:01:34.796Z</time></trkpt><trkpt lat="45.2785" lon="7.8589567"><ele>248.5</ele><time>2026-05-01T10:01:35.796Z</time></trkpt><trkpt lat="45.278555" lon="7.8591167"><ele>248.25</ele><time>2026-05-01T10:01:36.796Z</time></trkpt><trkpt lat="45.2786117" lon="7.8592683"><ele>248.0</ele><time>2026-05-01T10:01:37.795Z</time></trkpt><trkpt lat="45.2786633" lon="7.859415"><ele>247.60000000000002</ele><time>2026-05-01T10:01:38.795Z</time></trkpt><trkpt lat="45.278715" lon="7.8595583"><ele>247.20000000000002</ele><time>2026-05-01T10:01:39.796Z</time></trkpt><trkpt lat="45.278765" lon="7.8596867"><ele>246.8</ele><time>2026-05-01T10:01:40.796Z</time></trkpt><trkpt lat="45.278815" lon="7.859815"><ele>246.4</ele><time>2026-05-01T10:01:41.796Z</time></trkpt><trkpt lat="45.2788533" lon="7.8599417"><ele>246.0</ele><time>2026-05-01T10:01:42.795Z</time></trkpt><trkpt lat="45.2788817" lon="7.8600567"><ele>245.8</ele><time>2026-05-01T10:01:43.796Z</time></trkpt><trkpt lat="45.2789083" lon="7.86016"><ele>245.60000000000002</ele><time>2026-05-01T10:01:44.796Z</time></trkpt><trkpt lat="45.27898" lon="7.8602833"><ele>245.4</ele><time>2026-05-01T10:01:46.796Z</time></trkpt><trkpt lat="45.2790517" lon="7.8603067"><ele>245.2</ele><time>2026-05-01T10:01:47.796Z</time></trkpt><trkpt lat="45.279155" lon="7.8603133"><ele>245.0</ele><time>2026-05-01T10:01:48.796Z</time></trkpt><trkpt lat="45.2792833" lon="7.8603217"><ele>246.0</ele><time>2026-05-01T10:01:49.796Z</time></trkpt><trkpt lat="45.279425" lon="7.860335"><ele>247.0</ele><time>2026-05-01T10:01:50.796Z</time></trkpt><trkpt lat="45.2795783" lon="7.8603433"><ele>248.0</ele><time>2026-05-01T10:01:51.796Z</time></trkpt><trkpt lat="45.2797383" lon="7.8603583"><ele>248.66666666666669</ele><time>2026-05-01T10:01:52.796Z</time></trkpt><trkpt lat="45.279915" lon="7.86037"><ele>249.33333333333331</ele><time>2026-05-01T10:01:53.796Z</time></trkpt><trkpt lat="45.2801083" lon="7.8603883"><ele>250.0</ele><time>2026-05-01T10:01:54.796Z</time></trkpt><trkpt lat="45.2802983" lon="7.8604083"><ele>250.0</ele><time>2026-05-01T10:01:55.796Z</time></trkpt><trkpt lat="45.28048" lon="7.86042"><ele>250.0</ele><time>2026-05-01T10:01:56.796Z</time></trkpt><trkpt lat="45.280645" lon="7.86043"><ele>250.0</ele><time>2026-05-01T10:01:57.796Z</time></trkpt><trkpt lat="45.2808133" lon="7.8604467"><ele>250.33333333333331</ele><time>2026-05-01T10:01:58.795Z</time></trkpt><trkpt lat="45.2809667" lon="7.8604583"><ele>250.66666666666669</ele><time>2026-05-01T10:01:59.796Z</time></trkpt><trkpt lat="45.2811183" lon="7.86047"><ele>251.0</ele><time>2026-05-01T10:02:00.796Z</time></trkpt><trkpt lat="45.2812717" lon="7.8604867"><ele>251.0</ele><time>2026-05-01T10:02:01.796Z</time></trkpt><trkpt lat="45.2814283" lon="7.860505"><ele>251.0</ele><time>2026-05-01T10:02:02.796Z</time></trkpt><trkpt lat="45.2815817" lon="7.86053"><ele>251.0</ele><time>2026-05-01T10:02:03.796Z</time></trkpt><trkpt lat="45.2817333" lon="7.86055"><ele>250.66666666666669</ele><time>2026-05-01T10:02:04.795Z</time></trkpt><trkpt lat="45.2818933" lon="7.860575"><ele>250.33333333333331</ele><time>2026-05-01T10:02:05.796Z</time></trkpt><trkpt lat="45.282055" lon="7.8605983"><ele>250.0</ele><time>2026-05-01T10:02:06.796Z</time></trkpt><trkpt lat="45.28222" lon="7.8606167"><ele>250.66666666666666</ele><time>2026-05-01T10:02:07.796Z</time></trkpt><trkpt lat="45.2823967" lon="7.86063"><ele>251.33333333333331</ele><time>2026-05-01T10:02:08.796Z</time></trkpt><trkpt lat="45.2825783" lon="7.8606467"><ele>252.0</ele><time>2026-05-01T10:02:09.796Z</time></trkpt><trkpt lat="45.2827633" lon="7.8606583"><ele>252.0</ele><time>2026-05-01T10:02:10.796Z</time></trkpt><trkpt lat="45.28295" lon="7.86067"><ele>252.0</ele><time>2026-05-01T10:02:11.796Z</time></trkpt><trkpt lat="45.2831383" lon="7.8606867"><ele>252.0</ele><time>2026-05-01T10:02:12.796Z</time></trkpt><trkpt lat="45.2833217" lon="7.8606967"><ele>252.66666666666669</ele><time>2026-05-01T10:02:13.796Z</time></trkpt><trkpt lat="45.2834967" lon="7.8607133"><ele>253.33333333333334</ele><time>2026-05-01T10:02:14.796Z</time></trkpt><trkpt lat="45.2836817" lon="7.8607267"><ele>254.0</ele><time>2026-05-01T10:02:15.796Z</time></trkpt><trkpt lat="45.283845" lon="7.8607467"><ele>253.75</ele><time>2026-05-01T10:02:16.796Z</time></trkpt><trkpt lat="45.283995" lon="7.8607683"><ele>253.5</ele><time>2026-05-01T10:02:17.795Z</time></trkpt><trkpt lat="45.2841383" lon="7.86078"><ele>253.25</ele><time>2026-05-01T10:02:18.796Z</time></trkpt><trkpt lat="45.2842817" lon="7.8607833"><ele>253.0</ele><time>2026-05-01T10:02:19.796Z</time></trkpt><trkpt lat="45.2844217" lon="7.8608017"><ele>253.0</ele><time>2026-05-01T10:02:20.796Z</time></trkpt><trkpt lat="45.2845733" lon="7.860815"><ele>253.0</ele><time>2026-05-01T10:02:21.796Z</time></trkpt><trkpt lat="45.28473" lon="7.860835"><ele>253.0</ele><time>2026-05-01T10:02:22.796Z</time></trkpt><trkpt lat="45.2848967" lon="7.8608467"><ele>253.33333333333331</ele><time>2026-05-01T10:02:23.796Z</time></trkpt><trkpt lat="45.28506" lon="7.8608617"><ele>253.66666666666669</ele><time>2026-05-01T10:02:24.796Z</time></trkpt><trkpt lat="45.2852183" lon="7.86087"><ele>254.0</ele><time>2026-05-01T10:02:25.796Z</time></trkpt><trkpt lat="45.2853683" lon="7.860885"><ele>254.0</ele><time>2026-05-01T10:02:26.796Z</time></trkpt><trkpt lat="45.2855183" lon="7.8608967"><ele>254.0</ele><time>2026-05-01T10:02:27.796Z</time></trkpt><trkpt lat="45.2856683" lon="7.8609233"><ele>254.0</ele><time>2026-05-01T10:02:28.796Z</time></trkpt><trkpt lat="45.2858317" lon="7.8609383"><ele>254.33333333333334</ele><time>2026-05-01T10:02:29.796Z</time></trkpt><trkpt lat="45.286005" lon="7.860955"><ele>254.66666666666669</ele><time>2026-05-01T10:02:30.796Z</time></trkpt><trkpt lat="45.28618" lon="7.860965"><ele>255.0</ele><time>2026-05-01T10:02:31.796Z</time></trkpt><trkpt lat="45.2863583" lon="7.86098"><ele>255.66666666666669</ele><time>2026-05-01T10:02:32.796Z</time></trkpt><trkpt lat="45.2865333" lon="7.860995"><ele>256.33333333333337</ele><time>2026-05-01T10:02:33.796Z</time></trkpt><trkpt lat="45.2866967" lon="7.8610133"><ele>257.0</ele><time>2026-05-01T10:02:34.796Z</time></trkpt><trkpt lat="45.2868633" lon="7.8610167"><ele>257.0</ele><time>2026-05-01T10:02:35.795Z</time></trkpt><trkpt lat="45.2870283" lon="7.8610317"><ele>257.0</ele><time>2026-05-01T10:02:36.796Z</time></trkpt><trkpt lat="45.2871767" lon="7.86104"><ele>257.0</ele><time>2026-05-01T10:02:37.796Z</time></trkpt><trkpt lat="45.2873167" lon="7.861045"><ele>256.6666666666667</ele><time>2026-05-01T10:02:38.796Z</time></trkpt><trkpt lat="45.2874633" lon="7.8610483"><ele>256.3333333333333</ele><time>2026-05-01T10:02:39.796Z</time></trkpt><trkpt lat="45.2876167" lon="7.861055"><ele>256.0</ele><time>2026-05-01T10:02:40.796Z</time></trkpt><trkpt lat="45.2877717" lon="7.86107"><ele>256.0</ele><time>2026-05-01T10:02:41.796Z</time></trkpt><trkpt lat="45.2879317" lon="7.86108"><ele>256.0</ele><time>2026-05-01T10:02:42.796Z</time></trkpt><trkpt lat="45.2881" lon="7.861095"><ele>256.0</ele><time>2026-05-01T10:02:43.796Z</time></trkpt><trkpt lat="45.2882767" lon="7.8611133"><ele>256.0</ele><time>2026-05-01T10:02:44.795Z</time></trkpt><trkpt lat="45.2884517" lon="7.8611333"><ele>256.0</ele><time>2026-05-01T10:02:45.796Z</time></trkpt><trkpt lat="45.2886167" lon="7.8611517"><ele>256.0</ele><time>2026-05-01T10:02:46.796Z</time></trkpt><trkpt lat="45.2887667" lon="7.8611683"><ele>256.0</ele><time>2026-05-01T10:02:47.796Z</time></trkpt><trkpt lat="45.288925" lon="7.86119"><ele>256.0</ele><time>2026-05-01T10:02:48.796Z</time></trkpt><trkpt lat="45.2890883" lon="7.8612133"><ele>256.0</ele><time>2026-05-01T10:02:49.796Z</time></trkpt><trkpt lat="45.2892433" lon="7.8612317"><ele>256.25</ele><time>2026-05-01T10:02:50.796Z</time></trkpt><trkpt lat="45.2893867" lon="7.8612467"><ele>256.5</ele><time>2026-05-01T10:02:51.796Z</time></trkpt><trkpt lat="45.2895117" lon="7.86126"><ele>256.75</ele><time>2026-05-01T10:02:52.796Z</time></trkpt><trkpt lat="45.2896283" lon="7.8612783"><ele>257.0</ele><time>2026-05-01T10:02:53.796Z</time></trkpt><trkpt lat="45.2897267" lon="7.861285"><ele>257.0</ele><time>2026-05-01T10:02:54.796Z</time></trkpt><trkpt lat="45.2898" lon="7.8612967"><ele>257.0</ele><time>2026-05-01T10:02:55.796Z</time></trkpt><trkpt lat="45.2898767" lon="7.8613117"><ele>257.0</ele><time>2026-05-01T10:02:57.796Z</time></trkpt><trkpt lat="45.28993" lon="7.8613983"><ele>257.0</ele><time>2026-05-01T10:03:01.796Z</time></trkpt><trkpt lat="45.2899267" lon="7.8615567"><ele>257.0</ele><time>2026-05-01T10:03:03.796Z</time></trkpt><trkpt lat="45.289915" lon="7.8616783"><ele>257.0</ele><time>2026-05-01T10:03:04.796Z</time></trkpt><trkpt lat="45.2898917" lon="7.86181"><ele>257.0</ele><time>2026-05-01T10:03:05.796Z</time></trkpt><trkpt lat="45.289875" lon="7.8619467"><ele>257.0</ele><time>2026-05-01T10:03:06.796Z</time></trkpt><trkpt lat="45.2898667" lon="7.86208"><ele>257.0</ele><time>2026-05-01T10:03:07.796Z</time></trkpt><trkpt lat="45.289865" lon="7.8622183"><ele>257.0</ele><time>2026-05-01T10:03:08.796Z</time></trkpt><trkpt lat="45.2898617" lon="7.8623733"><ele>257.0</ele><time>2026-05-01T10:03:09.796Z</time></trkpt><trkpt lat="45.2898617" lon="7.8625367"><ele>257.0</ele><time>2026-05-01T10:03:10.795Z</time></trkpt><trkpt lat="45.289865" lon="7.862705"><ele>257.0</ele><time>2026-05-01T10:03:11.796Z</time></trkpt><trkpt lat="45.2898717" lon="7.8628717"><ele>257.0</ele><time>2026-05-01T10:03:12.796Z</time></trkpt><trkpt lat="45.2898767" lon="7.863025"><ele>257.0</ele><time>2026-05-01T10:03:13.796Z</time></trkpt><trkpt lat="45.2898833" lon="7.863165"><ele>257.0</ele><time>2026-05-01T10:03:14.796Z</time></trkpt><trkpt lat="45.2898867" lon="7.863305"><ele>256.8</ele><time>2026-05-01T10:03:15.796Z</time></trkpt><trkpt lat="45.2898983" lon="7.86345"><ele>256.6</ele><time>2026-05-01T10:03:16.796Z</time></trkpt><trkpt lat="45.28991" lon="7.8636117"><ele>256.40000000000003</ele><time>2026-05-01T10:03:17.796Z</time></trkpt><trkpt lat="45.2899167" lon="7.8637783"><ele>256.2</ele><time>2026-05-01T10:03:18.796Z</time></trkpt><trkpt lat="45.2899267" lon="7.86394"><ele>256.0</ele><time>2026-05-01T10:03:19.796Z</time></trkpt><trkpt lat="45.2899333" lon="7.8640933"><ele>256.0</ele><time>2026-05-01T10:03:20.795Z</time></trkpt><trkpt lat="45.2899467" lon="7.8642517"><ele>256.0</ele><time>2026-05-01T10:03:21.796Z</time></trkpt><trkpt lat="45.2899617" lon="7.86442"><ele>256.0</ele><time>2026-05-01T10:03:22.796Z</time></trkpt><trkpt lat="45.2899717" lon="7.8645783"><ele>256.0</ele><time>2026-05-01T10:03:23.796Z</time></trkpt><trkpt lat="45.2899783" lon="7.86473"><ele>255.99999999999997</ele><time>2026-05-01T10:03:24.796Z</time></trkpt><trkpt lat="45.2899833" lon="7.864865"><ele>256.0</ele><time>2026-05-01T10:03:25.796Z</time></trkpt><trkpt lat="45.2899867" lon="7.86498"><ele>256.0</ele><time>2026-05-01T10:03:26.796Z</time></trkpt><trkpt lat="45.2899917" lon="7.8650833"><ele>256.0</ele><time>2026-05-01T10:03:27.796Z</time></trkpt><trkpt lat="45.2899983" lon="7.86518"><ele>255.99999999999997</ele><time>2026-05-01T10:03:28.796Z</time></trkpt><trkpt lat="45.29" lon="7.8652783"><ele>256.0</ele><time>2026-05-01T10:03:29.796Z</time></trkpt><trkpt lat="45.2899983" lon="7.86537"><ele>256.0</ele><time>2026-05-01T10:03:30.796Z</time></trkpt><trkpt lat="45.2900033" lon="7.8654617"><ele>256.0</ele><time>2026-05-01T10:03:31.796Z</time></trkpt><trkpt lat="45.2900067" lon="7.8655733"><ele>256.0</ele><time>2026-05-01T10:03:32.796Z</time></trkpt><trkpt lat="45.290025" lon="7.8657033"><ele>256.0</ele><time>2026-05-01T10:03:33.796Z</time></trkpt><trkpt lat="45.2900367" lon="7.865865"><ele>256.0</ele><time>2026-05-01T10:03:34.796Z</time></trkpt><trkpt lat="45.2900467" lon="7.8660367"><ele>256.0</ele><time>2026-05-01T10:03:35.796Z</time></trkpt><trkpt lat="45.2900567" lon="7.866245"><ele>256.0</ele><time>2026-05-01T10:03:36.796Z</time></trkpt><trkpt lat="45.2900583" lon="7.8664467"><ele>256.0</ele><time>2026-05-01T10:03:37.796Z</time></trkpt><trkpt lat="45.2900633" lon="7.8666567"><ele>256.0</ele><time>2026-05-01T10:03:38.796Z</time></trkpt><trkpt lat="45.2900717" lon="7.86686"><ele>255.66666666666666</ele><time>2026-05-01T10:03:39.796Z</time></trkpt><trkpt lat="45.2900883" lon="7.867065"><ele>255.33333333333331</ele><time>2026-05-01T10:03:40.796Z</time></trkpt><trkpt lat="45.2900983" lon="7.867285"><ele>255.0</ele><time>2026-05-01T10:03:41.796Z</time></trkpt><trkpt lat="45.290115" lon="7.8675167"><ele>255.33333333333331</ele><time>2026-05-01T10:03:42.796Z</time></trkpt><trkpt lat="45.2901417" lon="7.8677567"><ele>255.66666666666666</ele><time>2026-05-01T10:03:43.796Z</time></trkpt><trkpt lat="45.2901517" lon="7.8679967"><ele>256.0</ele><time>2026-05-01T10:03:44.796Z</time></trkpt><trkpt lat="45.2901583" lon="7.8682333"><ele>256.0</ele><time>2026-05-01T10:03:45.796Z</time></trkpt><trkpt lat="45.2901683" lon="7.868465"><ele>256.0</ele><time>2026-05-01T10:03:46.796Z</time></trkpt><trkpt lat="45.2901767" lon="7.868675"><ele>256.0</ele><time>2026-05-01T10:03:47.795Z</time></trkpt><trkpt lat="45.2901833" lon="7.8688667"><ele>256.0</ele><time>2026-05-01T10:03:48.796Z</time></trkpt><trkpt lat="45.29019" lon="7.8690367"><ele>256.0</ele><time>2026-05-01T10:03:49.796Z</time></trkpt><trkpt lat="45.2902033" lon="7.8692017"><ele>256.0</ele><time>2026-05-01T10:03:50.796Z</time></trkpt><trkpt lat="45.29022" lon="7.869375"><ele>256.0</ele><time>2026-05-01T10:03:51.796Z</time></trkpt><trkpt lat="45.2902317" lon="7.8695417"><ele>256.0</ele><time>2026-05-01T10:03:52.796Z</time></trkpt><trkpt lat="45.2902317" lon="7.8696967"><ele>256.25</ele><time>2026-05-01T10:03:53.796Z</time></trkpt><trkpt lat="45.2902167" lon="7.869875"><ele>256.5</ele><time>2026-05-01T10:03:54.796Z</time></trkpt><trkpt lat="45.2902017" lon="7.870075"><ele>256.75</ele><time>2026-05-01T10:03:55.796Z</time></trkpt><trkpt lat="45.2902" lon="7.870295"><ele>257.0</ele><time>2026-05-01T10:03:56.796Z</time></trkpt><trkpt lat="45.2901967" lon="7.8705183"><ele>257.0</ele><time>2026-05-01T10:03:57.796Z</time></trkpt><trkpt lat="45.2901967" lon="7.870745"><ele>257.0</ele><time>2026-05-01T10:03:58.796Z</time></trkpt><trkpt lat="45.2902033" lon="7.8709717"><ele>257.0</ele><time>2026-05-01T10:03:59.796Z</time></trkpt><trkpt lat="45.2902033" lon="7.8712017"><ele>257.0</ele><time>2026-05-01T10:04:00.796Z</time></trkpt><trkpt lat="45.2901967" lon="7.87142"><ele>257.0</ele><time>2026-05-01T10:04:01.796Z</time></trkpt><trkpt lat="45.2901917" lon="7.8716317"><ele>257.0</ele><time>2026-05-01T10:04:02.796Z</time></trkpt><trkpt lat="45.2901933" lon="7.8718217"><ele>257.0</ele><time>2026-05-01T10:04:03.796Z</time></trkpt><trkpt lat="45.2902" lon="7.871985"><ele>256.83333333333337</ele><time>2026-05-01T10:04:04.796Z</time></trkpt><trkpt lat="45.2902" lon="7.8721117"><ele>256.6666666666667</ele><time>2026-05-01T10:04:05.796Z</time></trkpt><trkpt lat="45.2901983" lon="7.8722217"><ele>256.5</ele><time>2026-05-01T10:04:06.796Z</time></trkpt><trkpt lat="45.290195" lon="7.8723617"><ele>256.3333333333333</ele><time>2026-05-01T10:04:08.796Z</time></trkpt><trkpt lat="45.29016" lon="7.87244"><ele>256.16666666666663</ele><time>2026-05-01T10:04:11.796Z</time></trkpt><trkpt lat="45.2900667" lon="7.87246"><ele>256.0</ele><time>2026-05-01T10:04:13.796Z</time></trkpt><trkpt lat="45.2899933" lon="7.8724667"><ele>255.99999999999997</ele><time>2026-05-01T10:04:14.796Z</time></trkpt><trkpt lat="45.2898983" lon="7.8724833"><ele>256.0</ele><time>2026-05-01T10:04:15.796Z</time></trkpt><trkpt lat="45.2897983" lon="7.872505"><ele>256.0</ele><time>2026-05-01T10:04:16.796Z</time></trkpt><trkpt lat="45.2897083" lon="7.8725267"><ele>256.0</ele><time>2026-05-01T10:04:17.796Z</time></trkpt><trkpt lat="45.2896267" lon="7.8725583"><ele>255.99999999999997</ele><time>2026-05-01T10:04:18.796Z</time></trkpt><trkpt lat="45.289565" lon="7.8725883"><ele>256.0</ele><time>2026-05-01T10:04:19.796Z</time></trkpt><trkpt lat="45.2894983" lon="7.8727183"><ele>256.25</ele><time>2026-05-01T10:04:21.796Z</time></trkpt><trkpt lat="45.2894817" lon="7.87283"><ele>256.5</ele><time>2026-05-01T10:04:22.796Z</time></trkpt><trkpt lat="45.2894733" lon="7.8729817"><ele>256.75</ele><time>2026-05-01T10:04:23.796Z</time></trkpt><trkpt lat="45.2894633" lon="7.8731817"><ele>257.0</ele><time>2026-05-01T10:04:24.796Z</time></trkpt><trkpt lat="45.2894583" lon="7.8734117"><ele>256.75</ele><time>2026-05-01T10:04:25.796Z</time></trkpt><trkpt lat="45.2894517" lon="7.873635"><ele>256.5</ele><time>2026-05-01T10:04:26.795Z</time></trkpt><trkpt lat="45.2894433" lon="7.873845"><ele>256.25</ele><time>2026-05-01T10:04:27.796Z</time></trkpt><trkpt lat="45.2894333" lon="7.87404"><ele>256.0</ele><time>2026-05-01T10:04:28.796Z</time></trkpt><trkpt lat="45.2894167" lon="7.8742233"><ele>256.0</ele><time>2026-05-01T10:04:29.796Z</time></trkpt><trkpt lat="45.2894083" lon="7.8744267"><ele>256.0</ele><time>2026-05-01T10:04:30.796Z</time></trkpt><trkpt lat="45.2893933" lon="7.87466"><ele>256.0</ele><time>2026-05-01T10:04:31.796Z</time></trkpt><trkpt lat="45.2893783" lon="7.8749"><ele>256.66666666666663</ele><time>2026-05-01T10:04:32.796Z</time></trkpt><trkpt lat="45.2893617" lon="7.8751433"><ele>257.3333333333333</ele><time>2026-05-01T10:04:33.796Z</time></trkpt><trkpt lat="45.28935" lon="7.8753867"><ele>258.0</ele><time>2026-05-01T10:04:34.796Z</time></trkpt><trkpt lat="45.289335" lon="7.8756267"><ele>258.0</ele><time>2026-05-01T10:04:35.796Z</time></trkpt><trkpt lat="45.2893233" lon="7.8758383"><ele>258.0</ele><time>2026-05-01T10:04:36.796Z</time></trkpt><trkpt lat="45.28931" lon="7.876025"><ele>258.0</ele><time>2026-05-01T10:04:37.796Z</time></trkpt><trkpt lat="45.2892983" lon="7.876175"><ele>258.0</ele><time>2026-05-01T10:04:38.796Z</time></trkpt><trkpt lat="45.289285" lon="7.8762733"><ele>258.2</ele><time>2026-05-01T10:04:39.796Z</time></trkpt><trkpt lat="45.2892233" lon="7.8763933"><ele>258.4</ele><time>2026-05-01T10:04:41.796Z</time></trkpt><trkpt lat="45.28914" lon="7.8764183"><ele>258.59999999999997</ele><time>2026-05-01T10:04:43.795Z</time></trkpt><trkpt lat="45.28906" lon="7.8764133"><ele>258.8</ele><time>2026-05-01T10:04:45.796Z</time></trkpt><trkpt lat="45.28899" lon="7.87644"><ele>259.0</ele><time>2026-05-01T10:04:47.796Z</time></trkpt><trkpt lat="45.2888717" lon="7.8765267"><ele>258.59999999999997</ele><time>2026-05-01T10:04:49.796Z</time></trkpt><trkpt lat="45.2887967" lon="7.8765633"><ele>258.2</ele><time>2026-05-01T10:04:50.795Z</time></trkpt><trkpt lat="45.2887" lon="7.8765817"><ele>257.79999999999995</ele><time>2026-05-01T10:04:51.796Z</time></trkpt><trkpt lat="45.2885833" lon="7.8765683"><ele>257.4</ele><time>2026-05-01T10:04:52.796Z</time></trkpt><trkpt lat="45.2884717" lon="7.8765517"><ele>257.0</ele><time>2026-05-01T10:04:53.796Z</time></trkpt><trkpt lat="45.28838" lon="7.87654"><ele>257.0</ele><time>2026-05-01T10:04:54.795Z</time></trkpt><trkpt lat="45.288285" lon="7.876545"><ele>257.0</ele><time>2026-05-01T10:04:56.795Z</time></trkpt><trkpt lat="45.2882483" lon="7.87662"><ele>257.0</ele><time>2026-05-01T10:04:58.796Z</time></trkpt><trkpt lat="45.2882433" lon="7.8767383"><ele>257.0</ele><time>2026-05-01T10:05:00.796Z</time></trkpt><trkpt lat="45.2882417" lon="7.8768733"><ele>257.0</ele><time>2026-05-01T10:05:02.796Z</time></trkpt><trkpt lat="45.288235" lon="7.877005"><ele>257.0</ele><time>2026-05-01T10:05:04.796Z</time></trkpt><trkpt lat="45.2882233" lon="7.8772"><ele>257.0</ele><time>2026-05-01T10:05:06.796Z</time></trkpt><trkpt lat="45.288205" lon="7.877335"><ele>257.0</ele><time>2026-05-01T10:05:07.796Z</time></trkpt><trkpt lat="45.2881883" lon="7.8774883"><ele>257.0</ele><time>2026-05-01T10:05:08.796Z</time></trkpt><trkpt lat="45.2881617" lon="7.8776733"><ele>257.0</ele><time>2026-05-01T10:05:09.796Z</time></trkpt><trkpt lat="45.2881433" lon="7.87788"><ele>256.75</ele><time>2026-05-01T10:05:10.796Z</time></trkpt><trkpt lat="45.2881233" lon="7.8780967"><ele>256.5</ele><time>2026-05-01T10:05:11.796Z</time></trkpt><trkpt lat="45.288105" lon="7.8783017"><ele>256.25</ele><time>2026-05-01T10:05:12.796Z</time></trkpt><trkpt lat="45.2880783" lon="7.8784967"><ele>256.0</ele><time>2026-05-01T10:05:13.796Z</time></trkpt><trkpt lat="45.2880517" lon="7.8786967"><ele>256.0</ele><time>2026-05-01T10:05:14.796Z</time></trkpt><trkpt lat="45.288025" lon="7.8789033"><ele>256.0</ele><time>2026-05-01T10:05:15.796Z</time></trkpt><trkpt lat="45.2880067" lon="7.87913"><ele>256.0</ele><time>2026-05-01T10:05:16.796Z</time></trkpt><trkpt lat="45.2879883" lon="7.8793433"><ele>255.75</ele><time>2026-05-01T10:05:17.796Z</time></trkpt><trkpt lat="45.2879633" lon="7.8795467"><ele>255.5</ele><time>2026-05-01T10:05:18.796Z</time></trkpt><trkpt lat="45.2879433" lon="7.8797283"><ele>255.25</ele><time>2026-05-01T10:05:19.796Z</time></trkpt><trkpt lat="45.2879283" lon="7.8799283"><ele>255.0</ele><time>2026-05-01T10:05:20.796Z</time></trkpt><trkpt lat="45.2879117" lon="7.8801417"><ele>255.66666666666669</ele><time>2026-05-01T10:05:21.796Z</time></trkpt><trkpt lat="45.287895" lon="7.8803683"><ele>256.33333333333337</ele><time>2026-05-01T10:05:22.796Z</time></trkpt><trkpt lat="45.2878733" lon="7.8806083"><ele>257.0</ele><time>2026-05-01T10:05:23.796Z</time></trkpt><trkpt lat="45.2878467" lon="7.8808583"><ele>258.0</ele><time>2026-05-01T10:05:24.796Z</time></trkpt><trkpt lat="45.2878217" lon="7.8811133"><ele>259.0</ele><time>2026-05-01T10:05:25.796Z</time></trkpt><trkpt lat="45.287795" lon="7.881355"><ele>260.0</ele><time>2026-05-01T10:05:26.795Z</time></trkpt><trkpt lat="45.28778" lon="7.88157"><ele>259.0</ele><time>2026-05-01T10:05:27.796Z</time></trkpt><trkpt lat="45.2877617" lon="7.88178"><ele>258.0</ele><time>2026-05-01T10:05:28.796Z</time></trkpt><trkpt lat="45.2877433" lon="7.88197"><ele>257.0</ele><time>2026-05-01T10:05:29.796Z</time></trkpt><trkpt lat="45.2877333" lon="7.88215"><ele>256.0</ele><time>2026-05-01T10:05:30.796Z</time></trkpt><trkpt lat="45.28771" lon="7.882345"><ele>256.0</ele><time>2026-05-01T10:05:31.796Z</time></trkpt><trkpt lat="45.28768" lon="7.8825217"><ele>256.0</ele><time>2026-05-01T10:05:32.796Z</time></trkpt><trkpt lat="45.287645" lon="7.8827083"><ele>256.0</ele><time>2026-05-01T10:05:33.796Z</time></trkpt><trkpt lat="45.28761" lon="7.8828983"><ele>256.0</ele><time>2026-05-01T10:05:34.795Z</time></trkpt><trkpt lat="45.28759" lon="7.88313"><ele>256.3333333333333</ele><time>2026-05-01T10:05:35.796Z</time></trkpt><trkpt lat="45.2875617" lon="7.88335"><ele>256.6666666666667</ele><time>2026-05-01T10:05:36.796Z</time></trkpt><trkpt lat="45.2875317" lon="7.8836017"><ele>257.0</ele><time>2026-05-01T10:05:37.796Z</time></trkpt><trkpt lat="45.2875033" lon="7.8838617"><ele>257.0</ele><time>2026-05-01T10:05:38.796Z</time></trkpt><trkpt lat="45.2874817" lon="7.8841383"><ele>257.0</ele><time>2026-05-01T10:05:39.796Z</time></trkpt><trkpt lat="45.28746" lon="7.8844183"><ele>257.0</ele><time>2026-05-01T10:05:40.796Z</time></trkpt><trkpt lat="45.2874383" lon="7.88471"><ele>257.0</ele><time>2026-05-01T10:05:41.796Z</time></trkpt><trkpt lat="45.2874117" lon="7.8850017"><ele>257.0</ele><time>2026-05-01T10:05:42.796Z</time></trkpt><trkpt lat="45.287395" lon="7.8852733"><ele>257.0</ele><time>2026-05-01T10:05:43.796Z</time></trkpt><trkpt lat="45.2873767" lon="7.8855083"><ele>257.25</ele><time>2026-05-01T10:05:44.796Z</time></trkpt><trkpt lat="45.287365" lon="7.885725"><ele>257.5</ele><time>2026-05-01T10:05:45.796Z</time></trkpt><trkpt lat="45.28736" lon="7.8859017"><ele>257.75</ele><time>2026-05-01T10:05:46.796Z</time></trkpt><trkpt lat="45.2873583" lon="7.8860483"><ele>258.0</ele><time>2026-05-01T10:05:47.796Z</time></trkpt><trkpt lat="45.2873617" lon="7.8861817"><ele>258.0</ele><time>2026-05-01T10:05:48.796Z</time></trkpt><trkpt lat="45.2873583" lon="7.8862917"><ele>258.0</ele><time>2026-05-01T10:05:49.796Z</time></trkpt><trkpt lat="45.2873533" lon="7.8863817"><ele>258.0</ele><time>2026-05-01T10:05:50.796Z</time></trkpt><trkpt lat="45.2873167" lon="7.8865017"><ele>258.0</ele><time>2026-05-01T10:05:53.796Z</time></trkpt><trkpt lat="45.2873367" lon="7.8865917"><ele>258.0</ele><time>2026-05-01T10:05:56.796Z</time></trkpt><trkpt lat="45.287395" lon="7.8866283"><ele>258.0</ele><time>2026-05-01T10:06:14.796Z</time></trkpt><trkpt lat="45.2874833" lon="7.8867217"><ele>258.0</ele><time>2026-05-01T10:06:16.796Z</time></trkpt><trkpt lat="45.2875517" lon="7.8867883"><ele>258.0</ele><time>2026-05-01T10:06:17.796Z</time></trkpt><trkpt lat="45.2876267" lon="7.886865"><ele>258.0</ele><time>2026-05-01T10:06:18.796Z</time></trkpt><trkpt lat="45.2877067" lon="7.8869367"><ele>258.0</ele><time>2026-05-01T10:06:19.796Z</time></trkpt><trkpt lat="45.2877933" lon="7.88702"><ele>258.0</ele><time>2026-05-01T10:06:20.796Z</time></trkpt><trkpt lat="45.2878883" lon="7.8871117"><ele>258.0</ele><time>2026-05-01T10:06:21.796Z</time></trkpt><trkpt lat="45.2879933" lon="7.887215"><ele>258.0</ele><time>2026-05-01T10:06:22.796Z</time></trkpt><trkpt lat="45.2880967" lon="7.8873183"><ele>258.0</ele><time>2026-05-01T10:06:23.796Z</time></trkpt><trkpt lat="45.2882033" lon="7.8874233"><ele>258.0</ele><time>2026-05-01T10:06:24.796Z</time></trkpt><trkpt lat="45.288315" lon="7.8875333"><ele>257.75</ele><time>2026-05-01T10:06:25.796Z</time></trkpt><trkpt lat="45.2884383" lon="7.88764"><ele>257.5</ele><time>2026-05-01T10:06:26.796Z</time></trkpt><trkpt lat="45.28856" lon="7.88776"><ele>257.25</ele><time>2026-05-01T10:06:27.796Z</time></trkpt><trkpt lat="45.2886833" lon="7.8878867"><ele>257.0</ele><time>2026-05-01T10:06:28.796Z</time></trkpt><trkpt lat="45.2888133" lon="7.8880117"><ele>257.33333333333337</ele><time>2026-05-01T10:06:29.796Z</time></trkpt><trkpt lat="45.2889367" lon="7.8881417"><ele>257.6666666666667</ele><time>2026-05-01T10:06:30.796Z</time></trkpt><trkpt lat="45.2890633" lon="7.8882783"><ele>258.0</ele><time>2026-05-01T10:06:31.796Z</time></trkpt><trkpt lat="45.2891867" lon="7.8884083"><ele>258.3333333333333</ele><time>2026-05-01T10:06:32.796Z</time></trkpt><trkpt lat="45.2893133" lon="7.8885383"><ele>258.66666666666663</ele><time>2026-05-01T10:06:33.796Z</time></trkpt><trkpt lat="45.28945" lon="7.8886683"><ele>259.0</ele><time>2026-05-01T10:06:34.796Z</time></trkpt><trkpt lat="45.289585" lon="7.8888017"><ele>259.0</ele><time>2026-05-01T10:06:35.796Z</time></trkpt><trkpt lat="45.2897133" lon="7.8889367"><ele>259.0</ele><time>2026-05-01T10:06:36.796Z</time></trkpt><trkpt lat="45.289845" lon="7.8890683"><ele>259.0</ele><time>2026-05-01T10:06:37.795Z</time></trkpt><trkpt lat="45.2899817" lon="7.8892067"><ele>259.3333333333333</ele><time>2026-05-01T10:06:38.796Z</time></trkpt><trkpt lat="45.2901267" lon="7.8893467"><ele>259.6666666666667</ele><time>2026-05-01T10:06:39.796Z</time></trkpt><trkpt lat="45.2902567" lon="7.8894883"><ele>260.0</ele><time>2026-05-01T10:06:40.796Z</time></trkpt><trkpt lat="45.2903983" lon="7.8896333"><ele>260.0</ele><time>2026-05-01T10:06:41.796Z</time></trkpt><trkpt lat="45.2905433" lon="7.88977"><ele>260.0</ele><time>2026-05-01T10:06:42.796Z</time></trkpt><trkpt lat="45.29069" lon="7.8899117"><ele>260.0</ele><time>2026-05-01T10:06:43.796Z</time></trkpt><trkpt lat="45.2908367" lon="7.8900533"><ele>260.0</ele><time>2026-05-01T10:06:44.796Z</time></trkpt><trkpt lat="45.29098" lon="7.8902"><ele>260.0</ele><time>2026-05-01T10:06:45.796Z</time></trkpt><trkpt lat="45.2911217" lon="7.89034"><ele>260.0</ele><time>2026-05-01T10:06:46.796Z</time></trkpt><trkpt lat="45.2912683" lon="7.8904883"><ele>260.0</ele><time>2026-05-01T10:06:47.796Z</time></trkpt><trkpt lat="45.2914117" lon="7.890635"><ele>260.0</ele><time>2026-05-01T10:06:48.796Z</time></trkpt><trkpt lat="45.2915567" lon="7.890785"><ele>260.0</ele><time>2026-05-01T10:06:49.796Z</time></trkpt><trkpt lat="45.2917017" lon="7.8909267"><ele>260.6666666666667</ele><time>2026-05-01T10:06:50.795Z</time></trkpt><trkpt lat="45.2918467" lon="7.8910617"><ele>261.3333333333333</ele><time>2026-05-01T10:06:51.796Z</time></trkpt><trkpt lat="45.291995" lon="7.8911767"><ele>262.0</ele><time>2026-05-01T10:06:52.796Z</time></trkpt><trkpt lat="45.2921567" lon="7.8912717"><ele>262.3333333333333</ele><time>2026-05-01T10:06:53.796Z</time></trkpt><trkpt lat="45.2923283" lon="7.8913333"><ele>262.6666666666667</ele><time>2026-05-01T10:06:54.796Z</time></trkpt><trkpt lat="45.2925017" lon="7.89137"><ele>263.0</ele><time>2026-05-01T10:06:55.796Z</time></trkpt><trkpt lat="45.2926883" lon="7.891375"><ele>263.0</ele><time>2026-05-01T10:06:56.796Z</time></trkpt><trkpt lat="45.2928733" lon="7.8913633"><ele>263.0</ele><time>2026-05-01T10:06:57.796Z</time></trkpt><trkpt lat="45.2930533" lon="7.8913283"><ele>263.0</ele><time>2026-05-01T10:06:58.796Z</time></trkpt><trkpt lat="45.29323" lon="7.891295"><ele>264.0</ele><time>2026-05-01T10:06:59.796Z</time></trkpt><trkpt lat="45.293415" lon="7.89126"><ele>265.0</ele><time>2026-05-01T10:07:00.796Z</time></trkpt><trkpt lat="45.293605" lon="7.8912283"><ele>266.0</ele><time>2026-05-01T10:07:01.796Z</time></trkpt><trkpt lat="45.293795" lon="7.89119"><ele>265.6666666666667</ele><time>2026-05-01T10:07:02.796Z</time></trkpt><trkpt lat="45.29397" lon="7.8911617"><ele>265.3333333333333</ele><time>2026-05-01T10:07:03.795Z</time></trkpt><trkpt lat="45.2941567" lon="7.8911217"><ele>265.0</ele><time>2026-05-01T10:07:04.796Z</time></trkpt><trkpt lat="45.2943467" lon="7.8910817"><ele>265.0</ele><time>2026-05-01T10:07:05.796Z</time></trkpt><trkpt lat="45.29453" lon="7.891045"><ele>265.0</ele><time>2026-05-01T10:07:06.796Z</time></trkpt><trkpt lat="45.294715" lon="7.8910117"><ele>265.0</ele><time>2026-05-01T10:07:07.796Z</time></trkpt><trkpt lat="45.2949033" lon="7.890975"><ele>265.0</ele><time>2026-05-01T10:07:08.796Z</time></trkpt><trkpt lat="45.2950917" lon="7.8909467"><ele>265.0</ele><time>2026-05-01T10:07:09.796Z</time></trkpt><trkpt lat="45.2952617" lon="7.8909167"><ele>265.0</ele><time>2026-05-01T10:07:10.796Z</time></trkpt><trkpt lat="45.2954267" lon="7.890885"><ele>265.25</ele><time>2026-05-01T10:07:11.796Z</time></trkpt><trkpt lat="45.2955783" lon="7.8908533"><ele>265.5</ele><time>2026-05-01T10:07:12.796Z</time></trkpt><trkpt lat="45.2957217" lon="7.890825"><ele>265.75</ele><time>2026-05-01T10:07:13.796Z</time></trkpt><trkpt lat="45.295845" lon="7.89082"><ele>266.0</ele><time>2026-05-01T10:07:14.796Z</time></trkpt><trkpt lat="45.295945" lon="7.8908267"><ele>266.2</ele><time>2026-05-01T10:07:15.796Z</time></trkpt><trkpt lat="45.2960217" lon="7.8908633"><ele>266.40000000000003</ele><time>2026-05-01T10:07:16.796Z</time></trkpt><trkpt lat="45.296085" lon="7.8909383"><ele>266.6</ele><time>2026-05-01T10:07:17.796Z</time></trkpt><trkpt lat="45.29613" lon="7.89105"><ele>266.8</ele><time>2026-05-01T10:07:18.796Z</time></trkpt><trkpt lat="45.2961583" lon="7.8911933"><ele>267.0</ele><time>2026-05-01T10:07:19.796Z</time></trkpt><trkpt lat="45.2961567" lon="7.8913917"><ele>267.0</ele><time>2026-05-01T10:07:20.796Z</time></trkpt><trkpt lat="45.2961217" lon="7.8916217"><ele>267.0</ele><time>2026-05-01T10:07:21.796Z</time></trkpt><trkpt lat="45.29608" lon="7.891845"><ele>267.0</ele><time>2026-05-01T10:07:22.796Z</time></trkpt><trkpt lat="45.29603" lon="7.8920583"><ele>266.75</ele><time>2026-05-01T10:07:23.796Z</time></trkpt><trkpt lat="45.2959817" lon="7.8922583"><ele>266.5</ele><time>2026-05-01T10:07:24.796Z</time></trkpt><trkpt lat="45.295925" lon="7.8924467"><ele>266.25</ele><time>2026-05-01T10:07:25.796Z</time></trkpt><trkpt lat="45.295865" lon="7.8926483"><ele>266.0</ele><time>2026-05-01T10:07:26.796Z</time></trkpt><trkpt lat="45.29579" lon="7.8928417"><ele>266.0</ele><time>2026-05-01T10:07:27.796Z</time></trkpt><trkpt lat="45.295705" lon="7.893025"><ele>266.0</ele><time>2026-05-01T10:07:28.796Z</time></trkpt><trkpt lat="45.295615" lon="7.8932017"><ele>266.0</ele><time>2026-05-01T10:07:29.795Z</time></trkpt><trkpt lat="45.2955167" lon="7.89338"><ele>266.0</ele><time>2026-05-01T10:07:30.796Z</time></trkpt><trkpt lat="45.2954217" lon="7.8935733"><ele>266.0</ele><time>2026-05-01T10:07:31.796Z</time></trkpt><trkpt lat="45.2953183" lon="7.8937567"><ele>266.0</ele><time>2026-05-01T10:07:32.796Z</time></trkpt><trkpt lat="45.2952183" lon="7.8939567"><ele>266.0</ele><time>2026-05-01T10:07:33.796Z</time></trkpt><trkpt lat="45.2951167" lon="7.89417"><ele>266.0</ele><time>2026-05-01T10:07:34.796Z</time></trkpt><trkpt lat="45.29502" lon="7.8943717"><ele>266.0</ele><time>2026-05-01T10:07:35.795Z</time></trkpt><trkpt lat="45.2949133" lon="7.8945767"><ele>266.33333333333337</ele><time>2026-05-01T10:07:36.796Z</time></trkpt><trkpt lat="45.294805" lon="7.8947867"><ele>266.6666666666667</ele><time>2026-05-01T10:07:37.796Z</time></trkpt><trkpt lat="45.2946983" lon="7.8949933"><ele>267.0</ele><time>2026-05-01T10:07:38.796Z</time></trkpt><trkpt lat="45.2945917" lon="7.8952183"><ele>266.3333333333333</ele><time>2026-05-01T10:07:39.795Z</time></trkpt><trkpt lat="45.294475" lon="7.895445"><ele>265.66666666666663</ele><time>2026-05-01T10:07:40.796Z</time></trkpt><trkpt lat="45.2943633" lon="7.895675"><ele>265.0</ele><time>2026-05-01T10:07:41.796Z</time></trkpt><trkpt lat="45.2942367" lon="7.8958817"><ele>265.0</ele><time>2026-05-01T10:07:42.796Z</time></trkpt><trkpt lat="45.2941" lon="7.896095"><ele>265.0</ele><time>2026-05-01T10:07:43.796Z</time></trkpt><trkpt lat="45.29397" lon="7.8962933"><ele>265.0</ele><time>2026-05-01T10:07:44.796Z</time></trkpt><trkpt lat="45.29384" lon="7.896465"><ele>265.0</ele><time>2026-05-01T10:07:45.796Z</time></trkpt><trkpt lat="45.2936967" lon="7.8966233"><ele>265.0</ele><time>2026-05-01T10:07:46.796Z</time></trkpt><trkpt lat="45.2935517" lon="7.8967683"><ele>265.0</ele><time>2026-05-01T10:07:47.795Z</time></trkpt><trkpt lat="45.2934217" lon="7.8969033"><ele>265.25</ele><time>2026-05-01T10:07:48.796Z</time></trkpt><trkpt lat="45.2933017" lon="7.89702"><ele>265.5</ele><time>2026-05-01T10:07:49.796Z</time></trkpt><trkpt lat="45.2931917" lon="7.897115"><ele>265.75</ele><time>2026-05-01T10:07:50.796Z</time></trkpt><trkpt lat="45.29309" lon="7.8971933"><ele>266.0</ele><time>2026-05-01T10:07:51.796Z</time></trkpt><trkpt lat="45.2929967" lon="7.89724"><ele>266.0</ele><time>2026-05-01T10:07:52.796Z</time></trkpt><trkpt lat="45.2929" lon="7.8972567"><ele>266.0</ele><time>2026-05-01T10:07:53.795Z</time></trkpt><trkpt lat="45.2928" lon="7.8972483"><ele>266.0</ele><time>2026-05-01T10:07:54.796Z</time></trkpt><trkpt lat="45.2926933" lon="7.8972233"><ele>266.0</ele><time>2026-05-01T10:07:55.796Z</time></trkpt><trkpt lat="45.292595" lon="7.897235"><ele>266.0</ele><time>2026-05-01T10:07:56.796Z</time></trkpt><trkpt lat="45.2925083" lon="7.8972983"><ele>266.0</ele><time>2026-05-01T10:07:57.795Z</time></trkpt><trkpt lat="45.2924417" lon="7.89742"><ele>266.0</ele><time>2026-05-01T10:07:58.796Z</time></trkpt><trkpt lat="45.2923717" lon="7.8975733"><ele>266.0</ele><time>2026-05-01T10:07:59.796Z</time></trkpt><trkpt lat="45.2923117" lon="7.8977367"><ele>266.0</ele><time>2026-05-01T10:08:00.796Z</time></trkpt><trkpt lat="45.2922217" lon="7.8978733"><ele>264.6666666666667</ele><time>2026-05-01T10:08:01.796Z</time></trkpt><trkpt lat="45.2921033" lon="7.89799"><ele>263.3333333333333</ele><time>2026-05-01T10:08:02.796Z</time></trkpt><trkpt lat="45.2919617" lon="7.8981117"><ele>262.0</ele><time>2026-05-01T10:08:03.796Z</time></trkpt><trkpt lat="45.2918267" lon="7.8982267"><ele>262.0</ele><time>2026-05-01T10:08:04.796Z</time></trkpt><trkpt lat="45.2916733" lon="7.8983433"><ele>262.0</ele><time>2026-05-01T10:08:05.796Z</time></trkpt><trkpt lat="45.2915283" lon="7.89846"><ele>262.0</ele><time>2026-05-01T10:08:06.796Z</time></trkpt><trkpt lat="45.2913683" lon="7.8985817"><ele>263.0</ele><time>2026-05-01T10:08:07.796Z</time></trkpt><trkpt lat="45.2912067" lon="7.898715"><ele>264.0</ele><time>2026-05-01T10:08:08.796Z</time></trkpt><trkpt lat="45.2910467" lon="7.8988417"><ele>265.0</ele><time>2026-05-01T10:08:09.796Z</time></trkpt><trkpt lat="45.290885" lon="7.8989767"><ele>265.0</ele><time>2026-05-01T10:08:10.796Z</time></trkpt><trkpt lat="45.2907183" lon="7.89911"><ele>265.0</ele><time>2026-05-01T10:08:11.796Z</time></trkpt><trkpt lat="45.2905467" lon="7.8992417"><ele>265.0</ele><time>2026-05-01T10:08:12.796Z</time></trkpt><trkpt lat="45.2903733" lon="7.899385"><ele>263.66666666666663</ele><time>2026-05-01T10:08:13.796Z</time></trkpt><trkpt lat="45.2902" lon="7.8995283"><ele>262.3333333333333</ele><time>2026-05-01T10:08:14.796Z</time></trkpt><trkpt lat="45.2900267" lon="7.8996683"><ele>261.0</ele><time>2026-05-01T10:08:15.796Z</time></trkpt><trkpt lat="45.2898483" lon="7.8998183"><ele>260.6666666666667</ele><time>2026-05-01T10:08:16.796Z</time></trkpt><trkpt lat="45.2896717" lon="7.8999683"><ele>260.33333333333337</ele><time>2026-05-01T10:08:17.796Z</time></trkpt><trkpt lat="45.2894917" lon="7.9001233"><ele>260.0</ele><time>2026-05-01T10:08:18.795Z</time></trkpt><trkpt lat="45.2893133" lon="7.9002717"><ele>260.0</ele><time>2026-05-01T10:08:19.796Z</time></trkpt><trkpt lat="45.2891333" lon="7.900425"><ele>260.0</ele><time>2026-05-01T10:08:20.795Z</time></trkpt><trkpt lat="45.2889567" lon="7.9005733"><ele>260.0</ele><time>2026-05-01T10:08:21.796Z</time></trkpt><trkpt lat="45.2887767" lon="7.9007167"><ele>260.0</ele><time>2026-05-01T10:08:22.796Z</time></trkpt><trkpt lat="45.28859" lon="7.900855"><ele>260.0</ele><time>2026-05-01T10:08:23.796Z</time></trkpt><trkpt lat="45.2884033" lon="7.9009833"><ele>260.0</ele><time>2026-05-01T10:08:24.796Z</time></trkpt><trkpt lat="45.28821" lon="7.9011117"><ele>259.33333333333337</ele><time>2026-05-01T10:08:25.796Z</time></trkpt><trkpt lat="45.288025" lon="7.90122"><ele>258.6666666666667</ele><time>2026-05-01T10:08:26.796Z</time></trkpt><trkpt lat="45.287835" lon="7.9013167"><ele>258.0</ele><time>2026-05-01T10:08:27.796Z</time></trkpt><trkpt lat="45.287635" lon="7.9013917"><ele>258.0</ele><time>2026-05-01T10:08:28.796Z</time></trkpt><trkpt lat="45.2874317" lon="7.901455"><ele>258.0</ele><time>2026-05-01T10:08:29.796Z</time></trkpt><trkpt lat="45.2872317" lon="7.90151"><ele>258.0</ele><time>2026-05-01T10:08:30.796Z</time></trkpt><trkpt lat="45.2870233" lon="7.9015517"><ele>257.6666666666667</ele><time>2026-05-01T10:08:31.796Z</time></trkpt><trkpt lat="45.2868217" lon="7.9015817"><ele>257.33333333333337</ele><time>2026-05-01T10:08:32.796Z</time></trkpt><trkpt lat="45.286615" lon="7.9016067"><ele>257.0</ele><time>2026-05-01T10:08:33.796Z</time></trkpt><trkpt lat="45.28641" lon="7.901625"><ele>256.33333333333337</ele><time>2026-05-01T10:08:34.796Z</time></trkpt><trkpt lat="45.286205" lon="7.9016333"><ele>255.66666666666669</ele><time>2026-05-01T10:08:35.796Z</time></trkpt><trkpt lat="45.2859967" lon="7.9016383"><ele>255.0</ele><time>2026-05-01T10:08:36.796Z</time></trkpt><trkpt lat="45.28579" lon="7.901655"><ele>255.0</ele><time>2026-05-01T10:08:37.796Z</time></trkpt><trkpt lat="45.2855883" lon="7.9016667"><ele>255.0</ele><time>2026-05-01T10:08:38.796Z</time></trkpt><trkpt lat="45.2853883" lon="7.9016717"><ele>255.0</ele><time>2026-05-01T10:08:39.796Z</time></trkpt><trkpt lat="45.2851767" lon="7.9016833"><ele>255.0</ele><time>2026-05-01T10:08:40.796Z</time></trkpt><trkpt lat="45.2849767" lon="7.901695"><ele>255.0</ele><time>2026-05-01T10:08:41.796Z</time></trkpt><trkpt lat="45.2847717" lon="7.9017067"><ele>255.0</ele><time>2026-05-01T10:08:42.796Z</time></trkpt><trkpt lat="45.2845767" lon="7.901715"><ele>255.0</ele><time>2026-05-01T10:08:43.796Z</time></trkpt><trkpt lat="45.2843633" lon="7.9017233"><ele>255.0</ele><time>2026-05-01T10:08:44.796Z</time></trkpt><trkpt lat="45.2841533" lon="7.90173"><ele>255.0</ele><time>2026-05-01T10:08:45.796Z</time></trkpt><trkpt lat="45.2839483" lon="7.9017317"><ele>254.66666666666669</ele><time>2026-05-01T10:08:46.796Z</time></trkpt><trkpt lat="45.28374" lon="7.901745"><ele>254.33333333333334</ele><time>2026-05-01T10:08:47.796Z</time></trkpt><trkpt lat="45.2835333" lon="7.9017633"><ele>254.0</ele><time>2026-05-01T10:08:48.795Z</time></trkpt><trkpt lat="45.2833167" lon="7.901775"><ele>254.0</ele><time>2026-05-01T10:08:49.796Z</time></trkpt><trkpt lat="45.2831" lon="7.9017833"><ele>254.0</ele><time>2026-05-01T10:08:50.796Z</time></trkpt><trkpt lat="45.2828883" lon="7.9017983"><ele>254.0</ele><time>2026-05-01T10:08:51.796Z</time></trkpt><trkpt lat="45.2826717" lon="7.9018117"><ele>253.33333333333334</ele><time>2026-05-01T10:08:52.796Z</time></trkpt><trkpt lat="45.2824667" lon="7.901815"><ele>252.66666666666669</ele><time>2026-05-01T10:08:53.796Z</time></trkpt><trkpt lat="45.282255" lon="7.90183"><ele>252.0</ele><time>2026-05-01T10:08:54.796Z</time></trkpt><trkpt lat="45.282045" lon="7.90185"><ele>252.0</ele><time>2026-05-01T10:08:55.796Z</time></trkpt><trkpt lat="45.2818333" lon="7.9018567"><ele>252.0</ele><time>2026-05-01T10:08:56.796Z</time></trkpt><trkpt lat="45.28162" lon="7.9018667"><ele>252.0</ele><time>2026-05-01T10:08:57.795Z</time></trkpt><trkpt lat="45.281405" lon="7.901875"><ele>251.33333333333331</ele><time>2026-05-01T10:08:58.795Z</time></trkpt><trkpt lat="45.2812033" lon="7.90188"><ele>250.66666666666666</ele><time>2026-05-01T10:08:59.796Z</time></trkpt><trkpt lat="45.28099" lon="7.9018783"><ele>250.0</ele><time>2026-05-01T10:09:00.796Z</time></trkpt><trkpt lat="45.28078" lon="7.90187"><ele>250.0</ele><time>2026-05-01T10:09:01.795Z</time></trkpt><trkpt lat="45.2805733" lon="7.90184"><ele>250.0</ele><time>2026-05-01T10:09:02.796Z</time></trkpt><trkpt lat="45.2803667" lon="7.901805"><ele>250.0</ele><time>2026-05-01T10:09:03.796Z</time></trkpt><trkpt lat="45.280155" lon="7.901745"><ele>250.0</ele><time>2026-05-01T10:09:04.796Z</time></trkpt><trkpt lat="45.2799433" lon="7.901665"><ele>250.0</ele><time>2026-05-01T10:09:05.795Z</time></trkpt><trkpt lat="45.27974" lon="7.9015583"><ele>250.0</ele><time>2026-05-01T10:09:06.796Z</time></trkpt><trkpt lat="45.2795367" lon="7.901435"><ele>249.0</ele><time>2026-05-01T10:09:07.796Z</time></trkpt><trkpt lat="45.2793367" lon="7.9013"><ele>248.0</ele><time>2026-05-01T10:09:08.796Z</time></trkpt><trkpt lat="45.27914" lon="7.9011517"><ele>247.0</ele><time>2026-05-01T10:09:09.796Z</time></trkpt><trkpt lat="45.2789617" lon="7.9009833"><ele>247.33333333333331</ele><time>2026-05-01T10:09:10.796Z</time></trkpt><trkpt lat="45.27878" lon="7.9007983"><ele>247.66666666666669</ele><time>2026-05-01T10:09:11.796Z</time></trkpt><trkpt lat="45.2786067" lon="7.9006067"><ele>248.0</ele><time>2026-05-01T10:09:12.796Z</time></trkpt><trkpt lat="45.2784483" lon="7.9003883"><ele>248.0</ele><time>2026-05-01T10:09:13.796Z</time></trkpt><trkpt lat="45.2782983" lon="7.900165"><ele>248.0</ele><time>2026-05-01T10:09:14.796Z</time></trkpt><trkpt lat="45.27815" lon="7.8999317"><ele>248.0</ele><time>2026-05-01T10:09:15.796Z</time></trkpt><trkpt lat="45.2780083" lon="7.8996967"><ele>247.0</ele><time>2026-05-01T10:09:16.796Z</time></trkpt><trkpt lat="45.2778667" lon="7.8994617"><ele>246.0</ele><time>2026-05-01T10:09:17.796Z</time></trkpt><trkpt lat="45.2777267" lon="7.8992167"><ele>245.0</ele><time>2026-05-01T10:09:18.796Z</time></trkpt><trkpt lat="45.27758" lon="7.8989767"><ele>245.0</ele><time>2026-05-01T10:09:19.796Z</time></trkpt><trkpt lat="45.2774383" lon="7.8987333"><ele>245.0</ele><time>2026-05-01T10:09:20.796Z</time></trkpt><trkpt lat="45.2772917" lon="7.8984917"><ele>245.0</ele><time>2026-05-01T10:09:21.796Z</time></trkpt><trkpt lat="45.2771483" lon="7.8982433"><ele>245.0</ele><time>2026-05-01T10:09:22.796Z</time></trkpt><trkpt lat="45.2770067" lon="7.8980083"><ele>245.0</ele><time>2026-05-01T10:09:23.796Z</time></trkpt><trkpt lat="45.276855" lon="7.8977733"><ele>245.0</ele><time>2026-05-01T10:09:24.796Z</time></trkpt><trkpt lat="45.27671" lon="7.8975233"><ele>245.0</ele><time>2026-05-01T10:09:25.796Z</time></trkpt><trkpt lat="45.276565" lon="7.8972817"><ele>245.0</ele><time>2026-05-01T10:09:26.796Z</time></trkpt><trkpt lat="45.2764167" lon="7.89705"><ele>245.0</ele><time>2026-05-01T10:09:27.796Z</time></trkpt><trkpt lat="45.2762717" lon="7.8968117"><ele>245.0</ele><time>2026-05-01T10:09:28.796Z</time></trkpt><trkpt lat="45.2761283" lon="7.8965767"><ele>245.0</ele><time>2026-05-01T10:09:29.796Z</time></trkpt><trkpt lat="45.2759967" lon="7.8963467"><ele>245.0</ele><time>2026-05-01T10:09:30.796Z</time></trkpt><trkpt lat="45.2758633" lon="7.896115"><ele>245.33333333333334</ele><time>2026-05-01T10:09:31.796Z</time></trkpt><trkpt lat="45.2757183" lon="7.895885"><ele>245.66666666666669</ele><time>2026-05-01T10:09:32.796Z</time></trkpt><trkpt lat="45.2755767" lon="7.89566"><ele>246.0</ele><time>2026-05-01T10:09:33.796Z</time></trkpt><trkpt lat="45.2754383" lon="7.8954283"><ele>245.33333333333331</ele><time>2026-05-01T10:09:34.796Z</time></trkpt><trkpt lat="45.2753083" lon="7.8951967"><ele>244.66666666666666</ele><time>2026-05-01T10:09:35.796Z</time></trkpt><trkpt lat="45.2751717" lon="7.894965"><ele>244.0</ele><time>2026-05-01T10:09:36.796Z</time></trkpt><trkpt lat="45.275035" lon="7.8947317"><ele>244.0</ele><time>2026-05-01T10:09:37.796Z</time></trkpt><trkpt lat="45.2749033" lon="7.894505"><ele>244.0</ele><time>2026-05-01T10:09:38.796Z</time></trkpt><trkpt lat="45.2747733" lon="7.894275"><ele>244.0</ele><time>2026-05-01T10:09:39.796Z</time></trkpt><trkpt lat="45.2746417" lon="7.89405"><ele>244.0</ele><time>2026-05-01T10:09:40.796Z</time></trkpt><trkpt lat="45.2745083" lon="7.8938333"><ele>244.0</ele><time>2026-05-01T10:09:41.796Z</time></trkpt><trkpt lat="45.2743733" lon="7.89363"><ele>244.0</ele><time>2026-05-01T10:09:42.796Z</time></trkpt><trkpt lat="45.2742483" lon="7.8934317"><ele>243.66666666666666</ele><time>2026-05-01T10:09:43.796Z</time></trkpt><trkpt lat="45.2741333" lon="7.89325"><ele>243.33333333333331</ele><time>2026-05-01T10:09:44.796Z</time></trkpt><trkpt lat="45.2740467" lon="7.89308"><ele>243.0</ele><time>2026-05-01T10:09:45.796Z</time></trkpt><trkpt lat="45.2739767" lon="7.8929167"><ele>242.8</ele><time>2026-05-01T10:09:46.796Z</time></trkpt><trkpt lat="45.273935" lon="7.8927767"><ele>242.60000000000002</ele><time>2026-05-01T10:09:47.795Z</time></trkpt><trkpt lat="45.273925" lon="7.8926633"><ele>242.39999999999998</ele><time>2026-05-01T10:09:48.796Z</time></trkpt><trkpt lat="45.2740067" lon="7.8925317"><ele>242.2</ele><time>2026-05-01T10:09:50.796Z</time></trkpt><trkpt lat="45.2740983" lon="7.892495"><ele>242.0</ele><time>2026-05-01T10:09:51.796Z</time></trkpt><trkpt lat="45.274235" lon="7.8924883"><ele>242.0</ele><time>2026-05-01T10:09:52.796Z</time></trkpt><trkpt lat="45.274395" lon="7.8925167"><ele>242.0</ele><time>2026-05-01T10:09:53.796Z</time></trkpt><trkpt lat="45.2745333" lon="7.8925383"><ele>242.0</ele><time>2026-05-01T10:09:54.796Z</time></trkpt><trkpt lat="45.27463" lon="7.892575"><ele>242.0</ele><time>2026-05-01T10:09:55.796Z</time></trkpt><trkpt lat="45.274695" lon="7.8926333"><ele>242.25</ele><time>2026-05-01T10:09:56.796Z</time></trkpt><trkpt lat="45.2747417" lon="7.8927467"><ele>242.5</ele><time>2026-05-01T10:09:57.796Z</time></trkpt><trkpt lat="45.2747667" lon="7.8929"><ele>242.75</ele><time>2026-05-01T10:09:58.796Z</time></trkpt><trkpt lat="45.2747567" lon="7.8931083"><ele>243.0</ele><time>2026-05-01T10:09:59.796Z</time></trkpt><trkpt lat="45.2747333" lon="7.8933517"><ele>243.25</ele><time>2026-05-01T10:10:00.796Z</time></trkpt><trkpt lat="45.2747167" lon="7.8935767"><ele>243.5</ele><time>2026-05-01T10:10:01.796Z</time></trkpt><trkpt lat="45.2747117" lon="7.8937733"><ele>243.75</ele><time>2026-05-01T10:10:02.796Z</time></trkpt><trkpt lat="45.2747267" lon="7.8939417"><ele>244.0</ele><time>2026-05-01T10:10:03.796Z</time></trkpt><trkpt lat="45.2747733" lon="7.8940833"><ele>244.0</ele><time>2026-05-01T10:10:04.796Z</time></trkpt><trkpt lat="45.2748483" lon="7.89424"><ele>244.0</ele><time>2026-05-01T10:10:05.796Z</time></trkpt><trkpt lat="45.274935" lon="7.8944083"><ele>244.0</ele><time>2026-05-01T10:10:06.796Z</time></trkpt><trkpt lat="45.2750367" lon="7.8945783"><ele>244.0</ele><time>2026-05-01T10:10:07.796Z</time></trkpt><trkpt lat="45.27514" lon="7.8947533"><ele>244.0</ele><time>2026-05-01T10:10:08.796Z</time></trkpt><trkpt lat="45.275245" lon="7.8949317"><ele>244.0</ele><time>2026-05-01T10:10:09.796Z</time></trkpt><trkpt lat="45.2753633" lon="7.8951217"><ele>244.0</ele><time>2026-05-01T10:10:10.796Z</time></trkpt><trkpt lat="45.2754917" lon="7.8953183"><ele>244.33333333333331</ele><time>2026-05-01T10:10:11.796Z</time></trkpt><trkpt lat="45.27562" lon="7.8955167"><ele>244.66666666666669</ele><time>2026-05-01T10:10:12.795Z</time></trkpt><trkpt lat="45.275745" lon="7.8957317"><ele>245.0</ele><time>2026-05-01T10:10:13.796Z</time></trkpt><trkpt lat="45.2758683" lon="7.8959417"><ele>245.0</ele><time>2026-05-01T10:10:14.796Z</time></trkpt><trkpt lat="45.2759933" lon="7.8961517"><ele>245.0</ele><time>2026-05-01T10:10:15.796Z</time></trkpt><trkpt lat="45.276125" lon="7.8963683"><ele>245.0</ele><time>2026-05-01T10:10:16.796Z</time></trkpt><trkpt lat="45.27625" lon="7.89659"><ele>245.0</ele><time>2026-05-01T10:10:17.796Z</time></trkpt><trkpt lat="45.27638" lon="7.8968133"><ele>245.0</ele><time>2026-05-01T10:10:18.796Z</time></trkpt><trkpt lat="45.2765133" lon="7.897045"><ele>245.0</ele><time>2026-05-01T10:10:19.796Z</time></trkpt><trkpt lat="45.27666" lon="7.8972633"><ele>245.0</ele><time>2026-05-01T10:10:20.796Z</time></trkpt><trkpt lat="45.2767933" lon="7.89748"><ele>245.0</ele><time>2026-05-01T10:10:21.796Z</time></trkpt><trkpt lat="45.2769217" lon="7.8976983"><ele>245.0</ele><time>2026-05-01T10:10:22.796Z</time></trkpt><trkpt lat="45.2770483" lon="7.8979017"><ele>245.0</ele><time>2026-05-01T10:10:23.796Z</time></trkpt><trkpt lat="45.2771783" lon="7.8980967"><ele>245.0</ele><time>2026-05-01T10:10:24.796Z</time></trkpt><trkpt lat="45.277315" lon="7.8982867"><ele>245.0</ele><time>2026-05-01T10:10:25.796Z</time></trkpt><trkpt lat="45.2774417" lon="7.8984867"><ele>245.0</ele><time>2026-05-01T10:10:26.796Z</time></trkpt><trkpt lat="45.2775517" lon="7.8987"><ele>245.0</ele><time>2026-05-01T10:10:27.796Z</time></trkpt><trkpt lat="45.277665" lon="7.8989217"><ele>245.0</ele><time>2026-05-01T10:10:28.796Z</time></trkpt><trkpt lat="45.2777783" lon="7.8991433"><ele>245.0</ele><time>2026-05-01T10:10:29.796Z</time></trkpt><trkpt lat="45.2778983" lon="7.89935"><ele>245.0</ele><time>2026-05-01T10:10:30.796Z</time></trkpt><trkpt lat="45.2780083" lon="7.8995283"><ele>245.0</ele><time>2026-05-01T10:10:31.796Z</time></trkpt><trkpt lat="45.2781" lon="7.8996983"><ele>245.6</ele><time>2026-05-01T10:10:32.796Z</time></trkpt><trkpt lat="45.27818" lon="7.89984"><ele>246.2</ele><time>2026-05-01T10:10:33.796Z</time></trkpt><trkpt lat="45.27825" lon="7.8999533"><ele>246.8</ele><time>2026-05-01T10:10:34.796Z</time></trkpt><trkpt lat="45.2783117" lon="7.9000267"><ele>247.4</ele><time>2026-05-01T10:10:35.796Z</time></trkpt><trkpt lat="45.2783717" lon="7.9000733"><ele>248.0</ele><time>2026-05-01T10:10:36.796Z</time></trkpt><trkpt lat="45.27845" lon="7.9000917"><ele>248.0</ele><time>2026-05-01T10:10:37.796Z</time></trkpt><trkpt lat="45.2785367" lon="7.9000717"><ele>248.0</ele><time>2026-05-01T10:10:38.795Z</time></trkpt><trkpt lat="45.2786517" lon="7.9000367"><ele>248.0</ele><time>2026-05-01T10:10:39.796Z</time></trkpt><trkpt lat="45.27878" lon="7.9000083"><ele>248.0</ele><time>2026-05-01T10:10:40.796Z</time></trkpt><trkpt lat="45.2789" lon="7.8999967"><ele>248.5</ele><time>2026-05-01T10:10:41.796Z</time></trkpt><trkpt lat="45.2790183" lon="7.89999"><ele>249.0</ele><time>2026-05-01T10:10:42.796Z</time></trkpt><trkpt lat="45.2791433" lon="7.8999883"><ele>249.5</ele><time>2026-05-01T10:10:43.796Z</time></trkpt><trkpt lat="45.2792683" lon="7.8999833"><ele>250.0</ele><time>2026-05-01T10:10:44.796Z</time></trkpt><trkpt lat="45.279395" lon="7.8999717"><ele>250.0</ele><time>2026-05-01T10:10:45.796Z</time></trkpt><trkpt lat="45.279525" lon="7.8999617"><ele>250.0</ele><time>2026-05-01T10:10:46.796Z</time></trkpt><trkpt lat="45.279655" lon="7.899945"><ele>250.0</ele><time>2026-05-01T10:10:47.796Z</time></trkpt><trkpt lat="45.2797983" lon="7.8999517"><ele>250.0</ele><time>2026-05-01T10:10:48.796Z</time></trkpt><trkpt lat="45.2799433" lon="7.8999583"><ele>250.0</ele><time>2026-05-01T10:10:49.796Z</time></trkpt><trkpt lat="45.2800867" lon="7.89996"><ele>250.0</ele><time>2026-05-01T10:10:50.796Z</time></trkpt><trkpt lat="45.2802367" lon="7.8999533"><ele>250.0</ele><time>2026-05-01T10:10:51.796Z</time></trkpt><trkpt lat="45.280385" lon="7.8999433"><ele>250.0</ele><time>2026-05-01T10:10:52.796Z</time></trkpt><trkpt lat="45.28054" lon="7.8999317"><ele>249.75</ele><time>2026-05-01T10:10:53.796Z</time></trkpt><trkpt lat="45.2806967" lon="7.8999267"><ele>249.5</ele><time>2026-05-01T10:10:54.796Z</time></trkpt><trkpt lat="45.2808417" lon="7.899925"><ele>249.25</ele><time>2026-05-01T10:10:55.796Z</time></trkpt><trkpt lat="45.2809833" lon="7.89991"><ele>249.0</ele><time>2026-05-01T10:10:56.796Z</time></trkpt><trkpt lat="45.2811167" lon="7.8999033"><ele>249.0</ele><time>2026-05-01T10:10:57.796Z</time></trkpt><trkpt lat="45.28125" lon="7.899895"><ele>249.0</ele><time>2026-05-01T10:10:58.796Z</time></trkpt><trkpt lat="45.2813833" lon="7.8998867"><ele>249.0</ele><time>2026-05-01T10:10:59.796Z</time></trkpt><trkpt lat="45.2815067" lon="7.8998817"><ele>249.0</ele><time>2026-05-01T10:11:00.796Z</time></trkpt><trkpt lat="45.2816183" lon="7.8998733"><ele>249.75</ele><time>2026-05-01T10:11:01.796Z</time></trkpt><trkpt lat="45.2817317" lon="7.8998783"><ele>250.5</ele><time>2026-05-01T10:11:02.796Z</time></trkpt><trkpt lat="45.2818533" lon="7.8998783"><ele>251.25</ele><time>2026-05-01T10:11:03.796Z</time></trkpt><trkpt lat="45.2819717" lon="7.899875"><ele>252.0</ele><time>2026-05-01T10:11:04.796Z</time></trkpt><trkpt lat="45.2820883" lon="7.899875"><ele>252.0</ele><time>2026-05-01T10:11:05.796Z</time></trkpt><trkpt lat="45.2822067" lon="7.8998733"><ele>252.0</ele><time>2026-05-01T10:11:06.796Z</time></trkpt><trkpt lat="45.2823417" lon="7.8998767"><ele>252.0</ele><time>2026-05-01T10:11:07.796Z</time></trkpt><trkpt lat="45.2824767" lon="7.899865"><ele>252.0</ele><time>2026-05-01T10:11:08.796Z</time></trkpt><trkpt lat="45.2826033" lon="7.899855"><ele>252.0</ele><time>2026-05-01T10:11:09.796Z</time></trkpt><trkpt lat="45.28273" lon="7.8998417"><ele>252.0</ele><time>2026-05-01T10:11:10.796Z</time></trkpt><trkpt lat="45.28286" lon="7.8998267"><ele>252.0</ele><time>2026-05-01T10:11:11.796Z</time></trkpt><trkpt lat="45.2829933" lon="7.899805"><ele>252.0</ele><time>2026-05-01T10:11:12.796Z</time></trkpt><trkpt lat="45.28313" lon="7.8997917"><ele>252.0</ele><time>2026-05-01T10:11:13.795Z</time></trkpt><trkpt lat="45.28326" lon="7.89977"><ele>252.0</ele><time>2026-05-01T10:11:14.796Z</time></trkpt><trkpt lat="45.28339" lon="7.8997517"><ele>252.0</ele><time>2026-05-01T10:11:15.796Z</time></trkpt><trkpt lat="45.28352" lon="7.8997317"><ele>252.0</ele><time>2026-05-01T10:11:16.796Z</time></trkpt><trkpt lat="45.2836617" lon="7.8997217"><ele>252.0</ele><time>2026-05-01T10:11:17.796Z</time></trkpt><trkpt lat="45.2837917" lon="7.8997083"><ele>252.0</ele><time>2026-05-01T10:11:18.796Z</time></trkpt><trkpt lat="45.28392" lon="7.8996983"><ele>252.0</ele><time>2026-05-01T10:11:19.796Z</time></trkpt><trkpt lat="45.2840367" lon="7.8996933"><ele>252.0</ele><time>2026-05-01T10:11:20.796Z</time></trkpt><trkpt lat="45.28416" lon="7.8996983"><ele>252.75</ele><time>2026-05-01T10:11:21.796Z</time></trkpt><trkpt lat="45.2842833" lon="7.899705"><ele>253.5</ele><time>2026-05-01T10:11:22.796Z</time></trkpt><trkpt lat="45.2844117" lon="7.8997183"><ele>254.25</ele><time>2026-05-01T10:11:23.796Z</time></trkpt><trkpt lat="45.28454" lon="7.89973"><ele>255.0</ele><time>2026-05-01T10:11:24.796Z</time></trkpt><trkpt lat="45.28466" lon="7.89974"><ele>255.0</ele><time>2026-05-01T10:11:25.796Z</time></trkpt><trkpt lat="45.2847683" lon="7.899745"><ele>255.0</ele><time>2026-05-01T10:11:26.796Z</time></trkpt><trkpt lat="45.2848683" lon="7.899745"><ele>255.0</ele><time>2026-05-01T10:11:27.796Z</time></trkpt><trkpt lat="45.2849517" lon="7.8997417"><ele>255.0</ele><time>2026-05-01T10:11:28.796Z</time></trkpt><trkpt lat="45.2850183" lon="7.89974"><ele>255.0</ele><time>2026-05-01T10:11:29.796Z</time></trkpt><trkpt lat="45.2850917" lon="7.8997617"><ele>255.0</ele><time>2026-05-01T10:11:31.796Z</time></trkpt><trkpt lat="45.285095" lon="7.89992"><ele>255.0</ele><time>2026-05-01T10:11:34.796Z</time></trkpt><trkpt lat="45.285085" lon="7.900015"><ele>255.0</ele><time>2026-05-01T10:11:35.796Z</time></trkpt><trkpt lat="45.285075" lon="7.9001333"><ele>255.0</ele><time>2026-05-01T10:11:36.796Z</time></trkpt><trkpt lat="45.2850683" lon="7.900255"><ele>255.0</ele><time>2026-05-01T10:11:37.795Z</time></trkpt><trkpt lat="45.2850567" lon="7.9003917"><ele>255.0</ele><time>2026-05-01T10:11:38.796Z</time></trkpt><trkpt lat="45.2850467" lon="7.9005317"><ele>255.0</ele><time>2026-05-01T10:11:39.796Z</time></trkpt><trkpt lat="45.285035" lon="7.9006867"><ele>255.0</ele><time>2026-05-01T10:11:40.796Z</time></trkpt><trkpt lat="45.2850267" lon="7.9008383"><ele>255.0</ele><time>2026-05-01T10:11:41.796Z</time></trkpt><trkpt lat="45.2850133" lon="7.9009867"><ele>255.0</ele><time>2026-05-01T10:11:42.796Z</time></trkpt><trkpt lat="45.285" lon="7.901145"><ele>255.0</ele><time>2026-05-01T10:11:43.796Z</time></trkpt><trkpt lat="45.2849817" lon="7.90131"><ele>255.0</ele><time>2026-05-01T10:11:44.796Z</time></trkpt><trkpt lat="45.284975" lon="7.901485"><ele>255.0</ele><time>2026-05-01T10:11:45.796Z</time></trkpt><trkpt lat="45.2849633" lon="7.90167"><ele>255.0</ele><time>2026-05-01T10:11:46.796Z</time></trkpt><trkpt lat="45.2849417" lon="7.9026083"><ele>255.0</ele><time>2026-05-01T10:11:51.301Z</time></trkpt><trkpt lat="45.2848617" lon="7.9029367"><ele>255.0</ele><time>2026-05-01T10:11:53.301Z</time></trkpt><trkpt lat="45.28483" lon="7.9032367"><ele>255.0</ele><time>2026-05-01T10:11:54.801Z</time></trkpt><trkpt lat="45.2848167" lon="7.9034217"><ele>255.0</ele><time>2026-05-01T10:11:55.801Z</time></trkpt><trkpt lat="45.284805" lon="7.9036317"><ele>255.0</ele><time>2026-05-01T10:11:56.801Z</time></trkpt><trkpt lat="45.2847917" lon="7.9038333"><ele>255.0</ele><time>2026-05-01T10:11:57.801Z</time></trkpt><trkpt lat="45.28478" lon="7.9040333"><ele>255.0</ele><time>2026-05-01T10:11:58.801Z</time></trkpt><trkpt lat="45.2847767" lon="7.9042383"><ele>255.0</ele><time>2026-05-01T10:11:59.801Z</time></trkpt><trkpt lat="45.2847617" lon="7.9044433"><ele>255.0</ele><time>2026-05-01T10:12:00.8Z</time></trkpt><trkpt lat="45.2847467" lon="7.9046517"><ele>255.0</ele><time>2026-05-01T10:12:01.8Z</time></trkpt><trkpt lat="45.284725" lon="7.90485"><ele>254.75</ele><time>2026-05-01T10:12:02.801Z</time></trkpt><trkpt lat="45.2847183" lon="7.90506"><ele>254.5</ele><time>2026-05-01T10:12:03.801Z</time></trkpt><trkpt lat="45.2847117" lon="7.9052667"><ele>254.25</ele><time>2026-05-01T10:12:04.801Z</time></trkpt><trkpt lat="45.28471" lon="7.905475"><ele>254.0</ele><time>2026-05-01T10:12:05.801Z</time></trkpt><trkpt lat="45.2847167" lon="7.9056817"><ele>254.0</ele><time>2026-05-01T10:12:06.801Z</time></trkpt><trkpt lat="45.2847133" lon="7.90589"><ele>254.0</ele><time>2026-05-01T10:12:07.801Z</time></trkpt><trkpt lat="45.28472" lon="7.9061067"><ele>254.0</ele><time>2026-05-01T10:12:08.801Z</time></trkpt><trkpt lat="45.2847283" lon="7.9063117"><ele>254.0</ele><time>2026-05-01T10:12:09.801Z</time></trkpt><trkpt lat="45.2847367" lon="7.9065067"><ele>253.75</ele><time>2026-05-01T10:12:10.801Z</time></trkpt><trkpt lat="45.2847583" lon="7.90669"><ele>253.5</ele><time>2026-05-01T10:12:11.801Z</time></trkpt><trkpt lat="45.284775" lon="7.9068567"><ele>253.25</ele><time>2026-05-01T10:12:12.801Z</time></trkpt><trkpt lat="45.28479" lon="7.9070033"><ele>253.0</ele><time>2026-05-01T10:12:13.801Z</time></trkpt><trkpt lat="45.2848083" lon="7.90715"><ele>252.99999999999997</ele><time>2026-05-01T10:12:14.801Z</time></trkpt><trkpt lat="45.2848183" lon="7.9072833"><ele>253.0</ele><time>2026-05-01T10:12:15.8Z</time></trkpt><trkpt lat="45.284825" lon="7.9073883"><ele>253.0</ele><time>2026-05-01T10:12:16.801Z</time></trkpt><trkpt lat="45.2848233" lon="7.9074833"><ele>253.0</ele><time>2026-05-01T10:12:17.801Z</time></trkpt><trkpt lat="45.284775" lon="7.9075883"><ele>252.99999999999997</ele><time>2026-05-01T10:12:19.801Z</time></trkpt><trkpt lat="45.2847083" lon="7.9076033"><ele>253.0</ele><time>2026-05-01T10:12:20.801Z</time></trkpt><trkpt lat="45.28461" lon="7.907605"><ele>253.0</ele><time>2026-05-01T10:12:21.801Z</time></trkpt><trkpt lat="45.2844917" lon="7.9076217"><ele>253.0</ele><time>2026-05-01T10:12:22.801Z</time></trkpt><trkpt lat="45.2843717" lon="7.9076417"><ele>253.0</ele><time>2026-05-01T10:12:23.801Z</time></trkpt><trkpt lat="45.2842417" lon="7.9076667"><ele>253.0</ele><time>2026-05-01T10:12:24.801Z</time></trkpt><trkpt lat="45.2841083" lon="7.90769"><ele>253.0</ele><time>2026-05-01T10:12:25.801Z</time></trkpt><trkpt lat="45.2839717" lon="7.907715"><ele>253.0</ele><time>2026-05-01T10:12:26.801Z</time></trkpt><trkpt lat="45.2838383" lon="7.90773"><ele>253.0</ele><time>2026-05-01T10:12:27.801Z</time></trkpt><trkpt lat="45.28372" lon="7.90775"><ele>253.0</ele><time>2026-05-01T10:12:28.801Z</time></trkpt><trkpt lat="45.283615" lon="7.9077683"><ele>252.83333333333331</ele><time>2026-05-01T10:12:29.801Z</time></trkpt><trkpt lat="45.2835167" lon="7.907775"><ele>252.66666666666666</ele><time>2026-05-01T10:12:30.8Z</time></trkpt><trkpt lat="45.283435" lon="7.9077917"><ele>252.5</ele><time>2026-05-01T10:12:31.801Z</time></trkpt><trkpt lat="45.28336" lon="7.9078267"><ele>252.33333333333331</ele><time>2026-05-01T10:12:32.801Z</time></trkpt><trkpt lat="45.2832983" lon="7.9078917"><ele>252.16666666666666</ele><time>2026-05-01T10:12:33.801Z</time></trkpt><trkpt lat="45.2832417" lon="7.907985"><ele>252.0</ele><time>2026-05-01T10:12:34.801Z</time></trkpt><trkpt lat="45.2831883" lon="7.90813"><ele>252.0</ele><time>2026-05-01T10:12:35.801Z</time></trkpt><trkpt lat="45.283135" lon="7.9083117"><ele>252.0</ele><time>2026-05-01T10:12:36.801Z</time></trkpt><trkpt lat="45.2830683" lon="7.9085167"><ele>252.0</ele><time>2026-05-01T10:12:37.801Z</time></trkpt><trkpt lat="45.2829967" lon="7.90872"><ele>252.0</ele><time>2026-05-01T10:12:38.801Z</time></trkpt><trkpt lat="45.28292" lon="7.9089233"><ele>252.0</ele><time>2026-05-01T10:12:39.801Z</time></trkpt><trkpt lat="45.2828317" lon="7.909125"><ele>252.0</ele><time>2026-05-01T10:12:40.801Z</time></trkpt><trkpt lat="45.282745" lon="7.9093167"><ele>252.0</ele><time>2026-05-01T10:12:41.801Z</time></trkpt><trkpt lat="45.2826433" lon="7.909505"><ele>252.0</ele><time>2026-05-01T10:12:42.801Z</time></trkpt><trkpt lat="45.2825233" lon="7.909685"><ele>252.0</ele><time>2026-05-01T10:12:43.801Z</time></trkpt><trkpt lat="45.28241" lon="7.9098567"><ele>252.0</ele><time>2026-05-01T10:12:44.801Z</time></trkpt><trkpt lat="45.2823" lon="7.9100167"><ele>252.0</ele><time>2026-05-01T10:12:45.801Z</time></trkpt><trkpt lat="45.2821867" lon="7.9101717"><ele>252.0</ele><time>2026-05-01T10:12:46.801Z</time></trkpt><trkpt lat="45.2820767" lon="7.9103267"><ele>252.0</ele><time>2026-05-01T10:12:47.801Z</time></trkpt><trkpt lat="45.28198" lon="7.9105033"><ele>252.0</ele><time>2026-05-01T10:12:48.801Z</time></trkpt><trkpt lat="45.2818817" lon="7.9106967"><ele>252.0</ele><time>2026-05-01T10:12:49.801Z</time></trkpt><trkpt lat="45.28178" lon="7.910905"><ele>252.33333333333331</ele><time>2026-05-01T10:12:50.801Z</time></trkpt><trkpt lat="45.2816783" lon="7.9111133"><ele>252.66666666666666</ele><time>2026-05-01T10:12:51.801Z</time></trkpt><trkpt lat="45.2815667" lon="7.9113217"><ele>253.0</ele><time>2026-05-01T10:12:52.801Z</time></trkpt><trkpt lat="45.2814583" lon="7.9115267"><ele>252.0</ele><time>2026-05-01T10:12:53.801Z</time></trkpt><trkpt lat="45.2813433" lon="7.9117433"><ele>251.0</ele><time>2026-05-01T10:12:54.801Z</time></trkpt><trkpt lat="45.281225" lon="7.9119683"><ele>250.0</ele><time>2026-05-01T10:12:55.8Z</time></trkpt><trkpt lat="45.2811117" lon="7.9121983"><ele>250.0</ele><time>2026-05-01T10:12:56.801Z</time></trkpt><trkpt lat="45.2809967" lon="7.9124267"><ele>250.0</ele><time>2026-05-01T10:12:57.801Z</time></trkpt><trkpt lat="45.280885" lon="7.912645"><ele>250.0</ele><time>2026-05-01T10:12:58.801Z</time></trkpt><trkpt lat="45.2807817" lon="7.912845"><ele>249.33333333333331</ele><time>2026-05-01T10:12:59.801Z</time></trkpt><trkpt lat="45.28068" lon="7.9130317"><ele>248.66666666666669</ele><time>2026-05-01T10:13:00.801Z</time></trkpt><trkpt lat="45.2805733" lon="7.9132167"><ele>248.0</ele><time>2026-05-01T10:13:01.801Z</time></trkpt><trkpt lat="45.280455" lon="7.9133967"><ele>247.5</ele><time>2026-05-01T10:13:02.801Z</time></trkpt><trkpt lat="45.28033" lon="7.9135517"><ele>247.0</ele><time>2026-05-01T10:13:03.801Z</time></trkpt><trkpt lat="45.280225" lon="7.913695"><ele>246.5</ele><time>2026-05-01T10:13:04.801Z</time></trkpt><trkpt lat="45.28013" lon="7.913825"><ele>246.0</ele><time>2026-05-01T10:13:05.801Z</time></trkpt><trkpt lat="45.2800383" lon="7.91393"><ele>246.0</ele><time>2026-05-01T10:13:06.801Z</time></trkpt><trkpt lat="45.279945" lon="7.91401"><ele>246.0</ele><time>2026-05-01T10:13:07.801Z</time></trkpt><trkpt lat="45.2798417" lon="7.9140417"><ele>246.0</ele><time>2026-05-01T10:13:08.801Z</time></trkpt><trkpt lat="45.2797117" lon="7.914045"><ele>246.0</ele><time>2026-05-01T10:13:09.801Z</time></trkpt><trkpt lat="45.279575" lon="7.9140517"><ele>245.75</ele><time>2026-05-01T10:13:10.801Z</time></trkpt><trkpt lat="45.27944" lon="7.9140483"><ele>245.5</ele><time>2026-05-01T10:13:11.801Z</time></trkpt><trkpt lat="45.2793067" lon="7.9140483"><ele>245.25</ele><time>2026-05-01T10:13:12.801Z</time></trkpt><trkpt lat="45.279195" lon="7.91404"><ele>245.0</ele><time>2026-05-01T10:13:13.801Z</time></trkpt><trkpt lat="45.2791067" lon="7.914045"><ele>245.0</ele><time>2026-05-01T10:13:14.801Z</time></trkpt><trkpt lat="45.2790367" lon="7.9140683"><ele>245.0</ele><time>2026-05-01T10:13:15.801Z</time></trkpt><trkpt lat="45.2789533" lon="7.9141717"><ele>245.0</ele><time>2026-05-01T10:13:17.801Z</time></trkpt><trkpt lat="45.278935" lon="7.9142783"><ele>245.0</ele><time>2026-05-01T10:13:18.801Z</time></trkpt><trkpt lat="45.2789167" lon="7.9144217"><ele>245.0</ele><time>2026-05-01T10:13:19.801Z</time></trkpt><trkpt lat="45.2789017" lon="7.9146"><ele>245.0</ele><time>2026-05-01T10:13:20.801Z</time></trkpt><trkpt lat="45.2788733" lon="7.9148233"><ele>245.0</ele><time>2026-05-01T10:13:21.801Z</time></trkpt><trkpt lat="45.2788467" lon="7.9150383"><ele>245.0</ele><time>2026-05-01T10:13:22.8Z</time></trkpt><trkpt lat="45.27882" lon="7.9152267"><ele>245.0</ele><time>2026-05-01T10:13:23.801Z</time></trkpt><trkpt lat="45.278795" lon="7.9154033"><ele>245.00000000000003</ele><time>2026-05-01T10:13:24.801Z</time></trkpt><trkpt lat="45.2787783" lon="7.915555"><ele>245.0</ele><time>2026-05-01T10:13:25.801Z</time></trkpt><trkpt lat="45.27876" lon="7.91568"><ele>245.0</ele><time>2026-05-01T10:13:26.801Z</time></trkpt><trkpt lat="45.27874" lon="7.9157817"><ele>245.0</ele><time>2026-05-01T10:13:27.801Z</time></trkpt><trkpt lat="45.2787267" lon="7.9158733"><ele>245.00000000000003</ele><time>2026-05-01T10:13:28.801Z</time></trkpt><trkpt lat="45.2787217" lon="7.916005"><ele>245.0</ele><time>2026-05-01T10:13:30.801Z</time></trkpt><trkpt lat="45.2787117" lon="7.9160967"><ele>245.16666666666669</ele><time>2026-05-01T10:13:33.801Z</time></trkpt><trkpt lat="45.2787017" lon="7.91619"><ele>245.33333333333334</ele><time>2026-05-01T10:13:36.801Z</time></trkpt><trkpt lat="45.2786817" lon="7.9163083"><ele>245.5</ele><time>2026-05-01T10:13:38.801Z</time></trkpt><trkpt lat="45.2786667" lon="7.9164033"><ele>245.66666666666669</ele><time>2026-05-01T10:13:39.801Z</time></trkpt><trkpt lat="45.2786533" lon="7.9165117"><ele>245.83333333333334</ele><time>2026-05-01T10:13:40.801Z</time></trkpt><trkpt lat="45.2786367" lon="7.9166267"><ele>246.0</ele><time>2026-05-01T10:13:41.801Z</time></trkpt><trkpt lat="45.278625" lon="7.9167333"><ele>246.0</ele><time>2026-05-01T10:13:42.801Z</time></trkpt><trkpt lat="45.278605" lon="7.9168317"><ele>246.0</ele><time>2026-05-01T10:13:43.801Z</time></trkpt><trkpt lat="45.2785883" lon="7.9169217"><ele>246.0</ele><time>2026-05-01T10:13:44.802Z</time></trkpt><trkpt lat="45.2785767" lon="7.9170633"><ele>246.0</ele><time>2026-05-01T10:13:46.802Z</time></trkpt><trkpt lat="45.2785567" lon="7.9171867"><ele>246.0</ele><time>2026-05-01T10:13:48.802Z</time></trkpt><trkpt lat="45.2784933" lon="7.9172367"><ele>246.0</ele><time>2026-05-01T10:13:50.802Z</time></trkpt><trkpt lat="45.2784183" lon="7.91724"><ele>246.0</ele><time>2026-05-01T10:13:51.802Z</time></trkpt><trkpt lat="45.2783467" lon="7.9172333"><ele>246.0</ele><time>2026-05-01T10:13:52.802Z</time></trkpt><trkpt lat="45.27827" lon="7.9172517"><ele>246.0</ele><time>2026-05-01T10:13:53.802Z</time></trkpt><trkpt lat="45.278185" lon="7.9172717"><ele>246.0</ele><time>2026-05-01T10:13:54.802Z</time></trkpt><trkpt lat="45.2780967" lon="7.91729"><ele>246.0</ele><time>2026-05-01T10:13:55.802Z</time></trkpt><trkpt lat="45.278005" lon="7.9173033"><ele>246.0</ele><time>2026-05-01T10:13:56.802Z</time></trkpt><trkpt lat="45.2779117" lon="7.9173133"><ele>245.4</ele><time>2026-05-01T10:13:57.802Z</time></trkpt><trkpt lat="45.2778167" lon="7.9173233"><ele>244.8</ele><time>2026-05-01T10:13:58.802Z</time></trkpt><trkpt lat="45.2777083" lon="7.91733"><ele>244.20000000000002</ele><time>2026-05-01T10:13:59.802Z</time></trkpt><trkpt lat="45.2776067" lon="7.9173467"><ele>243.60000000000002</ele><time>2026-05-01T10:14:00.802Z</time></trkpt><trkpt lat="45.2775117" lon="7.9173567"><ele>243.0</ele><time>2026-05-01T10:14:01.802Z</time></trkpt><trkpt lat="45.27743" lon="7.9173633"><ele>243.0</ele><time>2026-05-01T10:14:02.802Z</time></trkpt><trkpt lat="45.2773567" lon="7.9173767"><ele>243.0</ele><time>2026-05-01T10:14:03.802Z</time></trkpt><trkpt lat="45.27725" lon="7.91741"><ele>243.0</ele><time>2026-05-01T10:14:05.802Z</time></trkpt><trkpt lat="45.2771833" lon="7.9175217"><ele>243.0</ele><time>2026-05-01T10:14:07.802Z</time></trkpt><trkpt lat="45.27718" lon="7.9177117"><ele>243.0</ele><time>2026-05-01T10:14:09.802Z</time></trkpt><trkpt lat="45.2771917" lon="7.91784"><ele>242.8</ele><time>2026-05-01T10:14:10.802Z</time></trkpt><trkpt lat="45.27721" lon="7.91799"><ele>242.60000000000002</ele><time>2026-05-01T10:14:11.802Z</time></trkpt><trkpt lat="45.27723" lon="7.91815"><ele>242.39999999999998</ele><time>2026-05-01T10:14:12.802Z</time></trkpt><trkpt lat="45.2772467" lon="7.9183067"><ele>242.2</ele><time>2026-05-01T10:14:13.802Z</time></trkpt><trkpt lat="45.2772633" lon="7.91847"><ele>242.0</ele><time>2026-05-01T10:14:14.802Z</time></trkpt><trkpt lat="45.2772833" lon="7.91864"><ele>242.0</ele><time>2026-05-01T10:14:15.801Z</time></trkpt><trkpt lat="45.2773017" lon="7.9188117"><ele>242.0</ele><time>2026-05-01T10:14:16.802Z</time></trkpt><trkpt lat="45.2773183" lon="7.9189983"><ele>242.0</ele><time>2026-05-01T10:14:17.801Z</time></trkpt><trkpt lat="45.27734" lon="7.919195"><ele>242.0</ele><time>2026-05-01T10:14:18.801Z</time></trkpt><trkpt lat="45.27735" lon="7.9193833"><ele>242.0</ele><time>2026-05-01T10:14:19.802Z</time></trkpt><trkpt lat="45.277365" lon="7.9195883"><ele>242.0</ele><time>2026-05-01T10:14:20.801Z</time></trkpt><trkpt lat="45.2773867" lon="7.9197983"><ele>242.0</ele><time>2026-05-01T10:14:21.802Z</time></trkpt><trkpt lat="45.277405" lon="7.92001"><ele>242.0</ele><time>2026-05-01T10:14:22.802Z</time></trkpt><trkpt lat="45.2774233" lon="7.92023"><ele>241.33333333333334</ele><time>2026-05-01T10:14:23.802Z</time></trkpt><trkpt lat="45.2774433" lon="7.92045"><ele>240.66666666666669</ele><time>2026-05-01T10:14:24.802Z</time></trkpt><trkpt lat="45.2774717" lon="7.9206683"><ele>240.0</ele><time>2026-05-01T10:14:25.802Z</time></trkpt><trkpt lat="45.2775017" lon="7.9208933"><ele>239.8</ele><time>2026-05-01T10:14:26.802Z</time></trkpt><trkpt lat="45.27753" lon="7.92109"><ele>239.6</ele><time>2026-05-01T10:14:27.802Z</time></trkpt><trkpt lat="45.277555" lon="7.9212583"><ele>239.39999999999998</ele><time>2026-05-01T10:14:28.802Z</time></trkpt><trkpt lat="45.27757" lon="7.9214033"><ele>239.2</ele><time>2026-05-01T10:14:29.802Z</time></trkpt><trkpt lat="45.27759" lon="7.9215083"><ele>239.0</ele><time>2026-05-01T10:14:30.802Z</time></trkpt><trkpt lat="45.2776367" lon="7.9216033"><ele>239.0</ele><time>2026-05-01T10:14:32.802Z</time></trkpt><trkpt lat="45.277755" lon="7.921595"><ele>238.99999999999997</ele><time>2026-05-01T10:14:34.802Z</time></trkpt><trkpt lat="45.2778583" lon="7.9215583"><ele>238.99999999999997</ele><time>2026-05-01T10:14:35.802Z</time></trkpt><trkpt lat="45.2779667" lon="7.9215083"><ele>239.0</ele><time>2026-05-01T10:14:36.802Z</time></trkpt><trkpt lat="45.2780667" lon="7.9214783"><ele>239.0</ele><time>2026-05-01T10:14:37.802Z</time></trkpt><trkpt lat="45.2781383" lon="7.9214633"><ele>239.2</ele><time>2026-05-01T10:14:38.802Z</time></trkpt><trkpt lat="45.2782067" lon="7.9214733"><ele>239.39999999999998</ele><time>2026-05-01T10:14:39.802Z</time></trkpt><trkpt lat="45.278305" lon="7.9215717"><ele>239.6</ele><time>2026-05-01T10:14:41.802Z</time></trkpt><trkpt lat="45.2783367" lon="7.9216917"><ele>239.8</ele><time>2026-05-01T10:14:42.802Z</time></trkpt><trkpt lat="45.278355" lon="7.9218667"><ele>240.0</ele><time>2026-05-01T10:14:43.802Z</time></trkpt><trkpt lat="45.2783667" lon="7.9221117"><ele>240.33333333333331</ele><time>2026-05-01T10:14:44.802Z</time></trkpt><trkpt lat="45.2783733" lon="7.9224"><ele>240.66666666666666</ele><time>2026-05-01T10:14:45.802Z</time></trkpt><trkpt lat="45.2783867" lon="7.922685"><ele>241.0</ele><time>2026-05-01T10:14:46.802Z</time></trkpt><trkpt lat="45.2784133" lon="7.9229317"><ele>241.0</ele><time>2026-05-01T10:14:47.802Z</time></trkpt><trkpt lat="45.2784283" lon="7.9231183"><ele>241.00000000000003</ele><time>2026-05-01T10:14:48.802Z</time></trkpt><trkpt lat="45.2784383" lon="7.9232717"><ele>241.00000000000003</ele><time>2026-05-01T10:14:49.802Z</time></trkpt><trkpt lat="45.2784583" lon="7.9233583"><ele>241.0</ele><time>2026-05-01T10:14:50.802Z</time></trkpt><trkpt lat="45.2785217" lon="7.9234383"><ele>241.0</ele><time>2026-05-01T10:14:52.802Z</time></trkpt><trkpt lat="45.2786633" lon="7.92343"><ele>241.0</ele><time>2026-05-01T10:14:54.802Z</time></trkpt><trkpt lat="45.2787733" lon="7.9234067"><ele>241.0</ele><time>2026-05-01T10:14:55.802Z</time></trkpt><trkpt lat="45.2789217" lon="7.9233683"><ele>241.0</ele><time>2026-05-01T10:14:56.802Z</time></trkpt><trkpt lat="45.27909" lon="7.9233283"><ele>241.0</ele><time>2026-05-01T10:14:57.802Z</time></trkpt><trkpt lat="45.2792667" lon="7.9233033"><ele>241.33333333333331</ele><time>2026-05-01T10:14:58.802Z</time></trkpt><trkpt lat="45.2794567" lon="7.9232733"><ele>241.66666666666669</ele><time>2026-05-01T10:14:59.802Z</time></trkpt><trkpt lat="45.2796533" lon="7.9232383"><ele>242.0</ele><time>2026-05-01T10:15:00.802Z</time></trkpt><trkpt lat="45.2798483" lon="7.923205"><ele>242.66666666666669</ele><time>2026-05-01T10:15:01.802Z</time></trkpt><trkpt lat="45.2800283" lon="7.9231767"><ele>243.33333333333331</ele><time>2026-05-01T10:15:02.802Z</time></trkpt><trkpt lat="45.2802017" lon="7.923145"><ele>244.0</ele><time>2026-05-01T10:15:03.802Z</time></trkpt><trkpt lat="45.2803767" lon="7.9231117"><ele>244.0</ele><time>2026-05-01T10:15:04.802Z</time></trkpt><trkpt lat="45.2805733" lon="7.923095"><ele>244.0</ele><time>2026-05-01T10:15:05.802Z</time></trkpt><trkpt lat="45.2807667" lon="7.9230867"><ele>244.0</ele><time>2026-05-01T10:15:06.802Z</time></trkpt><trkpt lat="45.2809533" lon="7.923085"><ele>244.0</ele><time>2026-05-01T10:15:07.802Z</time></trkpt><trkpt lat="45.2811217" lon="7.9230983"><ele>244.0</ele><time>2026-05-01T10:15:08.802Z</time></trkpt><trkpt lat="45.28129" lon="7.9231133"><ele>244.0</ele><time>2026-05-01T10:15:09.802Z</time></trkpt><trkpt lat="45.2814483" lon="7.9231417"><ele>244.0</ele><time>2026-05-01T10:15:10.802Z</time></trkpt><trkpt lat="45.2815983" lon="7.9231817"><ele>244.0</ele><time>2026-05-01T10:15:11.802Z</time></trkpt><trkpt lat="45.2817433" lon="7.923245"><ele>244.0</ele><time>2026-05-01T10:15:12.802Z</time></trkpt><trkpt lat="45.281885" lon="7.92332"><ele>244.0</ele><time>2026-05-01T10:15:13.802Z</time></trkpt><trkpt lat="45.2819967" lon="7.9233983"><ele>244.0</ele><time>2026-05-01T10:15:14.801Z</time></trkpt><trkpt lat="45.2821017" lon="7.9234983"><ele>244.0</ele><time>2026-05-01T10:15:15.802Z</time></trkpt><trkpt lat="45.2822" lon="7.9236283"><ele>244.0</ele><time>2026-05-01T10:15:16.802Z</time></trkpt><trkpt lat="45.2823167" lon="7.9237867"><ele>244.25</ele><time>2026-05-01T10:15:17.802Z</time></trkpt><trkpt lat="45.282425" lon="7.923945"><ele>244.5</ele><time>2026-05-01T10:15:18.802Z</time></trkpt><trkpt lat="45.282535" lon="7.9240783"><ele>244.75</ele><time>2026-05-01T10:15:19.801Z</time></trkpt><trkpt lat="45.282635" lon="7.9241933"><ele>245.0</ele><time>2026-05-01T10:15:20.802Z</time></trkpt><trkpt lat="45.28274" lon="7.9242933"><ele>245.0</ele><time>2026-05-01T10:15:21.802Z</time></trkpt><trkpt lat="45.2828417" lon="7.92438"><ele>245.0</ele><time>2026-05-01T10:15:22.801Z</time></trkpt><trkpt lat="45.282965" lon="7.9244583"><ele>245.0</ele><time>2026-05-01T10:15:23.802Z</time></trkpt><trkpt lat="45.2831183" lon="7.9245183"><ele>245.0</ele><time>2026-05-01T10:15:24.802Z</time></trkpt><trkpt lat="45.2832867" lon="7.92458"><ele>245.0</ele><time>2026-05-01T10:15:25.802Z</time></trkpt><trkpt lat="45.2834567" lon="7.9246383"><ele>245.0</ele><time>2026-05-01T10:15:26.802Z</time></trkpt><trkpt lat="45.283635" lon="7.9246817"><ele>245.0</ele><time>2026-05-01T10:15:27.801Z</time></trkpt><trkpt lat="45.2838167" lon="7.9247"><ele>245.66666666666669</ele><time>2026-05-01T10:15:28.802Z</time></trkpt><trkpt lat="45.283985" lon="7.924725"><ele>246.33333333333331</ele><time>2026-05-01T10:15:29.802Z</time></trkpt><trkpt lat="45.28416" lon="7.924735"><ele>247.0</ele><time>2026-05-01T10:15:30.802Z</time></trkpt><trkpt lat="45.28436" lon="7.9247467"><ele>247.0</ele><time>2026-05-01T10:15:31.801Z</time></trkpt><trkpt lat="45.2845717" lon="7.9247717"><ele>247.0</ele><time>2026-05-01T10:15:32.802Z</time></trkpt><trkpt lat="45.2848" lon="7.9248067"><ele>247.0</ele><time>2026-05-01T10:15:33.802Z</time></trkpt><trkpt lat="45.2850183" lon="7.924845"><ele>247.66666666666666</ele><time>2026-05-01T10:15:34.802Z</time></trkpt><trkpt lat="45.28522" lon="7.92489"><ele>248.33333333333331</ele><time>2026-05-01T10:15:35.802Z</time></trkpt><trkpt lat="45.2853917" lon="7.9249333"><ele>249.0</ele><time>2026-05-01T10:15:36.802Z</time></trkpt><trkpt lat="45.2855467" lon="7.92494"><ele>248.66666666666669</ele><time>2026-05-01T10:15:37.802Z</time></trkpt><trkpt lat="45.2857167" lon="7.9249133"><ele>248.33333333333334</ele><time>2026-05-01T10:15:38.802Z</time></trkpt><trkpt lat="45.28588" lon="7.92487"><ele>248.0</ele><time>2026-05-01T10:15:39.802Z</time></trkpt><trkpt lat="45.2860333" lon="7.924825"><ele>248.0</ele><time>2026-05-01T10:15:40.802Z</time></trkpt><trkpt lat="45.2861667" lon="7.9247883"><ele>248.0</ele><time>2026-05-01T10:15:41.802Z</time></trkpt><trkpt lat="45.2862683" lon="7.9247633"><ele>248.0</ele><time>2026-05-01T10:15:42.802Z</time></trkpt><trkpt lat="45.28634" lon="7.9247467"><ele>248.0</ele><time>2026-05-01T10:15:43.802Z</time></trkpt><trkpt lat="45.286415" lon="7.9247367"><ele>248.0</ele><time>2026-05-01T10:16:05.802Z</time></trkpt><trkpt lat="45.2864533" lon="7.9248217"><ele>248.0</ele><time>2026-05-01T10:16:07.802Z</time></trkpt><trkpt lat="45.2864833" lon="7.9249967"><ele>248.0</ele><time>2026-05-01T10:16:09.802Z</time></trkpt><trkpt lat="45.2865033" lon="7.925095"><ele>248.0</ele><time>2026-05-01T10:16:10.802Z</time></trkpt><trkpt lat="45.2865333" lon="7.9252083"><ele>248.0</ele><time>2026-05-01T10:16:11.802Z</time></trkpt><trkpt lat="45.286565" lon="7.9253383"><ele>248.0</ele><time>2026-05-01T10:16:12.802Z</time></trkpt><trkpt lat="45.286605" lon="7.9254767"><ele>248.25</ele><time>2026-05-01T10:16:13.802Z</time></trkpt><trkpt lat="45.2866517" lon="7.925635"><ele>248.5</ele><time>2026-05-01T10:16:14.802Z</time></trkpt><trkpt lat="45.2866917" lon="7.9257883"><ele>248.75</ele><time>2026-05-01T10:16:15.802Z</time></trkpt><trkpt lat="45.2867383" lon="7.9259467"><ele>249.0</ele><time>2026-05-01T10:16:16.802Z</time></trkpt><trkpt lat="45.2867917" lon="7.9261133"><ele>249.0</ele><time>2026-05-01T10:16:17.802Z</time></trkpt><trkpt lat="45.2868317" lon="7.9262933"><ele>249.0</ele><time>2026-05-01T10:16:18.802Z</time></trkpt><trkpt lat="45.286875" lon="7.9264783"><ele>249.0</ele><time>2026-05-01T10:16:19.802Z</time></trkpt><trkpt lat="45.286925" lon="7.92666"><ele>249.0</ele><time>2026-05-01T10:16:20.802Z</time></trkpt><trkpt lat="45.2869667" lon="7.926835"><ele>248.75</ele><time>2026-05-01T10:16:21.802Z</time></trkpt><trkpt lat="45.287005" lon="7.9270083"><ele>248.5</ele><time>2026-05-01T10:16:22.802Z</time></trkpt><trkpt lat="45.2870417" lon="7.9271867"><ele>248.25</ele><time>2026-05-01T10:16:23.802Z</time></trkpt><trkpt lat="45.28708" lon="7.927365"><ele>248.0</ele><time>2026-05-01T10:16:24.802Z</time></trkpt><trkpt lat="45.2871233" lon="7.9275567"><ele>248.0</ele><time>2026-05-01T10:16:25.802Z</time></trkpt><trkpt lat="45.28717" lon="7.927745"><ele>248.0</ele><time>2026-05-01T10:16:26.802Z</time></trkpt><trkpt lat="45.2872117" lon="7.9279283"><ele>248.0</ele><time>2026-05-01T10:16:27.802Z</time></trkpt><trkpt lat="45.287255" lon="7.928115"><ele>248.0</ele><time>2026-05-01T10:16:28.802Z</time></trkpt><trkpt lat="45.287305" lon="7.9282967"><ele>248.0</ele><time>2026-05-01T10:16:29.802Z</time></trkpt><trkpt lat="45.2873467" lon="7.928485"><ele>248.0</ele><time>2026-05-01T10:16:30.802Z</time></trkpt><trkpt lat="45.2873833" lon="7.9286667"><ele>248.0</ele><time>2026-05-01T10:16:31.802Z</time></trkpt><trkpt lat="45.287425" lon="7.9288467"><ele>248.0</ele><time>2026-05-01T10:16:32.802Z</time></trkpt><trkpt lat="45.2874667" lon="7.92903"><ele>248.0</ele><time>2026-05-01T10:16:33.802Z</time></trkpt><trkpt lat="45.2875117" lon="7.929215"><ele>248.0</ele><time>2026-05-01T10:16:34.802Z</time></trkpt><trkpt lat="45.2875517" lon="7.92939"><ele>248.0</ele><time>2026-05-01T10:16:35.802Z</time></trkpt><trkpt lat="45.2875883" lon="7.9295367"><ele>248.0</ele><time>2026-05-01T10:16:36.802Z</time></trkpt><trkpt lat="45.2876217" lon="7.9296683"><ele>248.16666666666669</ele><time>2026-05-01T10:16:37.802Z</time></trkpt><trkpt lat="45.287645" lon="7.929775"><ele>248.33333333333334</ele><time>2026-05-01T10:16:38.802Z</time></trkpt><trkpt lat="45.2876333" lon="7.929915"><ele>248.5</ele><time>2026-05-01T10:16:40.802Z</time></trkpt><trkpt lat="45.2875733" lon="7.9299433"><ele>248.66666666666669</ele><time>2026-05-01T10:16:41.802Z</time></trkpt><trkpt lat="45.287495" lon="7.9299633"><ele>248.83333333333334</ele><time>2026-05-01T10:16:42.802Z</time></trkpt><trkpt lat="45.287425" lon="7.929995"><ele>249.0</ele><time>2026-05-01T10:16:43.802Z</time></trkpt><trkpt lat="45.2873667" lon="7.9300367"><ele>249.0</ele><time>2026-05-01T10:16:44.802Z</time></trkpt><trkpt lat="45.2873233" lon="7.9301983"><ele>248.99999999999997</ele><time>2026-05-01T10:16:46.802Z</time></trkpt><trkpt lat="45.2873317" lon="7.9303183"><ele>248.99999999999997</ele><time>2026-05-01T10:16:47.801Z</time></trkpt><trkpt lat="45.28735" lon="7.9304633"><ele>249.0</ele><time>2026-05-01T10:16:48.802Z</time></trkpt><trkpt lat="45.2873633" lon="7.9306133"><ele>249.0</ele><time>2026-05-01T10:16:49.802Z</time></trkpt><trkpt lat="45.287365" lon="7.930755"><ele>249.0</ele><time>2026-05-01T10:16:50.802Z</time></trkpt><trkpt lat="45.2873717" lon="7.9309033"><ele>248.99999999999997</ele><time>2026-05-01T10:16:51.802Z</time></trkpt><trkpt lat="45.287375" lon="7.9310533"><ele>248.99999999999997</ele><time>2026-05-01T10:16:52.802Z</time></trkpt><trkpt lat="45.287375" lon="7.9311933"><ele>249.0</ele><time>2026-05-01T10:16:53.802Z</time></trkpt><trkpt lat="45.287375" lon="7.9313517"><ele>249.0</ele><time>2026-05-01T10:16:54.802Z</time></trkpt><trkpt lat="45.28738" lon="7.9315167"><ele>249.0</ele><time>2026-05-01T10:16:55.802Z</time></trkpt><trkpt lat="45.2873833" lon="7.931675"><ele>248.99999999999997</ele><time>2026-05-01T10:16:56.802Z</time></trkpt><trkpt lat="45.2873783" lon="7.931825"><ele>248.99999999999997</ele><time>2026-05-01T10:16:57.802Z</time></trkpt><trkpt lat="45.2873767" lon="7.93197"><ele>249.0</ele><time>2026-05-01T10:16:58.802Z</time></trkpt><trkpt lat="45.287375" lon="7.9321067"><ele>249.0</ele><time>2026-05-01T10:16:59.802Z</time></trkpt><trkpt lat="45.2873817" lon="7.9322467"><ele>249.16666666666666</ele><time>2026-05-01T10:17:00.802Z</time></trkpt><trkpt lat="45.2873917" lon="7.9323933"><ele>249.33333333333331</ele><time>2026-05-01T10:17:01.802Z</time></trkpt><trkpt lat="45.287395" lon="7.9325217"><ele>249.5</ele><time>2026-05-01T10:17:02.801Z</time></trkpt><trkpt lat="45.2873883" lon="7.9326383"><ele>249.66666666666666</ele><time>2026-05-01T10:17:03.802Z</time></trkpt><trkpt lat="45.2873817" lon="7.932745"><ele>249.83333333333331</ele><time>2026-05-01T10:17:04.802Z</time></trkpt><trkpt lat="45.28738" lon="7.9328483"><ele>250.0</ele><time>2026-05-01T10:17:05.802Z</time></trkpt><trkpt lat="45.2873817" lon="7.9329633"><ele>250.0</ele><time>2026-05-01T10:17:06.802Z</time></trkpt><trkpt lat="45.28739" lon="7.93309"><ele>250.0</ele><time>2026-05-01T10:17:07.802Z</time></trkpt><trkpt lat="45.2873967" lon="7.9332217"><ele>250.0</ele><time>2026-05-01T10:17:08.802Z</time></trkpt><trkpt lat="45.2873917" lon="7.9333783"><ele>250.0</ele><time>2026-05-01T10:17:09.802Z</time></trkpt><trkpt lat="45.2873933" lon="7.9335367"><ele>250.0</ele><time>2026-05-01T10:17:10.802Z</time></trkpt><trkpt lat="45.2873917" lon="7.933705"><ele>250.0</ele><time>2026-05-01T10:17:11.802Z</time></trkpt><trkpt lat="45.2873967" lon="7.93389"><ele>250.0</ele><time>2026-05-01T10:17:12.802Z</time></trkpt><trkpt lat="45.2874017" lon="7.93408"><ele>250.0</ele><time>2026-05-01T10:17:13.802Z</time></trkpt><trkpt lat="45.2873967" lon="7.9342583"><ele>250.0</ele><time>2026-05-01T10:17:14.802Z</time></trkpt><trkpt lat="45.2873933" lon="7.934445"><ele>250.0</ele><time>2026-05-01T10:17:15.802Z</time></trkpt><trkpt lat="45.287395" lon="7.9346183"><ele>250.0</ele><time>2026-05-01T10:17:16.802Z</time></trkpt><trkpt lat="45.2874117" lon="7.9347883"><ele>250.0</ele><time>2026-05-01T10:17:17.802Z</time></trkpt><trkpt lat="45.287425" lon="7.934955"><ele>250.0</ele><time>2026-05-01T10:17:18.802Z</time></trkpt><trkpt lat="45.2874317" lon="7.935125"><ele>250.0</ele><time>2026-05-01T10:17:19.8Z</time></trkpt><trkpt lat="45.2874333" lon="7.9353017"><ele>250.0</ele><time>2026-05-01T10:17:20.801Z</time></trkpt><trkpt lat="45.2874333" lon="7.9354717"><ele>250.0</ele><time>2026-05-01T10:17:21.801Z</time></trkpt><trkpt lat="45.2874367" lon="7.93563"><ele>250.0</ele><time>2026-05-01T10:17:22.801Z</time></trkpt><trkpt lat="45.2874433" lon="7.9357833"><ele>249.8</ele><time>2026-05-01T10:17:23.801Z</time></trkpt><trkpt lat="45.2874417" lon="7.935935"><ele>249.6</ele><time>2026-05-01T10:17:24.801Z</time></trkpt><trkpt lat="45.2874367" lon="7.9360817"><ele>249.39999999999998</ele><time>2026-05-01T10:17:25.801Z</time></trkpt><trkpt lat="45.2874567" lon="7.9362217"><ele>249.2</ele><time>2026-05-01T10:17:26.801Z</time></trkpt><trkpt lat="45.2874683" lon="7.9363583"><ele>249.0</ele><time>2026-05-01T10:17:27.801Z</time></trkpt><trkpt lat="45.2874717" lon="7.9364833"><ele>249.0</ele><time>2026-05-01T10:17:28.801Z</time></trkpt><trkpt lat="45.2874717" lon="7.9366033"><ele>248.99999999999997</ele><time>2026-05-01T10:17:29.801Z</time></trkpt><trkpt lat="45.28748" lon="7.9367033"><ele>249.0</ele><time>2026-05-01T10:17:30.801Z</time></trkpt><trkpt lat="45.2874883" lon="7.9367967"><ele>249.0</ele><time>2026-05-01T10:17:31.801Z</time></trkpt><trkpt lat="45.28751" lon="7.9368833"><ele>248.99999999999997</ele><time>2026-05-01T10:17:32.8Z</time></trkpt><trkpt lat="45.2875317" lon="7.9369833"><ele>249.0</ele><time>2026-05-01T10:17:33.801Z</time></trkpt><trkpt lat="45.2875583" lon="7.937085"><ele>249.0</ele><time>2026-05-01T10:17:34.801Z</time></trkpt><trkpt lat="45.287575" lon="7.9371917"><ele>249.33333333333334</ele><time>2026-05-01T10:17:35.801Z</time></trkpt><trkpt lat="45.28758" lon="7.9372983"><ele>249.66666666666669</ele><time>2026-05-01T10:17:36.8Z</time></trkpt><trkpt lat="45.2875783" lon="7.937405"><ele>250.0</ele><time>2026-05-01T10:17:37.8Z</time></trkpt><trkpt lat="45.2875633" lon="7.937515"><ele>250.33333333333334</ele><time>2026-05-01T10:17:38.801Z</time></trkpt><trkpt lat="45.2875433" lon="7.9376183"><ele>250.66666666666669</ele><time>2026-05-01T10:17:39.801Z</time></trkpt><trkpt lat="45.2875017" lon="7.9376967"><ele>251.0</ele><time>2026-05-01T10:17:40.801Z</time></trkpt><trkpt lat="45.2874317" lon="7.9377567"><ele>251.20000000000002</ele><time>2026-05-01T10:17:42.801Z</time></trkpt><trkpt lat="45.2874867" lon="7.9378333"><ele>251.40000000000003</ele><time>2026-05-01T10:17:49.801Z</time></trkpt><trkpt lat="45.2875967" lon="7.9378717"><ele>251.6</ele><time>2026-05-01T10:17:51.801Z</time></trkpt><trkpt lat="45.2876833" lon="7.9379"><ele>251.8</ele><time>2026-05-01T10:17:52.801Z</time></trkpt><trkpt lat="45.2877683" lon="7.9379417"><ele>252.0</ele><time>2026-05-01T10:17:53.801Z</time></trkpt><trkpt lat="45.2878667" lon="7.9379983"><ele>252.0</ele><time>2026-05-01T10:17:54.801Z</time></trkpt><trkpt lat="45.2879633" lon="7.9380583"><ele>252.0</ele><time>2026-05-01T10:17:55.801Z</time></trkpt><trkpt lat="45.2880517" lon="7.9381233"><ele>252.0</ele><time>2026-05-01T10:17:56.801Z</time></trkpt><trkpt lat="45.2881483" lon="7.9381917"><ele>252.0</ele><time>2026-05-01T10:17:57.801Z</time></trkpt><trkpt lat="45.2882417" lon="7.938265"><ele>252.0</ele><time>2026-05-01T10:17:58.801Z</time></trkpt><trkpt lat="45.28834" lon="7.9383367"><ele>252.25</ele><time>2026-05-01T10:17:59.801Z</time></trkpt><trkpt lat="45.2884383" lon="7.9384133"><ele>252.5</ele><time>2026-05-01T10:18:00.801Z</time></trkpt><trkpt lat="45.28854" lon="7.9384917"><ele>252.75</ele><time>2026-05-01T10:18:01.801Z</time></trkpt><trkpt lat="45.2886467" lon="7.93857"><ele>253.0</ele><time>2026-05-01T10:18:02.801Z</time></trkpt><trkpt lat="45.288745" lon="7.9386467"><ele>253.0</ele><time>2026-05-01T10:18:03.801Z</time></trkpt><trkpt lat="45.2888483" lon="7.9387267"><ele>253.0</ele><time>2026-05-01T10:18:04.801Z</time></trkpt><trkpt lat="45.2889483" lon="7.9388133"><ele>253.0</ele><time>2026-05-01T10:18:05.801Z</time></trkpt><trkpt lat="45.2890567" lon="7.93889"><ele>253.0</ele><time>2026-05-01T10:18:06.801Z</time></trkpt><trkpt lat="45.28918" lon="7.9389467"><ele>253.0</ele><time>2026-05-01T10:18:07.801Z</time></trkpt><trkpt lat="45.2892967" lon="7.9389633"><ele>253.0</ele><time>2026-05-01T10:18:08.801Z</time></trkpt><trkpt lat="45.2894183" lon="7.9389617"><ele>253.0</ele><time>2026-05-01T10:18:09.801Z</time></trkpt><trkpt lat="45.2895633" lon="7.938915"><ele>253.0</ele><time>2026-05-01T10:18:10.801Z</time></trkpt><trkpt lat="45.2896933" lon="7.93887"><ele>253.5</ele><time>2026-05-01T10:18:11.801Z</time></trkpt><trkpt lat="45.2898233" lon="7.93883"><ele>254.0</ele><time>2026-05-01T10:18:12.801Z</time></trkpt><trkpt lat="45.28996" lon="7.9387867"><ele>254.5</ele><time>2026-05-01T10:18:13.801Z</time></trkpt><trkpt lat="45.2901017" lon="7.9387383"><ele>255.0</ele><time>2026-05-01T10:18:14.801Z</time></trkpt><trkpt lat="45.29024" lon="7.938695"><ele>255.0</ele><time>2026-05-01T10:18:15.8Z</time></trkpt><trkpt lat="45.2903833" lon="7.9386483"><ele>255.0</ele><time>2026-05-01T10:18:16.801Z</time></trkpt><trkpt lat="45.2905183" lon="7.9385933"><ele>255.0</ele><time>2026-05-01T10:18:17.801Z</time></trkpt><trkpt lat="45.2906517" lon="7.9385417"><ele>255.0</ele><time>2026-05-01T10:18:18.801Z</time></trkpt><trkpt lat="45.290795" lon="7.9384733"><ele>255.0</ele><time>2026-05-01T10:18:19.801Z</time></trkpt><trkpt lat="45.2909383" lon="7.938415"><ele>255.0</ele><time>2026-05-01T10:18:20.801Z</time></trkpt><trkpt lat="45.2910833" lon="7.9383783"><ele>255.0</ele><time>2026-05-01T10:18:21.801Z</time></trkpt><trkpt lat="45.291245" lon="7.9383617"><ele>255.0</ele><time>2026-05-01T10:18:22.801Z</time></trkpt><trkpt lat="45.291405" lon="7.938355"><ele>255.0</ele><time>2026-05-01T10:18:23.801Z</time></trkpt><trkpt lat="45.291565" lon="7.938355"><ele>255.0</ele><time>2026-05-01T10:18:24.801Z</time></trkpt><trkpt lat="45.2917317" lon="7.9383317"><ele>256.0</ele><time>2026-05-01T10:18:25.801Z</time></trkpt><trkpt lat="45.2918967" lon="7.9382783"><ele>257.0</ele><time>2026-05-01T10:18:26.801Z</time></trkpt><trkpt lat="45.2920517" lon="7.93821"><ele>258.0</ele><time>2026-05-01T10:18:27.801Z</time></trkpt><trkpt lat="45.29222" lon="7.9381367"><ele>259.0</ele><time>2026-05-01T10:18:28.801Z</time></trkpt><trkpt lat="45.2923783" lon="7.9380517"><ele>260.0</ele><time>2026-05-01T10:18:29.801Z</time></trkpt><trkpt lat="45.2925383" lon="7.9379733"><ele>261.0</ele><time>2026-05-01T10:18:30.801Z</time></trkpt><trkpt lat="45.2927" lon="7.9379133"><ele>261.0</ele><time>2026-05-01T10:18:31.801Z</time></trkpt><trkpt lat="45.2928667" lon="7.93784"><ele>261.0</ele><time>2026-05-01T10:18:32.8Z</time></trkpt><trkpt lat="45.2930367" lon="7.9377733"><ele>261.0</ele><time>2026-05-01T10:18:33.801Z</time></trkpt><trkpt lat="45.29321" lon="7.9377267"><ele>261.6666666666667</ele><time>2026-05-01T10:18:34.8Z</time></trkpt><trkpt lat="45.2933917" lon="7.9376817"><ele>262.33333333333337</ele><time>2026-05-01T10:18:35.801Z</time></trkpt><trkpt lat="45.2935683" lon="7.93763"><ele>263.0</ele><time>2026-05-01T10:18:36.801Z</time></trkpt><trkpt lat="45.2937433" lon="7.9375717"><ele>261.6666666666667</ele><time>2026-05-01T10:18:37.801Z</time></trkpt><trkpt lat="45.2939283" lon="7.93752"><ele>260.3333333333333</ele><time>2026-05-01T10:18:38.801Z</time></trkpt><trkpt lat="45.2941033" lon="7.9374667"><ele>259.0</ele><time>2026-05-01T10:18:39.801Z</time></trkpt><trkpt lat="45.2942733" lon="7.937405"><ele>259.0</ele><time>2026-05-01T10:18:40.8Z</time></trkpt><trkpt lat="45.2944517" lon="7.937335"><ele>259.0</ele><time>2026-05-01T10:18:41.8Z</time></trkpt><trkpt lat="45.2946183" lon="7.9372683"><ele>259.0</ele><time>2026-05-01T10:18:42.8Z</time></trkpt><trkpt lat="45.2947867" lon="7.937215"><ele>259.66666666666663</ele><time>2026-05-01T10:18:43.801Z</time></trkpt><trkpt lat="45.2949667" lon="7.93718"><ele>260.3333333333333</ele><time>2026-05-01T10:18:44.801Z</time></trkpt><trkpt lat="45.295145" lon="7.9371467"><ele>261.0</ele><time>2026-05-01T10:18:45.801Z</time></trkpt><trkpt lat="45.2953267" lon="7.9371233"><ele>261.0</ele><time>2026-05-01T10:18:46.8Z</time></trkpt><trkpt lat="45.2955033" lon="7.9370817"><ele>261.0</ele><time>2026-05-01T10:18:47.801Z</time></trkpt><trkpt lat="45.2956717" lon="7.937025"><ele>261.0</ele><time>2026-05-01T10:18:48.8Z</time></trkpt><trkpt lat="45.29584" lon="7.936955"><ele>261.5</ele><time>2026-05-01T10:18:49.801Z</time></trkpt><trkpt lat="45.295985" lon="7.9368917"><ele>262.0</ele><time>2026-05-01T10:18:50.801Z</time></trkpt><trkpt lat="45.2961183" lon="7.9368333"><ele>262.5</ele><time>2026-05-01T10:18:51.801Z</time></trkpt><trkpt lat="45.2962433" lon="7.9367667"><ele>263.0</ele><time>2026-05-01T10:18:52.801Z</time></trkpt><trkpt lat="45.296355" lon="7.9367067"><ele>262.6</ele><time>2026-05-01T10:18:53.801Z</time></trkpt><trkpt lat="45.2964383" lon="7.9366767"><ele>262.20000000000005</ele><time>2026-05-01T10:18:54.801Z</time></trkpt><trkpt lat="45.29651" lon="7.9366717"><ele>261.8</ele><time>2026-05-01T10:18:55.801Z</time></trkpt><trkpt lat="45.2966133" lon="7.936765"><ele>261.40000000000003</ele><time>2026-05-01T10:18:57.801Z</time></trkpt><trkpt lat="45.29663" lon="7.9368883"><ele>261.0</ele><time>2026-05-01T10:18:58.801Z</time></trkpt><trkpt lat="45.2966133" lon="7.9370433"><ele>261.8333333333333</ele><time>2026-05-01T10:18:59.801Z</time></trkpt><trkpt lat="45.2965983" lon="7.9372017"><ele>262.6666666666667</ele><time>2026-05-01T10:19:00.801Z</time></trkpt><trkpt lat="45.2965917" lon="7.93734"><ele>263.5</ele><time>2026-05-01T10:19:01.801Z</time></trkpt><trkpt lat="45.2965867" lon="7.9374433"><ele>264.33333333333337</ele><time>2026-05-01T10:19:02.801Z</time></trkpt><trkpt lat="45.296585" lon="7.93756"><ele>265.1666666666667</ele><time>2026-05-01T10:19:04.801Z</time></trkpt><trkpt lat="45.2966383" lon="7.9376217"><ele>266.0</ele><time>2026-05-01T10:19:06.801Z</time></trkpt><trkpt lat="45.296785" lon="7.9376083"><ele>266.2</ele><time>2026-05-01T10:19:08.801Z</time></trkpt><trkpt lat="45.2968783" lon="7.9375867"><ele>266.40000000000003</ele><time>2026-05-01T10:19:09.801Z</time></trkpt><trkpt lat="45.2969833" lon="7.93757"><ele>266.6</ele><time>2026-05-01T10:19:10.801Z</time></trkpt><trkpt lat="45.2971" lon="7.9375633"><ele>266.8</ele><time>2026-05-01T10:19:11.801Z</time></trkpt><trkpt lat="45.297215" lon="7.937555"><ele>267.0</ele><time>2026-05-01T10:19:12.801Z</time></trkpt><trkpt lat="45.29733" lon="7.937545"><ele>267.4</ele><time>2026-05-01T10:19:13.801Z</time></trkpt><trkpt lat="45.297445" lon="7.9375267"><ele>267.79999999999995</ele><time>2026-05-01T10:19:14.801Z</time></trkpt><trkpt lat="45.297565" lon="7.9375267"><ele>268.2</ele><time>2026-05-01T10:19:15.801Z</time></trkpt><trkpt lat="45.297675" lon="7.9375167"><ele>268.59999999999997</ele><time>2026-05-01T10:19:16.801Z</time></trkpt><trkpt lat="45.297775" lon="7.9375033"><ele>269.0</ele><time>2026-05-01T10:19:17.801Z</time></trkpt><trkpt lat="45.2978767" lon="7.9374833"><ele>269.0</ele><time>2026-05-01T10:19:18.801Z</time></trkpt><trkpt lat="45.2979567" lon="7.9374533"><ele>269.0</ele><time>2026-05-01T10:19:19.801Z</time></trkpt><trkpt lat="45.2980533" lon="7.9374433"><ele>269.0</ele><time>2026-05-01T10:19:20.801Z</time></trkpt><trkpt lat="45.2981433" lon="7.9374167"><ele>269.0</ele><time>2026-05-01T10:19:21.801Z</time></trkpt><trkpt lat="45.2982367" lon="7.9373867"><ele>269.0</ele><time>2026-05-01T10:19:22.8Z</time></trkpt><trkpt lat="45.2983317" lon="7.9373433"><ele>269.1666666666667</ele><time>2026-05-01T10:19:23.801Z</time></trkpt><trkpt lat="45.2984233" lon="7.9373133"><ele>269.33333333333337</ele><time>2026-05-01T10:19:24.801Z</time></trkpt><trkpt lat="45.2985117" lon="7.9372883"><ele>269.5</ele><time>2026-05-01T10:19:25.801Z</time></trkpt><trkpt lat="45.2985833" lon="7.93727"><ele>269.6666666666667</ele><time>2026-05-01T10:19:26.801Z</time></trkpt><trkpt lat="45.2986483" lon="7.9372517"><ele>269.8333333333333</ele><time>2026-05-01T10:19:27.801Z</time></trkpt><trkpt lat="45.2987683" lon="7.9372717"><ele>270.0</ele><time>2026-05-01T10:19:29.801Z</time></trkpt><trkpt lat="45.2988883" lon="7.93734"><ele>270.8333333333333</ele><time>2026-05-01T10:19:31.801Z</time></trkpt><trkpt lat="45.29895" lon="7.937385"><ele>271.6666666666667</ele><time>2026-05-01T10:19:32.801Z</time></trkpt><trkpt lat="45.2990517" lon="7.93744"><ele>272.5</ele><time>2026-05-01T10:19:34.801Z</time></trkpt><trkpt lat="45.2990783" lon="7.9375483"><ele>273.33333333333337</ele><time>2026-05-01T10:19:38.801Z</time></trkpt><trkpt lat="45.2990267" lon="7.93766"><ele>274.1666666666667</ele><time>2026-05-01T10:19:40.801Z</time></trkpt><trkpt lat="45.298995" lon="7.9377417"><ele>275.0</ele><time>2026-05-01T10:19:41.801Z</time></trkpt><trkpt lat="45.2989567" lon="7.9378583"><ele>274.25</ele><time>2026-05-01T10:19:42.801Z</time></trkpt><trkpt lat="45.29891" lon="7.938"><ele>273.5</ele><time>2026-05-01T10:19:43.801Z</time></trkpt><trkpt lat="45.2988617" lon="7.9381717"><ele>272.75</ele><time>2026-05-01T10:19:44.801Z</time></trkpt><trkpt lat="45.2988" lon="7.938365"><ele>272.0</ele><time>2026-05-01T10:19:45.801Z</time></trkpt><trkpt lat="45.29873" lon="7.938535"><ele>272.0</ele><time>2026-05-01T10:19:46.801Z</time></trkpt><trkpt lat="45.298655" lon="7.938725"><ele>272.0</ele><time>2026-05-01T10:19:47.801Z</time></trkpt><trkpt lat="45.2985783" lon="7.9389"><ele>272.0</ele><time>2026-05-01T10:19:48.801Z</time></trkpt><trkpt lat="45.2985" lon="7.9390767"><ele>272.0</ele><time>2026-05-01T10:19:49.801Z</time></trkpt><trkpt lat="45.298435" lon="7.9392567"><ele>272.0</ele><time>2026-05-01T10:19:50.801Z</time></trkpt><trkpt lat="45.298375" lon="7.9394417"><ele>272.0</ele><time>2026-05-01T10:19:51.801Z</time></trkpt><trkpt lat="45.2983167" lon="7.9396133"><ele>272.0</ele><time>2026-05-01T10:19:52.801Z</time></trkpt><trkpt lat="45.2982517" lon="7.9398"><ele>272.0</ele><time>2026-05-01T10:19:53.801Z</time></trkpt><trkpt lat="45.2981833" lon="7.93999"><ele>272.0</ele><time>2026-05-01T10:19:54.801Z</time></trkpt><trkpt lat="45.2981133" lon="7.9401783"><ele>272.0</ele><time>2026-05-01T10:19:55.801Z</time></trkpt><trkpt lat="45.2980433" lon="7.9403517"><ele>272.0</ele><time>2026-05-01T10:19:56.801Z</time></trkpt><trkpt lat="45.297985" lon="7.9405083"><ele>272.0</ele><time>2026-05-01T10:19:57.801Z</time></trkpt><trkpt lat="45.297925" lon="7.9406517"><ele>271.0</ele><time>2026-05-01T10:19:58.801Z</time></trkpt><trkpt lat="45.2978667" lon="7.9407917"><ele>270.0</ele><time>2026-05-01T10:19:59.801Z</time></trkpt><trkpt lat="45.2978233" lon="7.9409533"><ele>269.0</ele><time>2026-05-01T10:20:00.801Z</time></trkpt><trkpt lat="45.297805" lon="7.9411267"><ele>268.0</ele><time>2026-05-01T10:20:01.801Z</time></trkpt><trkpt lat="45.2977983" lon="7.9413117"><ele>266.75</ele><time>2026-05-01T10:20:02.801Z</time></trkpt><trkpt lat="45.29783" lon="7.94149"><ele>265.5</ele><time>2026-05-01T10:20:03.801Z</time></trkpt><trkpt lat="45.2979017" lon="7.9416883"><ele>264.25</ele><time>2026-05-01T10:20:04.801Z</time></trkpt><trkpt lat="45.297985" lon="7.941865"><ele>263.0</ele><time>2026-05-01T10:20:05.801Z</time></trkpt><trkpt lat="45.2980683" lon="7.9420633"><ele>263.0</ele><time>2026-05-01T10:20:06.801Z</time></trkpt><trkpt lat="45.2981483" lon="7.9422617"><ele>263.0</ele><time>2026-05-01T10:20:07.801Z</time></trkpt><trkpt lat="45.2982317" lon="7.9424617"><ele>263.0</ele><time>2026-05-01T10:20:08.801Z</time></trkpt><trkpt lat="45.2983017" lon="7.9426483"><ele>260.6666666666667</ele><time>2026-05-01T10:20:09.801Z</time></trkpt><trkpt lat="45.298375" lon="7.9428333"><ele>258.3333333333333</ele><time>2026-05-01T10:20:10.801Z</time></trkpt><trkpt lat="45.2984433" lon="7.94303"><ele>256.0</ele><time>2026-05-01T10:20:11.801Z</time></trkpt><trkpt lat="45.2985367" lon="7.9432067"><ele>256.0</ele><time>2026-05-01T10:20:12.801Z</time></trkpt><trkpt lat="45.2986583" lon="7.9433583"><ele>256.0</ele><time>2026-05-01T10:20:13.801Z</time></trkpt><trkpt lat="45.2988" lon="7.9435083"><ele>256.0</ele><time>2026-05-01T10:20:14.801Z</time></trkpt><trkpt lat="45.29894" lon="7.9436417"><ele>255.33333333333331</ele><time>2026-05-01T10:20:15.801Z</time></trkpt><trkpt lat="45.2990833" lon="7.9437683"><ele>254.66666666666669</ele><time>2026-05-01T10:20:16.801Z</time></trkpt><trkpt lat="45.2992167" lon="7.9439233"><ele>254.0</ele><time>2026-05-01T10:20:17.801Z</time></trkpt><trkpt lat="45.2993467" lon="7.94408"><ele>252.25</ele><time>2026-05-01T10:20:18.801Z</time></trkpt><trkpt lat="45.2994783" lon="7.9442283"><ele>250.5</ele><time>2026-05-01T10:20:19.801Z</time></trkpt><trkpt lat="45.2995883" lon="7.944375"><ele>248.75</ele><time>2026-05-01T10:20:20.801Z</time></trkpt><trkpt lat="45.2996733" lon="7.94449"><ele>247.0</ele><time>2026-05-01T10:20:21.801Z</time></trkpt><trkpt lat="45.2997233" lon="7.9446"><ele>247.0</ele><time>2026-05-01T10:20:22.801Z</time></trkpt><trkpt lat="45.2997467" lon="7.9447167"><ele>247.0</ele><time>2026-05-01T10:20:23.801Z</time></trkpt><trkpt lat="45.2996967" lon="7.9448617"><ele>247.0</ele><time>2026-05-01T10:20:25.8Z</time></trkpt><trkpt lat="45.2996183" lon="7.9449267"><ele>247.0</ele><time>2026-05-01T10:20:26.801Z</time></trkpt><trkpt lat="45.2994833" lon="7.9450017"><ele>247.0</ele><time>2026-05-01T10:20:27.801Z</time></trkpt><trkpt lat="45.2992917" lon="7.9451117"><ele>246.66666666666666</ele><time>2026-05-01T10:20:28.801Z</time></trkpt><trkpt lat="45.2991333" lon="7.94523"><ele>246.33333333333331</ele><time>2026-05-01T10:20:29.801Z</time></trkpt><trkpt lat="45.2989967" lon="7.9453317"><ele>246.0</ele><time>2026-05-01T10:20:30.801Z</time></trkpt><trkpt lat="45.2988817" lon="7.94544"><ele>246.0</ele><time>2026-05-01T10:20:31.801Z</time></trkpt><trkpt lat="45.2988117" lon="7.945535"><ele>246.00000000000003</ele><time>2026-05-01T10:20:32.801Z</time></trkpt><trkpt lat="45.2987717" lon="7.945655"><ele>246.00000000000003</ele><time>2026-05-01T10:20:33.801Z</time></trkpt><trkpt lat="45.298765" lon="7.9457767"><ele>246.0</ele><time>2026-05-01T10:20:34.8Z</time></trkpt><trkpt lat="45.2987867" lon="7.9459033"><ele>246.0</ele><time>2026-05-01T10:20:35.801Z</time></trkpt><trkpt lat="45.2988467" lon="7.9460183"><ele>245.5</ele><time>2026-05-01T10:20:36.801Z</time></trkpt><trkpt lat="45.29893" lon="7.9461417"><ele>245.0</ele><time>2026-05-01T10:20:37.801Z</time></trkpt><trkpt lat="45.2990433" lon="7.9462617"><ele>244.5</ele><time>2026-05-01T10:20:38.801Z</time></trkpt><trkpt lat="45.2992033" lon="7.9463767"><ele>244.0</ele><time>2026-05-01T10:20:39.801Z</time></trkpt><trkpt lat="45.2993867" lon="7.9464833"><ele>244.0</ele><time>2026-05-01T10:20:40.801Z</time></trkpt><trkpt lat="45.2995517" lon="7.9465883"><ele>244.0</ele><time>2026-05-01T10:20:41.801Z</time></trkpt><trkpt lat="45.2996967" lon="7.946715"><ele>244.0</ele><time>2026-05-01T10:20:42.801Z</time></trkpt><trkpt lat="45.299825" lon="7.9468633"><ele>239.66666666666666</ele><time>2026-05-01T10:20:43.801Z</time></trkpt><trkpt lat="45.2999217" lon="7.94707"><ele>235.33333333333331</ele><time>2026-05-01T10:20:44.801Z</time></trkpt><trkpt lat="45.299975" lon="7.9473"><ele>231.0</ele><time>2026-05-01T10:20:45.801Z</time></trkpt><trkpt lat="45.3000383" lon="7.9475467"><ele>230.0</ele><time>2026-05-01T10:20:46.801Z</time></trkpt><trkpt lat="45.3000933" lon="7.9478"><ele>229.0</ele><time>2026-05-01T10:20:47.8Z</time></trkpt><trkpt lat="45.3001517" lon="7.948065"><ele>228.0</ele><time>2026-05-01T10:20:48.801Z</time></trkpt><trkpt lat="45.3002017" lon="7.9483183"><ele>226.66666666666669</ele><time>2026-05-01T10:20:49.801Z</time></trkpt><trkpt lat="45.3002533" lon="7.9485867"><ele>225.33333333333334</ele><time>2026-05-01T10:20:50.801Z</time></trkpt><trkpt lat="45.3003083" lon="7.94884"><ele>224.0</ele><time>2026-05-01T10:20:51.801Z</time></trkpt><trkpt lat="45.30036" lon="7.9491"><ele>223.0</ele><time>2026-05-01T10:20:52.801Z</time></trkpt><trkpt lat="45.3004167" lon="7.9493683"><ele>222.0</ele><time>2026-05-01T10:20:53.801Z</time></trkpt><trkpt lat="45.3004717" lon="7.949625"><ele>221.0</ele><time>2026-05-01T10:20:54.801Z</time></trkpt><trkpt lat="45.3005317" lon="7.9498833"><ele>220.0</ele><time>2026-05-01T10:20:55.801Z</time></trkpt><trkpt lat="45.3005817" lon="7.9501433"><ele>219.0</ele><time>2026-05-01T10:20:56.801Z</time></trkpt><trkpt lat="45.3006283" lon="7.950395"><ele>218.0</ele><time>2026-05-01T10:20:57.801Z</time></trkpt><trkpt lat="45.3006767" lon="7.950635"><ele>217.66666666666669</ele><time>2026-05-01T10:20:58.801Z</time></trkpt><trkpt lat="45.3007183" lon="7.95087"><ele>217.33333333333331</ele><time>2026-05-01T10:20:59.801Z</time></trkpt><trkpt lat="45.3007467" lon="7.9511033"><ele>217.0</ele><time>2026-05-01T10:21:00.801Z</time></trkpt><trkpt lat="45.3007717" lon="7.9513267"><ele>217.0</ele><time>2026-05-01T10:21:01.801Z</time></trkpt><trkpt lat="45.3007733" lon="7.9515717"><ele>217.0</ele><time>2026-05-01T10:21:02.8Z</time></trkpt><trkpt lat="45.300765" lon="7.9518233"><ele>217.0</ele><time>2026-05-01T10:21:03.801Z</time></trkpt><trkpt lat="45.3007467" lon="7.9520783"><ele>217.0</ele><time>2026-05-01T10:21:04.801Z</time></trkpt><trkpt lat="45.30072" lon="7.95232"><ele>217.0</ele><time>2026-05-01T10:21:05.801Z</time></trkpt><trkpt lat="45.3006817" lon="7.9525717"><ele>217.0</ele><time>2026-05-01T10:21:06.801Z</time></trkpt><trkpt lat="45.3006467" lon="7.9528317"><ele>216.66666666666666</ele><time>2026-05-01T10:21:07.801Z</time></trkpt><trkpt lat="45.3006017" lon="7.9530983"><ele>216.33333333333331</ele><time>2026-05-01T10:21:08.801Z</time></trkpt><trkpt lat="45.3005717" lon="7.9533633"><ele>216.0</ele><time>2026-05-01T10:21:09.8Z</time></trkpt><trkpt lat="45.300535" lon="7.95362"><ele>216.0</ele><time>2026-05-01T10:21:10.801Z</time></trkpt><trkpt lat="45.3005" lon="7.9538817"><ele>216.0</ele><time>2026-05-01T10:21:11.801Z</time></trkpt><trkpt lat="45.3004683" lon="7.9541333"><ele>216.0</ele><time>2026-05-01T10:21:12.8Z</time></trkpt><trkpt lat="45.3004283" lon="7.95439"><ele>216.33333333333331</ele><time>2026-05-01T10:21:13.801Z</time></trkpt><trkpt lat="45.3003967" lon="7.954635"><ele>216.66666666666666</ele><time>2026-05-01T10:21:14.801Z</time></trkpt><trkpt lat="45.3003617" lon="7.9548783"><ele>217.0</ele><time>2026-05-01T10:21:15.801Z</time></trkpt><trkpt lat="45.300325" lon="7.9551117"><ele>217.0</ele><time>2026-05-01T10:21:16.801Z</time></trkpt><trkpt lat="45.3003067" lon="7.9553233"><ele>217.0</ele><time>2026-05-01T10:21:17.801Z</time></trkpt><trkpt lat="45.3003067" lon="7.9555117"><ele>217.0</ele><time>2026-05-01T10:21:18.801Z</time></trkpt><trkpt lat="45.3003567" lon="7.955675"><ele>217.0</ele><time>2026-05-01T10:21:19.801Z</time></trkpt><trkpt lat="45.300455" lon="7.9558133"><ele>215.66666666666666</ele><time>2026-05-01T10:21:20.801Z</time></trkpt><trkpt lat="45.3005833" lon="7.9559133"><ele>214.33333333333331</ele><time>2026-05-01T10:21:21.801Z</time></trkpt><trkpt lat="45.30074" lon="7.9560017"><ele>213.0</ele><time>2026-05-01T10:21:22.801Z</time></trkpt><trkpt lat="45.3009" lon="7.956085"><ele>213.0</ele><time>2026-05-01T10:21:23.8Z</time></trkpt><trkpt lat="45.3010633" lon="7.9561617"><ele>213.0</ele><time>2026-05-01T10:21:24.801Z</time></trkpt><trkpt lat="45.3012367" lon="7.9562467"><ele>213.0</ele><time>2026-05-01T10:21:25.801Z</time></trkpt><trkpt lat="45.30141" lon="7.9563483"><ele>211.66666666666669</ele><time>2026-05-01T10:21:26.801Z</time></trkpt><trkpt lat="45.3015833" lon="7.9564433"><ele>210.33333333333334</ele><time>2026-05-01T10:21:27.801Z</time></trkpt><trkpt lat="45.3017517" lon="7.9565283"><ele>209.0</ele><time>2026-05-01T10:21:28.801Z</time></trkpt><trkpt lat="45.3019167" lon="7.9566067"><ele>209.0</ele><time>2026-05-01T10:21:29.801Z</time></trkpt><trkpt lat="45.3020733" lon="7.95669"><ele>209.0</ele><time>2026-05-01T10:21:30.801Z</time></trkpt><trkpt lat="45.3022167" lon="7.956765"><ele>209.0</ele><time>2026-05-01T10:21:31.801Z</time></trkpt><trkpt lat="45.3023367" lon="7.9568283"><ele>209.0</ele><time>2026-05-01T10:21:32.801Z</time></trkpt><trkpt lat="45.30243" lon="7.9568817"><ele>210.00000000000003</ele><time>2026-05-01T10:21:33.801Z</time></trkpt><trkpt lat="45.3025017" lon="7.9569283"><ele>211.0</ele><time>2026-05-01T10:21:34.801Z</time></trkpt><trkpt lat="45.302565" lon="7.9569617"><ele>212.0</ele><time>2026-05-01T10:21:35.801Z</time></trkpt><trkpt lat="45.3026517" lon="7.9569317"><ele>213.0</ele><time>2026-05-01T10:21:37.801Z</time></trkpt><trkpt lat="45.3026883" lon="7.95683"><ele>214.00000000000003</ele><time>2026-05-01T10:21:39.8Z</time></trkpt><trkpt lat="45.3027267" lon="7.9566733"><ele>215.0</ele><time>2026-05-01T10:21:41.801Z</time></trkpt><trkpt lat="45.3027417" lon="7.9565783"><ele>215.0</ele><time>2026-05-01T10:21:42.801Z</time></trkpt><trkpt lat="45.30275" lon="7.9564833"><ele>215.0</ele><time>2026-05-01T10:21:43.8Z</time></trkpt><trkpt lat="45.3027683" lon="7.9563917"><ele>215.0</ele><time>2026-05-01T10:21:44.801Z</time></trkpt><trkpt lat="45.3027867" lon="7.9562967"><ele>215.0</ele><time>2026-05-01T10:21:45.801Z</time></trkpt><trkpt lat="45.3028067" lon="7.9561967"><ele>215.0</ele><time>2026-05-01T10:21:46.801Z</time></trkpt><trkpt lat="45.3028317" lon="7.9561017"><ele>215.0</ele><time>2026-05-01T10:21:47.801Z</time></trkpt><trkpt lat="45.3028583" lon="7.9560183"><ele>215.0</ele><time>2026-05-01T10:21:48.801Z</time></trkpt><trkpt lat="45.30292" lon="7.9558667"><ele>214.83333333333334</ele><time>2026-05-01T10:21:50.801Z</time></trkpt><trkpt lat="45.3029867" lon="7.95575"><ele>214.66666666666669</ele><time>2026-05-01T10:21:52.801Z</time></trkpt><trkpt lat="45.3030467" lon="7.955655"><ele>214.5</ele><time>2026-05-01T10:21:54.801Z</time></trkpt><trkpt lat="45.3030767" lon="7.9555617"><ele>214.33333333333331</ele><time>2026-05-01T10:21:56.801Z</time></trkpt><trkpt lat="45.3031083" lon="7.9554583"><ele>214.16666666666666</ele><time>2026-05-01T10:21:59.801Z</time></trkpt><trkpt lat="45.3031417" lon="7.9553383"><ele>214.0</ele><time>2026-05-01T10:22:02.801Z</time></trkpt><trkpt lat="45.30317" lon="7.9551733"><ele>218.0</ele><time>2026-05-01T10:22:04.801Z</time></trkpt><trkpt lat="45.303195" lon="7.955055"><ele>222.0</ele><time>2026-05-01T10:22:05.801Z</time></trkpt><trkpt lat="45.303225" lon="7.9549117"><ele>226.0</ele><time>2026-05-01T10:22:06.801Z</time></trkpt><trkpt lat="45.303265" lon="7.9547317"><ele>230.0</ele><time>2026-05-01T10:22:07.801Z</time></trkpt><trkpt lat="45.303345" lon="7.9545183"><ele>230.0</ele><time>2026-05-01T10:22:08.801Z</time></trkpt><trkpt lat="45.303425" lon="7.9543033"><ele>230.0</ele><time>2026-05-01T10:22:09.801Z</time></trkpt><trkpt lat="45.3034917" lon="7.9540967"><ele>230.0</ele><time>2026-05-01T10:22:10.801Z</time></trkpt><trkpt lat="45.30356" lon="7.9539017"><ele>226.66666666666669</ele><time>2026-05-01T10:22:11.8Z</time></trkpt><trkpt lat="45.3036417" lon="7.9537017"><ele>223.33333333333331</ele><time>2026-05-01T10:22:12.8Z</time></trkpt><trkpt lat="45.3037317" lon="7.9535083"><ele>220.0</ele><time>2026-05-01T10:22:13.801Z</time></trkpt><trkpt lat="45.3038417" lon="7.9533117"><ele>225.66666666666666</ele><time>2026-05-01T10:22:14.801Z</time></trkpt><trkpt lat="45.303945" lon="7.953115"><ele>231.33333333333331</ele><time>2026-05-01T10:22:15.801Z</time></trkpt><trkpt lat="45.3040517" lon="7.952895"><ele>237.0</ele><time>2026-05-01T10:22:16.801Z</time></trkpt><trkpt lat="45.3041683" lon="7.952685"><ele>234.0</ele><time>2026-05-01T10:22:17.8Z</time></trkpt><trkpt lat="45.3042917" lon="7.952465"><ele>231.0</ele><time>2026-05-01T10:22:18.801Z</time></trkpt><trkpt lat="45.3044133" lon="7.9522583"><ele>228.0</ele><time>2026-05-01T10:22:19.801Z</time></trkpt><trkpt lat="45.3045367" lon="7.952055"><ele>228.0</ele><time>2026-05-01T10:22:20.801Z</time></trkpt><trkpt lat="45.3046617" lon="7.9518267"><ele>228.0</ele><time>2026-05-01T10:22:21.801Z</time></trkpt><trkpt lat="45.3047817" lon="7.9516033"><ele>228.0</ele><time>2026-05-01T10:22:22.801Z</time></trkpt><trkpt lat="45.3048867" lon="7.9513933"><ele>227.33333333333331</ele><time>2026-05-01T10:22:23.801Z</time></trkpt><trkpt lat="45.3049733" lon="7.9512083"><ele>226.66666666666666</ele><time>2026-05-01T10:22:24.801Z</time></trkpt><trkpt lat="45.305065" lon="7.9510283"><ele>226.0</ele><time>2026-05-01T10:22:25.801Z</time></trkpt><trkpt lat="45.3051717" lon="7.950845"><ele>226.0</ele><time>2026-05-01T10:22:26.801Z</time></trkpt><trkpt lat="45.30525" lon="7.95068"><ele>226.0</ele><time>2026-05-01T10:22:27.8Z</time></trkpt><trkpt lat="45.3053133" lon="7.9505083"><ele>226.0</ele><time>2026-05-01T10:22:28.8Z</time></trkpt><trkpt lat="45.3053633" lon="7.9503333"><ele>226.0</ele><time>2026-05-01T10:22:29.801Z</time></trkpt><trkpt lat="45.3054117" lon="7.9501283"><ele>223.0</ele><time>2026-05-01T10:22:30.801Z</time></trkpt><trkpt lat="45.3054517" lon="7.94989"><ele>220.0</ele><time>2026-05-01T10:22:31.801Z</time></trkpt><trkpt lat="45.3054833" lon="7.9496317"><ele>217.0</ele><time>2026-05-01T10:22:32.801Z</time></trkpt><trkpt lat="45.305525" lon="7.9493733"><ele>215.66666666666666</ele><time>2026-05-01T10:22:33.801Z</time></trkpt><trkpt lat="45.3055717" lon="7.9491217"><ele>214.33333333333331</ele><time>2026-05-01T10:22:34.801Z</time></trkpt><trkpt lat="45.305615" lon="7.9488917"><ele>213.0</ele><time>2026-05-01T10:22:35.801Z</time></trkpt><trkpt lat="45.3056517" lon="7.9486817"><ele>217.5</ele><time>2026-05-01T10:22:36.801Z</time></trkpt><trkpt lat="45.30569" lon="7.9484983"><ele>222.0</ele><time>2026-05-01T10:22:37.8Z</time></trkpt><trkpt lat="45.3057267" lon="7.94834"><ele>226.5</ele><time>2026-05-01T10:22:38.801Z</time></trkpt><trkpt lat="45.3057717" lon="7.9482067"><ele>231.0</ele><time>2026-05-01T10:22:39.801Z</time></trkpt><trkpt lat="45.3058283" lon="7.9480983"><ele>231.0</ele><time>2026-05-01T10:22:40.801Z</time></trkpt><trkpt lat="45.3059017" lon="7.9479933"><ele>231.0</ele><time>2026-05-01T10:22:41.8Z</time></trkpt><trkpt lat="45.306" lon="7.947865"><ele>231.0</ele><time>2026-05-01T10:22:42.801Z</time></trkpt><trkpt lat="45.3061067" lon="7.9477417"><ele>231.0</ele><time>2026-05-01T10:22:43.801Z</time></trkpt><trkpt lat="45.30621" lon="7.9476483"><ele>231.0</ele><time>2026-05-01T10:22:44.801Z</time></trkpt><trkpt lat="45.306325" lon="7.94759"><ele>231.0</ele><time>2026-05-01T10:22:45.801Z</time></trkpt><trkpt lat="45.3064417" lon="7.947545"><ele>231.0</ele><time>2026-05-01T10:22:46.801Z</time></trkpt><trkpt lat="45.3065667" lon="7.9474917"><ele>231.0</ele><time>2026-05-01T10:22:47.801Z</time></trkpt><trkpt lat="45.30669" lon="7.9474517"><ele>230.8</ele><time>2026-05-01T10:22:48.801Z</time></trkpt><trkpt lat="45.30681" lon="7.94742"><ele>230.60000000000002</ele><time>2026-05-01T10:22:49.801Z</time></trkpt><trkpt lat="45.306925" lon="7.9473683"><ele>230.4</ele><time>2026-05-01T10:22:50.801Z</time></trkpt><trkpt lat="45.3070217" lon="7.9473283"><ele>230.2</ele><time>2026-05-01T10:22:51.801Z</time></trkpt><trkpt lat="45.3071117" lon="7.9472833"><ele>230.0</ele><time>2026-05-01T10:22:52.801Z</time></trkpt><trkpt lat="45.307195" lon="7.9472433"><ele>231.33333333333334</ele><time>2026-05-01T10:22:53.801Z</time></trkpt><trkpt lat="45.30728" lon="7.9471967"><ele>232.66666666666669</ele><time>2026-05-01T10:22:54.801Z</time></trkpt><trkpt lat="45.3073583" lon="7.947155"><ele>234.0</ele><time>2026-05-01T10:22:55.801Z</time></trkpt><trkpt lat="45.30743" lon="7.9471217"><ele>235.33333333333331</ele><time>2026-05-01T10:22:56.801Z</time></trkpt><trkpt lat="45.3075017" lon="7.9470867"><ele>236.66666666666666</ele><time>2026-05-01T10:22:57.801Z</time></trkpt><trkpt lat="45.3075767" lon="7.9470517"><ele>238.0</ele><time>2026-05-01T10:22:58.8Z</time></trkpt><trkpt lat="45.3076433" lon="7.9470083"><ele>238.0</ele><time>2026-05-01T10:22:59.801Z</time></trkpt><trkpt lat="45.3077083" lon="7.9469633"><ele>238.0</ele><time>2026-05-01T10:23:00.801Z</time></trkpt><trkpt lat="45.307775" lon="7.9469267"><ele>238.0</ele><time>2026-05-01T10:23:01.801Z</time></trkpt><trkpt lat="45.307845" lon="7.9469033"><ele>238.0</ele><time>2026-05-01T10:23:02.801Z</time></trkpt><trkpt lat="45.3079133" lon="7.9468867"><ele>238.0</ele><time>2026-05-01T10:23:03.801Z</time></trkpt><trkpt lat="45.3079783" lon="7.946855"><ele>238.0</ele><time>2026-05-01T10:23:04.801Z</time></trkpt><trkpt lat="45.308055" lon="7.9468133"><ele>238.0</ele><time>2026-05-01T10:23:05.801Z</time></trkpt><trkpt lat="45.30813" lon="7.94679"><ele>239.2</ele><time>2026-05-01T10:23:06.801Z</time></trkpt><trkpt lat="45.3082167" lon="7.9467917"><ele>240.4</ele><time>2026-05-01T10:23:07.801Z</time></trkpt><trkpt lat="45.3083017" lon="7.9467983"><ele>241.59999999999997</ele><time>2026-05-01T10:23:08.801Z</time></trkpt><trkpt lat="45.308395" lon="7.9468033"><ele>242.79999999999998</ele><time>2026-05-01T10:23:09.801Z</time></trkpt><trkpt lat="45.3084833" lon="7.94681"><ele>244.0</ele><time>2026-05-01T10:23:10.8Z</time></trkpt><trkpt lat="45.308585" lon="7.9468133"><ele>244.0</ele><time>2026-05-01T10:23:11.801Z</time></trkpt><trkpt lat="45.3086867" lon="7.9468167"><ele>243.99999999999997</ele><time>2026-05-01T10:23:12.801Z</time></trkpt><trkpt lat="45.3087833" lon="7.9468117"><ele>243.99999999999997</ele><time>2026-05-01T10:23:13.801Z</time></trkpt><trkpt lat="45.3088783" lon="7.9468017"><ele>244.0</ele><time>2026-05-01T10:23:14.801Z</time></trkpt><trkpt lat="45.3089667" lon="7.9467917"><ele>244.0</ele><time>2026-05-01T10:23:15.801Z</time></trkpt><trkpt lat="45.3090483" lon="7.94677"><ele>244.16666666666666</ele><time>2026-05-01T10:23:16.801Z</time></trkpt><trkpt lat="45.309135" lon="7.946765"><ele>244.33333333333331</ele><time>2026-05-01T10:23:17.801Z</time></trkpt><trkpt lat="45.3092117" lon="7.9467783"><ele>244.5</ele><time>2026-05-01T10:23:18.801Z</time></trkpt><trkpt lat="45.3093217" lon="7.9468317"><ele>244.66666666666669</ele><time>2026-05-01T10:23:20.801Z</time></trkpt><trkpt lat="45.3093783" lon="7.9468883"><ele>244.83333333333334</ele><time>2026-05-01T10:23:21.801Z</time></trkpt><trkpt lat="45.3094367" lon="7.946965"><ele>245.0</ele><time>2026-05-01T10:23:22.801Z</time></trkpt><trkpt lat="45.309505" lon="7.94706"><ele>245.0</ele><time>2026-05-01T10:23:23.801Z</time></trkpt><trkpt lat="45.3095767" lon="7.9471833"><ele>245.0</ele><time>2026-05-01T10:23:24.8Z</time></trkpt><trkpt lat="45.309655" lon="7.9473217"><ele>245.0</ele><time>2026-05-01T10:23:25.801Z</time></trkpt><trkpt lat="45.309735" lon="7.947515"><ele>245.0</ele><time>2026-05-01T10:23:26.801Z</time></trkpt><trkpt lat="45.3098317" lon="7.9477217"><ele>246.66666666666669</ele><time>2026-05-01T10:23:27.801Z</time></trkpt><trkpt lat="45.3099167" lon="7.9479433"><ele>248.33333333333331</ele><time>2026-05-01T10:23:28.801Z</time></trkpt><trkpt lat="45.3100017" lon="7.9481633"><ele>250.0</ele><time>2026-05-01T10:23:29.801Z</time></trkpt><trkpt lat="45.3100967" lon="7.9483767"><ele>250.0</ele><time>2026-05-01T10:23:30.801Z</time></trkpt><trkpt lat="45.3101783" lon="7.94857"><ele>250.0</ele><time>2026-05-01T10:23:31.801Z</time></trkpt><trkpt lat="45.31026" lon="7.9487533"><ele>250.0</ele><time>2026-05-01T10:23:32.801Z</time></trkpt><trkpt lat="45.3103467" lon="7.9489283"><ele>250.0</ele><time>2026-05-01T10:23:33.801Z</time></trkpt><trkpt lat="45.3104317" lon="7.9491067"><ele>250.0</ele><time>2026-05-01T10:23:34.801Z</time></trkpt><trkpt lat="45.3105033" lon="7.9492883"><ele>250.0</ele><time>2026-05-01T10:23:35.801Z</time></trkpt><trkpt lat="45.3105783" lon="7.9494633"><ele>250.0</ele><time>2026-05-01T10:23:36.801Z</time></trkpt><trkpt lat="45.3106483" lon="7.94964"><ele>247.0</ele><time>2026-05-01T10:23:37.801Z</time></trkpt><trkpt lat="45.3107233" lon="7.949815"><ele>244.0</ele><time>2026-05-01T10:23:38.801Z</time></trkpt><trkpt lat="45.3107817" lon="7.9499767"><ele>241.0</ele><time>2026-05-01T10:23:39.801Z</time></trkpt><trkpt lat="45.3108283" lon="7.9501183"><ele>238.0</ele><time>2026-05-01T10:23:40.801Z</time></trkpt><trkpt lat="45.3108633" lon="7.95025"><ele>238.0</ele><time>2026-05-01T10:23:41.801Z</time></trkpt><trkpt lat="45.3108967" lon="7.9503917"><ele>238.0</ele><time>2026-05-01T10:23:42.801Z</time></trkpt><trkpt lat="45.310935" lon="7.9505367"><ele>238.0</ele><time>2026-05-01T10:23:43.801Z</time></trkpt><trkpt lat="45.3109817" lon="7.9506683"><ele>238.0</ele><time>2026-05-01T10:23:44.801Z</time></trkpt><trkpt lat="45.31105" lon="7.9508033"><ele>238.0</ele><time>2026-05-01T10:23:45.801Z</time></trkpt><trkpt lat="45.311115" lon="7.9509283"><ele>238.60000000000002</ele><time>2026-05-01T10:23:46.801Z</time></trkpt><trkpt lat="45.3111567" lon="7.9510733"><ele>239.20000000000002</ele><time>2026-05-01T10:23:47.801Z</time></trkpt><trkpt lat="45.31119" lon="7.951225"><ele>239.8</ele><time>2026-05-01T10:23:48.801Z</time></trkpt><trkpt lat="45.3112183" lon="7.9513917"><ele>240.4</ele><time>2026-05-01T10:23:49.801Z</time></trkpt><trkpt lat="45.3112367" lon="7.95154"><ele>241.0</ele><time>2026-05-01T10:23:50.801Z</time></trkpt><trkpt lat="45.3112633" lon="7.9516667"><ele>242.25</ele><time>2026-05-01T10:23:51.801Z</time></trkpt><trkpt lat="45.3113083" lon="7.9517867"><ele>243.5</ele><time>2026-05-01T10:23:52.801Z</time></trkpt><trkpt lat="45.3113817" lon="7.951915"><ele>244.75</ele><time>2026-05-01T10:23:53.801Z</time></trkpt><trkpt lat="45.311455" lon="7.9520833"><ele>246.0</ele><time>2026-05-01T10:23:54.801Z</time></trkpt><trkpt lat="45.31152" lon="7.9522217"><ele>244.25</ele><time>2026-05-01T10:23:55.801Z</time></trkpt><trkpt lat="45.311565" lon="7.9523883"><ele>242.5</ele><time>2026-05-01T10:23:56.801Z</time></trkpt><trkpt lat="45.311595" lon="7.9525683"><ele>240.75</ele><time>2026-05-01T10:23:57.801Z</time></trkpt><trkpt lat="45.31163" lon="7.9527433"><ele>239.0</ele><time>2026-05-01T10:23:58.801Z</time></trkpt><trkpt lat="45.3116683" lon="7.9528883"><ele>239.0</ele><time>2026-05-01T10:23:59.801Z</time></trkpt><trkpt lat="45.311725" lon="7.953015"><ele>239.0</ele><time>2026-05-01T10:24:00.801Z</time></trkpt><trkpt lat="45.3118033" lon="7.9531317"><ele>239.0</ele><time>2026-05-01T10:24:01.801Z</time></trkpt><trkpt lat="45.3119033" lon="7.9532433"><ele>239.0</ele><time>2026-05-01T10:24:02.801Z</time></trkpt><trkpt lat="45.3120183" lon="7.9533533"><ele>239.0</ele><time>2026-05-01T10:24:03.801Z</time></trkpt><trkpt lat="45.3121167" lon="7.9534467"><ele>239.0</ele><time>2026-05-01T10:24:04.801Z</time></trkpt><trkpt lat="45.3122183" lon="7.953505"><ele>239.0</ele><time>2026-05-01T10:24:05.801Z</time></trkpt><trkpt lat="45.3123317" lon="7.9535317"><ele>239.0</ele><time>2026-05-01T10:24:06.801Z</time></trkpt><trkpt lat="45.31246" lon="7.9535633"><ele>239.0</ele><time>2026-05-01T10:24:07.801Z</time></trkpt><trkpt lat="45.3125667" lon="7.9535983"><ele>238.99999999999997</ele><time>2026-05-01T10:24:08.801Z</time></trkpt><trkpt lat="45.3126517" lon="7.9536517"><ele>238.99999999999997</ele><time>2026-05-01T10:24:09.801Z</time></trkpt><trkpt lat="45.3127367" lon="7.9537233"><ele>239.0</ele><time>2026-05-01T10:24:10.801Z</time></trkpt><trkpt lat="45.3128333" lon="7.9538217"><ele>239.0</ele><time>2026-05-01T10:24:11.801Z</time></trkpt><trkpt lat="45.31295" lon="7.9539533"><ele>239.33333333333334</ele><time>2026-05-01T10:24:12.801Z</time></trkpt><trkpt lat="45.3130783" lon="7.9540817"><ele>239.66666666666669</ele><time>2026-05-01T10:24:13.801Z</time></trkpt><trkpt lat="45.3132183" lon="7.9542117"><ele>240.0</ele><time>2026-05-01T10:24:14.801Z</time></trkpt><trkpt lat="45.3133733" lon="7.9543267"><ele>240.0</ele><time>2026-05-01T10:24:15.801Z</time></trkpt><trkpt lat="45.313525" lon="7.954435"><ele>240.0</ele><time>2026-05-01T10:24:16.801Z</time></trkpt><trkpt lat="45.3136517" lon="7.9545317"><ele>240.0</ele><time>2026-05-01T10:24:17.801Z</time></trkpt><trkpt lat="45.31375" lon="7.9546133"><ele>240.0</ele><time>2026-05-01T10:24:18.801Z</time></trkpt><trkpt lat="45.3138417" lon="7.9546617"><ele>240.0</ele><time>2026-05-01T10:24:19.8Z</time></trkpt><trkpt lat="45.3139283" lon="7.9546967"><ele>240.0</ele><time>2026-05-01T10:24:20.801Z</time></trkpt><trkpt lat="45.3140417" lon="7.9547067"><ele>240.0</ele><time>2026-05-01T10:24:21.801Z</time></trkpt><trkpt lat="45.314185" lon="7.9546933"><ele>240.0</ele><time>2026-05-01T10:24:22.801Z</time></trkpt><trkpt lat="45.314345" lon="7.954665"><ele>240.0</ele><time>2026-05-01T10:24:23.801Z</time></trkpt><trkpt lat="45.3145217" lon="7.9546417"><ele>240.0</ele><time>2026-05-01T10:24:24.801Z</time></trkpt><trkpt lat="45.3147033" lon="7.95463"><ele>240.0</ele><time>2026-05-01T10:24:25.801Z</time></trkpt><trkpt lat="45.31487" lon="7.95463"><ele>239.75</ele><time>2026-05-01T10:24:26.801Z</time></trkpt><trkpt lat="45.315025" lon="7.9546167"><ele>239.5</ele><time>2026-05-01T10:24:27.801Z</time></trkpt><trkpt lat="45.315145" lon="7.954615"><ele>239.25</ele><time>2026-05-01T10:24:28.801Z</time></trkpt><trkpt lat="45.31524" lon="7.95461"><ele>239.0</ele><time>2026-05-01T10:24:29.801Z</time></trkpt><trkpt lat="45.3153467" lon="7.9546117"><ele>239.0</ele><time>2026-05-01T10:24:30.801Z</time></trkpt><trkpt lat="45.3154367" lon="7.9546317"><ele>238.99999999999997</ele><time>2026-05-01T10:24:31.801Z</time></trkpt><trkpt lat="45.315515" lon="7.95467"><ele>238.99999999999997</ele><time>2026-05-01T10:24:32.801Z</time></trkpt><trkpt lat="45.3156017" lon="7.9547367"><ele>239.0</ele><time>2026-05-01T10:24:33.801Z</time></trkpt><trkpt lat="45.3156833" lon="7.9548533"><ele>239.0</ele><time>2026-05-01T10:24:34.801Z</time></trkpt><trkpt lat="45.3157533" lon="7.9550133"><ele>238.5</ele><time>2026-05-01T10:24:35.801Z</time></trkpt><trkpt lat="45.3158233" lon="7.9551867"><ele>238.0</ele><time>2026-05-01T10:24:36.801Z</time></trkpt><trkpt lat="45.3158933" lon="7.9553667"><ele>237.5</ele><time>2026-05-01T10:24:37.801Z</time></trkpt><trkpt lat="45.3159583" lon="7.9555533"><ele>237.0</ele><time>2026-05-01T10:24:38.801Z</time></trkpt><trkpt lat="45.3160367" lon="7.955725"><ele>237.5</ele><time>2026-05-01T10:24:39.801Z</time></trkpt><trkpt lat="45.3161067" lon="7.9558833"><ele>238.0</ele><time>2026-05-01T10:24:40.801Z</time></trkpt><trkpt lat="45.316175" lon="7.9560167"><ele>238.5</ele><time>2026-05-01T10:24:41.801Z</time></trkpt><trkpt lat="45.3162317" lon="7.9561717"><ele>239.0</ele><time>2026-05-01T10:24:42.801Z</time></trkpt><trkpt lat="45.31629" lon="7.956335"><ele>239.0</ele><time>2026-05-01T10:24:43.801Z</time></trkpt><trkpt lat="45.3163417" lon="7.9564983"><ele>239.0</ele><time>2026-05-01T10:24:44.8Z</time></trkpt><trkpt lat="45.3163983" lon="7.9566567"><ele>239.0</ele><time>2026-05-01T10:24:45.801Z</time></trkpt><trkpt lat="45.3164767" lon="7.9568017"><ele>239.0</ele><time>2026-05-01T10:24:46.801Z</time></trkpt><trkpt lat="45.3165517" lon="7.9569317"><ele>236.75</ele><time>2026-05-01T10:24:47.801Z</time></trkpt><trkpt lat="45.31665" lon="7.9570517"><ele>234.5</ele><time>2026-05-01T10:24:48.801Z</time></trkpt><trkpt lat="45.3167717" lon="7.9571583"><ele>232.25</ele><time>2026-05-01T10:24:49.8Z</time></trkpt><trkpt lat="45.316905" lon="7.9572433"><ele>230.0</ele><time>2026-05-01T10:24:50.801Z</time></trkpt><trkpt lat="45.3170383" lon="7.9573233"><ele>230.0</ele><time>2026-05-01T10:24:51.801Z</time></trkpt><trkpt lat="45.31716" lon="7.9573917"><ele>230.0</ele><time>2026-05-01T10:24:52.801Z</time></trkpt><trkpt lat="45.31727" lon="7.9574517"><ele>230.0</ele><time>2026-05-01T10:24:53.801Z</time></trkpt><trkpt lat="45.3173783" lon="7.9575083"><ele>230.0</ele><time>2026-05-01T10:24:54.801Z</time></trkpt><trkpt lat="45.3174733" lon="7.9575633"><ele>230.33333333333334</ele><time>2026-05-01T10:24:55.801Z</time></trkpt><trkpt lat="45.3175667" lon="7.9576283"><ele>230.66666666666669</ele><time>2026-05-01T10:24:56.801Z</time></trkpt><trkpt lat="45.3176567" lon="7.9576833"><ele>231.0</ele><time>2026-05-01T10:24:57.801Z</time></trkpt><trkpt lat="45.3177283" lon="7.95774"><ele>231.33333333333331</ele><time>2026-05-01T10:24:58.801Z</time></trkpt><trkpt lat="45.3177983" lon="7.9577867"><ele>231.66666666666666</ele><time>2026-05-01T10:24:59.801Z</time></trkpt><trkpt lat="45.31787" lon="7.9578317"><ele>232.0</ele><time>2026-05-01T10:25:00.801Z</time></trkpt><trkpt lat="45.317945" lon="7.95787"><ele>232.00000000000003</ele><time>2026-05-01T10:25:01.801Z</time></trkpt><trkpt lat="45.3180083" lon="7.9579083"><ele>232.0</ele><time>2026-05-01T10:25:02.801Z</time></trkpt><trkpt lat="45.3180633" lon="7.9579567"><ele>232.00000000000003</ele><time>2026-05-01T10:25:03.801Z</time></trkpt><trkpt lat="45.318125" lon="7.9580133"><ele>232.00000000000003</ele><time>2026-05-01T10:25:04.801Z</time></trkpt><trkpt lat="45.3181817" lon="7.9580717"><ele>232.0</ele><time>2026-05-01T10:25:05.801Z</time></trkpt><trkpt lat="45.3182333" lon="7.9581333"><ele>232.00000000000003</ele><time>2026-05-01T10:25:06.801Z</time></trkpt><trkpt lat="45.3182883" lon="7.9581883"><ele>232.00000000000003</ele><time>2026-05-01T10:25:07.801Z</time></trkpt><trkpt lat="45.3183483" lon="7.958245"><ele>232.33333333333331</ele><time>2026-05-01T10:25:08.801Z</time></trkpt><trkpt lat="45.31841" lon="7.9582983"><ele>232.66666666666666</ele><time>2026-05-01T10:25:09.801Z</time></trkpt><trkpt lat="45.318465" lon="7.9583533"><ele>233.0</ele><time>2026-05-01T10:25:10.801Z</time></trkpt><trkpt lat="45.3185217" lon="7.9584167"><ele>233.33333333333331</ele><time>2026-05-01T10:25:11.801Z</time></trkpt><trkpt lat="45.3185667" lon="7.958485"><ele>233.66666666666666</ele><time>2026-05-01T10:25:12.801Z</time></trkpt><trkpt lat="45.3186467" lon="7.9585417"><ele>234.0</ele><time>2026-05-01T10:25:14.801Z</time></trkpt><trkpt lat="45.3187217" lon="7.9585983"><ele>234.0</ele><time>2026-05-01T10:25:17.801Z</time></trkpt><trkpt lat="45.31877" lon="7.95867"><ele>234.0</ele><time>2026-05-01T10:25:19.801Z</time></trkpt><trkpt lat="45.3188233" lon="7.9588033"><ele>234.0</ele><time>2026-05-01T10:25:21.801Z</time></trkpt><trkpt lat="45.3188633" lon="7.9589"><ele>234.0</ele><time>2026-05-01T10:25:22.801Z</time></trkpt><trkpt lat="45.318905" lon="7.9590083"><ele>234.0</ele><time>2026-05-01T10:25:23.801Z</time></trkpt><trkpt lat="45.3189533" lon="7.95912"><ele>234.0</ele><time>2026-05-01T10:25:24.801Z</time></trkpt><trkpt lat="45.3189967" lon="7.9592467"><ele>233.39999999999998</ele><time>2026-05-01T10:25:25.801Z</time></trkpt><trkpt lat="45.3190367" lon="7.9593733"><ele>232.79999999999998</ele><time>2026-05-01T10:25:26.801Z</time></trkpt><trkpt lat="45.31907" lon="7.9595117"><ele>232.20000000000002</ele><time>2026-05-01T10:25:27.801Z</time></trkpt><trkpt lat="45.3190917" lon="7.9596617"><ele>231.60000000000002</ele><time>2026-05-01T10:25:28.8Z</time></trkpt><trkpt lat="45.3191133" lon="7.9598117"><ele>231.0</ele><time>2026-05-01T10:25:29.801Z</time></trkpt><trkpt lat="45.3191217" lon="7.959975"><ele>230.25</ele><time>2026-05-01T10:25:30.801Z</time></trkpt><trkpt lat="45.31913" lon="7.9601433"><ele>229.5</ele><time>2026-05-01T10:25:31.801Z</time></trkpt><trkpt lat="45.3191333" lon="7.9603117"><ele>228.75</ele><time>2026-05-01T10:25:32.801Z</time></trkpt><trkpt lat="45.3191333" lon="7.9604867"><ele>228.0</ele><time>2026-05-01T10:25:33.801Z</time></trkpt><trkpt lat="45.3191267" lon="7.9606733"><ele>228.0</ele><time>2026-05-01T10:25:34.801Z</time></trkpt><trkpt lat="45.3191267" lon="7.9608633"><ele>228.0</ele><time>2026-05-01T10:25:35.801Z</time></trkpt><trkpt lat="45.3191217" lon="7.9610517"><ele>228.0</ele><time>2026-05-01T10:25:36.801Z</time></trkpt><trkpt lat="45.319105" lon="7.96124"><ele>228.0</ele><time>2026-05-01T10:25:37.801Z</time></trkpt><trkpt lat="45.319095" lon="7.9614267"><ele>227.75</ele><time>2026-05-01T10:25:38.801Z</time></trkpt><trkpt lat="45.31907" lon="7.9616167"><ele>227.5</ele><time>2026-05-01T10:25:39.801Z</time></trkpt><trkpt lat="45.3190667" lon="7.9617967"><ele>227.25</ele><time>2026-05-01T10:25:40.801Z</time></trkpt><trkpt lat="45.31907" lon="7.9619917"><ele>227.0</ele><time>2026-05-01T10:25:41.801Z</time></trkpt><trkpt lat="45.3190883" lon="7.962195"><ele>227.0</ele><time>2026-05-01T10:25:42.801Z</time></trkpt><trkpt lat="45.3191167" lon="7.9624"><ele>227.0</ele><time>2026-05-01T10:25:43.801Z</time></trkpt><trkpt lat="45.3191617" lon="7.9626033"><ele>227.0</ele><time>2026-05-01T10:25:44.801Z</time></trkpt><trkpt lat="45.3192083" lon="7.9628083"><ele>227.0</ele><time>2026-05-01T10:25:45.801Z</time></trkpt><trkpt lat="45.3192517" lon="7.9630233"><ele>227.0</ele><time>2026-05-01T10:25:46.801Z</time></trkpt><trkpt lat="45.3192933" lon="7.9632367"><ele>227.0</ele><time>2026-05-01T10:25:47.801Z</time></trkpt><trkpt lat="45.3193283" lon="7.9634417"><ele>227.0</ele><time>2026-05-01T10:25:48.801Z</time></trkpt><trkpt lat="45.3193583" lon="7.963655"><ele>227.0</ele><time>2026-05-01T10:25:49.801Z</time></trkpt><trkpt lat="45.3193967" lon="7.9638617"><ele>227.0</ele><time>2026-05-01T10:25:50.801Z</time></trkpt><trkpt lat="45.319425" lon="7.9640683"><ele>227.0</ele><time>2026-05-01T10:25:51.801Z</time></trkpt><trkpt lat="45.3194483" lon="7.9642683"><ele>227.0</ele><time>2026-05-01T10:25:52.801Z</time></trkpt><trkpt lat="45.319465" lon="7.9644717"><ele>227.0</ele><time>2026-05-01T10:25:53.801Z</time></trkpt><trkpt lat="45.31949" lon="7.964665"><ele>227.0</ele><time>2026-05-01T10:25:54.801Z</time></trkpt><trkpt lat="45.3194967" lon="7.96485"><ele>227.0</ele><time>2026-05-01T10:25:55.801Z</time></trkpt><trkpt lat="45.3195067" lon="7.9650267"><ele>227.0</ele><time>2026-05-01T10:25:56.801Z</time></trkpt><trkpt lat="45.31953" lon="7.9651833"><ele>227.33333333333334</ele><time>2026-05-01T10:25:57.801Z</time></trkpt><trkpt lat="45.31956" lon="7.965325"><ele>227.66666666666669</ele><time>2026-05-01T10:25:58.801Z</time></trkpt><trkpt lat="45.31959" lon="7.9654433"><ele>228.0</ele><time>2026-05-01T10:25:59.801Z</time></trkpt><trkpt lat="45.3196233" lon="7.9655417"><ele>228.33333333333331</ele><time>2026-05-01T10:26:00.801Z</time></trkpt><trkpt lat="45.3196483" lon="7.965625"><ele>228.66666666666666</ele><time>2026-05-01T10:26:01.801Z</time></trkpt><trkpt lat="45.31968" lon="7.9657217"><ele>229.0</ele><time>2026-05-01T10:26:03.801Z</time></trkpt><trkpt lat="45.3196367" lon="7.96581"><ele>229.79999999999998</ele><time>2026-05-01T10:26:06.801Z</time></trkpt><trkpt lat="45.3195367" lon="7.9659083"><ele>230.59999999999997</ele><time>2026-05-01T10:26:08.801Z</time></trkpt><trkpt lat="45.3194617" lon="7.965975"><ele>231.4</ele><time>2026-05-01T10:26:09.801Z</time></trkpt><trkpt lat="45.3193783" lon="7.966035"><ele>232.2</ele><time>2026-05-01T10:26:10.801Z</time></trkpt><trkpt lat="45.3192783" lon="7.9660983"><ele>233.0</ele><time>2026-05-01T10:26:11.801Z</time></trkpt><trkpt lat="45.3191667" lon="7.9661783"><ele>233.0</ele><time>2026-05-01T10:26:12.801Z</time></trkpt><trkpt lat="45.319065" lon="7.9662667"><ele>233.0</ele><time>2026-05-01T10:26:13.801Z</time></trkpt><trkpt lat="45.318975" lon="7.9663333"><ele>233.0</ele><time>2026-05-01T10:26:14.801Z</time></trkpt><trkpt lat="45.3189017" lon="7.9664017"><ele>233.0</ele><time>2026-05-01T10:26:15.801Z</time></trkpt><trkpt lat="45.3188383" lon="7.9664667"><ele>233.0</ele><time>2026-05-01T10:26:16.801Z</time></trkpt><trkpt lat="45.31878" lon="7.9665083"><ele>237.25</ele><time>2026-05-01T10:26:17.801Z</time></trkpt><trkpt lat="45.3186783" lon="7.9665183"><ele>241.5</ele><time>2026-05-01T10:26:19.801Z</time></trkpt><trkpt lat="45.318625" lon="7.96634"><ele>245.75</ele><time>2026-05-01T10:26:21.801Z</time></trkpt><trkpt lat="45.3185817" lon="7.9662067"><ele>250.0</ele><time>2026-05-01T10:26:22.801Z</time></trkpt><trkpt lat="45.3185117" lon="7.966055"><ele>250.0</ele><time>2026-05-01T10:26:23.801Z</time></trkpt><trkpt lat="45.31841" lon="7.96592"><ele>250.0</ele><time>2026-05-01T10:26:24.801Z</time></trkpt><trkpt lat="45.31832" lon="7.9657967"><ele>250.0</ele><time>2026-05-01T10:26:25.801Z</time></trkpt><trkpt lat="45.3182283" lon="7.96567"><ele>250.0</ele><time>2026-05-01T10:26:26.801Z</time></trkpt><trkpt lat="45.3181333" lon="7.9655517"><ele>250.8</ele><time>2026-05-01T10:26:27.801Z</time></trkpt><trkpt lat="45.31805" lon="7.9654517"><ele>251.6</ele><time>2026-05-01T10:26:28.801Z</time></trkpt><trkpt lat="45.3179833" lon="7.965325"><ele>252.39999999999998</ele><time>2026-05-01T10:26:29.8Z</time></trkpt><trkpt lat="45.31792" lon="7.9652267"><ele>253.2</ele><time>2026-05-01T10:26:30.801Z</time></trkpt><trkpt lat="45.317855" lon="7.9651367"><ele>254.0</ele><time>2026-05-01T10:26:31.801Z</time></trkpt><trkpt lat="45.317785" lon="7.9650917"><ele>254.0</ele><time>2026-05-01T10:26:32.801Z</time></trkpt><trkpt lat="45.3177133" lon="7.9650617"><ele>253.99999999999997</ele><time>2026-05-01T10:26:33.801Z</time></trkpt><trkpt lat="45.317635" lon="7.9650117"><ele>253.99999999999997</ele><time>2026-05-01T10:26:34.801Z</time></trkpt><trkpt lat="45.31756" lon="7.9649467"><ele>254.0</ele><time>2026-05-01T10:26:35.801Z</time></trkpt><trkpt lat="45.3174883" lon="7.9648517"><ele>254.0</ele><time>2026-05-01T10:26:36.801Z</time></trkpt><trkpt lat="45.317425" lon="7.96471"><ele>254.0</ele><time>2026-05-01T10:26:37.801Z</time></trkpt><trkpt lat="45.3173633" lon="7.9645733"><ele>254.0</ele><time>2026-05-01T10:26:38.801Z</time></trkpt><trkpt lat="45.3172917" lon="7.9644433"><ele>254.0</ele><time>2026-05-01T10:26:39.801Z</time></trkpt><trkpt lat="45.317215" lon="7.96432"><ele>254.0</ele><time>2026-05-01T10:26:40.801Z</time></trkpt><trkpt lat="45.3171333" lon="7.964195"><ele>254.0</ele><time>2026-05-01T10:26:41.801Z</time></trkpt><trkpt lat="45.31707" lon="7.96407"><ele>253.99999999999997</ele><time>2026-05-01T10:26:42.801Z</time></trkpt><trkpt lat="45.3170283" lon="7.9639267"><ele>253.99999999999997</ele><time>2026-05-01T10:26:43.801Z</time></trkpt><trkpt lat="45.31699" lon="7.9637917"><ele>254.0</ele><time>2026-05-01T10:26:44.801Z</time></trkpt><trkpt lat="45.3169467" lon="7.9636717"><ele>254.0</ele><time>2026-05-01T10:26:45.801Z</time></trkpt><trkpt lat="45.3168983" lon="7.9635717"><ele>254.00000000000003</ele><time>2026-05-01T10:26:46.801Z</time></trkpt><trkpt lat="45.3168433" lon="7.9634967"><ele>254.0</ele><time>2026-05-01T10:26:47.801Z</time></trkpt><trkpt lat="45.316785" lon="7.9634533"><ele>254.0</ele><time>2026-05-01T10:26:48.801Z</time></trkpt><trkpt lat="45.316715" lon="7.9634317"><ele>254.0</ele><time>2026-05-01T10:26:49.801Z</time></trkpt><trkpt lat="45.3166283" lon="7.9634333"><ele>254.00000000000003</ele><time>2026-05-01T10:26:50.801Z</time></trkpt><trkpt lat="45.3165517" lon="7.9634533"><ele>254.0</ele><time>2026-05-01T10:26:51.8Z</time></trkpt><trkpt lat="45.3164633" lon="7.9635"><ele>254.00000000000003</ele><time>2026-05-01T10:26:53.801Z</time></trkpt><trkpt lat="45.3164383" lon="7.9636117"><ele>254.0</ele><time>2026-05-01T10:27:00.801Z</time></trkpt><trkpt lat="45.31643" lon="7.9637817"><ele>254.0</ele><time>2026-05-01T10:27:02.801Z</time></trkpt><trkpt lat="45.3164383" lon="7.9638867"><ele>254.0</ele><time>2026-05-01T10:27:03.801Z</time></trkpt><trkpt lat="45.316455" lon="7.9640067"><ele>254.00000000000003</ele><time>2026-05-01T10:27:04.801Z</time></trkpt><trkpt lat="45.31647" lon="7.9641267"><ele>254.0</ele><time>2026-05-01T10:27:05.801Z</time></trkpt><trkpt lat="45.31647" lon="7.964245"><ele>254.16666666666669</ele><time>2026-05-01T10:27:06.801Z</time></trkpt><trkpt lat="45.3164633" lon="7.964365"><ele>254.33333333333334</ele><time>2026-05-01T10:27:07.801Z</time></trkpt><trkpt lat="45.316445" lon="7.96448"><ele>254.5</ele><time>2026-05-01T10:27:08.801Z</time></trkpt><trkpt lat="45.3164133" lon="7.9645833"><ele>254.66666666666669</ele><time>2026-05-01T10:27:09.801Z</time></trkpt><trkpt lat="45.316365" lon="7.9646917"><ele>254.83333333333334</ele><time>2026-05-01T10:27:10.801Z</time></trkpt><trkpt lat="45.31631" lon="7.96479"><ele>255.0</ele><time>2026-05-01T10:27:11.801Z</time></trkpt><trkpt lat="45.3162483" lon="7.9648983"><ele>255.0</ele><time>2026-05-01T10:27:12.801Z</time></trkpt><trkpt lat="45.3161933" lon="7.9649967"><ele>255.0</ele><time>2026-05-01T10:27:13.801Z</time></trkpt><trkpt lat="45.31614" lon="7.9650883"><ele>255.0</ele><time>2026-05-01T10:27:14.801Z</time></trkpt><trkpt lat="45.3160883" lon="7.96518"><ele>255.0</ele><time>2026-05-01T10:27:15.801Z</time></trkpt><trkpt lat="45.31603" lon="7.9652667"><ele>255.0</ele><time>2026-05-01T10:27:16.801Z</time></trkpt><trkpt lat="45.3159733" lon="7.96535"><ele>255.0</ele><time>2026-05-01T10:27:17.801Z</time></trkpt><trkpt lat="45.3159117" lon="7.965435"><ele>255.66666666666666</ele><time>2026-05-01T10:27:18.801Z</time></trkpt><trkpt lat="45.3158517" lon="7.9655233"><ele>256.3333333333333</ele><time>2026-05-01T10:27:19.801Z</time></trkpt><trkpt lat="45.315805" lon="7.96561"><ele>257.0</ele><time>2026-05-01T10:27:20.801Z</time></trkpt><trkpt lat="45.3157767" lon="7.96571"><ele>257.66666666666663</ele><time>2026-05-01T10:27:21.801Z</time></trkpt><trkpt lat="45.3157767" lon="7.9658267"><ele>258.3333333333333</ele><time>2026-05-01T10:27:22.801Z</time></trkpt><trkpt lat="45.3157867" lon="7.9659567"><ele>259.0</ele><time>2026-05-01T10:27:23.801Z</time></trkpt><trkpt lat="45.3157917" lon="7.9660867"><ele>259.66666666666663</ele><time>2026-05-01T10:27:24.801Z</time></trkpt><trkpt lat="45.3157967" lon="7.9662067"><ele>260.3333333333333</ele><time>2026-05-01T10:27:25.801Z</time></trkpt><trkpt lat="45.3157783" lon="7.9663183"><ele>261.0</ele><time>2026-05-01T10:27:26.801Z</time></trkpt><trkpt lat="45.3157567" lon="7.9664083"><ele>261.6666666666667</ele><time>2026-05-01T10:27:27.801Z</time></trkpt><trkpt lat="45.3157217" lon="7.9665083"><ele>262.33333333333337</ele><time>2026-05-01T10:27:28.801Z</time></trkpt><trkpt lat="45.3156917" lon="7.9665967"><ele>263.0</ele><time>2026-05-01T10:27:29.801Z</time></trkpt><trkpt lat="45.31563" lon="7.96672"><ele>263.83333333333337</ele><time>2026-05-01T10:27:31.801Z</time></trkpt><trkpt lat="45.3155717" lon="7.966775"><ele>264.6666666666667</ele><time>2026-05-01T10:47:33.8Z</time></trkpt><trkpt lat="45.3155267" lon="7.9668767"><ele>265.5</ele><time>2026-05-01T10:49:46.8Z</time></trkpt><trkpt lat="45.315445" lon="7.9670183"><ele>266.3333333333333</ele><time>2026-05-01T10:49:48.8Z</time></trkpt><trkpt lat="45.3153917" lon="7.967105"><ele>267.16666666666663</ele><time>2026-05-01T10:49:49.8Z</time></trkpt><trkpt lat="45.31534" lon="7.9671767"><ele>268.0</ele><time>2026-05-01T10:49:50.8Z</time></trkpt><trkpt lat="45.315285" lon="7.96723"><ele>270.66666666666663</ele><time>2026-05-01T10:49:51.8Z</time></trkpt><trkpt lat="45.3152233" lon="7.967275"><ele>273.3333333333333</ele><time>2026-05-01T10:49:52.8Z</time></trkpt><trkpt lat="45.3151167" lon="7.9673467"><ele>276.0</ele><time>2026-05-01T10:49:54.8Z</time></trkpt><trkpt lat="45.315045" lon="7.9674683"><ele>278.6666666666667</ele><time>2026-05-01T10:49:56.8Z</time></trkpt><trkpt lat="45.315035" lon="7.9675583"><ele>281.33333333333337</ele><time>2026-05-01T10:49:57.8Z</time></trkpt><trkpt lat="45.3150517" lon="7.9676583"><ele>284.0</ele><time>2026-05-01T10:49:58.8Z</time></trkpt><trkpt lat="45.3150783" lon="7.9677583"><ele>285.6666666666667</ele><time>2026-05-01T10:49:59.8Z</time></trkpt><trkpt lat="45.31511" lon="7.967885"><ele>287.33333333333337</ele><time>2026-05-01T10:50:00.8Z</time></trkpt><trkpt lat="45.3151533" lon="7.968005"><ele>289.0</ele><time>2026-05-01T10:50:01.8Z</time></trkpt><trkpt lat="45.315195" lon="7.9681117"><ele>290.6666666666667</ele><time>2026-05-01T10:50:02.8Z</time></trkpt><trkpt lat="45.3152317" lon="7.9681917"><ele>292.3333333333333</ele><time>2026-05-01T10:50:03.8Z</time></trkpt><trkpt lat="45.315265" lon="7.9683017"><ele>294.0</ele><time>2026-05-01T10:50:05.8Z</time></trkpt><trkpt lat="45.315215" lon="7.9684"><ele>295.14285714285717</ele><time>2026-05-01T10:50:07.8Z</time></trkpt><trkpt lat="45.3151683" lon="7.9684683"><ele>296.2857142857143</ele><time>2026-05-01T10:50:08.8Z</time></trkpt><trkpt lat="45.3151283" lon="7.96855"><ele>297.42857142857144</ele><time>2026-05-01T10:50:09.8Z</time></trkpt><trkpt lat="45.3150917" lon="7.9686317"><ele>298.57142857142856</ele><time>2026-05-01T10:50:10.8Z</time></trkpt><trkpt lat="45.315055" lon="7.9687067"><ele>299.7142857142857</ele><time>2026-05-01T10:50:11.8Z</time></trkpt><trkpt lat="45.3150183" lon="7.9687833"><ele>300.8571428571429</ele><time>2026-05-01T10:50:12.8Z</time></trkpt><trkpt lat="45.314965" lon="7.968855"><ele>302.0</ele><time>2026-05-01T10:50:13.8Z</time></trkpt><trkpt lat="45.3149133" lon="7.968925"><ele>302.0</ele><time>2026-05-01T10:50:14.8Z</time></trkpt><trkpt lat="45.3148633" lon="7.968985"><ele>302.0</ele><time>2026-05-01T10:50:15.8Z</time></trkpt><trkpt lat="45.3147617" lon="7.9691133"><ele>302.0</ele><time>2026-05-01T10:50:17.8Z</time></trkpt><trkpt lat="45.3147" lon="7.969185"><ele>302.0</ele><time>2026-05-01T10:50:18.8Z</time></trkpt><trkpt lat="45.3146367" lon="7.96927"><ele>302.0</ele><time>2026-05-01T10:50:19.8Z</time></trkpt><trkpt lat="45.3145617" lon="7.96936"><ele>300.0</ele><time>2026-05-01T10:50:20.8Z</time></trkpt><trkpt lat="45.31448" lon="7.9694567"><ele>298.0</ele><time>2026-05-01T10:50:21.8Z</time></trkpt><trkpt lat="45.3143983" lon="7.9695467"><ele>296.0</ele><time>2026-05-01T10:50:22.8Z</time></trkpt><trkpt lat="45.3143317" lon="7.96962"><ele>294.0</ele><time>2026-05-01T10:50:23.8Z</time></trkpt><trkpt lat="45.314265" lon="7.9696933"><ele>292.0</ele><time>2026-05-01T10:50:24.8Z</time></trkpt><trkpt lat="45.3141967" lon="7.96976"><ele>292.0</ele><time>2026-05-01T10:50:25.8Z</time></trkpt><trkpt lat="45.3141317" lon="7.9698383"><ele>292.0</ele><time>2026-05-01T10:50:26.8Z</time></trkpt><trkpt lat="45.314075" lon="7.9699117"><ele>292.0</ele><time>2026-05-01T10:50:27.8Z</time></trkpt><trkpt lat="45.314015" lon="7.96997"><ele>292.0</ele><time>2026-05-01T10:50:28.8Z</time></trkpt><trkpt lat="45.313915" lon="7.9700717"><ele>292.0</ele><time>2026-05-01T10:50:30.8Z</time></trkpt><trkpt lat="45.3138233" lon="7.9701333"><ele>289.0</ele><time>2026-05-01T10:50:32.8Z</time></trkpt><trkpt lat="45.3137" lon="7.9701817"><ele>286.0</ele><time>2026-05-01T10:50:34.8Z</time></trkpt><trkpt lat="45.3136283" lon="7.9701917"><ele>283.0</ele><time>2026-05-01T10:50:35.8Z</time></trkpt><trkpt lat="45.31356" lon="7.9702167"><ele>280.0</ele><time>2026-05-01T10:50:36.8Z</time></trkpt><trkpt lat="45.3134967" lon="7.9702383"><ele>277.0</ele><time>2026-05-01T10:50:37.8Z</time></trkpt><trkpt lat="45.3133867" lon="7.970295"><ele>277.0</ele><time>2026-05-01T10:50:39.8Z</time></trkpt><trkpt lat="45.313325" lon="7.9703617"><ele>277.0</ele><time>2026-05-01T10:50:41.799Z</time></trkpt><trkpt lat="45.3133017" lon="7.9705133"><ele>277.0</ele><time>2026-05-01T10:50:43.799Z</time></trkpt><trkpt lat="45.3132967" lon="7.9706383"><ele>277.0</ele><time>2026-05-01T10:50:44.799Z</time></trkpt><trkpt lat="45.3132917" lon="7.970775"><ele>277.0</ele><time>2026-05-01T10:50:45.799Z</time></trkpt><trkpt lat="45.3133033" lon="7.9709217"><ele>276.4</ele><time>2026-05-01T10:50:46.799Z</time></trkpt><trkpt lat="45.3133083" lon="7.971075"><ele>275.79999999999995</ele><time>2026-05-01T10:50:47.799Z</time></trkpt><trkpt lat="45.313305" lon="7.97122"><ele>275.2</ele><time>2026-05-01T10:50:48.799Z</time></trkpt><trkpt lat="45.3132983" lon="7.9713583"><ele>274.59999999999997</ele><time>2026-05-01T10:50:49.799Z</time></trkpt><trkpt lat="45.3132983" lon="7.971495"><ele>274.0</ele><time>2026-05-01T10:50:50.799Z</time></trkpt><trkpt lat="45.3133133" lon="7.97164"><ele>273.75</ele><time>2026-05-01T10:50:51.799Z</time></trkpt><trkpt lat="45.3133417" lon="7.9717833"><ele>273.5</ele><time>2026-05-01T10:50:52.799Z</time></trkpt><trkpt lat="45.3133817" lon="7.9719333"><ele>273.25</ele><time>2026-05-01T10:50:53.799Z</time></trkpt><trkpt lat="45.3134317" lon="7.97208"><ele>273.0</ele><time>2026-05-01T10:50:54.799Z</time></trkpt><trkpt lat="45.31349" lon="7.972225"><ele>273.0</ele><time>2026-05-01T10:50:55.799Z</time></trkpt><trkpt lat="45.3135367" lon="7.9723583"><ele>273.0</ele><time>2026-05-01T10:50:56.799Z</time></trkpt><trkpt lat="45.3135783" lon="7.972495"><ele>273.0</ele><time>2026-05-01T10:50:57.799Z</time></trkpt><trkpt lat="45.3135933" lon="7.972645"><ele>273.0</ele><time>2026-05-01T10:50:58.799Z</time></trkpt><trkpt lat="45.3135867" lon="7.9728017"><ele>273.0</ele><time>2026-05-01T10:50:59.799Z</time></trkpt><trkpt lat="45.3135817" lon="7.972955"><ele>273.4</ele><time>2026-05-01T10:51:00.799Z</time></trkpt><trkpt lat="45.313575" lon="7.9730933"><ele>273.8</ele><time>2026-05-01T10:51:01.799Z</time></trkpt><trkpt lat="45.3135567" lon="7.9732083"><ele>274.2</ele><time>2026-05-01T10:51:02.799Z</time></trkpt><trkpt lat="45.3135067" lon="7.9733383"><ele>274.6</ele><time>2026-05-01T10:51:04.799Z</time></trkpt><trkpt lat="45.313455" lon="7.9734167"><ele>275.0</ele><time>2026-05-01T10:51:07.798Z</time></trkpt><trkpt lat="45.3133717" lon="7.9734817"><ele>275.0</ele><time>2026-05-01T10:51:09.799Z</time></trkpt><trkpt lat="45.3133117" lon="7.973525"><ele>275.0</ele><time>2026-05-01T10:51:10.798Z</time></trkpt><trkpt lat="45.3132467" lon="7.9735733"><ele>275.0</ele><time>2026-05-01T10:51:11.799Z</time></trkpt><trkpt lat="45.3131833" lon="7.9736167"><ele>275.0</ele><time>2026-05-01T10:51:12.799Z</time></trkpt><trkpt lat="45.3131083" lon="7.9736517"><ele>275.0</ele><time>2026-05-01T10:51:14.799Z</time></trkpt><trkpt lat="45.3131817" lon="7.9736633"><ele>275.0</ele><time>2026-05-01T10:51:20.799Z</time></trkpt><trkpt lat="45.3132917" lon="7.973555"><ele>275.0</ele><time>2026-05-01T10:51:22.799Z</time></trkpt><trkpt lat="45.3133683" lon="7.9734967"><ele>275.0</ele><time>2026-05-01T10:51:23.799Z</time></trkpt><trkpt lat="45.313445" lon="7.9734433"><ele>275.0</ele><time>2026-05-01T10:51:24.799Z</time></trkpt><trkpt lat="45.3135417" lon="7.973385"><ele>275.0</ele><time>2026-05-01T10:51:26.799Z</time></trkpt><trkpt lat="45.313605" lon="7.9734867"><ele>275.0</ele><time>2026-05-01T10:51:29.799Z</time></trkpt><trkpt lat="45.3136417" lon="7.9736833"><ele>275.0</ele><time>2026-05-01T10:51:31.799Z</time></trkpt><trkpt lat="45.31367" lon="7.9738117"><ele>275.0</ele><time>2026-05-01T10:51:32.799Z</time></trkpt><trkpt lat="45.3137" lon="7.9739467"><ele>275.0</ele><time>2026-05-01T10:51:33.799Z</time></trkpt><trkpt lat="45.313735" lon="7.9740917"><ele>275.0</ele><time>2026-05-01T10:51:34.799Z</time></trkpt><trkpt lat="45.3137867" lon="7.974235"><ele>275.0</ele><time>2026-05-01T10:51:35.799Z</time></trkpt><trkpt lat="45.3138483" lon="7.9743833"><ele>275.75</ele><time>2026-05-01T10:51:36.799Z</time></trkpt><trkpt lat="45.3139183" lon="7.9745267"><ele>276.5</ele><time>2026-05-01T10:51:37.799Z</time></trkpt><trkpt lat="45.3139867" lon="7.97469"><ele>277.25</ele><time>2026-05-01T10:51:38.799Z</time></trkpt><trkpt lat="45.3140483" lon="7.9748567"><ele>278.0</ele><time>2026-05-01T10:51:39.799Z</time></trkpt><trkpt lat="45.31411" lon="7.9750083"><ele>277.8</ele><time>2026-05-01T10:51:40.799Z</time></trkpt><trkpt lat="45.3141733" lon="7.9751417"><ele>277.6</ele><time>2026-05-01T10:51:41.799Z</time></trkpt><trkpt lat="45.3142283" lon="7.97527"><ele>277.4</ele><time>2026-05-01T10:51:42.799Z</time></trkpt><trkpt lat="45.314275" lon="7.9754"><ele>277.2</ele><time>2026-05-01T10:51:43.799Z</time></trkpt><trkpt lat="45.3143183" lon="7.9755333"><ele>277.0</ele><time>2026-05-01T10:51:44.799Z</time></trkpt><trkpt lat="45.3143567" lon="7.97567"><ele>277.0</ele><time>2026-05-01T10:51:45.799Z</time></trkpt><trkpt lat="45.31439" lon="7.975805"><ele>277.0</ele><time>2026-05-01T10:51:46.799Z</time></trkpt><trkpt lat="45.3144217" lon="7.9759317"><ele>277.0</ele><time>2026-05-01T10:51:47.799Z</time></trkpt><trkpt lat="45.3144483" lon="7.9760517"><ele>277.0</ele><time>2026-05-01T10:51:48.799Z</time></trkpt><trkpt lat="45.31448" lon="7.9761633"><ele>277.0</ele><time>2026-05-01T10:51:49.799Z</time></trkpt><trkpt lat="45.3145183" lon="7.976265"><ele>277.0</ele><time>2026-05-01T10:51:50.799Z</time></trkpt><trkpt lat="45.3145467" lon="7.9763667"><ele>277.0</ele><time>2026-05-01T10:51:51.799Z</time></trkpt><trkpt lat="45.3145617" lon="7.976455"><ele>277.0</ele><time>2026-05-01T10:51:52.799Z</time></trkpt><trkpt lat="45.3145517" lon="7.9766517"><ele>277.0</ele><time>2026-05-01T10:51:54.799Z</time></trkpt><trkpt lat="45.3145683" lon="7.9767683"><ele>277.0</ele><time>2026-05-01T10:51:55.799Z</time></trkpt><trkpt lat="45.31459" lon="7.9769"><ele>277.0</ele><time>2026-05-01T10:51:56.799Z</time></trkpt><trkpt lat="45.31462" lon="7.9770367"><ele>277.0</ele><time>2026-05-01T10:51:57.799Z</time></trkpt><trkpt lat="45.3146533" lon="7.97717"><ele>277.0</ele><time>2026-05-01T10:51:58.799Z</time></trkpt><trkpt lat="45.3146783" lon="7.9773117"><ele>277.0</ele><time>2026-05-01T10:51:59.798Z</time></trkpt><trkpt lat="45.3146933" lon="7.9774583"><ele>277.0</ele><time>2026-05-01T10:52:00.799Z</time></trkpt><trkpt lat="45.31471" lon="7.9776083"><ele>277.0</ele><time>2026-05-01T10:52:01.799Z</time></trkpt><trkpt lat="45.314725" lon="7.9777633"><ele>276.6</ele><time>2026-05-01T10:52:02.799Z</time></trkpt><trkpt lat="45.314735" lon="7.9779167"><ele>276.2</ele><time>2026-05-01T10:52:03.799Z</time></trkpt><trkpt lat="45.31475" lon="7.9780767"><ele>275.8</ele><time>2026-05-01T10:52:04.799Z</time></trkpt><trkpt lat="45.31477" lon="7.978235"><ele>275.4</ele><time>2026-05-01T10:52:05.799Z</time></trkpt><trkpt lat="45.3148033" lon="7.9783867"><ele>275.0</ele><time>2026-05-01T10:52:06.799Z</time></trkpt><trkpt lat="45.31484" lon="7.9785383"><ele>276.6</ele><time>2026-05-01T10:52:07.799Z</time></trkpt><trkpt lat="45.3148867" lon="7.97868"><ele>278.2</ele><time>2026-05-01T10:52:08.799Z</time></trkpt><trkpt lat="45.3149333" lon="7.9788183"><ele>279.8</ele><time>2026-05-01T10:52:09.799Z</time></trkpt><trkpt lat="45.3149767" lon="7.9789417"><ele>281.4</ele><time>2026-05-01T10:52:10.799Z</time></trkpt><trkpt lat="45.3150017" lon="7.979055"><ele>283.0</ele><time>2026-05-01T10:52:11.799Z</time></trkpt><trkpt lat="45.3150233" lon="7.9791583"><ele>282.6</ele><time>2026-05-01T10:52:12.799Z</time></trkpt><trkpt lat="45.3150333" lon="7.9792817"><ele>282.20000000000005</ele><time>2026-05-01T10:52:13.799Z</time></trkpt><trkpt lat="45.315035" lon="7.9794067"><ele>281.8</ele><time>2026-05-01T10:52:14.799Z</time></trkpt><trkpt lat="45.3150383" lon="7.9795483"><ele>281.40000000000003</ele><time>2026-05-01T10:52:15.799Z</time></trkpt><trkpt lat="45.3150433" lon="7.979685"><ele>281.0</ele><time>2026-05-01T10:52:16.798Z</time></trkpt><trkpt lat="45.3150417" lon="7.9798133"><ele>281.0</ele><time>2026-05-01T10:52:17.798Z</time></trkpt><trkpt lat="45.3150367" lon="7.9799267"><ele>281.0</ele><time>2026-05-01T10:52:18.799Z</time></trkpt><trkpt lat="45.3150233" lon="7.9800467"><ele>281.0</ele><time>2026-05-01T10:52:19.799Z</time></trkpt><trkpt lat="45.3150133" lon="7.9801717"><ele>281.0</ele><time>2026-05-01T10:52:20.799Z</time></trkpt><trkpt lat="45.3150033" lon="7.9803"><ele>281.0</ele><time>2026-05-01T10:52:21.799Z</time></trkpt><trkpt lat="45.3149717" lon="7.9804417"><ele>281.0</ele><time>2026-05-01T10:52:22.799Z</time></trkpt><trkpt lat="45.3149433" lon="7.98057"><ele>281.0</ele><time>2026-05-01T10:52:23.799Z</time></trkpt><trkpt lat="45.314925" lon="7.98069"><ele>281.0</ele><time>2026-05-01T10:52:24.799Z</time></trkpt><trkpt lat="45.3149167" lon="7.980815"><ele>281.0</ele><time>2026-05-01T10:52:25.799Z</time></trkpt><trkpt lat="45.3149217" lon="7.9809467"><ele>281.0</ele><time>2026-05-01T10:52:26.799Z</time></trkpt><trkpt lat="45.3149333" lon="7.9810783"><ele>281.0</ele><time>2026-05-01T10:52:27.799Z</time></trkpt><trkpt lat="45.3149417" lon="7.9812167"><ele>280.6666666666667</ele><time>2026-05-01T10:52:28.799Z</time></trkpt><trkpt lat="45.3149567" lon="7.981335"><ele>280.33333333333337</ele><time>2026-05-01T10:52:29.799Z</time></trkpt><trkpt lat="45.3149867" lon="7.9814483"><ele>280.0</ele><time>2026-05-01T10:52:30.799Z</time></trkpt><trkpt lat="45.3150217" lon="7.981565"><ele>279.6666666666667</ele><time>2026-05-01T10:52:31.799Z</time></trkpt><trkpt lat="45.3150483" lon="7.98168"><ele>279.3333333333333</ele><time>2026-05-01T10:52:32.799Z</time></trkpt><trkpt lat="45.31507" lon="7.9817933"><ele>279.0</ele><time>2026-05-01T10:52:33.798Z</time></trkpt><trkpt lat="45.3150833" lon="7.9818967"><ele>279.0</ele><time>2026-05-01T10:52:34.799Z</time></trkpt><trkpt lat="45.3151017" lon="7.9820117"><ele>279.0</ele><time>2026-05-01T10:52:35.799Z</time></trkpt><trkpt lat="45.31512" lon="7.9821167"><ele>279.0</ele><time>2026-05-01T10:52:36.799Z</time></trkpt><trkpt lat="45.315135" lon="7.982235"><ele>279.0</ele><time>2026-05-01T10:52:37.799Z</time></trkpt><trkpt lat="45.3151567" lon="7.9823483"><ele>279.0</ele><time>2026-05-01T10:52:38.799Z</time></trkpt><trkpt lat="45.31518" lon="7.98247"><ele>279.0</ele><time>2026-05-01T10:52:39.798Z</time></trkpt><trkpt lat="45.3152033" lon="7.9825867"><ele>278.6666666666667</ele><time>2026-05-01T10:52:40.799Z</time></trkpt><trkpt lat="45.31523" lon="7.9827067"><ele>278.3333333333333</ele><time>2026-05-01T10:52:41.799Z</time></trkpt><trkpt lat="45.31526" lon="7.9828183"><ele>278.0</ele><time>2026-05-01T10:52:42.799Z</time></trkpt><trkpt lat="45.3152817" lon="7.9829367"><ele>277.66666666666663</ele><time>2026-05-01T10:52:43.799Z</time></trkpt><trkpt lat="45.3153183" lon="7.9830533"><ele>277.3333333333333</ele><time>2026-05-01T10:52:44.799Z</time></trkpt><trkpt lat="45.315355" lon="7.98316"><ele>277.0</ele><time>2026-05-01T10:52:45.799Z</time></trkpt><trkpt lat="45.3153933" lon="7.9832667"><ele>276.6</ele><time>2026-05-01T10:52:46.799Z</time></trkpt><trkpt lat="45.3154267" lon="7.98338"><ele>276.2</ele><time>2026-05-01T10:52:47.798Z</time></trkpt><trkpt lat="45.3154617" lon="7.9834867"><ele>275.8</ele><time>2026-05-01T10:52:48.799Z</time></trkpt><trkpt lat="45.3155067" lon="7.9836033"><ele>275.4</ele><time>2026-05-01T10:52:49.799Z</time></trkpt><trkpt lat="45.3155617" lon="7.983725"><ele>275.0</ele><time>2026-05-01T10:52:50.799Z</time></trkpt><trkpt lat="45.3156333" lon="7.9838383"><ele>275.2</ele><time>2026-05-01T10:52:51.799Z</time></trkpt><trkpt lat="45.3157033" lon="7.98394"><ele>275.4</ele><time>2026-05-01T10:52:52.798Z</time></trkpt><trkpt lat="45.3157717" lon="7.9840533"><ele>275.6</ele><time>2026-05-01T10:52:53.799Z</time></trkpt><trkpt lat="45.3158333" lon="7.9841717"><ele>275.8</ele><time>2026-05-01T10:52:54.799Z</time></trkpt><trkpt lat="45.3158983" lon="7.9842867"><ele>276.0</ele><time>2026-05-01T10:52:55.799Z</time></trkpt><trkpt lat="45.3159717" lon="7.98439"><ele>276.0</ele><time>2026-05-01T10:52:56.799Z</time></trkpt><trkpt lat="45.3160433" lon="7.984495"><ele>276.0</ele><time>2026-05-01T10:52:57.799Z</time></trkpt><trkpt lat="45.3161117" lon="7.9846083"><ele>276.0</ele><time>2026-05-01T10:52:58.799Z</time></trkpt><trkpt lat="45.3161717" lon="7.9847167"><ele>276.0</ele><time>2026-05-01T10:52:59.799Z</time></trkpt><trkpt lat="45.316235" lon="7.9848183"><ele>276.0</ele><time>2026-05-01T10:53:00.799Z</time></trkpt><trkpt lat="45.3162933" lon="7.9849267"><ele>275.8333333333333</ele><time>2026-05-01T10:53:01.799Z</time></trkpt><trkpt lat="45.3163433" lon="7.985025"><ele>275.6666666666667</ele><time>2026-05-01T10:53:02.799Z</time></trkpt><trkpt lat="45.3163983" lon="7.9851083"><ele>275.5</ele><time>2026-05-01T10:53:03.799Z</time></trkpt><trkpt lat="45.31646" lon="7.9851883"><ele>275.33333333333337</ele><time>2026-05-01T10:53:04.798Z</time></trkpt><trkpt lat="45.316535" lon="7.9852683"><ele>275.1666666666667</ele><time>2026-05-01T10:53:05.799Z</time></trkpt><trkpt lat="45.3166117" lon="7.9853517"><ele>275.0</ele><time>2026-05-01T10:53:06.799Z</time></trkpt><trkpt lat="45.3166983" lon="7.9854467"><ele>276.2</ele><time>2026-05-01T10:53:07.798Z</time></trkpt><trkpt lat="45.3167867" lon="7.9855467"><ele>277.4</ele><time>2026-05-01T10:53:08.799Z</time></trkpt><trkpt lat="45.31687" lon="7.9856367"><ele>278.6</ele><time>2026-05-01T10:53:09.799Z</time></trkpt><trkpt lat="45.3169583" lon="7.98574"><ele>279.8</ele><time>2026-05-01T10:53:10.799Z</time></trkpt><trkpt lat="45.3170433" lon="7.98584"><ele>281.0</ele><time>2026-05-01T10:53:11.799Z</time></trkpt><trkpt lat="45.317125" lon="7.9859367"><ele>281.0</ele><time>2026-05-01T10:53:12.799Z</time></trkpt><trkpt lat="45.3171967" lon="7.986035"><ele>281.0</ele><time>2026-05-01T10:53:13.799Z</time></trkpt><trkpt lat="45.317265" lon="7.98614"><ele>281.0</ele><time>2026-05-01T10:53:14.799Z</time></trkpt><trkpt lat="45.3173283" lon="7.98625"><ele>281.0</ele><time>2026-05-01T10:53:15.799Z</time></trkpt><trkpt lat="45.317395" lon="7.9863467"><ele>281.0</ele><time>2026-05-01T10:53:16.799Z</time></trkpt><trkpt lat="45.31746" lon="7.9864533"><ele>281.40000000000003</ele><time>2026-05-01T10:53:17.798Z</time></trkpt><trkpt lat="45.3175367" lon="7.986565"><ele>281.8</ele><time>2026-05-01T10:53:18.798Z</time></trkpt><trkpt lat="45.3176117" lon="7.9866817"><ele>282.20000000000005</ele><time>2026-05-01T10:53:19.799Z</time></trkpt><trkpt lat="45.31769" lon="7.9867967"><ele>282.6</ele><time>2026-05-01T10:53:20.799Z</time></trkpt><trkpt lat="45.3177617" lon="7.9869183"><ele>283.0</ele><time>2026-05-01T10:53:21.799Z</time></trkpt><trkpt lat="45.317835" lon="7.9870383"><ele>282.66666666666663</ele><time>2026-05-01T10:53:22.799Z</time></trkpt><trkpt lat="45.3179" lon="7.987145"><ele>282.3333333333333</ele><time>2026-05-01T10:53:23.799Z</time></trkpt><trkpt lat="45.3179533" lon="7.9872333"><ele>282.0</ele><time>2026-05-01T10:53:24.799Z</time></trkpt><trkpt lat="45.317995" lon="7.98731"><ele>281.6666666666667</ele><time>2026-05-01T10:53:25.799Z</time></trkpt><trkpt lat="45.318025" lon="7.9874067"><ele>281.33333333333337</ele><time>2026-05-01T10:53:26.799Z</time></trkpt><trkpt lat="45.318065" lon="7.9875117"><ele>281.0</ele><time>2026-05-01T10:53:27.799Z</time></trkpt><trkpt lat="45.3181083" lon="7.987635"><ele>281.0</ele><time>2026-05-01T10:53:28.798Z</time></trkpt><trkpt lat="45.3181433" lon="7.9877733"><ele>281.0</ele><time>2026-05-01T10:53:29.799Z</time></trkpt><trkpt lat="45.31819" lon="7.9878833"><ele>281.0</ele><time>2026-05-01T10:53:30.799Z</time></trkpt><trkpt lat="45.3182333" lon="7.9879933"><ele>281.0</ele><time>2026-05-01T10:53:31.799Z</time></trkpt><trkpt lat="45.3182783" lon="7.9880967"><ele>281.0</ele><time>2026-05-01T10:53:32.799Z</time></trkpt><trkpt lat="45.318335" lon="7.9882033"><ele>281.0</ele><time>2026-05-01T10:53:33.798Z</time></trkpt><trkpt lat="45.318395" lon="7.988295"><ele>281.0</ele><time>2026-05-01T10:53:34.799Z</time></trkpt><trkpt lat="45.318465" lon="7.988395"><ele>281.0</ele><time>2026-05-01T10:53:35.799Z</time></trkpt><trkpt lat="45.3185417" lon="7.9885017"><ele>281.0</ele><time>2026-05-01T10:53:36.799Z</time></trkpt><trkpt lat="45.318615" lon="7.9886067"><ele>281.0</ele><time>2026-05-01T10:53:37.799Z</time></trkpt><trkpt lat="45.3186983" lon="7.9887133"><ele>280.6666666666667</ele><time>2026-05-01T10:53:38.799Z</time></trkpt><trkpt lat="45.3187733" lon="7.9888283"><ele>280.33333333333337</ele><time>2026-05-01T10:53:39.799Z</time></trkpt><trkpt lat="45.3188333" lon="7.9889333"><ele>280.0</ele><time>2026-05-01T10:53:40.799Z</time></trkpt><trkpt lat="45.3188933" lon="7.9890133"><ele>279.6666666666667</ele><time>2026-05-01T10:53:41.799Z</time></trkpt><trkpt lat="45.31896" lon="7.98907"><ele>279.3333333333333</ele><time>2026-05-01T10:53:42.799Z</time></trkpt><trkpt lat="45.31902" lon="7.9891"><ele>279.0</ele><time>2026-05-01T10:53:43.798Z</time></trkpt><trkpt lat="45.3190917" lon="7.9891017"><ele>279.0</ele><time>2026-05-01T10:53:44.799Z</time></trkpt><trkpt lat="45.3191583" lon="7.9890767"><ele>279.0</ele><time>2026-05-01T10:53:45.799Z</time></trkpt><trkpt lat="45.3192217" lon="7.9890517"><ele>279.0</ele><time>2026-05-01T10:53:46.799Z</time></trkpt><trkpt lat="45.3192983" lon="7.9890517"><ele>279.0</ele><time>2026-05-01T10:53:48.799Z</time></trkpt><trkpt lat="45.3193867" lon="7.98913"><ele>279.0</ele><time>2026-05-01T10:53:50.799Z</time></trkpt><trkpt lat="45.31944" lon="7.989205"><ele>279.0</ele><time>2026-05-01T10:53:51.799Z</time></trkpt><trkpt lat="45.3194967" lon="7.9892833"><ele>278.57142857142856</ele><time>2026-05-01T10:53:52.799Z</time></trkpt><trkpt lat="45.3195567" lon="7.98937"><ele>278.1428571428571</ele><time>2026-05-01T10:53:53.799Z</time></trkpt><trkpt lat="45.3196117" lon="7.9894517"><ele>277.7142857142857</ele><time>2026-05-01T10:53:54.799Z</time></trkpt><trkpt lat="45.3196583" lon="7.98952"><ele>277.2857142857143</ele><time>2026-05-01T10:53:55.799Z</time></trkpt><trkpt lat="45.319695" lon="7.9895967"><ele>276.8571428571429</ele><time>2026-05-01T10:53:56.799Z</time></trkpt><trkpt lat="45.3197333" lon="7.9896733"><ele>276.42857142857144</ele><time>2026-05-01T10:53:57.799Z</time></trkpt><trkpt lat="45.3197783" lon="7.98976"><ele>276.0</ele><time>2026-05-01T10:53:58.799Z</time></trkpt><trkpt lat="45.3198183" lon="7.98984"><ele>276.0</ele><time>2026-05-01T10:53:59.799Z</time></trkpt><trkpt lat="45.31985" lon="7.9899233"><ele>276.0</ele><time>2026-05-01T10:54:00.799Z</time></trkpt><trkpt lat="45.319885" lon="7.99002"><ele>276.0</ele><time>2026-05-01T10:54:01.799Z</time></trkpt><trkpt lat="45.3199283" lon="7.9901317"><ele>276.0</ele><time>2026-05-01T10:54:02.799Z</time></trkpt><trkpt lat="45.31998" lon="7.9902367"><ele>276.0</ele><time>2026-05-01T10:54:03.798Z</time></trkpt><trkpt lat="45.3200317" lon="7.9903467"><ele>276.0</ele><time>2026-05-01T10:54:04.799Z</time></trkpt><trkpt lat="45.3200767" lon="7.9904567"><ele>275.8333333333333</ele><time>2026-05-01T10:54:05.799Z</time></trkpt><trkpt lat="45.3201233" lon="7.9905617"><ele>275.6666666666667</ele><time>2026-05-01T10:54:06.799Z</time></trkpt><trkpt lat="45.3201683" lon="7.99066"><ele>275.5</ele><time>2026-05-01T10:54:07.799Z</time></trkpt><trkpt lat="45.3202217" lon="7.9907583"><ele>275.33333333333337</ele><time>2026-05-01T10:54:08.799Z</time></trkpt><trkpt lat="45.3202817" lon="7.99085"><ele>275.1666666666667</ele><time>2026-05-01T10:54:09.799Z</time></trkpt><trkpt lat="45.32034" lon="7.9909383"><ele>275.0</ele><time>2026-05-01T10:54:10.799Z</time></trkpt><trkpt lat="45.3204067" lon="7.99103"><ele>274.8</ele><time>2026-05-01T10:54:11.798Z</time></trkpt><trkpt lat="45.3204717" lon="7.9911133"><ele>274.6</ele><time>2026-05-01T10:54:12.799Z</time></trkpt><trkpt lat="45.3205367" lon="7.9912083"><ele>274.4</ele><time>2026-05-01T10:54:13.799Z</time></trkpt><trkpt lat="45.3206017" lon="7.9912967"><ele>274.2</ele><time>2026-05-01T10:54:14.799Z</time></trkpt><trkpt lat="45.3206633" lon="7.99139"><ele>274.0</ele><time>2026-05-01T10:54:15.799Z</time></trkpt><trkpt lat="45.3207233" lon="7.991495"><ele>274.0</ele><time>2026-05-01T10:54:16.799Z</time></trkpt><trkpt lat="45.320785" lon="7.9916133"><ele>274.0</ele><time>2026-05-01T10:54:17.799Z</time></trkpt><trkpt lat="45.3208483" lon="7.9917467"><ele>274.0</ele><time>2026-05-01T10:54:18.798Z</time></trkpt><trkpt lat="45.320915" lon="7.9918917"><ele>274.0</ele><time>2026-05-01T10:54:19.799Z</time></trkpt><trkpt lat="45.320985" lon="7.9920417"><ele>273.0</ele><time>2026-05-01T10:54:20.799Z</time></trkpt><trkpt lat="45.3210433" lon="7.9922133"><ele>272.0</ele><time>2026-05-01T10:54:21.799Z</time></trkpt><trkpt lat="45.3211067" lon="7.99238"><ele>271.0</ele><time>2026-05-01T10:54:22.799Z</time></trkpt><trkpt lat="45.3211717" lon="7.992555"><ele>270.0</ele><time>2026-05-01T10:54:23.799Z</time></trkpt><trkpt lat="45.32123" lon="7.9927267"><ele>269.5</ele><time>2026-05-01T10:54:24.798Z</time></trkpt><trkpt lat="45.3212833" lon="7.9929083"><ele>269.0</ele><time>2026-05-01T10:54:25.799Z</time></trkpt><trkpt lat="45.321335" lon="7.9930967"><ele>268.5</ele><time>2026-05-01T10:54:26.799Z</time></trkpt><trkpt lat="45.3213767" lon="7.9932733"><ele>268.0</ele><time>2026-05-01T10:54:27.799Z</time></trkpt><trkpt lat="45.3214117" lon="7.9934433"><ele>268.8</ele><time>2026-05-01T10:54:28.799Z</time></trkpt><trkpt lat="45.32145" lon="7.9936133"><ele>269.6</ele><time>2026-05-01T10:54:29.799Z</time></trkpt><trkpt lat="45.3214817" lon="7.993765"><ele>270.4</ele><time>2026-05-01T10:54:30.799Z</time></trkpt><trkpt lat="45.3215033" lon="7.9939083"><ele>271.2</ele><time>2026-05-01T10:54:31.799Z</time></trkpt><trkpt lat="45.32152" lon="7.9940217"><ele>272.0</ele><time>2026-05-01T10:54:32.799Z</time></trkpt><trkpt lat="45.3215333" lon="7.9941167"><ele>271.8</ele><time>2026-05-01T10:54:33.798Z</time></trkpt><trkpt lat="45.3215483" lon="7.99422"><ele>271.6</ele><time>2026-05-01T10:54:35.799Z</time></trkpt><trkpt lat="45.3215817" lon="7.9943"><ele>271.40000000000003</ele><time>2026-05-01T10:54:37.799Z</time></trkpt><trkpt lat="45.3216817" lon="7.99442"><ele>271.2</ele><time>2026-05-01T10:54:39.798Z</time></trkpt><trkpt lat="45.3217533" lon="7.99449"><ele>271.0</ele><time>2026-05-01T10:54:40.799Z</time></trkpt><trkpt lat="45.32183" lon="7.9945717"><ele>271.0</ele><time>2026-05-01T10:54:41.798Z</time></trkpt><trkpt lat="45.321915" lon="7.9946617"><ele>271.0</ele><time>2026-05-01T10:54:42.799Z</time></trkpt><trkpt lat="45.3220133" lon="7.9947417"><ele>271.0</ele><time>2026-05-01T10:54:43.799Z</time></trkpt><trkpt lat="45.322125" lon="7.9947967"><ele>271.0</ele><time>2026-05-01T10:54:44.799Z</time></trkpt><trkpt lat="45.3222567" lon="7.9948533"><ele>272.5</ele><time>2026-05-01T10:54:45.799Z</time></trkpt><trkpt lat="45.32239" lon="7.9948733"><ele>274.0</ele><time>2026-05-01T10:54:46.799Z</time></trkpt><trkpt lat="45.3225283" lon="7.9948667"><ele>275.5</ele><time>2026-05-01T10:54:47.799Z</time></trkpt><trkpt lat="45.3226783" lon="7.9948367"><ele>277.0</ele><time>2026-05-01T10:54:48.798Z</time></trkpt><trkpt lat="45.3228183" lon="7.994785"><ele>277.0</ele><time>2026-05-01T10:54:49.799Z</time></trkpt><trkpt lat="45.3229567" lon="7.9947333"><ele>277.0</ele><time>2026-05-01T10:54:50.799Z</time></trkpt><trkpt lat="45.3230867" lon="7.9946883"><ele>277.0</ele><time>2026-05-01T10:54:51.799Z</time></trkpt><trkpt lat="45.32323" lon="7.99466"><ele>277.0</ele><time>2026-05-01T10:54:52.799Z</time></trkpt><trkpt lat="45.32336" lon="7.9946417"><ele>278.5</ele><time>2026-05-01T10:54:53.799Z</time></trkpt><trkpt lat="45.3234867" lon="7.9946383"><ele>280.0</ele><time>2026-05-01T10:54:54.798Z</time></trkpt><trkpt lat="45.32361" lon="7.9946567"><ele>281.5</ele><time>2026-05-01T10:54:55.799Z</time></trkpt><trkpt lat="45.3237317" lon="7.9946883"><ele>283.0</ele><time>2026-05-01T10:54:56.798Z</time></trkpt><trkpt lat="45.32386" lon="7.9947367"><ele>284.5</ele><time>2026-05-01T10:54:57.799Z</time></trkpt><trkpt lat="45.3239833" lon="7.9948217"><ele>286.0</ele><time>2026-05-01T10:54:58.798Z</time></trkpt><trkpt lat="45.32411" lon="7.9949233"><ele>287.5</ele><time>2026-05-01T10:54:59.799Z</time></trkpt><trkpt lat="45.32423" lon="7.9950267"><ele>289.0</ele><time>2026-05-01T10:55:00.799Z</time></trkpt><trkpt lat="45.3243517" lon="7.9951367"><ele>289.0</ele><time>2026-05-01T10:55:01.799Z</time></trkpt><trkpt lat="45.324485" lon="7.9952233"><ele>289.0</ele><time>2026-05-01T10:55:02.799Z</time></trkpt><trkpt lat="45.3246117" lon="7.99531"><ele>289.0</ele><time>2026-05-01T10:55:03.799Z</time></trkpt><trkpt lat="45.324735" lon="7.9954083"><ele>289.0</ele><time>2026-05-01T10:55:04.798Z</time></trkpt><trkpt lat="45.3248633" lon="7.9955017"><ele>289.25</ele><time>2026-05-01T10:55:05.799Z</time></trkpt><trkpt lat="45.32498" lon="7.995595"><ele>289.5</ele><time>2026-05-01T10:55:06.799Z</time></trkpt><trkpt lat="45.325095" lon="7.995675"><ele>289.75</ele><time>2026-05-01T10:55:07.799Z</time></trkpt><trkpt lat="45.32521" lon="7.9957333"><ele>290.0</ele><time>2026-05-01T10:55:08.799Z</time></trkpt><trkpt lat="45.3253383" lon="7.9957733"><ele>290.0</ele><time>2026-05-01T10:55:09.799Z</time></trkpt><trkpt lat="45.3254767" lon="7.9957933"><ele>290.0</ele><time>2026-05-01T10:55:10.799Z</time></trkpt><trkpt lat="45.3256083" lon="7.99582"><ele>290.0</ele><time>2026-05-01T10:55:11.799Z</time></trkpt><trkpt lat="45.32575" lon="7.9958617"><ele>290.0</ele><time>2026-05-01T10:55:12.798Z</time></trkpt><trkpt lat="45.3258933" lon="7.9958933"><ele>290.5</ele><time>2026-05-01T10:55:13.799Z</time></trkpt><trkpt lat="45.326035" lon="7.9959383"><ele>291.0</ele><time>2026-05-01T10:55:14.799Z</time></trkpt><trkpt lat="45.3261817" lon="7.9959983"><ele>291.5</ele><time>2026-05-01T10:55:15.798Z</time></trkpt><trkpt lat="45.32631" lon="7.9960633"><ele>292.0</ele><time>2026-05-01T10:55:16.799Z</time></trkpt><trkpt lat="45.3264383" lon="7.99613"><ele>293.75</ele><time>2026-05-01T10:55:17.799Z</time></trkpt><trkpt lat="45.3265633" lon="7.9962017"><ele>295.5</ele><time>2026-05-01T10:55:18.799Z</time></trkpt><trkpt lat="45.3266883" lon="7.996265"><ele>297.25</ele><time>2026-05-01T10:55:19.799Z</time></trkpt><trkpt lat="45.3268017" lon="7.9963217"><ele>299.0</ele><time>2026-05-01T10:55:20.799Z</time></trkpt><trkpt lat="45.3269017" lon="7.99637"><ele>299.0</ele><time>2026-05-01T10:55:21.798Z</time></trkpt><trkpt lat="45.326995" lon="7.996425"><ele>299.0</ele><time>2026-05-01T10:55:22.799Z</time></trkpt><trkpt lat="45.32708" lon="7.9964833"><ele>299.0</ele><time>2026-05-01T10:55:23.799Z</time></trkpt><trkpt lat="45.327165" lon="7.99655"><ele>299.0</ele><time>2026-05-01T10:55:24.799Z</time></trkpt><trkpt lat="45.327255" lon="7.996615"><ele>299.0</ele><time>2026-05-01T10:55:25.799Z</time></trkpt><trkpt lat="45.3273533" lon="7.99671"><ele>299.0</ele><time>2026-05-01T10:55:26.799Z</time></trkpt><trkpt lat="45.327455" lon="7.9968167"><ele>299.0</ele><time>2026-05-01T10:55:27.799Z</time></trkpt><trkpt lat="45.3275567" lon="7.9969283"><ele>299.0</ele><time>2026-05-01T10:55:28.798Z</time></trkpt><trkpt lat="45.3276567" lon="7.9970583"><ele>299.0</ele><time>2026-05-01T10:55:29.799Z</time></trkpt><trkpt lat="45.327755" lon="7.9971833"><ele>299.0</ele><time>2026-05-01T10:55:30.798Z</time></trkpt><trkpt lat="45.3278567" lon="7.9973183"><ele>299.0</ele><time>2026-05-01T10:55:31.799Z</time></trkpt><trkpt lat="45.32795" lon="7.9974633"><ele>299.0</ele><time>2026-05-01T10:55:32.799Z</time></trkpt><trkpt lat="45.3280417" lon="7.9975983"><ele>299.0</ele><time>2026-05-01T10:55:33.799Z</time></trkpt><trkpt lat="45.3281417" lon="7.9977233"><ele>297.5</ele><time>2026-05-01T10:55:34.799Z</time></trkpt><trkpt lat="45.3282467" lon="7.9978367"><ele>296.0</ele><time>2026-05-01T10:55:35.799Z</time></trkpt><trkpt lat="45.3283517" lon="7.9979333"><ele>294.5</ele><time>2026-05-01T10:55:36.799Z</time></trkpt><trkpt lat="45.328465" lon="7.998015"><ele>293.0</ele><time>2026-05-01T10:55:37.799Z</time></trkpt><trkpt lat="45.3285867" lon="7.998075"><ele>293.0</ele><time>2026-05-01T10:55:38.799Z</time></trkpt><trkpt lat="45.3287133" lon="7.9981033"><ele>293.0</ele><time>2026-05-01T10:55:39.799Z</time></trkpt><trkpt lat="45.3288333" lon="7.998115"><ele>293.0</ele><time>2026-05-01T10:55:40.799Z</time></trkpt><trkpt lat="45.3289467" lon="7.9980883"><ele>293.0</ele><time>2026-05-01T10:55:41.799Z</time></trkpt><trkpt lat="45.329065" lon="7.99805"><ele>291.75</ele><time>2026-05-01T10:55:42.799Z</time></trkpt><trkpt lat="45.329175" lon="7.9979867"><ele>290.5</ele><time>2026-05-01T10:55:43.799Z</time></trkpt><trkpt lat="45.3292883" lon="7.9979183"><ele>289.25</ele><time>2026-05-01T10:55:44.799Z</time></trkpt><trkpt lat="45.3294033" lon="7.9978567"><ele>288.0</ele><time>2026-05-01T10:55:45.799Z</time></trkpt><trkpt lat="45.3295067" lon="7.99781"><ele>288.0</ele><time>2026-05-01T10:55:46.799Z</time></trkpt><trkpt lat="45.329615" lon="7.99778"><ele>288.0</ele><time>2026-05-01T10:55:47.799Z</time></trkpt><trkpt lat="45.3297117" lon="7.997785"><ele>288.0</ele><time>2026-05-01T10:55:48.798Z</time></trkpt><trkpt lat="45.3298217" lon="7.997785"><ele>288.0</ele><time>2026-05-01T10:55:49.798Z</time></trkpt><trkpt lat="45.32993" lon="7.9977833"><ele>288.0</ele><time>2026-05-01T10:55:50.798Z</time></trkpt><trkpt lat="45.330025" lon="7.9977667"><ele>287.8</ele><time>2026-05-01T10:55:51.798Z</time></trkpt><trkpt lat="45.3301283" lon="7.99775"><ele>287.6</ele><time>2026-05-01T10:55:52.798Z</time></trkpt><trkpt lat="45.3302267" lon="7.997755"><ele>287.4</ele><time>2026-05-01T10:55:53.798Z</time></trkpt><trkpt lat="45.3303183" lon="7.9977583"><ele>287.2</ele><time>2026-05-01T10:55:54.798Z</time></trkpt><trkpt lat="45.3303933" lon="7.9977667"><ele>287.0</ele><time>2026-05-01T10:55:55.798Z</time></trkpt><trkpt lat="45.3304817" lon="7.9977667"><ele>287.0</ele><time>2026-05-01T10:55:57.798Z</time></trkpt><trkpt lat="45.3304867" lon="7.99787"><ele>287.0</ele><time>2026-05-01T10:56:00.798Z</time></trkpt><trkpt lat="45.3304533" lon="7.9980233"><ele>287.0</ele><time>2026-05-01T10:56:02.798Z</time></trkpt><trkpt lat="45.330405" lon="7.9981733"><ele>287.0</ele><time>2026-05-01T10:56:04.798Z</time></trkpt><trkpt lat="45.3303983" lon="7.9982683"><ele>287.0</ele><time>2026-05-01T10:56:06.798Z</time></trkpt><trkpt lat="45.3304683" lon="7.9983483"><ele>286.6666666666667</ele><time>2026-05-01T10:56:08.798Z</time></trkpt><trkpt lat="45.330535" lon="7.9983867"><ele>286.33333333333337</ele><time>2026-05-01T10:56:09.798Z</time></trkpt><trkpt lat="45.330595" lon="7.9984383"><ele>286.0</ele><time>2026-05-01T10:56:10.798Z</time></trkpt><trkpt lat="45.3306733" lon="7.99849"><ele>285.6666666666667</ele><time>2026-05-01T10:56:11.798Z</time></trkpt><trkpt lat="45.3307433" lon="7.9985433"><ele>285.3333333333333</ele><time>2026-05-01T10:56:12.798Z</time></trkpt><trkpt lat="45.3308117" lon="7.99859"><ele>285.0</ele><time>2026-05-01T10:56:13.798Z</time></trkpt><trkpt lat="45.3308717" lon="7.998635"><ele>285.0</ele><time>2026-05-01T10:56:14.798Z</time></trkpt><trkpt lat="45.3309517" lon="7.9986867"><ele>285.0</ele><time>2026-05-01T10:56:16.797Z</time></trkpt><trkpt lat="45.3310283" lon="7.9987"><ele>285.0</ele><time>2026-05-01T10:56:19.798Z</time></trkpt><trkpt lat="45.3311467" lon="7.99863"><ele>285.0</ele><time>2026-05-01T10:56:21.798Z</time></trkpt><trkpt lat="45.3312267" lon="7.9985983"><ele>285.0</ele><time>2026-05-01T10:56:22.797Z</time></trkpt><trkpt lat="45.3313167" lon="7.99858"><ele>285.6</ele><time>2026-05-01T10:56:23.798Z</time></trkpt><trkpt lat="45.3314117" lon="7.99856"><ele>286.2</ele><time>2026-05-01T10:56:24.798Z</time></trkpt><trkpt lat="45.3315117" lon="7.9985483"><ele>286.8</ele><time>2026-05-01T10:56:25.798Z</time></trkpt><trkpt lat="45.3315883" lon="7.9985567"><ele>287.4</ele><time>2026-05-01T10:56:26.798Z</time></trkpt><trkpt lat="45.3316633" lon="7.9985633"><ele>288.0</ele><time>2026-05-01T10:56:29.797Z</time></trkpt><trkpt lat="45.3317533" lon="7.998465"><ele>288.0</ele><time>2026-05-01T10:56:32.798Z</time></trkpt><trkpt lat="45.331805" lon="7.9983883"><ele>288.0</ele><time>2026-05-01T10:56:33.798Z</time></trkpt><trkpt lat="45.331875" lon="7.9982883"><ele>288.0</ele><time>2026-05-01T10:56:34.798Z</time></trkpt><trkpt lat="45.3319667" lon="7.9981517"><ele>288.0</ele><time>2026-05-01T10:56:35.798Z</time></trkpt><trkpt lat="45.3320717" lon="7.998005"><ele>289.25</ele><time>2026-05-01T10:56:36.798Z</time></trkpt><trkpt lat="45.3321617" lon="7.9978533"><ele>290.5</ele><time>2026-05-01T10:56:37.798Z</time></trkpt><trkpt lat="45.33223" lon="7.9977017"><ele>291.75</ele><time>2026-05-01T10:56:38.798Z</time></trkpt><trkpt lat="45.3323117" lon="7.9975433"><ele>293.0</ele><time>2026-05-01T10:56:39.798Z</time></trkpt><trkpt lat="45.3323917" lon="7.997375"><ele>295.25</ele><time>2026-05-01T10:56:40.798Z</time></trkpt><trkpt lat="45.3324633" lon="7.9971983"><ele>297.5</ele><time>2026-05-01T10:56:41.798Z</time></trkpt><trkpt lat="45.3325233" lon="7.99703"><ele>299.75</ele><time>2026-05-01T10:56:42.798Z</time></trkpt><trkpt lat="45.332575" lon="7.9968517"><ele>302.0</ele><time>2026-05-01T10:56:43.798Z</time></trkpt><trkpt lat="45.3326433" lon="7.9966867"><ele>303.25</ele><time>2026-05-01T10:56:44.798Z</time></trkpt><trkpt lat="45.332705" lon="7.9965333"><ele>304.5</ele><time>2026-05-01T10:56:45.798Z</time></trkpt><trkpt lat="45.3327667" lon="7.9963783"><ele>305.75</ele><time>2026-05-01T10:56:46.798Z</time></trkpt><trkpt lat="45.3328033" lon="7.9962233"><ele>307.0</ele><time>2026-05-01T10:56:47.798Z</time></trkpt><trkpt lat="45.33285" lon="7.9961033"><ele>307.0</ele><time>2026-05-01T10:56:48.798Z</time></trkpt><trkpt lat="45.332855" lon="7.996"><ele>307.0</ele><time>2026-05-01T10:56:49.798Z</time></trkpt><trkpt lat="45.3328983" lon="7.9959317"><ele>307.0</ele><time>2026-05-01T10:56:50.798Z</time></trkpt><trkpt lat="45.3329867" lon="7.99585"><ele>307.0</ele><time>2026-05-01T10:56:52.798Z</time></trkpt><trkpt lat="45.3330517" lon="7.9958017"><ele>307.0</ele><time>2026-05-01T10:56:53.798Z</time></trkpt><trkpt lat="45.3331383" lon="7.9957567"><ele>307.0</ele><time>2026-05-01T10:56:54.798Z</time></trkpt><trkpt lat="45.33324" lon="7.9957083"><ele>306.25</ele><time>2026-05-01T10:56:55.797Z</time></trkpt><trkpt lat="45.3333467" lon="7.99565"><ele>305.5</ele><time>2026-05-01T10:56:56.798Z</time></trkpt><trkpt lat="45.33346" lon="7.9955883"><ele>304.75</ele><time>2026-05-01T10:56:57.798Z</time></trkpt><trkpt lat="45.3335717" lon="7.9955183"><ele>304.0</ele><time>2026-05-01T10:56:58.798Z</time></trkpt><trkpt lat="45.3336883" lon="7.995425"><ele>304.0</ele><time>2026-05-01T10:56:59.798Z</time></trkpt><trkpt lat="45.3337917" lon="7.9953217"><ele>304.0</ele><time>2026-05-01T10:57:00.797Z</time></trkpt><trkpt lat="45.3338917" lon="7.9952167"><ele>304.0</ele><time>2026-05-01T10:57:01.798Z</time></trkpt><trkpt lat="45.3339883" lon="7.995085"><ele>304.0</ele><time>2026-05-01T10:57:02.798Z</time></trkpt><trkpt lat="45.334085" lon="7.9949717"><ele>302.75</ele><time>2026-05-01T10:57:03.798Z</time></trkpt><trkpt lat="45.334185" lon="7.9948617"><ele>301.5</ele><time>2026-05-01T10:57:04.798Z</time></trkpt><trkpt lat="45.3342817" lon="7.9947717"><ele>300.25</ele><time>2026-05-01T10:57:05.798Z</time></trkpt><trkpt lat="45.3343833" lon="7.9947017"><ele>299.0</ele><time>2026-05-01T10:57:06.798Z</time></trkpt><trkpt lat="45.334495" lon="7.9946717"><ele>299.0</ele><time>2026-05-01T10:57:07.797Z</time></trkpt><trkpt lat="45.3346117" lon="7.9946583"><ele>299.0</ele><time>2026-05-01T10:57:08.798Z</time></trkpt><trkpt lat="45.3347233" lon="7.9946433"><ele>299.0</ele><time>2026-05-01T10:57:09.798Z</time></trkpt><trkpt lat="45.3348383" lon="7.994655"><ele>299.0</ele><time>2026-05-01T10:57:10.798Z</time></trkpt><trkpt lat="45.334955" lon="7.9946717"><ele>298.0</ele><time>2026-05-01T10:57:11.798Z</time></trkpt><trkpt lat="45.33507" lon="7.9946833"><ele>297.0</ele><time>2026-05-01T10:57:12.798Z</time></trkpt><trkpt lat="45.3351817" lon="7.994685"><ele>296.0</ele><time>2026-05-01T10:57:13.798Z</time></trkpt><trkpt lat="45.3352833" lon="7.9946583"><ele>295.0</ele><time>2026-05-01T10:57:14.798Z</time></trkpt><trkpt lat="45.3353667" lon="7.9946217"><ele>294.0</ele><time>2026-05-01T10:57:15.797Z</time></trkpt><trkpt lat="45.3354433" lon="7.9945783"><ele>294.0</ele><time>2026-05-01T10:57:16.798Z</time></trkpt><trkpt lat="45.335515" lon="7.9945167"><ele>294.0</ele><time>2026-05-01T10:57:17.798Z</time></trkpt><trkpt lat="45.335565" lon="7.9944283"><ele>294.0</ele><time>2026-05-01T10:57:18.798Z</time></trkpt><trkpt lat="45.335615" lon="7.9943083"><ele>294.0</ele><time>2026-05-01T10:57:19.798Z</time></trkpt><trkpt lat="45.3356717" lon="7.9941733"><ele>294.0</ele><time>2026-05-01T10:57:20.798Z</time></trkpt><trkpt lat="45.3357333" lon="7.9940067"><ele>293.5</ele><time>2026-05-01T10:57:21.798Z</time></trkpt><trkpt lat="45.3358167" lon="7.993865"><ele>293.0</ele><time>2026-05-01T10:57:22.798Z</time></trkpt><trkpt lat="45.3359083" lon="7.9937267"><ele>292.5</ele><time>2026-05-01T10:57:23.798Z</time></trkpt><trkpt lat="45.3360033" lon="7.9935833"><ele>292.0</ele><time>2026-05-01T10:57:24.798Z</time></trkpt><trkpt lat="45.3361167" lon="7.9934367"><ele>291.0</ele><time>2026-05-01T10:57:25.798Z</time></trkpt><trkpt lat="45.3362283" lon="7.99328"><ele>290.0</ele><time>2026-05-01T10:57:26.798Z</time></trkpt><trkpt lat="45.33636" lon="7.9931233"><ele>289.0</ele><time>2026-05-01T10:57:27.798Z</time></trkpt><trkpt lat="45.3364967" lon="7.99297"><ele>288.3333333333333</ele><time>2026-05-01T10:57:28.798Z</time></trkpt><trkpt lat="45.3366367" lon="7.9928167"><ele>287.6666666666667</ele><time>2026-05-01T10:57:29.798Z</time></trkpt><trkpt lat="45.33678" lon="7.9926683"><ele>287.0</ele><time>2026-05-01T10:57:30.798Z</time></trkpt><trkpt lat="45.336925" lon="7.992535"><ele>284.6666666666667</ele><time>2026-05-01T10:57:31.798Z</time></trkpt><trkpt lat="45.3370683" lon="7.9923817"><ele>282.3333333333333</ele><time>2026-05-01T10:57:32.798Z</time></trkpt><trkpt lat="45.3372033" lon="7.992225"><ele>280.0</ele><time>2026-05-01T10:57:33.798Z</time></trkpt><trkpt lat="45.3373533" lon="7.9920667"><ele>279.0</ele><time>2026-05-01T10:57:34.798Z</time></trkpt><trkpt lat="45.3375" lon="7.9919283"><ele>278.0</ele><time>2026-05-01T10:57:35.798Z</time></trkpt><trkpt lat="45.3376433" lon="7.9917767"><ele>277.0</ele><time>2026-05-01T10:57:36.797Z</time></trkpt><trkpt lat="45.3377767" lon="7.9916383"><ele>275.0</ele><time>2026-05-01T10:57:37.798Z</time></trkpt><trkpt lat="45.3379117" lon="7.991505"><ele>273.0</ele><time>2026-05-01T10:57:38.798Z</time></trkpt><trkpt lat="45.33805" lon="7.9913533"><ele>271.0</ele><time>2026-05-01T10:57:39.798Z</time></trkpt><trkpt lat="45.338185" lon="7.9912183"><ele>269.0</ele><time>2026-05-01T10:57:40.798Z</time></trkpt><trkpt lat="45.3383217" lon="7.9910733"><ele>267.0</ele><time>2026-05-01T10:57:41.798Z</time></trkpt><trkpt lat="45.3384533" lon="7.9909417"><ele>265.0</ele><time>2026-05-01T10:57:42.798Z</time></trkpt><trkpt lat="45.3385817" lon="7.9908083"><ele>264.5</ele><time>2026-05-01T10:57:43.798Z</time></trkpt><trkpt lat="45.3387067" lon="7.9906867"><ele>264.0</ele><time>2026-05-01T10:57:44.798Z</time></trkpt><trkpt lat="45.338825" lon="7.9905633"><ele>263.5</ele><time>2026-05-01T10:57:45.798Z</time></trkpt><trkpt lat="45.3389383" lon="7.990445"><ele>263.0</ele><time>2026-05-01T10:57:46.798Z</time></trkpt><trkpt lat="45.3390467" lon="7.9903317"><ele>262.0</ele><time>2026-05-01T10:57:47.798Z</time></trkpt><trkpt lat="45.339145" lon="7.9902233"><ele>261.0</ele><time>2026-05-01T10:57:48.798Z</time></trkpt><trkpt lat="45.3392417" lon="7.9901483"><ele>260.0</ele><time>2026-05-01T10:57:49.798Z</time></trkpt><trkpt lat="45.3393417" lon="7.9900967"><ele>259.0</ele><time>2026-05-01T10:57:50.798Z</time></trkpt><trkpt lat="45.339445" lon="7.9900933"><ele>258.0</ele><time>2026-05-01T10:57:51.798Z</time></trkpt><trkpt lat="45.3395633" lon="7.9901017"><ele>258.0</ele><time>2026-05-01T10:57:52.798Z</time></trkpt><trkpt lat="45.3396933" lon="7.990105"><ele>258.0</ele><time>2026-05-01T10:57:53.798Z</time></trkpt><trkpt lat="45.3398167" lon="7.99012"><ele>258.0</ele><time>2026-05-01T10:57:54.798Z</time></trkpt><trkpt lat="45.339945" lon="7.9901233"><ele>258.0</ele><time>2026-05-01T10:57:55.798Z</time></trkpt><trkpt lat="45.3400733" lon="7.9901283"><ele>259.25</ele><time>2026-05-01T10:57:56.798Z</time></trkpt><trkpt lat="45.3402083" lon="7.9901283"><ele>260.5</ele><time>2026-05-01T10:57:57.798Z</time></trkpt><trkpt lat="45.3403383" lon="7.99012"><ele>261.75</ele><time>2026-05-01T10:57:58.798Z</time></trkpt><trkpt lat="45.34047" lon="7.9901067"><ele>263.0</ele><time>2026-05-01T10:57:59.798Z</time></trkpt><trkpt lat="45.3406083" lon="7.9901"><ele>263.5</ele><time>2026-05-01T10:58:00.798Z</time></trkpt><trkpt lat="45.3407467" lon="7.9900883"><ele>264.0</ele><time>2026-05-01T10:58:01.797Z</time></trkpt><trkpt lat="45.3408867" lon="7.9900867"><ele>264.5</ele><time>2026-05-01T10:58:02.798Z</time></trkpt><trkpt lat="45.341025" lon="7.9900683"><ele>265.0</ele><time>2026-05-01T10:58:03.798Z</time></trkpt><trkpt lat="45.3411667" lon="7.99005"><ele>265.0</ele><time>2026-05-01T10:58:04.798Z</time></trkpt><trkpt lat="45.3413167" lon="7.9900333"><ele>265.0</ele><time>2026-05-01T10:58:05.798Z</time></trkpt><trkpt lat="45.3414567" lon="7.9900183"><ele>265.0</ele><time>2026-05-01T10:58:06.797Z</time></trkpt><trkpt lat="45.34162" lon="7.9900033"><ele>263.0</ele><time>2026-05-01T10:58:07.798Z</time></trkpt><trkpt lat="45.3417717" lon="7.98999"><ele>261.0</ele><time>2026-05-01T10:58:08.798Z</time></trkpt><trkpt lat="45.3419267" lon="7.9899767"><ele>259.0</ele><time>2026-05-01T10:58:09.798Z</time></trkpt><trkpt lat="45.342075" lon="7.98997"><ele>259.0</ele><time>2026-05-01T10:58:10.798Z</time></trkpt><trkpt lat="45.342205" lon="7.989985"><ele>259.0</ele><time>2026-05-01T10:58:11.798Z</time></trkpt><trkpt lat="45.3423483" lon="7.9900133"><ele>259.0</ele><time>2026-05-01T10:58:12.798Z</time></trkpt><trkpt lat="45.3425033" lon="7.9900483"><ele>259.0</ele><time>2026-05-01T10:58:13.798Z</time></trkpt><trkpt lat="45.34266" lon="7.9900883"><ele>259.3333333333333</ele><time>2026-05-01T10:58:14.798Z</time></trkpt><trkpt lat="45.34282" lon="7.9901267"><ele>259.6666666666667</ele><time>2026-05-01T10:58:15.797Z</time></trkpt><trkpt lat="45.34298" lon="7.9901583"><ele>260.0</ele><time>2026-05-01T10:58:16.798Z</time></trkpt><trkpt lat="45.3431333" lon="7.9901883"><ele>260.0</ele><time>2026-05-01T10:58:17.798Z</time></trkpt><trkpt lat="45.3432783" lon="7.9902367"><ele>260.0</ele><time>2026-05-01T10:58:18.798Z</time></trkpt><trkpt lat="45.3434233" lon="7.99027"><ele>260.0</ele><time>2026-05-01T10:58:19.798Z</time></trkpt><trkpt lat="45.3435783" lon="7.990305"><ele>260.0</ele><time>2026-05-01T10:58:20.798Z</time></trkpt><trkpt lat="45.3437317" lon="7.9903333"><ele>260.0</ele><time>2026-05-01T10:58:21.798Z</time></trkpt><trkpt lat="45.3438833" lon="7.99037"><ele>260.0</ele><time>2026-05-01T10:58:22.798Z</time></trkpt><trkpt lat="45.344025" lon="7.9904"><ele>258.5</ele><time>2026-05-01T10:58:23.798Z</time></trkpt><trkpt lat="45.3441533" lon="7.9904317"><ele>257.0</ele><time>2026-05-01T10:58:24.798Z</time></trkpt><trkpt lat="45.3442683" lon="7.9904667"><ele>255.5</ele><time>2026-05-01T10:58:25.798Z</time></trkpt><trkpt lat="45.34438" lon="7.9904983"><ele>254.0</ele><time>2026-05-01T10:58:26.798Z</time></trkpt><trkpt lat="45.3444983" lon="7.9905267"><ele>254.0</ele><time>2026-05-01T10:58:27.798Z</time></trkpt><trkpt lat="45.34462" lon="7.9905533"><ele>254.0</ele><time>2026-05-01T10:58:28.798Z</time></trkpt><trkpt lat="45.344745" lon="7.99058"><ele>254.0</ele><time>2026-05-01T10:58:29.798Z</time></trkpt><trkpt lat="45.3448767" lon="7.9906117"><ele>254.0</ele><time>2026-05-01T10:58:30.798Z</time></trkpt><trkpt lat="45.3450133" lon="7.9906483"><ele>254.0</ele><time>2026-05-01T10:58:31.798Z</time></trkpt><trkpt lat="45.3451417" lon="7.9906783"><ele>254.0</ele><time>2026-05-01T10:58:32.798Z</time></trkpt><trkpt lat="45.345275" lon="7.9907067"><ele>254.0</ele><time>2026-05-01T10:58:33.798Z</time></trkpt><trkpt lat="45.34541" lon="7.990735"><ele>254.0</ele><time>2026-05-01T10:58:34.798Z</time></trkpt><trkpt lat="45.3455433" lon="7.9907517"><ele>255.5</ele><time>2026-05-01T10:58:35.798Z</time></trkpt><trkpt lat="45.3456733" lon="7.9907617"><ele>257.0</ele><time>2026-05-01T10:58:36.797Z</time></trkpt><trkpt lat="45.3457917" lon="7.9907633"><ele>258.5</ele><time>2026-05-01T10:58:37.798Z</time></trkpt><trkpt lat="45.3459033" lon="7.9907717"><ele>260.0</ele><time>2026-05-01T10:58:38.798Z</time></trkpt><trkpt lat="45.3460017" lon="7.9907833"><ele>260.0</ele><time>2026-05-01T10:58:39.798Z</time></trkpt><trkpt lat="45.346085" lon="7.9908033"><ele>260.0</ele><time>2026-05-01T10:58:40.798Z</time></trkpt><trkpt lat="45.3461817" lon="7.99083"><ele>260.0</ele><time>2026-05-01T10:58:42.797Z</time></trkpt><trkpt lat="45.34626" lon="7.99086"><ele>260.0</ele><time>2026-05-01T10:58:44.798Z</time></trkpt><trkpt lat="45.3463867" lon="7.9908683"><ele>260.0</ele><time>2026-05-01T10:58:46.798Z</time></trkpt><trkpt lat="45.3464517" lon="7.9908783"><ele>258.33333333333337</ele><time>2026-05-01T10:58:47.798Z</time></trkpt><trkpt lat="45.3465283" lon="7.99098"><ele>256.6666666666667</ele><time>2026-05-01T10:58:49.798Z</time></trkpt><trkpt lat="45.3465517" lon="7.9910917"><ele>255.0</ele><time>2026-05-01T10:58:50.798Z</time></trkpt><trkpt lat="45.346575" lon="7.991215"><ele>253.33333333333331</ele><time>2026-05-01T10:58:51.798Z</time></trkpt><trkpt lat="45.3465867" lon="7.9913317"><ele>251.66666666666666</ele><time>2026-05-01T10:58:52.798Z</time></trkpt><trkpt lat="45.346605" lon="7.9914367"><ele>250.0</ele><time>2026-05-01T10:58:53.798Z</time></trkpt><trkpt lat="45.3466183" lon="7.9915283"><ele>249.99999999999997</ele><time>2026-05-01T10:58:54.798Z</time></trkpt><trkpt lat="45.3466467" lon="7.991655"><ele>250.0</ele><time>2026-05-01T10:58:56.797Z</time></trkpt><trkpt lat="45.346665" lon="7.9917533"><ele>250.0</ele><time>2026-05-01T10:58:58.798Z</time></trkpt><trkpt lat="45.3466833" lon="7.9918533"><ele>250.0</ele><time>2026-05-01T10:59:00.798Z</time></trkpt><trkpt lat="45.3467117" lon="7.991975"><ele>249.99999999999997</ele><time>2026-05-01T10:59:02.798Z</time></trkpt><trkpt lat="45.3467417" lon="7.9921117"><ele>250.0</ele><time>2026-05-01T10:59:04.798Z</time></trkpt><trkpt lat="45.34676" lon="7.9921983"><ele>250.0</ele><time>2026-05-01T10:59:05.798Z</time></trkpt><trkpt lat="45.3467783" lon="7.9923217"><ele>250.0</ele><time>2026-05-01T10:59:06.798Z</time></trkpt><trkpt lat="45.3468017" lon="7.9924533"><ele>250.0</ele><time>2026-05-01T10:59:07.797Z</time></trkpt><trkpt lat="45.3468217" lon="7.9926133"><ele>250.0</ele><time>2026-05-01T10:59:08.798Z</time></trkpt><trkpt lat="45.3468433" lon="7.9927683"><ele>250.0</ele><time>2026-05-01T10:59:09.798Z</time></trkpt><trkpt lat="45.3468683" lon="7.992925"><ele>251.0</ele><time>2026-05-01T10:59:10.798Z</time></trkpt><trkpt lat="45.3468967" lon="7.993065"><ele>252.0</ele><time>2026-05-01T10:59:11.798Z</time></trkpt><trkpt lat="45.346915" lon="7.9932033"><ele>253.0</ele><time>2026-05-01T10:59:12.798Z</time></trkpt><trkpt lat="45.3469133" lon="7.9933467"><ele>254.0</ele><time>2026-05-01T10:59:13.798Z</time></trkpt><trkpt lat="45.3469033" lon="7.99349"><ele>255.0</ele><time>2026-05-01T10:59:14.798Z</time></trkpt><trkpt lat="45.3468817" lon="7.993625"><ele>255.8</ele><time>2026-05-01T10:59:15.798Z</time></trkpt><trkpt lat="45.346855" lon="7.9937483"><ele>256.6</ele><time>2026-05-01T10:59:16.798Z</time></trkpt><trkpt lat="45.3468283" lon="7.993875"><ele>257.4</ele><time>2026-05-01T10:59:17.798Z</time></trkpt><trkpt lat="45.3467867" lon="7.9939833"><ele>258.2</ele><time>2026-05-01T10:59:18.798Z</time></trkpt><trkpt lat="45.3467567" lon="7.9940967"><ele>259.0</ele><time>2026-05-01T10:59:19.798Z</time></trkpt><trkpt lat="45.3467083" lon="7.9942283"><ele>259.5</ele><time>2026-05-01T10:59:20.798Z</time></trkpt><trkpt lat="45.3466533" lon="7.99437"><ele>260.0</ele><time>2026-05-01T10:59:21.798Z</time></trkpt><trkpt lat="45.3465933" lon="7.9945283"><ele>260.5</ele><time>2026-05-01T10:59:22.798Z</time></trkpt><trkpt lat="45.3465317" lon="7.994695"><ele>261.0</ele><time>2026-05-01T10:59:23.798Z</time></trkpt><trkpt lat="45.3464667" lon="7.9948633"><ele>261.5</ele><time>2026-05-01T10:59:24.798Z</time></trkpt><trkpt lat="45.3463983" lon="7.9950317"><ele>262.0</ele><time>2026-05-01T10:59:25.798Z</time></trkpt><trkpt lat="45.34634" lon="7.995185"><ele>262.5</ele><time>2026-05-01T10:59:26.798Z</time></trkpt><trkpt lat="45.3463033" lon="7.9953317"><ele>263.0</ele><time>2026-05-01T10:59:27.798Z</time></trkpt><trkpt lat="45.3462767" lon="7.995495"><ele>261.75</ele><time>2026-05-01T10:59:28.798Z</time></trkpt><trkpt lat="45.3462417" lon="7.9956633"><ele>260.5</ele><time>2026-05-01T10:59:29.798Z</time></trkpt><trkpt lat="45.3462133" lon="7.9958533"><ele>259.25</ele><time>2026-05-01T10:59:30.798Z</time></trkpt><trkpt lat="45.346185" lon="7.99605"><ele>258.0</ele><time>2026-05-01T10:59:31.798Z</time></trkpt><trkpt lat="45.3461483" lon="7.9962367"><ele>258.0</ele><time>2026-05-01T10:59:32.798Z</time></trkpt><trkpt lat="45.3461183" lon="7.996405"><ele>258.0</ele><time>2026-05-01T10:59:33.798Z</time></trkpt><trkpt lat="45.3460717" lon="7.9965867"><ele>258.0</ele><time>2026-05-01T10:59:34.798Z</time></trkpt><trkpt lat="45.346025" lon="7.9967667"><ele>258.0</ele><time>2026-05-01T10:59:35.798Z</time></trkpt><trkpt lat="45.3459767" lon="7.9969133"><ele>259.0</ele><time>2026-05-01T10:59:36.798Z</time></trkpt><trkpt lat="45.3459267" lon="7.9970583"><ele>260.0</ele><time>2026-05-01T10:59:37.798Z</time></trkpt><trkpt lat="45.3458767" lon="7.9971983"><ele>261.0</ele><time>2026-05-01T10:59:38.798Z</time></trkpt><trkpt lat="45.3458283" lon="7.997355"><ele>262.0</ele><time>2026-05-01T10:59:39.798Z</time></trkpt><trkpt lat="45.3457733" lon="7.9975333"><ele>263.0</ele><time>2026-05-01T10:59:40.797Z</time></trkpt><trkpt lat="45.34572" lon="7.99773"><ele>264.0</ele><time>2026-05-01T10:59:41.798Z</time></trkpt><trkpt lat="45.3456667" lon="7.997925"><ele>265.0</ele><time>2026-05-01T10:59:42.798Z</time></trkpt><trkpt lat="45.3456067" lon="7.9981317"><ele>265.0</ele><time>2026-05-01T10:59:43.798Z</time></trkpt><trkpt lat="45.3455483" lon="7.9983283"><ele>265.0</ele><time>2026-05-01T10:59:44.798Z</time></trkpt><trkpt lat="45.3454867" lon="7.998535"><ele>265.0</ele><time>2026-05-01T10:59:45.798Z</time></trkpt><trkpt lat="45.34543" lon="7.9987267"><ele>264.5</ele><time>2026-05-01T10:59:46.798Z</time></trkpt><trkpt lat="45.3453867" lon="7.9989233"><ele>264.0</ele><time>2026-05-01T10:59:47.798Z</time></trkpt><trkpt lat="45.3453433" lon="7.9991267"><ele>263.5</ele><time>2026-05-01T10:59:48.798Z</time></trkpt><trkpt lat="45.34531" lon="7.9993083"><ele>263.0</ele><time>2026-05-01T10:59:49.798Z</time></trkpt><trkpt lat="45.3452833" lon="7.9994717"><ele>263.0</ele><time>2026-05-01T10:59:50.798Z</time></trkpt><trkpt lat="45.3452633" lon="7.9996417"><ele>263.0</ele><time>2026-05-01T10:59:51.798Z</time></trkpt><trkpt lat="45.34525" lon="7.9998067"><ele>263.0</ele><time>2026-05-01T10:59:52.798Z</time></trkpt><trkpt lat="45.34526" lon="7.9999833"><ele>263.0</ele><time>2026-05-01T10:59:53.798Z</time></trkpt><trkpt lat="45.345275" lon="8.0001733"><ele>263.0</ele><time>2026-05-01T10:59:54.798Z</time></trkpt><trkpt lat="45.34529" lon="8.0004067"><ele>263.0</ele><time>2026-05-01T10:59:55.798Z</time></trkpt><trkpt lat="45.3453383" lon="8.00062"><ele>263.0</ele><time>2026-05-01T10:59:56.798Z</time></trkpt><trkpt lat="45.3453933" lon="8.0008283"><ele>264.33333333333337</ele><time>2026-05-01T10:59:57.798Z</time></trkpt><trkpt lat="45.3454483" lon="8.001045"><ele>265.6666666666667</ele><time>2026-05-01T10:59:58.798Z</time></trkpt><trkpt lat="45.3455" lon="8.0012533"><ele>267.0</ele><time>2026-05-01T10:59:59.797Z</time></trkpt><trkpt lat="45.3455333" lon="8.0014417"><ele>268.8</ele><time>2026-05-01T11:00:00.798Z</time></trkpt><trkpt lat="45.34556" lon="8.0015967"><ele>270.6</ele><time>2026-05-01T11:00:01.798Z</time></trkpt><trkpt lat="45.3455867" lon="8.001745"><ele>272.40000000000003</ele><time>2026-05-01T11:00:02.797Z</time></trkpt><trkpt lat="45.3456133" lon="8.0018883"><ele>274.2</ele><time>2026-05-01T11:00:03.798Z</time></trkpt><trkpt lat="45.3456333" lon="8.002025"><ele>276.0</ele><time>2026-05-01T11:00:04.798Z</time></trkpt><trkpt lat="45.34566" lon="8.0021817"><ele>276.0</ele><time>2026-05-01T11:00:05.798Z</time></trkpt><trkpt lat="45.3456917" lon="8.00235"><ele>276.0</ele><time>2026-05-01T11:00:06.798Z</time></trkpt><trkpt lat="45.3457283" lon="8.0025117"><ele>276.0</ele><time>2026-05-01T11:00:07.798Z</time></trkpt><trkpt lat="45.3457633" lon="8.00268"><ele>276.0</ele><time>2026-05-01T11:00:08.798Z</time></trkpt><trkpt lat="45.3458117" lon="8.0028567"><ele>276.25</ele><time>2026-05-01T11:00:09.798Z</time></trkpt><trkpt lat="45.345875" lon="8.0030283"><ele>276.5</ele><time>2026-05-01T11:00:10.798Z</time></trkpt><trkpt lat="45.34594" lon="8.003195"><ele>276.75</ele><time>2026-05-01T11:00:11.798Z</time></trkpt><trkpt lat="45.346" lon="8.003345"><ele>277.0</ele><time>2026-05-01T11:00:12.798Z</time></trkpt><trkpt lat="45.34604" lon="8.0034983"><ele>277.5</ele><time>2026-05-01T11:00:13.798Z</time></trkpt><trkpt lat="45.346075" lon="8.003655"><ele>278.0</ele><time>2026-05-01T11:00:14.798Z</time></trkpt><trkpt lat="45.3461167" lon="8.003815"><ele>278.5</ele><time>2026-05-01T11:00:15.798Z</time></trkpt><trkpt lat="45.3461617" lon="8.0039683"><ele>279.0</ele><time>2026-05-01T11:00:16.798Z</time></trkpt><trkpt lat="45.3462217" lon="8.004105"><ele>280.0</ele><time>2026-05-01T11:00:17.798Z</time></trkpt><trkpt lat="45.346255" lon="8.004235"><ele>281.0</ele><time>2026-05-01T11:00:18.798Z</time></trkpt><trkpt lat="45.3462817" lon="8.0043683"><ele>282.0</ele><time>2026-05-01T11:00:19.798Z</time></trkpt><trkpt lat="45.3463017" lon="8.004515"><ele>283.0</ele><time>2026-05-01T11:00:20.798Z</time></trkpt><trkpt lat="45.346315" lon="8.0046633"><ele>284.0</ele><time>2026-05-01T11:00:21.798Z</time></trkpt><trkpt lat="45.3463217" lon="8.0047983"><ele>284.0</ele><time>2026-05-01T11:00:22.798Z</time></trkpt><trkpt lat="45.34633" lon="8.0049483"><ele>284.0</ele><time>2026-05-01T11:00:23.798Z</time></trkpt><trkpt lat="45.3463383" lon="8.0051067"><ele>284.0</ele><time>2026-05-01T11:00:24.797Z</time></trkpt><trkpt lat="45.3463333" lon="8.0052617"><ele>284.0</ele><time>2026-05-01T11:00:25.798Z</time></trkpt><trkpt lat="45.34633" lon="8.0054333"><ele>284.0</ele><time>2026-05-01T11:00:26.798Z</time></trkpt><trkpt lat="45.3463233" lon="8.0056"><ele>284.8</ele><time>2026-05-01T11:00:27.798Z</time></trkpt><trkpt lat="45.3463233" lon="8.0057417"><ele>285.59999999999997</ele><time>2026-05-01T11:00:28.798Z</time></trkpt><trkpt lat="45.3463217" lon="8.0058767"><ele>286.4</ele><time>2026-05-01T11:00:29.798Z</time></trkpt><trkpt lat="45.3463233" lon="8.0059933"><ele>287.2</ele><time>2026-05-01T11:00:30.798Z</time></trkpt><trkpt lat="45.3463283" lon="8.0060883"><ele>288.0</ele><time>2026-05-01T11:00:31.798Z</time></trkpt><trkpt lat="45.346335" lon="8.0062417"><ele>288.5</ele><time>2026-05-01T11:00:33.798Z</time></trkpt><trkpt lat="45.3463333" lon="8.006335"><ele>289.0</ele><time>2026-05-01T11:00:34.798Z</time></trkpt><trkpt lat="45.3463417" lon="8.0064383"><ele>289.5</ele><time>2026-05-01T11:00:35.798Z</time></trkpt><trkpt lat="45.3463717" lon="8.0065533"><ele>290.0</ele><time>2026-05-01T11:00:36.798Z</time></trkpt><trkpt lat="45.3464167" lon="8.00667"><ele>290.5</ele><time>2026-05-01T11:00:37.798Z</time></trkpt><trkpt lat="45.3464667" lon="8.00679"><ele>291.0</ele><time>2026-05-01T11:00:38.798Z</time></trkpt><trkpt lat="45.3465317" lon="8.00689"><ele>291.0</ele><time>2026-05-01T11:00:39.797Z</time></trkpt><trkpt lat="45.3466067" lon="8.006975"><ele>291.0</ele><time>2026-05-01T11:00:40.798Z</time></trkpt><trkpt lat="45.3466833" lon="8.0070417"><ele>291.0</ele><time>2026-05-01T11:00:41.798Z</time></trkpt><trkpt lat="45.3467667" lon="8.0071067"><ele>291.0</ele><time>2026-05-01T11:00:42.798Z</time></trkpt><trkpt lat="45.3468533" lon="8.0071717"><ele>291.0</ele><time>2026-05-01T11:00:43.798Z</time></trkpt><trkpt lat="45.34694" lon="8.0072367"><ele>291.0</ele><time>2026-05-01T11:00:44.798Z</time></trkpt><trkpt lat="45.3470283" lon="8.00731"><ele>291.0</ele><time>2026-05-01T11:00:45.798Z</time></trkpt><trkpt lat="45.3471233" lon="8.007395"><ele>291.0</ele><time>2026-05-01T11:00:46.798Z</time></trkpt><trkpt lat="45.3472217" lon="8.0074833"><ele>291.0</ele><time>2026-05-01T11:00:47.798Z</time></trkpt><trkpt lat="45.34732" lon="8.0075733"><ele>291.0</ele><time>2026-05-01T11:00:48.798Z</time></trkpt><trkpt lat="45.3474333" lon="8.0076583"><ele>291.40000000000003</ele><time>2026-05-01T11:00:49.798Z</time></trkpt><trkpt lat="45.3475367" lon="8.0077317"><ele>291.8</ele><time>2026-05-01T11:00:50.797Z</time></trkpt><trkpt lat="45.3476333" lon="8.0077983"><ele>292.20000000000005</ele><time>2026-05-01T11:00:51.798Z</time></trkpt><trkpt lat="45.3477167" lon="8.00785"><ele>292.6</ele><time>2026-05-01T11:00:52.798Z</time></trkpt><trkpt lat="45.34779" lon="8.0078867"><ele>293.0</ele><time>2026-05-01T11:00:53.798Z</time></trkpt><trkpt lat="45.3478517" lon="8.007935"><ele>293.0</ele><time>2026-05-01T11:00:54.798Z</time></trkpt><trkpt lat="45.3478967" lon="8.008095"><ele>293.0</ele><time>2026-05-01T11:00:56.798Z</time></trkpt><trkpt lat="45.3479033" lon="8.0082033"><ele>293.0</ele><time>2026-05-01T11:00:57.797Z</time></trkpt><trkpt lat="45.347905" lon="8.0083383"><ele>293.0</ele><time>2026-05-01T11:00:58.797Z</time></trkpt><trkpt lat="45.3479083" lon="8.008475"><ele>293.0</ele><time>2026-05-01T11:00:59.797Z</time></trkpt><trkpt lat="45.347915" lon="8.0086267"><ele>293.4</ele><time>2026-05-01T11:01:00.797Z</time></trkpt><trkpt lat="45.34792" lon="8.0087833"><ele>293.8</ele><time>2026-05-01T11:01:01.797Z</time></trkpt><trkpt lat="45.34793" lon="8.008955"><ele>294.2</ele><time>2026-05-01T11:01:02.797Z</time></trkpt><trkpt lat="45.3479467" lon="8.009105"><ele>294.6</ele><time>2026-05-01T11:01:03.797Z</time></trkpt><trkpt lat="45.3479583" lon="8.00925"><ele>295.0</ele><time>2026-05-01T11:01:04.796Z</time></trkpt><trkpt lat="45.3479867" lon="8.0093833"><ele>296.0</ele><time>2026-05-01T11:01:05.797Z</time></trkpt><trkpt lat="45.3480217" lon="8.009495"><ele>297.0</ele><time>2026-05-01T11:01:06.797Z</time></trkpt><trkpt lat="45.34813" lon="8.00962"><ele>298.0</ele><time>2026-05-01T11:01:08.797Z</time></trkpt><trkpt lat="45.34821" lon="8.009685"><ele>299.0</ele><time>2026-05-01T11:01:09.797Z</time></trkpt><trkpt lat="45.3482967" lon="8.0097417"><ele>300.0</ele><time>2026-05-01T11:01:10.797Z</time></trkpt><trkpt lat="45.3483733" lon="8.0097917"><ele>300.0</ele><time>2026-05-01T11:01:11.797Z</time></trkpt><trkpt lat="45.348445" lon="8.0098217"><ele>300.0</ele><time>2026-05-01T11:01:12.797Z</time></trkpt><trkpt lat="45.34852" lon="8.00988"><ele>300.0</ele><time>2026-05-01T11:01:14.797Z</time></trkpt><trkpt lat="45.3485183" lon="8.010015"><ele>300.0</ele><time>2026-05-01T11:01:17.797Z</time></trkpt><trkpt lat="45.348445" lon="8.0101867"><ele>300.0</ele><time>2026-05-01T11:01:19.797Z</time></trkpt><trkpt lat="45.3483983" lon="8.0102917"><ele>300.2</ele><time>2026-05-01T11:01:20.797Z</time></trkpt><trkpt lat="45.3483483" lon="8.0103933"><ele>300.4</ele><time>2026-05-01T11:01:21.796Z</time></trkpt><trkpt lat="45.3482733" lon="8.0104933"><ele>300.6</ele><time>2026-05-01T11:01:22.797Z</time></trkpt><trkpt lat="45.348215" lon="8.0106183"><ele>300.8</ele><time>2026-05-01T11:01:23.797Z</time></trkpt><trkpt lat="45.348155" lon="8.0107333"><ele>301.0</ele><time>2026-05-01T11:01:24.796Z</time></trkpt><trkpt lat="45.3480933" lon="8.01085"><ele>303.0</ele><time>2026-05-01T11:01:25.797Z</time></trkpt><trkpt lat="45.3480317" lon="8.0109633"><ele>305.0</ele><time>2026-05-01T11:01:26.797Z</time></trkpt><trkpt lat="45.34797" lon="8.0110717"><ele>307.0</ele><time>2026-05-01T11:01:27.797Z</time></trkpt><trkpt lat="45.34791" lon="8.0111783"><ele>309.0</ele><time>2026-05-01T11:01:28.797Z</time></trkpt><trkpt lat="45.3478483" lon="8.0112867"><ele>311.0</ele><time>2026-05-01T11:01:29.797Z</time></trkpt><trkpt lat="45.3477783" lon="8.0113717"><ele>311.0</ele><time>2026-05-01T11:01:30.797Z</time></trkpt><trkpt lat="45.34772" lon="8.01144"><ele>311.0</ele><time>2026-05-01T11:01:31.797Z</time></trkpt><trkpt lat="45.3476817" lon="8.0115233"><ele>311.0</ele><time>2026-05-01T11:01:32.797Z</time></trkpt><trkpt lat="45.34764" lon="8.0116017"><ele>311.0</ele><time>2026-05-01T11:01:33.797Z</time></trkpt><trkpt lat="45.3475283" lon="8.0116867"><ele>311.0</ele><time>2026-05-01T11:01:35.797Z</time></trkpt><trkpt lat="45.34745" lon="8.0117083"><ele>311.0</ele><time>2026-05-01T11:01:36.797Z</time></trkpt><trkpt lat="45.3473733" lon="8.0117217"><ele>311.33333333333337</ele><time>2026-05-01T11:01:37.797Z</time></trkpt><trkpt lat="45.3472817" lon="8.0117383"><ele>311.6666666666667</ele><time>2026-05-01T11:01:38.797Z</time></trkpt><trkpt lat="45.3472" lon="8.0117983"><ele>312.0</ele><time>2026-05-01T11:01:39.797Z</time></trkpt><trkpt lat="45.34713" lon="8.0118767"><ele>312.3333333333333</ele><time>2026-05-01T11:01:40.797Z</time></trkpt><trkpt lat="45.3470733" lon="8.0119767"><ele>312.66666666666663</ele><time>2026-05-01T11:01:41.797Z</time></trkpt><trkpt lat="45.3470267" lon="8.01207"><ele>313.0</ele><time>2026-05-01T11:01:42.797Z</time></trkpt><trkpt lat="45.3469867" lon="8.0121783"><ele>314.16666666666663</ele><time>2026-05-01T11:01:43.797Z</time></trkpt><trkpt lat="45.3469567" lon="8.0122883"><ele>315.3333333333333</ele><time>2026-05-01T11:01:44.797Z</time></trkpt><trkpt lat="45.346945" lon="8.01239"><ele>316.5</ele><time>2026-05-01T11:01:45.797Z</time></trkpt><trkpt lat="45.346885" lon="8.0125383"><ele>317.6666666666667</ele><time>2026-05-01T11:01:47.797Z</time></trkpt><trkpt lat="45.3468233" lon="8.0126033"><ele>318.83333333333337</ele><time>2026-05-01T11:01:48.797Z</time></trkpt><trkpt lat="45.34676" lon="8.0126633"><ele>320.0</ele><time>2026-05-01T11:01:49.797Z</time></trkpt><trkpt lat="45.34669" lon="8.0127283"><ele>317.0</ele><time>2026-05-01T11:01:50.797Z</time></trkpt><trkpt lat="45.34661" lon="8.0127833"><ele>314.0</ele><time>2026-05-01T11:01:51.797Z</time></trkpt><trkpt lat="45.3465317" lon="8.0128367"><ele>311.0</ele><time>2026-05-01T11:01:52.797Z</time></trkpt><trkpt lat="45.3464517" lon="8.012885"><ele>308.0</ele><time>2026-05-01T11:01:53.797Z</time></trkpt><trkpt lat="45.3463817" lon="8.012935"><ele>305.0</ele><time>2026-05-01T11:01:54.797Z</time></trkpt><trkpt lat="45.346305" lon="8.0130033"><ele>302.0</ele><time>2026-05-01T11:01:55.797Z</time></trkpt><trkpt lat="45.3462383" lon="8.0130617"><ele>302.0</ele><time>2026-05-01T11:01:56.797Z</time></trkpt><trkpt lat="45.3461717" lon="8.0131317"><ele>302.0</ele><time>2026-05-01T11:01:57.797Z</time></trkpt><trkpt lat="45.3461033" lon="8.0131967"><ele>302.0</ele><time>2026-05-01T11:01:58.797Z</time></trkpt><trkpt lat="45.346025" lon="8.0132833"><ele>302.0</ele><time>2026-05-01T11:01:59.797Z</time></trkpt><trkpt lat="45.3459483" lon="8.0133517"><ele>302.0</ele><time>2026-05-01T11:02:00.797Z</time></trkpt><trkpt lat="45.3458633" lon="8.0134133"><ele>299.83333333333337</ele><time>2026-05-01T11:02:01.797Z</time></trkpt><trkpt lat="45.3458017" lon="8.01344"><ele>297.6666666666667</ele><time>2026-05-01T11:02:02.797Z</time></trkpt><trkpt lat="45.3457383" lon="8.0134717"><ele>295.5</ele><time>2026-05-01T11:02:03.797Z</time></trkpt><trkpt lat="45.34562" lon="8.01347"><ele>293.3333333333333</ele><time>2026-05-01T11:02:05.797Z</time></trkpt><trkpt lat="45.3455183" lon="8.01349"><ele>291.16666666666663</ele><time>2026-05-01T11:02:07.797Z</time></trkpt><trkpt lat="45.345485" lon="8.0136"><ele>289.0</ele><time>2026-05-01T11:02:09.797Z</time></trkpt><trkpt lat="45.3455633" lon="8.0136583"><ele>289.0</ele><time>2026-05-01T11:02:11.797Z</time></trkpt><trkpt lat="45.3456517" lon="8.0136133"><ele>289.0</ele><time>2026-05-01T11:02:13.797Z</time></trkpt><trkpt lat="45.3457767" lon="8.0135417"><ele>289.0</ele><time>2026-05-01T11:02:15.797Z</time></trkpt><trkpt lat="45.3458467" lon="8.0135"><ele>289.0</ele><time>2026-05-01T11:02:16.797Z</time></trkpt><trkpt lat="45.3459167" lon="8.01344"><ele>289.0</ele><time>2026-05-01T11:02:17.797Z</time></trkpt><trkpt lat="45.3459967" lon="8.0133717"><ele>291.59999999999997</ele><time>2026-05-01T11:02:18.797Z</time></trkpt><trkpt lat="45.3460733" lon="8.0132983"><ele>294.2</ele><time>2026-05-01T11:02:19.797Z</time></trkpt><trkpt lat="45.3461383" lon="8.0132167"><ele>296.79999999999995</ele><time>2026-05-01T11:02:20.797Z</time></trkpt><trkpt lat="45.3462133" lon="8.01313"><ele>299.4</ele><time>2026-05-01T11:02:21.797Z</time></trkpt><trkpt lat="45.3462867" lon="8.0130667"><ele>302.0</ele><time>2026-05-01T11:02:22.797Z</time></trkpt><trkpt lat="45.3463667" lon="8.0129967"><ele>302.0</ele><time>2026-05-01T11:02:23.797Z</time></trkpt><trkpt lat="45.3464433" lon="8.0129517"><ele>302.0</ele><time>2026-05-01T11:02:24.797Z</time></trkpt><trkpt lat="45.34653" lon="8.0128967"><ele>302.0</ele><time>2026-05-01T11:02:25.797Z</time></trkpt><trkpt lat="45.34661" lon="8.0128267"><ele>302.0</ele><time>2026-05-01T11:02:26.797Z</time></trkpt><trkpt lat="45.3466817" lon="8.0127567"><ele>302.0</ele><time>2026-05-01T11:02:27.797Z</time></trkpt><trkpt lat="45.34675" lon="8.012685"><ele>302.0</ele><time>2026-05-01T11:02:28.797Z</time></trkpt><trkpt lat="45.34681" lon="8.0126117"><ele>302.0</ele><time>2026-05-01T11:02:29.797Z</time></trkpt><trkpt lat="45.3468633" lon="8.01256"><ele>302.0</ele><time>2026-05-01T11:02:30.797Z</time></trkpt><trkpt lat="45.3469433" lon="8.0124883"><ele>302.0</ele><time>2026-05-01T11:02:32.797Z</time></trkpt><trkpt lat="45.3470233" lon="8.0125533"><ele>302.0</ele><time>2026-05-01T11:02:36.797Z</time></trkpt><trkpt lat="45.3470517" lon="8.0126483"><ele>302.0</ele><time>2026-05-01T11:02:37.797Z</time></trkpt><trkpt lat="45.3470683" lon="8.0127733"><ele>302.0</ele><time>2026-05-01T11:02:38.797Z</time></trkpt><trkpt lat="45.3470617" lon="8.01294"><ele>302.0</ele><time>2026-05-01T11:02:39.797Z</time></trkpt><trkpt lat="45.3470517" lon="8.013115"><ele>302.0</ele><time>2026-05-01T11:02:40.797Z</time></trkpt><trkpt lat="45.3470367" lon="8.0132867"><ele>302.0</ele><time>2026-05-01T11:02:41.797Z</time></trkpt><trkpt lat="45.34703" lon="8.0134483"><ele>302.0</ele><time>2026-05-01T11:02:42.797Z</time></trkpt><trkpt lat="45.3470333" lon="8.0135883"><ele>300.2</ele><time>2026-05-01T11:02:43.797Z</time></trkpt><trkpt lat="45.3470467" lon="8.0137317"><ele>298.4</ele><time>2026-05-01T11:02:44.796Z</time></trkpt><trkpt lat="45.3470667" lon="8.013865"><ele>296.6</ele><time>2026-05-01T11:02:45.797Z</time></trkpt><trkpt lat="45.3471" lon="8.0139867"><ele>294.8</ele><time>2026-05-01T11:02:46.797Z</time></trkpt><trkpt lat="45.34711" lon="8.0141"><ele>293.0</ele><time>2026-05-01T11:02:47.797Z</time></trkpt><trkpt lat="45.3471283" lon="8.01422"><ele>293.33333333333337</ele><time>2026-05-01T11:02:48.797Z</time></trkpt><trkpt lat="45.3471467" lon="8.01434"><ele>293.6666666666667</ele><time>2026-05-01T11:02:49.797Z</time></trkpt><trkpt lat="45.3471783" lon="8.014455"><ele>294.0</ele><time>2026-05-01T11:02:50.797Z</time></trkpt><trkpt lat="45.3472083" lon="8.0145433"><ele>294.3333333333333</ele><time>2026-05-01T11:02:51.797Z</time></trkpt><trkpt lat="45.34725" lon="8.014625"><ele>294.66666666666663</ele><time>2026-05-01T11:02:53.797Z</time></trkpt><trkpt lat="45.347315" lon="8.0147017"><ele>295.0</ele><time>2026-05-01T11:02:55.797Z</time></trkpt><trkpt lat="45.3473783" lon="8.014745"><ele>295.0</ele><time>2026-05-01T11:02:56.797Z</time></trkpt><trkpt lat="45.3474517" lon="8.01479"><ele>295.0</ele><time>2026-05-01T11:02:57.797Z</time></trkpt><trkpt lat="45.34753" lon="8.01485"><ele>295.0</ele><time>2026-05-01T11:02:58.797Z</time></trkpt><trkpt lat="45.34761" lon="8.01491"><ele>295.0</ele><time>2026-05-01T11:02:59.797Z</time></trkpt><trkpt lat="45.3476867" lon="8.0149717"><ele>295.0</ele><time>2026-05-01T11:03:00.796Z</time></trkpt><trkpt lat="45.3477567" lon="8.0150283"><ele>295.0</ele><time>2026-05-01T11:03:01.797Z</time></trkpt><trkpt lat="45.3478333" lon="8.01509"><ele>294.0</ele><time>2026-05-01T11:03:02.797Z</time></trkpt><trkpt lat="45.3479233" lon="8.0151567"><ele>293.0</ele><time>2026-05-01T11:03:03.796Z</time></trkpt><trkpt lat="45.3480017" lon="8.0152267"><ele>292.0</ele><time>2026-05-01T11:03:04.797Z</time></trkpt><trkpt lat="45.3480967" lon="8.0153083"><ele>291.0</ele><time>2026-05-01T11:03:05.797Z</time></trkpt><trkpt lat="45.34819" lon="8.0153983"><ele>290.0</ele><time>2026-05-01T11:03:06.797Z</time></trkpt><trkpt lat="45.3482883" lon="8.015495"><ele>290.0</ele><time>2026-05-01T11:03:07.797Z</time></trkpt><trkpt lat="45.3483883" lon="8.0155983"><ele>290.0</ele><time>2026-05-01T11:03:08.797Z</time></trkpt><trkpt lat="45.3484983" lon="8.0157033"><ele>290.0</ele><time>2026-05-01T11:03:09.797Z</time></trkpt><trkpt lat="45.3486017" lon="8.0158033"><ele>290.0</ele><time>2026-05-01T11:03:10.797Z</time></trkpt><trkpt lat="45.348705" lon="8.015905"><ele>288.0</ele><time>2026-05-01T11:03:11.797Z</time></trkpt><trkpt lat="45.3488133" lon="8.0160067"><ele>286.0</ele><time>2026-05-01T11:03:12.797Z</time></trkpt><trkpt lat="45.34892" lon="8.0161117"><ele>284.0</ele><time>2026-05-01T11:03:13.797Z</time></trkpt><trkpt lat="45.349035" lon="8.0162233"><ele>282.0</ele><time>2026-05-01T11:03:14.797Z</time></trkpt><trkpt lat="45.349145" lon="8.0163317"><ele>282.0</ele><time>2026-05-01T11:03:15.797Z</time></trkpt><trkpt lat="45.3492533" lon="8.016445"><ele>282.0</ele><time>2026-05-01T11:03:16.797Z</time></trkpt><trkpt lat="45.3493667" lon="8.0165617"><ele>282.0</ele><time>2026-05-01T11:03:17.797Z</time></trkpt><trkpt lat="45.3494833" lon="8.0166867"><ele>282.0</ele><time>2026-05-01T11:03:18.797Z</time></trkpt><trkpt lat="45.34961" lon="8.0168117"><ele>282.0</ele><time>2026-05-01T11:03:19.797Z</time></trkpt><trkpt lat="45.3497367" lon="8.0169433"><ele>282.0</ele><time>2026-05-01T11:03:20.797Z</time></trkpt><trkpt lat="45.34987" lon="8.0170833"><ele>282.0</ele><time>2026-05-01T11:03:21.797Z</time></trkpt><trkpt lat="45.35" lon="8.01723"><ele>282.0</ele><time>2026-05-01T11:03:22.797Z</time></trkpt><trkpt lat="45.3501367" lon="8.0173733"><ele>282.0</ele><time>2026-05-01T11:03:23.797Z</time></trkpt><trkpt lat="45.3502817" lon="8.0175117"><ele>282.0</ele><time>2026-05-01T11:03:24.797Z</time></trkpt><trkpt lat="45.3504167" lon="8.0176517"><ele>283.0</ele><time>2026-05-01T11:03:25.797Z</time></trkpt><trkpt lat="45.350545" lon="8.0177733"><ele>284.0</ele><time>2026-05-01T11:03:26.797Z</time></trkpt><trkpt lat="45.35069" lon="8.0178867"><ele>285.0</ele><time>2026-05-01T11:03:27.797Z</time></trkpt><trkpt lat="45.3508367" lon="8.0179867"><ele>285.0</ele><time>2026-05-01T11:03:28.797Z</time></trkpt><trkpt lat="45.35097" lon="8.0180883"><ele>285.0</ele><time>2026-05-01T11:03:29.797Z</time></trkpt><trkpt lat="45.3510933" lon="8.0181683"><ele>285.0</ele><time>2026-05-01T11:03:30.797Z</time></trkpt><trkpt lat="45.3512" lon="8.0182517"><ele>285.0</ele><time>2026-05-01T11:03:31.797Z</time></trkpt><trkpt lat="45.3513117" lon="8.0183367"><ele>286.0</ele><time>2026-05-01T11:03:32.797Z</time></trkpt><trkpt lat="45.351415" lon="8.0184183"><ele>287.0</ele><time>2026-05-01T11:03:33.797Z</time></trkpt><trkpt lat="45.351495" lon="8.0184917"><ele>288.0</ele><time>2026-05-01T11:03:34.797Z</time></trkpt><trkpt lat="45.3515817" lon="8.0185583"><ele>289.0</ele><time>2026-05-01T11:03:35.797Z</time></trkpt><trkpt lat="45.351665" lon="8.018605"><ele>290.0</ele><time>2026-05-01T11:03:36.797Z</time></trkpt><trkpt lat="45.351755" lon="8.0186417"><ele>290.0</ele><time>2026-05-01T11:03:37.797Z</time></trkpt><trkpt lat="45.35185" lon="8.0186833"><ele>290.0</ele><time>2026-05-01T11:03:38.797Z</time></trkpt><trkpt lat="45.3519567" lon="8.018735"><ele>290.0</ele><time>2026-05-01T11:03:39.797Z</time></trkpt><trkpt lat="45.352075" lon="8.0187917"><ele>290.0</ele><time>2026-05-01T11:03:40.797Z</time></trkpt><trkpt lat="45.3521883" lon="8.0188417"><ele>289.6</ele><time>2026-05-01T11:03:41.797Z</time></trkpt><trkpt lat="45.3523" lon="8.0188717"><ele>289.2</ele><time>2026-05-01T11:03:42.797Z</time></trkpt><trkpt lat="45.3523933" lon="8.018895"><ele>288.8</ele><time>2026-05-01T11:03:43.797Z</time></trkpt><trkpt lat="45.3524733" lon="8.018935"><ele>288.4</ele><time>2026-05-01T11:03:44.797Z</time></trkpt><trkpt lat="45.3525517" lon="8.0189783"><ele>288.0</ele><time>2026-05-01T11:03:45.796Z</time></trkpt><trkpt lat="45.35263" lon="8.0190283"><ele>288.0</ele><time>2026-05-01T11:03:46.796Z</time></trkpt><trkpt lat="45.352705" lon="8.0190817"><ele>288.0</ele><time>2026-05-01T11:03:47.797Z</time></trkpt><trkpt lat="45.35278" lon="8.0191467"><ele>288.0</ele><time>2026-05-01T11:03:48.797Z</time></trkpt><trkpt lat="45.3528783" lon="8.0192417"><ele>288.0</ele><time>2026-05-01T11:03:49.797Z</time></trkpt><trkpt lat="45.352975" lon="8.01933"><ele>288.0</ele><time>2026-05-01T11:03:50.797Z</time></trkpt><trkpt lat="45.3530767" lon="8.0193983"><ele>289.0</ele><time>2026-05-01T11:03:51.797Z</time></trkpt><trkpt lat="45.3531683" lon="8.0194533"><ele>290.0</ele><time>2026-05-01T11:03:52.797Z</time></trkpt><trkpt lat="45.3532683" lon="8.0194867"><ele>291.0</ele><time>2026-05-01T11:03:53.797Z</time></trkpt><trkpt lat="45.3533817" lon="8.0195283"><ele>292.0</ele><time>2026-05-01T11:03:54.797Z</time></trkpt><trkpt lat="45.3535067" lon="8.0195733"><ele>293.0</ele><time>2026-05-01T11:03:55.797Z</time></trkpt><trkpt lat="45.3536233" lon="8.0196267"><ele>293.0</ele><time>2026-05-01T11:03:56.797Z</time></trkpt><trkpt lat="45.35372" lon="8.0196667"><ele>293.0</ele><time>2026-05-01T11:03:57.797Z</time></trkpt><trkpt lat="45.3538067" lon="8.019715"><ele>293.0</ele><time>2026-05-01T11:03:58.797Z</time></trkpt><trkpt lat="45.3539067" lon="8.019775"><ele>293.0</ele><time>2026-05-01T11:03:59.797Z</time></trkpt><trkpt lat="45.3540067" lon="8.0198417"><ele>293.0</ele><time>2026-05-01T11:04:00.797Z</time></trkpt><trkpt lat="45.3541" lon="8.019915"><ele>293.2</ele><time>2026-05-01T11:04:01.797Z</time></trkpt><trkpt lat="45.35419" lon="8.01998"><ele>293.4</ele><time>2026-05-01T11:04:02.797Z</time></trkpt><trkpt lat="45.354285" lon="8.02005"><ele>293.59999999999997</ele><time>2026-05-01T11:04:03.797Z</time></trkpt><trkpt lat="45.3543833" lon="8.0201017"><ele>293.8</ele><time>2026-05-01T11:04:04.797Z</time></trkpt><trkpt lat="45.3544767" lon="8.020135"><ele>294.0</ele><time>2026-05-01T11:04:05.797Z</time></trkpt><trkpt lat="45.3545767" lon="8.020155"><ele>295.0</ele><time>2026-05-01T11:04:06.797Z</time></trkpt><trkpt lat="45.3546933" lon="8.0201567"><ele>296.0</ele><time>2026-05-01T11:04:07.797Z</time></trkpt><trkpt lat="45.354805" lon="8.0201433"><ele>297.0</ele><time>2026-05-01T11:04:08.797Z</time></trkpt><trkpt lat="45.3549233" lon="8.02012"><ele>298.0</ele><time>2026-05-01T11:04:09.797Z</time></trkpt><trkpt lat="45.3550217" lon="8.0201"><ele>299.0</ele><time>2026-05-01T11:04:10.796Z</time></trkpt><trkpt lat="45.3551183" lon="8.02008"><ele>299.0</ele><time>2026-05-01T11:04:11.797Z</time></trkpt><trkpt lat="45.3552067" lon="8.0200633"><ele>299.0</ele><time>2026-05-01T11:04:12.797Z</time></trkpt><trkpt lat="45.35529" lon="8.0200517"><ele>299.0</ele><time>2026-05-01T11:04:13.797Z</time></trkpt><trkpt lat="45.3553717" lon="8.0200433"><ele>299.0</ele><time>2026-05-01T11:04:14.797Z</time></trkpt><trkpt lat="45.355445" lon="8.02003"><ele>299.0</ele><time>2026-05-01T11:04:15.797Z</time></trkpt><trkpt lat="45.3555717" lon="8.0200133"><ele>299.0</ele><time>2026-05-01T11:04:17.797Z</time></trkpt><trkpt lat="45.3556417" lon="8.0200117"><ele>299.0</ele><time>2026-05-01T11:04:18.797Z</time></trkpt><trkpt lat="45.355725" lon="8.0200183"><ele>299.0</ele><time>2026-05-01T11:04:19.797Z</time></trkpt><trkpt lat="45.355815" lon="8.0200267"><ele>299.0</ele><time>2026-05-01T11:04:20.797Z</time></trkpt><trkpt lat="45.3559017" lon="8.02004"><ele>299.0</ele><time>2026-05-01T11:04:21.797Z</time></trkpt><trkpt lat="45.356005" lon="8.0200533"><ele>299.0</ele><time>2026-05-01T11:04:22.796Z</time></trkpt><trkpt lat="45.35612" lon="8.0200767"><ele>299.0</ele><time>2026-05-01T11:04:23.797Z</time></trkpt><trkpt lat="45.356235" lon="8.0201033"><ele>299.0</ele><time>2026-05-01T11:04:24.797Z</time></trkpt><trkpt lat="45.3563433" lon="8.0201283"><ele>299.0</ele><time>2026-05-01T11:04:25.796Z</time></trkpt><trkpt lat="45.3564417" lon="8.02015"><ele>299.0</ele><time>2026-05-01T11:04:26.797Z</time></trkpt><trkpt lat="45.3565233" lon="8.0201683"><ele>299.0</ele><time>2026-05-01T11:04:27.797Z</time></trkpt><trkpt lat="45.3565967" lon="8.020195"><ele>300.0</ele><time>2026-05-01T11:04:28.797Z</time></trkpt><trkpt lat="45.3566783" lon="8.020215"><ele>301.0</ele><time>2026-05-01T11:04:29.797Z</time></trkpt><trkpt lat="45.3567733" lon="8.0202367"><ele>302.0</ele><time>2026-05-01T11:04:30.796Z</time></trkpt><trkpt lat="45.3568733" lon="8.0202633"><ele>303.0</ele><time>2026-05-01T11:04:31.797Z</time></trkpt><trkpt lat="45.3569783" lon="8.0202833"><ele>304.0</ele><time>2026-05-01T11:04:32.797Z</time></trkpt><trkpt lat="45.35708" lon="8.0203067"><ele>304.0</ele><time>2026-05-01T11:04:33.797Z</time></trkpt><trkpt lat="45.357185" lon="8.0203283"><ele>304.0</ele><time>2026-05-01T11:04:34.797Z</time></trkpt><trkpt lat="45.3572817" lon="8.020365"><ele>304.0</ele><time>2026-05-01T11:04:35.797Z</time></trkpt><trkpt lat="45.35737" lon="8.0203917"><ele>304.0</ele><time>2026-05-01T11:04:36.797Z</time></trkpt><trkpt lat="45.3574433" lon="8.0204133"><ele>304.0</ele><time>2026-05-01T11:04:37.797Z</time></trkpt><trkpt lat="45.35754" lon="8.0204067"><ele>303.59999999999997</ele><time>2026-05-01T11:04:39.797Z</time></trkpt><trkpt lat="45.3576283" lon="8.020345"><ele>303.2</ele><time>2026-05-01T11:04:42.797Z</time></trkpt><trkpt lat="45.35769" lon="8.0201733"><ele>302.79999999999995</ele><time>2026-05-01T11:04:44.797Z</time></trkpt><trkpt lat="45.3577283" lon="8.0200567"><ele>302.4</ele><time>2026-05-01T11:04:45.797Z</time></trkpt><trkpt lat="45.3577733" lon="8.0199633"><ele>302.0</ele><time>2026-05-01T11:04:46.797Z</time></trkpt><trkpt lat="45.3578817" lon="8.0198583"><ele>302.0</ele><time>2026-05-01T11:04:48.797Z</time></trkpt><trkpt lat="45.3579617" lon="8.0198067"><ele>302.0</ele><time>2026-05-01T11:04:49.797Z</time></trkpt><trkpt lat="45.3580533" lon="8.0197517"><ele>302.0</ele><time>2026-05-01T11:04:50.797Z</time></trkpt><trkpt lat="45.35813" lon="8.0197017"><ele>302.0</ele><time>2026-05-01T11:04:51.797Z</time></trkpt><trkpt lat="45.3582017" lon="8.0196533"><ele>302.0</ele><time>2026-05-01T11:04:52.797Z</time></trkpt><trkpt lat="45.3582583" lon="8.0196067"><ele>302.0</ele><time>2026-05-01T11:04:53.797Z</time></trkpt><trkpt lat="45.3583167" lon="8.0195633"><ele>303.1666666666667</ele><time>2026-05-01T11:04:54.797Z</time></trkpt><trkpt lat="45.3584" lon="8.0194933"><ele>304.33333333333337</ele><time>2026-05-01T11:04:56.797Z</time></trkpt><trkpt lat="45.358505" lon="8.0194317"><ele>305.5</ele><time>2026-05-01T11:04:58.797Z</time></trkpt><trkpt lat="45.358565" lon="8.0194"><ele>306.6666666666667</ele><time>2026-05-01T11:04:59.797Z</time></trkpt><trkpt lat="45.3586617" lon="8.019365"><ele>307.8333333333333</ele><time>2026-05-01T11:05:01.797Z</time></trkpt><trkpt lat="45.3587283" lon="8.0193583"><ele>309.0</ele><time>2026-05-01T11:05:02.797Z</time></trkpt><trkpt lat="45.3588433" lon="8.0193633"><ele>309.1666666666667</ele><time>2026-05-01T11:05:04.797Z</time></trkpt><trkpt lat="45.3589383" lon="8.0194"><ele>309.3333333333333</ele><time>2026-05-01T11:05:06.797Z</time></trkpt><trkpt lat="45.3590383" lon="8.0194217"><ele>309.5</ele><time>2026-05-01T11:05:08.797Z</time></trkpt><trkpt lat="45.359105" lon="8.01941"><ele>309.66666666666663</ele><time>2026-05-01T11:05:09.797Z</time></trkpt><trkpt lat="45.3591767" lon="8.0193783"><ele>309.8333333333333</ele><time>2026-05-01T11:05:10.797Z</time></trkpt><trkpt lat="45.3592467" lon="8.0193433"><ele>310.0</ele><time>2026-05-01T11:05:11.797Z</time></trkpt><trkpt lat="45.3593117" lon="8.0192967"><ele>310.0</ele><time>2026-05-01T11:05:12.797Z</time></trkpt><trkpt lat="45.3593783" lon="8.0192483"><ele>310.0</ele><time>2026-05-01T11:05:13.797Z</time></trkpt><trkpt lat="45.3594517" lon="8.019195"><ele>310.0</ele><time>2026-05-01T11:05:14.796Z</time></trkpt><trkpt lat="45.359545" lon="8.01914"><ele>310.0</ele><time>2026-05-01T11:05:15.797Z</time></trkpt><trkpt lat="45.35963" lon="8.0190933"><ele>310.0</ele><time>2026-05-01T11:05:16.797Z</time></trkpt><trkpt lat="45.3597133" lon="8.0190483"><ele>310.0</ele><time>2026-05-01T11:05:17.797Z</time></trkpt><trkpt lat="45.3597883" lon="8.0190167"><ele>309.66666666666663</ele><time>2026-05-01T11:05:18.797Z</time></trkpt><trkpt lat="45.3598667" lon="8.0189867"><ele>309.3333333333333</ele><time>2026-05-01T11:05:19.797Z</time></trkpt><trkpt lat="45.3599467" lon="8.01897"><ele>309.0</ele><time>2026-05-01T11:05:20.797Z</time></trkpt><trkpt lat="45.3600383" lon="8.01895"><ele>308.6666666666667</ele><time>2026-05-01T11:05:21.797Z</time></trkpt><trkpt lat="45.360115" lon="8.018935"><ele>308.33333333333337</ele><time>2026-05-01T11:05:22.797Z</time></trkpt><trkpt lat="45.3602117" lon="8.0189217"><ele>308.0</ele><time>2026-05-01T11:05:23.797Z</time></trkpt><trkpt lat="45.3603017" lon="8.0189083"><ele>308.0</ele><time>2026-05-01T11:05:24.797Z</time></trkpt><trkpt lat="45.3603767" lon="8.0188933"><ele>308.0</ele><time>2026-05-01T11:05:25.797Z</time></trkpt><trkpt lat="45.3604667" lon="8.018885"><ele>308.0</ele><time>2026-05-01T11:05:26.797Z</time></trkpt><trkpt lat="45.3605383" lon="8.0188833"><ele>308.0</ele><time>2026-05-01T11:05:27.797Z</time></trkpt><trkpt lat="45.3606083" lon="8.01887"><ele>308.0</ele><time>2026-05-01T11:05:28.797Z</time></trkpt><trkpt lat="45.360675" lon="8.0188483"><ele>308.0</ele><time>2026-05-01T11:05:29.797Z</time></trkpt><trkpt lat="45.3607433" lon="8.0188267"><ele>308.0</ele><time>2026-05-01T11:05:30.797Z</time></trkpt><trkpt lat="45.36081" lon="8.0188017"><ele>308.4</ele><time>2026-05-01T11:05:31.797Z</time></trkpt><trkpt lat="45.3609183" lon="8.0187417"><ele>308.8</ele><time>2026-05-01T11:05:33.797Z</time></trkpt><trkpt lat="45.3610133" lon="8.0186617"><ele>309.2</ele><time>2026-05-01T11:05:35.797Z</time></trkpt><trkpt lat="45.3610717" lon="8.0186233"><ele>309.6</ele><time>2026-05-01T11:05:36.797Z</time></trkpt><trkpt lat="45.3611383" lon="8.0185817"><ele>310.0</ele><time>2026-05-01T11:05:37.797Z</time></trkpt><trkpt lat="45.3612567" lon="8.0185217"><ele>310.0</ele><time>2026-05-01T11:05:39.797Z</time></trkpt><trkpt lat="45.3613367" lon="8.0184583"><ele>310.0</ele><time>2026-05-01T11:05:41.797Z</time></trkpt><trkpt lat="45.3614133" lon="8.0183833"><ele>310.0</ele><time>2026-05-01T11:05:43.797Z</time></trkpt><trkpt lat="45.3615" lon="8.0183033"><ele>310.0</ele><time>2026-05-01T11:05:45.797Z</time></trkpt><trkpt lat="45.36161" lon="8.0181983"><ele>310.0</ele><time>2026-05-01T11:05:47.797Z</time></trkpt><trkpt lat="45.3616817" lon="8.0181417"><ele>309.8333333333333</ele><time>2026-05-01T11:05:48.797Z</time></trkpt><trkpt lat="45.3617483" lon="8.0180883"><ele>309.66666666666663</ele><time>2026-05-01T11:05:49.797Z</time></trkpt><trkpt lat="45.3618117" lon="8.01805"><ele>309.5</ele><time>2026-05-01T11:05:50.797Z</time></trkpt><trkpt lat="45.3618733" lon="8.018015"><ele>309.3333333333333</ele><time>2026-05-01T11:05:51.797Z</time></trkpt><trkpt lat="45.3619667" lon="8.0179267"><ele>309.1666666666667</ele><time>2026-05-01T11:05:53.797Z</time></trkpt><trkpt lat="45.3620717" lon="8.01783"><ele>309.0</ele><time>2026-05-01T11:05:55.797Z</time></trkpt><trkpt lat="45.3621333" lon="8.0177967"><ele>309.8333333333333</ele><time>2026-05-01T11:05:56.797Z</time></trkpt><trkpt lat="45.3621983" lon="8.0177733"><ele>310.6666666666667</ele><time>2026-05-01T11:05:57.797Z</time></trkpt><trkpt lat="45.3622583" lon="8.0177433"><ele>311.5</ele><time>2026-05-01T11:05:58.797Z</time></trkpt><trkpt lat="45.36232" lon="8.0177133"><ele>312.33333333333337</ele><time>2026-05-01T11:05:59.797Z</time></trkpt><trkpt lat="45.3624283" lon="8.0176667"><ele>313.1666666666667</ele><time>2026-05-01T11:06:01.797Z</time></trkpt><trkpt lat="45.36253" lon="8.0176233"><ele>314.0</ele><time>2026-05-01T11:06:03.796Z</time></trkpt><trkpt lat="45.3626367" lon="8.0175783"><ele>314.0</ele><time>2026-05-01T11:06:05.796Z</time></trkpt><trkpt lat="45.3627433" lon="8.0175383"><ele>314.0</ele><time>2026-05-01T11:06:07.796Z</time></trkpt><trkpt lat="45.3628067" lon="8.0175133"><ele>314.0</ele><time>2026-05-01T11:06:08.796Z</time></trkpt><trkpt lat="45.362875" lon="8.0174817"><ele>314.0</ele><time>2026-05-01T11:06:09.796Z</time></trkpt><trkpt lat="45.3629367" lon="8.01744"><ele>314.0</ele><time>2026-05-01T11:06:10.796Z</time></trkpt><trkpt lat="45.363" lon="8.0174067"><ele>314.0</ele><time>2026-05-01T11:06:11.796Z</time></trkpt><trkpt lat="45.363105" lon="8.0173533"><ele>313.83333333333337</ele><time>2026-05-01T11:06:13.796Z</time></trkpt><trkpt lat="45.3631817" lon="8.0172917"><ele>313.6666666666667</ele><time>2026-05-01T11:06:15.796Z</time></trkpt><trkpt lat="45.3632533" lon="8.0172083"><ele>313.5</ele><time>2026-05-01T11:06:17.796Z</time></trkpt><trkpt lat="45.363315" lon="8.0171767"><ele>313.3333333333333</ele><time>2026-05-01T11:06:19.796Z</time></trkpt><trkpt lat="45.363395" lon="8.0172567"><ele>313.16666666666663</ele><time>2026-05-01T11:06:22.796Z</time></trkpt><trkpt lat="45.36344" lon="8.0173533"><ele>313.0</ele><time>2026-05-01T11:06:24.796Z</time></trkpt><trkpt lat="45.3634767" lon="8.0174367"><ele>313.16666666666663</ele><time>2026-05-01T11:06:26.796Z</time></trkpt><trkpt lat="45.3635367" lon="8.0175417"><ele>313.3333333333333</ele><time>2026-05-01T11:06:29.796Z</time></trkpt><trkpt lat="45.363605" lon="8.017615"><ele>313.5</ele><time>2026-05-01T11:06:32.796Z</time></trkpt><trkpt lat="45.363665" lon="8.0176533"><ele>313.6666666666667</ele><time>2026-05-01T11:06:34.796Z</time></trkpt><trkpt lat="45.3637317" lon="8.0177083"><ele>313.83333333333337</ele><time>2026-05-01T11:06:36.796Z</time></trkpt><trkpt lat="45.3638217" lon="8.0177733"><ele>314.0</ele><time>2026-05-01T11:06:38.796Z</time></trkpt><trkpt lat="45.3639183" lon="8.0178417"><ele>314.0</ele><time>2026-05-01T11:06:40.796Z</time></trkpt><trkpt lat="45.364005" lon="8.0179083"><ele>314.0</ele><time>2026-05-01T11:06:42.796Z</time></trkpt><trkpt lat="45.364085" lon="8.0179783"><ele>314.0</ele><time>2026-05-01T11:06:44.796Z</time></trkpt><trkpt lat="45.3642083" lon="8.0180433"><ele>314.0</ele><time>2026-05-01T11:06:46.796Z</time></trkpt><trkpt lat="45.3642767" lon="8.0180833"><ele>314.0</ele><time>2026-05-01T11:06:47.796Z</time></trkpt><trkpt lat="45.3643467" lon="8.0181217"><ele>314.0</ele><time>2026-05-01T11:06:48.796Z</time></trkpt><trkpt lat="45.364405" lon="8.0181617"><ele>314.0</ele><time>2026-05-01T11:06:49.796Z</time></trkpt><trkpt lat="45.364505" lon="8.0182317"><ele>314.0</ele><time>2026-05-01T11:06:51.796Z</time></trkpt><trkpt lat="45.3646067" lon="8.01829"><ele>314.0</ele><time>2026-05-01T11:06:53.796Z</time></trkpt><trkpt lat="45.3647167" lon="8.0183417"><ele>314.0</ele><time>2026-05-01T11:06:55.795Z</time></trkpt><trkpt lat="45.3648317" lon="8.018395"><ele>312.5</ele><time>2026-05-01T11:06:57.796Z</time></trkpt><trkpt lat="45.3649283" lon="8.0184317"><ele>311.0</ele><time>2026-05-01T11:06:59.796Z</time></trkpt><trkpt lat="45.3650333" lon="8.018485"><ele>309.5</ele><time>2026-05-01T11:07:01.796Z</time></trkpt><trkpt lat="45.3651067" lon="8.0185183"><ele>308.0</ele><time>2026-05-01T11:07:02.796Z</time></trkpt><trkpt lat="45.3651833" lon="8.0185483"><ele>306.5</ele><time>2026-05-01T11:07:03.796Z</time></trkpt><trkpt lat="45.3652533" lon="8.01858"><ele>305.0</ele><time>2026-05-01T11:07:04.796Z</time></trkpt><trkpt lat="45.36532" lon="8.018595"><ele>305.0</ele><time>2026-05-01T11:07:05.796Z</time></trkpt><trkpt lat="45.365425" lon="8.01863"><ele>305.0</ele><time>2026-05-01T11:07:07.795Z</time></trkpt><trkpt lat="45.3655417" lon="8.018655"><ele>305.0</ele><time>2026-05-01T11:07:09.796Z</time></trkpt><trkpt lat="45.3656317" lon="8.0186783"><ele>305.0</ele><time>2026-05-01T11:07:11.796Z</time></trkpt><trkpt lat="45.3657083" lon="8.0187067"><ele>305.0</ele><time>2026-05-01T11:07:13.796Z</time></trkpt><trkpt lat="45.3657783" lon="8.0188283"><ele>304.4</ele><time>2026-05-01T11:07:20.796Z</time></trkpt><trkpt lat="45.3657783" lon="8.01895"><ele>303.8</ele><time>2026-05-01T11:07:22.796Z</time></trkpt><trkpt lat="45.3657567" lon="8.019115"><ele>303.2</ele><time>2026-05-01T11:07:24.796Z</time></trkpt><trkpt lat="45.3657317" lon="8.0193"><ele>302.6</ele><time>2026-05-01T11:07:26.796Z</time></trkpt><trkpt lat="45.36572" lon="8.019415"><ele>302.0</ele><time>2026-05-01T11:07:27.796Z</time></trkpt><trkpt lat="45.365705" lon="8.0195333"><ele>301.83333333333337</ele><time>2026-05-01T11:07:28.796Z</time></trkpt><trkpt lat="45.3656867" lon="8.01963"><ele>301.6666666666667</ele><time>2026-05-01T11:07:29.796Z</time></trkpt><trkpt lat="45.3656717" lon="8.0197367"><ele>301.5</ele><time>2026-05-01T11:07:30.796Z</time></trkpt><trkpt lat="45.36565" lon="8.0198367"><ele>301.3333333333333</ele><time>2026-05-01T11:07:31.795Z</time></trkpt><trkpt lat="45.365625" lon="8.01994"><ele>301.16666666666663</ele><time>2026-05-01T11:07:32.796Z</time></trkpt><trkpt lat="45.365605" lon="8.020045"><ele>301.0</ele><time>2026-05-01T11:07:33.796Z</time></trkpt><trkpt lat="45.3655783" lon="8.0201633"><ele>300.66666666666663</ele><time>2026-05-01T11:07:34.796Z</time></trkpt><trkpt lat="45.3655633" lon="8.0202767"><ele>300.3333333333333</ele><time>2026-05-01T11:07:35.796Z</time></trkpt><trkpt lat="45.36555" lon="8.02038"><ele>300.0</ele><time>2026-05-01T11:07:36.795Z</time></trkpt><trkpt lat="45.36552" lon="8.020505"><ele>299.6666666666667</ele><time>2026-05-01T11:07:37.796Z</time></trkpt><trkpt lat="45.365485" lon="8.020635"><ele>299.33333333333337</ele><time>2026-05-01T11:07:38.796Z</time></trkpt><trkpt lat="45.3654433" lon="8.0207617"><ele>299.0</ele><time>2026-05-01T11:07:39.796Z</time></trkpt><trkpt lat="45.3654133" lon="8.0208917"><ele>298.4</ele><time>2026-05-01T11:07:40.796Z</time></trkpt><trkpt lat="45.36538" lon="8.0210233"><ele>297.79999999999995</ele><time>2026-05-01T11:07:41.796Z</time></trkpt><trkpt lat="45.3653517" lon="8.0211517"><ele>297.20000000000005</ele><time>2026-05-01T11:07:42.796Z</time></trkpt><trkpt lat="45.36533" lon="8.0212967"><ele>296.6</ele><time>2026-05-01T11:07:43.796Z</time></trkpt><trkpt lat="45.3653" lon="8.021435"><ele>296.0</ele><time>2026-05-01T11:07:44.796Z</time></trkpt><trkpt lat="45.3652733" lon="8.021555"><ele>295.7142857142857</ele><time>2026-05-01T11:07:45.796Z</time></trkpt><trkpt lat="45.365245" lon="8.02166"><ele>295.42857142857144</ele><time>2026-05-01T11:07:46.796Z</time></trkpt><trkpt lat="45.3652233" lon="8.0217567"><ele>295.1428571428571</ele><time>2026-05-01T11:07:47.796Z</time></trkpt><trkpt lat="45.365205" lon="8.0218633"><ele>294.8571428571429</ele><time>2026-05-01T11:07:48.796Z</time></trkpt><trkpt lat="45.36519" lon="8.0219683"><ele>294.57142857142856</ele><time>2026-05-01T11:07:49.796Z</time></trkpt><trkpt lat="45.365175" lon="8.0220733"><ele>294.2857142857143</ele><time>2026-05-01T11:07:50.796Z</time></trkpt><trkpt lat="45.3651567" lon="8.0221717"><ele>294.0</ele><time>2026-05-01T11:07:51.796Z</time></trkpt><trkpt lat="45.3651383" lon="8.02227"><ele>294.0</ele><time>2026-05-01T11:07:52.796Z</time></trkpt><trkpt lat="45.3651067" lon="8.0223867"><ele>294.0</ele><time>2026-05-01T11:07:53.796Z</time></trkpt><trkpt lat="45.3650667" lon="8.0225067"><ele>294.0</ele><time>2026-05-01T11:07:54.796Z</time></trkpt><trkpt lat="45.3650217" lon="8.0226167"><ele>294.0</ele><time>2026-05-01T11:07:55.796Z</time></trkpt><trkpt lat="45.3649783" lon="8.0227167"><ele>294.0</ele><time>2026-05-01T11:07:56.796Z</time></trkpt><trkpt lat="45.3649383" lon="8.0228133"><ele>294.0</ele><time>2026-05-01T11:07:57.796Z</time></trkpt><trkpt lat="45.3648883" lon="8.0229283"><ele>294.0</ele><time>2026-05-01T11:07:58.796Z</time></trkpt><trkpt lat="45.3648467" lon="8.0230233"><ele>294.0</ele><time>2026-05-01T11:07:59.796Z</time></trkpt><trkpt lat="45.3648083" lon="8.0231233"><ele>294.0</ele><time>2026-05-01T11:08:00.796Z</time></trkpt><trkpt lat="45.3647667" lon="8.0232283"><ele>294.0</ele><time>2026-05-01T11:08:01.796Z</time></trkpt><trkpt lat="45.3647383" lon="8.02332"><ele>294.0</ele><time>2026-05-01T11:08:02.796Z</time></trkpt><trkpt lat="45.3647117" lon="8.0234067"><ele>294.0</ele><time>2026-05-01T11:08:03.796Z</time></trkpt><trkpt lat="45.3646867" lon="8.0234983"><ele>294.0</ele><time>2026-05-01T11:08:04.796Z</time></trkpt><trkpt lat="45.3646583" lon="8.0236067"><ele>293.5</ele><time>2026-05-01T11:08:05.796Z</time></trkpt><trkpt lat="45.3646317" lon="8.023715"><ele>293.0</ele><time>2026-05-01T11:08:06.796Z</time></trkpt><trkpt lat="45.3646017" lon="8.0238333"><ele>292.5</ele><time>2026-05-01T11:08:07.795Z</time></trkpt><trkpt lat="45.364575" lon="8.0239417"><ele>292.0</ele><time>2026-05-01T11:08:08.796Z</time></trkpt><trkpt lat="45.3645483" lon="8.0240417"><ele>291.5</ele><time>2026-05-01T11:08:09.796Z</time></trkpt><trkpt lat="45.3645233" lon="8.0241317"><ele>291.0</ele><time>2026-05-01T11:08:10.796Z</time></trkpt><trkpt lat="45.36448" lon="8.0242817"><ele>291.0</ele><time>2026-05-01T11:08:12.796Z</time></trkpt><trkpt lat="45.3644267" lon="8.0243867"><ele>291.0</ele><time>2026-05-01T11:08:14.796Z</time></trkpt><trkpt lat="45.364375" lon="8.024455"><ele>291.0</ele><time>2026-05-01T11:08:16.796Z</time></trkpt><trkpt lat="45.3642933" lon="8.0245583"><ele>291.0</ele><time>2026-05-01T11:08:18.796Z</time></trkpt><trkpt lat="45.3642483" lon="8.02463"><ele>291.0</ele><time>2026-05-01T11:08:19.796Z</time></trkpt><trkpt lat="45.3642" lon="8.0247167"><ele>291.0</ele><time>2026-05-01T11:08:20.796Z</time></trkpt><trkpt lat="45.3641517" lon="8.0248117"><ele>291.0</ele><time>2026-05-01T11:08:21.796Z</time></trkpt><trkpt lat="45.3641067" lon="8.024915"><ele>291.0</ele><time>2026-05-01T11:08:22.796Z</time></trkpt><trkpt lat="45.3640583" lon="8.0250383"><ele>291.0</ele><time>2026-05-01T11:08:23.796Z</time></trkpt><trkpt lat="45.364025" lon="8.0251767"><ele>291.0</ele><time>2026-05-01T11:08:24.796Z</time></trkpt><trkpt lat="45.3640033" lon="8.0253067"><ele>291.0</ele><time>2026-05-01T11:08:25.796Z</time></trkpt><trkpt lat="45.3639817" lon="8.02543"><ele>291.8333333333333</ele><time>2026-05-01T11:08:26.796Z</time></trkpt><trkpt lat="45.36396" lon="8.0255483"><ele>292.6666666666667</ele><time>2026-05-01T11:08:27.796Z</time></trkpt><trkpt lat="45.3639417" lon="8.0256683"><ele>293.5</ele><time>2026-05-01T11:08:28.796Z</time></trkpt><trkpt lat="45.3639333" lon="8.0257583"><ele>294.33333333333337</ele><time>2026-05-01T11:08:29.796Z</time></trkpt><trkpt lat="45.3639317" lon="8.02586"><ele>295.1666666666667</ele><time>2026-05-01T11:08:30.796Z</time></trkpt><trkpt lat="45.36395" lon="8.0259567"><ele>296.0</ele><time>2026-05-01T11:08:31.796Z</time></trkpt><trkpt lat="45.36397" lon="8.0260683"><ele>296.0</ele><time>2026-05-01T11:08:32.796Z</time></trkpt><trkpt lat="45.3639983" lon="8.0261717"><ele>296.0</ele><time>2026-05-01T11:08:33.796Z</time></trkpt><trkpt lat="45.364045" lon="8.02627"><ele>296.0</ele><time>2026-05-01T11:08:34.796Z</time></trkpt><trkpt lat="45.3641083" lon="8.02637"><ele>296.0</ele><time>2026-05-01T11:08:35.796Z</time></trkpt><trkpt lat="45.364165" lon="8.0264667"><ele>296.0</ele><time>2026-05-01T11:08:36.796Z</time></trkpt><trkpt lat="45.3642267" lon="8.0265483"><ele>296.0</ele><time>2026-05-01T11:08:37.796Z</time></trkpt><trkpt lat="45.3642667" lon="8.026625"><ele>294.8</ele><time>2026-05-01T11:08:38.796Z</time></trkpt><trkpt lat="45.36431" lon="8.0267933"><ele>293.6</ele><time>2026-05-01T11:08:40.796Z</time></trkpt><trkpt lat="45.36432" lon="8.0269033"><ele>292.4</ele><time>2026-05-01T11:08:41.796Z</time></trkpt><trkpt lat="45.364325" lon="8.027015"><ele>291.2</ele><time>2026-05-01T11:08:42.796Z</time></trkpt><trkpt lat="45.36433" lon="8.0271383"><ele>290.0</ele><time>2026-05-01T11:08:43.796Z</time></trkpt><trkpt lat="45.3643383" lon="8.0272533"><ele>290.0</ele><time>2026-05-01T11:08:44.796Z</time></trkpt><trkpt lat="45.3643517" lon="8.0274017"><ele>290.0</ele><time>2026-05-01T11:08:45.796Z</time></trkpt><trkpt lat="45.364385" lon="8.0275467"><ele>290.0</ele><time>2026-05-01T11:08:46.796Z</time></trkpt><trkpt lat="45.3644183" lon="8.02769"><ele>290.0</ele><time>2026-05-01T11:08:47.796Z</time></trkpt><trkpt lat="45.3644517" lon="8.0278317"><ele>290.0</ele><time>2026-05-01T11:08:48.796Z</time></trkpt><trkpt lat="45.3644917" lon="8.0279617"><ele>289.1666666666667</ele><time>2026-05-01T11:08:49.796Z</time></trkpt><trkpt lat="45.3645167" lon="8.0280833"><ele>288.33333333333337</ele><time>2026-05-01T11:08:50.796Z</time></trkpt><trkpt lat="45.36455" lon="8.028185"><ele>287.5</ele><time>2026-05-01T11:08:51.796Z</time></trkpt><trkpt lat="45.3646" lon="8.028335"><ele>286.6666666666667</ele><time>2026-05-01T11:08:53.796Z</time></trkpt><trkpt lat="45.3646333" lon="8.0284417"><ele>285.8333333333333</ele><time>2026-05-01T11:08:55.796Z</time></trkpt><trkpt lat="45.3646983" lon="8.02847"><ele>285.0</ele><time>2026-05-01T11:09:01.795Z</time></trkpt><trkpt lat="45.3647617" lon="8.0283167"><ele>285.2857142857143</ele><time>2026-05-01T11:09:03.796Z</time></trkpt><trkpt lat="45.3648067" lon="8.0282367"><ele>285.57142857142856</ele><time>2026-05-01T11:09:04.796Z</time></trkpt><trkpt lat="45.3648567" lon="8.0281767"><ele>285.8571428571429</ele><time>2026-05-01T11:09:05.796Z</time></trkpt><trkpt lat="45.3649117" lon="8.0281217"><ele>286.1428571428571</ele><time>2026-05-01T11:09:06.796Z</time></trkpt><trkpt lat="45.3649783" lon="8.02806"><ele>286.42857142857144</ele><time>2026-05-01T11:09:07.796Z</time></trkpt><trkpt lat="45.3650467" lon="8.027995"><ele>286.7142857142857</ele><time>2026-05-01T11:09:08.796Z</time></trkpt><trkpt lat="45.3651017" lon="8.0279383"><ele>287.0</ele><time>2026-05-01T11:09:09.795Z</time></trkpt><trkpt lat="45.3652017" lon="8.0278433"><ele>287.0</ele><time>2026-05-01T11:09:11.796Z</time></trkpt><trkpt lat="45.3653017" lon="8.02775"><ele>287.0</ele><time>2026-05-01T11:09:13.796Z</time></trkpt><trkpt lat="45.3653533" lon="8.0276983"><ele>287.0</ele><time>2026-05-01T11:09:14.796Z</time></trkpt><trkpt lat="45.365405" lon="8.027645"><ele>287.0</ele><time>2026-05-01T11:09:15.796Z</time></trkpt><trkpt lat="45.3654567" lon="8.0275817"><ele>287.0</ele><time>2026-05-01T11:09:16.796Z</time></trkpt><trkpt lat="45.3655083" lon="8.0275117"><ele>287.0</ele><time>2026-05-01T11:09:17.796Z</time></trkpt><trkpt lat="45.3655667" lon="8.0274183"><ele>288.0</ele><time>2026-05-01T11:09:18.796Z</time></trkpt><trkpt lat="45.3656133" lon="8.0273267"><ele>289.0</ele><time>2026-05-01T11:09:19.796Z</time></trkpt><trkpt lat="45.36568" lon="8.0272383"><ele>290.0</ele><time>2026-05-01T11:09:20.796Z</time></trkpt><trkpt lat="45.36575" lon="8.0271533"><ele>291.0</ele><time>2026-05-01T11:09:21.796Z</time></trkpt><trkpt lat="45.3658283" lon="8.0270717"><ele>292.0</ele><time>2026-05-01T11:09:22.796Z</time></trkpt><trkpt lat="45.3659017" lon="8.0270017"><ele>293.0</ele><time>2026-05-01T11:09:23.796Z</time></trkpt><trkpt lat="45.365985" lon="8.0269483"><ele>293.0</ele><time>2026-05-01T11:09:24.796Z</time></trkpt><trkpt lat="45.366075" lon="8.0268833"><ele>293.0</ele><time>2026-05-01T11:09:25.795Z</time></trkpt><trkpt lat="45.3661583" lon="8.02681"><ele>293.0</ele><time>2026-05-01T11:09:26.796Z</time></trkpt><trkpt lat="45.3662483" lon="8.0267317"><ele>293.0</ele><time>2026-05-01T11:09:27.796Z</time></trkpt><trkpt lat="45.3663417" lon="8.0266517"><ele>293.0</ele><time>2026-05-01T11:09:28.795Z</time></trkpt><trkpt lat="45.3664283" lon="8.0265717"><ele>292.83333333333337</ele><time>2026-05-01T11:09:29.796Z</time></trkpt><trkpt lat="45.36651" lon="8.0265117"><ele>292.6666666666667</ele><time>2026-05-01T11:09:30.795Z</time></trkpt><trkpt lat="45.3665833" lon="8.0264567"><ele>292.5</ele><time>2026-05-01T11:09:31.796Z</time></trkpt><trkpt lat="45.36665" lon="8.026405"><ele>292.3333333333333</ele><time>2026-05-01T11:09:32.796Z</time></trkpt><trkpt lat="45.3667183" lon="8.02633"><ele>292.16666666666663</ele><time>2026-05-01T11:09:33.796Z</time></trkpt><trkpt lat="45.3667767" lon="8.026265"><ele>292.0</ele><time>2026-05-01T11:09:34.796Z</time></trkpt><trkpt lat="45.366835" lon="8.0261833"><ele>292.0</ele><time>2026-05-01T11:09:35.796Z</time></trkpt><trkpt lat="45.3668817" lon="8.0260933"><ele>292.0</ele><time>2026-05-01T11:09:36.796Z</time></trkpt><trkpt lat="45.3669183" lon="8.026015"><ele>292.0</ele><time>2026-05-01T11:09:37.796Z</time></trkpt><trkpt lat="45.3669817" lon="8.0258883"><ele>292.0</ele><time>2026-05-01T11:09:39.796Z</time></trkpt><trkpt lat="45.3670567" lon="8.0257567"><ele>292.0</ele><time>2026-05-01T11:09:41.796Z</time></trkpt><trkpt lat="45.3671033" lon="8.02568"><ele>292.0</ele><time>2026-05-01T11:09:42.796Z</time></trkpt><trkpt lat="45.3671567" lon="8.0255917"><ele>292.8</ele><time>2026-05-01T11:09:43.796Z</time></trkpt><trkpt lat="45.3672133" lon="8.025495"><ele>293.6</ele><time>2026-05-01T11:09:44.796Z</time></trkpt><trkpt lat="45.36728" lon="8.0254"><ele>294.40000000000003</ele><time>2026-05-01T11:09:45.796Z</time></trkpt><trkpt lat="45.3673583" lon="8.0253133"><ele>295.2</ele><time>2026-05-01T11:09:46.796Z</time></trkpt><trkpt lat="45.3674483" lon="8.0252183"><ele>296.0</ele><time>2026-05-01T11:09:47.796Z</time></trkpt><trkpt lat="45.367525" lon="8.0251433"><ele>296.0</ele><time>2026-05-01T11:09:48.796Z</time></trkpt><trkpt lat="45.3675867" lon="8.0250783"><ele>296.0</ele><time>2026-05-01T11:09:49.796Z</time></trkpt><trkpt lat="45.3676483" lon="8.025025"><ele>296.0</ele><time>2026-05-01T11:09:50.795Z</time></trkpt><trkpt lat="45.3677033" lon="8.02498"><ele>296.0</ele><time>2026-05-01T11:09:51.796Z</time></trkpt><trkpt lat="45.3678083" lon="8.0248983"><ele>296.0</ele><time>2026-05-01T11:09:53.795Z</time></trkpt><trkpt lat="45.3678917" lon="8.024795"><ele>296.0</ele><time>2026-05-01T11:09:55.796Z</time></trkpt><trkpt lat="45.36794" lon="8.0247367"><ele>296.5</ele><time>2026-05-01T11:09:56.796Z</time></trkpt><trkpt lat="45.367995" lon="8.024685"><ele>297.0</ele><time>2026-05-01T11:09:57.796Z</time></trkpt><trkpt lat="45.3680633" lon="8.0246317"><ele>297.5</ele><time>2026-05-01T11:09:58.796Z</time></trkpt><trkpt lat="45.36814" lon="8.0245883"><ele>298.0</ele><time>2026-05-01T11:09:59.796Z</time></trkpt><trkpt lat="45.3682083" lon="8.0245333"><ele>298.5</ele><time>2026-05-01T11:10:00.796Z</time></trkpt><trkpt lat="45.3682817" lon="8.0244717"><ele>299.0</ele><time>2026-05-01T11:10:01.796Z</time></trkpt><trkpt lat="45.368345" lon="8.0244083"><ele>299.0</ele><time>2026-05-01T11:10:02.796Z</time></trkpt><trkpt lat="45.368425" lon="8.0243333"><ele>299.0</ele><time>2026-05-01T11:10:03.796Z</time></trkpt><trkpt lat="45.3684867" lon="8.0242767"><ele>299.0</ele><time>2026-05-01T11:10:04.796Z</time></trkpt><trkpt lat="45.3685417" lon="8.0242317"><ele>299.0</ele><time>2026-05-01T11:10:05.796Z</time></trkpt><trkpt lat="45.3686567" lon="8.0241933"><ele>299.0</ele><time>2026-05-01T11:10:07.796Z</time></trkpt><trkpt lat="45.3687367" lon="8.02419"><ele>299.0</ele><time>2026-05-01T11:10:08.796Z</time></trkpt><trkpt lat="45.3688183" lon="8.024165"><ele>299.59999999999997</ele><time>2026-05-01T11:10:09.796Z</time></trkpt><trkpt lat="45.368895" lon="8.0241333"><ele>300.2</ele><time>2026-05-01T11:10:10.796Z</time></trkpt><trkpt lat="45.3689967" lon="8.0240883"><ele>300.79999999999995</ele><time>2026-05-01T11:10:11.796Z</time></trkpt><trkpt lat="45.3690983" lon="8.024045"><ele>301.4</ele><time>2026-05-01T11:10:12.796Z</time></trkpt><trkpt lat="45.369195" lon="8.0240067"><ele>302.0</ele><time>2026-05-01T11:10:13.796Z</time></trkpt><trkpt lat="45.3692883" lon="8.0239783"><ele>302.0</ele><time>2026-05-01T11:10:14.796Z</time></trkpt><trkpt lat="45.36937" lon="8.0239633"><ele>302.0</ele><time>2026-05-01T11:10:15.796Z</time></trkpt><trkpt lat="45.36946" lon="8.0239567"><ele>302.0</ele><time>2026-05-01T11:10:16.796Z</time></trkpt><trkpt lat="45.3695517" lon="8.0239333"><ele>302.0</ele><time>2026-05-01T11:10:17.796Z</time></trkpt><trkpt lat="45.369635" lon="8.0239033"><ele>302.0</ele><time>2026-05-01T11:10:18.796Z</time></trkpt><trkpt lat="45.3697117" lon="8.0238767"><ele>302.0</ele><time>2026-05-01T11:10:19.796Z</time></trkpt><trkpt lat="45.369805" lon="8.02385"><ele>302.83333333333337</ele><time>2026-05-01T11:10:20.796Z</time></trkpt><trkpt lat="45.3698917" lon="8.0238267"><ele>303.6666666666667</ele><time>2026-05-01T11:10:21.796Z</time></trkpt><trkpt lat="45.3699633" lon="8.0238017"><ele>304.5</ele><time>2026-05-01T11:10:22.796Z</time></trkpt><trkpt lat="45.3700383" lon="8.0237733"><ele>305.3333333333333</ele><time>2026-05-01T11:10:23.795Z</time></trkpt><trkpt lat="45.3701183" lon="8.0237383"><ele>306.16666666666663</ele><time>2026-05-01T11:10:24.796Z</time></trkpt><trkpt lat="45.370195" lon="8.0236933"><ele>307.0</ele><time>2026-05-01T11:10:25.796Z</time></trkpt><trkpt lat="45.3702717" lon="8.0236517"><ele>307.0</ele><time>2026-05-01T11:10:26.796Z</time></trkpt><trkpt lat="45.37035" lon="8.0236133"><ele>307.0</ele><time>2026-05-01T11:10:27.796Z</time></trkpt><trkpt lat="45.3704133" lon="8.02357"><ele>307.0</ele><time>2026-05-01T11:10:28.796Z</time></trkpt><trkpt lat="45.3704817" lon="8.0235183"><ele>307.0</ele><time>2026-05-01T11:10:29.796Z</time></trkpt><trkpt lat="45.3705483" lon="8.023465"><ele>307.0</ele><time>2026-05-01T11:10:30.795Z</time></trkpt><trkpt lat="45.370605" lon="8.0234117"><ele>307.0</ele><time>2026-05-01T11:10:31.796Z</time></trkpt><trkpt lat="45.37068" lon="8.02334"><ele>307.3333333333333</ele><time>2026-05-01T11:10:32.796Z</time></trkpt><trkpt lat="45.37074" lon="8.0232567"><ele>307.66666666666663</ele><time>2026-05-01T11:10:33.796Z</time></trkpt><trkpt lat="45.3708" lon="8.0231883"><ele>308.0</ele><time>2026-05-01T11:10:34.796Z</time></trkpt><trkpt lat="45.370865" lon="8.023125"><ele>308.3333333333333</ele><time>2026-05-01T11:10:35.796Z</time></trkpt><trkpt lat="45.37093" lon="8.0230683"><ele>308.6666666666667</ele><time>2026-05-01T11:10:36.796Z</time></trkpt><trkpt lat="45.3709917" lon="8.0230183"><ele>309.0</ele><time>2026-05-01T11:10:37.796Z</time></trkpt><trkpt lat="45.3710583" lon="8.022975"><ele>309.0</ele><time>2026-05-01T11:10:38.796Z</time></trkpt><trkpt lat="45.37119" lon="8.022925"><ele>309.0</ele><time>2026-05-01T11:10:40.796Z</time></trkpt><trkpt lat="45.3712633" lon="8.022915"><ele>309.0</ele><time>2026-05-01T11:10:41.796Z</time></trkpt><trkpt lat="45.371335" lon="8.0229017"><ele>309.0</ele><time>2026-05-01T11:10:42.795Z</time></trkpt><trkpt lat="45.3714033" lon="8.0229083"><ele>309.0</ele><time>2026-05-01T11:10:43.795Z</time></trkpt><trkpt lat="45.37147" lon="8.022915"><ele>309.0</ele><time>2026-05-01T11:10:44.795Z</time></trkpt><trkpt lat="45.3715983" lon="8.02292"><ele>308.6666666666667</ele><time>2026-05-01T11:10:46.795Z</time></trkpt><trkpt lat="45.3716683" lon="8.022905"><ele>308.3333333333333</ele><time>2026-05-01T11:10:47.795Z</time></trkpt><trkpt lat="45.37176" lon="8.0229017"><ele>308.0</ele><time>2026-05-01T11:10:48.795Z</time></trkpt><trkpt lat="45.3718433" lon="8.02289"><ele>307.66666666666663</ele><time>2026-05-01T11:10:49.795Z</time></trkpt><trkpt lat="45.3719133" lon="8.0228767"><ele>307.3333333333333</ele><time>2026-05-01T11:10:50.795Z</time></trkpt><trkpt lat="45.371995" lon="8.0228767"><ele>307.0</ele><time>2026-05-01T11:10:51.795Z</time></trkpt><trkpt lat="45.372075" lon="8.0228683"><ele>307.0</ele><time>2026-05-01T11:10:52.795Z</time></trkpt><trkpt lat="45.3721517" lon="8.0228583"><ele>307.0</ele><time>2026-05-01T11:10:53.795Z</time></trkpt><trkpt lat="45.3722417" lon="8.0228467"><ele>307.0</ele><time>2026-05-01T11:10:54.795Z</time></trkpt><trkpt lat="45.3723233" lon="8.0228317"><ele>307.0</ele><time>2026-05-01T11:10:55.795Z</time></trkpt><trkpt lat="45.3724017" lon="8.022815"><ele>307.0</ele><time>2026-05-01T11:10:56.795Z</time></trkpt><trkpt lat="45.37248" lon="8.0227983"><ele>307.0</ele><time>2026-05-01T11:10:57.795Z</time></trkpt><trkpt lat="45.3725433" lon="8.02278"><ele>307.2</ele><time>2026-05-01T11:10:58.795Z</time></trkpt><trkpt lat="45.372655" lon="8.0227517"><ele>307.4</ele><time>2026-05-01T11:11:00.795Z</time></trkpt><trkpt lat="45.3727233" lon="8.0227383"><ele>307.6</ele><time>2026-05-01T11:11:02.795Z</time></trkpt><trkpt lat="45.3727633" lon="8.02283"><ele>307.8</ele><time>2026-05-01T11:11:04.795Z</time></trkpt><trkpt lat="45.3728217" lon="8.0229933"><ele>308.0</ele><time>2026-05-01T11:11:06.795Z</time></trkpt><trkpt lat="45.3728517" lon="8.0230767"><ele>308.0</ele><time>2026-05-01T11:11:07.795Z</time></trkpt><trkpt lat="45.3728817" lon="8.0231717"><ele>308.0</ele><time>2026-05-01T11:11:08.795Z</time></trkpt><trkpt lat="45.3729217" lon="8.0232617"><ele>308.0</ele><time>2026-05-01T11:11:09.795Z</time></trkpt><trkpt lat="45.37296" lon="8.0233533"><ele>308.0</ele><time>2026-05-01T11:11:10.795Z</time></trkpt><trkpt lat="45.3730067" lon="8.02343"><ele>308.0</ele><time>2026-05-01T11:11:11.795Z</time></trkpt><trkpt lat="45.3730733" lon="8.02351"><ele>308.0</ele><time>2026-05-01T11:11:12.795Z</time></trkpt><trkpt lat="45.3731317" lon="8.023585"><ele>307.0</ele><time>2026-05-01T11:11:13.795Z</time></trkpt><trkpt lat="45.3731817" lon="8.0236433"><ele>306.0</ele><time>2026-05-01T11:11:14.795Z</time></trkpt><trkpt lat="45.3732883" lon="8.023705"><ele>305.0</ele><time>2026-05-01T11:11:16.795Z</time></trkpt><trkpt lat="45.3734083" lon="8.0236617"><ele>304.0</ele><time>2026-05-01T11:11:18.795Z</time></trkpt><trkpt lat="45.373465" lon="8.0236033"><ele>303.0</ele><time>2026-05-01T11:11:19.794Z</time></trkpt><trkpt lat="45.3735233" lon="8.0235167"><ele>303.0</ele><time>2026-05-01T11:11:20.795Z</time></trkpt><trkpt lat="45.373575" lon="8.0234233"><ele>303.0</ele><time>2026-05-01T11:11:21.795Z</time></trkpt><trkpt lat="45.3736383" lon="8.0233017"><ele>303.0</ele><time>2026-05-01T11:11:22.795Z</time></trkpt><trkpt lat="45.3736983" lon="8.0231767"><ele>303.0</ele><time>2026-05-01T11:11:23.795Z</time></trkpt><trkpt lat="45.3737683" lon="8.0230533"><ele>303.0</ele><time>2026-05-01T11:11:24.795Z</time></trkpt><trkpt lat="45.37383" lon="8.0229533"><ele>304.3333333333333</ele><time>2026-05-01T11:11:25.795Z</time></trkpt><trkpt lat="45.373895" lon="8.0228683"><ele>305.6666666666667</ele><time>2026-05-01T11:11:26.795Z</time></trkpt><trkpt lat="45.3739583" lon="8.0227783"><ele>307.0</ele><time>2026-05-01T11:11:27.795Z</time></trkpt><trkpt lat="45.3740183" lon="8.02271"><ele>308.33333333333337</ele><time>2026-05-01T11:11:28.795Z</time></trkpt><trkpt lat="45.37407" lon="8.02264"><ele>309.6666666666667</ele><time>2026-05-01T11:11:29.795Z</time></trkpt><trkpt lat="45.3741517" lon="8.022575"><ele>311.0</ele><time>2026-05-01T11:11:31.795Z</time></trkpt><trkpt lat="45.374235" lon="8.022575"><ele>311.0</ele><time>2026-05-01T11:11:34.795Z</time></trkpt><trkpt lat="45.3743217" lon="8.0226067"><ele>311.0</ele><time>2026-05-01T11:11:36.795Z</time></trkpt><trkpt lat="45.3744433" lon="8.0226233"><ele>311.0</ele><time>2026-05-01T11:11:38.795Z</time></trkpt><trkpt lat="45.374515" lon="8.0226267"><ele>311.0</ele><time>2026-05-01T11:11:39.795Z</time></trkpt><trkpt lat="45.3745933" lon="8.022635"><ele>311.0</ele><time>2026-05-01T11:11:40.795Z</time></trkpt><trkpt lat="45.374665" lon="8.0226417"><ele>311.0</ele><time>2026-05-01T11:11:41.795Z</time></trkpt><trkpt lat="45.3747367" lon="8.0226467"><ele>310.33333333333337</ele><time>2026-05-01T11:11:42.795Z</time></trkpt><trkpt lat="45.3748033" lon="8.022645"><ele>309.6666666666667</ele><time>2026-05-01T11:11:43.795Z</time></trkpt><trkpt lat="45.3748883" lon="8.022655"><ele>309.0</ele><time>2026-05-01T11:11:45.795Z</time></trkpt><trkpt lat="45.3749167" lon="8.0227783"><ele>308.3333333333333</ele><time>2026-05-01T11:11:48.795Z</time></trkpt><trkpt lat="45.3749133" lon="8.0228783"><ele>307.66666666666663</ele><time>2026-05-01T11:11:49.795Z</time></trkpt><trkpt lat="45.3749017" lon="8.023005"><ele>307.0</ele><time>2026-05-01T11:11:50.795Z</time></trkpt><trkpt lat="45.37489" lon="8.0231533"><ele>307.0</ele><time>2026-05-01T11:11:51.795Z</time></trkpt><trkpt lat="45.3748733" lon="8.0233133"><ele>307.0</ele><time>2026-05-01T11:11:52.794Z</time></trkpt><trkpt lat="45.3748583" lon="8.0234833"><ele>307.0</ele><time>2026-05-01T11:11:53.795Z</time></trkpt><trkpt lat="45.3748467" lon="8.0236583"><ele>307.0</ele><time>2026-05-01T11:11:54.795Z</time></trkpt><trkpt lat="45.3748283" lon="8.023845"><ele>306.25</ele><time>2026-05-01T11:11:55.795Z</time></trkpt><trkpt lat="45.3748183" lon="8.0240367"><ele>305.5</ele><time>2026-05-01T11:11:56.795Z</time></trkpt><trkpt lat="45.3748033" lon="8.0242317"><ele>304.75</ele><time>2026-05-01T11:11:57.795Z</time></trkpt><trkpt lat="45.3747883" lon="8.0244383"><ele>304.0</ele><time>2026-05-01T11:11:58.795Z</time></trkpt><trkpt lat="45.374775" lon="8.0246533"><ele>303.3333333333333</ele><time>2026-05-01T11:11:59.795Z</time></trkpt><trkpt lat="45.3747533" lon="8.0248733"><ele>302.6666666666667</ele><time>2026-05-01T11:12:00.795Z</time></trkpt><trkpt lat="45.3747433" lon="8.0250967"><ele>302.0</ele><time>2026-05-01T11:12:01.795Z</time></trkpt><trkpt lat="45.3747283" lon="8.0253117"><ele>301.75</ele><time>2026-05-01T11:12:02.795Z</time></trkpt><trkpt lat="45.3747033" lon="8.0255267"><ele>301.5</ele><time>2026-05-01T11:12:03.795Z</time></trkpt><trkpt lat="45.3746767" lon="8.02573"><ele>301.25</ele><time>2026-05-01T11:12:04.795Z</time></trkpt><trkpt lat="45.3746417" lon="8.0259233"><ele>301.0</ele><time>2026-05-01T11:12:05.795Z</time></trkpt><trkpt lat="45.3746033" lon="8.026095"><ele>301.2</ele><time>2026-05-01T11:12:06.795Z</time></trkpt><trkpt lat="45.3745483" lon="8.0262633"><ele>301.40000000000003</ele><time>2026-05-01T11:12:07.795Z</time></trkpt><trkpt lat="45.37449" lon="8.0264133"><ele>301.6</ele><time>2026-05-01T11:12:08.795Z</time></trkpt><trkpt lat="45.37443" lon="8.0265317"><ele>301.8</ele><time>2026-05-01T11:12:09.795Z</time></trkpt><trkpt lat="45.37437" lon="8.0266317"><ele>302.0</ele><time>2026-05-01T11:12:10.795Z</time></trkpt><trkpt lat="45.37433" lon="8.0267167"><ele>302.0</ele><time>2026-05-01T11:12:11.795Z</time></trkpt><trkpt lat="45.3743133" lon="8.0268083"><ele>302.0</ele><time>2026-05-01T11:12:12.795Z</time></trkpt><trkpt lat="45.374325" lon="8.0269783"><ele>302.0</ele><time>2026-05-01T11:12:14.795Z</time></trkpt><trkpt lat="45.37436" lon="8.0270717"><ele>302.0</ele><time>2026-05-01T11:12:15.795Z</time></trkpt><trkpt lat="45.374415" lon="8.0271783"><ele>302.0</ele><time>2026-05-01T11:12:16.795Z</time></trkpt><trkpt lat="45.3744883" lon="8.0272983"><ele>302.0</ele><time>2026-05-01T11:12:17.795Z</time></trkpt><trkpt lat="45.3745933" lon="8.02744"><ele>302.0</ele><time>2026-05-01T11:12:18.794Z</time></trkpt><trkpt lat="45.3747183" lon="8.027595"><ele>302.0</ele><time>2026-05-01T11:12:19.795Z</time></trkpt><trkpt lat="45.374835" lon="8.02775"><ele>302.33333333333337</ele><time>2026-05-01T11:12:20.795Z</time></trkpt><trkpt lat="45.3749583" lon="8.0278833"><ele>302.6666666666667</ele><time>2026-05-01T11:12:21.795Z</time></trkpt><trkpt lat="45.3750917" lon="8.02799"><ele>303.0</ele><time>2026-05-01T11:12:22.795Z</time></trkpt><trkpt lat="45.37523" lon="8.0281033"><ele>303.0</ele><time>2026-05-01T11:12:23.795Z</time></trkpt><trkpt lat="45.3753633" lon="8.0281883"><ele>303.0</ele><time>2026-05-01T11:12:24.795Z</time></trkpt><trkpt lat="45.3755133" lon="8.02827"><ele>303.0</ele><time>2026-05-01T11:12:25.795Z</time></trkpt><trkpt lat="45.3756783" lon="8.0283417"><ele>303.6666666666667</ele><time>2026-05-01T11:12:26.795Z</time></trkpt><trkpt lat="45.37585" lon="8.02841"><ele>304.33333333333337</ele><time>2026-05-01T11:12:27.794Z</time></trkpt><trkpt lat="45.376025" lon="8.0284817"><ele>305.0</ele><time>2026-05-01T11:12:28.794Z</time></trkpt><trkpt lat="45.3762117" lon="8.028555"><ele>306.0</ele><time>2026-05-01T11:12:29.795Z</time></trkpt><trkpt lat="45.3764067" lon="8.0286267"><ele>307.0</ele><time>2026-05-01T11:12:30.795Z</time></trkpt><trkpt lat="45.376595" lon="8.0286983"><ele>308.0</ele><time>2026-05-01T11:12:31.795Z</time></trkpt><trkpt lat="45.3767783" lon="8.02878"><ele>308.0</ele><time>2026-05-01T11:12:32.795Z</time></trkpt><trkpt lat="45.3769283" lon="8.0288617"><ele>308.0</ele><time>2026-05-01T11:12:33.795Z</time></trkpt><trkpt lat="45.377075" lon="8.0289233"><ele>308.0</ele><time>2026-05-01T11:12:34.795Z</time></trkpt><trkpt lat="45.3772167" lon="8.0289883"><ele>309.0</ele><time>2026-05-01T11:12:35.795Z</time></trkpt><trkpt lat="45.3773533" lon="8.0290733"><ele>310.0</ele><time>2026-05-01T11:12:36.795Z</time></trkpt><trkpt lat="45.3774733" lon="8.0292"><ele>311.0</ele><time>2026-05-01T11:12:37.795Z</time></trkpt><trkpt lat="45.3775967" lon="8.0293383"><ele>311.0</ele><time>2026-05-01T11:12:38.795Z</time></trkpt><trkpt lat="45.3777317" lon="8.029505"><ele>311.0</ele><time>2026-05-01T11:12:39.795Z</time></trkpt><trkpt lat="45.37787" lon="8.0297017"><ele>311.0</ele><time>2026-05-01T11:12:40.795Z</time></trkpt><trkpt lat="45.37802" lon="8.0299083"><ele>311.0</ele><time>2026-05-01T11:12:41.795Z</time></trkpt><trkpt lat="45.3781733" lon="8.0301067"><ele>311.0</ele><time>2026-05-01T11:12:42.795Z</time></trkpt><trkpt lat="45.3783217" lon="8.030305"><ele>311.0</ele><time>2026-05-01T11:12:43.795Z</time></trkpt><trkpt lat="45.3784633" lon="8.03049"><ele>311.0</ele><time>2026-05-01T11:12:44.795Z</time></trkpt><trkpt lat="45.3786117" lon="8.0306733"><ele>311.0</ele><time>2026-05-01T11:12:45.795Z</time></trkpt><trkpt lat="45.3787483" lon="8.030875"><ele>311.0</ele><time>2026-05-01T11:12:46.795Z</time></trkpt><trkpt lat="45.378885" lon="8.03104"><ele>309.6666666666667</ele><time>2026-05-01T11:12:47.795Z</time></trkpt><trkpt lat="45.3790283" lon="8.0311833"><ele>308.3333333333333</ele><time>2026-05-01T11:12:48.795Z</time></trkpt><trkpt lat="45.37918" lon="8.0313167"><ele>307.0</ele><time>2026-05-01T11:12:49.795Z</time></trkpt><trkpt lat="45.3793433" lon="8.0314433"><ele>307.0</ele><time>2026-05-01T11:12:50.795Z</time></trkpt><trkpt lat="45.3795183" lon="8.0315633"><ele>307.0</ele><time>2026-05-01T11:12:51.795Z</time></trkpt><trkpt lat="45.3797033" lon="8.03166"><ele>307.0</ele><time>2026-05-01T11:12:52.795Z</time></trkpt><trkpt lat="45.3798783" lon="8.0317567"><ele>310.0</ele><time>2026-05-01T11:12:53.795Z</time></trkpt><trkpt lat="45.3800367" lon="8.0318567"><ele>313.0</ele><time>2026-05-01T11:12:54.794Z</time></trkpt><trkpt lat="45.380195" lon="8.0319667"><ele>316.0</ele><time>2026-05-01T11:12:55.795Z</time></trkpt><trkpt lat="45.38036" lon="8.0320783"><ele>315.66666666666663</ele><time>2026-05-01T11:12:56.795Z</time></trkpt><trkpt lat="45.3805317" lon="8.0322"><ele>315.3333333333333</ele><time>2026-05-01T11:12:57.795Z</time></trkpt><trkpt lat="45.3806783" lon="8.0323117"><ele>315.0</ele><time>2026-05-01T11:12:58.794Z</time></trkpt><trkpt lat="45.3808133" lon="8.0324383"><ele>316.0</ele><time>2026-05-01T11:12:59.795Z</time></trkpt><trkpt lat="45.3809417" lon="8.0325967"><ele>317.0</ele><time>2026-05-01T11:13:00.795Z</time></trkpt><trkpt lat="45.3810683" lon="8.0327783"><ele>318.0</ele><time>2026-05-01T11:13:01.794Z</time></trkpt><trkpt lat="45.3811867" lon="8.0329333"><ele>318.0</ele><time>2026-05-01T11:13:02.795Z</time></trkpt><trkpt lat="45.3813067" lon="8.033075"><ele>318.0</ele><time>2026-05-01T11:13:03.795Z</time></trkpt><trkpt lat="45.38141" lon="8.03322"><ele>318.0</ele><time>2026-05-01T11:13:04.795Z</time></trkpt><trkpt lat="45.3815117" lon="8.0333567"><ele>318.0</ele><time>2026-05-01T11:13:05.795Z</time></trkpt><trkpt lat="45.3816117" lon="8.0334767"><ele>317.0</ele><time>2026-05-01T11:13:06.795Z</time></trkpt><trkpt lat="45.3817033" lon="8.033595"><ele>316.0</ele><time>2026-05-01T11:13:07.795Z</time></trkpt><trkpt lat="45.3817933" lon="8.03368"><ele>315.0</ele><time>2026-05-01T11:13:08.795Z</time></trkpt><trkpt lat="45.38188" lon="8.0337633"><ele>314.0</ele><time>2026-05-01T11:13:09.795Z</time></trkpt><trkpt lat="45.38196" lon="8.0338317"><ele>313.0</ele><time>2026-05-01T11:13:10.795Z</time></trkpt><trkpt lat="45.3820317" lon="8.0339"><ele>313.0</ele><time>2026-05-01T11:13:11.795Z</time></trkpt><trkpt lat="45.3820817" lon="8.0339633"><ele>313.0</ele><time>2026-05-01T11:13:12.794Z</time></trkpt><trkpt lat="45.3821267" lon="8.0340267"><ele>313.0</ele><time>2026-05-01T11:13:13.795Z</time></trkpt><trkpt lat="45.3821683" lon="8.03416"><ele>313.0</ele><time>2026-05-01T11:13:15.795Z</time></trkpt><trkpt lat="45.382175" lon="8.0342633"><ele>313.0</ele><time>2026-05-01T11:13:17.795Z</time></trkpt><trkpt lat="45.3821467" lon="8.034345"><ele>313.0</ele><time>2026-05-01T11:13:19.795Z</time></trkpt><trkpt lat="45.3821217" lon="8.03446"><ele>313.0</ele><time>2026-05-01T11:29:21.792Z</time></trkpt><trkpt lat="45.3821133" lon="8.034555"><ele>313.0</ele><time>2026-05-01T11:29:23.791Z</time></trkpt><trkpt lat="45.3820583" lon="8.03461"><ele>313.0</ele><time>2026-05-01T11:29:25.792Z</time></trkpt><trkpt lat="45.38198" lon="8.0346133"><ele>313.0</ele><time>2026-05-01T11:29:27.792Z</time></trkpt><trkpt lat="45.3818967" lon="8.0346167"><ele>313.0</ele><time>2026-05-01T11:29:29.792Z</time></trkpt><trkpt lat="45.381805" lon="8.0346067"><ele>313.0</ele><time>2026-05-01T11:29:31.792Z</time></trkpt><trkpt lat="45.3817233" lon="8.0345383"><ele>313.0</ele><time>2026-05-01T11:29:33.792Z</time></trkpt><trkpt lat="45.3816767" lon="8.0344367"><ele>313.0</ele><time>2026-05-01T11:29:35.792Z</time></trkpt><trkpt lat="45.3816433" lon="8.0343083"><ele>313.0</ele><time>2026-05-01T11:29:37.792Z</time></trkpt><trkpt lat="45.3816067" lon="8.03423"><ele>313.0</ele><time>2026-05-01T11:29:39.792Z</time></trkpt><trkpt lat="45.38154" lon="8.03418"><ele>313.0</ele><time>2026-05-01T11:29:41.792Z</time></trkpt><trkpt lat="45.3814633" lon="8.0341783"><ele>313.0</ele><time>2026-05-01T11:29:43.792Z</time></trkpt><trkpt lat="45.3813917" lon="8.0342033"><ele>312.4</ele><time>2026-05-01T11:29:45.792Z</time></trkpt><trkpt lat="45.38131" lon="8.0342533"><ele>311.8</ele><time>2026-05-01T11:29:48.792Z</time></trkpt><trkpt lat="45.3812483" lon="8.0342983"><ele>311.2</ele><time>2026-05-01T11:29:50.792Z</time></trkpt><trkpt lat="45.38116" lon="8.034345"><ele>310.6</ele><time>2026-05-01T11:29:52.792Z</time></trkpt><trkpt lat="45.38103" lon="8.0344033"><ele>310.0</ele><time>2026-05-01T11:29:54.792Z</time></trkpt><trkpt lat="45.3809617" lon="8.034425"><ele>310.0</ele><time>2026-05-01T11:29:55.792Z</time></trkpt><trkpt lat="45.3808767" lon="8.0344417"><ele>310.0</ele><time>2026-05-01T11:29:56.792Z</time></trkpt><trkpt lat="45.3807733" lon="8.0344533"><ele>310.0</ele><time>2026-05-01T11:29:57.792Z</time></trkpt><trkpt lat="45.38065" lon="8.0344583"><ele>310.0</ele><time>2026-05-01T11:29:58.792Z</time></trkpt><trkpt lat="45.3805183" lon="8.034455"><ele>310.0</ele><time>2026-05-01T11:29:59.792Z</time></trkpt><trkpt lat="45.3803767" lon="8.0344483"><ele>311.25</ele><time>2026-05-01T11:30:00.792Z</time></trkpt><trkpt lat="45.3802383" lon="8.03446"><ele>312.5</ele><time>2026-05-01T11:30:01.792Z</time></trkpt><trkpt lat="45.3801033" lon="8.0344817"><ele>313.75</ele><time>2026-05-01T11:30:02.792Z</time></trkpt><trkpt lat="45.379985" lon="8.03452"><ele>315.0</ele><time>2026-05-01T11:30:03.792Z</time></trkpt><trkpt lat="45.37988" lon="8.0345733"><ele>315.0</ele><time>2026-05-01T11:30:04.792Z</time></trkpt><trkpt lat="45.37978" lon="8.0346467"><ele>315.0</ele><time>2026-05-01T11:30:05.792Z</time></trkpt><trkpt lat="45.37968" lon="8.03475"><ele>315.0</ele><time>2026-05-01T11:30:06.792Z</time></trkpt><trkpt lat="45.37958" lon="8.0348683"><ele>315.0</ele><time>2026-05-01T11:30:07.792Z</time></trkpt><trkpt lat="45.3794767" lon="8.035"><ele>313.0</ele><time>2026-05-01T11:30:08.792Z</time></trkpt><trkpt lat="45.37936" lon="8.035135"><ele>311.0</ele><time>2026-05-01T11:30:09.792Z</time></trkpt><trkpt lat="45.3792383" lon="8.035285"><ele>309.0</ele><time>2026-05-01T11:30:10.791Z</time></trkpt><trkpt lat="45.379125" lon="8.0354383"><ele>309.0</ele><time>2026-05-01T11:30:11.792Z</time></trkpt><trkpt lat="45.379015" lon="8.0355883"><ele>309.0</ele><time>2026-05-01T11:30:12.792Z</time></trkpt><trkpt lat="45.3789117" lon="8.0357283"><ele>309.0</ele><time>2026-05-01T11:30:13.792Z</time></trkpt><trkpt lat="45.3788217" lon="8.0358433"><ele>309.0</ele><time>2026-05-01T11:30:14.792Z</time></trkpt><trkpt lat="45.3787267" lon="8.0359417"><ele>308.5</ele><time>2026-05-01T11:30:15.792Z</time></trkpt><trkpt lat="45.37862" lon="8.03602"><ele>308.0</ele><time>2026-05-01T11:30:16.792Z</time></trkpt><trkpt lat="45.37851" lon="8.0361083"><ele>307.5</ele><time>2026-05-01T11:30:17.792Z</time></trkpt><trkpt lat="45.3784033" lon="8.0362083"><ele>307.0</ele><time>2026-05-01T11:30:18.792Z</time></trkpt><trkpt lat="45.3783017" lon="8.036335"><ele>307.0</ele><time>2026-05-01T11:30:19.792Z</time></trkpt><trkpt lat="45.3782033" lon="8.0364917"><ele>307.0</ele><time>2026-05-01T11:30:20.792Z</time></trkpt><trkpt lat="45.37811" lon="8.036645"><ele>307.0</ele><time>2026-05-01T11:30:21.792Z</time></trkpt><trkpt lat="45.378035" lon="8.03678"><ele>307.0</ele><time>2026-05-01T11:30:22.792Z</time></trkpt><trkpt lat="45.37799" lon="8.036905"><ele>306.66666666666663</ele><time>2026-05-01T11:30:23.792Z</time></trkpt><trkpt lat="45.3779467" lon="8.0370267"><ele>306.3333333333333</ele><time>2026-05-01T11:30:24.792Z</time></trkpt><trkpt lat="45.377925" lon="8.0371517"><ele>306.0</ele><time>2026-05-01T11:30:25.791Z</time></trkpt><trkpt lat="45.3779267" lon="8.037255"><ele>305.6666666666667</ele><time>2026-05-01T11:30:26.792Z</time></trkpt><trkpt lat="45.37794" lon="8.0373733"><ele>305.33333333333337</ele><time>2026-05-01T11:30:27.792Z</time></trkpt><trkpt lat="45.3779667" lon="8.0375117"><ele>305.0</ele><time>2026-05-01T11:30:28.792Z</time></trkpt><trkpt lat="45.3780033" lon="8.0376583"><ele>304.2</ele><time>2026-05-01T11:30:29.791Z</time></trkpt><trkpt lat="45.3780433" lon="8.0378033"><ele>303.4</ele><time>2026-05-01T11:30:30.792Z</time></trkpt><trkpt lat="45.3780983" lon="8.0379383"><ele>302.6</ele><time>2026-05-01T11:30:31.792Z</time></trkpt><trkpt lat="45.3781483" lon="8.0380733"><ele>301.8</ele><time>2026-05-01T11:30:32.792Z</time></trkpt><trkpt lat="45.3781767" lon="8.038185"><ele>301.0</ele><time>2026-05-01T11:30:33.791Z</time></trkpt><trkpt lat="45.3781917" lon="8.03831"><ele>301.0</ele><time>2026-05-01T11:30:34.792Z</time></trkpt><trkpt lat="45.378185" lon="8.0384267"><ele>301.0</ele><time>2026-05-01T11:30:35.792Z</time></trkpt><trkpt lat="45.37816" lon="8.0385333"><ele>301.0</ele><time>2026-05-01T11:30:36.791Z</time></trkpt><trkpt lat="45.37812" lon="8.0386183"><ele>301.0</ele><time>2026-05-01T11:30:37.792Z</time></trkpt><trkpt lat="45.3780483" lon="8.0386833"><ele>301.0</ele><time>2026-05-01T11:30:38.792Z</time></trkpt><trkpt lat="45.3779583" lon="8.0387533"><ele>301.0</ele><time>2026-05-01T11:30:39.792Z</time></trkpt><trkpt lat="45.3778483" lon="8.038835"><ele>300.75</ele><time>2026-05-01T11:30:40.792Z</time></trkpt><trkpt lat="45.37774" lon="8.0389333"><ele>300.5</ele><time>2026-05-01T11:30:41.792Z</time></trkpt><trkpt lat="45.3776283" lon="8.03906"><ele>300.25</ele><time>2026-05-01T11:30:42.792Z</time></trkpt><trkpt lat="45.37753" lon="8.0392067"><ele>300.0</ele><time>2026-05-01T11:30:43.792Z</time></trkpt><trkpt lat="45.3774233" lon="8.0393683"><ele>299.0</ele><time>2026-05-01T11:30:44.791Z</time></trkpt><trkpt lat="45.3773067" lon="8.0395417"><ele>298.0</ele><time>2026-05-01T11:30:45.792Z</time></trkpt><trkpt lat="45.3771783" lon="8.039725"><ele>297.0</ele><time>2026-05-01T11:30:46.792Z</time></trkpt><trkpt lat="45.377055" lon="8.0399033"><ele>296.3333333333333</ele><time>2026-05-01T11:30:47.792Z</time></trkpt><trkpt lat="45.376945" lon="8.0400767"><ele>295.66666666666663</ele><time>2026-05-01T11:30:48.792Z</time></trkpt><trkpt lat="45.3768433" lon="8.0402467"><ele>295.0</ele><time>2026-05-01T11:30:49.792Z</time></trkpt><trkpt lat="45.37676" lon="8.0404283"><ele>295.0</ele><time>2026-05-01T11:30:50.792Z</time></trkpt><trkpt lat="45.3766733" lon="8.0406217"><ele>295.0</ele><time>2026-05-01T11:30:51.792Z</time></trkpt><trkpt lat="45.37659" lon="8.04083"><ele>295.0</ele><time>2026-05-01T11:30:52.791Z</time></trkpt><trkpt lat="45.3765017" lon="8.04105"><ele>294.66666666666663</ele><time>2026-05-01T11:30:53.792Z</time></trkpt><trkpt lat="45.3764183" lon="8.041275"><ele>294.3333333333333</ele><time>2026-05-01T11:30:54.792Z</time></trkpt><trkpt lat="45.3763367" lon="8.0414983"><ele>294.0</ele><time>2026-05-01T11:30:55.792Z</time></trkpt><trkpt lat="45.3762517" lon="8.04171"><ele>294.75</ele><time>2026-05-01T11:30:56.792Z</time></trkpt><trkpt lat="45.37617" lon="8.0418883"><ele>295.5</ele><time>2026-05-01T11:30:57.792Z</time></trkpt><trkpt lat="45.376085" lon="8.042045"><ele>296.25</ele><time>2026-05-01T11:30:58.792Z</time></trkpt><trkpt lat="45.3759933" lon="8.0421733"><ele>297.0</ele><time>2026-05-01T11:30:59.792Z</time></trkpt><trkpt lat="45.3758833" lon="8.0422983"><ele>297.0</ele><time>2026-05-01T11:31:00.792Z</time></trkpt><trkpt lat="45.375745" lon="8.0424133"><ele>297.0</ele><time>2026-05-01T11:31:01.792Z</time></trkpt><trkpt lat="45.375585" lon="8.042515"><ele>297.0</ele><time>2026-05-01T11:31:02.792Z</time></trkpt><trkpt lat="45.3754233" lon="8.0426383"><ele>295.3333333333333</ele><time>2026-05-01T11:31:03.792Z</time></trkpt><trkpt lat="45.37525" lon="8.042725"><ele>293.66666666666663</ele><time>2026-05-01T11:31:04.791Z</time></trkpt><trkpt lat="45.3750983" lon="8.0428133"><ele>292.0</ele><time>2026-05-01T11:31:05.792Z</time></trkpt><trkpt lat="45.374955" lon="8.042905"><ele>292.0</ele><time>2026-05-01T11:31:06.792Z</time></trkpt><trkpt lat="45.3748283" lon="8.043005"><ele>292.0</ele><time>2026-05-01T11:31:07.792Z</time></trkpt><trkpt lat="45.3747233" lon="8.0431367"><ele>292.0</ele><time>2026-05-01T11:31:08.792Z</time></trkpt><trkpt lat="45.37461" lon="8.043295"><ele>292.0</ele><time>2026-05-01T11:31:09.792Z</time></trkpt><trkpt lat="45.3744983" lon="8.0434783"><ele>291.3333333333333</ele><time>2026-05-01T11:31:10.792Z</time></trkpt><trkpt lat="45.374385" lon="8.0436767"><ele>290.6666666666667</ele><time>2026-05-01T11:31:11.792Z</time></trkpt><trkpt lat="45.3742633" lon="8.0438867"><ele>290.0</ele><time>2026-05-01T11:31:12.792Z</time></trkpt><trkpt lat="45.3741333" lon="8.0441117"><ele>289.33333333333337</ele><time>2026-05-01T11:31:13.792Z</time></trkpt><trkpt lat="45.37401" lon="8.0443183"><ele>288.6666666666667</ele><time>2026-05-01T11:31:14.792Z</time></trkpt><trkpt lat="45.3738933" lon="8.0445017"><ele>288.0</ele><time>2026-05-01T11:31:15.792Z</time></trkpt><trkpt lat="45.3737867" lon="8.0446817"><ele>287.75</ele><time>2026-05-01T11:31:16.792Z</time></trkpt><trkpt lat="45.3736867" lon="8.0448367"><ele>287.5</ele><time>2026-05-01T11:31:17.792Z</time></trkpt><trkpt lat="45.37359" lon="8.04497"><ele>287.25</ele><time>2026-05-01T11:31:18.792Z</time></trkpt><trkpt lat="45.373515" lon="8.0450633"><ele>287.0</ele><time>2026-05-01T11:31:19.792Z</time></trkpt><trkpt lat="45.37345" lon="8.0451383"><ele>287.0</ele><time>2026-05-01T11:31:20.792Z</time></trkpt><trkpt lat="45.373375" lon="8.0451817"><ele>287.0</ele><time>2026-05-01T11:31:21.792Z</time></trkpt><trkpt lat="45.3732867" lon="8.045205"><ele>287.0</ele><time>2026-05-01T11:31:22.791Z</time></trkpt><trkpt lat="45.373185" lon="8.045195"><ele>287.0</ele><time>2026-05-01T11:31:23.792Z</time></trkpt><trkpt lat="45.3730683" lon="8.0451717"><ele>287.0</ele><time>2026-05-01T11:31:24.792Z</time></trkpt><trkpt lat="45.37293" lon="8.04513"><ele>286.33333333333337</ele><time>2026-05-01T11:31:25.792Z</time></trkpt><trkpt lat="45.3727733" lon="8.045035"><ele>285.6666666666667</ele><time>2026-05-01T11:31:26.791Z</time></trkpt><trkpt lat="45.37261" lon="8.0449533"><ele>285.0</ele><time>2026-05-01T11:31:27.792Z</time></trkpt><trkpt lat="45.37246" lon="8.04487"><ele>284.6666666666667</ele><time>2026-05-01T11:31:28.792Z</time></trkpt><trkpt lat="45.3723133" lon="8.0447833"><ele>284.33333333333337</ele><time>2026-05-01T11:31:29.792Z</time></trkpt><trkpt lat="45.3721517" lon="8.0446933"><ele>284.0</ele><time>2026-05-01T11:31:30.792Z</time></trkpt><trkpt lat="45.3719967" lon="8.0446117"><ele>283.0</ele><time>2026-05-01T11:31:31.792Z</time></trkpt><trkpt lat="45.371855" lon="8.0445367"><ele>282.0</ele><time>2026-05-01T11:31:32.792Z</time></trkpt><trkpt lat="45.371705" lon="8.04445"><ele>281.0</ele><time>2026-05-01T11:31:33.792Z</time></trkpt><trkpt lat="45.3715583" lon="8.0443467"><ele>281.0</ele><time>2026-05-01T11:31:34.792Z</time></trkpt><trkpt lat="45.37141" lon="8.0442383"><ele>281.0</ele><time>2026-05-01T11:31:35.792Z</time></trkpt><trkpt lat="45.37126" lon="8.04412"><ele>281.0</ele><time>2026-05-01T11:31:36.791Z</time></trkpt><trkpt lat="45.3711117" lon="8.04402"><ele>280.75</ele><time>2026-05-01T11:31:37.792Z</time></trkpt><trkpt lat="45.3709917" lon="8.0439267"><ele>280.5</ele><time>2026-05-01T11:31:38.792Z</time></trkpt><trkpt lat="45.3708783" lon="8.0438433"><ele>280.25</ele><time>2026-05-01T11:31:39.792Z</time></trkpt><trkpt lat="45.3707667" lon="8.043785"><ele>280.0</ele><time>2026-05-01T11:31:40.792Z</time></trkpt><trkpt lat="45.3706633" lon="8.0437733"><ele>280.0</ele><time>2026-05-01T11:31:41.792Z</time></trkpt><trkpt lat="45.3705583" lon="8.04379"><ele>280.0</ele><time>2026-05-01T11:31:42.792Z</time></trkpt><trkpt lat="45.3704517" lon="8.0438383"><ele>280.0</ele><time>2026-05-01T11:31:43.792Z</time></trkpt><trkpt lat="45.370335" lon="8.0439233"><ele>280.0</ele><time>2026-05-01T11:31:44.792Z</time></trkpt><trkpt lat="45.3702233" lon="8.0440183"><ele>279.5</ele><time>2026-05-01T11:31:45.792Z</time></trkpt><trkpt lat="45.370125" lon="8.0441017"><ele>279.0</ele><time>2026-05-01T11:31:46.792Z</time></trkpt><trkpt lat="45.37003" lon="8.0441767"><ele>278.5</ele><time>2026-05-01T11:31:47.792Z</time></trkpt><trkpt lat="45.3699317" lon="8.0442533"><ele>278.0</ele><time>2026-05-01T11:31:48.792Z</time></trkpt><trkpt lat="45.3698267" lon="8.0443283"><ele>278.0</ele><time>2026-05-01T11:31:49.792Z</time></trkpt><trkpt lat="45.369735" lon="8.0443983"><ele>278.0</ele><time>2026-05-01T11:31:50.792Z</time></trkpt><trkpt lat="45.369645" lon="8.0444667"><ele>278.0</ele><time>2026-05-01T11:31:51.792Z</time></trkpt><trkpt lat="45.36955" lon="8.044545"><ele>278.0</ele><time>2026-05-01T11:31:52.792Z</time></trkpt><trkpt lat="45.369455" lon="8.044625"><ele>278.0</ele><time>2026-05-01T11:31:53.791Z</time></trkpt><trkpt lat="45.36936" lon="8.0447133"><ele>277.25</ele><time>2026-05-01T11:31:54.792Z</time></trkpt><trkpt lat="45.3692583" lon="8.0447967"><ele>276.5</ele><time>2026-05-01T11:31:55.792Z</time></trkpt><trkpt lat="45.3691667" lon="8.0448683"><ele>275.75</ele><time>2026-05-01T11:31:56.792Z</time></trkpt><trkpt lat="45.3690583" lon="8.0449517"><ele>275.0</ele><time>2026-05-01T11:31:57.792Z</time></trkpt><trkpt lat="45.3689333" lon="8.0450533"><ele>274.33333333333337</ele><time>2026-05-01T11:31:58.792Z</time></trkpt><trkpt lat="45.3688017" lon="8.045145"><ele>273.6666666666667</ele><time>2026-05-01T11:31:59.792Z</time></trkpt><trkpt lat="45.36867" lon="8.0452483"><ele>273.0</ele><time>2026-05-01T11:32:00.791Z</time></trkpt><trkpt lat="45.3685317" lon="8.0453533"><ele>273.0</ele><time>2026-05-01T11:32:01.792Z</time></trkpt><trkpt lat="45.3683917" lon="8.0454617"><ele>273.0</ele><time>2026-05-01T11:32:02.792Z</time></trkpt><trkpt lat="45.3682583" lon="8.0455617"><ele>273.0</ele><time>2026-05-01T11:32:03.792Z</time></trkpt><trkpt lat="45.3681217" lon="8.04567"><ele>272.25</ele><time>2026-05-01T11:32:04.792Z</time></trkpt><trkpt lat="45.367985" lon="8.0457717"><ele>271.5</ele><time>2026-05-01T11:32:05.792Z</time></trkpt><trkpt lat="45.3678683" lon="8.0458667"><ele>270.75</ele><time>2026-05-01T11:32:06.792Z</time></trkpt><trkpt lat="45.3677683" lon="8.045945"><ele>270.0</ele><time>2026-05-01T11:32:07.792Z</time></trkpt><trkpt lat="45.3676783" lon="8.0460067"><ele>269.6</ele><time>2026-05-01T11:32:08.792Z</time></trkpt><trkpt lat="45.36759" lon="8.0460617"><ele>269.2</ele><time>2026-05-01T11:32:09.792Z</time></trkpt><trkpt lat="45.36751" lon="8.0461033"><ele>268.8</ele><time>2026-05-01T11:32:10.791Z</time></trkpt><trkpt lat="45.3674433" lon="8.0461283"><ele>268.4</ele><time>2026-05-01T11:32:11.792Z</time></trkpt><trkpt lat="45.3673283" lon="8.0461567"><ele>268.0</ele><time>2026-05-01T11:32:13.791Z</time></trkpt><trkpt lat="45.3672267" lon="8.0461733"><ele>268.0</ele><time>2026-05-01T11:32:15.791Z</time></trkpt><trkpt lat="45.3671483" lon="8.0461817"><ele>268.0</ele><time>2026-05-01T11:32:17.791Z</time></trkpt><trkpt lat="45.3670583" lon="8.0461917"><ele>268.0</ele><time>2026-05-01T11:32:19.791Z</time></trkpt><trkpt lat="45.366945" lon="8.0462133"><ele>268.0</ele><time>2026-05-01T11:32:21.791Z</time></trkpt><trkpt lat="45.366825" lon="8.04624"><ele>268.0</ele><time>2026-05-01T11:32:23.791Z</time></trkpt><trkpt lat="45.3667517" lon="8.046255"><ele>268.0</ele><time>2026-05-01T11:32:24.791Z</time></trkpt><trkpt lat="45.3666617" lon="8.04627"><ele>268.0</ele><time>2026-05-01T11:32:25.791Z</time></trkpt><trkpt lat="45.3665683" lon="8.0462833"><ele>268.0</ele><time>2026-05-01T11:32:26.791Z</time></trkpt><trkpt lat="45.3664717" lon="8.046295"><ele>268.0</ele><time>2026-05-01T11:32:27.791Z</time></trkpt><trkpt lat="45.3663883" lon="8.0463033"><ele>268.0</ele><time>2026-05-01T11:32:28.791Z</time></trkpt><trkpt lat="45.36632" lon="8.0463167"><ele>268.0</ele><time>2026-05-01T11:32:29.791Z</time></trkpt><trkpt lat="45.3662383" lon="8.0463267"><ele>267.8</ele><time>2026-05-01T11:32:31.791Z</time></trkpt><trkpt lat="45.36617" lon="8.04634"><ele>267.6</ele><time>2026-05-01T11:32:58.791Z</time></trkpt><trkpt lat="45.366035" lon="8.046365"><ele>267.4</ele><time>2026-05-01T11:33:00.79Z</time></trkpt><trkpt lat="45.3659433" lon="8.0463867"><ele>267.2</ele><time>2026-05-01T11:33:01.791Z</time></trkpt><trkpt lat="45.365835" lon="8.0464083"><ele>267.0</ele><time>2026-05-01T11:33:02.791Z</time></trkpt><trkpt lat="45.3657067" lon="8.0464317"><ele>267.0</ele><time>2026-05-01T11:33:03.791Z</time></trkpt><trkpt lat="45.3655683" lon="8.0464633"><ele>267.0</ele><time>2026-05-01T11:33:04.79Z</time></trkpt><trkpt lat="45.36542" lon="8.046495"><ele>267.0</ele><time>2026-05-01T11:33:05.791Z</time></trkpt><trkpt lat="45.3652633" lon="8.0465167"><ele>267.0</ele><time>2026-05-01T11:33:06.791Z</time></trkpt><trkpt lat="45.36509" lon="8.046555"><ele>266.3333333333333</ele><time>2026-05-01T11:33:07.791Z</time></trkpt><trkpt lat="45.36491" lon="8.0465867"><ele>265.66666666666663</ele><time>2026-05-01T11:33:08.791Z</time></trkpt><trkpt lat="45.3647117" lon="8.046635"><ele>265.0</ele><time>2026-05-01T11:33:09.791Z</time></trkpt><trkpt lat="45.3645167" lon="8.046665"><ele>264.3333333333333</ele><time>2026-05-01T11:33:10.791Z</time></trkpt><trkpt lat="45.3643167" lon="8.0467033"><ele>263.6666666666667</ele><time>2026-05-01T11:33:11.791Z</time></trkpt><trkpt lat="45.364115" lon="8.04674"><ele>263.0</ele><time>2026-05-01T11:33:12.791Z</time></trkpt><trkpt lat="45.363905" lon="8.0467733"><ele>263.33333333333337</ele><time>2026-05-01T11:33:13.791Z</time></trkpt><trkpt lat="45.3636883" lon="8.0468083"><ele>263.6666666666667</ele><time>2026-05-01T11:33:14.791Z</time></trkpt><trkpt lat="45.3634817" lon="8.046845"><ele>264.0</ele><time>2026-05-01T11:33:15.79Z</time></trkpt><trkpt lat="45.363275" lon="8.046895"><ele>264.0</ele><time>2026-05-01T11:33:16.791Z</time></trkpt><trkpt lat="45.36308" lon="8.0469333"><ele>264.0</ele><time>2026-05-01T11:33:17.79Z</time></trkpt><trkpt lat="45.3628967" lon="8.046965"><ele>264.0</ele><time>2026-05-01T11:33:18.791Z</time></trkpt><trkpt lat="45.3627083" lon="8.04699"><ele>264.0</ele><time>2026-05-01T11:33:19.791Z</time></trkpt><trkpt lat="45.3625233" lon="8.0470217"><ele>264.0</ele><time>2026-05-01T11:33:20.791Z</time></trkpt><trkpt lat="45.362345" lon="8.0470533"><ele>264.0</ele><time>2026-05-01T11:33:21.791Z</time></trkpt><trkpt lat="45.3621817" lon="8.0470833"><ele>262.6666666666667</ele><time>2026-05-01T11:33:22.791Z</time></trkpt><trkpt lat="45.3620083" lon="8.0471083"><ele>261.33333333333337</ele><time>2026-05-01T11:33:23.791Z</time></trkpt><trkpt lat="45.3618367" lon="8.0471467"><ele>260.0</ele><time>2026-05-01T11:33:24.791Z</time></trkpt><trkpt lat="45.36165" lon="8.0471917"><ele>260.0</ele><time>2026-05-01T11:33:25.791Z</time></trkpt><trkpt lat="45.36146" lon="8.0472333"><ele>260.0</ele><time>2026-05-01T11:33:26.791Z</time></trkpt><trkpt lat="45.3612667" lon="8.0472683"><ele>260.0</ele><time>2026-05-01T11:33:27.791Z</time></trkpt><trkpt lat="45.36107" lon="8.0473083"><ele>259.6666666666667</ele><time>2026-05-01T11:33:28.791Z</time></trkpt><trkpt lat="45.360885" lon="8.0473567"><ele>259.3333333333333</ele><time>2026-05-01T11:33:29.791Z</time></trkpt><trkpt lat="45.3607217" lon="8.0473733"><ele>259.0</ele><time>2026-05-01T11:33:30.791Z</time></trkpt><trkpt lat="45.3605717" lon="8.0473717"><ele>259.0</ele><time>2026-05-01T11:33:31.791Z</time></trkpt><trkpt lat="45.36043" lon="8.0473383"><ele>259.0</ele><time>2026-05-01T11:33:32.791Z</time></trkpt><trkpt lat="45.3603183" lon="8.047295"><ele>259.0</ele><time>2026-05-01T11:33:33.791Z</time></trkpt><trkpt lat="45.360185" lon="8.0472017"><ele>259.0</ele><time>2026-05-01T11:33:34.791Z</time></trkpt><trkpt lat="45.3600533" lon="8.0471"><ele>259.0</ele><time>2026-05-01T11:33:35.791Z</time></trkpt><trkpt lat="45.359925" lon="8.046965"><ele>259.0</ele><time>2026-05-01T11:33:36.791Z</time></trkpt><trkpt lat="45.3597783" lon="8.0468283"><ele>259.0</ele><time>2026-05-01T11:33:37.791Z</time></trkpt><trkpt lat="45.359615" lon="8.0466933"><ele>258.3333333333333</ele><time>2026-05-01T11:33:38.791Z</time></trkpt><trkpt lat="45.359435" lon="8.0465633"><ele>257.6666666666667</ele><time>2026-05-01T11:33:39.791Z</time></trkpt><trkpt lat="45.35927" lon="8.0464417"><ele>257.0</ele><time>2026-05-01T11:33:40.791Z</time></trkpt><trkpt lat="45.3591233" lon="8.0463167"><ele>257.0</ele><time>2026-05-01T11:33:41.791Z</time></trkpt><trkpt lat="45.3589917" lon="8.0462117"><ele>257.0</ele><time>2026-05-01T11:33:42.79Z</time></trkpt><trkpt lat="45.35887" lon="8.0461267"><ele>257.0</ele><time>2026-05-01T11:33:43.79Z</time></trkpt><trkpt lat="45.358765" lon="8.0460383"><ele>257.0</ele><time>2026-05-01T11:33:44.791Z</time></trkpt><trkpt lat="45.358675" lon="8.045965"><ele>257.0</ele><time>2026-05-01T11:33:45.791Z</time></trkpt><trkpt lat="45.3586033" lon="8.045915"><ele>257.0</ele><time>2026-05-01T11:33:46.791Z</time></trkpt><trkpt lat="45.3585417" lon="8.0458833"><ele>257.0</ele><time>2026-05-01T11:33:47.791Z</time></trkpt><trkpt lat="45.358465" lon="8.0458583"><ele>257.0</ele><time>2026-05-01T11:33:49.791Z</time></trkpt><trkpt lat="45.3583983" lon="8.04591"><ele>257.0</ele><time>2026-05-01T11:33:52.79Z</time></trkpt><trkpt lat="45.35832" lon="8.046015"><ele>257.0</ele><time>2026-05-01T11:34:11.791Z</time></trkpt><trkpt lat="45.3582633" lon="8.0460717"><ele>257.0</ele><time>2026-05-01T11:34:12.791Z</time></trkpt><trkpt lat="45.3581967" lon="8.046135"><ele>257.0</ele><time>2026-05-01T11:34:13.791Z</time></trkpt><trkpt lat="45.3581317" lon="8.0462117"><ele>257.0</ele><time>2026-05-01T11:34:14.79Z</time></trkpt><trkpt lat="45.3580567" lon="8.0462983"><ele>257.0</ele><time>2026-05-01T11:34:15.791Z</time></trkpt><trkpt lat="45.35798" lon="8.04639"><ele>257.0</ele><time>2026-05-01T11:34:16.791Z</time></trkpt><trkpt lat="45.357895" lon="8.04648"><ele>256.5</ele><time>2026-05-01T11:34:17.791Z</time></trkpt><trkpt lat="45.357805" lon="8.0465667"><ele>256.0</ele><time>2026-05-01T11:34:18.791Z</time></trkpt><trkpt lat="45.35771" lon="8.0466533"><ele>255.5</ele><time>2026-05-01T11:34:19.791Z</time></trkpt><trkpt lat="45.3576067" lon="8.046745"><ele>255.0</ele><time>2026-05-01T11:34:20.791Z</time></trkpt><trkpt lat="45.3574933" lon="8.0468417"><ele>255.0</ele><time>2026-05-01T11:34:21.791Z</time></trkpt><trkpt lat="45.3573767" lon="8.04695"><ele>255.0</ele><time>2026-05-01T11:34:22.791Z</time></trkpt><trkpt lat="45.3572667" lon="8.047055"><ele>255.0</ele><time>2026-05-01T11:34:23.791Z</time></trkpt><trkpt lat="45.3571617" lon="8.04715"><ele>255.0</ele><time>2026-05-01T11:34:24.791Z</time></trkpt><trkpt lat="45.35705" lon="8.04725"><ele>255.0</ele><time>2026-05-01T11:34:25.791Z</time></trkpt><trkpt lat="45.35695" lon="8.0473517"><ele>255.0</ele><time>2026-05-01T11:34:26.791Z</time></trkpt><trkpt lat="45.35684" lon="8.047455"><ele>255.0</ele><time>2026-05-01T11:34:27.791Z</time></trkpt><trkpt lat="45.35673" lon="8.0475667"><ele>255.0</ele><time>2026-05-01T11:34:28.791Z</time></trkpt><trkpt lat="45.3566167" lon="8.0476833"><ele>254.75</ele><time>2026-05-01T11:34:29.791Z</time></trkpt><trkpt lat="45.3565083" lon="8.0478017"><ele>254.5</ele><time>2026-05-01T11:34:30.791Z</time></trkpt><trkpt lat="45.3564" lon="8.0479233"><ele>254.25</ele><time>2026-05-01T11:34:31.791Z</time></trkpt><trkpt lat="45.3562917" lon="8.0480517"><ele>254.0</ele><time>2026-05-01T11:34:32.791Z</time></trkpt><trkpt lat="45.3561867" lon="8.0481817"><ele>253.0</ele><time>2026-05-01T11:34:33.791Z</time></trkpt><trkpt lat="45.35608" lon="8.0483117"><ele>252.0</ele><time>2026-05-01T11:34:34.791Z</time></trkpt><trkpt lat="45.3559767" lon="8.0484367"><ele>251.0</ele><time>2026-05-01T11:34:35.791Z</time></trkpt><trkpt lat="45.3558733" lon="8.0485617"><ele>250.0</ele><time>2026-05-01T11:34:36.79Z</time></trkpt><trkpt lat="45.3557567" lon="8.0486817"><ele>250.0</ele><time>2026-05-01T11:34:37.791Z</time></trkpt><trkpt lat="45.35564" lon="8.0487967"><ele>250.0</ele><time>2026-05-01T11:34:38.791Z</time></trkpt><trkpt lat="45.355525" lon="8.0489267"><ele>250.0</ele><time>2026-05-01T11:34:39.791Z</time></trkpt><trkpt lat="45.3554167" lon="8.0490517"><ele>250.0</ele><time>2026-05-01T11:34:40.791Z</time></trkpt><trkpt lat="45.355305" lon="8.0491717"><ele>250.0</ele><time>2026-05-01T11:34:41.791Z</time></trkpt><trkpt lat="45.355195" lon="8.0492767"><ele>250.0</ele><time>2026-05-01T11:34:42.791Z</time></trkpt><trkpt lat="45.3550883" lon="8.049375"><ele>250.0</ele><time>2026-05-01T11:34:43.791Z</time></trkpt><trkpt lat="45.35497" lon="8.0494967"><ele>250.0</ele><time>2026-05-01T11:34:44.791Z</time></trkpt><trkpt lat="45.3548583" lon="8.0496133"><ele>250.0</ele><time>2026-05-01T11:34:45.791Z</time></trkpt><trkpt lat="45.354745" lon="8.0497367"><ele>250.0</ele><time>2026-05-01T11:34:46.791Z</time></trkpt><trkpt lat="45.354625" lon="8.0498483"><ele>250.0</ele><time>2026-05-01T11:34:47.791Z</time></trkpt><trkpt lat="45.354505" lon="8.0499583"><ele>250.0</ele><time>2026-05-01T11:34:48.791Z</time></trkpt><trkpt lat="45.3543933" lon="8.05007"><ele>249.5</ele><time>2026-05-01T11:34:49.791Z</time></trkpt><trkpt lat="45.354275" lon="8.0501883"><ele>249.0</ele><time>2026-05-01T11:34:50.791Z</time></trkpt><trkpt lat="45.3541567" lon="8.0503117"><ele>248.5</ele><time>2026-05-01T11:34:51.791Z</time></trkpt><trkpt lat="45.3540317" lon="8.0504417"><ele>248.0</ele><time>2026-05-01T11:34:52.791Z</time></trkpt><trkpt lat="45.35391" lon="8.0505633"><ele>248.0</ele><time>2026-05-01T11:34:53.791Z</time></trkpt><trkpt lat="45.3537967" lon="8.0506867"><ele>248.0</ele><time>2026-05-01T11:34:54.791Z</time></trkpt><trkpt lat="45.35369" lon="8.05081"><ele>248.0</ele><time>2026-05-01T11:34:55.79Z</time></trkpt><trkpt lat="45.35359" lon="8.05093"><ele>248.0</ele><time>2026-05-01T11:34:56.791Z</time></trkpt><trkpt lat="45.353495" lon="8.0510533"><ele>247.75</ele><time>2026-05-01T11:34:57.791Z</time></trkpt><trkpt lat="45.35341" lon="8.0511917"><ele>247.5</ele><time>2026-05-01T11:34:58.791Z</time></trkpt><trkpt lat="45.3533167" lon="8.0513383"><ele>247.25</ele><time>2026-05-01T11:34:59.79Z</time></trkpt><trkpt lat="45.3532233" lon="8.051485"><ele>247.0</ele><time>2026-05-01T11:35:00.791Z</time></trkpt><trkpt lat="45.3531233" lon="8.05164"><ele>247.0</ele><time>2026-05-01T11:35:01.791Z</time></trkpt><trkpt lat="45.3530267" lon="8.0517967"><ele>247.0</ele><time>2026-05-01T11:35:02.791Z</time></trkpt><trkpt lat="45.35293" lon="8.0519417"><ele>247.0</ele><time>2026-05-01T11:35:03.791Z</time></trkpt><trkpt lat="45.3528383" lon="8.0520933"><ele>247.0</ele><time>2026-05-01T11:35:04.791Z</time></trkpt><trkpt lat="45.352755" lon="8.0522383"><ele>247.0</ele><time>2026-05-01T11:35:05.791Z</time></trkpt><trkpt lat="45.352675" lon="8.0523817"><ele>247.0</ele><time>2026-05-01T11:35:06.791Z</time></trkpt><trkpt lat="45.3526017" lon="8.052515"><ele>247.0</ele><time>2026-05-01T11:35:07.791Z</time></trkpt><trkpt lat="45.3525317" lon="8.0526267"><ele>247.0</ele><time>2026-05-01T11:35:08.791Z</time></trkpt><trkpt lat="45.3524717" lon="8.0527333"><ele>247.0</ele><time>2026-05-01T11:35:09.791Z</time></trkpt><trkpt lat="45.3524183" lon="8.052825"><ele>246.83333333333331</ele><time>2026-05-01T11:35:10.791Z</time></trkpt><trkpt lat="45.3523683" lon="8.0529117"><ele>246.66666666666666</ele><time>2026-05-01T11:35:11.791Z</time></trkpt><trkpt lat="45.3523167" lon="8.053"><ele>246.5</ele><time>2026-05-01T11:35:12.791Z</time></trkpt><trkpt lat="45.35226" lon="8.053085"><ele>246.33333333333331</ele><time>2026-05-01T11:35:13.791Z</time></trkpt><trkpt lat="45.3522033" lon="8.0531817"><ele>246.16666666666666</ele><time>2026-05-01T11:35:14.791Z</time></trkpt><trkpt lat="45.352145" lon="8.0532883"><ele>246.0</ele><time>2026-05-01T11:35:15.791Z</time></trkpt><trkpt lat="45.3520833" lon="8.053405"><ele>245.8</ele><time>2026-05-01T11:35:16.791Z</time></trkpt><trkpt lat="45.3520183" lon="8.0535083"><ele>245.60000000000002</ele><time>2026-05-01T11:35:17.791Z</time></trkpt><trkpt lat="45.3519467" lon="8.0536033"><ele>245.4</ele><time>2026-05-01T11:35:18.791Z</time></trkpt><trkpt lat="45.3518883" lon="8.05372"><ele>245.2</ele><time>2026-05-01T11:35:19.791Z</time></trkpt><trkpt lat="45.3518317" lon="8.053825"><ele>245.0</ele><time>2026-05-01T11:35:20.791Z</time></trkpt><trkpt lat="45.351775" lon="8.053925"><ele>245.0</ele><time>2026-05-01T11:35:21.791Z</time></trkpt><trkpt lat="45.3517083" lon="8.0539783"><ele>245.0</ele><time>2026-05-01T11:35:22.791Z</time></trkpt><trkpt lat="45.3516583" lon="8.0540967"><ele>245.0</ele><time>2026-05-01T11:35:23.791Z</time></trkpt><trkpt lat="45.351605" lon="8.0542067"><ele>245.0</ele><time>2026-05-01T11:35:24.791Z</time></trkpt><trkpt lat="45.35155" lon="8.0543133"><ele>245.0</ele><time>2026-05-01T11:35:25.791Z</time></trkpt><trkpt lat="45.3514883" lon="8.0544083"><ele>244.66666666666669</ele><time>2026-05-01T11:35:26.79Z</time></trkpt><trkpt lat="45.3514333" lon="8.0545017"><ele>244.33333333333334</ele><time>2026-05-01T11:35:27.791Z</time></trkpt><trkpt lat="45.3513783" lon="8.054585"><ele>244.0</ele><time>2026-05-01T11:35:28.791Z</time></trkpt><trkpt lat="45.3513183" lon="8.0546683"><ele>243.66666666666669</ele><time>2026-05-01T11:35:29.791Z</time></trkpt><trkpt lat="45.351265" lon="8.0547467"><ele>243.33333333333334</ele><time>2026-05-01T11:35:30.791Z</time></trkpt><trkpt lat="45.3512083" lon="8.05481"><ele>243.0</ele><time>2026-05-01T11:35:31.791Z</time></trkpt><trkpt lat="45.3511517" lon="8.05488"><ele>243.0</ele><time>2026-05-01T11:35:32.791Z</time></trkpt><trkpt lat="45.3511033" lon="8.0549417"><ele>243.0</ele><time>2026-05-01T11:35:33.79Z</time></trkpt><trkpt lat="45.3510433" lon="8.05502"><ele>243.0</ele><time>2026-05-01T11:35:35.791Z</time></trkpt><trkpt lat="45.3510333" lon="8.05515"><ele>243.0</ele><time>2026-05-01T11:36:52.79Z</time></trkpt><trkpt lat="45.351095" lon="8.055285"><ele>243.0</ele><time>2026-05-01T11:36:54.79Z</time></trkpt><trkpt lat="45.3511583" lon="8.0553417"><ele>243.0</ele><time>2026-05-01T11:36:55.79Z</time></trkpt><trkpt lat="45.351225" lon="8.0554"><ele>243.2</ele><time>2026-05-01T11:36:56.79Z</time></trkpt><trkpt lat="45.351305" lon="8.055455"><ele>243.4</ele><time>2026-05-01T11:36:57.79Z</time></trkpt><trkpt lat="45.3513933" lon="8.05553"><ele>243.59999999999997</ele><time>2026-05-01T11:36:58.79Z</time></trkpt><trkpt lat="45.3515017" lon="8.0555933"><ele>243.79999999999998</ele><time>2026-05-01T11:36:59.79Z</time></trkpt><trkpt lat="45.3516067" lon="8.055675"><ele>244.0</ele><time>2026-05-01T11:37:00.789Z</time></trkpt><trkpt lat="45.3517183" lon="8.05575"><ele>243.75</ele><time>2026-05-01T11:37:01.79Z</time></trkpt><trkpt lat="45.3518283" lon="8.0558283"><ele>243.5</ele><time>2026-05-01T11:37:02.79Z</time></trkpt><trkpt lat="45.3519417" lon="8.0559167"><ele>243.25</ele><time>2026-05-01T11:37:03.79Z</time></trkpt><trkpt lat="45.3520683" lon="8.0559917"><ele>243.0</ele><time>2026-05-01T11:37:04.79Z</time></trkpt><trkpt lat="45.3521867" lon="8.0560683"><ele>243.25</ele><time>2026-05-01T11:37:05.79Z</time></trkpt><trkpt lat="45.3522967" lon="8.0561583"><ele>243.5</ele><time>2026-05-01T11:37:06.79Z</time></trkpt><trkpt lat="45.3524" lon="8.0562367"><ele>243.75</ele><time>2026-05-01T11:37:07.79Z</time></trkpt><trkpt lat="45.3525017" lon="8.0562967"><ele>244.0</ele><time>2026-05-01T11:37:08.79Z</time></trkpt><trkpt lat="45.3525917" lon="8.0563683"><ele>244.0</ele><time>2026-05-01T11:37:09.79Z</time></trkpt><trkpt lat="45.35269" lon="8.05645"><ele>244.0</ele><time>2026-05-01T11:37:10.79Z</time></trkpt><trkpt lat="45.3527967" lon="8.0565233"><ele>244.0</ele><time>2026-05-01T11:37:11.79Z</time></trkpt><trkpt lat="45.35291" lon="8.0566"><ele>244.0</ele><time>2026-05-01T11:37:12.79Z</time></trkpt><trkpt lat="45.3530333" lon="8.0566733"><ele>244.5</ele><time>2026-05-01T11:37:13.79Z</time></trkpt><trkpt lat="45.35316" lon="8.05676"><ele>245.0</ele><time>2026-05-01T11:37:14.79Z</time></trkpt><trkpt lat="45.353285" lon="8.056845"><ele>245.5</ele><time>2026-05-01T11:37:15.79Z</time></trkpt><trkpt lat="45.3534133" lon="8.056935"><ele>246.0</ele><time>2026-05-01T11:37:16.79Z</time></trkpt><trkpt lat="45.353535" lon="8.0570417"><ele>246.0</ele><time>2026-05-01T11:37:17.79Z</time></trkpt><trkpt lat="45.3536633" lon="8.05714"><ele>246.0</ele><time>2026-05-01T11:37:18.79Z</time></trkpt><trkpt lat="45.3537983" lon="8.0572233"><ele>246.0</ele><time>2026-05-01T11:37:19.79Z</time></trkpt><trkpt lat="45.35393" lon="8.057315"><ele>246.0</ele><time>2026-05-01T11:37:20.79Z</time></trkpt><trkpt lat="45.3540467" lon="8.05742"><ele>245.66666666666669</ele><time>2026-05-01T11:37:21.79Z</time></trkpt><trkpt lat="45.35418" lon="8.0575167"><ele>245.33333333333334</ele><time>2026-05-01T11:37:22.79Z</time></trkpt><trkpt lat="45.35432" lon="8.0576183"><ele>245.0</ele><time>2026-05-01T11:37:23.79Z</time></trkpt><trkpt lat="45.3544467" lon="8.0577217"><ele>245.0</ele><time>2026-05-01T11:37:24.79Z</time></trkpt><trkpt lat="45.3545733" lon="8.057815"><ele>245.0</ele><time>2026-05-01T11:37:25.79Z</time></trkpt><trkpt lat="45.3546983" lon="8.05791"><ele>245.0</ele><time>2026-05-01T11:37:26.79Z</time></trkpt><trkpt lat="45.3548267" lon="8.0579983"><ele>245.0</ele><time>2026-05-01T11:37:27.79Z</time></trkpt><trkpt lat="45.3549533" lon="8.0580933"><ele>245.0</ele><time>2026-05-01T11:37:28.79Z</time></trkpt><trkpt lat="45.355075" lon="8.05821"><ele>245.0</ele><time>2026-05-01T11:37:29.79Z</time></trkpt><trkpt lat="45.3551867" lon="8.0583383"><ele>245.0</ele><time>2026-05-01T11:37:30.79Z</time></trkpt><trkpt lat="45.3552867" lon="8.0584867"><ele>245.0</ele><time>2026-05-01T11:37:31.79Z</time></trkpt><trkpt lat="45.355375" lon="8.0586583"><ele>245.0</ele><time>2026-05-01T11:37:32.79Z</time></trkpt><trkpt lat="45.3554567" lon="8.0588517"><ele>245.0</ele><time>2026-05-01T11:37:33.79Z</time></trkpt><trkpt lat="45.3555517" lon="8.0590067"><ele>245.0</ele><time>2026-05-01T11:37:34.79Z</time></trkpt><trkpt lat="45.3556483" lon="8.0591833"><ele>244.33333333333334</ele><time>2026-05-01T11:37:35.79Z</time></trkpt><trkpt lat="45.3557367" lon="8.0593683"><ele>243.66666666666669</ele><time>2026-05-01T11:37:36.79Z</time></trkpt><trkpt lat="45.3558483" lon="8.059535"><ele>243.0</ele><time>2026-05-01T11:37:37.79Z</time></trkpt><trkpt lat="45.3559583" lon="8.0597083"><ele>243.0</ele><time>2026-05-01T11:37:38.79Z</time></trkpt><trkpt lat="45.3560617" lon="8.0598817"><ele>243.0</ele><time>2026-05-01T11:37:39.79Z</time></trkpt><trkpt lat="45.3561583" lon="8.0600617"><ele>243.0</ele><time>2026-05-01T11:37:40.79Z</time></trkpt><trkpt lat="45.3562517" lon="8.0602333"><ele>243.0</ele><time>2026-05-01T11:37:41.79Z</time></trkpt><trkpt lat="45.3563433" lon="8.0604"><ele>243.0</ele><time>2026-05-01T11:37:42.79Z</time></trkpt><trkpt lat="45.3564267" lon="8.0605517"><ele>243.0</ele><time>2026-05-01T11:37:43.79Z</time></trkpt><trkpt lat="45.3565183" lon="8.06069"><ele>243.0</ele><time>2026-05-01T11:37:44.79Z</time></trkpt><trkpt lat="45.3566" lon="8.0608217"><ele>243.0</ele><time>2026-05-01T11:37:45.79Z</time></trkpt><trkpt lat="45.35667" lon="8.060945"><ele>243.0</ele><time>2026-05-01T11:37:46.79Z</time></trkpt><trkpt lat="45.3567433" lon="8.0610533"><ele>243.0</ele><time>2026-05-01T11:37:47.789Z</time></trkpt><trkpt lat="45.3568067" lon="8.0611683"><ele>243.0</ele><time>2026-05-01T11:37:48.79Z</time></trkpt><trkpt lat="45.3568567" lon="8.0612633"><ele>243.0</ele><time>2026-05-01T11:37:49.79Z</time></trkpt><trkpt lat="45.3568983" lon="8.0613483"><ele>243.0</ele><time>2026-05-01T11:37:50.79Z</time></trkpt><trkpt lat="45.356935" lon="8.0614383"><ele>243.0</ele><time>2026-05-01T11:37:51.79Z</time></trkpt><trkpt lat="45.3569817" lon="8.061535"><ele>243.0</ele><time>2026-05-01T11:37:52.79Z</time></trkpt><trkpt lat="45.3570367" lon="8.061635"><ele>243.0</ele><time>2026-05-01T11:37:53.79Z</time></trkpt><trkpt lat="45.3570933" lon="8.06174"><ele>243.0</ele><time>2026-05-01T11:37:54.79Z</time></trkpt><trkpt lat="45.3571517" lon="8.06185"><ele>243.0</ele><time>2026-05-01T11:37:55.79Z</time></trkpt><trkpt lat="45.3572317" lon="8.0619617"><ele>243.5</ele><time>2026-05-01T11:37:56.79Z</time></trkpt><trkpt lat="45.35732" lon="8.0620967"><ele>244.0</ele><time>2026-05-01T11:37:57.79Z</time></trkpt><trkpt lat="45.3574083" lon="8.0622467"><ele>244.5</ele><time>2026-05-01T11:37:58.79Z</time></trkpt><trkpt lat="45.357495" lon="8.0623833"><ele>245.0</ele><time>2026-05-01T11:37:59.79Z</time></trkpt><trkpt lat="45.3575733" lon="8.0625133"><ele>245.0</ele><time>2026-05-01T11:38:00.79Z</time></trkpt><trkpt lat="45.35765" lon="8.0626517"><ele>245.0</ele><time>2026-05-01T11:38:01.79Z</time></trkpt><trkpt lat="45.3577433" lon="8.0628067"><ele>245.0</ele><time>2026-05-01T11:38:02.79Z</time></trkpt><trkpt lat="45.3578533" lon="8.0629717"><ele>245.0</ele><time>2026-05-01T11:38:03.79Z</time></trkpt><trkpt lat="45.357955" lon="8.0631767"><ele>245.0</ele><time>2026-05-01T11:38:04.789Z</time></trkpt><trkpt lat="45.3580683" lon="8.063385"><ele>245.0</ele><time>2026-05-01T11:38:05.79Z</time></trkpt><trkpt lat="45.3581817" lon="8.063605"><ele>245.0</ele><time>2026-05-01T11:38:06.79Z</time></trkpt><trkpt lat="45.3583" lon="8.0638283"><ele>245.0</ele><time>2026-05-01T11:38:07.79Z</time></trkpt><trkpt lat="45.3584283" lon="8.0640383"><ele>245.0</ele><time>2026-05-01T11:38:08.79Z</time></trkpt><trkpt lat="45.3585617" lon="8.06425"><ele>245.0</ele><time>2026-05-01T11:38:09.79Z</time></trkpt><trkpt lat="45.3586933" lon="8.0644683"><ele>245.0</ele><time>2026-05-01T11:38:10.79Z</time></trkpt><trkpt lat="45.35882" lon="8.0646967"><ele>245.0</ele><time>2026-05-01T11:38:11.79Z</time></trkpt><trkpt lat="45.3589467" lon="8.0649283"><ele>245.0</ele><time>2026-05-01T11:38:12.79Z</time></trkpt><trkpt lat="45.3590767" lon="8.0651617"><ele>245.0</ele><time>2026-05-01T11:38:13.789Z</time></trkpt></trkseg><trkseg><trkpt lat="45.3642565" lon="8.0707635"><ele>250.33333333333331</ele><time>2026-05-01T11:39:06.802Z</time></trkpt><trkpt lat="45.3643997" lon="8.0708484"><ele>250.66666666666669</ele><time>2026-05-01T11:39:07.803Z</time></trkpt><trkpt lat="45.3645341" lon="8.0709231"><ele>251.0</ele><time>2026-05-01T11:39:08.802Z</time></trkpt><trkpt lat="45.3647725" lon="8.0710591"><ele>251.00000000000003</ele><time>2026-05-01T11:39:10.803Z</time></trkpt><trkpt lat="45.3648637" lon="8.0711123"><ele>251.0</ele><time>2026-05-01T11:39:11.803Z</time></trkpt><trkpt lat="45.3649438" lon="8.0711594"><ele>251.0</ele><time>2026-05-01T11:39:12.803Z</time></trkpt><trkpt lat="45.3650115" lon="8.071208"><ele>251.0</ele><time>2026-05-01T11:39:13.803Z</time></trkpt><trkpt lat="45.3650693" lon="8.0712442"><ele>251.00000000000003</ele><time>2026-05-01T11:39:14.803Z</time></trkpt><trkpt lat="45.3651544" lon="8.0713285"><ele>251.0</ele><time>2026-05-01T11:39:16.803Z</time></trkpt><trkpt lat="45.3652053" lon="8.0714596"><ele>251.00000000000003</ele><time>2026-05-01T11:39:18.803Z</time></trkpt><trkpt lat="45.3652153" lon="8.0715512"><ele>251.0</ele><time>2026-05-01T11:39:19.803Z</time></trkpt><trkpt lat="45.3652158" lon="8.0716677"><ele>251.0</ele><time>2026-05-01T11:39:20.803Z</time></trkpt><trkpt lat="45.3652156" lon="8.0717998"><ele>251.0</ele><time>2026-05-01T11:39:21.803Z</time></trkpt><trkpt lat="45.3652067" lon="8.0719414"><ele>251.00000000000003</ele><time>2026-05-01T11:39:22.803Z</time></trkpt><trkpt lat="45.3652015" lon="8.0720893"><ele>251.0</ele><time>2026-05-01T11:39:23.803Z</time></trkpt><trkpt lat="45.3651987" lon="8.0722293"><ele>251.60000000000002</ele><time>2026-05-01T11:39:24.803Z</time></trkpt><trkpt lat="45.3651872" lon="8.0723728"><ele>252.20000000000002</ele><time>2026-05-01T11:39:25.803Z</time></trkpt><trkpt lat="45.3651659" lon="8.0725191"><ele>252.79999999999998</ele><time>2026-05-01T11:39:26.803Z</time></trkpt><trkpt lat="45.3651496" lon="8.0726679"><ele>253.39999999999998</ele><time>2026-05-01T11:39:27.803Z</time></trkpt><trkpt lat="45.3651339" lon="8.0728006"><ele>254.0</ele><time>2026-05-01T11:39:28.803Z</time></trkpt><trkpt lat="45.3651259" lon="8.0729201"><ele>254.16666666666669</ele><time>2026-05-01T11:39:29.803Z</time></trkpt><trkpt lat="45.3651163" lon="8.0730368"><ele>254.33333333333334</ele><time>2026-05-01T11:39:30.803Z</time></trkpt><trkpt lat="45.3651065" lon="8.073157"><ele>254.5</ele><time>2026-05-01T11:39:31.803Z</time></trkpt><trkpt lat="45.365094" lon="8.0732781"><ele>254.66666666666669</ele><time>2026-05-01T11:39:32.802Z</time></trkpt><trkpt lat="45.3650796" lon="8.0733956"><ele>254.83333333333334</ele><time>2026-05-01T11:39:33.803Z</time></trkpt><trkpt lat="45.365055" lon="8.0735019"><ele>255.0</ele><time>2026-05-01T11:39:34.803Z</time></trkpt><trkpt lat="45.3650476" lon="8.0736063"><ele>255.0</ele><time>2026-05-01T11:39:35.803Z</time></trkpt><trkpt lat="45.3650501" lon="8.073698"><ele>255.0</ele><time>2026-05-01T11:39:36.803Z</time></trkpt><trkpt lat="45.3650681" lon="8.0737926"><ele>255.0</ele><time>2026-05-01T11:39:37.803Z</time></trkpt><trkpt lat="45.3651021" lon="8.0738879"><ele>255.0</ele><time>2026-05-01T11:39:38.803Z</time></trkpt><trkpt lat="45.3651428" lon="8.0739837"><ele>255.0</ele><time>2026-05-01T11:39:39.803Z</time></trkpt><trkpt lat="45.3651897" lon="8.0740808"><ele>255.0</ele><time>2026-05-01T11:39:40.803Z</time></trkpt><trkpt lat="45.3652438" lon="8.0741703"><ele>255.0</ele><time>2026-05-01T11:39:41.802Z</time></trkpt><trkpt lat="45.3652957" lon="8.0742414"><ele>255.00000000000003</ele><time>2026-05-01T11:39:42.802Z</time></trkpt><trkpt lat="45.3653763" lon="8.0743161"><ele>255.0</ele><time>2026-05-01T11:39:44.803Z</time></trkpt><trkpt lat="45.3653618" lon="8.0744213"><ele>255.0</ele><time>2026-05-01T11:39:49.803Z</time></trkpt><trkpt lat="45.3653121" lon="8.074481"><ele>255.00000000000003</ele><time>2026-05-01T11:39:51.803Z</time></trkpt><trkpt lat="45.3652706" lon="8.0745577"><ele>255.0</ele><time>2026-05-01T11:39:54.803Z</time></trkpt><trkpt lat="45.365331" lon="8.0745837"><ele>255.0</ele><time>2026-05-01T11:39:57.803Z</time></trkpt><trkpt lat="45.3653731" lon="8.0745161"><ele>255.0</ele><time>2026-05-01T11:40:00.803Z</time></trkpt><trkpt lat="45.3654135" lon="8.0744361"><ele>255.0</ele><time>2026-05-01T11:40:04.803Z</time></trkpt><trkpt lat="45.3654307" lon="8.0743233"><ele>255.0</ele><time>2026-05-01T11:41:35.802Z</time></trkpt><trkpt lat="45.3654121" lon="8.0742261"><ele>255.0</ele><time>2026-05-01T11:41:38.802Z</time></trkpt><trkpt lat="45.3653862" lon="8.0741197"><ele>255.0</ele><time>2026-05-01T11:41:41.802Z</time></trkpt><trkpt lat="45.3653607" lon="8.0740157"><ele>255.0</ele><time>2026-05-01T11:41:44.802Z</time></trkpt><trkpt lat="45.3653294" lon="8.0739204"><ele>255.0</ele><time>2026-05-01T11:41:46.802Z</time></trkpt><trkpt lat="45.365296" lon="8.0738281"><ele>255.0</ele><time>2026-05-01T11:41:48.802Z</time></trkpt><trkpt lat="45.3652483" lon="8.0737219"><ele>255.0</ele><time>2026-05-01T11:41:50.801Z</time></trkpt><trkpt lat="45.3652192" lon="8.0735787"><ele>255.0</ele><time>2026-05-01T11:41:52.802Z</time></trkpt><trkpt lat="45.365217" lon="8.0734096"><ele>255.0</ele><time>2026-05-01T11:41:54.802Z</time></trkpt><trkpt lat="45.365221" lon="8.0733197"><ele>255.0</ele><time>2026-05-01T11:41:55.802Z</time></trkpt><trkpt lat="45.3652152" lon="8.0732162"><ele>255.0</ele><time>2026-05-01T11:41:56.801Z</time></trkpt><trkpt lat="45.3652125" lon="8.0731155"><ele>255.0</ele><time>2026-05-01T11:41:57.802Z</time></trkpt><trkpt lat="45.3652121" lon="8.0730032"><ele>255.0</ele><time>2026-05-01T11:41:58.802Z</time></trkpt><trkpt lat="45.3652088" lon="8.0729014"><ele>255.0</ele><time>2026-05-01T11:41:59.802Z</time></trkpt><trkpt lat="45.3652144" lon="8.0727851"><ele>255.0</ele><time>2026-05-01T11:42:00.802Z</time></trkpt><trkpt lat="45.3652187" lon="8.0726481"><ele>255.0</ele><time>2026-05-01T11:42:01.802Z</time></trkpt><trkpt lat="45.3652174" lon="8.0725018"><ele>254.8</ele><time>2026-05-01T11:42:02.802Z</time></trkpt><trkpt lat="45.3652145" lon="8.0723564"><ele>254.6</ele><time>2026-05-01T11:42:03.802Z</time></trkpt><trkpt lat="45.3652108" lon="8.0722179"><ele>254.39999999999998</ele><time>2026-05-01T11:42:04.802Z</time></trkpt><trkpt lat="45.3652044" lon="8.0720772"><ele>254.2</ele><time>2026-05-01T11:42:05.802Z</time></trkpt><trkpt lat="45.3652019" lon="8.0719437"><ele>254.0</ele><time>2026-05-01T11:42:06.802Z</time></trkpt><trkpt lat="45.3652058" lon="8.0718173"><ele>254.0</ele><time>2026-05-01T11:42:07.802Z</time></trkpt><trkpt lat="45.3652115" lon="8.0716979"><ele>254.0</ele><time>2026-05-01T11:42:08.801Z</time></trkpt><trkpt lat="45.3652166" lon="8.0715844"><ele>254.0</ele><time>2026-05-01T11:42:09.802Z</time></trkpt><trkpt lat="45.3652251" lon="8.0714806"><ele>254.0</ele><time>2026-05-01T11:42:10.801Z</time></trkpt><trkpt lat="45.3652156" lon="8.07139"><ele>254.0</ele><time>2026-05-01T11:42:11.802Z</time></trkpt><trkpt lat="45.3651912" lon="8.0713048"><ele>254.0</ele><time>2026-05-01T11:42:12.802Z</time></trkpt><trkpt lat="45.3651383" lon="8.0712205"><ele>254.0</ele><time>2026-05-01T11:42:13.802Z</time></trkpt><trkpt lat="45.365056" lon="8.0711487"><ele>253.0</ele><time>2026-05-01T11:42:14.802Z</time></trkpt><trkpt lat="45.3649322" lon="8.071081"><ele>252.0</ele><time>2026-05-01T11:42:15.802Z</time></trkpt><trkpt lat="45.3647925" lon="8.0710038"><ele>251.0</ele><time>2026-05-01T11:42:16.802Z</time></trkpt><trkpt lat="45.3646254" lon="8.070911"><ele>251.0</ele><time>2026-05-01T11:42:17.802Z</time></trkpt><trkpt lat="45.3644548" lon="8.0708148"><ele>251.0</ele><time>2026-05-01T11:42:18.802Z</time></trkpt><trkpt lat="45.3642878" lon="8.0707126"><ele>251.0</ele><time>2026-05-01T11:42:19.802Z</time></trkpt><trkpt lat="45.3641226" lon="8.0706087"><ele>250.66666666666669</ele><time>2026-05-01T11:42:20.802Z</time></trkpt><trkpt lat="45.3639565" lon="8.0705044"><ele>250.33333333333331</ele><time>2026-05-01T11:42:21.802Z</time></trkpt><trkpt lat="45.3637931" lon="8.0703999"><ele>250.0</ele><time>2026-05-01T11:42:22.802Z</time></trkpt><trkpt lat="45.3636316" lon="8.0702957"><ele>249.66666666666666</ele><time>2026-05-01T11:42:23.802Z</time></trkpt><trkpt lat="45.3634594" lon="8.0701893"><ele>249.33333333333331</ele><time>2026-05-01T11:42:24.802Z</time></trkpt><trkpt lat="45.3632785" lon="8.0700864"><ele>249.0</ele><time>2026-05-01T11:42:25.802Z</time></trkpt><trkpt lat="45.3631023" lon="8.0699742"><ele>249.0</ele><time>2026-05-01T11:42:26.802Z</time></trkpt><trkpt lat="45.3629201" lon="8.0698647"><ele>249.0</ele><time>2026-05-01T11:42:27.802Z</time></trkpt><trkpt lat="45.3627401" lon="8.0697583"><ele>249.0</ele><time>2026-05-01T11:42:28.802Z</time></trkpt><trkpt lat="45.3625612" lon="8.0696541"><ele>249.0</ele><time>2026-05-01T11:42:29.802Z</time></trkpt><trkpt lat="45.3623911" lon="8.0695494"><ele>249.0</ele><time>2026-05-01T11:42:30.802Z</time></trkpt><trkpt lat="45.3622216" lon="8.0694472"><ele>249.0</ele><time>2026-05-01T11:42:31.802Z</time></trkpt><trkpt lat="45.3620626" lon="8.069344"><ele>248.66666666666669</ele><time>2026-05-01T11:42:32.802Z</time></trkpt><trkpt lat="45.3619072" lon="8.069246"><ele>248.33333333333334</ele><time>2026-05-01T11:42:33.802Z</time></trkpt><trkpt lat="45.3617569" lon="8.0691555"><ele>248.0</ele><time>2026-05-01T11:42:34.802Z</time></trkpt><trkpt lat="45.3616139" lon="8.0690693"><ele>247.8</ele><time>2026-05-01T11:42:35.802Z</time></trkpt><trkpt lat="45.3614917" lon="8.0690229"><ele>247.60000000000002</ele><time>2026-05-01T11:42:36.802Z</time></trkpt><trkpt lat="45.3613946" lon="8.0690088"><ele>247.39999999999998</ele><time>2026-05-01T11:42:37.802Z</time></trkpt><trkpt lat="45.3613294" lon="8.0690213"><ele>247.2</ele><time>2026-05-01T11:42:38.802Z</time></trkpt><trkpt lat="45.3612891" lon="8.0691386"><ele>247.0</ele><time>2026-05-01T11:42:42.802Z</time></trkpt><trkpt lat="45.3612944" lon="8.069324"><ele>247.2</ele><time>2026-05-01T11:42:44.802Z</time></trkpt><trkpt lat="45.3613161" lon="8.0694518"><ele>247.39999999999998</ele><time>2026-05-01T11:42:45.802Z</time></trkpt><trkpt lat="45.3613495" lon="8.0695996"><ele>247.60000000000002</ele><time>2026-05-01T11:42:46.802Z</time></trkpt><trkpt lat="45.3613826" lon="8.0697586"><ele>247.8</ele><time>2026-05-01T11:42:47.802Z</time></trkpt><trkpt lat="45.3614087" lon="8.0699084"><ele>248.0</ele><time>2026-05-01T11:42:48.802Z</time></trkpt><trkpt lat="45.361419" lon="8.0700139"><ele>247.66666666666669</ele><time>2026-05-01T11:42:49.802Z</time></trkpt><trkpt lat="45.3613952" lon="8.0701036"><ele>247.33333333333334</ele><time>2026-05-01T11:42:51.802Z</time></trkpt><trkpt lat="45.3613263" lon="8.0700851"><ele>247.0</ele><time>2026-05-01T11:42:53.802Z</time></trkpt><trkpt lat="45.3612709" lon="8.0700058"><ele>246.66666666666669</ele><time>2026-05-01T11:42:55.802Z</time></trkpt><trkpt lat="45.3612126" lon="8.0699122"><ele>246.33333333333334</ele><time>2026-05-01T11:42:57.802Z</time></trkpt><trkpt lat="45.3611454" lon="8.0698771"><ele>246.0</ele><time>2026-05-01T11:42:59.802Z</time></trkpt><trkpt lat="45.3611318" lon="8.0696196"><ele>245.60000000000002</ele><time>2026-05-01T12:25:49.973Z</time></trkpt><trkpt lat="45.3610104" lon="8.0695224"><ele>245.20000000000002</ele><time>2026-05-01T12:29:42.534Z</time></trkpt><trkpt lat="45.3610981" lon="8.069596"><ele>244.79999999999998</ele><time>2026-05-01T12:29:48.534Z</time></trkpt><trkpt lat="45.3611472" lon="8.0696597"><ele>244.39999999999998</ele><time>2026-05-01T12:29:49.534Z</time></trkpt><trkpt lat="45.3610819" lon="8.0697113"><ele>244.0</ele><time>2026-05-01T12:31:17.8Z</time></trkpt><trkpt lat="45.3606117" lon="8.0697617"><ele>244.0</ele><time>2026-05-01T12:37:10.675Z</time></trkpt><trkpt lat="45.3608265" lon="8.0697618"><ele>243.99999999999997</ele><time>2026-05-01T12:37:14.175Z</time></trkpt><trkpt lat="45.3609003" lon="8.0697675"><ele>243.99999999999997</ele><time>2026-05-01T12:37:15.175Z</time></trkpt><trkpt lat="45.3609701" lon="8.0697822"><ele>244.0</ele><time>2026-05-01T12:37:17.175Z</time></trkpt><trkpt lat="45.3610401" lon="8.0698011"><ele>244.0</ele><time>2026-05-01T12:37:20.8Z</time></trkpt><trkpt lat="45.3609846" lon="8.0698717"><ele>244.16666666666666</ele><time>2026-05-01T12:40:19.8Z</time></trkpt><trkpt lat="45.360968" lon="8.0699799"><ele>244.33333333333331</ele><time>2026-05-01T12:40:22.8Z</time></trkpt><trkpt lat="45.3610449" lon="8.0700655"><ele>244.5</ele><time>2026-05-01T12:40:25.8Z</time></trkpt><trkpt lat="45.3611184" lon="8.0700896"><ele>244.66666666666669</ele><time>2026-05-01T12:40:27.8Z</time></trkpt><trkpt lat="45.3611956" lon="8.0700984"><ele>244.83333333333334</ele><time>2026-05-01T12:40:29.8Z</time></trkpt><trkpt lat="45.3612698" lon="8.0701002"><ele>245.0</ele><time>2026-05-01T12:40:31.8Z</time></trkpt><trkpt lat="45.3613374" lon="8.0701193"><ele>245.16666666666669</ele><time>2026-05-01T12:40:34.8Z</time></trkpt><trkpt lat="45.3614017" lon="8.0701183"><ele>245.33333333333334</ele><time>2026-05-01T12:40:40.8Z</time></trkpt><trkpt lat="45.3614417" lon="8.0699667"><ele>245.5</ele><time>2026-05-01T12:40:56.8Z</time></trkpt><trkpt lat="45.36143" lon="8.0698767"><ele>245.66666666666669</ele><time>2026-05-01T12:40:57.8Z</time></trkpt><trkpt lat="45.3614167" lon="8.069775"><ele>245.83333333333334</ele><time>2026-05-01T12:40:58.799Z</time></trkpt><trkpt lat="45.3614033" lon="8.0696667"><ele>246.0</ele><time>2026-05-01T12:40:59.8Z</time></trkpt><trkpt lat="45.361395" lon="8.0695567"><ele>246.16666666666666</ele><time>2026-05-01T12:41:00.799Z</time></trkpt><trkpt lat="45.3613833" lon="8.0694433"><ele>246.33333333333331</ele><time>2026-05-01T12:41:01.8Z</time></trkpt><trkpt lat="45.3613833" lon="8.06933"><ele>246.5</ele><time>2026-05-01T12:41:02.8Z</time></trkpt><trkpt lat="45.3614083" lon="8.069225"><ele>246.66666666666666</ele><time>2026-05-01T12:41:03.8Z</time></trkpt><trkpt lat="45.3614617" lon="8.0691483"><ele>246.83333333333331</ele><time>2026-05-01T12:41:04.8Z</time></trkpt><trkpt lat="45.3615317" lon="8.0691067"><ele>247.0</ele><time>2026-05-01T12:41:05.8Z</time></trkpt><trkpt lat="45.3616133" lon="8.0691083"><ele>247.2</ele><time>2026-05-01T12:41:06.8Z</time></trkpt><trkpt lat="45.3616967" lon="8.06914"><ele>247.39999999999998</ele><time>2026-05-01T12:41:07.799Z</time></trkpt><trkpt lat="45.361785" lon="8.06919"><ele>247.60000000000002</ele><time>2026-05-01T12:41:08.8Z</time></trkpt><trkpt lat="45.3618733" lon="8.0692417"><ele>247.8</ele><time>2026-05-01T12:41:09.8Z</time></trkpt><trkpt lat="45.3619667" lon="8.0692983"><ele>248.0</ele><time>2026-05-01T12:41:10.8Z</time></trkpt><trkpt lat="45.3620533" lon="8.0693483"><ele>248.0</ele><time>2026-05-01T12:41:11.799Z</time></trkpt><trkpt lat="45.3621517" lon="8.06941"><ele>248.0</ele><time>2026-05-01T12:41:12.799Z</time></trkpt><trkpt lat="45.3622517" lon="8.06948"><ele>248.0</ele><time>2026-05-01T12:41:13.799Z</time></trkpt><trkpt lat="45.3623567" lon="8.06955"><ele>248.0</ele><time>2026-05-01T12:41:14.798Z</time></trkpt><trkpt lat="45.362465" lon="8.0696183"><ele>248.25</ele><time>2026-05-01T12:41:15.799Z</time></trkpt><trkpt lat="45.3625833" lon="8.0697"><ele>248.5</ele><time>2026-05-01T12:41:16.799Z</time></trkpt><trkpt lat="45.3626933" lon="8.0697683"><ele>248.75</ele><time>2026-05-01T12:41:17.799Z</time></trkpt><trkpt lat="45.3628083" lon="8.06985"><ele>249.0</ele><time>2026-05-01T12:41:18.799Z</time></trkpt><trkpt lat="45.3629217" lon="8.0699233"><ele>249.0</ele><time>2026-05-01T12:41:19.799Z</time></trkpt><trkpt lat="45.3630417" lon="8.0699967"><ele>249.0</ele><time>2026-05-01T12:41:20.799Z</time></trkpt><trkpt lat="45.3631667" lon="8.0700717"><ele>249.0</ele><time>2026-05-01T12:41:21.799Z</time></trkpt><trkpt lat="45.3632933" lon="8.0701367"><ele>249.0</ele><time>2026-05-01T12:41:22.799Z</time></trkpt><trkpt lat="45.363415" lon="8.07021"><ele>249.0</ele><time>2026-05-01T12:41:23.799Z</time></trkpt><trkpt lat="45.36354" lon="8.07029"><ele>249.0</ele><time>2026-05-01T12:41:24.799Z</time></trkpt><trkpt lat="45.3636733" lon="8.0703717"><ele>249.0</ele><time>2026-05-01T12:41:25.799Z</time></trkpt><trkpt lat="45.3638083" lon="8.0704533"><ele>249.0</ele><time>2026-05-01T12:41:26.799Z</time></trkpt><trkpt lat="45.3639383" lon="8.0705417"><ele>249.25</ele><time>2026-05-01T12:41:27.799Z</time></trkpt><trkpt lat="45.3640717" lon="8.0706333"><ele>249.5</ele><time>2026-05-01T12:41:28.799Z</time></trkpt><trkpt lat="45.3641983" lon="8.0707067"><ele>249.75</ele><time>2026-05-01T12:41:29.799Z</time></trkpt><trkpt lat="45.3643183" lon="8.0707917"><ele>250.0</ele><time>2026-05-01T12:41:30.799Z</time></trkpt><trkpt lat="45.3644383" lon="8.0708533"><ele>250.25</ele><time>2026-05-01T12:41:31.799Z</time></trkpt><trkpt lat="45.3645567" lon="8.0709217"><ele>250.5</ele><time>2026-05-01T12:41:32.799Z</time></trkpt><trkpt lat="45.3646683" lon="8.070985"><ele>250.75</ele><time>2026-05-01T12:41:33.799Z</time></trkpt><trkpt lat="45.364765" lon="8.0710433"><ele>251.0</ele><time>2026-05-01T12:41:34.799Z</time></trkpt><trkpt lat="45.3648533" lon="8.07111"><ele>251.00000000000003</ele><time>2026-05-01T12:41:35.799Z</time></trkpt><trkpt lat="45.3649383" lon="8.071165"><ele>251.0</ele><time>2026-05-01T12:41:36.799Z</time></trkpt><trkpt lat="45.3650167" lon="8.0712067"><ele>251.0</ele><time>2026-05-01T12:41:37.799Z</time></trkpt><trkpt lat="45.365075" lon="8.071245"><ele>251.0</ele><time>2026-05-01T12:41:38.799Z</time></trkpt><trkpt lat="45.3651383" lon="8.0712883"><ele>251.00000000000003</ele><time>2026-05-01T12:41:40.799Z</time></trkpt><trkpt lat="45.3652117" lon="8.0712583"><ele>251.0</ele><time>2026-05-01T12:41:43.799Z</time></trkpt><trkpt lat="45.3653267" lon="8.07124"><ele>251.00000000000003</ele><time>2026-05-01T12:41:45.799Z</time></trkpt><trkpt lat="45.3653983" lon="8.07123"><ele>251.0</ele><time>2026-05-01T12:41:46.799Z</time></trkpt><trkpt lat="45.3654767" lon="8.0712233"><ele>251.0</ele><time>2026-05-01T12:41:47.799Z</time></trkpt><trkpt lat="45.3655717" lon="8.0712183"><ele>251.0</ele><time>2026-05-01T12:41:48.799Z</time></trkpt><trkpt lat="45.365665" lon="8.0712167"><ele>251.00000000000003</ele><time>2026-05-01T12:41:49.799Z</time></trkpt><trkpt lat="45.3657717" lon="8.071215"><ele>251.0</ele><time>2026-05-01T12:41:50.799Z</time></trkpt><trkpt lat="45.3658833" lon="8.0712117"><ele>251.0</ele><time>2026-05-01T12:41:51.799Z</time></trkpt><trkpt lat="45.3659983" lon="8.0711967"><ele>251.0</ele><time>2026-05-01T12:41:52.799Z</time></trkpt><trkpt lat="45.3661217" lon="8.071185"><ele>251.0</ele><time>2026-05-01T12:41:53.799Z</time></trkpt><trkpt lat="45.3662617" lon="8.0711717"><ele>251.0</ele><time>2026-05-01T12:41:54.799Z</time></trkpt><trkpt lat="45.3663967" lon="8.0711417"><ele>251.5</ele><time>2026-05-01T12:41:55.799Z</time></trkpt><trkpt lat="45.3665283" lon="8.0710817"><ele>252.0</ele><time>2026-05-01T12:41:56.799Z</time></trkpt><trkpt lat="45.3666617" lon="8.0710283"><ele>252.5</ele><time>2026-05-01T12:41:57.799Z</time></trkpt><trkpt lat="45.3668" lon="8.0709917"><ele>253.0</ele><time>2026-05-01T12:41:58.799Z</time></trkpt><trkpt lat="45.36694" lon="8.07095"><ele>253.0</ele><time>2026-05-01T12:41:59.799Z</time></trkpt><trkpt lat="45.3670683" lon="8.0709017"><ele>253.0</ele><time>2026-05-01T12:42:00.799Z</time></trkpt><trkpt lat="45.3671917" lon="8.07086"><ele>253.0</ele><time>2026-05-01T12:42:01.799Z</time></trkpt><trkpt lat="45.3673183" lon="8.0708117"><ele>253.0</ele><time>2026-05-01T12:42:02.799Z</time></trkpt><trkpt lat="45.367445" lon="8.070745"><ele>253.5</ele><time>2026-05-01T12:42:03.799Z</time></trkpt><trkpt lat="45.3675733" lon="8.070685"><ele>254.0</ele><time>2026-05-01T12:42:04.799Z</time></trkpt><trkpt lat="45.367705" lon="8.070625"><ele>254.5</ele><time>2026-05-01T12:42:05.798Z</time></trkpt><trkpt lat="45.3678267" lon="8.0705583"><ele>255.0</ele><time>2026-05-01T12:42:06.799Z</time></trkpt><trkpt lat="45.367945" lon="8.0704867"><ele>255.0</ele><time>2026-05-01T12:42:07.799Z</time></trkpt><trkpt lat="45.36806" lon="8.0704217"><ele>255.0</ele><time>2026-05-01T12:42:08.799Z</time></trkpt><trkpt lat="45.3681717" lon="8.070365"><ele>255.0</ele><time>2026-05-01T12:42:09.799Z</time></trkpt><trkpt lat="45.3682817" lon="8.0703233"><ele>255.0</ele><time>2026-05-01T12:42:10.799Z</time></trkpt><trkpt lat="45.36837" lon="8.0702917"><ele>255.0</ele><time>2026-05-01T12:42:11.799Z</time></trkpt><trkpt lat="45.3684367" lon="8.0702867"><ele>255.0</ele><time>2026-05-01T12:42:12.799Z</time></trkpt><trkpt lat="45.3685067" lon="8.0703017"><ele>255.0</ele><time>2026-05-01T12:42:14.799Z</time></trkpt><trkpt lat="45.3686" lon="8.0701917"><ele>255.0</ele><time>2026-05-01T12:42:17.799Z</time></trkpt><trkpt lat="45.3686517" lon="8.07011"><ele>255.0</ele><time>2026-05-01T12:42:18.799Z</time></trkpt><trkpt lat="45.3687167" lon="8.07002"><ele>255.0</ele><time>2026-05-01T12:42:19.799Z</time></trkpt><trkpt lat="45.368775" lon="8.0699133"><ele>254.8</ele><time>2026-05-01T12:42:20.799Z</time></trkpt><trkpt lat="45.36883" lon="8.0697967"><ele>254.6</ele><time>2026-05-01T12:42:21.799Z</time></trkpt><trkpt lat="45.36889" lon="8.0696817"><ele>254.39999999999998</ele><time>2026-05-01T12:42:22.799Z</time></trkpt><trkpt lat="45.3689533" lon="8.0695617"><ele>254.2</ele><time>2026-05-01T12:42:23.798Z</time></trkpt><trkpt lat="45.3690217" lon="8.0694433"><ele>254.0</ele><time>2026-05-01T12:42:24.799Z</time></trkpt><trkpt lat="45.3690917" lon="8.0693417"><ele>254.6</ele><time>2026-05-01T12:42:25.799Z</time></trkpt><trkpt lat="45.3691633" lon="8.06925"><ele>255.2</ele><time>2026-05-01T12:42:26.799Z</time></trkpt><trkpt lat="45.3692517" lon="8.0691617"><ele>255.79999999999998</ele><time>2026-05-01T12:42:27.799Z</time></trkpt><trkpt lat="45.3693417" lon="8.06908"><ele>256.4</ele><time>2026-05-01T12:42:28.799Z</time></trkpt><trkpt lat="45.3694467" lon="8.0689983"><ele>257.0</ele><time>2026-05-01T12:42:29.799Z</time></trkpt><trkpt lat="45.3695533" lon="8.0689083"><ele>257.25</ele><time>2026-05-01T12:42:30.799Z</time></trkpt><trkpt lat="45.36966" lon="8.0688183"><ele>257.5</ele><time>2026-05-01T12:42:31.799Z</time></trkpt><trkpt lat="45.3697617" lon="8.068725"><ele>257.75</ele><time>2026-05-01T12:42:32.799Z</time></trkpt><trkpt lat="45.3698867" lon="8.0686217"><ele>258.0</ele><time>2026-05-01T12:42:33.799Z</time></trkpt><trkpt lat="45.3699967" lon="8.0685283"><ele>258.0</ele><time>2026-05-01T12:42:34.799Z</time></trkpt><trkpt lat="45.3700967" lon="8.0684383"><ele>258.0</ele><time>2026-05-01T12:42:35.799Z</time></trkpt><trkpt lat="45.3701933" lon="8.068365"><ele>258.0</ele><time>2026-05-01T12:42:36.799Z</time></trkpt><trkpt lat="45.3703" lon="8.068315"><ele>258.0</ele><time>2026-05-01T12:42:37.799Z</time></trkpt><trkpt lat="45.370425" lon="8.0682683"><ele>258.75</ele><time>2026-05-01T12:42:38.799Z</time></trkpt><trkpt lat="45.370555" lon="8.0682183"><ele>259.5</ele><time>2026-05-01T12:42:39.799Z</time></trkpt><trkpt lat="45.3706783" lon="8.06817"><ele>260.25</ele><time>2026-05-01T12:42:40.799Z</time></trkpt><trkpt lat="45.3708083" lon="8.06813"><ele>261.0</ele><time>2026-05-01T12:42:41.799Z</time></trkpt><trkpt lat="45.3709317" lon="8.06808"><ele>261.0</ele><time>2026-05-01T12:42:42.799Z</time></trkpt><trkpt lat="45.3710433" lon="8.06803"><ele>261.0</ele><time>2026-05-01T12:42:43.799Z</time></trkpt><trkpt lat="45.3711533" lon="8.0679683"><ele>261.0</ele><time>2026-05-01T12:42:44.799Z</time></trkpt><trkpt lat="45.3712717" lon="8.0679183"><ele>261.0</ele><time>2026-05-01T12:42:45.799Z</time></trkpt><trkpt lat="45.3713833" lon="8.06787"><ele>261.25</ele><time>2026-05-01T12:42:46.799Z</time></trkpt><trkpt lat="45.371495" lon="8.0678233"><ele>261.5</ele><time>2026-05-01T12:42:47.799Z</time></trkpt><trkpt lat="45.3716167" lon="8.06777"><ele>261.75</ele><time>2026-05-01T12:42:48.799Z</time></trkpt><trkpt lat="45.3717417" lon="8.0677167"><ele>262.0</ele><time>2026-05-01T12:42:49.799Z</time></trkpt><trkpt lat="45.37188" lon="8.0676717"><ele>262.0</ele><time>2026-05-01T12:42:50.799Z</time></trkpt><trkpt lat="45.3720117" lon="8.0676317"><ele>262.0</ele><time>2026-05-01T12:42:51.799Z</time></trkpt><trkpt lat="45.3721383" lon="8.06757"><ele>262.0</ele><time>2026-05-01T12:42:52.799Z</time></trkpt><trkpt lat="45.3722717" lon="8.0675217"><ele>262.0</ele><time>2026-05-01T12:42:53.799Z</time></trkpt><trkpt lat="45.3723917" lon="8.0674667"><ele>262.5</ele><time>2026-05-01T12:42:54.799Z</time></trkpt><trkpt lat="45.3725117" lon="8.0674"><ele>263.0</ele><time>2026-05-01T12:42:55.799Z</time></trkpt><trkpt lat="45.3726467" lon="8.0673383"><ele>263.5</ele><time>2026-05-01T12:42:56.799Z</time></trkpt><trkpt lat="45.3727783" lon="8.0672783"><ele>264.0</ele><time>2026-05-01T12:42:57.799Z</time></trkpt><trkpt lat="45.3729" lon="8.0672183"><ele>264.0</ele><time>2026-05-01T12:42:58.798Z</time></trkpt><trkpt lat="45.37302" lon="8.0671617"><ele>264.0</ele><time>2026-05-01T12:42:59.799Z</time></trkpt><trkpt lat="45.3731417" lon="8.0670967"><ele>264.0</ele><time>2026-05-01T12:43:00.799Z</time></trkpt><trkpt lat="45.3732667" lon="8.067045"><ele>264.0</ele><time>2026-05-01T12:43:01.799Z</time></trkpt><trkpt lat="45.3733933" lon="8.0669883"><ele>264.0</ele><time>2026-05-01T12:43:02.799Z</time></trkpt><trkpt lat="45.3735183" lon="8.066925"><ele>264.0</ele><time>2026-05-01T12:43:03.799Z</time></trkpt><trkpt lat="45.3736367" lon="8.066865"><ele>264.0</ele><time>2026-05-01T12:43:04.799Z</time></trkpt><trkpt lat="45.3737467" lon="8.0668183"><ele>264.0</ele><time>2026-05-01T12:43:05.799Z</time></trkpt><trkpt lat="45.3738417" lon="8.06678"><ele>264.0</ele><time>2026-05-01T12:43:06.799Z</time></trkpt><trkpt lat="45.373925" lon="8.0667333"><ele>264.0</ele><time>2026-05-01T12:43:07.799Z</time></trkpt><trkpt lat="45.3740017" lon="8.0666683"><ele>264.0</ele><time>2026-05-01T12:43:08.799Z</time></trkpt><trkpt lat="45.37407" lon="8.066595"><ele>264.0</ele><time>2026-05-01T12:43:09.799Z</time></trkpt><trkpt lat="45.37413" lon="8.0665017"><ele>264.0</ele><time>2026-05-01T12:43:10.799Z</time></trkpt><trkpt lat="45.374185" lon="8.0663867"><ele>264.2</ele><time>2026-05-01T12:43:11.799Z</time></trkpt><trkpt lat="45.3742483" lon="8.066265"><ele>264.4</ele><time>2026-05-01T12:43:12.798Z</time></trkpt><trkpt lat="45.3743133" lon="8.06615"><ele>264.6</ele><time>2026-05-01T12:43:13.798Z</time></trkpt><trkpt lat="45.37438" lon="8.0660283"><ele>264.8</ele><time>2026-05-01T12:43:14.798Z</time></trkpt><trkpt lat="45.3744467" lon="8.06592"><ele>265.0</ele><time>2026-05-01T12:43:15.799Z</time></trkpt><trkpt lat="45.37452" lon="8.065815"><ele>265.6</ele><time>2026-05-01T12:43:16.799Z</time></trkpt><trkpt lat="45.3745917" lon="8.0657067"><ele>266.2</ele><time>2026-05-01T12:43:17.799Z</time></trkpt><trkpt lat="45.3746583" lon="8.065575"><ele>266.8</ele><time>2026-05-01T12:43:18.799Z</time></trkpt><trkpt lat="45.37473" lon="8.0654467"><ele>267.4</ele><time>2026-05-01T12:43:19.799Z</time></trkpt><trkpt lat="45.3747983" lon="8.0653233"><ele>268.0</ele><time>2026-05-01T12:43:20.799Z</time></trkpt><trkpt lat="45.3748617" lon="8.0651883"><ele>268.25</ele><time>2026-05-01T12:43:21.799Z</time></trkpt><trkpt lat="45.37494" lon="8.06504"><ele>268.5</ele><time>2026-05-01T12:43:22.799Z</time></trkpt><trkpt lat="45.3750167" lon="8.0648883"><ele>268.75</ele><time>2026-05-01T12:43:23.799Z</time></trkpt><trkpt lat="45.37508" lon="8.06474"><ele>269.0</ele><time>2026-05-01T12:43:24.799Z</time></trkpt><trkpt lat="45.3751467" lon="8.0645683"><ele>269.25</ele><time>2026-05-01T12:43:25.799Z</time></trkpt><trkpt lat="45.3752183" lon="8.0644067"><ele>269.5</ele><time>2026-05-01T12:43:26.799Z</time></trkpt><trkpt lat="45.3753" lon="8.0642467"><ele>269.75</ele><time>2026-05-01T12:43:27.799Z</time></trkpt><trkpt lat="45.3753733" lon="8.0640917"><ele>270.0</ele><time>2026-05-01T12:43:28.798Z</time></trkpt><trkpt lat="45.375445" lon="8.0639367"><ele>270.0</ele><time>2026-05-01T12:43:29.799Z</time></trkpt><trkpt lat="45.3755167" lon="8.0637883"><ele>270.0</ele><time>2026-05-01T12:43:30.799Z</time></trkpt><trkpt lat="45.3755967" lon="8.0636467"><ele>270.0</ele><time>2026-05-01T12:43:31.799Z</time></trkpt><trkpt lat="45.37568" lon="8.0634883"><ele>270.0</ele><time>2026-05-01T12:43:32.799Z</time></trkpt><trkpt lat="45.37576" lon="8.063335"><ele>270.75</ele><time>2026-05-01T12:43:33.799Z</time></trkpt><trkpt lat="45.3758383" lon="8.0631833"><ele>271.5</ele><time>2026-05-01T12:43:34.799Z</time></trkpt><trkpt lat="45.37592" lon="8.0630417"><ele>272.25</ele><time>2026-05-01T12:43:35.798Z</time></trkpt><trkpt lat="45.3760033" lon="8.0629033"><ele>273.0</ele><time>2026-05-01T12:43:36.799Z</time></trkpt><trkpt lat="45.3760833" lon="8.0627717"><ele>273.0</ele><time>2026-05-01T12:43:37.799Z</time></trkpt><trkpt lat="45.3761817" lon="8.06264"><ele>273.0</ele><time>2026-05-01T12:43:38.799Z</time></trkpt><trkpt lat="45.37629" lon="8.06252"><ele>273.0</ele><time>2026-05-01T12:43:39.799Z</time></trkpt><trkpt lat="45.376395" lon="8.0623967"><ele>273.0</ele><time>2026-05-01T12:43:40.799Z</time></trkpt><trkpt lat="45.37649" lon="8.0622783"><ele>273.5</ele><time>2026-05-01T12:43:41.799Z</time></trkpt><trkpt lat="45.376595" lon="8.0621467"><ele>274.0</ele><time>2026-05-01T12:43:42.799Z</time></trkpt><trkpt lat="45.3767117" lon="8.0620067"><ele>274.5</ele><time>2026-05-01T12:43:43.799Z</time></trkpt><trkpt lat="45.376815" lon="8.061855"><ele>275.0</ele><time>2026-05-01T12:43:44.799Z</time></trkpt><trkpt lat="45.3769133" lon="8.061695"><ele>275.25</ele><time>2026-05-01T12:43:45.799Z</time></trkpt><trkpt lat="45.3770067" lon="8.0615433"><ele>275.5</ele><time>2026-05-01T12:43:46.799Z</time></trkpt><trkpt lat="45.37711" lon="8.0613967"><ele>275.75</ele><time>2026-05-01T12:43:47.799Z</time></trkpt><trkpt lat="45.37721" lon="8.0612567"><ele>276.0</ele><time>2026-05-01T12:43:48.799Z</time></trkpt><trkpt lat="45.3773183" lon="8.0611267"><ele>276.0</ele><time>2026-05-01T12:43:49.798Z</time></trkpt><trkpt lat="45.3774183" lon="8.0609983"><ele>276.0</ele><time>2026-05-01T12:43:50.799Z</time></trkpt><trkpt lat="45.377525" lon="8.0608567"><ele>276.0</ele><time>2026-05-01T12:43:51.799Z</time></trkpt><trkpt lat="45.3776233" lon="8.06072"><ele>276.0</ele><time>2026-05-01T12:43:52.798Z</time></trkpt><trkpt lat="45.3777233" lon="8.0605833"><ele>276.5</ele><time>2026-05-01T12:43:53.799Z</time></trkpt><trkpt lat="45.377825" lon="8.0604483"><ele>277.0</ele><time>2026-05-01T12:43:54.799Z</time></trkpt><trkpt lat="45.37793" lon="8.06031"><ele>277.5</ele><time>2026-05-01T12:43:55.799Z</time></trkpt><trkpt lat="45.3780433" lon="8.06017"><ele>278.0</ele><time>2026-05-01T12:43:56.798Z</time></trkpt><trkpt lat="45.37814" lon="8.0600233"><ele>278.25</ele><time>2026-05-01T12:43:57.799Z</time></trkpt><trkpt lat="45.3782367" lon="8.0598817"><ele>278.5</ele><time>2026-05-01T12:43:58.799Z</time></trkpt><trkpt lat="45.3783533" lon="8.05973"><ele>278.75</ele><time>2026-05-01T12:43:59.799Z</time></trkpt><trkpt lat="45.3784433" lon="8.0595833"><ele>279.0</ele><time>2026-05-01T12:44:00.799Z</time></trkpt><trkpt lat="45.37853" lon="8.05942"><ele>279.0</ele><time>2026-05-01T12:44:01.799Z</time></trkpt><trkpt lat="45.3786183" lon="8.05926"><ele>279.0</ele><time>2026-05-01T12:44:02.799Z</time></trkpt><trkpt lat="45.3786883" lon="8.059095"><ele>279.0</ele><time>2026-05-01T12:44:03.799Z</time></trkpt><trkpt lat="45.3787583" lon="8.05893"><ele>279.0</ele><time>2026-05-01T12:44:04.799Z</time></trkpt><trkpt lat="45.3788017" lon="8.0587767"><ele>279.2</ele><time>2026-05-01T12:44:05.799Z</time></trkpt><trkpt lat="45.37885" lon="8.0586317"><ele>279.4</ele><time>2026-05-01T12:44:06.799Z</time></trkpt><trkpt lat="45.3788867" lon="8.0585067"><ele>279.6</ele><time>2026-05-01T12:44:07.799Z</time></trkpt><trkpt lat="45.37892" lon="8.0583867"><ele>279.8</ele><time>2026-05-01T12:44:08.799Z</time></trkpt><trkpt lat="45.3789533" lon="8.0582667"><ele>280.0</ele><time>2026-05-01T12:44:09.799Z</time></trkpt><trkpt lat="45.3789967" lon="8.0581533"><ele>281.0</ele><time>2026-05-01T12:44:10.799Z</time></trkpt><trkpt lat="45.379045" lon="8.0580517"><ele>282.0</ele><time>2026-05-01T12:44:11.799Z</time></trkpt><trkpt lat="45.3790883" lon="8.0579417"><ele>283.0</ele><time>2026-05-01T12:44:12.799Z</time></trkpt><trkpt lat="45.37913" lon="8.0578267"><ele>284.0</ele><time>2026-05-01T12:44:13.799Z</time></trkpt><trkpt lat="45.3791683" lon="8.0577183"><ele>285.0</ele><time>2026-05-01T12:44:14.799Z</time></trkpt><trkpt lat="45.3792" lon="8.0576183"><ele>286.0</ele><time>2026-05-01T12:44:15.799Z</time></trkpt><trkpt lat="45.37923" lon="8.0575267"><ele>286.6</ele><time>2026-05-01T12:44:16.799Z</time></trkpt><trkpt lat="45.3793017" lon="8.0573983"><ele>287.20000000000005</ele><time>2026-05-01T12:44:18.799Z</time></trkpt><trkpt lat="45.3793967" lon="8.0573333"><ele>287.79999999999995</ele><time>2026-05-01T12:44:20.799Z</time></trkpt><trkpt lat="45.3794583" lon="8.057305"><ele>288.4</ele><time>2026-05-01T12:44:22.799Z</time></trkpt><trkpt lat="45.379585" lon="8.0572483"><ele>289.0</ele><time>2026-05-01T12:44:52.799Z</time></trkpt><trkpt lat="45.3796883" lon="8.057215"><ele>289.3333333333333</ele><time>2026-05-01T12:44:53.799Z</time></trkpt><trkpt lat="45.3798267" lon="8.057195"><ele>289.6666666666667</ele><time>2026-05-01T12:44:54.799Z</time></trkpt><trkpt lat="45.3799967" lon="8.05718"><ele>290.0</ele><time>2026-05-01T12:44:55.799Z</time></trkpt><trkpt lat="45.3801533" lon="8.0571583"><ele>290.0</ele><time>2026-05-01T12:44:56.799Z</time></trkpt><trkpt lat="45.3802767" lon="8.05713"><ele>290.0</ele><time>2026-05-01T12:44:57.799Z</time></trkpt><trkpt lat="45.38036" lon="8.0571183"><ele>290.0</ele><time>2026-05-01T12:44:58.799Z</time></trkpt><trkpt lat="45.380445" lon="8.0570967"><ele>290.0</ele><time>2026-05-01T12:45:00.799Z</time></trkpt><trkpt lat="45.38054" lon="8.0570983"><ele>290.0</ele><time>2026-05-01T12:45:04.799Z</time></trkpt><trkpt lat="45.3806567" lon="8.0570717"><ele>290.75</ele><time>2026-05-01T12:45:06.799Z</time></trkpt><trkpt lat="45.3807633" lon="8.0570567"><ele>291.5</ele><time>2026-05-01T12:45:07.799Z</time></trkpt><trkpt lat="45.3808917" lon="8.0570533"><ele>292.25</ele><time>2026-05-01T12:45:08.799Z</time></trkpt><trkpt lat="45.3810467" lon="8.05706"><ele>293.0</ele><time>2026-05-01T12:45:09.799Z</time></trkpt><trkpt lat="45.3811917" lon="8.0570883"><ele>293.0</ele><time>2026-05-01T12:45:10.799Z</time></trkpt><trkpt lat="45.38132" lon="8.05712"><ele>293.0</ele><time>2026-05-01T12:45:11.799Z</time></trkpt><trkpt lat="45.3814483" lon="8.0571683"><ele>293.0</ele><time>2026-05-01T12:45:12.799Z</time></trkpt><trkpt lat="45.38158" lon="8.0572233"><ele>293.0</ele><time>2026-05-01T12:45:13.799Z</time></trkpt><trkpt lat="45.381695" lon="8.057285"><ele>293.25</ele><time>2026-05-01T12:45:14.799Z</time></trkpt><trkpt lat="45.3818217" lon="8.0573233"><ele>293.5</ele><time>2026-05-01T12:45:15.799Z</time></trkpt><trkpt lat="45.38197" lon="8.0573617"><ele>293.75</ele><time>2026-05-01T12:45:16.799Z</time></trkpt><trkpt lat="45.382135" lon="8.05739"><ele>294.0</ele><time>2026-05-01T12:45:17.799Z</time></trkpt><trkpt lat="45.3823117" lon="8.057405"><ele>292.5</ele><time>2026-05-01T12:45:18.799Z</time></trkpt><trkpt lat="45.38246" lon="8.0574183"><ele>291.0</ele><time>2026-05-01T12:45:19.799Z</time></trkpt><trkpt lat="45.382575" lon="8.0574333"><ele>289.5</ele><time>2026-05-01T12:45:20.799Z</time></trkpt><trkpt lat="45.3826783" lon="8.0574417"><ele>288.0</ele><time>2026-05-01T12:45:21.799Z</time></trkpt><trkpt lat="45.3827683" lon="8.0574567"><ele>287.8333333333333</ele><time>2026-05-01T12:45:22.799Z</time></trkpt><trkpt lat="45.38285" lon="8.0574767"><ele>287.6666666666667</ele><time>2026-05-01T12:45:23.799Z</time></trkpt><trkpt lat="45.3829267" lon="8.0575083"><ele>287.5</ele><time>2026-05-01T12:45:24.799Z</time></trkpt><trkpt lat="45.3830033" lon="8.0575383"><ele>287.33333333333337</ele><time>2026-05-01T12:45:25.799Z</time></trkpt><trkpt lat="45.3830783" lon="8.0575783"><ele>287.1666666666667</ele><time>2026-05-01T12:45:26.799Z</time></trkpt><trkpt lat="45.3831133" lon="8.0576717"><ele>287.0</ele><time>2026-05-01T12:45:29.799Z</time></trkpt><trkpt lat="45.3831" lon="8.0578383"><ele>287.0</ele><time>2026-05-01T12:45:31.799Z</time></trkpt><trkpt lat="45.3830783" lon="8.0579517"><ele>287.0</ele><time>2026-05-01T12:45:32.799Z</time></trkpt><trkpt lat="45.3830417" lon="8.0581017"><ele>287.0</ele><time>2026-05-01T12:45:33.799Z</time></trkpt><trkpt lat="45.3830017" lon="8.0582617"><ele>287.0</ele><time>2026-05-01T12:45:34.799Z</time></trkpt><trkpt lat="45.3829733" lon="8.0584117"><ele>287.0</ele><time>2026-05-01T12:45:35.799Z</time></trkpt><trkpt lat="45.3829433" lon="8.0585633"><ele>287.0</ele><time>2026-05-01T12:45:36.799Z</time></trkpt><trkpt lat="45.3829017" lon="8.0587267"><ele>287.0</ele><time>2026-05-01T12:45:37.799Z</time></trkpt><trkpt lat="45.3828633" lon="8.0588967"><ele>287.0</ele><time>2026-05-01T12:45:38.799Z</time></trkpt><trkpt lat="45.38282" lon="8.059075"><ele>287.0</ele><time>2026-05-01T12:45:39.799Z</time></trkpt><trkpt lat="45.3827667" lon="8.0592733"><ele>286.33333333333337</ele><time>2026-05-01T12:45:40.799Z</time></trkpt><trkpt lat="45.3827083" lon="8.059475"><ele>285.6666666666667</ele><time>2026-05-01T12:45:41.799Z</time></trkpt><trkpt lat="45.3826583" lon="8.059695"><ele>285.0</ele><time>2026-05-01T12:45:42.799Z</time></trkpt><trkpt lat="45.3826117" lon="8.0599283"><ele>285.0</ele><time>2026-05-01T12:45:43.798Z</time></trkpt><trkpt lat="45.3825683" lon="8.0601567"><ele>285.0</ele><time>2026-05-01T12:45:44.799Z</time></trkpt><trkpt lat="45.3825183" lon="8.0603767"><ele>285.0</ele><time>2026-05-01T12:45:45.799Z</time></trkpt><trkpt lat="45.3824633" lon="8.0605983"><ele>285.0</ele><time>2026-05-01T12:45:46.799Z</time></trkpt><trkpt lat="45.3824133" lon="8.060835"><ele>285.0</ele><time>2026-05-01T12:45:47.799Z</time></trkpt><trkpt lat="45.382365" lon="8.0610717"><ele>285.0</ele><time>2026-05-01T12:45:48.799Z</time></trkpt><trkpt lat="45.3823067" lon="8.0613183"><ele>285.0</ele><time>2026-05-01T12:45:49.799Z</time></trkpt><trkpt lat="45.38225" lon="8.06156"><ele>285.0</ele><time>2026-05-01T12:45:50.799Z</time></trkpt><trkpt lat="45.3821933" lon="8.0617983"><ele>285.0</ele><time>2026-05-01T12:45:51.799Z</time></trkpt><trkpt lat="45.3821467" lon="8.06204"><ele>284.3333333333333</ele><time>2026-05-01T12:45:52.799Z</time></trkpt><trkpt lat="45.3820933" lon="8.0622783"><ele>283.66666666666663</ele><time>2026-05-01T12:45:53.799Z</time></trkpt><trkpt lat="45.3820333" lon="8.0625217"><ele>283.0</ele><time>2026-05-01T12:45:54.799Z</time></trkpt><trkpt lat="45.3819767" lon="8.0627783"><ele>282.66666666666663</ele><time>2026-05-01T12:45:55.799Z</time></trkpt><trkpt lat="45.38192" lon="8.0630417"><ele>282.3333333333333</ele><time>2026-05-01T12:45:56.799Z</time></trkpt><trkpt lat="45.381865" lon="8.0633167"><ele>282.0</ele><time>2026-05-01T12:45:57.799Z</time></trkpt><trkpt lat="45.3818067" lon="8.0635817"><ele>282.0</ele><time>2026-05-01T12:45:58.799Z</time></trkpt><trkpt lat="45.3817467" lon="8.063845"><ele>282.0</ele><time>2026-05-01T12:45:59.799Z</time></trkpt><trkpt lat="45.38169" lon="8.0641333"><ele>282.0</ele><time>2026-05-01T12:46:00.799Z</time></trkpt><trkpt lat="45.3816317" lon="8.064415"><ele>281.6666666666667</ele><time>2026-05-01T12:46:01.799Z</time></trkpt><trkpt lat="45.381575" lon="8.0647"><ele>281.33333333333337</ele><time>2026-05-01T12:46:02.799Z</time></trkpt><trkpt lat="45.3815183" lon="8.0649833"><ele>281.0</ele><time>2026-05-01T12:46:03.798Z</time></trkpt><trkpt lat="45.3814633" lon="8.0652317"><ele>280.6666666666667</ele><time>2026-05-01T12:46:04.799Z</time></trkpt><trkpt lat="45.3814083" lon="8.0654583"><ele>280.3333333333333</ele><time>2026-05-01T12:46:05.799Z</time></trkpt><trkpt lat="45.381365" lon="8.065665"><ele>280.0</ele><time>2026-05-01T12:46:06.799Z</time></trkpt><trkpt lat="45.381325" lon="8.0658617"><ele>278.66666666666663</ele><time>2026-05-01T12:46:07.798Z</time></trkpt><trkpt lat="45.38128" lon="8.0660583"><ele>277.3333333333333</ele><time>2026-05-01T12:46:08.799Z</time></trkpt><trkpt lat="45.3812317" lon="8.0662733"><ele>276.0</ele><time>2026-05-01T12:46:09.799Z</time></trkpt><trkpt lat="45.3811867" lon="8.0664783"><ele>276.0</ele><time>2026-05-01T12:46:10.799Z</time></trkpt><trkpt lat="45.3811467" lon="8.0666767"><ele>276.0</ele><time>2026-05-01T12:46:11.798Z</time></trkpt><trkpt lat="45.381115" lon="8.0668367"><ele>276.0</ele><time>2026-05-01T12:46:12.799Z</time></trkpt><trkpt lat="45.3810883" lon="8.066965"><ele>276.0</ele><time>2026-05-01T12:46:13.799Z</time></trkpt><trkpt lat="45.3810583" lon="8.0671"><ele>276.0</ele><time>2026-05-01T12:46:15.799Z</time></trkpt><trkpt lat="45.3810933" lon="8.0672033"><ele>276.0</ele><time>2026-05-01T12:46:18.799Z</time></trkpt><trkpt lat="45.3812133" lon="8.0672933"><ele>276.0</ele><time>2026-05-01T12:46:20.799Z</time></trkpt><trkpt lat="45.38132" lon="8.06735"><ele>276.0</ele><time>2026-05-01T12:46:21.799Z</time></trkpt><trkpt lat="45.38145" lon="8.0674167"><ele>276.0</ele><time>2026-05-01T12:46:22.799Z</time></trkpt><trkpt lat="45.3815967" lon="8.06747"><ele>276.0</ele><time>2026-05-01T12:46:23.799Z</time></trkpt><trkpt lat="45.3817333" lon="8.0675217"><ele>276.0</ele><time>2026-05-01T12:46:24.799Z</time></trkpt><trkpt lat="45.381865" lon="8.0675583"><ele>276.0</ele><time>2026-05-01T12:46:25.799Z</time></trkpt><trkpt lat="45.3819783" lon="8.0675917"><ele>276.0</ele><time>2026-05-01T12:46:26.798Z</time></trkpt><trkpt lat="45.3820883" lon="8.0676283"><ele>276.0</ele><time>2026-05-01T12:46:27.799Z</time></trkpt><trkpt lat="45.3821867" lon="8.0676833"><ele>276.0</ele><time>2026-05-01T12:46:28.799Z</time></trkpt><trkpt lat="45.3822733" lon="8.0677567"><ele>276.0</ele><time>2026-05-01T12:46:29.799Z</time></trkpt><trkpt lat="45.3823483" lon="8.06787"><ele>276.0</ele><time>2026-05-01T12:46:30.799Z</time></trkpt><trkpt lat="45.3824167" lon="8.0680183"><ele>276.0</ele><time>2026-05-01T12:46:31.799Z</time></trkpt><trkpt lat="45.38249" lon="8.0681783"><ele>276.0</ele><time>2026-05-01T12:46:32.799Z</time></trkpt><trkpt lat="45.38255" lon="8.06831"><ele>276.0</ele><time>2026-05-01T12:46:33.799Z</time></trkpt><trkpt lat="45.3826" lon="8.06842"><ele>276.0</ele><time>2026-05-01T12:46:34.798Z</time></trkpt><trkpt lat="45.382645" lon="8.06849"><ele>276.0</ele><time>2026-05-01T12:46:35.797Z</time></trkpt><trkpt lat="45.3826883" lon="8.0685733"><ele>275.8</ele><time>2026-05-01T12:46:37.798Z</time></trkpt><trkpt lat="45.38276" lon="8.0686317"><ele>275.6</ele><time>2026-05-01T12:46:44.798Z</time></trkpt><trkpt lat="45.382875" lon="8.0685217"><ele>275.4</ele><time>2026-05-01T12:46:46.798Z</time></trkpt><trkpt lat="45.3829567" lon="8.0684383"><ele>275.2</ele><time>2026-05-01T12:46:47.797Z</time></trkpt><trkpt lat="45.38304" lon="8.0683467"><ele>275.0</ele><time>2026-05-01T12:46:48.798Z</time></trkpt><trkpt lat="45.38314" lon="8.0682617"><ele>276.25</ele><time>2026-05-01T12:46:49.798Z</time></trkpt><trkpt lat="45.383235" lon="8.0681767"><ele>277.5</ele><time>2026-05-01T12:46:50.798Z</time></trkpt><trkpt lat="45.383335" lon="8.0680817"><ele>278.75</ele><time>2026-05-01T12:46:51.798Z</time></trkpt><trkpt lat="45.38345" lon="8.06799"><ele>280.0</ele><time>2026-05-01T12:46:52.798Z</time></trkpt><trkpt lat="45.3835683" lon="8.067895"><ele>280.0</ele><time>2026-05-01T12:46:53.798Z</time></trkpt><trkpt lat="45.38368" lon="8.0677917"><ele>280.0</ele><time>2026-05-01T12:46:54.798Z</time></trkpt><trkpt lat="45.3838083" lon="8.0676917"><ele>280.0</ele><time>2026-05-01T12:46:55.798Z</time></trkpt><trkpt lat="45.3839367" lon="8.0675883"><ele>280.0</ele><time>2026-05-01T12:46:56.798Z</time></trkpt><trkpt lat="45.3840567" lon="8.06748"><ele>279.66666666666663</ele><time>2026-05-01T12:46:57.798Z</time></trkpt><trkpt lat="45.3841867" lon="8.06737"><ele>279.3333333333333</ele><time>2026-05-01T12:46:58.798Z</time></trkpt><trkpt lat="45.3843183" lon="8.0672617"><ele>279.0</ele><time>2026-05-01T12:46:59.798Z</time></trkpt><trkpt lat="45.38446" lon="8.067155"><ele>279.0</ele><time>2026-05-01T12:47:00.798Z</time></trkpt><trkpt lat="45.3845983" lon="8.0670433"><ele>279.0</ele><time>2026-05-01T12:47:01.797Z</time></trkpt><trkpt lat="45.3847283" lon="8.0669333"><ele>279.0</ele><time>2026-05-01T12:47:02.798Z</time></trkpt><trkpt lat="45.3848517" lon="8.0668117"><ele>280.3333333333333</ele><time>2026-05-01T12:47:03.798Z</time></trkpt><trkpt lat="45.3849833" lon="8.0666933"><ele>281.66666666666663</ele><time>2026-05-01T12:47:04.798Z</time></trkpt><trkpt lat="45.3851217" lon="8.066585"><ele>283.0</ele><time>2026-05-01T12:47:05.798Z</time></trkpt><trkpt lat="45.3852683" lon="8.0664783"><ele>283.0</ele><time>2026-05-01T12:47:06.798Z</time></trkpt><trkpt lat="45.3854083" lon="8.0663583"><ele>283.0</ele><time>2026-05-01T12:47:07.798Z</time></trkpt><trkpt lat="45.3855433" lon="8.0662467"><ele>283.0</ele><time>2026-05-01T12:47:08.798Z</time></trkpt><trkpt lat="45.3856817" lon="8.0661317"><ele>284.0</ele><time>2026-05-01T12:47:09.798Z</time></trkpt><trkpt lat="45.3858233" lon="8.066015"><ele>285.0</ele><time>2026-05-01T12:47:10.798Z</time></trkpt><trkpt lat="45.3859617" lon="8.0659"><ele>286.0</ele><time>2026-05-01T12:47:11.798Z</time></trkpt><trkpt lat="45.3860967" lon="8.06579"><ele>287.0</ele><time>2026-05-01T12:47:12.798Z</time></trkpt><trkpt lat="45.3862267" lon="8.065675"><ele>288.0</ele><time>2026-05-01T12:47:13.798Z</time></trkpt><trkpt lat="45.38635" lon="8.0655667"><ele>289.0</ele><time>2026-05-01T12:47:14.798Z</time></trkpt><trkpt lat="45.38647" lon="8.0654983"><ele>290.0</ele><time>2026-05-01T12:47:15.798Z</time></trkpt><trkpt lat="45.386585" lon="8.0654533"><ele>290.25</ele><time>2026-05-01T12:47:16.798Z</time></trkpt><trkpt lat="45.3867183" lon="8.065445"><ele>290.5</ele><time>2026-05-01T12:47:17.798Z</time></trkpt><trkpt lat="45.3868683" lon="8.0654733"><ele>290.75</ele><time>2026-05-01T12:47:18.798Z</time></trkpt><trkpt lat="45.38702" lon="8.0655017"><ele>291.0</ele><time>2026-05-01T12:47:19.797Z</time></trkpt><trkpt lat="45.3871833" lon="8.065535"><ele>291.5</ele><time>2026-05-01T12:47:20.798Z</time></trkpt><trkpt lat="45.3873233" lon="8.06554"><ele>292.0</ele><time>2026-05-01T12:47:21.798Z</time></trkpt><trkpt lat="45.3874617" lon="8.0655217"><ele>292.5</ele><time>2026-05-01T12:47:22.798Z</time></trkpt><trkpt lat="45.387615" lon="8.06546"><ele>293.0</ele><time>2026-05-01T12:47:23.798Z</time></trkpt><trkpt lat="45.387755" lon="8.0653683"><ele>293.0</ele><time>2026-05-01T12:47:24.798Z</time></trkpt><trkpt lat="45.3879033" lon="8.0652433"><ele>293.0</ele><time>2026-05-01T12:47:25.798Z</time></trkpt><trkpt lat="45.3880383" lon="8.0650883"><ele>293.0</ele><time>2026-05-01T12:47:26.798Z</time></trkpt><trkpt lat="45.3881733" lon="8.0649267"><ele>294.33333333333337</ele><time>2026-05-01T12:47:27.798Z</time></trkpt><trkpt lat="45.3883133" lon="8.06479"><ele>295.6666666666667</ele><time>2026-05-01T12:47:28.798Z</time></trkpt><trkpt lat="45.3884567" lon="8.0646667"><ele>297.0</ele><time>2026-05-01T12:47:29.798Z</time></trkpt><trkpt lat="45.388605" lon="8.0645533"><ele>297.0</ele><time>2026-05-01T12:47:30.798Z</time></trkpt><trkpt lat="45.3887533" lon="8.0644667"><ele>297.0</ele><time>2026-05-01T12:47:31.798Z</time></trkpt><trkpt lat="45.3889183" lon="8.06437"><ele>297.0</ele><time>2026-05-01T12:47:32.798Z</time></trkpt><trkpt lat="45.38908" lon="8.0642783"><ele>297.6666666666667</ele><time>2026-05-01T12:47:33.798Z</time></trkpt><trkpt lat="45.3892267" lon="8.0641767"><ele>298.33333333333337</ele><time>2026-05-01T12:47:34.798Z</time></trkpt><trkpt lat="45.38936" lon="8.0640683"><ele>299.0</ele><time>2026-05-01T12:47:35.798Z</time></trkpt><trkpt lat="45.3895017" lon="8.0639733"><ele>299.0</ele><time>2026-05-01T12:47:36.798Z</time></trkpt><trkpt lat="45.3896383" lon="8.0638717"><ele>299.0</ele><time>2026-05-01T12:47:37.797Z</time></trkpt><trkpt lat="45.3897667" lon="8.063785"><ele>299.0</ele><time>2026-05-01T12:47:38.798Z</time></trkpt><trkpt lat="45.3899017" lon="8.0637033"><ele>299.0</ele><time>2026-05-01T12:47:39.798Z</time></trkpt><trkpt lat="45.3900217" lon="8.063615"><ele>298.5</ele><time>2026-05-01T12:47:40.798Z</time></trkpt><trkpt lat="45.3901333" lon="8.063555"><ele>298.0</ele><time>2026-05-01T12:47:41.798Z</time></trkpt><trkpt lat="45.39024" lon="8.0635283"><ele>297.5</ele><time>2026-05-01T12:47:42.798Z</time></trkpt><trkpt lat="45.3903267" lon="8.06353"><ele>297.0</ele><time>2026-05-01T12:47:43.798Z</time></trkpt><trkpt lat="45.3903933" lon="8.0635433"><ele>296.5</ele><time>2026-05-01T12:47:44.798Z</time></trkpt><trkpt lat="45.3904383" lon="8.0636083"><ele>296.0</ele><time>2026-05-01T12:47:46.798Z</time></trkpt><trkpt lat="45.390405" lon="8.0636933"><ele>296.0</ele><time>2026-05-01T12:47:48.798Z</time></trkpt><trkpt lat="45.3903883" lon="8.0638133"><ele>296.0</ele><time>2026-05-01T12:47:50.798Z</time></trkpt><trkpt lat="45.3903967" lon="8.063985"><ele>296.0</ele><time>2026-05-01T12:47:52.798Z</time></trkpt><trkpt lat="45.3904183" lon="8.064075"><ele>296.0</ele><time>2026-05-01T12:47:53.798Z</time></trkpt><trkpt lat="45.39049" lon="8.0642083"><ele>296.0</ele><time>2026-05-01T12:47:55.798Z</time></trkpt><trkpt lat="45.3905983" lon="8.0642733"><ele>297.0</ele><time>2026-05-01T12:47:57.798Z</time></trkpt><trkpt lat="45.390655" lon="8.0643133"><ele>298.0</ele><time>2026-05-01T12:47:58.797Z</time></trkpt><trkpt lat="45.3907283" lon="8.064375"><ele>299.0</ele><time>2026-05-01T12:48:00.798Z</time></trkpt><trkpt lat="45.3907717" lon="8.064505"><ele>300.0</ele><time>2026-05-01T12:48:02.798Z</time></trkpt><trkpt lat="45.3908267" lon="8.0646667"><ele>301.0</ele><time>2026-05-01T12:48:04.798Z</time></trkpt><trkpt lat="45.3908617" lon="8.0647717"><ele>301.0</ele><time>2026-05-01T12:48:05.798Z</time></trkpt><trkpt lat="45.3909083" lon="8.064885"><ele>301.0</ele><time>2026-05-01T12:48:06.798Z</time></trkpt><trkpt lat="45.39098" lon="8.065"><ele>301.0</ele><time>2026-05-01T12:48:07.798Z</time></trkpt><trkpt lat="45.3910633" lon="8.0651417"><ele>301.0</ele><time>2026-05-01T12:48:08.798Z</time></trkpt><trkpt lat="45.391135" lon="8.0652717"><ele>301.0</ele><time>2026-05-01T12:48:09.798Z</time></trkpt><trkpt lat="45.3912033" lon="8.0654117"><ele>300.8</ele><time>2026-05-01T12:48:10.798Z</time></trkpt><trkpt lat="45.391265" lon="8.0655467"><ele>300.6</ele><time>2026-05-01T12:48:11.798Z</time></trkpt><trkpt lat="45.3913233" lon="8.0656633"><ele>300.4</ele><time>2026-05-01T12:48:12.798Z</time></trkpt><trkpt lat="45.3913767" lon="8.06576"><ele>300.2</ele><time>2026-05-01T12:48:13.798Z</time></trkpt><trkpt lat="45.3914167" lon="8.0658567"><ele>300.0</ele><time>2026-05-01T12:48:14.798Z</time></trkpt><trkpt lat="45.3914467" lon="8.0659633"><ele>299.8333333333333</ele><time>2026-05-01T12:48:15.798Z</time></trkpt><trkpt lat="45.3914633" lon="8.06607"><ele>299.6666666666667</ele><time>2026-05-01T12:48:16.798Z</time></trkpt><trkpt lat="45.391475" lon="8.066185"><ele>299.5</ele><time>2026-05-01T12:48:17.798Z</time></trkpt><trkpt lat="45.391485" lon="8.0663067"><ele>299.33333333333337</ele><time>2026-05-01T12:48:18.798Z</time></trkpt><trkpt lat="45.3914917" lon="8.0664433"><ele>299.1666666666667</ele><time>2026-05-01T12:48:19.798Z</time></trkpt><trkpt lat="45.3915" lon="8.0665867"><ele>299.0</ele><time>2026-05-01T12:48:20.798Z</time></trkpt><trkpt lat="45.3915133" lon="8.0667283"><ele>298.4</ele><time>2026-05-01T12:48:21.798Z</time></trkpt><trkpt lat="45.3915267" lon="8.066845"><ele>297.79999999999995</ele><time>2026-05-01T12:48:22.798Z</time></trkpt><trkpt lat="45.3915383" lon="8.0669717"><ele>297.20000000000005</ele><time>2026-05-01T12:48:23.798Z</time></trkpt><trkpt lat="45.3915467" lon="8.067115"><ele>296.6</ele><time>2026-05-01T12:48:24.798Z</time></trkpt><trkpt lat="45.3915417" lon="8.06727"><ele>296.0</ele><time>2026-05-01T12:48:25.798Z</time></trkpt><trkpt lat="45.3915267" lon="8.0674283"><ele>295.25</ele><time>2026-05-01T12:48:26.798Z</time></trkpt><trkpt lat="45.391505" lon="8.06759"><ele>294.5</ele><time>2026-05-01T12:48:27.798Z</time></trkpt><trkpt lat="45.3914717" lon="8.0677533"><ele>293.75</ele><time>2026-05-01T12:48:28.798Z</time></trkpt><trkpt lat="45.391435" lon="8.0679167"><ele>293.0</ele><time>2026-05-01T12:48:29.798Z</time></trkpt><trkpt lat="45.3913933" lon="8.068085"><ele>293.0</ele><time>2026-05-01T12:48:30.797Z</time></trkpt><trkpt lat="45.39135" lon="8.06826"><ele>293.0</ele><time>2026-05-01T12:48:31.798Z</time></trkpt><trkpt lat="45.3913117" lon="8.0684233"><ele>293.0</ele><time>2026-05-01T12:48:32.798Z</time></trkpt><trkpt lat="45.3912833" lon="8.0685883"><ele>293.0</ele><time>2026-05-01T12:48:33.797Z</time></trkpt><trkpt lat="45.3912533" lon="8.06876"><ele>293.2</ele><time>2026-05-01T12:48:34.798Z</time></trkpt><trkpt lat="45.3912283" lon="8.0689267"><ele>293.4</ele><time>2026-05-01T12:48:35.798Z</time></trkpt><trkpt lat="45.391205" lon="8.0690883"><ele>293.59999999999997</ele><time>2026-05-01T12:48:36.798Z</time></trkpt><trkpt lat="45.3911883" lon="8.069225"><ele>293.8</ele><time>2026-05-01T12:48:37.798Z</time></trkpt><trkpt lat="45.3911683" lon="8.069365"><ele>294.0</ele><time>2026-05-01T12:48:38.798Z</time></trkpt><trkpt lat="45.39115" lon="8.0694817"><ele>294.0</ele><time>2026-05-01T12:48:39.798Z</time></trkpt><trkpt lat="45.39113" lon="8.06958"><ele>294.0</ele><time>2026-05-01T12:48:40.798Z</time></trkpt><trkpt lat="45.3911083" lon="8.0696683"><ele>294.0</ele><time>2026-05-01T12:48:41.798Z</time></trkpt><trkpt lat="45.3911083" lon="8.069775"><ele>294.0</ele><time>2026-05-01T12:48:43.798Z</time></trkpt><trkpt lat="45.3911567" lon="8.06987"><ele>294.0</ele><time>2026-05-01T12:48:45.798Z</time></trkpt><trkpt lat="45.3912633" lon="8.0699617"><ele>294.0</ele><time>2026-05-01T12:48:47.798Z</time></trkpt><trkpt lat="45.3913433" lon="8.0700117"><ele>292.0</ele><time>2026-05-01T12:48:48.798Z</time></trkpt><trkpt lat="45.39145" lon="8.0700767"><ele>290.0</ele><time>2026-05-01T12:48:49.798Z</time></trkpt><trkpt lat="45.3915533" lon="8.0701417"><ele>288.0</ele><time>2026-05-01T12:48:50.798Z</time></trkpt><trkpt lat="45.391645" lon="8.0701917"><ele>286.0</ele><time>2026-05-01T12:48:51.798Z</time></trkpt><trkpt lat="45.391735" lon="8.0702467"><ele>284.0</ele><time>2026-05-01T12:48:52.798Z</time></trkpt><trkpt lat="45.3918233" lon="8.070325"><ele>284.0</ele><time>2026-05-01T12:48:53.798Z</time></trkpt><trkpt lat="45.391905" lon="8.07041"><ele>284.0</ele><time>2026-05-01T12:48:54.798Z</time></trkpt><trkpt lat="45.3919817" lon="8.0704933"><ele>284.0</ele><time>2026-05-01T12:48:55.798Z</time></trkpt><trkpt lat="45.392035" lon="8.0705833"><ele>284.0</ele><time>2026-05-01T12:48:56.798Z</time></trkpt><trkpt lat="45.3920717" lon="8.0706767"><ele>284.0</ele><time>2026-05-01T12:48:57.798Z</time></trkpt><trkpt lat="45.3920883" lon="8.070775"><ele>284.0</ele><time>2026-05-01T12:48:58.798Z</time></trkpt><trkpt lat="45.39209" lon="8.070875"><ele>283.8</ele><time>2026-05-01T12:48:59.798Z</time></trkpt><trkpt lat="45.39209" lon="8.0710267"><ele>283.59999999999997</ele><time>2026-05-01T12:49:01.798Z</time></trkpt><trkpt lat="45.3921517" lon="8.07108"><ele>283.4</ele><time>2026-05-01T12:49:04.798Z</time></trkpt><trkpt lat="45.3922433" lon="8.0711167"><ele>283.2</ele><time>2026-05-01T12:49:26.798Z</time></trkpt><trkpt lat="45.392325" lon="8.0711517"><ele>283.0</ele><time>2026-05-01T12:49:27.798Z</time></trkpt><trkpt lat="45.39242" lon="8.071195"><ele>283.0</ele><time>2026-05-01T12:49:28.798Z</time></trkpt><trkpt lat="45.392525" lon="8.0712433"><ele>283.0</ele><time>2026-05-01T12:49:29.798Z</time></trkpt><trkpt lat="45.3926317" lon="8.071295"><ele>283.0</ele><time>2026-05-01T12:49:30.798Z</time></trkpt><trkpt lat="45.3927417" lon="8.0713417"><ele>283.0</ele><time>2026-05-01T12:49:31.798Z</time></trkpt><trkpt lat="45.3928633" lon="8.0713933"><ele>283.0</ele><time>2026-05-01T12:49:32.798Z</time></trkpt><trkpt lat="45.392995" lon="8.0714483"><ele>283.0</ele><time>2026-05-01T12:49:33.798Z</time></trkpt><trkpt lat="45.3931233" lon="8.0715033"><ele>283.0</ele><time>2026-05-01T12:49:34.798Z</time></trkpt><trkpt lat="45.3932533" lon="8.0715583"><ele>283.0</ele><time>2026-05-01T12:49:35.798Z</time></trkpt><trkpt lat="45.3933717" lon="8.0716083"><ele>283.0</ele><time>2026-05-01T12:49:36.797Z</time></trkpt><trkpt lat="45.3934783" lon="8.0716417"><ele>283.0</ele><time>2026-05-01T12:49:37.798Z</time></trkpt><trkpt lat="45.3935667" lon="8.0716617"><ele>283.0</ele><time>2026-05-01T12:49:38.798Z</time></trkpt><trkpt lat="45.3936533" lon="8.0716533"><ele>283.0</ele><time>2026-05-01T12:49:39.798Z</time></trkpt><trkpt lat="45.3937433" lon="8.0716467"><ele>283.0</ele><time>2026-05-01T12:49:40.798Z</time></trkpt><trkpt lat="45.3938267" lon="8.0716317"><ele>284.0</ele><time>2026-05-01T12:49:41.798Z</time></trkpt><trkpt lat="45.39392" lon="8.0716433"><ele>285.0</ele><time>2026-05-01T12:49:42.798Z</time></trkpt><trkpt lat="45.3940233" lon="8.0716683"><ele>286.0</ele><time>2026-05-01T12:49:43.798Z</time></trkpt><trkpt lat="45.3941183" lon="8.0716933"><ele>287.0</ele><time>2026-05-01T12:49:44.798Z</time></trkpt><trkpt lat="45.39421" lon="8.0717217"><ele>288.0</ele><time>2026-05-01T12:49:45.798Z</time></trkpt><trkpt lat="45.3942967" lon="8.071775"><ele>288.0</ele><time>2026-05-01T12:49:46.798Z</time></trkpt><trkpt lat="45.3943767" lon="8.0718267"><ele>288.0</ele><time>2026-05-01T12:49:47.798Z</time></trkpt><trkpt lat="45.3944633" lon="8.07185"><ele>288.0</ele><time>2026-05-01T12:49:48.798Z</time></trkpt><trkpt lat="45.3945617" lon="8.0718567"><ele>288.0</ele><time>2026-05-01T12:49:49.798Z</time></trkpt><trkpt lat="45.39466" lon="8.071855"><ele>288.0</ele><time>2026-05-01T12:49:50.798Z</time></trkpt><trkpt lat="45.3947533" lon="8.071835"><ele>288.6</ele><time>2026-05-01T12:49:51.798Z</time></trkpt><trkpt lat="45.39485" lon="8.071825"><ele>289.20000000000005</ele><time>2026-05-01T12:49:52.798Z</time></trkpt><trkpt lat="45.3949467" lon="8.0718233"><ele>289.8</ele><time>2026-05-01T12:49:53.798Z</time></trkpt><trkpt lat="45.395045" lon="8.0718433"><ele>290.40000000000003</ele><time>2026-05-01T12:49:54.798Z</time></trkpt><trkpt lat="45.3951317" lon="8.071905"><ele>291.0</ele><time>2026-05-01T12:49:55.798Z</time></trkpt><trkpt lat="45.3951983" lon="8.07197"><ele>291.0</ele><time>2026-05-01T12:49:56.798Z</time></trkpt><trkpt lat="45.3952617" lon="8.0720133"><ele>291.0</ele><time>2026-05-01T12:49:57.798Z</time></trkpt><trkpt lat="45.39534" lon="8.071975"><ele>291.0</ele><time>2026-05-01T12:49:59.798Z</time></trkpt><trkpt lat="45.3954083" lon="8.0718567"><ele>291.0</ele><time>2026-05-01T12:50:01.798Z</time></trkpt><trkpt lat="45.3954383" lon="8.0717267"><ele>291.0</ele><time>2026-05-01T12:50:02.798Z</time></trkpt><trkpt lat="45.3954567" lon="8.071525"><ele>293.75</ele><time>2026-05-01T12:50:03.798Z</time></trkpt><trkpt lat="45.3954783" lon="8.0713083"><ele>296.5</ele><time>2026-05-01T12:50:04.798Z</time></trkpt><trkpt lat="45.39551" lon="8.07113"><ele>299.25</ele><time>2026-05-01T12:50:05.798Z</time></trkpt><trkpt lat="45.3955483" lon="8.070985"><ele>302.0</ele><time>2026-05-01T12:50:06.798Z</time></trkpt><trkpt lat="45.3955867" lon="8.070875"><ele>302.0</ele><time>2026-05-01T12:50:07.798Z</time></trkpt><trkpt lat="45.3956333" lon="8.0707967"><ele>302.0</ele><time>2026-05-01T12:50:08.798Z</time></trkpt><trkpt lat="45.3956933" lon="8.0707267"><ele>302.0</ele><time>2026-05-01T12:50:09.798Z</time></trkpt><trkpt lat="45.3957733" lon="8.0706333"><ele>302.0</ele><time>2026-05-01T12:50:10.798Z</time></trkpt><trkpt lat="45.395855" lon="8.0705433"><ele>302.0</ele><time>2026-05-01T12:50:11.798Z</time></trkpt><trkpt lat="45.3959433" lon="8.0704667"><ele>302.4</ele><time>2026-05-01T12:50:12.798Z</time></trkpt><trkpt lat="45.3960133" lon="8.0704233"><ele>302.79999999999995</ele><time>2026-05-01T12:50:13.798Z</time></trkpt><trkpt lat="45.3960833" lon="8.0703883"><ele>303.2</ele><time>2026-05-01T12:50:14.798Z</time></trkpt><trkpt lat="45.3961633" lon="8.0703583"><ele>303.59999999999997</ele><time>2026-05-01T12:50:15.798Z</time></trkpt><trkpt lat="45.3962617" lon="8.0703417"><ele>304.0</ele><time>2026-05-01T12:50:16.798Z</time></trkpt><trkpt lat="45.396385" lon="8.070345"><ele>304.25</ele><time>2026-05-01T12:50:17.798Z</time></trkpt><trkpt lat="45.3965383" lon="8.07034"><ele>304.5</ele><time>2026-05-01T12:50:18.798Z</time></trkpt><trkpt lat="45.39669" lon="8.0703267"><ele>304.75</ele><time>2026-05-01T12:50:19.798Z</time></trkpt><trkpt lat="45.3968167" lon="8.0703033"><ele>305.0</ele><time>2026-05-01T12:50:20.798Z</time></trkpt><trkpt lat="45.3969233" lon="8.070285"><ele>305.0</ele><time>2026-05-01T12:50:21.797Z</time></trkpt><trkpt lat="45.3970283" lon="8.07027"><ele>305.0</ele><time>2026-05-01T12:50:22.798Z</time></trkpt><trkpt lat="45.397095" lon="8.070245"><ele>305.0</ele><time>2026-05-01T12:50:23.798Z</time></trkpt><trkpt lat="45.39716" lon="8.0702167"><ele>305.0</ele><time>2026-05-01T12:50:25.798Z</time></trkpt><trkpt lat="45.397245" lon="8.070185"><ele>305.0</ele><time>2026-05-01T12:50:28.798Z</time></trkpt><trkpt lat="45.39731" lon="8.07013"><ele>305.0</ele><time>2026-05-01T12:50:30.798Z</time></trkpt><trkpt lat="45.3973733" lon="8.0700867"><ele>306.2</ele><time>2026-05-01T12:50:32.798Z</time></trkpt><trkpt lat="45.3974417" lon="8.0700367"><ele>307.4</ele><time>2026-05-01T12:50:34.798Z</time></trkpt><trkpt lat="45.3975083" lon="8.0699867"><ele>308.6</ele><time>2026-05-01T12:50:36.798Z</time></trkpt><trkpt lat="45.39758" lon="8.069955"><ele>309.8</ele><time>2026-05-01T12:50:39.798Z</time></trkpt><trkpt lat="45.3976683" lon="8.0699033"><ele>311.0</ele><time>2026-05-01T12:50:42.798Z</time></trkpt><trkpt lat="45.397795" lon="8.0698267"><ele>311.1666666666667</ele><time>2026-05-01T12:50:44.798Z</time></trkpt><trkpt lat="45.3978833" lon="8.0697817"><ele>311.33333333333337</ele><time>2026-05-01T12:50:45.798Z</time></trkpt><trkpt lat="45.397965" lon="8.0697417"><ele>311.5</ele><time>2026-05-01T12:50:46.798Z</time></trkpt><trkpt lat="45.398045" lon="8.06971"><ele>311.6666666666667</ele><time>2026-05-01T12:50:47.798Z</time></trkpt><trkpt lat="45.3981183" lon="8.0696733"><ele>311.8333333333333</ele><time>2026-05-01T12:50:48.798Z</time></trkpt><trkpt lat="45.39819" lon="8.0696417"><ele>312.0</ele><time>2026-05-01T12:50:49.798Z</time></trkpt><trkpt lat="45.3982683" lon="8.0696067"><ele>312.0</ele><time>2026-05-01T12:50:50.797Z</time></trkpt><trkpt lat="45.3983517" lon="8.0695817"><ele>312.0</ele><time>2026-05-01T12:50:51.798Z</time></trkpt><trkpt lat="45.3984333" lon="8.06954"><ele>312.0</ele><time>2026-05-01T12:50:52.798Z</time></trkpt><trkpt lat="45.398515" lon="8.0694717"><ele>312.0</ele><time>2026-05-01T12:50:53.798Z</time></trkpt><trkpt lat="45.3985983" lon="8.0693633"><ele>312.0</ele><time>2026-05-01T12:50:54.798Z</time></trkpt><trkpt lat="45.3986667" lon="8.0692067"><ele>314.25</ele><time>2026-05-01T12:50:55.798Z</time></trkpt><trkpt lat="45.398725" lon="8.06903"><ele>316.5</ele><time>2026-05-01T12:50:56.798Z</time></trkpt><trkpt lat="45.3987633" lon="8.0688383"><ele>318.75</ele><time>2026-05-01T12:50:57.798Z</time></trkpt><trkpt lat="45.3987983" lon="8.0686233"><ele>321.0</ele><time>2026-05-01T12:50:58.798Z</time></trkpt><trkpt lat="45.3988267" lon="8.0684033"><ele>317.2</ele><time>2026-05-01T12:50:59.798Z</time></trkpt><trkpt lat="45.3988467" lon="8.068195"><ele>313.40000000000003</ele><time>2026-05-01T12:51:00.798Z</time></trkpt><trkpt lat="45.3988617" lon="8.0680267"><ele>309.6</ele><time>2026-05-01T12:51:01.798Z</time></trkpt><trkpt lat="45.3988817" lon="8.0678883"><ele>305.8</ele><time>2026-05-01T12:51:02.798Z</time></trkpt><trkpt lat="45.3989083" lon="8.06778"><ele>302.0</ele><time>2026-05-01T12:51:03.798Z</time></trkpt><trkpt lat="45.3989433" lon="8.06768"><ele>302.0</ele><time>2026-05-01T12:51:05.798Z</time></trkpt><trkpt lat="45.39904" lon="8.06761"><ele>302.0</ele><time>2026-05-01T12:51:08.797Z</time></trkpt><trkpt lat="45.39911" lon="8.0675767"><ele>302.0</ele><time>2026-05-01T12:51:09.796Z</time></trkpt><trkpt lat="45.3992" lon="8.0675367"><ele>302.0</ele><time>2026-05-01T12:51:10.797Z</time></trkpt><trkpt lat="45.3993083" lon="8.0674933"><ele>302.0</ele><time>2026-05-01T12:51:11.797Z</time></trkpt><trkpt lat="45.3994267" lon="8.06745"><ele>303.0</ele><time>2026-05-01T12:51:12.797Z</time></trkpt><trkpt lat="45.399545" lon="8.0674167"><ele>304.0</ele><time>2026-05-01T12:51:13.797Z</time></trkpt><trkpt lat="45.3996567" lon="8.0674033"><ele>305.0</ele><time>2026-05-01T12:51:14.797Z</time></trkpt><trkpt lat="45.399755" lon="8.0674083"><ele>306.0</ele><time>2026-05-01T12:51:15.797Z</time></trkpt><trkpt lat="45.3998333" lon="8.0674183"><ele>307.0</ele><time>2026-05-01T12:51:16.797Z</time></trkpt><trkpt lat="45.3999133" lon="8.0673933"><ele>304.5</ele><time>2026-05-01T12:51:17.797Z</time></trkpt><trkpt lat="45.4" lon="8.067335"><ele>302.0</ele><time>2026-05-01T12:51:18.797Z</time></trkpt><trkpt lat="45.4000933" lon="8.0672467"><ele>299.5</ele><time>2026-05-01T12:51:19.797Z</time></trkpt><trkpt lat="45.4002067" lon="8.0671467"><ele>297.0</ele><time>2026-05-01T12:51:20.797Z</time></trkpt><trkpt lat="45.4003267" lon="8.067045"><ele>297.0</ele><time>2026-05-01T12:51:21.797Z</time></trkpt><trkpt lat="45.4004333" lon="8.06697"><ele>297.0</ele><time>2026-05-01T12:51:22.797Z</time></trkpt><trkpt lat="45.4005217" lon="8.0669067"><ele>297.0</ele><time>2026-05-01T12:51:23.797Z</time></trkpt><trkpt lat="45.4005933" lon="8.0668583"><ele>297.0</ele><time>2026-05-01T12:51:24.797Z</time></trkpt><trkpt lat="45.4006867" lon="8.0668117"><ele>297.0</ele><time>2026-05-01T12:51:26.797Z</time></trkpt><trkpt lat="45.4007483" lon="8.06685"><ele>297.2</ele><time>2026-05-01T12:51:29.796Z</time></trkpt><trkpt lat="45.4007733" lon="8.0669867"><ele>297.4</ele><time>2026-05-01T12:51:32.797Z</time></trkpt><trkpt lat="45.4008367" lon="8.0671467"><ele>297.6</ele><time>2026-05-01T12:51:34.797Z</time></trkpt><trkpt lat="45.4009033" lon="8.06722"><ele>297.8</ele><time>2026-05-01T12:51:35.797Z</time></trkpt><trkpt lat="45.4009783" lon="8.06728"><ele>298.0</ele><time>2026-05-01T12:51:36.797Z</time></trkpt><trkpt lat="45.4010467" lon="8.0673183"><ele>298.0</ele><time>2026-05-01T12:51:37.797Z</time></trkpt><trkpt lat="45.40111" lon="8.0673467"><ele>298.0</ele><time>2026-05-01T12:51:38.797Z</time></trkpt><trkpt lat="45.4011683" lon="8.0673967"><ele>298.0</ele><time>2026-05-01T12:51:39.797Z</time></trkpt><trkpt lat="45.4012233" lon="8.0674467"><ele>298.0</ele><time>2026-05-01T12:51:40.797Z</time></trkpt><trkpt lat="45.4012767" lon="8.0675217"><ele>298.0</ele><time>2026-05-01T12:51:41.797Z</time></trkpt><trkpt lat="45.4013367" lon="8.067615"><ele>298.0</ele><time>2026-05-01T12:51:42.797Z</time></trkpt><trkpt lat="45.4014033" lon="8.06773"><ele>298.4</ele><time>2026-05-01T12:51:43.797Z</time></trkpt><trkpt lat="45.40148" lon="8.0678167"><ele>298.8</ele><time>2026-05-01T12:51:44.797Z</time></trkpt><trkpt lat="45.4015567" lon="8.0678967"><ele>299.2</ele><time>2026-05-01T12:51:45.797Z</time></trkpt><trkpt lat="45.4016333" lon="8.0679767"><ele>299.6</ele><time>2026-05-01T12:51:46.797Z</time></trkpt><trkpt lat="45.4017117" lon="8.0680633"><ele>300.0</ele><time>2026-05-01T12:51:47.797Z</time></trkpt><trkpt lat="45.4017817" lon="8.0681533"><ele>300.0</ele><time>2026-05-01T12:51:48.797Z</time></trkpt><trkpt lat="45.40184" lon="8.0682433"><ele>300.0</ele><time>2026-05-01T12:51:49.797Z</time></trkpt><trkpt lat="45.4019033" lon="8.0683417"><ele>300.0</ele><time>2026-05-01T12:51:50.797Z</time></trkpt><trkpt lat="45.4019583" lon="8.0684433"><ele>300.0</ele><time>2026-05-01T12:51:51.797Z</time></trkpt><trkpt lat="45.40202" lon="8.068545"><ele>300.0</ele><time>2026-05-01T12:51:52.796Z</time></trkpt><trkpt lat="45.4020617" lon="8.068645"><ele>300.0</ele><time>2026-05-01T12:51:53.797Z</time></trkpt><trkpt lat="45.4020933" lon="8.0687233"><ele>300.71428571428567</ele><time>2026-05-01T12:51:54.797Z</time></trkpt><trkpt lat="45.40213" lon="8.0688067"><ele>301.42857142857144</ele><time>2026-05-01T12:51:55.796Z</time></trkpt><trkpt lat="45.4021467" lon="8.0689033"><ele>302.1428571428571</ele><time>2026-05-01T12:51:56.797Z</time></trkpt><trkpt lat="45.4021417" lon="8.0690017"><ele>302.85714285714283</ele><time>2026-05-01T12:51:57.797Z</time></trkpt><trkpt lat="45.402115" lon="8.0690917"><ele>303.57142857142856</ele><time>2026-05-01T12:51:58.797Z</time></trkpt><trkpt lat="45.4020867" lon="8.0691883"><ele>304.2857142857143</ele><time>2026-05-01T12:51:59.797Z</time></trkpt><trkpt lat="45.402075" lon="8.0692917"><ele>305.0</ele><time>2026-05-01T12:52:00.796Z</time></trkpt><trkpt lat="45.40208" lon="8.0693883"><ele>306.0</ele><time>2026-05-01T12:52:01.797Z</time></trkpt><trkpt lat="45.402125" lon="8.0694833"><ele>307.0</ele><time>2026-05-01T12:52:02.797Z</time></trkpt><trkpt lat="45.40219" lon="8.0696083"><ele>308.0</ele><time>2026-05-01T12:52:03.797Z</time></trkpt><trkpt lat="45.4022567" lon="8.069735"><ele>309.0</ele><time>2026-05-01T12:52:04.797Z</time></trkpt><trkpt lat="45.40234" lon="8.069855"><ele>310.0</ele><time>2026-05-01T12:52:05.797Z</time></trkpt><trkpt lat="45.4024383" lon="8.0699667"><ele>311.5</ele><time>2026-05-01T12:52:06.797Z</time></trkpt><trkpt lat="45.4025383" lon="8.0700933"><ele>313.0</ele><time>2026-05-01T12:52:07.797Z</time></trkpt><trkpt lat="45.4026417" lon="8.07021"><ele>314.5</ele><time>2026-05-01T12:52:08.797Z</time></trkpt><trkpt lat="45.40274" lon="8.0703167"><ele>316.0</ele><time>2026-05-01T12:52:09.796Z</time></trkpt><trkpt lat="45.4028367" lon="8.070405"><ele>316.0</ele><time>2026-05-01T12:52:10.796Z</time></trkpt><trkpt lat="45.4029383" lon="8.07049"><ele>316.0</ele><time>2026-05-01T12:52:11.796Z</time></trkpt><trkpt lat="45.40304" lon="8.0706"><ele>316.0</ele><time>2026-05-01T12:52:12.797Z</time></trkpt><trkpt lat="45.4031233" lon="8.0707033"><ele>316.0</ele><time>2026-05-01T12:52:13.797Z</time></trkpt><trkpt lat="45.4032217" lon="8.070825"><ele>314.5</ele><time>2026-05-01T12:52:14.797Z</time></trkpt><trkpt lat="45.4033183" lon="8.0709467"><ele>313.0</ele><time>2026-05-01T12:52:15.797Z</time></trkpt><trkpt lat="45.40341" lon="8.0710683"><ele>311.5</ele><time>2026-05-01T12:52:16.797Z</time></trkpt><trkpt lat="45.4034933" lon="8.0711983"><ele>310.0</ele><time>2026-05-01T12:52:17.797Z</time></trkpt><trkpt lat="45.4035667" lon="8.0713167"><ele>310.0</ele><time>2026-05-01T12:52:18.797Z</time></trkpt><trkpt lat="45.4036383" lon="8.0713983"><ele>310.0</ele><time>2026-05-01T12:52:19.797Z</time></trkpt><trkpt lat="45.4037167" lon="8.0714483"><ele>310.0</ele><time>2026-05-01T12:52:20.797Z</time></trkpt><trkpt lat="45.403795" lon="8.0714683"><ele>310.0</ele><time>2026-05-01T12:52:21.797Z</time></trkpt><trkpt lat="45.4038817" lon="8.0714617"><ele>310.0</ele><time>2026-05-01T12:52:22.797Z</time></trkpt><trkpt lat="45.403955" lon="8.0714717"><ele>310.0</ele><time>2026-05-01T12:52:23.797Z</time></trkpt><trkpt lat="45.40405" lon="8.0714983"><ele>309.4</ele><time>2026-05-01T12:52:25.797Z</time></trkpt><trkpt lat="45.4041467" lon="8.0715783"><ele>308.8</ele><time>2026-05-01T12:52:27.797Z</time></trkpt><trkpt lat="45.4042217" lon="8.07163"><ele>308.2</ele><time>2026-05-01T12:52:28.797Z</time></trkpt><trkpt lat="45.4042967" lon="8.0717133"><ele>307.6</ele><time>2026-05-01T12:52:29.797Z</time></trkpt><trkpt lat="45.4043633" lon="8.071815"><ele>307.0</ele><time>2026-05-01T12:52:30.797Z</time></trkpt><trkpt lat="45.4044033" lon="8.0719483"><ele>307.0</ele><time>2026-05-01T12:52:31.797Z</time></trkpt><trkpt lat="45.4044417" lon="8.0720917"><ele>307.0</ele><time>2026-05-01T12:52:32.797Z</time></trkpt><trkpt lat="45.4044817" lon="8.0722117"><ele>307.0</ele><time>2026-05-01T12:52:33.797Z</time></trkpt><trkpt lat="45.4045333" lon="8.0723067"><ele>307.0</ele><time>2026-05-01T12:52:34.796Z</time></trkpt><trkpt lat="45.4046067" lon="8.072395"><ele>307.0</ele><time>2026-05-01T12:52:35.797Z</time></trkpt><trkpt lat="45.40469" lon="8.07247"><ele>308.0</ele><time>2026-05-01T12:52:36.797Z</time></trkpt><trkpt lat="45.4047617" lon="8.0725533"><ele>309.0</ele><time>2026-05-01T12:52:37.797Z</time></trkpt><trkpt lat="45.404825" lon="8.07266"><ele>310.0</ele><time>2026-05-01T12:52:38.797Z</time></trkpt><trkpt lat="45.40488" lon="8.072785"><ele>311.0</ele><time>2026-05-01T12:52:39.797Z</time></trkpt><trkpt lat="45.404925" lon="8.0729233"><ele>312.0</ele><time>2026-05-01T12:52:40.797Z</time></trkpt><trkpt lat="45.4049533" lon="8.0730817"><ele>312.0</ele><time>2026-05-01T12:52:41.797Z</time></trkpt><trkpt lat="45.4049883" lon="8.0732367"><ele>312.0</ele><time>2026-05-01T12:52:42.797Z</time></trkpt><trkpt lat="45.4050117" lon="8.073425"><ele>312.0</ele><time>2026-05-01T12:52:43.797Z</time></trkpt><trkpt lat="45.4050417" lon="8.0735967"><ele>312.0</ele><time>2026-05-01T12:52:44.797Z</time></trkpt><trkpt lat="45.405085" lon="8.0737867"><ele>313.5</ele><time>2026-05-01T12:52:45.797Z</time></trkpt><trkpt lat="45.4051467" lon="8.07397"><ele>315.0</ele><time>2026-05-01T12:52:46.797Z</time></trkpt><trkpt lat="45.4052133" lon="8.0741583"><ele>316.5</ele><time>2026-05-01T12:52:47.797Z</time></trkpt><trkpt lat="45.40529" lon="8.0743533"><ele>318.0</ele><time>2026-05-01T12:52:48.797Z</time></trkpt><trkpt lat="45.4053683" lon="8.0745417"><ele>316.25</ele><time>2026-05-01T12:52:49.797Z</time></trkpt><trkpt lat="45.4054433" lon="8.0747233"><ele>314.5</ele><time>2026-05-01T12:52:50.797Z</time></trkpt><trkpt lat="45.4055167" lon="8.0749"><ele>312.75</ele><time>2026-05-01T12:52:51.797Z</time></trkpt><trkpt lat="45.40558" lon="8.0750767"><ele>311.0</ele><time>2026-05-01T12:52:52.797Z</time></trkpt><trkpt lat="45.4056433" lon="8.0752517"><ele>310.5</ele><time>2026-05-01T12:52:53.797Z</time></trkpt><trkpt lat="45.405705" lon="8.0754383"><ele>310.0</ele><time>2026-05-01T12:52:54.797Z</time></trkpt><trkpt lat="45.40579" lon="8.0756117"><ele>309.5</ele><time>2026-05-01T12:52:55.797Z</time></trkpt><trkpt lat="45.4058967" lon="8.0757517"><ele>309.0</ele><time>2026-05-01T12:52:56.797Z</time></trkpt><trkpt lat="45.4059983" lon="8.0758783"><ele>309.0</ele><time>2026-05-01T12:52:57.797Z</time></trkpt><trkpt lat="45.4060917" lon="8.0759933"><ele>309.0</ele><time>2026-05-01T12:52:58.797Z</time></trkpt><trkpt lat="45.4061667" lon="8.0761017"><ele>309.0</ele><time>2026-05-01T12:52:59.797Z</time></trkpt><trkpt lat="45.4062217" lon="8.0762283"><ele>309.0</ele><time>2026-05-01T12:53:00.797Z</time></trkpt><trkpt lat="45.406265" lon="8.076375"><ele>309.0</ele><time>2026-05-01T12:53:01.797Z</time></trkpt><trkpt lat="45.4062967" lon="8.07654"><ele>310.0</ele><time>2026-05-01T12:53:02.797Z</time></trkpt><trkpt lat="45.4063083" lon="8.0767367"><ele>311.0</ele><time>2026-05-01T12:53:03.797Z</time></trkpt><trkpt lat="45.4063167" lon="8.0769417"><ele>312.0</ele><time>2026-05-01T12:53:04.797Z</time></trkpt><trkpt lat="45.4063217" lon="8.077155"><ele>313.0</ele><time>2026-05-01T12:53:05.797Z</time></trkpt><trkpt lat="45.406325" lon="8.0773783"><ele>312.5</ele><time>2026-05-01T12:53:06.797Z</time></trkpt><trkpt lat="45.40633" lon="8.077595"><ele>312.0</ele><time>2026-05-01T12:53:07.797Z</time></trkpt><trkpt lat="45.40634" lon="8.0777917"><ele>311.5</ele><time>2026-05-01T12:53:08.797Z</time></trkpt><trkpt lat="45.40633" lon="8.0779767"><ele>311.0</ele><time>2026-05-01T12:53:09.796Z</time></trkpt><trkpt lat="45.4063067" lon="8.07814"><ele>309.0</ele><time>2026-05-01T12:53:10.797Z</time></trkpt><trkpt lat="45.4062667" lon="8.078285"><ele>307.0</ele><time>2026-05-01T12:53:11.796Z</time></trkpt><trkpt lat="45.4062067" lon="8.0784183"><ele>305.0</ele><time>2026-05-01T12:53:12.797Z</time></trkpt><trkpt lat="45.4061517" lon="8.078545"><ele>303.0</ele><time>2026-05-01T12:53:13.797Z</time></trkpt><trkpt lat="45.406105" lon="8.0786917"><ele>301.0</ele><time>2026-05-01T12:53:14.797Z</time></trkpt><trkpt lat="45.406075" lon="8.0788483"><ele>301.0</ele><time>2026-05-01T12:53:15.796Z</time></trkpt><trkpt lat="45.406065" lon="8.07903"><ele>301.0</ele><time>2026-05-01T12:53:16.797Z</time></trkpt><trkpt lat="45.4060733" lon="8.0792"><ele>301.0</ele><time>2026-05-01T12:53:17.797Z</time></trkpt><trkpt lat="45.4060883" lon="8.0793683"><ele>301.0</ele><time>2026-05-01T12:53:18.797Z</time></trkpt><trkpt lat="45.4060983" lon="8.079535"><ele>299.5</ele><time>2026-05-01T12:53:19.797Z</time></trkpt><trkpt lat="45.4060783" lon="8.0797033"><ele>298.0</ele><time>2026-05-01T12:53:20.797Z</time></trkpt><trkpt lat="45.40605" lon="8.07987"><ele>296.5</ele><time>2026-05-01T12:53:21.796Z</time></trkpt><trkpt lat="45.4060417" lon="8.080055"><ele>295.0</ele><time>2026-05-01T12:53:22.797Z</time></trkpt><trkpt lat="45.4060267" lon="8.0802433"><ele>294.5</ele><time>2026-05-01T12:53:23.797Z</time></trkpt><trkpt lat="45.4059983" lon="8.0804317"><ele>294.0</ele><time>2026-05-01T12:53:24.797Z</time></trkpt><trkpt lat="45.4059767" lon="8.0806083"><ele>293.5</ele><time>2026-05-01T12:53:25.797Z</time></trkpt><trkpt lat="45.4059567" lon="8.0807817"><ele>293.0</ele><time>2026-05-01T12:53:26.797Z</time></trkpt><trkpt lat="45.4059533" lon="8.0809583"><ele>292.75</ele><time>2026-05-01T12:53:27.797Z</time></trkpt><trkpt lat="45.4059667" lon="8.08113"><ele>292.5</ele><time>2026-05-01T12:53:28.797Z</time></trkpt><trkpt lat="45.405985" lon="8.0813067"><ele>292.25</ele><time>2026-05-01T12:53:29.797Z</time></trkpt><trkpt lat="45.4060233" lon="8.0814667"><ele>292.0</ele><time>2026-05-01T12:53:30.797Z</time></trkpt><trkpt lat="45.406085" lon="8.0816217"><ele>291.5</ele><time>2026-05-01T12:53:31.797Z</time></trkpt><trkpt lat="45.4061617" lon="8.0817617"><ele>291.0</ele><time>2026-05-01T12:53:32.797Z</time></trkpt><trkpt lat="45.4062433" lon="8.08191"><ele>290.5</ele><time>2026-05-01T12:53:33.797Z</time></trkpt><trkpt lat="45.4063317" lon="8.082035"><ele>290.0</ele><time>2026-05-01T12:53:34.797Z</time></trkpt><trkpt lat="45.4064067" lon="8.0821917"><ele>290.0</ele><time>2026-05-01T12:53:35.797Z</time></trkpt><trkpt lat="45.406475" lon="8.0823283"><ele>290.0</ele><time>2026-05-01T12:53:36.797Z</time></trkpt><trkpt lat="45.406555" lon="8.0824683"><ele>290.0</ele><time>2026-05-01T12:53:37.797Z</time></trkpt><trkpt lat="45.40664" lon="8.0825783"><ele>290.0</ele><time>2026-05-01T12:53:38.797Z</time></trkpt><trkpt lat="45.40671" lon="8.0826717"><ele>290.0</ele><time>2026-05-01T12:53:39.797Z</time></trkpt><trkpt lat="45.4067717" lon="8.0827383"><ele>290.0</ele><time>2026-05-01T12:53:40.797Z</time></trkpt><trkpt lat="45.4068417" lon="8.0827967"><ele>290.0</ele><time>2026-05-01T12:53:42.797Z</time></trkpt><trkpt lat="45.4069317" lon="8.0826783"><ele>290.0</ele><time>2026-05-01T12:53:48.797Z</time></trkpt><trkpt lat="45.406985" lon="8.0825667"><ele>290.0</ele><time>2026-05-01T12:53:49.797Z</time></trkpt><trkpt lat="45.4070533" lon="8.0824167"><ele>290.0</ele><time>2026-05-01T12:53:50.797Z</time></trkpt><trkpt lat="45.40713" lon="8.0822617"><ele>290.0</ele><time>2026-05-01T12:53:51.797Z</time></trkpt><trkpt lat="45.4072133" lon="8.0821033"><ele>290.0</ele><time>2026-05-01T12:53:52.797Z</time></trkpt><trkpt lat="45.407305" lon="8.0819317"><ele>290.0</ele><time>2026-05-01T12:53:53.797Z</time></trkpt><trkpt lat="45.4073983" lon="8.0817567"><ele>290.33333333333337</ele><time>2026-05-01T12:53:54.797Z</time></trkpt><trkpt lat="45.4074983" lon="8.0815767"><ele>290.6666666666667</ele><time>2026-05-01T12:53:55.797Z</time></trkpt><trkpt lat="45.4076083" lon="8.0813933"><ele>291.0</ele><time>2026-05-01T12:53:56.797Z</time></trkpt><trkpt lat="45.407705" lon="8.081195"><ele>291.0</ele><time>2026-05-01T12:53:57.797Z</time></trkpt><trkpt lat="45.40781" lon="8.0809983"><ele>291.0</ele><time>2026-05-01T12:53:58.797Z</time></trkpt><trkpt lat="45.4079067" lon="8.0807933"><ele>291.0</ele><time>2026-05-01T12:53:59.797Z</time></trkpt><trkpt lat="45.40801" lon="8.080585"><ele>294.3333333333333</ele><time>2026-05-01T12:54:00.797Z</time></trkpt><trkpt lat="45.4081183" lon="8.0803717"><ele>297.66666666666663</ele><time>2026-05-01T12:54:01.797Z</time></trkpt><trkpt lat="45.40822" lon="8.08017"><ele>301.0</ele><time>2026-05-01T12:54:02.797Z</time></trkpt><trkpt lat="45.40833" lon="8.07996"><ele>303.0</ele><time>2026-05-01T12:54:03.797Z</time></trkpt><trkpt lat="45.4084467" lon="8.0797567"><ele>305.0</ele><time>2026-05-01T12:54:04.797Z</time></trkpt><trkpt lat="45.4085583" lon="8.0795567"><ele>307.0</ele><time>2026-05-01T12:54:05.797Z</time></trkpt><trkpt lat="45.408655" lon="8.0793583"><ele>307.0</ele><time>2026-05-01T12:54:06.797Z</time></trkpt><trkpt lat="45.4087633" lon="8.0791617"><ele>307.0</ele><time>2026-05-01T12:54:07.797Z</time></trkpt><trkpt lat="45.40887" lon="8.07896"><ele>307.0</ele><time>2026-05-01T12:54:08.797Z</time></trkpt><trkpt lat="45.40898" lon="8.0787583"><ele>306.3333333333333</ele><time>2026-05-01T12:54:09.797Z</time></trkpt><trkpt lat="45.4090683" lon="8.0785533"><ele>305.6666666666667</ele><time>2026-05-01T12:54:10.797Z</time></trkpt><trkpt lat="45.409175" lon="8.0783583"><ele>305.0</ele><time>2026-05-01T12:54:11.797Z</time></trkpt><trkpt lat="45.4092967" lon="8.07817"><ele>305.0</ele><time>2026-05-01T12:54:12.797Z</time></trkpt><trkpt lat="45.4094133" lon="8.0779833"><ele>305.0</ele><time>2026-05-01T12:54:13.797Z</time></trkpt><trkpt lat="45.40953" lon="8.0778017"><ele>305.0</ele><time>2026-05-01T12:54:14.797Z</time></trkpt><trkpt lat="45.4096567" lon="8.07763"><ele>305.6666666666667</ele><time>2026-05-01T12:54:15.797Z</time></trkpt><trkpt lat="45.40978" lon="8.0774683"><ele>306.3333333333333</ele><time>2026-05-01T12:54:16.797Z</time></trkpt><trkpt lat="45.40991" lon="8.0772967"><ele>307.0</ele><time>2026-05-01T12:54:17.797Z</time></trkpt><trkpt lat="45.41004" lon="8.0771333"><ele>303.0</ele><time>2026-05-01T12:54:18.797Z</time></trkpt><trkpt lat="45.4101917" lon="8.07698"><ele>299.0</ele><time>2026-05-01T12:54:19.797Z</time></trkpt><trkpt lat="45.4103367" lon="8.07682"><ele>295.0</ele><time>2026-05-01T12:54:20.797Z</time></trkpt><trkpt lat="45.41048" lon="8.0766567"><ele>294.3333333333333</ele><time>2026-05-01T12:54:21.797Z</time></trkpt><trkpt lat="45.4106217" lon="8.0764933"><ele>293.6666666666667</ele><time>2026-05-01T12:54:22.797Z</time></trkpt><trkpt lat="45.4107667" lon="8.07632"><ele>293.0</ele><time>2026-05-01T12:54:23.797Z</time></trkpt><trkpt lat="45.4109083" lon="8.0761567"><ele>293.0</ele><time>2026-05-01T12:54:24.797Z</time></trkpt><trkpt lat="45.4110567" lon="8.0759883"><ele>293.0</ele><time>2026-05-01T12:54:25.797Z</time></trkpt><trkpt lat="45.4111883" lon="8.075815"><ele>293.0</ele><time>2026-05-01T12:54:26.797Z</time></trkpt><trkpt lat="45.41133" lon="8.07565"><ele>294.6666666666667</ele><time>2026-05-01T12:54:27.797Z</time></trkpt><trkpt lat="45.411465" lon="8.0754767"><ele>296.3333333333333</ele><time>2026-05-01T12:54:28.797Z</time></trkpt><trkpt lat="45.4115883" lon="8.075305"><ele>298.0</ele><time>2026-05-01T12:54:29.797Z</time></trkpt><trkpt lat="45.4117017" lon="8.0751267"><ele>298.0</ele><time>2026-05-01T12:54:30.797Z</time></trkpt><trkpt lat="45.4118017" lon="8.074955"><ele>298.0</ele><time>2026-05-01T12:54:31.797Z</time></trkpt><trkpt lat="45.4118983" lon="8.0748017"><ele>298.0</ele><time>2026-05-01T12:54:32.797Z</time></trkpt><trkpt lat="45.4120067" lon="8.0746767"><ele>298.0</ele><time>2026-05-01T12:54:33.797Z</time></trkpt><trkpt lat="45.4121283" lon="8.07457"><ele>297.75</ele><time>2026-05-01T12:54:34.797Z</time></trkpt><trkpt lat="45.41225" lon="8.0744867"><ele>297.5</ele><time>2026-05-01T12:54:35.797Z</time></trkpt><trkpt lat="45.41238" lon="8.0744067"><ele>297.25</ele><time>2026-05-01T12:54:36.797Z</time></trkpt><trkpt lat="45.4125333" lon="8.0743283"><ele>297.0</ele><time>2026-05-01T12:54:37.797Z</time></trkpt><trkpt lat="45.4126983" lon="8.0742517"><ele>297.0</ele><time>2026-05-01T12:54:38.797Z</time></trkpt><trkpt lat="45.4128583" lon="8.0741867"><ele>297.0</ele><time>2026-05-01T12:54:39.797Z</time></trkpt><trkpt lat="45.4130283" lon="8.0741183"><ele>297.0</ele><time>2026-05-01T12:54:40.797Z</time></trkpt><trkpt lat="45.4132033" lon="8.0740317"><ele>295.3333333333333</ele><time>2026-05-01T12:54:41.797Z</time></trkpt><trkpt lat="45.4133667" lon="8.073955"><ele>293.66666666666663</ele><time>2026-05-01T12:54:42.797Z</time></trkpt><trkpt lat="45.4135383" lon="8.0738783"><ele>292.0</ele><time>2026-05-01T12:54:43.797Z</time></trkpt><trkpt lat="45.4137167" lon="8.0737983"><ele>293.0</ele><time>2026-05-01T12:54:44.797Z</time></trkpt><trkpt lat="45.4138933" lon="8.0737117"><ele>294.0</ele><time>2026-05-01T12:54:45.797Z</time></trkpt><trkpt lat="45.4140717" lon="8.0736283"><ele>295.0</ele><time>2026-05-01T12:54:46.797Z</time></trkpt><trkpt lat="45.4142617" lon="8.0735533"><ele>295.0</ele><time>2026-05-01T12:54:47.797Z</time></trkpt><trkpt lat="45.4144483" lon="8.0734717"><ele>295.0</ele><time>2026-05-01T12:54:48.797Z</time></trkpt><trkpt lat="45.4146267" lon="8.0733817"><ele>295.0</ele><time>2026-05-01T12:54:49.797Z</time></trkpt><trkpt lat="45.4148117" lon="8.0732967"><ele>295.66666666666663</ele><time>2026-05-01T12:54:50.796Z</time></trkpt><trkpt lat="45.4149967" lon="8.07321"><ele>296.3333333333333</ele><time>2026-05-01T12:54:51.797Z</time></trkpt><trkpt lat="45.415185" lon="8.0731267"><ele>297.0</ele><time>2026-05-01T12:54:52.797Z</time></trkpt><trkpt lat="45.41537" lon="8.07305"><ele>296.6666666666667</ele><time>2026-05-01T12:54:53.796Z</time></trkpt><trkpt lat="45.4155567" lon="8.0729717"><ele>296.33333333333337</ele><time>2026-05-01T12:54:54.797Z</time></trkpt><trkpt lat="45.4157383" lon="8.0728917"><ele>296.0</ele><time>2026-05-01T12:54:55.797Z</time></trkpt><trkpt lat="45.4159233" lon="8.0728083"><ele>296.0</ele><time>2026-05-01T12:54:56.797Z</time></trkpt><trkpt lat="45.4161117" lon="8.072725"><ele>296.0</ele><time>2026-05-01T12:54:57.797Z</time></trkpt><trkpt lat="45.4162983" lon="8.0726467"><ele>296.0</ele><time>2026-05-01T12:54:58.797Z</time></trkpt><trkpt lat="45.41648" lon="8.072565"><ele>296.0</ele><time>2026-05-01T12:54:59.797Z</time></trkpt><trkpt lat="45.4166583" lon="8.072485"><ele>296.0</ele><time>2026-05-01T12:55:00.797Z</time></trkpt><trkpt lat="45.4168383" lon="8.072405"><ele>296.0</ele><time>2026-05-01T12:55:01.797Z</time></trkpt><trkpt lat="45.4170117" lon="8.0723217"><ele>296.33333333333337</ele><time>2026-05-01T12:55:02.797Z</time></trkpt><trkpt lat="45.417185" lon="8.072245"><ele>296.6666666666667</ele><time>2026-05-01T12:55:03.797Z</time></trkpt><trkpt lat="45.4173617" lon="8.07217"><ele>297.0</ele><time>2026-05-01T12:55:04.797Z</time></trkpt><trkpt lat="45.417535" lon="8.0720967"><ele>297.0</ele><time>2026-05-01T12:55:05.797Z</time></trkpt><trkpt lat="45.4177" lon="8.0720167"><ele>297.0</ele><time>2026-05-01T12:55:06.797Z</time></trkpt><trkpt lat="45.4178633" lon="8.0719433"><ele>297.0</ele><time>2026-05-01T12:55:07.797Z</time></trkpt><trkpt lat="45.418025" lon="8.0718667"><ele>298.0</ele><time>2026-05-01T12:55:08.797Z</time></trkpt><trkpt lat="45.4181717" lon="8.071785"><ele>299.0</ele><time>2026-05-01T12:55:09.797Z</time></trkpt><trkpt lat="45.41831" lon="8.0716833"><ele>300.0</ele><time>2026-05-01T12:55:10.797Z</time></trkpt><trkpt lat="45.4184367" lon="8.0715533"><ele>300.0</ele><time>2026-05-01T12:55:11.797Z</time></trkpt><trkpt lat="45.4185667" lon="8.071405"><ele>300.0</ele><time>2026-05-01T12:55:12.797Z</time></trkpt><trkpt lat="45.41869" lon="8.0712417"><ele>300.0</ele><time>2026-05-01T12:55:13.797Z</time></trkpt><trkpt lat="45.4188067" lon="8.0710717"><ele>301.5</ele><time>2026-05-01T12:55:14.797Z</time></trkpt><trkpt lat="45.418915" lon="8.0709033"><ele>303.0</ele><time>2026-05-01T12:55:15.797Z</time></trkpt><trkpt lat="45.4190117" lon="8.0707583"><ele>304.5</ele><time>2026-05-01T12:55:16.797Z</time></trkpt><trkpt lat="45.4191" lon="8.0706083"><ele>306.0</ele><time>2026-05-01T12:55:17.797Z</time></trkpt><trkpt lat="45.4191833" lon="8.070465"><ele>306.0</ele><time>2026-05-01T12:55:18.797Z</time></trkpt><trkpt lat="45.4192783" lon="8.0703267"><ele>306.0</ele><time>2026-05-01T12:55:19.797Z</time></trkpt><trkpt lat="45.4193767" lon="8.0701983"><ele>306.0</ele><time>2026-05-01T12:55:20.797Z</time></trkpt><trkpt lat="45.4194767" lon="8.070095"><ele>306.0</ele><time>2026-05-01T12:55:21.797Z</time></trkpt><trkpt lat="45.4195767" lon="8.070005"><ele>306.6</ele><time>2026-05-01T12:55:22.797Z</time></trkpt><trkpt lat="45.4196817" lon="8.069925"><ele>307.20000000000005</ele><time>2026-05-01T12:55:23.797Z</time></trkpt><trkpt lat="45.419775" lon="8.0698533"><ele>307.79999999999995</ele><time>2026-05-01T12:55:24.797Z</time></trkpt><trkpt lat="45.419855" lon="8.0698"><ele>308.4</ele><time>2026-05-01T12:55:25.797Z</time></trkpt><trkpt lat="45.4199283" lon="8.0697417"><ele>309.0</ele><time>2026-05-01T12:55:26.797Z</time></trkpt><trkpt lat="45.4200417" lon="8.0696683"><ele>309.0</ele><time>2026-05-01T12:55:28.797Z</time></trkpt><trkpt lat="45.420105" lon="8.069625"><ele>309.0</ele><time>2026-05-01T12:55:29.797Z</time></trkpt><trkpt lat="45.42018" lon="8.06958"><ele>309.0</ele><time>2026-05-01T12:55:30.796Z</time></trkpt><trkpt lat="45.4202467" lon="8.06955"><ele>309.0</ele><time>2026-05-01T12:55:31.796Z</time></trkpt><trkpt lat="45.4203517" lon="8.0695"><ele>309.0</ele><time>2026-05-01T12:55:33.796Z</time></trkpt><trkpt lat="45.42042" lon="8.069475"><ele>309.0</ele><time>2026-05-01T12:55:36.796Z</time></trkpt><trkpt lat="45.4205167" lon="8.0694783"><ele>309.59999999999997</ele><time>2026-05-01T12:55:40.796Z</time></trkpt><trkpt lat="45.4206267" lon="8.0695033"><ele>310.2</ele><time>2026-05-01T12:55:42.796Z</time></trkpt><trkpt lat="45.4207233" lon="8.0695617"><ele>310.79999999999995</ele><time>2026-05-01T12:55:44.796Z</time></trkpt><trkpt lat="45.42085" lon="8.069615"><ele>311.4</ele><time>2026-05-01T12:55:46.796Z</time></trkpt><trkpt lat="45.42092" lon="8.0696383"><ele>312.0</ele><time>2026-05-01T12:55:47.796Z</time></trkpt><trkpt lat="45.42099" lon="8.069605"><ele>312.0</ele><time>2026-05-01T12:55:48.796Z</time></trkpt><trkpt lat="45.421065" lon="8.069545"><ele>312.0</ele><time>2026-05-01T12:55:49.796Z</time></trkpt><trkpt lat="45.4211317" lon="8.0694683"><ele>312.0</ele><time>2026-05-01T12:55:50.796Z</time></trkpt><trkpt lat="45.4212" lon="8.0693933"><ele>312.0</ele><time>2026-05-01T12:55:51.796Z</time></trkpt><trkpt lat="45.4212667" lon="8.06932"><ele>312.0</ele><time>2026-05-01T12:55:52.796Z</time></trkpt><trkpt lat="45.42133" lon="8.0692367"><ele>312.0</ele><time>2026-05-01T12:55:53.796Z</time></trkpt><trkpt lat="45.4213883" lon="8.06917"><ele>312.0</ele><time>2026-05-01T12:55:54.796Z</time></trkpt><trkpt lat="45.4214367" lon="8.06911"><ele>312.0</ele><time>2026-05-01T12:55:55.796Z</time></trkpt><trkpt lat="45.4215383" lon="8.0690417"><ele>312.0</ele><time>2026-05-01T12:55:57.796Z</time></trkpt><trkpt lat="45.4216033" lon="8.0690167"><ele>312.0</ele><time>2026-05-01T12:55:59.796Z</time></trkpt><trkpt lat="45.4216567" lon="8.06895"><ele>312.0</ele><time>2026-05-01T12:56:01.796Z</time></trkpt><trkpt lat="45.4216983" lon="8.06888"><ele>312.0</ele><time>2026-05-01T12:56:03.796Z</time></trkpt><trkpt lat="45.421785" lon="8.068885"><ele>312.0</ele><time>2026-05-01T12:56:06.795Z</time></trkpt><trkpt lat="45.42191" lon="8.0688917"><ele>312.0</ele><time>2026-05-01T12:56:08.796Z</time></trkpt><trkpt lat="45.4219933" lon="8.0688967"><ele>312.0</ele><time>2026-05-01T12:56:09.796Z</time></trkpt><trkpt lat="45.42208" lon="8.06889"><ele>312.0</ele><time>2026-05-01T12:56:10.796Z</time></trkpt><trkpt lat="45.422165" lon="8.06891"><ele>312.0</ele><time>2026-05-01T12:56:11.796Z</time></trkpt><trkpt lat="45.422245" lon="8.0689517"><ele>313.0</ele><time>2026-05-01T12:56:12.796Z</time></trkpt><trkpt lat="45.422315" lon="8.0690167"><ele>314.0</ele><time>2026-05-01T12:56:13.796Z</time></trkpt><trkpt lat="45.4223733" lon="8.0690833"><ele>315.0</ele><time>2026-05-01T12:56:14.796Z</time></trkpt><trkpt lat="45.4224083" lon="8.0691783"><ele>316.0</ele><time>2026-05-01T12:56:15.796Z</time></trkpt><trkpt lat="45.4224417" lon="8.0692933"><ele>317.0</ele><time>2026-05-01T12:56:16.796Z</time></trkpt><trkpt lat="45.42248" lon="8.0694217"><ele>318.0</ele><time>2026-05-01T12:56:17.796Z</time></trkpt><trkpt lat="45.4225367" lon="8.0695633"><ele>318.5</ele><time>2026-05-01T12:56:18.796Z</time></trkpt><trkpt lat="45.4225883" lon="8.0697083"><ele>319.0</ele><time>2026-05-01T12:56:19.796Z</time></trkpt><trkpt lat="45.4226483" lon="8.0698417"><ele>319.5</ele><time>2026-05-01T12:56:20.796Z</time></trkpt><trkpt lat="45.42272" lon="8.0699617"><ele>320.0</ele><time>2026-05-01T12:56:21.796Z</time></trkpt><trkpt lat="45.422795" lon="8.0700833"><ele>320.2</ele><time>2026-05-01T12:56:22.795Z</time></trkpt><trkpt lat="45.4228583" lon="8.07021"><ele>320.4</ele><time>2026-05-01T12:56:23.796Z</time></trkpt><trkpt lat="45.4229217" lon="8.070325"><ele>320.6</ele><time>2026-05-01T12:56:24.796Z</time></trkpt><trkpt lat="45.422975" lon="8.0704467"><ele>320.8</ele><time>2026-05-01T12:56:25.796Z</time></trkpt><trkpt lat="45.4230217" lon="8.07059"><ele>321.0</ele><time>2026-05-01T12:56:26.795Z</time></trkpt><trkpt lat="45.4230517" lon="8.0707533"><ele>324.8</ele><time>2026-05-01T12:56:27.796Z</time></trkpt><trkpt lat="45.4230717" lon="8.0709017"><ele>328.6</ele><time>2026-05-01T12:56:28.796Z</time></trkpt><trkpt lat="45.4230733" lon="8.071055"><ele>332.4</ele><time>2026-05-01T12:56:29.796Z</time></trkpt><trkpt lat="45.4230633" lon="8.071205"><ele>336.2</ele><time>2026-05-01T12:56:30.796Z</time></trkpt><trkpt lat="45.42303" lon="8.0713633"><ele>340.0</ele><time>2026-05-01T12:56:31.796Z</time></trkpt><trkpt lat="45.4229883" lon="8.0715217"><ele>341.0</ele><time>2026-05-01T12:56:32.796Z</time></trkpt><trkpt lat="45.4229483" lon="8.0716833"><ele>342.0</ele><time>2026-05-01T12:56:33.796Z</time></trkpt><trkpt lat="45.4229117" lon="8.0718467"><ele>343.0</ele><time>2026-05-01T12:56:34.796Z</time></trkpt><trkpt lat="45.422885" lon="8.072005"><ele>344.0</ele><time>2026-05-01T12:56:35.796Z</time></trkpt><trkpt lat="45.4228567" lon="8.07216"><ele>344.0</ele><time>2026-05-01T12:56:36.795Z</time></trkpt><trkpt lat="45.4228467" lon="8.0723083"><ele>344.0</ele><time>2026-05-01T12:56:37.796Z</time></trkpt><trkpt lat="45.42286" lon="8.0724633"><ele>344.0</ele><time>2026-05-01T12:56:38.795Z</time></trkpt><trkpt lat="45.422895" lon="8.0725933"><ele>344.0</ele><time>2026-05-01T12:56:39.795Z</time></trkpt><trkpt lat="45.42294" lon="8.0727267"><ele>344.0</ele><time>2026-05-01T12:56:40.796Z</time></trkpt><trkpt lat="45.4229783" lon="8.0728583"><ele>346.0</ele><time>2026-05-01T12:56:41.796Z</time></trkpt><trkpt lat="45.4230017" lon="8.073"><ele>348.0</ele><time>2026-05-01T12:56:42.796Z</time></trkpt><trkpt lat="45.4230133" lon="8.0731317"><ele>350.0</ele><time>2026-05-01T12:56:43.796Z</time></trkpt><trkpt lat="45.423025" lon="8.0732583"><ele>352.0</ele><time>2026-05-01T12:56:44.796Z</time></trkpt><trkpt lat="45.4230283" lon="8.0733783"><ele>354.0</ele><time>2026-05-01T12:56:45.796Z</time></trkpt><trkpt lat="45.4230333" lon="8.0734867"><ele>356.0</ele><time>2026-05-01T12:56:46.796Z</time></trkpt><trkpt lat="45.42303" lon="8.0735817"><ele>355.99999999999994</ele><time>2026-05-01T12:56:47.796Z</time></trkpt><trkpt lat="45.4230083" lon="8.0736733"><ele>356.0</ele><time>2026-05-01T12:56:48.796Z</time></trkpt><trkpt lat="45.422965" lon="8.0737517"><ele>356.0</ele><time>2026-05-01T12:56:49.796Z</time></trkpt><trkpt lat="45.4228983" lon="8.0738133"><ele>356.0</ele><time>2026-05-01T12:56:50.796Z</time></trkpt><trkpt lat="45.4228333" lon="8.0738667"><ele>356.0</ele><time>2026-05-01T12:56:51.796Z</time></trkpt><trkpt lat="45.4227783" lon="8.0739217"><ele>355.99999999999994</ele><time>2026-05-01T12:56:52.796Z</time></trkpt><trkpt lat="45.4227467" lon="8.0740117"><ele>356.0</ele><time>2026-05-01T12:56:53.796Z</time></trkpt><trkpt lat="45.4227383" lon="8.07412"><ele>356.20000000000005</ele><time>2026-05-01T12:56:54.796Z</time></trkpt><trkpt lat="45.4227617" lon="8.07424"><ele>356.40000000000003</ele><time>2026-05-01T12:56:55.796Z</time></trkpt><trkpt lat="45.4227983" lon="8.07438"><ele>356.6</ele><time>2026-05-01T12:56:56.796Z</time></trkpt><trkpt lat="45.422855" lon="8.07452"><ele>356.8</ele><time>2026-05-01T12:56:57.796Z</time></trkpt><trkpt lat="45.4229067" lon="8.0746383"><ele>357.0</ele><time>2026-05-01T12:56:58.796Z</time></trkpt><trkpt lat="45.4229583" lon="8.0747533"><ele>357.0</ele><time>2026-05-01T12:56:59.796Z</time></trkpt><trkpt lat="45.4230283" lon="8.07482"><ele>357.0</ele><time>2026-05-01T12:57:00.796Z</time></trkpt><trkpt lat="45.4230933" lon="8.0748667"><ele>357.0</ele><time>2026-05-01T12:57:01.796Z</time></trkpt><trkpt lat="45.4231517" lon="8.0749217"><ele>357.0</ele><time>2026-05-01T12:57:04.796Z</time></trkpt><trkpt lat="45.4231283" lon="8.0750467"><ele>357.0</ele><time>2026-05-01T12:57:06.795Z</time></trkpt><trkpt lat="45.423085" lon="8.0751217"><ele>357.0</ele><time>2026-05-01T12:57:07.796Z</time></trkpt><trkpt lat="45.42306" lon="8.075205"><ele>357.0</ele><time>2026-05-01T12:57:08.796Z</time></trkpt><trkpt lat="45.42302" lon="8.0752917"><ele>357.0</ele><time>2026-05-01T12:57:09.796Z</time></trkpt><trkpt lat="45.4230017" lon="8.075395"><ele>357.0</ele><time>2026-05-01T12:57:10.796Z</time></trkpt><trkpt lat="45.4229983" lon="8.0755367"><ele>357.0</ele><time>2026-05-01T12:57:11.796Z</time></trkpt><trkpt lat="45.4229967" lon="8.0756833"><ele>357.0</ele><time>2026-05-01T12:57:12.795Z</time></trkpt><trkpt lat="45.42299" lon="8.07581"><ele>357.0</ele><time>2026-05-01T12:57:13.796Z</time></trkpt><trkpt lat="45.4230017" lon="8.0759333"><ele>357.5</ele><time>2026-05-01T12:57:14.796Z</time></trkpt><trkpt lat="45.4230283" lon="8.0760683"><ele>358.0</ele><time>2026-05-01T12:57:15.796Z</time></trkpt><trkpt lat="45.4230417" lon="8.0761767"><ele>358.5</ele><time>2026-05-01T12:57:16.796Z</time></trkpt><trkpt lat="45.42305" lon="8.076275"><ele>359.0</ele><time>2026-05-01T12:57:17.796Z</time></trkpt><trkpt lat="45.4230567" lon="8.07637"><ele>359.5</ele><time>2026-05-01T12:57:18.795Z</time></trkpt><trkpt lat="45.423055" lon="8.0764617"><ele>360.0</ele><time>2026-05-01T12:57:19.795Z</time></trkpt><trkpt lat="45.423045" lon="8.0766267"><ele>360.5</ele><time>2026-05-01T12:57:21.796Z</time></trkpt><trkpt lat="45.42299" lon="8.0767833"><ele>361.0</ele><time>2026-05-01T12:57:23.796Z</time></trkpt><trkpt lat="45.422965" lon="8.076885"><ele>361.5</ele><time>2026-05-01T12:57:24.796Z</time></trkpt><trkpt lat="45.4229417" lon="8.0769833"><ele>362.0</ele><time>2026-05-01T12:57:25.796Z</time></trkpt><trkpt lat="45.4229183" lon="8.077075"><ele>362.5</ele><time>2026-05-01T12:57:26.796Z</time></trkpt><trkpt lat="45.4228917" lon="8.077175"><ele>363.0</ele><time>2026-05-01T12:57:27.796Z</time></trkpt><trkpt lat="45.4228617" lon="8.0772783"><ele>360.4</ele><time>2026-05-01T12:57:28.796Z</time></trkpt><trkpt lat="45.4228283" lon="8.0773933"><ele>357.79999999999995</ele><time>2026-05-01T12:57:29.796Z</time></trkpt><trkpt lat="45.42279" lon="8.07752"><ele>355.2</ele><time>2026-05-01T12:57:30.796Z</time></trkpt><trkpt lat="45.4227467" lon="8.0776567"><ele>352.6</ele><time>2026-05-01T12:57:31.796Z</time></trkpt><trkpt lat="45.4227033" lon="8.0778017"><ele>350.0</ele><time>2026-05-01T12:57:32.796Z</time></trkpt><trkpt lat="45.4226617" lon="8.0779483"><ele>350.0</ele><time>2026-05-01T12:57:33.796Z</time></trkpt><trkpt lat="45.4226217" lon="8.0780633"><ele>350.0</ele><time>2026-05-01T12:57:34.796Z</time></trkpt><trkpt lat="45.4225767" lon="8.0781767"><ele>350.0</ele><time>2026-05-01T12:57:35.796Z</time></trkpt><trkpt lat="45.4225283" lon="8.07825"><ele>350.0</ele><time>2026-05-01T12:57:36.796Z</time></trkpt><trkpt lat="45.4224667" lon="8.07833"><ele>350.0</ele><time>2026-05-01T12:57:37.796Z</time></trkpt><trkpt lat="45.4223833" lon="8.0784033"><ele>350.0</ele><time>2026-05-01T12:57:38.796Z</time></trkpt><trkpt lat="45.422285" lon="8.0784883"><ele>349.6</ele><time>2026-05-01T12:57:39.795Z</time></trkpt><trkpt lat="45.4221783" lon="8.0785833"><ele>349.2</ele><time>2026-05-01T12:57:40.796Z</time></trkpt><trkpt lat="45.4220767" lon="8.078675"><ele>348.79999999999995</ele><time>2026-05-01T12:57:41.796Z</time></trkpt><trkpt lat="45.42199" lon="8.0787617"><ele>348.4</ele><time>2026-05-01T12:57:42.796Z</time></trkpt><trkpt lat="45.4219117" lon="8.0788317"><ele>348.0</ele><time>2026-05-01T12:57:43.796Z</time></trkpt><trkpt lat="45.4218383" lon="8.0788967"><ele>348.0</ele><time>2026-05-01T12:57:44.796Z</time></trkpt><trkpt lat="45.4217733" lon="8.0789533"><ele>348.0</ele><time>2026-05-01T12:57:45.796Z</time></trkpt><trkpt lat="45.421725" lon="8.0790417"><ele>348.0</ele><time>2026-05-01T12:57:46.796Z</time></trkpt><trkpt lat="45.4216717" lon="8.0791517"><ele>348.0</ele><time>2026-05-01T12:57:47.796Z</time></trkpt><trkpt lat="45.4216133" lon="8.0792733"><ele>348.0</ele><time>2026-05-01T12:57:48.796Z</time></trkpt><trkpt lat="45.4215533" lon="8.0794117"><ele>348.75</ele><time>2026-05-01T12:57:49.796Z</time></trkpt><trkpt lat="45.421495" lon="8.0795583"><ele>349.5</ele><time>2026-05-01T12:57:50.796Z</time></trkpt><trkpt lat="45.42143" lon="8.0797"><ele>350.25</ele><time>2026-05-01T12:57:51.796Z</time></trkpt><trkpt lat="45.4213517" lon="8.079845"><ele>351.0</ele><time>2026-05-01T12:57:52.796Z</time></trkpt><trkpt lat="45.42127" lon="8.079995"><ele>351.0</ele><time>2026-05-01T12:57:53.796Z</time></trkpt><trkpt lat="45.421195" lon="8.0801683"><ele>351.0</ele><time>2026-05-01T12:57:54.796Z</time></trkpt><trkpt lat="45.4211233" lon="8.0803317"><ele>351.0</ele><time>2026-05-01T12:57:55.796Z</time></trkpt><trkpt lat="45.42105" lon="8.0804917"><ele>351.0</ele><time>2026-05-01T12:57:56.796Z</time></trkpt><trkpt lat="45.4209883" lon="8.080645"><ele>351.0</ele><time>2026-05-01T12:57:57.796Z</time></trkpt><trkpt lat="45.4209317" lon="8.0807717"><ele>351.0</ele><time>2026-05-01T12:57:58.796Z</time></trkpt><trkpt lat="45.4208717" lon="8.0809"><ele>351.0</ele><time>2026-05-01T12:57:59.796Z</time></trkpt><trkpt lat="45.4208183" lon="8.0810283"><ele>351.0</ele><time>2026-05-01T12:58:00.796Z</time></trkpt><trkpt lat="45.4207667" lon="8.0811717"><ele>351.0</ele><time>2026-05-01T12:58:01.796Z</time></trkpt><trkpt lat="45.4207433" lon="8.0813367"><ele>351.0</ele><time>2026-05-01T12:58:02.796Z</time></trkpt><trkpt lat="45.4207283" lon="8.0815117"><ele>351.0</ele><time>2026-05-01T12:58:03.796Z</time></trkpt><trkpt lat="45.42072" lon="8.0816833"><ele>351.0</ele><time>2026-05-01T12:58:04.796Z</time></trkpt><trkpt lat="45.4207217" lon="8.0818533"><ele>351.0</ele><time>2026-05-01T12:58:05.796Z</time></trkpt><trkpt lat="45.420715" lon="8.08202"><ele>352.25</ele><time>2026-05-01T12:58:06.796Z</time></trkpt><trkpt lat="45.4207133" lon="8.082175"><ele>353.5</ele><time>2026-05-01T12:58:07.796Z</time></trkpt><trkpt lat="45.420715" lon="8.0823367"><ele>354.75</ele><time>2026-05-01T12:58:08.796Z</time></trkpt><trkpt lat="45.4207133" lon="8.0825017"><ele>356.0</ele><time>2026-05-01T12:58:09.795Z</time></trkpt><trkpt lat="45.4207083" lon="8.0826733"><ele>357.20000000000005</ele><time>2026-05-01T12:58:10.796Z</time></trkpt><trkpt lat="45.4207217" lon="8.0828333"><ele>358.40000000000003</ele><time>2026-05-01T12:58:11.796Z</time></trkpt><trkpt lat="45.420745" lon="8.08297"><ele>359.6</ele><time>2026-05-01T12:58:12.796Z</time></trkpt><trkpt lat="45.420795" lon="8.08309"><ele>360.8</ele><time>2026-05-01T12:58:13.796Z</time></trkpt><trkpt lat="45.4208483" lon="8.0831967"><ele>362.0</ele><time>2026-05-01T12:58:14.796Z</time></trkpt><trkpt lat="45.420905" lon="8.08327"><ele>361.6666666666667</ele><time>2026-05-01T12:58:15.796Z</time></trkpt><trkpt lat="45.4209533" lon="8.0833383"><ele>361.33333333333337</ele><time>2026-05-01T12:58:16.796Z</time></trkpt><trkpt lat="45.421025" lon="8.083395"><ele>361.0</ele><time>2026-05-01T12:58:17.796Z</time></trkpt><trkpt lat="45.4211017" lon="8.0834333"><ele>360.6666666666667</ele><time>2026-05-01T12:58:18.796Z</time></trkpt><trkpt lat="45.4211817" lon="8.0834567"><ele>360.3333333333333</ele><time>2026-05-01T12:58:19.796Z</time></trkpt><trkpt lat="45.4212633" lon="8.0834633"><ele>360.0</ele><time>2026-05-01T12:58:20.796Z</time></trkpt><trkpt lat="45.4213533" lon="8.083455"><ele>360.0</ele><time>2026-05-01T12:58:21.796Z</time></trkpt><trkpt lat="45.4214583" lon="8.08346"><ele>360.0</ele><time>2026-05-01T12:58:22.796Z</time></trkpt><trkpt lat="45.421565" lon="8.08347"><ele>360.0</ele><time>2026-05-01T12:58:23.796Z</time></trkpt><trkpt lat="45.4216567" lon="8.0834517"><ele>360.0</ele><time>2026-05-01T12:58:24.796Z</time></trkpt><trkpt lat="45.4217483" lon="8.0833917"><ele>360.0</ele><time>2026-05-01T12:58:25.796Z</time></trkpt><trkpt lat="45.4218433" lon="8.0832933"><ele>361.4</ele><time>2026-05-01T12:58:26.796Z</time></trkpt><trkpt lat="45.42193" lon="8.0832117"><ele>362.8</ele><time>2026-05-01T12:58:27.796Z</time></trkpt><trkpt lat="45.42201" lon="8.083115"><ele>364.20000000000005</ele><time>2026-05-01T12:58:28.796Z</time></trkpt><trkpt lat="45.4220817" lon="8.0829967"><ele>365.6</ele><time>2026-05-01T12:58:29.796Z</time></trkpt><trkpt lat="45.4221417" lon="8.0828733"><ele>367.0</ele><time>2026-05-01T12:58:30.796Z</time></trkpt><trkpt lat="45.4222033" lon="8.0827333"><ele>367.0</ele><time>2026-05-01T12:58:31.796Z</time></trkpt><trkpt lat="45.4222617" lon="8.082585"><ele>367.0</ele><time>2026-05-01T12:58:32.796Z</time></trkpt><trkpt lat="45.4223283" lon="8.082445"><ele>367.0</ele><time>2026-05-01T12:58:33.796Z</time></trkpt><trkpt lat="45.4223967" lon="8.0823133"><ele>367.0</ele><time>2026-05-01T12:58:34.796Z</time></trkpt><trkpt lat="45.4224717" lon="8.0821967"><ele>369.8</ele><time>2026-05-01T12:58:35.796Z</time></trkpt><trkpt lat="45.422545" lon="8.0820833"><ele>372.6</ele><time>2026-05-01T12:58:36.796Z</time></trkpt><trkpt lat="45.42262" lon="8.0819917"><ele>375.40000000000003</ele><time>2026-05-01T12:58:37.796Z</time></trkpt><trkpt lat="45.4227017" lon="8.0819133"><ele>378.20000000000005</ele><time>2026-05-01T12:58:38.796Z</time></trkpt><trkpt lat="45.4227817" lon="8.0818533"><ele>381.0</ele><time>2026-05-01T12:58:39.795Z</time></trkpt><trkpt lat="45.422855" lon="8.0817767"><ele>381.0</ele><time>2026-05-01T12:58:40.796Z</time></trkpt><trkpt lat="45.42292" lon="8.08169"><ele>381.0</ele><time>2026-05-01T12:58:41.796Z</time></trkpt><trkpt lat="45.4229867" lon="8.0815867"><ele>381.0</ele><time>2026-05-01T12:58:42.796Z</time></trkpt><trkpt lat="45.4230567" lon="8.0814733"><ele>381.0</ele><time>2026-05-01T12:58:43.796Z</time></trkpt><trkpt lat="45.423135" lon="8.0813633"><ele>381.0</ele><time>2026-05-01T12:58:44.796Z</time></trkpt><trkpt lat="45.42322" lon="8.081265"><ele>382.20000000000005</ele><time>2026-05-01T12:58:45.796Z</time></trkpt><trkpt lat="45.4233167" lon="8.0811783"><ele>383.40000000000003</ele><time>2026-05-01T12:58:46.796Z</time></trkpt><trkpt lat="45.4234033" lon="8.0811033"><ele>384.6</ele><time>2026-05-01T12:58:47.796Z</time></trkpt><trkpt lat="45.423485" lon="8.081045"><ele>385.8</ele><time>2026-05-01T12:58:48.796Z</time></trkpt><trkpt lat="45.4235667" lon="8.0809967"><ele>387.0</ele><time>2026-05-01T12:58:49.796Z</time></trkpt><trkpt lat="45.423645" lon="8.08097"><ele>387.0</ele><time>2026-05-01T12:58:50.796Z</time></trkpt><trkpt lat="45.4237317" lon="8.08096"><ele>387.0</ele><time>2026-05-01T12:58:51.796Z</time></trkpt><trkpt lat="45.4238033" lon="8.0809533"><ele>387.0</ele><time>2026-05-01T12:58:52.796Z</time></trkpt><trkpt lat="45.423875" lon="8.0809533"><ele>387.0</ele><time>2026-05-01T12:58:53.796Z</time></trkpt><trkpt lat="45.4239483" lon="8.0809683"><ele>387.0</ele><time>2026-05-01T12:58:54.796Z</time></trkpt><trkpt lat="45.4240233" lon="8.0809967"><ele>387.0</ele><time>2026-05-01T12:58:55.796Z</time></trkpt><trkpt lat="45.4241067" lon="8.0810467"><ele>385.8333333333333</ele><time>2026-05-01T12:58:56.796Z</time></trkpt><trkpt lat="45.42419" lon="8.0810967"><ele>384.6666666666667</ele><time>2026-05-01T12:58:57.796Z</time></trkpt><trkpt lat="45.4242617" lon="8.0811433"><ele>383.5</ele><time>2026-05-01T12:58:58.796Z</time></trkpt><trkpt lat="45.424335" lon="8.0811833"><ele>382.33333333333337</ele><time>2026-05-01T12:58:59.796Z</time></trkpt><trkpt lat="45.4244183" lon="8.0811983"><ele>381.1666666666667</ele><time>2026-05-01T12:59:00.796Z</time></trkpt><trkpt lat="45.4245" lon="8.0811883"><ele>380.0</ele><time>2026-05-01T12:59:01.796Z</time></trkpt><trkpt lat="45.4246" lon="8.0811633"><ele>378.5</ele><time>2026-05-01T12:59:02.796Z</time></trkpt><trkpt lat="45.4247017" lon="8.0811267"><ele>377.0</ele><time>2026-05-01T12:59:03.795Z</time></trkpt><trkpt lat="45.42481" lon="8.0810783"><ele>375.5</ele><time>2026-05-01T12:59:04.795Z</time></trkpt><trkpt lat="45.4249317" lon="8.0810283"><ele>374.0</ele><time>2026-05-01T12:59:05.796Z</time></trkpt><trkpt lat="45.4250517" lon="8.0809867"><ele>374.0</ele><time>2026-05-01T12:59:06.796Z</time></trkpt><trkpt lat="45.4251683" lon="8.0809533"><ele>374.0</ele><time>2026-05-01T12:59:07.796Z</time></trkpt><trkpt lat="45.4252833" lon="8.08092"><ele>374.0</ele><time>2026-05-01T12:59:08.796Z</time></trkpt><trkpt lat="45.425405" lon="8.080885"><ele>374.0</ele><time>2026-05-01T12:59:09.796Z</time></trkpt><trkpt lat="45.4255167" lon="8.080865"><ele>373.4</ele><time>2026-05-01T12:59:10.796Z</time></trkpt><trkpt lat="45.4256283" lon="8.0808333"><ele>372.79999999999995</ele><time>2026-05-01T12:59:11.796Z</time></trkpt><trkpt lat="45.425735" lon="8.080825"><ele>372.20000000000005</ele><time>2026-05-01T12:59:12.795Z</time></trkpt><trkpt lat="45.425835" lon="8.0808183"><ele>371.6</ele><time>2026-05-01T12:59:13.796Z</time></trkpt><trkpt lat="45.4259083" lon="8.0808283"><ele>371.0</ele><time>2026-05-01T12:59:14.796Z</time></trkpt><trkpt lat="45.42598" lon="8.0808517"><ele>371.0</ele><time>2026-05-01T12:59:16.796Z</time></trkpt><trkpt lat="45.4260233" lon="8.08097"><ele>371.0</ele><time>2026-05-01T12:59:18.796Z</time></trkpt><trkpt lat="45.4260433" lon="8.08108"><ele>371.0</ele><time>2026-05-01T12:59:19.796Z</time></trkpt><trkpt lat="45.4260667" lon="8.081215"><ele>371.0</ele><time>2026-05-01T12:59:20.796Z</time></trkpt><trkpt lat="45.4260983" lon="8.0813633"><ele>371.0</ele><time>2026-05-01T12:59:21.796Z</time></trkpt><trkpt lat="45.426135" lon="8.0815133"><ele>369.0</ele><time>2026-05-01T12:59:22.796Z</time></trkpt><trkpt lat="45.4261733" lon="8.0816617"><ele>367.0</ele><time>2026-05-01T12:59:23.796Z</time></trkpt><trkpt lat="45.4262217" lon="8.081785"><ele>365.0</ele><time>2026-05-01T12:59:24.796Z</time></trkpt><trkpt lat="45.4239483" lon="8.0809683"><ele>367.5</ele><time>2026-05-01T12:58:54.796Z</time></trkpt><trkpt lat="45.4240233" lon="8.0809967"><ele>370.0</ele><time>2026-05-01T12:58:55.796Z</time></trkpt><trkpt lat="45.4241067" lon="8.0810467"><ele>372.5</ele><time>2026-05-01T12:58:56.796Z</time></trkpt><trkpt lat="45.42419" lon="8.0810967"><ele>375.0</ele><time>2026-05-01T12:58:57.796Z</time></trkpt><trkpt lat="45.4242617" lon="8.0811433"><ele>377.5</ele><time>2026-05-01T12:58:58.796Z</time></trkpt><trkpt lat="45.424335" lon="8.0811833"><ele>380.0</ele><time>2026-05-01T12:58:59.796Z</time></trkpt><trkpt lat="45.4244183" lon="8.0811983"><ele>380.0</ele><time>2026-05-01T12:59:00.796Z</time></trkpt><trkpt lat="45.4245" lon="8.0811883"><ele>380.0</ele><time>2026-05-01T12:59:01.796Z</time></trkpt><trkpt lat="45.4246" lon="8.0811633"><ele>380.0</ele><time>2026-05-01T12:59:02.796Z</time></trkpt><trkpt lat="45.4247017" lon="8.0811267"><ele>380.0</ele><time>2026-05-01T12:59:03.795Z</time></trkpt><trkpt lat="45.42481" lon="8.0810783"><ele>380.0</ele><time>2026-05-01T12:59:04.795Z</time></trkpt><trkpt lat="45.4249317" lon="8.0810283"><ele>378.5</ele><time>2026-05-01T12:59:05.796Z</time></trkpt><trkpt lat="45.4250517" lon="8.0809867"><ele>377.0</ele><time>2026-05-01T12:59:06.796Z</time></trkpt><trkpt lat="45.4251683" lon="8.0809533"><ele>375.5</ele><time>2026-05-01T12:59:07.796Z</time></trkpt><trkpt lat="45.4252833" lon="8.08092"><ele>374.0</ele><time>2026-05-01T12:59:08.796Z</time></trkpt><trkpt lat="45.425405" lon="8.080885"><ele>373.4</ele><time>2026-05-01T12:59:09.796Z</time></trkpt><trkpt lat="45.4255167" lon="8.080865"><ele>372.79999999999995</ele><time>2026-05-01T12:59:10.796Z</time></trkpt><trkpt lat="45.4256283" lon="8.0808333"><ele>372.20000000000005</ele><time>2026-05-01T12:59:11.796Z</time></trkpt><trkpt lat="45.425735" lon="8.080825"><ele>371.6</ele><time>2026-05-01T12:59:12.795Z</time></trkpt><trkpt lat="45.425835" lon="8.0808183"><ele>371.0</ele><time>2026-05-01T12:59:13.796Z</time></trkpt><trkpt lat="45.4259083" lon="8.0808283"><ele>371.0</ele><time>2026-05-01T12:59:14.796Z</time></trkpt><trkpt lat="45.42598" lon="8.0808517"><ele>371.0</ele><time>2026-05-01T12:59:16.796Z</time></trkpt><trkpt lat="45.4260233" lon="8.08097"><ele>371.0</ele><time>2026-05-01T12:59:18.796Z</time></trkpt><trkpt lat="45.4260433" lon="8.08108"><ele>371.0</ele><time>2026-05-01T12:59:19.796Z</time></trkpt><trkpt lat="45.4260667" lon="8.081215"><ele>371.0</ele><time>2026-05-01T12:59:20.796Z</time></trkpt><trkpt lat="45.4260983" lon="8.0813633"><ele>371.0</ele><time>2026-05-01T12:59:21.796Z</time></trkpt><trkpt lat="45.426135" lon="8.0815133"><ele>371.0</ele><time>2026-05-01T12:59:22.796Z</time></trkpt><trkpt lat="45.4261733" lon="8.0816617"><ele>371.0</ele><time>2026-05-01T12:59:23.796Z</time></trkpt><trkpt lat="45.4262217" lon="8.081785"><ele>371.0</ele><time>2026-05-01T12:59:24.796Z</time></trkpt><trkpt lat="45.42628" lon="8.0818967"><ele>371.0</ele><time>2026-05-01T12:59:25.796Z</time></trkpt><trkpt lat="45.4263483" lon="8.08199"><ele>370.0</ele><time>2026-05-01T12:59:26.796Z</time></trkpt><trkpt lat="45.42639" lon="8.082085"><ele>369.0</ele><time>2026-05-01T12:59:27.796Z</time></trkpt><trkpt lat="45.4264233" lon="8.08217"><ele>368.0</ele><time>2026-05-01T12:59:28.796Z</time></trkpt><trkpt lat="45.426445" lon="8.0822617"><ele>367.0</ele><time>2026-05-01T12:59:29.796Z</time></trkpt><trkpt lat="45.42645" lon="8.0823567"><ele>366.0</ele><time>2026-05-01T12:59:30.796Z</time></trkpt><trkpt lat="45.426465" lon="8.08245"><ele>365.0</ele><time>2026-05-01T12:59:31.796Z</time></trkpt><trkpt lat="45.4264833" lon="8.0825367"><ele>364.0</ele><time>2026-05-01T12:59:32.796Z</time></trkpt><trkpt lat="45.4265017" lon="8.0826317"><ele>363.5</ele><time>2026-05-01T12:59:33.796Z</time></trkpt><trkpt lat="45.4265367" lon="8.0827683"><ele>363.0</ele><time>2026-05-01T12:59:35.796Z</time></trkpt><trkpt lat="45.4265783" lon="8.0828567"><ele>362.5</ele><time>2026-05-01T12:59:37.796Z</time></trkpt><trkpt lat="45.4265983" lon="8.0830017"><ele>362.0</ele><time>2026-05-01T12:59:39.796Z</time></trkpt><trkpt lat="45.4266083" lon="8.083105"><ele>361.5</ele><time>2026-05-01T12:59:40.796Z</time></trkpt><trkpt lat="45.4266167" lon="8.0832217"><ele>361.0</ele><time>2026-05-01T12:59:41.796Z</time></trkpt><trkpt lat="45.4266333" lon="8.083345"><ele>360.8</ele><time>2026-05-01T12:59:42.796Z</time></trkpt><trkpt lat="45.4266483" lon="8.083495"><ele>360.6</ele><time>2026-05-01T12:59:43.796Z</time></trkpt><trkpt lat="45.4266533" lon="8.0836467"><ele>360.4</ele><time>2026-05-01T12:59:44.796Z</time></trkpt><trkpt lat="45.4266483" lon="8.0837867"><ele>360.2</ele><time>2026-05-01T12:59:45.796Z</time></trkpt><trkpt lat="45.4266267" lon="8.0839217"><ele>360.0</ele><time>2026-05-01T12:59:46.796Z</time></trkpt><trkpt lat="45.426605" lon="8.08405"><ele>360.8</ele><time>2026-05-01T12:59:47.796Z</time></trkpt><trkpt lat="45.4265883" lon="8.08418"><ele>361.6</ele><time>2026-05-01T12:59:48.796Z</time></trkpt><trkpt lat="45.42656" lon="8.084315"><ele>362.4</ele><time>2026-05-01T12:59:49.796Z</time></trkpt><trkpt lat="45.4265383" lon="8.0844433"><ele>363.2</ele><time>2026-05-01T12:59:50.796Z</time></trkpt><trkpt lat="45.4265067" lon="8.0845783"><ele>364.0</ele><time>2026-05-01T12:59:51.795Z</time></trkpt><trkpt lat="45.426455" lon="8.084715"><ele>364.0</ele><time>2026-05-01T12:59:52.796Z</time></trkpt><trkpt lat="45.4263767" lon="8.0848583"><ele>364.0</ele><time>2026-05-01T12:59:53.796Z</time></trkpt><trkpt lat="45.4262933" lon="8.0850033"><ele>364.0</ele><time>2026-05-01T12:59:54.796Z</time></trkpt><trkpt lat="45.426225" lon="8.08519"><ele>364.0</ele><time>2026-05-01T12:59:55.796Z</time></trkpt><trkpt lat="45.4261583" lon="8.0853867"><ele>360.66666666666663</ele><time>2026-05-01T12:59:56.796Z</time></trkpt><trkpt lat="45.426095" lon="8.085585"><ele>357.3333333333333</ele><time>2026-05-01T12:59:57.796Z</time></trkpt><trkpt lat="45.4260483" lon="8.0857833"><ele>354.0</ele><time>2026-05-01T12:59:58.796Z</time></trkpt><trkpt lat="45.4259917" lon="8.0860033"><ele>350.6666666666667</ele><time>2026-05-01T12:59:59.796Z</time></trkpt><trkpt lat="45.4259433" lon="8.0862133"><ele>347.33333333333337</ele><time>2026-05-01T13:00:00.796Z</time></trkpt><trkpt lat="45.42589" lon="8.0864117"><ele>344.0</ele><time>2026-05-01T13:00:01.795Z</time></trkpt><trkpt lat="45.4258567" lon="8.0866167"><ele>342.33333333333337</ele><time>2026-05-01T13:00:02.796Z</time></trkpt><trkpt lat="45.4258517" lon="8.0868183"><ele>340.6666666666667</ele><time>2026-05-01T13:00:03.796Z</time></trkpt><trkpt lat="45.4258683" lon="8.0870467"><ele>339.0</ele><time>2026-05-01T13:00:04.796Z</time></trkpt><trkpt lat="45.4259133" lon="8.087265"><ele>338.3333333333333</ele><time>2026-05-01T13:00:05.796Z</time></trkpt><trkpt lat="45.4259567" lon="8.0874917"><ele>337.66666666666663</ele><time>2026-05-01T13:00:06.796Z</time></trkpt><trkpt lat="45.426" lon="8.08772"><ele>337.0</ele><time>2026-05-01T13:00:07.796Z</time></trkpt><trkpt lat="45.4260417" lon="8.0879533"><ele>337.0</ele><time>2026-05-01T13:00:08.796Z</time></trkpt><trkpt lat="45.42609" lon="8.08819"><ele>337.0</ele><time>2026-05-01T13:00:09.796Z</time></trkpt><trkpt lat="45.4261283" lon="8.0884167"><ele>337.0</ele><time>2026-05-01T13:00:10.796Z</time></trkpt><trkpt lat="45.4261617" lon="8.08864"><ele>336.66666666666663</ele><time>2026-05-01T13:00:11.795Z</time></trkpt><trkpt lat="45.4261917" lon="8.088865"><ele>336.3333333333333</ele><time>2026-05-01T13:00:12.795Z</time></trkpt><trkpt lat="45.42622" lon="8.0890817"><ele>336.0</ele><time>2026-05-01T13:00:13.795Z</time></trkpt><trkpt lat="45.4262433" lon="8.0892933"><ele>335.3333333333333</ele><time>2026-05-01T13:00:14.795Z</time></trkpt><trkpt lat="45.4262483" lon="8.0895117"><ele>334.66666666666663</ele><time>2026-05-01T13:00:15.795Z</time></trkpt><trkpt lat="45.426235" lon="8.089725"><ele>334.0</ele><time>2026-05-01T13:00:16.795Z</time></trkpt><trkpt lat="45.4262167" lon="8.08995"><ele>334.0</ele><time>2026-05-01T13:00:17.794Z</time></trkpt><trkpt lat="45.426195" lon="8.0901733"><ele>334.0</ele><time>2026-05-01T13:00:18.795Z</time></trkpt><trkpt lat="45.4261733" lon="8.0903917"><ele>334.0</ele><time>2026-05-01T13:00:19.795Z</time></trkpt><trkpt lat="45.4261533" lon="8.0905967"><ele>336.0</ele><time>2026-05-01T13:00:20.794Z</time></trkpt><trkpt lat="45.4261383" lon="8.09078"><ele>338.0</ele><time>2026-05-01T13:00:21.795Z</time></trkpt><trkpt lat="45.4261333" lon="8.0909533"><ele>340.0</ele><time>2026-05-01T13:00:22.795Z</time></trkpt><trkpt lat="45.4261517" lon="8.0910833"><ele>342.0</ele><time>2026-05-01T13:00:23.795Z</time></trkpt><trkpt lat="45.426205" lon="8.09118"><ele>344.0</ele><time>2026-05-01T13:00:24.794Z</time></trkpt><trkpt lat="45.4262867" lon="8.091255"><ele>343.6</ele><time>2026-05-01T13:00:25.795Z</time></trkpt><trkpt lat="45.4263867" lon="8.0913117"><ele>343.2</ele><time>2026-05-01T13:00:26.795Z</time></trkpt><trkpt lat="45.426485" lon="8.0913617"><ele>342.8</ele><time>2026-05-01T13:00:27.795Z</time></trkpt><trkpt lat="45.4265717" lon="8.0914383"><ele>342.40000000000003</ele><time>2026-05-01T13:00:28.795Z</time></trkpt><trkpt lat="45.4266417" lon="8.0915567"><ele>342.0</ele><time>2026-05-01T13:00:29.795Z</time></trkpt><trkpt lat="45.426675" lon="8.091695"><ele>342.0</ele><time>2026-05-01T13:00:30.794Z</time></trkpt><trkpt lat="45.426685" lon="8.09186"><ele>342.0</ele><time>2026-05-01T13:00:31.795Z</time></trkpt><trkpt lat="45.426675" lon="8.092055"><ele>342.0</ele><time>2026-05-01T13:00:32.795Z</time></trkpt><trkpt lat="45.4266383" lon="8.092275"><ele>342.0</ele><time>2026-05-01T13:00:33.795Z</time></trkpt><trkpt lat="45.4266533" lon="8.09249"><ele>340.25</ele><time>2026-05-01T13:00:34.795Z</time></trkpt><trkpt lat="45.4266633" lon="8.0926817"><ele>338.5</ele><time>2026-05-01T13:00:35.795Z</time></trkpt><trkpt lat="45.4267017" lon="8.092865"><ele>336.75</ele><time>2026-05-01T13:00:36.795Z</time></trkpt><trkpt lat="45.42676" lon="8.093025"><ele>335.0</ele><time>2026-05-01T13:00:37.795Z</time></trkpt><trkpt lat="45.426845" lon="8.0931733"><ele>333.75</ele><time>2026-05-01T13:00:38.795Z</time></trkpt><trkpt lat="45.4269267" lon="8.0933067"><ele>332.5</ele><time>2026-05-01T13:00:39.795Z</time></trkpt><trkpt lat="45.42701" lon="8.0934583"><ele>331.25</ele><time>2026-05-01T13:00:40.795Z</time></trkpt><trkpt lat="45.42708" lon="8.09363"><ele>330.0</ele><time>2026-05-01T13:00:41.795Z</time></trkpt><trkpt lat="45.4271233" lon="8.09382"><ele>330.0</ele><time>2026-05-01T13:00:42.795Z</time></trkpt><trkpt lat="45.4271383" lon="8.0940217"><ele>330.0</ele><time>2026-05-01T13:00:43.795Z</time></trkpt><trkpt lat="45.4271283" lon="8.09423"><ele>330.0</ele><time>2026-05-01T13:00:44.795Z</time></trkpt><trkpt lat="45.4271233" lon="8.0944333"><ele>330.0</ele><time>2026-05-01T13:00:45.795Z</time></trkpt><trkpt lat="45.4271033" lon="8.0946117"><ele>328.75</ele><time>2026-05-01T13:00:46.795Z</time></trkpt><trkpt lat="45.4270633" lon="8.0947767"><ele>327.5</ele><time>2026-05-01T13:00:47.795Z</time></trkpt><trkpt lat="45.4269967" lon="8.094905"><ele>326.25</ele><time>2026-05-01T13:00:48.795Z</time></trkpt><trkpt lat="45.4268933" lon="8.0950267"><ele>325.0</ele><time>2026-05-01T13:00:49.794Z</time></trkpt><trkpt lat="45.4267717" lon="8.0951333"><ele>322.0</ele><time>2026-05-01T13:00:50.795Z</time></trkpt><trkpt lat="45.4266433" lon="8.0952067"><ele>319.0</ele><time>2026-05-01T13:00:51.795Z</time></trkpt><trkpt lat="45.4265167" lon="8.0952517"><ele>316.0</ele><time>2026-05-01T13:00:52.795Z</time></trkpt><trkpt lat="45.4263817" lon="8.0952433"><ele>313.0</ele><time>2026-05-01T13:00:53.794Z</time></trkpt><trkpt lat="45.4262567" lon="8.09521"><ele>312.0</ele><time>2026-05-01T13:00:54.795Z</time></trkpt><trkpt lat="45.4261267" lon="8.095165"><ele>311.0</ele><time>2026-05-01T13:00:55.795Z</time></trkpt><trkpt lat="45.4259867" lon="8.09512"><ele>310.0</ele><time>2026-05-01T13:00:56.795Z</time></trkpt><trkpt lat="45.4258517" lon="8.0950767"><ele>309.0</ele><time>2026-05-01T13:00:57.795Z</time></trkpt><trkpt lat="45.4257183" lon="8.0950383"><ele>309.0</ele><time>2026-05-01T13:00:58.795Z</time></trkpt><trkpt lat="45.4256117" lon="8.094995"><ele>309.0</ele><time>2026-05-01T13:00:59.795Z</time></trkpt><trkpt lat="45.42553" lon="8.0949917"><ele>309.0</ele><time>2026-05-01T13:01:00.794Z</time></trkpt><trkpt lat="45.4254517" lon="8.0950067"><ele>309.0</ele><time>2026-05-01T13:01:01.795Z</time></trkpt><trkpt lat="45.4253883" lon="8.09506"><ele>309.0</ele><time>2026-05-01T13:01:02.795Z</time></trkpt><trkpt lat="45.4253567" lon="8.095165"><ele>309.0</ele><time>2026-05-01T13:01:03.795Z</time></trkpt><trkpt lat="45.425345" lon="8.0953217"><ele>308.5</ele><time>2026-05-01T13:01:04.795Z</time></trkpt><trkpt lat="45.4253367" lon="8.095505"><ele>308.0</ele><time>2026-05-01T13:01:05.795Z</time></trkpt><trkpt lat="45.4253133" lon="8.0956983"><ele>307.5</ele><time>2026-05-01T13:01:06.795Z</time></trkpt><trkpt lat="45.4252833" lon="8.0958833"><ele>307.0</ele><time>2026-05-01T13:01:07.795Z</time></trkpt><trkpt lat="45.4252567" lon="8.0960583"><ele>306.16666666666663</ele><time>2026-05-01T13:01:08.795Z</time></trkpt><trkpt lat="45.4252283" lon="8.0962117"><ele>305.3333333333333</ele><time>2026-05-01T13:01:09.795Z</time></trkpt><trkpt lat="45.4252083" lon="8.0963517"><ele>304.5</ele><time>2026-05-01T13:01:10.795Z</time></trkpt><trkpt lat="45.4251917" lon="8.0964617"><ele>303.6666666666667</ele><time>2026-05-01T13:01:11.795Z</time></trkpt><trkpt lat="45.4251783" lon="8.0965817"><ele>302.83333333333337</ele><time>2026-05-01T13:01:13.795Z</time></trkpt><trkpt lat="45.4252433" lon="8.0966267"><ele>302.0</ele><time>2026-05-01T13:01:16.795Z</time></trkpt><trkpt lat="45.42536" lon="8.096625"><ele>302.2</ele><time>2026-05-01T13:01:18.795Z</time></trkpt><trkpt lat="45.4254317" lon="8.096615"><ele>302.4</ele><time>2026-05-01T13:01:19.795Z</time></trkpt><trkpt lat="45.4255183" lon="8.0966033"><ele>302.6</ele><time>2026-05-01T13:01:20.795Z</time></trkpt><trkpt lat="45.4256083" lon="8.0965917"><ele>302.8</ele><time>2026-05-01T13:01:21.795Z</time></trkpt><trkpt lat="45.4257183" lon="8.0965933"><ele>303.0</ele><time>2026-05-01T13:01:22.795Z</time></trkpt><trkpt lat="45.425855" lon="8.096605"><ele>303.0</ele><time>2026-05-01T13:01:23.795Z</time></trkpt><trkpt lat="45.4259767" lon="8.0966267"><ele>303.0</ele><time>2026-05-01T13:01:24.795Z</time></trkpt><trkpt lat="45.4260883" lon="8.0966633"><ele>303.0</ele><time>2026-05-01T13:01:25.795Z</time></trkpt><trkpt lat="45.4261983" lon="8.0967067"><ele>303.0</ele><time>2026-05-01T13:01:26.795Z</time></trkpt><trkpt lat="45.4263067" lon="8.0967433"><ele>303.2</ele><time>2026-05-01T13:01:27.795Z</time></trkpt><trkpt lat="45.42642" lon="8.09679"><ele>303.4</ele><time>2026-05-01T13:01:28.795Z</time></trkpt><trkpt lat="45.42652" lon="8.0968283"><ele>303.59999999999997</ele><time>2026-05-01T13:01:29.795Z</time></trkpt><trkpt lat="45.426605" lon="8.09687"><ele>303.8</ele><time>2026-05-01T13:01:30.795Z</time></trkpt><trkpt lat="45.4266917" lon="8.0969133"><ele>304.0</ele><time>2026-05-01T13:01:31.795Z</time></trkpt><trkpt lat="45.42676" lon="8.0969333"><ele>304.0</ele><time>2026-05-01T13:01:32.795Z</time></trkpt><trkpt lat="45.4268417" lon="8.0969617"><ele>304.0</ele><time>2026-05-01T13:01:33.795Z</time></trkpt><trkpt lat="45.4269267" lon="8.0969817"><ele>304.0</ele><time>2026-05-01T13:01:34.795Z</time></trkpt><trkpt lat="45.4270167" lon="8.096985"><ele>304.0</ele><time>2026-05-01T13:01:35.795Z</time></trkpt><trkpt lat="45.4271017" lon="8.096995"><ele>304.0</ele><time>2026-05-01T13:01:36.795Z</time></trkpt><trkpt lat="45.4271767" lon="8.0970133"><ele>304.0</ele><time>2026-05-01T13:01:37.795Z</time></trkpt><trkpt lat="45.4272533" lon="8.09706"><ele>304.5</ele><time>2026-05-01T13:01:38.795Z</time></trkpt><trkpt lat="45.4273283" lon="8.0971167"><ele>305.0</ele><time>2026-05-01T13:01:39.795Z</time></trkpt><trkpt lat="45.4274083" lon="8.0971933"><ele>305.5</ele><time>2026-05-01T13:01:40.795Z</time></trkpt><trkpt lat="45.427485" lon="8.0972567"><ele>306.0</ele><time>2026-05-01T13:01:41.795Z</time></trkpt><trkpt lat="45.4275433" lon="8.0973117"><ele>306.5</ele><time>2026-05-01T13:01:42.795Z</time></trkpt><trkpt lat="45.42761" lon="8.0973833"><ele>307.0</ele><time>2026-05-01T13:01:44.795Z</time></trkpt><trkpt lat="45.4276983" lon="8.0974183"><ele>306.5</ele><time>2026-05-01T13:01:46.795Z</time></trkpt><trkpt lat="45.4277783" lon="8.0974217"><ele>306.0</ele><time>2026-05-01T13:01:47.794Z</time></trkpt><trkpt lat="45.427885" lon="8.097425"><ele>305.5</ele><time>2026-05-01T13:01:48.795Z</time></trkpt><trkpt lat="45.42803" lon="8.0974217"><ele>305.0</ele><time>2026-05-01T13:01:49.795Z</time></trkpt><trkpt lat="45.4281833" lon="8.0974217"><ele>306.75</ele><time>2026-05-01T13:01:50.795Z</time></trkpt><trkpt lat="45.4283333" lon="8.0974283"><ele>308.5</ele><time>2026-05-01T13:01:51.795Z</time></trkpt><trkpt lat="45.428475" lon="8.0974767"><ele>310.25</ele><time>2026-05-01T13:01:52.795Z</time></trkpt><trkpt lat="45.4286" lon="8.0975617"><ele>312.0</ele><time>2026-05-01T13:01:53.795Z</time></trkpt><trkpt lat="45.4287183" lon="8.0976833"><ele>316.0</ele><time>2026-05-01T13:01:54.795Z</time></trkpt><trkpt lat="45.42883" lon="8.0978017"><ele>320.0</ele><time>2026-05-01T13:01:55.795Z</time></trkpt><trkpt lat="45.4289317" lon="8.0979183"><ele>324.0</ele><time>2026-05-01T13:01:56.795Z</time></trkpt><trkpt lat="45.4290283" lon="8.0980283"><ele>328.0</ele><time>2026-05-01T13:01:57.795Z</time></trkpt><trkpt lat="45.4291183" lon="8.09812"><ele>328.0</ele><time>2026-05-01T13:01:58.795Z</time></trkpt><trkpt lat="45.4292117" lon="8.098185"><ele>328.0</ele><time>2026-05-01T13:01:59.795Z</time></trkpt><trkpt lat="45.4293117" lon="8.0982267"><ele>328.0</ele><time>2026-05-01T13:02:00.794Z</time></trkpt><trkpt lat="45.4294117" lon="8.0982417"><ele>328.0</ele><time>2026-05-01T13:02:01.795Z</time></trkpt><trkpt lat="45.4295167" lon="8.0981983"><ele>328.0</ele><time>2026-05-01T13:02:02.795Z</time></trkpt><trkpt lat="45.4296217" lon="8.0981317"><ele>326.0</ele><time>2026-05-01T13:02:03.795Z</time></trkpt><trkpt lat="45.4297067" lon="8.0980267"><ele>324.0</ele><time>2026-05-01T13:02:04.795Z</time></trkpt><trkpt lat="45.4297833" lon="8.0978717"><ele>322.0</ele><time>2026-05-01T13:02:05.795Z</time></trkpt><trkpt lat="45.4298333" lon="8.0977017"><ele>320.0</ele><time>2026-05-01T13:02:06.795Z</time></trkpt><trkpt lat="45.4298567" lon="8.0975233"><ele>320.25</ele><time>2026-05-01T13:02:07.795Z</time></trkpt><trkpt lat="45.4298667" lon="8.097335"><ele>320.5</ele><time>2026-05-01T13:02:08.795Z</time></trkpt><trkpt lat="45.4298883" lon="8.0971433"><ele>320.75</ele><time>2026-05-01T13:02:09.795Z</time></trkpt><trkpt lat="45.42992" lon="8.0969483"><ele>321.0</ele><time>2026-05-01T13:02:10.795Z</time></trkpt><trkpt lat="45.4299867" lon="8.0967917"><ele>321.0</ele><time>2026-05-01T13:02:11.795Z</time></trkpt><trkpt lat="45.4301033" lon="8.0966583"><ele>321.0</ele><time>2026-05-01T13:02:12.795Z</time></trkpt><trkpt lat="45.4302333" lon="8.09653"><ele>321.0</ele><time>2026-05-01T13:02:13.795Z</time></trkpt><trkpt lat="45.4303817" lon="8.096405"><ele>319.6666666666667</ele><time>2026-05-01T13:02:14.795Z</time></trkpt><trkpt lat="45.43054" lon="8.0962667"><ele>318.33333333333337</ele><time>2026-05-01T13:02:15.795Z</time></trkpt><trkpt lat="45.4307" lon="8.0961383"><ele>317.0</ele><time>2026-05-01T13:02:16.795Z</time></trkpt><trkpt lat="45.4308567" lon="8.0960017"><ele>317.0</ele><time>2026-05-01T13:02:17.794Z</time></trkpt><trkpt lat="45.43099" lon="8.09586"><ele>317.0</ele><time>2026-05-01T13:02:18.794Z</time></trkpt><trkpt lat="45.43112" lon="8.0957367"><ele>317.0</ele><time>2026-05-01T13:02:19.795Z</time></trkpt><trkpt lat="45.4312567" lon="8.0956233"><ele>316.0</ele><time>2026-05-01T13:02:20.795Z</time></trkpt><trkpt lat="45.4313983" lon="8.0955"><ele>315.0</ele><time>2026-05-01T13:02:21.795Z</time></trkpt><trkpt lat="45.431535" lon="8.09539"><ele>314.0</ele><time>2026-05-01T13:02:22.795Z</time></trkpt><trkpt lat="45.4316467" lon="8.0953283"><ele>313.0</ele><time>2026-05-01T13:02:23.795Z</time></trkpt><trkpt lat="45.431755" lon="8.0952917"><ele>313.0</ele><time>2026-05-01T13:02:24.795Z</time></trkpt><trkpt lat="45.43187" lon="8.0953133"><ele>313.0</ele><time>2026-05-01T13:02:25.795Z</time></trkpt><trkpt lat="45.43201" lon="8.095355"><ele>313.0</ele><time>2026-05-01T13:02:26.795Z</time></trkpt><trkpt lat="45.4321633" lon="8.0954033"><ele>313.0</ele><time>2026-05-01T13:02:27.795Z</time></trkpt><trkpt lat="45.4323367" lon="8.0954667"><ele>309.3333333333333</ele><time>2026-05-01T13:02:28.795Z</time></trkpt><trkpt lat="45.43251" lon="8.095515"><ele>305.6666666666667</ele><time>2026-05-01T13:02:29.795Z</time></trkpt><trkpt lat="45.4326867" lon="8.0955567"><ele>302.0</ele><time>2026-05-01T13:02:30.795Z</time></trkpt><trkpt lat="45.4328683" lon="8.0956067"><ele>299.33333333333337</ele><time>2026-05-01T13:02:31.795Z</time></trkpt><trkpt lat="45.4330333" lon="8.0956533"><ele>296.6666666666667</ele><time>2026-05-01T13:02:32.795Z</time></trkpt><trkpt lat="45.433205" lon="8.0957083"><ele>294.0</ele><time>2026-05-01T13:02:33.795Z</time></trkpt><trkpt lat="45.4334" lon="8.0957517"><ele>293.0</ele><time>2026-05-01T13:02:34.795Z</time></trkpt><trkpt lat="45.4335667" lon="8.0958033"><ele>292.0</ele><time>2026-05-01T13:02:35.795Z</time></trkpt><trkpt lat="45.4337433" lon="8.09585"><ele>291.0</ele><time>2026-05-01T13:02:36.795Z</time></trkpt><trkpt lat="45.43392" lon="8.09589"><ele>290.0</ele><time>2026-05-01T13:02:37.795Z</time></trkpt><trkpt lat="45.4341067" lon="8.095945"><ele>289.0</ele><time>2026-05-01T13:02:38.795Z</time></trkpt><trkpt lat="45.434285" lon="8.095995"><ele>288.0</ele><time>2026-05-01T13:02:39.795Z</time></trkpt><trkpt lat="45.4344567" lon="8.0960433"><ele>288.0</ele><time>2026-05-01T13:02:40.795Z</time></trkpt><trkpt lat="45.4346333" lon="8.0960883"><ele>288.0</ele><time>2026-05-01T13:02:41.795Z</time></trkpt><trkpt lat="45.4347983" lon="8.0961367"><ele>288.0</ele><time>2026-05-01T13:02:42.795Z</time></trkpt><trkpt lat="45.4349683" lon="8.09618"><ele>287.6666666666667</ele><time>2026-05-01T13:02:43.795Z</time></trkpt><trkpt lat="45.43514" lon="8.09623"><ele>287.33333333333337</ele><time>2026-05-01T13:02:44.795Z</time></trkpt><trkpt lat="45.435315" lon="8.0962817"><ele>287.0</ele><time>2026-05-01T13:02:45.795Z</time></trkpt><trkpt lat="45.4354933" lon="8.0963333"><ele>286.33333333333337</ele><time>2026-05-01T13:02:46.794Z</time></trkpt><trkpt lat="45.4356783" lon="8.0963833"><ele>285.6666666666667</ele><time>2026-05-01T13:02:47.795Z</time></trkpt><trkpt lat="45.4358567" lon="8.0964283"><ele>285.0</ele><time>2026-05-01T13:02:48.795Z</time></trkpt><trkpt lat="45.4360267" lon="8.0964717"><ele>285.0</ele><time>2026-05-01T13:02:49.795Z</time></trkpt><trkpt lat="45.43619" lon="8.0965317"><ele>285.0</ele><time>2026-05-01T13:02:50.794Z</time></trkpt><trkpt lat="45.4363567" lon="8.0965817"><ele>285.0</ele><time>2026-05-01T13:02:51.795Z</time></trkpt><trkpt lat="45.4365267" lon="8.096635"><ele>283.6666666666667</ele><time>2026-05-01T13:02:52.795Z</time></trkpt><trkpt lat="45.4366867" lon="8.0967033"><ele>282.33333333333337</ele><time>2026-05-01T13:02:53.795Z</time></trkpt><trkpt lat="45.43684" lon="8.0967933"><ele>281.0</ele><time>2026-05-01T13:02:54.795Z</time></trkpt><trkpt lat="45.43699" lon="8.0968983"><ele>280.6666666666667</ele><time>2026-05-01T13:02:55.795Z</time></trkpt><trkpt lat="45.43714" lon="8.09702"><ele>280.3333333333333</ele><time>2026-05-01T13:02:56.795Z</time></trkpt><trkpt lat="45.4372917" lon="8.0971483"><ele>280.0</ele><time>2026-05-01T13:02:57.795Z</time></trkpt><trkpt lat="45.437445" lon="8.0972683"><ele>280.0</ele><time>2026-05-01T13:02:58.795Z</time></trkpt><trkpt lat="45.4375867" lon="8.0973817"><ele>280.0</ele><time>2026-05-01T13:02:59.795Z</time></trkpt><trkpt lat="45.43773" lon="8.0975017"><ele>280.0</ele><time>2026-05-01T13:03:00.795Z</time></trkpt><trkpt lat="45.4378517" lon="8.09765"><ele>280.0</ele><time>2026-05-01T13:03:01.795Z</time></trkpt><trkpt lat="45.4379633" lon="8.09782"><ele>280.0</ele><time>2026-05-01T13:03:02.795Z</time></trkpt><trkpt lat="45.4380667" lon="8.0980067"><ele>280.0</ele><time>2026-05-01T13:03:03.795Z</time></trkpt><trkpt lat="45.438165" lon="8.09821"><ele>280.0</ele><time>2026-05-01T13:03:04.795Z</time></trkpt><trkpt lat="45.4382717" lon="8.0984117"><ele>280.0</ele><time>2026-05-01T13:03:05.795Z</time></trkpt><trkpt lat="45.4383767" lon="8.0986133"><ele>280.0</ele><time>2026-05-01T13:03:06.795Z</time></trkpt><trkpt lat="45.4384783" lon="8.0988083"><ele>280.0</ele><time>2026-05-01T13:03:07.795Z</time></trkpt><trkpt lat="45.43859" lon="8.09902"><ele>280.0</ele><time>2026-05-01T13:03:08.795Z</time></trkpt><trkpt lat="45.4387067" lon="8.0992233"><ele>280.0</ele><time>2026-05-01T13:03:09.795Z</time></trkpt><trkpt lat="45.4388217" lon="8.0994283"><ele>280.3333333333333</ele><time>2026-05-01T13:03:10.795Z</time></trkpt><trkpt lat="45.4389367" lon="8.0996183"><ele>280.6666666666667</ele><time>2026-05-01T13:03:11.795Z</time></trkpt><trkpt lat="45.4390417" lon="8.0998167"><ele>281.0</ele><time>2026-05-01T13:03:12.794Z</time></trkpt><trkpt lat="45.4391533" lon="8.100005"><ele>281.0</ele><time>2026-05-01T13:03:13.795Z</time></trkpt><trkpt lat="45.43926" lon="8.1002"><ele>281.0</ele><time>2026-05-01T13:03:14.795Z</time></trkpt><trkpt lat="45.43937" lon="8.1003917"><ele>281.0</ele><time>2026-05-01T13:03:15.795Z</time></trkpt><trkpt lat="45.4394817" lon="8.1005933"><ele>280.6666666666667</ele><time>2026-05-01T13:03:16.795Z</time></trkpt><trkpt lat="45.4396017" lon="8.1007733"><ele>280.3333333333333</ele><time>2026-05-01T13:03:17.795Z</time></trkpt><trkpt lat="45.4397117" lon="8.10095"><ele>280.0</ele><time>2026-05-01T13:03:18.795Z</time></trkpt><trkpt lat="45.4398367" lon="8.1011217"><ele>280.0</ele><time>2026-05-01T13:03:19.795Z</time></trkpt><trkpt lat="45.4399467" lon="8.1012933"><ele>280.0</ele><time>2026-05-01T13:03:20.795Z</time></trkpt><trkpt lat="45.4400683" lon="8.1014667"><ele>280.0</ele><time>2026-05-01T13:03:21.795Z</time></trkpt><trkpt lat="45.440195" lon="8.1016533"><ele>280.0</ele><time>2026-05-01T13:03:22.795Z</time></trkpt><trkpt lat="45.4403183" lon="8.101825"><ele>280.0</ele><time>2026-05-01T13:03:23.795Z</time></trkpt><trkpt lat="45.44044" lon="8.1019983"><ele>280.0</ele><time>2026-05-01T13:03:24.795Z</time></trkpt><trkpt lat="45.4405667" lon="8.1021733"><ele>280.3333333333333</ele><time>2026-05-01T13:03:25.795Z</time></trkpt><trkpt lat="45.4406917" lon="8.1023483"><ele>280.6666666666667</ele><time>2026-05-01T13:03:26.795Z</time></trkpt><trkpt lat="45.440815" lon="8.10252"><ele>281.0</ele><time>2026-05-01T13:03:27.795Z</time></trkpt><trkpt lat="45.44094" lon="8.102695"><ele>280.0</ele><time>2026-05-01T13:03:28.795Z</time></trkpt><trkpt lat="45.4410617" lon="8.1028767"><ele>279.0</ele><time>2026-05-01T13:03:29.795Z</time></trkpt><trkpt lat="45.4411817" lon="8.1030583"><ele>278.0</ele><time>2026-05-01T13:03:30.795Z</time></trkpt><trkpt lat="45.4413083" lon="8.1032417"><ele>276.33333333333337</ele><time>2026-05-01T13:03:31.795Z</time></trkpt><trkpt lat="45.4414433" lon="8.10342"><ele>274.6666666666667</ele><time>2026-05-01T13:03:32.795Z</time></trkpt><trkpt lat="45.4415733" lon="8.1035917"><ele>273.0</ele><time>2026-05-01T13:03:33.795Z</time></trkpt><trkpt lat="45.441705" lon="8.103765"><ele>273.0</ele><time>2026-05-01T13:03:34.795Z</time></trkpt><trkpt lat="45.4418367" lon="8.103935"><ele>273.0</ele><time>2026-05-01T13:03:35.795Z</time></trkpt><trkpt lat="45.44196" lon="8.10411"><ele>273.0</ele><time>2026-05-01T13:03:36.795Z</time></trkpt><trkpt lat="45.4420867" lon="8.1042817"><ele>272.0</ele><time>2026-05-01T13:03:37.795Z</time></trkpt><trkpt lat="45.442215" lon="8.10445"><ele>271.0</ele><time>2026-05-01T13:03:38.795Z</time></trkpt><trkpt lat="45.44235" lon="8.1046267"><ele>270.0</ele><time>2026-05-01T13:03:39.795Z</time></trkpt><trkpt lat="45.442475" lon="8.10481"><ele>269.3333333333333</ele><time>2026-05-01T13:03:40.795Z</time></trkpt><trkpt lat="45.442605" lon="8.1049783"><ele>268.66666666666663</ele><time>2026-05-01T13:03:41.795Z</time></trkpt><trkpt lat="45.442725" lon="8.1051617"><ele>268.0</ele><time>2026-05-01T13:03:42.795Z</time></trkpt><trkpt lat="45.4428483" lon="8.1053433"><ele>268.0</ele><time>2026-05-01T13:03:43.795Z</time></trkpt><trkpt lat="45.4429817" lon="8.10552"><ele>268.0</ele><time>2026-05-01T13:03:44.795Z</time></trkpt><trkpt lat="45.4431117" lon="8.105695"><ele>268.0</ele><time>2026-05-01T13:03:45.795Z</time></trkpt><trkpt lat="45.4432367" lon="8.1058667"><ele>268.0</ele><time>2026-05-01T13:03:46.795Z</time></trkpt><trkpt lat="45.443355" lon="8.1060333"><ele>268.0</ele><time>2026-05-01T13:03:47.794Z</time></trkpt><trkpt lat="45.443475" lon="8.1061983"><ele>268.0</ele><time>2026-05-01T13:03:48.794Z</time></trkpt><trkpt lat="45.4435817" lon="8.1063483"><ele>268.0</ele><time>2026-05-01T13:03:49.795Z</time></trkpt><trkpt lat="45.4436767" lon="8.106495"><ele>268.0</ele><time>2026-05-01T13:03:50.795Z</time></trkpt><trkpt lat="45.4437467" lon="8.1066517"><ele>268.0</ele><time>2026-05-01T13:03:51.795Z</time></trkpt><trkpt lat="45.4437933" lon="8.1068517"><ele>268.0</ele><time>2026-05-01T13:03:52.795Z</time></trkpt><trkpt lat="45.4438233" lon="8.10707"><ele>270.0</ele><time>2026-05-01T13:03:53.795Z</time></trkpt><trkpt lat="45.44386" lon="8.1072867"><ele>272.0</ele><time>2026-05-01T13:03:54.795Z</time></trkpt><trkpt lat="45.4438967" lon="8.1075117"><ele>274.0</ele><time>2026-05-01T13:03:55.795Z</time></trkpt><trkpt lat="45.443925" lon="8.1077217"><ele>274.3333333333333</ele><time>2026-05-01T13:03:56.795Z</time></trkpt><trkpt lat="45.4439467" lon="8.1079233"><ele>274.6666666666667</ele><time>2026-05-01T13:03:57.795Z</time></trkpt><trkpt lat="45.4439617" lon="8.1081483"><ele>275.0</ele><time>2026-05-01T13:03:58.795Z</time></trkpt><trkpt lat="45.4439717" lon="8.1083717"><ele>273.6666666666667</ele><time>2026-05-01T13:03:59.795Z</time></trkpt><trkpt lat="45.4439833" lon="8.1086"><ele>272.3333333333333</ele><time>2026-05-01T13:04:00.795Z</time></trkpt><trkpt lat="45.4439967" lon="8.1088367"><ele>271.0</ele><time>2026-05-01T13:04:01.795Z</time></trkpt><trkpt lat="45.4440083" lon="8.109065"><ele>269.0</ele><time>2026-05-01T13:04:02.795Z</time></trkpt><trkpt lat="45.4440183" lon="8.10929"><ele>267.0</ele><time>2026-05-01T13:04:03.794Z</time></trkpt><trkpt lat="45.4440233" lon="8.109515"><ele>265.0</ele><time>2026-05-01T13:04:04.795Z</time></trkpt><trkpt lat="45.4440167" lon="8.1097333"><ele>263.3333333333333</ele><time>2026-05-01T13:04:05.795Z</time></trkpt><trkpt lat="45.444" lon="8.1099517"><ele>261.6666666666667</ele><time>2026-05-01T13:04:06.795Z</time></trkpt><trkpt lat="45.443975" lon="8.1101817"><ele>260.0</ele><time>2026-05-01T13:04:07.795Z</time></trkpt><trkpt lat="45.443935" lon="8.110395"><ele>260.0</ele><time>2026-05-01T13:04:08.795Z</time></trkpt><trkpt lat="45.443905" lon="8.1105983"><ele>260.0</ele><time>2026-05-01T13:04:09.795Z</time></trkpt><trkpt lat="45.4438883" lon="8.1107967"><ele>260.0</ele><time>2026-05-01T13:04:10.795Z</time></trkpt><trkpt lat="45.4438617" lon="8.11098"><ele>260.0</ele><time>2026-05-01T13:04:11.795Z</time></trkpt><trkpt lat="45.4438533" lon="8.111145"><ele>259.8</ele><time>2026-05-01T13:04:12.795Z</time></trkpt><trkpt lat="45.44387" lon="8.111295"><ele>259.6</ele><time>2026-05-01T13:04:13.795Z</time></trkpt><trkpt lat="45.4439233" lon="8.1114283"><ele>259.4</ele><time>2026-05-01T13:04:14.795Z</time></trkpt><trkpt lat="45.44399" lon="8.1115517"><ele>259.2</ele><time>2026-05-01T13:04:15.795Z</time></trkpt><trkpt lat="45.444075" lon="8.111665"><ele>259.0</ele><time>2026-05-01T13:04:16.795Z</time></trkpt><trkpt lat="45.44415" lon="8.1117817"><ele>258.3333333333333</ele><time>2026-05-01T13:04:17.795Z</time></trkpt><trkpt lat="45.444215" lon="8.1118933"><ele>257.66666666666663</ele><time>2026-05-01T13:04:18.795Z</time></trkpt><trkpt lat="45.4442817" lon="8.1119933"><ele>257.0</ele><time>2026-05-01T13:04:19.795Z</time></trkpt><trkpt lat="45.4443383" lon="8.1120783"><ele>256.3333333333333</ele><time>2026-05-01T13:04:20.795Z</time></trkpt><trkpt lat="45.4444067" lon="8.1121583"><ele>255.66666666666666</ele><time>2026-05-01T13:04:22.794Z</time></trkpt><trkpt lat="45.4444317" lon="8.1122467"><ele>255.0</ele><time>2026-05-01T13:05:06.795Z</time></trkpt><trkpt lat="45.4445117" lon="8.1123867"><ele>253.8</ele><time>2026-05-01T13:05:08.795Z</time></trkpt><trkpt lat="45.4445733" lon="8.1124617"><ele>252.6</ele><time>2026-05-01T13:05:09.795Z</time></trkpt><trkpt lat="45.4446483" lon="8.1125583"><ele>251.39999999999998</ele><time>2026-05-01T13:05:10.795Z</time></trkpt><trkpt lat="45.4447267" lon="8.11267"><ele>250.2</ele><time>2026-05-01T13:05:11.795Z</time></trkpt><trkpt lat="45.4448117" lon="8.1127933"><ele>249.0</ele><time>2026-05-01T13:05:12.795Z</time></trkpt><trkpt lat="45.4448967" lon="8.11292"><ele>247.75</ele><time>2026-05-01T13:05:13.795Z</time></trkpt><trkpt lat="45.44498" lon="8.1130517"><ele>246.5</ele><time>2026-05-01T13:05:14.795Z</time></trkpt><trkpt lat="45.4450567" lon="8.11318"><ele>245.25</ele><time>2026-05-01T13:05:15.795Z</time></trkpt><trkpt lat="45.4451317" lon="8.113305"><ele>244.0</ele><time>2026-05-01T13:05:16.795Z</time></trkpt><trkpt lat="45.445205" lon="8.113425"><ele>243.6</ele><time>2026-05-01T13:05:17.795Z</time></trkpt><trkpt lat="45.4452733" lon="8.1135383"><ele>243.2</ele><time>2026-05-01T13:05:18.795Z</time></trkpt><trkpt lat="45.4453433" lon="8.113645"><ele>242.79999999999998</ele><time>2026-05-01T13:05:19.795Z</time></trkpt><trkpt lat="45.4454183" lon="8.1137317"><ele>242.39999999999998</ele><time>2026-05-01T13:05:20.795Z</time></trkpt><trkpt lat="45.4455117" lon="8.11379"><ele>242.0</ele><time>2026-05-01T13:05:21.795Z</time></trkpt><trkpt lat="45.4456267" lon="8.113785"><ele>240.25</ele><time>2026-05-01T13:05:22.795Z</time></trkpt><trkpt lat="45.4457483" lon="8.1137483"><ele>238.5</ele><time>2026-05-01T13:05:23.795Z</time></trkpt><trkpt lat="45.4458733" lon="8.1136817"><ele>236.75</ele><time>2026-05-01T13:05:24.795Z</time></trkpt><trkpt lat="45.446" lon="8.1136117"><ele>235.0</ele><time>2026-05-01T13:05:25.795Z</time></trkpt><trkpt lat="45.4461117" lon="8.1135333"><ele>234.99999999999997</ele><time>2026-05-01T13:05:26.795Z</time></trkpt><trkpt lat="45.4462017" lon="8.11349"><ele>235.0</ele><time>2026-05-01T13:05:27.794Z</time></trkpt><trkpt lat="45.4462633" lon="8.1134583"><ele>235.0</ele><time>2026-05-01T13:05:28.795Z</time></trkpt><trkpt lat="45.4463617" lon="8.1135"><ele>235.0</ele><time>2026-05-01T13:05:30.795Z</time></trkpt><trkpt lat="45.4463967" lon="8.1135983"><ele>234.99999999999997</ele><time>2026-05-01T13:05:32.794Z</time></trkpt><trkpt lat="45.4463667" lon="8.1137233"><ele>235.0</ele><time>2026-05-01T13:05:34.795Z</time></trkpt><trkpt lat="45.4463" lon="8.1137867"><ele>235.0</ele><time>2026-05-01T13:05:35.795Z</time></trkpt><trkpt lat="45.4461967" lon="8.113885"><ele>235.0</ele><time>2026-05-01T13:05:36.795Z</time></trkpt><trkpt lat="45.4460833" lon="8.1140133"><ele>235.0</ele><time>2026-05-01T13:05:37.795Z</time></trkpt><trkpt lat="45.4459783" lon="8.114145"><ele>235.0</ele><time>2026-05-01T13:05:38.795Z</time></trkpt><trkpt lat="45.4458833" lon="8.1142483"><ele>233.8</ele><time>2026-05-01T13:05:39.795Z</time></trkpt><trkpt lat="45.4458017" lon="8.114325"><ele>232.6</ele><time>2026-05-01T13:05:40.795Z</time></trkpt><trkpt lat="45.445735" lon="8.1144017"><ele>231.39999999999998</ele><time>2026-05-01T13:05:41.795Z</time></trkpt><trkpt lat="45.4456617" lon="8.11453"><ele>230.2</ele><time>2026-05-01T13:05:43.794Z</time></trkpt><trkpt lat="45.4456067" lon="8.1146967"><ele>229.0</ele><time>2026-05-01T13:05:45.795Z</time></trkpt><trkpt lat="45.44558" lon="8.1147967"><ele>229.0</ele><time>2026-05-01T13:05:46.795Z</time></trkpt><trkpt lat="45.4455417" lon="8.1148867"><ele>228.99999999999997</ele><time>2026-05-01T13:05:47.795Z</time></trkpt><trkpt lat="45.4454317" lon="8.1149733"><ele>228.99999999999997</ele><time>2026-05-01T13:05:49.795Z</time></trkpt><trkpt lat="45.445295" lon="8.1150217"><ele>229.0</ele><time>2026-05-01T13:05:51.795Z</time></trkpt><trkpt lat="45.4452383" lon="8.1150783"><ele>229.0</ele><time>2026-05-01T13:05:52.795Z</time></trkpt><trkpt lat="45.4451933" lon="8.115175"><ele>228.25</ele><time>2026-05-01T13:05:53.795Z</time></trkpt><trkpt lat="45.44516" lon="8.11531"><ele>227.5</ele><time>2026-05-01T13:05:54.795Z</time></trkpt><trkpt lat="45.4451533" lon="8.1154783"><ele>226.75</ele><time>2026-05-01T13:05:55.795Z</time></trkpt><trkpt lat="45.4451617" lon="8.11566"><ele>226.0</ele><time>2026-05-01T13:05:56.795Z</time></trkpt><trkpt lat="45.4451733" lon="8.11585"><ele>225.25</ele><time>2026-05-01T13:05:57.795Z</time></trkpt><trkpt lat="45.4451767" lon="8.1160167"><ele>224.5</ele><time>2026-05-01T13:05:58.795Z</time></trkpt><trkpt lat="45.4451767" lon="8.1161783"><ele>223.75</ele><time>2026-05-01T13:05:59.795Z</time></trkpt><trkpt lat="45.4451833" lon="8.1163383"><ele>223.0</ele><time>2026-05-01T13:06:00.795Z</time></trkpt><trkpt lat="45.4451983" lon="8.116495"><ele>222.5</ele><time>2026-05-01T13:06:01.795Z</time></trkpt><trkpt lat="45.4452217" lon="8.1166583"><ele>222.0</ele><time>2026-05-01T13:06:02.795Z</time></trkpt><trkpt lat="45.4452533" lon="8.1168233"><ele>221.5</ele><time>2026-05-01T13:06:03.795Z</time></trkpt><trkpt lat="45.4452983" lon="8.1169717"><ele>221.0</ele><time>2026-05-01T13:06:04.795Z</time></trkpt><trkpt lat="45.445345" lon="8.1171067"><ele>221.0</ele><time>2026-05-01T13:06:05.795Z</time></trkpt><trkpt lat="45.44538" lon="8.117235"><ele>221.00000000000003</ele><time>2026-05-01T13:06:06.795Z</time></trkpt><trkpt lat="45.4453933" lon="8.1173633"><ele>221.00000000000003</ele><time>2026-05-01T13:06:07.795Z</time></trkpt><trkpt lat="45.4453817" lon="8.1174567"><ele>221.0</ele><time>2026-05-01T13:06:08.794Z</time></trkpt><trkpt lat="45.445305" lon="8.1176417"><ele>221.0</ele><time>2026-05-01T13:06:10.795Z</time></trkpt><trkpt lat="45.4452467" lon="8.1177233"><ele>220.8</ele><time>2026-05-01T13:06:11.795Z</time></trkpt><trkpt lat="45.44517" lon="8.1178017"><ele>220.60000000000002</ele><time>2026-05-01T13:06:12.795Z</time></trkpt><trkpt lat="45.4450833" lon="8.1178633"><ele>220.4</ele><time>2026-05-01T13:06:13.795Z</time></trkpt><trkpt lat="45.4449983" lon="8.1179517"><ele>220.2</ele><time>2026-05-01T13:06:14.795Z</time></trkpt><trkpt lat="45.44493" lon="8.1180533"><ele>220.0</ele><time>2026-05-01T13:06:15.795Z</time></trkpt><trkpt lat="45.4448767" lon="8.1181933"><ele>220.25</ele><time>2026-05-01T13:06:16.795Z</time></trkpt><trkpt lat="45.4448417" lon="8.1183617"><ele>220.5</ele><time>2026-05-01T13:06:17.795Z</time></trkpt><trkpt lat="45.4448083" lon="8.1185333"><ele>220.75</ele><time>2026-05-01T13:06:18.795Z</time></trkpt><trkpt lat="45.44478" lon="8.1187317"><ele>221.0</ele><time>2026-05-01T13:06:19.795Z</time></trkpt><trkpt lat="45.44476" lon="8.1189283"><ele>221.25</ele><time>2026-05-01T13:06:20.795Z</time></trkpt><trkpt lat="45.4447483" lon="8.11912"><ele>221.5</ele><time>2026-05-01T13:06:21.795Z</time></trkpt><trkpt lat="45.4447367" lon="8.1193033"><ele>221.75</ele><time>2026-05-01T13:06:22.794Z</time></trkpt><trkpt lat="45.4447217" lon="8.1194617"><ele>222.0</ele><time>2026-05-01T13:06:23.795Z</time></trkpt><trkpt lat="45.44468" lon="8.1195917"><ele>221.5</ele><time>2026-05-01T13:06:24.795Z</time></trkpt><trkpt lat="45.4446233" lon="8.119715"><ele>221.0</ele><time>2026-05-01T13:06:25.795Z</time></trkpt><trkpt lat="45.4445483" lon="8.11984"><ele>220.5</ele><time>2026-05-01T13:06:26.795Z</time></trkpt><trkpt lat="45.44446" lon="8.11999"><ele>220.0</ele><time>2026-05-01T13:06:27.795Z</time></trkpt><trkpt lat="45.4443717" lon="8.1201717"><ele>219.66666666666666</ele><time>2026-05-01T13:06:28.795Z</time></trkpt><trkpt lat="45.4442783" lon="8.120385"><ele>219.33333333333331</ele><time>2026-05-01T13:06:29.795Z</time></trkpt><trkpt lat="45.4441833" lon="8.1206117"><ele>219.0</ele><time>2026-05-01T13:06:30.795Z</time></trkpt><trkpt lat="45.4440833" lon="8.12083"><ele>219.0</ele><time>2026-05-01T13:06:31.795Z</time></trkpt><trkpt lat="45.4439767" lon="8.1210367"><ele>219.0</ele><time>2026-05-01T13:06:32.795Z</time></trkpt><trkpt lat="45.443875" lon="8.1212483"><ele>219.0</ele><time>2026-05-01T13:06:33.795Z</time></trkpt><trkpt lat="45.44377" lon="8.121435"><ele>218.75</ele><time>2026-05-01T13:06:34.795Z</time></trkpt><trkpt lat="45.443675" lon="8.121605"><ele>218.5</ele><time>2026-05-01T13:06:35.795Z</time></trkpt><trkpt lat="45.4436017" lon="8.1217633"><ele>218.25</ele><time>2026-05-01T13:06:36.795Z</time></trkpt><trkpt lat="45.44354" lon="8.1219417"><ele>218.0</ele><time>2026-05-01T13:06:37.795Z</time></trkpt><trkpt lat="45.443485" lon="8.1221567"><ele>218.0</ele><time>2026-05-01T13:06:38.795Z</time></trkpt><trkpt lat="45.4434317" lon="8.1223733"><ele>218.0</ele><time>2026-05-01T13:06:39.795Z</time></trkpt><trkpt lat="45.4433817" lon="8.1225633"><ele>218.0</ele><time>2026-05-01T13:06:40.795Z</time></trkpt><trkpt lat="45.4433233" lon="8.1227333"><ele>218.0</ele><time>2026-05-01T13:06:41.795Z</time></trkpt><trkpt lat="45.4432617" lon="8.1228733"><ele>217.8</ele><time>2026-05-01T13:06:42.795Z</time></trkpt><trkpt lat="45.4432033" lon="8.1230133"><ele>217.60000000000002</ele><time>2026-05-01T13:06:43.795Z</time></trkpt><trkpt lat="45.4431367" lon="8.12314"><ele>217.39999999999998</ele><time>2026-05-01T13:06:44.795Z</time></trkpt><trkpt lat="45.4430767" lon="8.1232683"><ele>217.2</ele><time>2026-05-01T13:06:45.794Z</time></trkpt><trkpt lat="45.44302" lon="8.1233933"><ele>217.0</ele><time>2026-05-01T13:06:46.795Z</time></trkpt><trkpt lat="45.4429683" lon="8.1234883"><ele>216.83333333333331</ele><time>2026-05-01T13:06:47.794Z</time></trkpt><trkpt lat="45.4429233" lon="8.123575"><ele>216.66666666666666</ele><time>2026-05-01T13:06:48.794Z</time></trkpt><trkpt lat="45.4428917" lon="8.12366"><ele>216.5</ele><time>2026-05-01T13:06:49.794Z</time></trkpt><trkpt lat="45.4428583" lon="8.1237367"><ele>216.33333333333331</ele><time>2026-05-01T13:06:50.794Z</time></trkpt><trkpt lat="45.44279" lon="8.1238983"><ele>216.16666666666666</ele><time>2026-05-01T13:06:52.794Z</time></trkpt><trkpt lat="45.4427333" lon="8.1239933"><ele>216.0</ele><time>2026-05-01T13:06:53.794Z</time></trkpt><trkpt lat="45.44267" lon="8.1240683"><ele>216.0</ele><time>2026-05-01T13:06:54.794Z</time></trkpt><trkpt lat="45.4425933" lon="8.1241217"><ele>216.0</ele><time>2026-05-01T13:06:55.794Z</time></trkpt><trkpt lat="45.4425167" lon="8.12415"><ele>216.0</ele><time>2026-05-01T13:06:56.794Z</time></trkpt><trkpt lat="45.4424483" lon="8.124145"><ele>216.0</ele><time>2026-05-01T13:06:57.794Z</time></trkpt><trkpt lat="45.4423733" lon="8.12413"><ele>216.0</ele><time>2026-05-01T13:06:58.794Z</time></trkpt><trkpt lat="45.4423017" lon="8.1241283"><ele>216.0</ele><time>2026-05-01T13:06:59.794Z</time></trkpt><trkpt lat="45.4422383" lon="8.12414"><ele>216.0</ele><time>2026-05-01T13:07:00.794Z</time></trkpt><trkpt lat="45.442175" lon="8.1241633"><ele>216.0</ele><time>2026-05-01T13:07:01.794Z</time></trkpt><trkpt lat="45.4420583" lon="8.1242483"><ele>216.0</ele><time>2026-05-01T13:07:03.794Z</time></trkpt><trkpt lat="45.4419967" lon="8.1243083"><ele>216.0</ele><time>2026-05-01T13:07:04.794Z</time></trkpt><trkpt lat="45.4419417" lon="8.1243733"><ele>216.0</ele><time>2026-05-01T13:07:05.794Z</time></trkpt><trkpt lat="45.4418867" lon="8.124455"><ele>216.0</ele><time>2026-05-01T13:07:06.794Z</time></trkpt><trkpt lat="45.441835" lon="8.1245467"><ele>216.0</ele><time>2026-05-01T13:07:07.794Z</time></trkpt><trkpt lat="45.4417867" lon="8.1246533"><ele>216.0</ele><time>2026-05-01T13:07:08.794Z</time></trkpt><trkpt lat="45.4417333" lon="8.1247667"><ele>216.00000000000003</ele><time>2026-05-01T13:07:09.794Z</time></trkpt><trkpt lat="45.441675" lon="8.124885"><ele>216.00000000000003</ele><time>2026-05-01T13:07:10.794Z</time></trkpt><trkpt lat="45.4416183" lon="8.125005"><ele>216.0</ele><time>2026-05-01T13:07:11.794Z</time></trkpt><trkpt lat="45.44156" lon="8.1251267"><ele>216.0</ele><time>2026-05-01T13:07:12.794Z</time></trkpt><trkpt lat="45.4415017" lon="8.1252417"><ele>216.0</ele><time>2026-05-01T13:07:13.794Z</time></trkpt><trkpt lat="45.4414367" lon="8.125365"><ele>216.00000000000003</ele><time>2026-05-01T13:07:14.794Z</time></trkpt><trkpt lat="45.4413617" lon="8.1254817"><ele>216.00000000000003</ele><time>2026-05-01T13:07:15.794Z</time></trkpt><trkpt lat="45.441285" lon="8.1256"><ele>216.0</ele><time>2026-05-01T13:07:16.794Z</time></trkpt><trkpt lat="45.4412033" lon="8.1257167"><ele>216.0</ele><time>2026-05-01T13:07:17.794Z</time></trkpt><trkpt lat="45.4411333" lon="8.1258517"><ele>216.0</ele><time>2026-05-01T13:07:18.794Z</time></trkpt><trkpt lat="45.4410783" lon="8.1259917"><ele>216.0</ele><time>2026-05-01T13:07:19.794Z</time></trkpt><trkpt lat="45.441025" lon="8.1261433"><ele>216.0</ele><time>2026-05-01T13:07:20.794Z</time></trkpt><trkpt lat="45.440965" lon="8.1263167"><ele>216.0</ele><time>2026-05-01T13:07:21.794Z</time></trkpt><trkpt lat="45.4409033" lon="8.1264667"><ele>215.5</ele><time>2026-05-01T13:07:22.794Z</time></trkpt><trkpt lat="45.44084" lon="8.126605"><ele>215.0</ele><time>2026-05-01T13:07:23.793Z</time></trkpt><trkpt lat="45.4407667" lon="8.1267417"><ele>214.5</ele><time>2026-05-01T13:07:24.793Z</time></trkpt><trkpt lat="45.4406817" lon="8.126875"><ele>214.0</ele><time>2026-05-01T13:07:25.794Z</time></trkpt><trkpt lat="45.440595" lon="8.1270033"><ele>214.0</ele><time>2026-05-01T13:07:26.794Z</time></trkpt><trkpt lat="45.4405133" lon="8.1271183"><ele>213.99999999999997</ele><time>2026-05-01T13:07:27.794Z</time></trkpt><trkpt lat="45.4404317" lon="8.1272117"><ele>213.99999999999997</ele><time>2026-05-01T13:07:28.794Z</time></trkpt><trkpt lat="45.4403483" lon="8.127285"><ele>214.0</ele><time>2026-05-01T13:07:29.794Z</time></trkpt><trkpt lat="45.4402683" lon="8.12733"><ele>214.0</ele><time>2026-05-01T13:07:30.794Z</time></trkpt><trkpt lat="45.4401833" lon="8.12734"><ele>214.0</ele><time>2026-05-01T13:07:31.794Z</time></trkpt><trkpt lat="45.440085" lon="8.1273417"><ele>214.0</ele><time>2026-05-01T13:07:32.794Z</time></trkpt><trkpt lat="45.4399717" lon="8.1273533"><ele>214.0</ele><time>2026-05-01T13:07:33.794Z</time></trkpt><trkpt lat="45.43985" lon="8.1273867"><ele>214.0</ele><time>2026-05-01T13:07:34.793Z</time></trkpt><trkpt lat="45.439735" lon="8.12743"><ele>214.0</ele><time>2026-05-01T13:07:35.794Z</time></trkpt><trkpt lat="45.4396467" lon="8.1274667"><ele>213.99999999999997</ele><time>2026-05-01T13:07:36.794Z</time></trkpt><trkpt lat="45.4395717" lon="8.1275117"><ele>213.99999999999997</ele><time>2026-05-01T13:07:37.794Z</time></trkpt><trkpt lat="45.439495" lon="8.1275717"><ele>214.0</ele><time>2026-05-01T13:07:38.793Z</time></trkpt><trkpt lat="45.4394133" lon="8.1276467"><ele>214.0</ele><time>2026-05-01T13:07:39.794Z</time></trkpt><trkpt lat="45.4393367" lon="8.12772"><ele>213.66666666666666</ele><time>2026-05-01T13:07:40.794Z</time></trkpt><trkpt lat="45.4392633" lon="8.1277983"><ele>213.33333333333331</ele><time>2026-05-01T13:07:41.794Z</time></trkpt><trkpt lat="45.4391867" lon="8.1278883"><ele>213.0</ele><time>2026-05-01T13:07:42.794Z</time></trkpt><trkpt lat="45.4391267" lon="8.1279717"><ele>212.66666666666669</ele><time>2026-05-01T13:07:43.794Z</time></trkpt><trkpt lat="45.4390667" lon="8.1280533"><ele>212.33333333333334</ele><time>2026-05-01T13:07:44.794Z</time></trkpt><trkpt lat="45.4390017" lon="8.1281317"><ele>212.0</ele><time>2026-05-01T13:07:45.794Z</time></trkpt><trkpt lat="45.4389367" lon="8.128225"><ele>212.0</ele><time>2026-05-01T13:07:46.794Z</time></trkpt><trkpt lat="45.4388783" lon="8.1283333"><ele>212.0</ele><time>2026-05-01T13:07:47.794Z</time></trkpt><trkpt lat="45.4388167" lon="8.1284583"><ele>212.0</ele><time>2026-05-01T13:07:48.794Z</time></trkpt><trkpt lat="45.4387483" lon="8.1285867"><ele>212.0</ele><time>2026-05-01T13:07:49.794Z</time></trkpt><trkpt lat="45.4386667" lon="8.1287067"><ele>212.0</ele><time>2026-05-01T13:07:50.794Z</time></trkpt><trkpt lat="45.4385783" lon="8.1288133"><ele>212.0</ele><time>2026-05-01T13:07:51.794Z</time></trkpt><trkpt lat="45.4384783" lon="8.1289067"><ele>212.0</ele><time>2026-05-01T13:07:52.794Z</time></trkpt><trkpt lat="45.43838" lon="8.12897"><ele>212.0</ele><time>2026-05-01T13:07:53.794Z</time></trkpt><trkpt lat="45.4382667" lon="8.12902"><ele>212.0</ele><time>2026-05-01T13:07:54.794Z</time></trkpt><trkpt lat="45.4381583" lon="8.1290883"><ele>212.2</ele><time>2026-05-01T13:07:55.794Z</time></trkpt><trkpt lat="45.438065" lon="8.1291583"><ele>212.39999999999998</ele><time>2026-05-01T13:07:56.794Z</time></trkpt><trkpt lat="45.4379833" lon="8.1292267"><ele>212.60000000000002</ele><time>2026-05-01T13:07:57.794Z</time></trkpt><trkpt lat="45.4379167" lon="8.1293117"><ele>212.8</ele><time>2026-05-01T13:07:58.794Z</time></trkpt><trkpt lat="45.4378483" lon="8.12943"><ele>213.0</ele><time>2026-05-01T13:07:59.794Z</time></trkpt><trkpt lat="45.4377767" lon="8.12959"><ele>212.66666666666669</ele><time>2026-05-01T13:08:00.794Z</time></trkpt><trkpt lat="45.437705" lon="8.12978"><ele>212.33333333333334</ele><time>2026-05-01T13:08:01.794Z</time></trkpt><trkpt lat="45.4376283" lon="8.1300217"><ele>212.0</ele><time>2026-05-01T13:08:02.794Z</time></trkpt><trkpt lat="45.43756" lon="8.1302267"><ele>212.0</ele><time>2026-05-01T13:08:03.794Z</time></trkpt><trkpt lat="45.43749" lon="8.13039"><ele>212.0</ele><time>2026-05-01T13:08:04.794Z</time></trkpt><trkpt lat="45.4374067" lon="8.13052"><ele>212.0</ele><time>2026-05-01T13:08:05.793Z</time></trkpt><trkpt lat="45.4373167" lon="8.1306283"><ele>212.0</ele><time>2026-05-01T13:08:06.794Z</time></trkpt><trkpt lat="45.4372133" lon="8.1307433"><ele>211.8</ele><time>2026-05-01T13:08:07.794Z</time></trkpt><trkpt lat="45.4371117" lon="8.13085"><ele>211.6</ele><time>2026-05-01T13:08:08.794Z</time></trkpt><trkpt lat="45.4370283" lon="8.13095"><ele>211.4</ele><time>2026-05-01T13:08:09.794Z</time></trkpt><trkpt lat="45.4369667" lon="8.1310517"><ele>211.20000000000002</ele><time>2026-05-01T13:08:10.794Z</time></trkpt><trkpt lat="45.4369017" lon="8.1311733"><ele>211.0</ele><time>2026-05-01T13:08:11.794Z</time></trkpt><trkpt lat="45.4368367" lon="8.1313033"><ele>211.0</ele><time>2026-05-01T13:08:12.794Z</time></trkpt><trkpt lat="45.4367683" lon="8.1314283"><ele>211.0</ele><time>2026-05-01T13:08:13.794Z</time></trkpt><trkpt lat="45.4366967" lon="8.131555"><ele>211.0</ele><time>2026-05-01T13:08:14.794Z</time></trkpt><trkpt lat="45.4366283" lon="8.131685"><ele>211.0</ele><time>2026-05-01T13:08:15.794Z</time></trkpt><trkpt lat="45.4365617" lon="8.131805"><ele>211.0</ele><time>2026-05-01T13:08:16.793Z</time></trkpt><trkpt lat="45.4364983" lon="8.131925"><ele>211.0</ele><time>2026-05-01T13:08:17.793Z</time></trkpt><trkpt lat="45.4364283" lon="8.1320633"><ele>211.0</ele><time>2026-05-01T13:08:18.794Z</time></trkpt><trkpt lat="45.4363533" lon="8.13222"><ele>211.0</ele><time>2026-05-01T13:08:19.794Z</time></trkpt><trkpt lat="45.4362517" lon="8.13242"><ele>211.0</ele><time>2026-05-01T13:08:20.794Z</time></trkpt><trkpt lat="45.4361367" lon="8.1326283"><ele>210.66666666666666</ele><time>2026-05-01T13:08:21.794Z</time></trkpt><trkpt lat="45.4360133" lon="8.132815"><ele>210.33333333333331</ele><time>2026-05-01T13:08:22.794Z</time></trkpt><trkpt lat="45.4359033" lon="8.1329817"><ele>210.0</ele><time>2026-05-01T13:08:23.794Z</time></trkpt><trkpt lat="45.4358033" lon="8.1331567"><ele>209.75</ele><time>2026-05-01T13:08:24.794Z</time></trkpt><trkpt lat="45.4357083" lon="8.1333417"><ele>209.5</ele><time>2026-05-01T13:08:25.794Z</time></trkpt><trkpt lat="45.4356267" lon="8.133505"><ele>209.25</ele><time>2026-05-01T13:08:26.794Z</time></trkpt><trkpt lat="45.4355383" lon="8.1336617"><ele>209.0</ele><time>2026-05-01T13:08:27.794Z</time></trkpt><trkpt lat="45.435465" lon="8.1337617"><ele>209.75</ele><time>2026-05-01T13:08:28.794Z</time></trkpt><trkpt lat="45.4353833" lon="8.133845"><ele>210.5</ele><time>2026-05-01T13:08:29.793Z</time></trkpt><trkpt lat="45.4352883" lon="8.13392"><ele>211.25</ele><time>2026-05-01T13:08:30.794Z</time></trkpt><trkpt lat="45.43518" lon="8.133995"><ele>212.0</ele><time>2026-05-01T13:08:31.794Z</time></trkpt><trkpt lat="45.4350683" lon="8.1340817"><ele>212.0</ele><time>2026-05-01T13:08:32.794Z</time></trkpt><trkpt lat="45.434935" lon="8.1342067"><ele>212.0</ele><time>2026-05-01T13:08:33.794Z</time></trkpt><trkpt lat="45.4347917" lon="8.13434"><ele>212.0</ele><time>2026-05-01T13:08:34.794Z</time></trkpt><trkpt lat="45.43466" lon="8.134465"><ele>212.0</ele><time>2026-05-01T13:08:35.794Z</time></trkpt><trkpt lat="45.4345567" lon="8.134575"><ele>212.0</ele><time>2026-05-01T13:08:36.794Z</time></trkpt><trkpt lat="45.43448" lon="8.134675"><ele>212.0</ele><time>2026-05-01T13:08:37.794Z</time></trkpt><trkpt lat="45.434415" lon="8.1347633"><ele>212.0</ele><time>2026-05-01T13:08:38.794Z</time></trkpt><trkpt lat="45.4343667" lon="8.13485"><ele>212.0</ele><time>2026-05-01T13:08:39.794Z</time></trkpt><trkpt lat="45.43433" lon="8.1349417"><ele>212.00000000000003</ele><time>2026-05-01T13:08:40.794Z</time></trkpt><trkpt lat="45.4343017" lon="8.1350367"><ele>212.0</ele><time>2026-05-01T13:08:41.794Z</time></trkpt><trkpt lat="45.4342883" lon="8.1351367"><ele>212.0</ele><time>2026-05-01T13:08:42.794Z</time></trkpt><trkpt lat="45.4342783" lon="8.13525"><ele>212.0</ele><time>2026-05-01T13:08:43.794Z</time></trkpt><trkpt lat="45.434255" lon="8.13538"><ele>212.00000000000003</ele><time>2026-05-01T13:08:44.794Z</time></trkpt><trkpt lat="45.4342233" lon="8.135515"><ele>212.0</ele><time>2026-05-01T13:08:45.794Z</time></trkpt><trkpt lat="45.43419" lon="8.1356633"><ele>211.75</ele><time>2026-05-01T13:08:46.794Z</time></trkpt><trkpt lat="45.43416" lon="8.1358267"><ele>211.5</ele><time>2026-05-01T13:08:47.794Z</time></trkpt><trkpt lat="45.4341283" lon="8.1359967"><ele>211.25</ele><time>2026-05-01T13:08:48.794Z</time></trkpt><trkpt lat="45.434105" lon="8.1361517"><ele>211.0</ele><time>2026-05-01T13:08:49.794Z</time></trkpt><trkpt lat="45.4340833" lon="8.1363067"><ele>211.0</ele><time>2026-05-01T13:08:50.794Z</time></trkpt><trkpt lat="45.4340717" lon="8.13645"><ele>211.0</ele><time>2026-05-01T13:08:51.794Z</time></trkpt><trkpt lat="45.4340617" lon="8.136615"><ele>211.0</ele><time>2026-05-01T13:08:52.794Z</time></trkpt><trkpt lat="45.43406" lon="8.1367933"><ele>211.0</ele><time>2026-05-01T13:08:53.794Z</time></trkpt><trkpt lat="45.4340583" lon="8.1369833"><ele>211.0</ele><time>2026-05-01T13:08:54.794Z</time></trkpt><trkpt lat="45.4340533" lon="8.1371733"><ele>211.0</ele><time>2026-05-01T13:08:55.794Z</time></trkpt><trkpt lat="45.43405" lon="8.1373233"><ele>211.0</ele><time>2026-05-01T13:08:56.793Z</time></trkpt><trkpt lat="45.4340417" lon="8.1374483"><ele>211.0</ele><time>2026-05-01T13:08:57.794Z</time></trkpt><trkpt lat="45.4340233" lon="8.1375533"><ele>211.0</ele><time>2026-05-01T13:08:58.794Z</time></trkpt><trkpt lat="45.4339983" lon="8.1376533"><ele>210.8</ele><time>2026-05-01T13:08:59.794Z</time></trkpt><trkpt lat="45.4339617" lon="8.1377717"><ele>210.60000000000002</ele><time>2026-05-01T13:09:00.794Z</time></trkpt><trkpt lat="45.4339117" lon="8.1378967"><ele>210.4</ele><time>2026-05-01T13:09:01.794Z</time></trkpt><trkpt lat="45.4338583" lon="8.1380317"><ele>210.2</ele><time>2026-05-01T13:09:02.794Z</time></trkpt><trkpt lat="45.4338017" lon="8.1381567"><ele>210.0</ele><time>2026-05-01T13:09:03.794Z</time></trkpt><trkpt lat="45.433745" lon="8.1382567"><ele>209.83333333333334</ele><time>2026-05-01T13:09:04.794Z</time></trkpt><trkpt lat="45.4336867" lon="8.1383467"><ele>209.66666666666669</ele><time>2026-05-01T13:09:05.794Z</time></trkpt><trkpt lat="45.433635" lon="8.1384083"><ele>209.5</ele><time>2026-05-01T13:09:06.794Z</time></trkpt><trkpt lat="45.43355" lon="8.1384867"><ele>209.33333333333334</ele><time>2026-05-01T13:09:08.793Z</time></trkpt><trkpt lat="45.43351" lon="8.1385883"><ele>209.16666666666669</ele><time>2026-05-01T13:10:05.794Z</time></trkpt><trkpt lat="45.4335367" lon="8.1386883"><ele>209.0</ele><time>2026-05-01T13:10:07.794Z</time></trkpt><trkpt lat="45.4336133" lon="8.1388417"><ele>209.0</ele><time>2026-05-01T13:10:09.794Z</time></trkpt><trkpt lat="45.4336517" lon="8.138915"><ele>209.0</ele><time>2026-05-01T13:10:10.794Z</time></trkpt><trkpt lat="45.4337217" lon="8.1390367"><ele>209.0</ele><time>2026-05-01T13:10:12.794Z</time></trkpt><trkpt lat="45.4338017" lon="8.1391567"><ele>209.0</ele><time>2026-05-01T13:10:14.794Z</time></trkpt><trkpt lat="45.4338683" lon="8.139295"><ele>209.0</ele><time>2026-05-01T13:10:16.794Z</time></trkpt><trkpt lat="45.4339233" lon="8.1394217"><ele>208.75</ele><time>2026-05-01T13:10:18.794Z</time></trkpt><trkpt lat="45.4339917" lon="8.1395367"><ele>208.5</ele><time>2026-05-01T13:10:20.794Z</time></trkpt><trkpt lat="45.43407" lon="8.1396533"><ele>208.25</ele><time>2026-05-01T13:10:22.794Z</time></trkpt><trkpt lat="45.43414" lon="8.1397867"><ele>208.0</ele><time>2026-05-01T13:10:24.794Z</time></trkpt><trkpt lat="45.4342217" lon="8.1399217"><ele>207.99999999999997</ele><time>2026-05-01T13:10:26.794Z</time></trkpt><trkpt lat="45.434265" lon="8.1399983"><ele>208.0</ele><time>2026-05-01T13:10:27.794Z</time></trkpt><trkpt lat="45.4343117" lon="8.1400767"><ele>208.0</ele><time>2026-05-01T13:10:28.793Z</time></trkpt><trkpt lat="45.4343533" lon="8.1401617"><ele>208.0</ele><time>2026-05-01T13:10:29.794Z</time></trkpt><trkpt lat="45.4343883" lon="8.1402483"><ele>207.99999999999997</ele><time>2026-05-01T13:10:30.794Z</time></trkpt><trkpt lat="45.4344367" lon="8.1403967"><ele>208.0</ele><time>2026-05-01T13:10:32.794Z</time></trkpt><trkpt lat="45.4344733" lon="8.1405183"><ele>207.99999999999997</ele><time>2026-05-01T13:10:34.794Z</time></trkpt><trkpt lat="45.43449" lon="8.1406267"><ele>208.0</ele><time>2026-05-01T13:10:36.794Z</time></trkpt><trkpt lat="45.4344817" lon="8.140735"><ele>208.0</ele><time>2026-05-01T13:10:38.794Z</time></trkpt><trkpt lat="45.434485" lon="8.1408533"><ele>208.0</ele><time>2026-05-01T13:10:40.794Z</time></trkpt><trkpt lat="45.43451" lon="8.1409967"><ele>207.99999999999997</ele><time>2026-05-01T13:10:42.794Z</time></trkpt><trkpt lat="45.4345383" lon="8.141145"><ele>208.0</ele><time>2026-05-01T13:10:44.794Z</time></trkpt><trkpt lat="45.43454" lon="8.1412417"><ele>208.4</ele><time>2026-05-01T13:10:45.794Z</time></trkpt><trkpt lat="45.4345333" lon="8.1414133"><ele>208.8</ele><time>2026-05-01T13:10:47.794Z</time></trkpt><trkpt lat="45.4345233" lon="8.14155"><ele>209.2</ele><time>2026-05-01T13:10:49.794Z</time></trkpt><trkpt lat="45.43449" lon="8.1416617"><ele>209.6</ele><time>2026-05-01T13:10:51.794Z</time></trkpt><trkpt lat="45.43442" lon="8.14178"><ele>210.0</ele><time>2026-05-01T13:10:53.794Z</time></trkpt><trkpt lat="45.434375" lon="8.1418467"><ele>210.14285714285714</ele><time>2026-05-01T13:10:54.794Z</time></trkpt><trkpt lat="45.434325" lon="8.1419167"><ele>210.28571428571428</ele><time>2026-05-01T13:10:55.794Z</time></trkpt><trkpt lat="45.4342717" lon="8.14198"><ele>210.42857142857144</ele><time>2026-05-01T13:10:56.794Z</time></trkpt><trkpt lat="45.4342217" lon="8.142045"><ele>210.57142857142856</ele><time>2026-05-01T13:10:57.794Z</time></trkpt><trkpt lat="45.434175" lon="8.1421083"><ele>210.71428571428572</ele><time>2026-05-01T13:10:58.794Z</time></trkpt><trkpt lat="45.43413" lon="8.1421767"><ele>210.85714285714286</ele><time>2026-05-01T13:10:59.794Z</time></trkpt><trkpt lat="45.4340567" lon="8.14226"><ele>211.0</ele><time>2026-05-01T13:11:01.794Z</time></trkpt><trkpt lat="45.4339917" lon="8.1423333"><ele>210.49999999999997</ele><time>2026-05-01T13:11:04.794Z</time></trkpt><trkpt lat="45.4339367" lon="8.142405"><ele>210.0</ele><time>2026-05-01T13:11:07.794Z</time></trkpt><trkpt lat="45.4338817" lon="8.1424817"><ele>209.5</ele><time>2026-05-01T13:11:09.794Z</time></trkpt><trkpt lat="45.4338283" lon="8.14256"><ele>209.0</ele><time>2026-05-01T13:11:11.794Z</time></trkpt><trkpt lat="45.4337617" lon="8.142675"><ele>208.49999999999997</ele><time>2026-05-01T13:11:13.794Z</time></trkpt><trkpt lat="45.4336883" lon="8.14279"><ele>208.0</ele><time>2026-05-01T13:11:15.794Z</time></trkpt><trkpt lat="45.4336333" lon="8.1429183"><ele>208.0</ele><time>2026-05-01T13:11:17.794Z</time></trkpt><trkpt lat="45.4335833" lon="8.143075"><ele>208.0</ele><time>2026-05-01T13:11:19.793Z</time></trkpt><trkpt lat="45.4335433" lon="8.1432267"><ele>208.0</ele><time>2026-05-01T13:11:21.794Z</time></trkpt><trkpt lat="45.4335083" lon="8.1433733"><ele>208.0</ele><time>2026-05-01T13:11:23.794Z</time></trkpt><trkpt lat="45.433475" lon="8.1434883"><ele>208.0</ele><time>2026-05-01T13:11:25.794Z</time></trkpt><trkpt lat="45.4334483" lon="8.14361"><ele>207.66666666666666</ele><time>2026-05-01T13:11:27.794Z</time></trkpt><trkpt lat="45.4334283" lon="8.1437183"><ele>207.33333333333331</ele><time>2026-05-01T13:11:29.794Z</time></trkpt><trkpt lat="45.4334183" lon="8.1438633"><ele>207.0</ele><time>2026-05-01T13:11:31.794Z</time></trkpt><trkpt lat="45.43341" lon="8.1439633"><ele>206.66666666666669</ele><time>2026-05-01T13:11:32.794Z</time></trkpt><trkpt lat="45.4334" lon="8.1440633"><ele>206.33333333333334</ele><time>2026-05-01T13:11:33.794Z</time></trkpt><trkpt lat="45.433385" lon="8.14416"><ele>206.0</ele><time>2026-05-01T13:11:34.794Z</time></trkpt><trkpt lat="45.43336" lon="8.14431"><ele>206.0</ele><time>2026-05-01T13:11:36.794Z</time></trkpt><trkpt lat="45.4333267" lon="8.1445017"><ele>206.0</ele><time>2026-05-01T13:11:38.794Z</time></trkpt><trkpt lat="45.4333167" lon="8.1446117"><ele>206.0</ele><time>2026-05-01T13:11:39.794Z</time></trkpt><trkpt lat="45.4333067" lon="8.1447317"><ele>206.0</ele><time>2026-05-01T13:11:40.794Z</time></trkpt><trkpt lat="45.4332933" lon="8.1448733"><ele>206.0</ele><time>2026-05-01T13:11:41.794Z</time></trkpt><trkpt lat="45.4332783" lon="8.145055"><ele>205.66666666666669</ele><time>2026-05-01T13:11:42.794Z</time></trkpt><trkpt lat="45.4332633" lon="8.145255"><ele>205.33333333333331</ele><time>2026-05-01T13:11:43.794Z</time></trkpt><trkpt lat="45.43325" lon="8.14547"><ele>205.0</ele><time>2026-05-01T13:11:44.794Z</time></trkpt><trkpt lat="45.4332333" lon="8.1457417"><ele>204.66666666666666</ele><time>2026-05-01T13:11:45.794Z</time></trkpt><trkpt lat="45.4332183" lon="8.14598"><ele>204.33333333333331</ele><time>2026-05-01T13:11:46.794Z</time></trkpt><trkpt lat="45.4332033" lon="8.1462533"><ele>204.0</ele><time>2026-05-01T13:11:47.794Z</time></trkpt><trkpt lat="45.4331867" lon="8.1465117"><ele>204.33333333333331</ele><time>2026-05-01T13:11:48.794Z</time></trkpt><trkpt lat="45.4331717" lon="8.1467783"><ele>204.66666666666666</ele><time>2026-05-01T13:11:49.794Z</time></trkpt><trkpt lat="45.4331533" lon="8.1470317"><ele>205.0</ele><time>2026-05-01T13:11:50.794Z</time></trkpt><trkpt lat="45.4331267" lon="8.147285"><ele>205.33333333333331</ele><time>2026-05-01T13:11:51.794Z</time></trkpt><trkpt lat="45.433095" lon="8.1475783"><ele>205.66666666666669</ele><time>2026-05-01T13:11:52.794Z</time></trkpt><trkpt lat="45.4330717" lon="8.147825"><ele>206.0</ele><time>2026-05-01T13:11:53.794Z</time></trkpt><trkpt lat="45.4330517" lon="8.148055"><ele>206.0</ele><time>2026-05-01T13:11:54.794Z</time></trkpt><trkpt lat="45.4330333" lon="8.1483"><ele>206.0</ele><time>2026-05-01T13:11:55.794Z</time></trkpt><trkpt lat="45.4330133" lon="8.1485033"><ele>206.0</ele><time>2026-05-01T13:11:56.794Z</time></trkpt><trkpt lat="45.4330017" lon="8.1487017"><ele>206.0</ele><time>2026-05-01T13:11:57.794Z</time></trkpt><trkpt lat="45.432985" lon="8.1489183"><ele>206.0</ele><time>2026-05-01T13:11:58.794Z</time></trkpt><trkpt lat="45.432955" lon="8.1491483"><ele>206.0</ele><time>2026-05-01T13:11:59.794Z</time></trkpt><trkpt lat="45.4329317" lon="8.1493833"><ele>205.33333333333334</ele><time>2026-05-01T13:12:00.794Z</time></trkpt><trkpt lat="45.4329083" lon="8.149605"><ele>204.66666666666669</ele><time>2026-05-01T13:12:01.793Z</time></trkpt><trkpt lat="45.43288" lon="8.1498317"><ele>204.0</ele><time>2026-05-01T13:12:02.794Z</time></trkpt><trkpt lat="45.4328567" lon="8.150055"><ele>204.0</ele><time>2026-05-01T13:12:03.794Z</time></trkpt><trkpt lat="45.432835" lon="8.150275"><ele>204.0</ele><time>2026-05-01T13:12:04.794Z</time></trkpt><trkpt lat="45.432805" lon="8.1504917"><ele>204.0</ele><time>2026-05-01T13:12:05.794Z</time></trkpt><trkpt lat="45.4327817" lon="8.150705"><ele>203.33333333333331</ele><time>2026-05-01T13:12:06.794Z</time></trkpt><trkpt lat="45.4327583" lon="8.150915"><ele>202.66666666666666</ele><time>2026-05-01T13:12:07.794Z</time></trkpt><trkpt lat="45.4327417" lon="8.15113"><ele>202.0</ele><time>2026-05-01T13:12:08.794Z</time></trkpt><trkpt lat="45.4327133" lon="8.1513617"><ele>201.5</ele><time>2026-05-01T13:12:09.794Z</time></trkpt><trkpt lat="45.4326767" lon="8.1515867"><ele>201.0</ele><time>2026-05-01T13:12:10.794Z</time></trkpt><trkpt lat="45.4326483" lon="8.1517967"><ele>200.5</ele><time>2026-05-01T13:12:11.793Z</time></trkpt><trkpt lat="45.4326283" lon="8.1519783"><ele>200.0</ele><time>2026-05-01T13:12:12.794Z</time></trkpt><trkpt lat="45.4325983" lon="8.1521433"><ele>200.0</ele><time>2026-05-01T13:12:13.794Z</time></trkpt><trkpt lat="45.4325567" lon="8.1522917"><ele>200.0</ele><time>2026-05-01T13:12:14.794Z</time></trkpt><trkpt lat="45.4324967" lon="8.1524217"><ele>200.0</ele><time>2026-05-01T13:12:15.794Z</time></trkpt><trkpt lat="45.4324233" lon="8.1525383"><ele>200.0</ele><time>2026-05-01T13:12:16.794Z</time></trkpt><trkpt lat="45.4323317" lon="8.15265"><ele>200.0</ele><time>2026-05-01T13:12:17.794Z</time></trkpt><trkpt lat="45.4322183" lon="8.1527717"><ele>200.0</ele><time>2026-05-01T13:12:18.794Z</time></trkpt><trkpt lat="45.4320883" lon="8.1529183"><ele>200.0</ele><time>2026-05-01T13:12:19.794Z</time></trkpt><trkpt lat="45.4319283" lon="8.15306"><ele>200.0</ele><time>2026-05-01T13:12:20.794Z</time></trkpt><trkpt lat="45.431775" lon="8.153185"><ele>200.0</ele><time>2026-05-01T13:12:21.794Z</time></trkpt><trkpt lat="45.4316067" lon="8.1533117"><ele>200.0</ele><time>2026-05-01T13:12:22.794Z</time></trkpt><trkpt lat="45.43145" lon="8.1534383"><ele>200.0</ele><time>2026-05-01T13:12:23.794Z</time></trkpt><trkpt lat="45.4313117" lon="8.1535517"><ele>200.0</ele><time>2026-05-01T13:12:24.794Z</time></trkpt><trkpt lat="45.43117" lon="8.1536633"><ele>200.0</ele><time>2026-05-01T13:12:25.794Z</time></trkpt><trkpt lat="45.4310133" lon="8.1537833"><ele>200.0</ele><time>2026-05-01T13:12:26.794Z</time></trkpt><trkpt lat="45.430855" lon="8.153915"><ele>200.0</ele><time>2026-05-01T13:12:27.794Z</time></trkpt><trkpt lat="45.43071" lon="8.1540367"><ele>200.0</ele><time>2026-05-01T13:12:28.794Z</time></trkpt><trkpt lat="45.430585" lon="8.1541417"><ele>200.0</ele><time>2026-05-01T13:12:29.794Z</time></trkpt><trkpt lat="45.430465" lon="8.15424"><ele>200.0</ele><time>2026-05-01T13:12:30.794Z</time></trkpt><trkpt lat="45.4303783" lon="8.15432"><ele>200.0</ele><time>2026-05-01T13:12:31.794Z</time></trkpt><trkpt lat="45.4303017" lon="8.15439"><ele>200.0</ele><time>2026-05-01T13:12:32.794Z</time></trkpt><trkpt lat="45.4302417" lon="8.1544267"><ele>200.0</ele><time>2026-05-01T13:12:33.794Z</time></trkpt><trkpt lat="45.4301333" lon="8.1543983"><ele>200.0</ele><time>2026-05-01T13:12:35.793Z</time></trkpt><trkpt lat="45.4300617" lon="8.154345"><ele>200.0</ele><time>2026-05-01T13:12:36.794Z</time></trkpt><trkpt lat="45.4299683" lon="8.1542733"><ele>200.0</ele><time>2026-05-01T13:12:37.794Z</time></trkpt><trkpt lat="45.429855" lon="8.15419"><ele>200.0</ele><time>2026-05-01T13:12:38.794Z</time></trkpt><trkpt lat="45.4297433" lon="8.1541067"><ele>200.0</ele><time>2026-05-01T13:12:39.794Z</time></trkpt><trkpt lat="45.4296667" lon="8.154045"><ele>200.00000000000003</ele><time>2026-05-01T13:12:40.794Z</time></trkpt><trkpt lat="45.4295817" lon="8.1539833"><ele>200.0</ele><time>2026-05-01T13:12:42.794Z</time></trkpt><trkpt lat="45.4295717" lon="8.154075"><ele>200.0</ele><time>2026-05-01T13:12:45.794Z</time></trkpt><trkpt lat="45.4295717" lon="8.1542217"><ele>200.0</ele><time>2026-05-01T13:12:47.794Z</time></trkpt><trkpt lat="45.42956" lon="8.1543133"><ele>200.00000000000003</ele><time>2026-05-01T13:12:48.794Z</time></trkpt><trkpt lat="45.4295383" lon="8.1544283"><ele>200.0</ele><time>2026-05-01T13:12:49.794Z</time></trkpt><trkpt lat="45.4295083" lon="8.1545817"><ele>200.0</ele><time>2026-05-01T13:12:50.794Z</time></trkpt><trkpt lat="45.4294667" lon="8.1547817"><ele>200.0</ele><time>2026-05-01T13:12:51.794Z</time></trkpt><trkpt lat="45.4294083" lon="8.1550017"><ele>200.0</ele><time>2026-05-01T13:12:52.794Z</time></trkpt><trkpt lat="45.42935" lon="8.15524"><ele>200.0</ele><time>2026-05-01T13:12:53.794Z</time></trkpt><trkpt lat="45.4293033" lon="8.155465"><ele>200.0</ele><time>2026-05-01T13:12:54.794Z</time></trkpt><trkpt lat="45.42929" lon="8.15567"><ele>200.0</ele><time>2026-05-01T13:12:55.794Z</time></trkpt><trkpt lat="45.4292767" lon="8.15587"><ele>200.0</ele><time>2026-05-01T13:12:56.794Z</time></trkpt><trkpt lat="45.4292717" lon="8.156065"><ele>200.0</ele><time>2026-05-01T13:12:57.794Z</time></trkpt><trkpt lat="45.4292683" lon="8.1562617"><ele>200.0</ele><time>2026-05-01T13:12:58.794Z</time></trkpt><trkpt lat="45.4292633" lon="8.1564683"><ele>200.0</ele><time>2026-05-01T13:12:59.794Z</time></trkpt><trkpt lat="45.4292583" lon="8.156695"><ele>200.0</ele><time>2026-05-01T13:13:00.794Z</time></trkpt><trkpt lat="45.4292383" lon="8.1569633"><ele>200.0</ele><time>2026-05-01T13:13:01.793Z</time></trkpt><trkpt lat="45.4292217" lon="8.157225"><ele>200.0</ele><time>2026-05-01T13:13:02.794Z</time></trkpt><trkpt lat="45.4292217" lon="8.157445"><ele>199.8</ele><time>2026-05-01T13:13:03.794Z</time></trkpt><trkpt lat="45.42922" lon="8.1576367"><ele>199.6</ele><time>2026-05-01T13:13:04.793Z</time></trkpt><trkpt lat="45.42923" lon="8.15779"><ele>199.39999999999998</ele><time>2026-05-01T13:13:05.794Z</time></trkpt><trkpt lat="45.42927" lon="8.157915"><ele>199.2</ele><time>2026-05-01T13:13:06.794Z</time></trkpt><trkpt lat="45.42934" lon="8.158"><ele>199.0</ele><time>2026-05-01T13:13:07.794Z</time></trkpt><trkpt lat="45.4294033" lon="8.1580667"><ele>198.99999999999997</ele><time>2026-05-01T13:13:08.794Z</time></trkpt><trkpt lat="45.4294417" lon="8.15814"><ele>199.0</ele><time>2026-05-01T13:13:09.794Z</time></trkpt><trkpt lat="45.429455" lon="8.1583233"><ele>199.0</ele><time>2026-05-01T13:13:11.794Z</time></trkpt><trkpt lat="45.4294467" lon="8.158435"><ele>199.0</ele><time>2026-05-01T13:13:12.794Z</time></trkpt><trkpt lat="45.4294567" lon="8.15854"><ele>198.99999999999997</ele><time>2026-05-01T13:13:13.794Z</time></trkpt><trkpt lat="45.429475" lon="8.1586317"><ele>199.0</ele><time>2026-05-01T13:13:14.794Z</time></trkpt><trkpt lat="45.4295267" lon="8.15869"><ele>198.79999999999998</ele><time>2026-05-01T13:13:15.794Z</time></trkpt><trkpt lat="45.4296133" lon="8.158735"><ele>198.6</ele><time>2026-05-01T13:13:16.794Z</time></trkpt><trkpt lat="45.4297117" lon="8.1587567"><ele>198.4</ele><time>2026-05-01T13:13:17.794Z</time></trkpt><trkpt lat="45.4298033" lon="8.1587833"><ele>198.2</ele><time>2026-05-01T13:13:18.794Z</time></trkpt><trkpt lat="45.4298867" lon="8.1588617"><ele>198.0</ele><time>2026-05-01T13:13:19.794Z</time></trkpt><trkpt lat="45.4299567" lon="8.1589883"><ele>198.60000000000002</ele><time>2026-05-01T13:13:20.794Z</time></trkpt><trkpt lat="45.43002" lon="8.159125"><ele>199.20000000000002</ele><time>2026-05-01T13:13:21.794Z</time></trkpt><trkpt lat="45.4300667" lon="8.159225"><ele>199.8</ele><time>2026-05-01T13:13:22.794Z</time></trkpt><trkpt lat="45.430115" lon="8.1593683"><ele>200.4</ele><time>2026-05-01T13:13:24.794Z</time></trkpt><trkpt lat="45.4301333" lon="8.1594733"><ele>201.0</ele><time>2026-05-01T13:13:27.794Z</time></trkpt><trkpt lat="45.4300817" lon="8.1595533"><ele>201.0</ele><time>2026-05-01T13:13:34.794Z</time></trkpt><trkpt lat="45.43003" lon="8.159625"><ele>201.0</ele><time>2026-05-01T13:13:35.794Z</time></trkpt><trkpt lat="45.429965" lon="8.1596883"><ele>201.0</ele><time>2026-05-01T13:13:36.794Z</time></trkpt><trkpt lat="45.429875" lon="8.1597317"><ele>201.0</ele><time>2026-05-01T13:13:37.793Z</time></trkpt><trkpt lat="45.4297617" lon="8.159755"><ele>201.0</ele><time>2026-05-01T13:13:38.794Z</time></trkpt><trkpt lat="45.4296317" lon="8.159785"><ele>200.8</ele><time>2026-05-01T13:13:39.794Z</time></trkpt><trkpt lat="45.4295017" lon="8.15981"><ele>200.60000000000002</ele><time>2026-05-01T13:13:40.794Z</time></trkpt><trkpt lat="45.42938" lon="8.1598333"><ele>200.4</ele><time>2026-05-01T13:13:41.794Z</time></trkpt><trkpt lat="45.4292717" lon="8.1598633"><ele>200.2</ele><time>2026-05-01T13:13:42.794Z</time></trkpt><trkpt lat="45.4291933" lon="8.15989"><ele>200.0</ele><time>2026-05-01T13:13:43.794Z</time></trkpt><trkpt lat="45.4291183" lon="8.1599333"><ele>200.0</ele><time>2026-05-01T13:13:44.794Z</time></trkpt><trkpt lat="45.42907" lon="8.16"><ele>200.0</ele><time>2026-05-01T13:13:45.794Z</time></trkpt><trkpt lat="45.429045" lon="8.160095"><ele>200.0</ele><time>2026-05-01T13:13:46.794Z</time></trkpt><trkpt lat="45.4290333" lon="8.1602267"><ele>200.0</ele><time>2026-05-01T13:13:47.794Z</time></trkpt><trkpt lat="45.4290317" lon="8.1604017"><ele>200.0</ele><time>2026-05-01T13:13:48.794Z</time></trkpt><trkpt lat="45.42902" lon="8.16061"><ele>200.5</ele><time>2026-05-01T13:13:49.794Z</time></trkpt><trkpt lat="45.429005" lon="8.1607917"><ele>201.0</ele><time>2026-05-01T13:13:50.794Z</time></trkpt><trkpt lat="45.42899" lon="8.1609617"><ele>201.5</ele><time>2026-05-01T13:13:51.794Z</time></trkpt><trkpt lat="45.4290017" lon="8.1611033"><ele>202.0</ele><time>2026-05-01T13:13:52.794Z</time></trkpt><trkpt lat="45.42902" lon="8.1612633"><ele>202.0</ele><time>2026-05-01T13:13:53.794Z</time></trkpt><trkpt lat="45.4290717" lon="8.1614467"><ele>202.0</ele><time>2026-05-01T13:13:54.794Z</time></trkpt><trkpt lat="45.4291317" lon="8.1616533"><ele>202.0</ele><time>2026-05-01T13:13:55.794Z</time></trkpt><trkpt lat="45.429185" lon="8.1618583"><ele>202.0</ele><time>2026-05-01T13:13:56.794Z</time></trkpt><trkpt lat="45.4292233" lon="8.1620433"><ele>201.6</ele><time>2026-05-01T13:13:57.794Z</time></trkpt><trkpt lat="45.4292483" lon="8.1621717"><ele>201.2</ele><time>2026-05-01T13:13:58.794Z</time></trkpt><trkpt lat="45.4292583" lon="8.1622883"><ele>200.8</ele><time>2026-05-01T13:13:59.794Z</time></trkpt><trkpt lat="45.4292617" lon="8.1623883"><ele>200.4</ele><time>2026-05-01T13:14:00.794Z</time></trkpt><trkpt lat="45.429235" lon="8.16252"><ele>200.0</ele><time>2026-05-01T13:14:01.794Z</time></trkpt><trkpt lat="45.4292083" lon="8.1626733"><ele>199.8</ele><time>2026-05-01T13:14:02.794Z</time></trkpt><trkpt lat="45.4291783" lon="8.162835"><ele>199.6</ele><time>2026-05-01T13:14:03.794Z</time></trkpt><trkpt lat="45.4291417" lon="8.1629733"><ele>199.39999999999998</ele><time>2026-05-01T13:14:04.794Z</time></trkpt><trkpt lat="45.4291033" lon="8.1631"><ele>199.2</ele><time>2026-05-01T13:14:05.794Z</time></trkpt><trkpt lat="45.4290667" lon="8.1631967"><ele>199.0</ele><time>2026-05-01T13:14:06.794Z</time></trkpt><trkpt lat="45.4290233" lon="8.1632667"><ele>199.0</ele><time>2026-05-01T13:14:07.793Z</time></trkpt><trkpt lat="45.428955" lon="8.16329"><ele>199.0</ele><time>2026-05-01T13:14:09.794Z</time></trkpt><trkpt lat="45.4288167" lon="8.1632183"><ele>199.0</ele><time>2026-05-01T13:14:11.794Z</time></trkpt><trkpt lat="45.4287067" lon="8.1631533"><ele>199.0</ele><time>2026-05-01T13:14:12.794Z</time></trkpt><trkpt lat="45.4285583" lon="8.163075"><ele>198.33333333333331</ele><time>2026-05-01T13:14:13.794Z</time></trkpt><trkpt lat="45.4283767" lon="8.1629833"><ele>197.66666666666669</ele><time>2026-05-01T13:14:14.794Z</time></trkpt><trkpt lat="45.4281767" lon="8.162885"><ele>197.0</ele><time>2026-05-01T13:14:15.794Z</time></trkpt><trkpt lat="45.427965" lon="8.16279"><ele>197.0</ele><time>2026-05-01T13:14:16.794Z</time></trkpt><trkpt lat="45.427775" lon="8.1627"><ele>197.0</ele><time>2026-05-01T13:14:17.794Z</time></trkpt><trkpt lat="45.4276083" lon="8.1626233"><ele>197.0</ele><time>2026-05-01T13:14:18.794Z</time></trkpt><trkpt lat="45.427465" lon="8.16255"><ele>197.0</ele><time>2026-05-01T13:14:19.794Z</time></trkpt><trkpt lat="45.4273383" lon="8.162485"><ele>197.0</ele><time>2026-05-01T13:14:20.793Z</time></trkpt><trkpt lat="45.4272317" lon="8.16244"><ele>197.0</ele><time>2026-05-01T13:14:21.794Z</time></trkpt><trkpt lat="45.4271333" lon="8.16242"><ele>197.0</ele><time>2026-05-01T13:14:22.794Z</time></trkpt><trkpt lat="45.4270317" lon="8.162375"><ele>197.66666666666669</ele><time>2026-05-01T13:14:23.794Z</time></trkpt><trkpt lat="45.4269167" lon="8.1623133"><ele>198.33333333333331</ele><time>2026-05-01T13:14:24.794Z</time></trkpt><trkpt lat="45.426775" lon="8.1622433"><ele>199.0</ele><time>2026-05-01T13:14:25.794Z</time></trkpt><trkpt lat="45.4266017" lon="8.1621733"><ele>199.0</ele><time>2026-05-01T13:14:26.794Z</time></trkpt><trkpt lat="45.426425" lon="8.1621"><ele>199.0</ele><time>2026-05-01T13:14:27.794Z</time></trkpt><trkpt lat="45.4262517" lon="8.1620367"><ele>199.0</ele><time>2026-05-01T13:14:28.794Z</time></trkpt><trkpt lat="45.4260883" lon="8.161965"><ele>198.66666666666666</ele><time>2026-05-01T13:14:29.794Z</time></trkpt><trkpt lat="45.4259217" lon="8.16188"><ele>198.33333333333331</ele><time>2026-05-01T13:14:30.794Z</time></trkpt><trkpt lat="45.425735" lon="8.1617983"><ele>198.0</ele><time>2026-05-01T13:14:31.794Z</time></trkpt><trkpt lat="45.425545" lon="8.1617133"><ele>198.0</ele><time>2026-05-01T13:14:32.794Z</time></trkpt><trkpt lat="45.4253767" lon="8.16164"><ele>198.0</ele><time>2026-05-01T13:14:33.794Z</time></trkpt><trkpt lat="45.4252167" lon="8.161565"><ele>198.0</ele><time>2026-05-01T13:14:34.794Z</time></trkpt><trkpt lat="45.42505" lon="8.1614933"><ele>199.0</ele><time>2026-05-01T13:14:35.794Z</time></trkpt><trkpt lat="45.4248917" lon="8.1614317"><ele>200.0</ele><time>2026-05-01T13:14:36.793Z</time></trkpt><trkpt lat="45.424745" lon="8.16137"><ele>201.0</ele><time>2026-05-01T13:14:37.794Z</time></trkpt><trkpt lat="45.424615" lon="8.16131"><ele>204.20000000000002</ele><time>2026-05-01T13:14:38.793Z</time></trkpt><trkpt lat="45.424515" lon="8.1612633"><ele>207.4</ele><time>2026-05-01T13:14:39.792Z</time></trkpt><trkpt lat="45.424445" lon="8.16123"><ele>210.6</ele><time>2026-05-01T13:14:40.792Z</time></trkpt><trkpt lat="45.4243683" lon="8.1611333"><ele>213.8</ele><time>2026-05-01T13:14:42.793Z</time></trkpt><trkpt lat="45.42441" lon="8.161045"><ele>217.0</ele><time>2026-05-01T13:14:45.793Z</time></trkpt><trkpt lat="45.4245" lon="8.1609833"><ele>216.99999999999997</ele><time>2026-05-01T13:14:47.793Z</time></trkpt><trkpt lat="45.424565" lon="8.160935"><ele>217.0</ele><time>2026-05-01T13:14:48.793Z</time></trkpt><trkpt lat="45.4246367" lon="8.1608783"><ele>217.0</ele><time>2026-05-01T13:14:49.793Z</time></trkpt><trkpt lat="45.4247083" lon="8.1608283"><ele>217.0</ele><time>2026-05-01T13:14:50.793Z</time></trkpt><trkpt lat="45.4247783" lon="8.160765"><ele>216.99999999999997</ele><time>2026-05-01T13:14:51.793Z</time></trkpt><trkpt lat="45.4248417" lon="8.1606917"><ele>217.0</ele><time>2026-05-01T13:14:52.793Z</time></trkpt><trkpt lat="45.4249233" lon="8.16057"><ele>215.2</ele><time>2026-05-01T13:14:54.793Z</time></trkpt><trkpt lat="45.4249983" lon="8.1604217"><ele>213.39999999999998</ele><time>2026-05-01T13:14:56.793Z</time></trkpt><trkpt lat="45.4250233" lon="8.160325"><ele>211.60000000000002</ele><time>2026-05-01T13:14:57.793Z</time></trkpt><trkpt lat="45.4250433" lon="8.1602267"><ele>209.8</ele><time>2026-05-01T13:14:58.793Z</time></trkpt><trkpt lat="45.4250567" lon="8.16013"><ele>208.0</ele><time>2026-05-01T13:14:59.793Z</time></trkpt><trkpt lat="45.42507" lon="8.1599417"><ele>208.8</ele><time>2026-05-01T13:15:01.793Z</time></trkpt><trkpt lat="45.42508" lon="8.15983"><ele>209.60000000000002</ele><time>2026-05-01T13:15:02.792Z</time></trkpt><trkpt lat="45.4251" lon="8.1597"><ele>210.39999999999998</ele><time>2026-05-01T13:15:03.793Z</time></trkpt><trkpt lat="45.4251317" lon="8.1595467"><ele>211.2</ele><time>2026-05-01T13:15:04.793Z</time></trkpt><trkpt lat="45.425175" lon="8.1593867"><ele>212.0</ele><time>2026-05-01T13:15:05.793Z</time></trkpt><trkpt lat="45.4252267" lon="8.1592267"><ele>212.0</ele><time>2026-05-01T13:15:06.793Z</time></trkpt><trkpt lat="45.4252967" lon="8.1590583"><ele>212.0</ele><time>2026-05-01T13:15:07.793Z</time></trkpt><trkpt lat="45.425365" lon="8.1588867"><ele>212.0</ele><time>2026-05-01T13:15:08.793Z</time></trkpt><trkpt lat="45.42543" lon="8.1587283"><ele>212.0</ele><time>2026-05-01T13:15:09.793Z</time></trkpt><trkpt lat="45.4255" lon="8.1585767"><ele>211.5</ele><time>2026-05-01T13:15:10.793Z</time></trkpt><trkpt lat="45.4255767" lon="8.1584267"><ele>211.0</ele><time>2026-05-01T13:15:11.793Z</time></trkpt><trkpt lat="45.4256583" lon="8.15828"><ele>210.5</ele><time>2026-05-01T13:15:12.793Z</time></trkpt><trkpt lat="45.4257483" lon="8.1581633"><ele>210.0</ele><time>2026-05-01T13:15:13.793Z</time></trkpt><trkpt lat="45.4258233" lon="8.158045"><ele>210.0</ele><time>2026-05-01T13:15:14.793Z</time></trkpt><trkpt lat="45.4258933" lon="8.157935"><ele>210.0</ele><time>2026-05-01T13:15:15.793Z</time></trkpt><trkpt lat="45.425945" lon="8.1578017"><ele>210.0</ele><time>2026-05-01T13:15:16.793Z</time></trkpt><trkpt lat="45.4259867" lon="8.1576683"><ele>210.0</ele><time>2026-05-01T13:15:17.793Z</time></trkpt><trkpt lat="45.426015" lon="8.157525"><ele>210.0</ele><time>2026-05-01T13:15:18.792Z</time></trkpt><trkpt lat="45.42604" lon="8.1573733"><ele>211.5</ele><time>2026-05-01T13:15:19.793Z</time></trkpt><trkpt lat="45.4260767" lon="8.1571967"><ele>213.0</ele><time>2026-05-01T13:15:20.793Z</time></trkpt><trkpt lat="45.426125" lon="8.1570033"><ele>214.5</ele><time>2026-05-01T13:15:21.793Z</time></trkpt><trkpt lat="45.4261833" lon="8.1568"><ele>216.0</ele><time>2026-05-01T13:15:22.793Z</time></trkpt><trkpt lat="45.4262417" lon="8.1565867"><ele>217.5</ele><time>2026-05-01T13:15:23.793Z</time></trkpt><trkpt lat="45.4262833" lon="8.1564017"><ele>219.0</ele><time>2026-05-01T13:15:24.793Z</time></trkpt><trkpt lat="45.4263233" lon="8.1562183"><ele>220.5</ele><time>2026-05-01T13:15:25.793Z</time></trkpt><trkpt lat="45.4263567" lon="8.1560267"><ele>222.0</ele><time>2026-05-01T13:15:26.792Z</time></trkpt><trkpt lat="45.4264" lon="8.1558633"><ele>218.25</ele><time>2026-05-01T13:15:27.793Z</time></trkpt><trkpt lat="45.4264567" lon="8.1557033"><ele>214.5</ele><time>2026-05-01T13:15:28.793Z</time></trkpt><trkpt lat="45.4265283" lon="8.1555233"><ele>210.75</ele><time>2026-05-01T13:15:29.792Z</time></trkpt><trkpt lat="45.4266" lon="8.1553367"><ele>207.0</ele><time>2026-05-01T13:15:30.793Z</time></trkpt><trkpt lat="45.4266767" lon="8.1551367"><ele>207.0</ele><time>2026-05-01T13:15:31.793Z</time></trkpt><trkpt lat="45.4267583" lon="8.1549433"><ele>207.0</ele><time>2026-05-01T13:15:32.793Z</time></trkpt><trkpt lat="45.4268367" lon="8.1547317"><ele>207.0</ele><time>2026-05-01T13:15:33.793Z</time></trkpt><trkpt lat="45.42692" lon="8.1545233"><ele>206.66666666666669</ele><time>2026-05-01T13:15:34.793Z</time></trkpt><trkpt lat="45.4269983" lon="8.154315"><ele>206.33333333333334</ele><time>2026-05-01T13:15:35.793Z</time></trkpt><trkpt lat="45.427075" lon="8.15412"><ele>206.0</ele><time>2026-05-01T13:15:36.793Z</time></trkpt><trkpt lat="45.4271533" lon="8.1539467"><ele>206.0</ele><time>2026-05-01T13:15:37.793Z</time></trkpt><trkpt lat="45.4272417" lon="8.1537917"><ele>206.0</ele><time>2026-05-01T13:15:38.793Z</time></trkpt><trkpt lat="45.4273467" lon="8.1536283"><ele>206.0</ele><time>2026-05-01T13:15:39.793Z</time></trkpt><trkpt lat="45.42744" lon="8.1534617"><ele>206.0</ele><time>2026-05-01T13:15:40.793Z</time></trkpt><trkpt lat="45.4275267" lon="8.1532767"><ele>208.5</ele><time>2026-05-01T13:15:41.793Z</time></trkpt><trkpt lat="45.42761" lon="8.1531117"><ele>211.0</ele><time>2026-05-01T13:15:42.793Z</time></trkpt><trkpt lat="45.4276917" lon="8.1529633"><ele>213.5</ele><time>2026-05-01T13:15:43.793Z</time></trkpt><trkpt lat="45.427765" lon="8.1528017"><ele>216.0</ele><time>2026-05-01T13:15:44.793Z</time></trkpt><trkpt lat="45.4278267" lon="8.1526233"><ele>216.0</ele><time>2026-05-01T13:15:45.793Z</time></trkpt><trkpt lat="45.427905" lon="8.1524317"><ele>216.0</ele><time>2026-05-01T13:15:46.793Z</time></trkpt><trkpt lat="45.42799" lon="8.1522383"><ele>216.0</ele><time>2026-05-01T13:15:47.793Z</time></trkpt><trkpt lat="45.4280767" lon="8.152015"><ele>215.66666666666669</ele><time>2026-05-01T13:15:48.793Z</time></trkpt><trkpt lat="45.4281583" lon="8.1518033"><ele>215.33333333333334</ele><time>2026-05-01T13:15:49.793Z</time></trkpt><trkpt lat="45.4282417" lon="8.1516217"><ele>215.0</ele><time>2026-05-01T13:15:50.793Z</time></trkpt><trkpt lat="45.4283067" lon="8.1514567"><ele>215.0</ele><time>2026-05-01T13:15:51.793Z</time></trkpt><trkpt lat="45.42837" lon="8.1513233"><ele>215.0</ele><time>2026-05-01T13:15:52.793Z</time></trkpt><trkpt lat="45.4284433" lon="8.1512167"><ele>215.0</ele><time>2026-05-01T13:15:53.793Z</time></trkpt><trkpt lat="45.4285433" lon="8.151125"><ele>215.0</ele><time>2026-05-01T13:15:54.793Z</time></trkpt><trkpt lat="45.4286217" lon="8.15104"><ele>215.0</ele><time>2026-05-01T13:15:55.793Z</time></trkpt><trkpt lat="45.428695" lon="8.1509417"><ele>215.0</ele><time>2026-05-01T13:15:56.792Z</time></trkpt><trkpt lat="45.4287567" lon="8.1508317"><ele>215.0</ele><time>2026-05-01T13:15:57.792Z</time></trkpt><trkpt lat="45.428805" lon="8.1506983"><ele>215.0</ele><time>2026-05-01T13:15:58.793Z</time></trkpt><trkpt lat="45.4288467" lon="8.1505333"><ele>215.0</ele><time>2026-05-01T13:15:59.793Z</time></trkpt><trkpt lat="45.428885" lon="8.1503333"><ele>214.25</ele><time>2026-05-01T13:16:00.793Z</time></trkpt><trkpt lat="45.42893" lon="8.1501233"><ele>213.5</ele><time>2026-05-01T13:16:01.793Z</time></trkpt><trkpt lat="45.4289883" lon="8.1499233"><ele>212.75</ele><time>2026-05-01T13:16:02.793Z</time></trkpt><trkpt lat="45.42905" lon="8.1497483"><ele>212.0</ele><time>2026-05-01T13:16:03.793Z</time></trkpt><trkpt lat="45.429095" lon="8.1496083"><ele>212.0</ele><time>2026-05-01T13:16:04.793Z</time></trkpt><trkpt lat="45.42913" lon="8.1494533"><ele>212.0</ele><time>2026-05-01T13:16:05.792Z</time></trkpt><trkpt lat="45.4291383" lon="8.1492833"><ele>212.0</ele><time>2026-05-01T13:16:06.793Z</time></trkpt><trkpt lat="45.42913" lon="8.1490983"><ele>212.0</ele><time>2026-05-01T13:16:07.793Z</time></trkpt><trkpt lat="45.429125" lon="8.1489133"><ele>212.8</ele><time>2026-05-01T13:16:08.793Z</time></trkpt><trkpt lat="45.4291383" lon="8.148755"><ele>213.6</ele><time>2026-05-01T13:16:09.792Z</time></trkpt><trkpt lat="45.4291733" lon="8.1486217"><ele>214.40000000000003</ele><time>2026-05-01T13:16:10.793Z</time></trkpt><trkpt lat="45.4292083" lon="8.1485017"><ele>215.20000000000002</ele><time>2026-05-01T13:16:11.793Z</time></trkpt><trkpt lat="45.4292167" lon="8.148385"><ele>216.0</ele><time>2026-05-01T13:16:12.793Z</time></trkpt><trkpt lat="45.4292417" lon="8.1482317"><ele>216.0</ele><time>2026-05-01T13:16:14.793Z</time></trkpt><trkpt lat="45.4292317" lon="8.1481133"><ele>216.00000000000003</ele><time>2026-05-01T13:16:16.793Z</time></trkpt><trkpt lat="45.4292067" lon="8.14798"><ele>216.00000000000003</ele><time>2026-05-01T13:16:18.793Z</time></trkpt><trkpt lat="45.42917" lon="8.1478167"><ele>216.0</ele><time>2026-05-01T13:16:20.793Z</time></trkpt><trkpt lat="45.429135" lon="8.147725"><ele>216.0</ele><time>2026-05-01T13:16:21.793Z</time></trkpt><trkpt lat="45.42909" lon="8.147625"><ele>216.0</ele><time>2026-05-01T13:16:22.793Z</time></trkpt><trkpt lat="45.4290367" lon="8.1475233"><ele>216.00000000000003</ele><time>2026-05-01T13:16:23.793Z</time></trkpt><trkpt lat="45.4289633" lon="8.1474267"><ele>216.00000000000003</ele><time>2026-05-01T13:16:24.793Z</time></trkpt><trkpt lat="45.42888" lon="8.1473167"><ele>216.0</ele><time>2026-05-01T13:16:25.793Z</time></trkpt><trkpt lat="45.4288017" lon="8.1471867"><ele>216.0</ele><time>2026-05-01T13:16:26.793Z</time></trkpt><trkpt lat="45.428735" lon="8.1470533"><ele>219.0</ele><time>2026-05-01T13:16:27.793Z</time></trkpt><trkpt lat="45.4286633" lon="8.146945"><ele>222.0</ele><time>2026-05-01T13:16:28.793Z</time></trkpt><trkpt lat="45.4285917" lon="8.146835"><ele>225.0</ele><time>2026-05-01T13:16:29.793Z</time></trkpt><trkpt lat="45.42851" lon="8.1467"><ele>228.0</ele><time>2026-05-01T13:16:30.793Z</time></trkpt><trkpt lat="45.42842" lon="8.146545"><ele>228.5</ele><time>2026-05-01T13:16:31.793Z</time></trkpt><trkpt lat="45.4283433" lon="8.1463667"><ele>229.0</ele><time>2026-05-01T13:16:32.793Z</time></trkpt><trkpt lat="45.4282733" lon="8.1461983"><ele>229.5</ele><time>2026-05-01T13:16:33.793Z</time></trkpt><trkpt lat="45.4282" lon="8.1460317"><ele>230.0</ele><time>2026-05-01T13:16:34.793Z</time></trkpt><trkpt lat="45.4281283" lon="8.145895"><ele>230.0</ele><time>2026-05-01T13:16:35.793Z</time></trkpt><trkpt lat="45.4280617" lon="8.1457517"><ele>230.0</ele><time>2026-05-01T13:16:36.793Z</time></trkpt><trkpt lat="45.4280033" lon="8.145605"><ele>230.0</ele><time>2026-05-01T13:16:37.793Z</time></trkpt><trkpt lat="45.4279517" lon="8.14545"><ele>230.0</ele><time>2026-05-01T13:16:38.793Z</time></trkpt><trkpt lat="45.4278867" lon="8.1452817"><ele>229.66666666666669</ele><time>2026-05-01T13:16:39.793Z</time></trkpt><trkpt lat="45.4278" lon="8.1451083"><ele>229.33333333333331</ele><time>2026-05-01T13:16:40.793Z</time></trkpt><trkpt lat="45.4276883" lon="8.14493"><ele>229.0</ele><time>2026-05-01T13:16:41.793Z</time></trkpt><trkpt lat="45.427565" lon="8.1447617"><ele>229.0</ele><time>2026-05-01T13:16:42.793Z</time></trkpt><trkpt lat="45.42744" lon="8.144595"><ele>229.0</ele><time>2026-05-01T13:16:43.793Z</time></trkpt><trkpt lat="45.4273183" lon="8.1444083"><ele>229.0</ele><time>2026-05-01T13:16:44.793Z</time></trkpt><trkpt lat="45.4272033" lon="8.1442267"><ele>229.0</ele><time>2026-05-01T13:16:45.793Z</time></trkpt><trkpt lat="45.4270917" lon="8.1440617"><ele>229.0</ele><time>2026-05-01T13:16:46.793Z</time></trkpt><trkpt lat="45.4269867" lon="8.1438967"><ele>229.0</ele><time>2026-05-01T13:16:47.792Z</time></trkpt><trkpt lat="45.4268733" lon="8.14374"><ele>229.0</ele><time>2026-05-01T13:16:48.792Z</time></trkpt><trkpt lat="45.4267733" lon="8.1435917"><ele>229.0</ele><time>2026-05-01T13:16:49.793Z</time></trkpt><trkpt lat="45.4266833" lon="8.1434567"><ele>229.0</ele><time>2026-05-01T13:16:50.793Z</time></trkpt><trkpt lat="45.4266" lon="8.143325"><ele>229.0</ele><time>2026-05-01T13:16:51.793Z</time></trkpt><trkpt lat="45.4265167" lon="8.1432083"><ele>229.2</ele><time>2026-05-01T13:16:52.793Z</time></trkpt><trkpt lat="45.426435" lon="8.1430967"><ele>229.39999999999998</ele><time>2026-05-01T13:16:53.793Z</time></trkpt><trkpt lat="45.4263617" lon="8.1429817"><ele>229.6</ele><time>2026-05-01T13:16:54.793Z</time></trkpt><trkpt lat="45.4262867" lon="8.14287"><ele>229.8</ele><time>2026-05-01T13:16:55.793Z</time></trkpt><trkpt lat="45.4262167" lon="8.1427617"><ele>230.0</ele><time>2026-05-01T13:16:56.793Z</time></trkpt><trkpt lat="45.4261467" lon="8.1426633"><ele>230.0</ele><time>2026-05-01T13:16:57.793Z</time></trkpt><trkpt lat="45.426065" lon="8.142565"><ele>230.0</ele><time>2026-05-01T13:16:58.793Z</time></trkpt><trkpt lat="45.4259833" lon="8.1424467"><ele>230.0</ele><time>2026-05-01T13:16:59.793Z</time></trkpt><trkpt lat="45.4259117" lon="8.1423267"><ele>230.0</ele><time>2026-05-01T13:17:00.793Z</time></trkpt><trkpt lat="45.42584" lon="8.142205"><ele>230.0</ele><time>2026-05-01T13:17:01.793Z</time></trkpt><trkpt lat="45.4257783" lon="8.1420917"><ele>230.0</ele><time>2026-05-01T13:17:02.793Z</time></trkpt><trkpt lat="45.425715" lon="8.141995"><ele>230.0</ele><time>2026-05-01T13:17:03.793Z</time></trkpt><trkpt lat="45.4256467" lon="8.141895"><ele>230.0</ele><time>2026-05-01T13:17:04.793Z</time></trkpt><trkpt lat="45.425585" lon="8.1418067"><ele>230.0</ele><time>2026-05-01T13:17:05.793Z</time></trkpt><trkpt lat="45.4255133" lon="8.1417083"><ele>230.0</ele><time>2026-05-01T13:17:06.793Z</time></trkpt><trkpt lat="45.425455" lon="8.1416033"><ele>229.8</ele><time>2026-05-01T13:17:07.793Z</time></trkpt><trkpt lat="45.425395" lon="8.141505"><ele>229.6</ele><time>2026-05-01T13:17:08.793Z</time></trkpt><trkpt lat="45.4253383" lon="8.1414083"><ele>229.39999999999998</ele><time>2026-05-01T13:17:09.793Z</time></trkpt><trkpt lat="45.4252683" lon="8.1413167"><ele>229.2</ele><time>2026-05-01T13:17:10.793Z</time></trkpt><trkpt lat="45.4251967" lon="8.14123"><ele>229.0</ele><time>2026-05-01T13:17:11.793Z</time></trkpt><trkpt lat="45.42514" lon="8.1411267"><ele>229.0</ele><time>2026-05-01T13:17:12.793Z</time></trkpt><trkpt lat="45.4250883" lon="8.14101"><ele>228.99999999999997</ele><time>2026-05-01T13:17:13.792Z</time></trkpt><trkpt lat="45.4250333" lon="8.1408883"><ele>228.99999999999997</ele><time>2026-05-01T13:17:14.793Z</time></trkpt><trkpt lat="45.4249717" lon="8.1407583"><ele>229.0</ele><time>2026-05-01T13:17:15.793Z</time></trkpt><trkpt lat="45.4249167" lon="8.14061"><ele>229.0</ele><time>2026-05-01T13:17:16.793Z</time></trkpt><trkpt lat="45.4248617" lon="8.1404567"><ele>229.25</ele><time>2026-05-01T13:17:17.793Z</time></trkpt><trkpt lat="45.4247983" lon="8.1403"><ele>229.5</ele><time>2026-05-01T13:17:18.793Z</time></trkpt><trkpt lat="45.42474" lon="8.14014"><ele>229.75</ele><time>2026-05-01T13:17:19.793Z</time></trkpt><trkpt lat="45.4246817" lon="8.1399783"><ele>230.0</ele><time>2026-05-01T13:17:20.793Z</time></trkpt><trkpt lat="45.4246167" lon="8.13981"><ele>230.0</ele><time>2026-05-01T13:17:21.792Z</time></trkpt><trkpt lat="45.4245517" lon="8.139645"><ele>230.0</ele><time>2026-05-01T13:17:22.793Z</time></trkpt><trkpt lat="45.4244933" lon="8.1394833"><ele>230.0</ele><time>2026-05-01T13:17:23.793Z</time></trkpt><trkpt lat="45.4244367" lon="8.1393217"><ele>230.0</ele><time>2026-05-01T13:17:24.793Z</time></trkpt><trkpt lat="45.4243633" lon="8.1391583"><ele>229.75</ele><time>2026-05-01T13:17:25.793Z</time></trkpt><trkpt lat="45.4243" lon="8.1389967"><ele>229.5</ele><time>2026-05-01T13:17:26.793Z</time></trkpt><trkpt lat="45.424235" lon="8.1388333"><ele>229.25</ele><time>2026-05-01T13:17:27.793Z</time></trkpt><trkpt lat="45.424165" lon="8.1386633"><ele>229.0</ele><time>2026-05-01T13:17:28.793Z</time></trkpt><trkpt lat="45.4240983" lon="8.1384983"><ele>229.0</ele><time>2026-05-01T13:17:29.793Z</time></trkpt><trkpt lat="45.42403" lon="8.138325"><ele>229.0</ele><time>2026-05-01T13:17:30.793Z</time></trkpt><trkpt lat="45.42397" lon="8.1381683"><ele>229.0</ele><time>2026-05-01T13:17:31.793Z</time></trkpt><trkpt lat="45.423925" lon="8.138025"><ele>229.0</ele><time>2026-05-01T13:17:32.793Z</time></trkpt><trkpt lat="45.4238767" lon="8.137895"><ele>228.99999999999997</ele><time>2026-05-01T13:17:33.793Z</time></trkpt><trkpt lat="45.4238217" lon="8.1377833"><ele>229.0</ele><time>2026-05-01T13:17:34.793Z</time></trkpt><trkpt lat="45.42378" lon="8.137675"><ele>229.0</ele><time>2026-05-01T13:17:35.793Z</time></trkpt><trkpt lat="45.4237383" lon="8.1375833"><ele>229.0</ele><time>2026-05-01T13:17:36.793Z</time></trkpt><trkpt lat="45.4237017" lon="8.137495"><ele>228.99999999999997</ele><time>2026-05-01T13:17:37.793Z</time></trkpt><trkpt lat="45.4236583" lon="8.137375"><ele>229.0</ele><time>2026-05-01T13:17:39.793Z</time></trkpt><trkpt lat="45.423585" lon="8.13731"><ele>228.99999999999997</ele><time>2026-05-01T13:17:43.793Z</time></trkpt><trkpt lat="45.42349" lon="8.137365"><ele>229.0</ele><time>2026-05-01T13:17:45.793Z</time></trkpt><trkpt lat="45.4234283" lon="8.137425"><ele>229.0</ele><time>2026-05-01T13:17:46.793Z</time></trkpt><trkpt lat="45.4233633" lon="8.1374883"><ele>229.0</ele><time>2026-05-01T13:17:47.793Z</time></trkpt><trkpt lat="45.4233" lon="8.13754"><ele>228.99999999999997</ele><time>2026-05-01T13:17:48.793Z</time></trkpt><trkpt lat="45.423235" lon="8.1375917"><ele>229.0</ele><time>2026-05-01T13:17:49.793Z</time></trkpt><trkpt lat="45.4231717" lon="8.13765"><ele>229.0</ele><time>2026-05-01T13:17:50.793Z</time></trkpt><trkpt lat="45.4231017" lon="8.13771"><ele>228.99999999999997</ele><time>2026-05-01T13:17:51.793Z</time></trkpt><trkpt lat="45.423025" lon="8.1377867"><ele>228.99999999999997</ele><time>2026-05-01T13:17:52.793Z</time></trkpt><trkpt lat="45.4229367" lon="8.1378633"><ele>229.0</ele><time>2026-05-01T13:17:53.793Z</time></trkpt><trkpt lat="45.4228433" lon="8.13793"><ele>229.0</ele><time>2026-05-01T13:17:54.793Z</time></trkpt><trkpt lat="45.42274" lon="8.1380183"><ele>229.0</ele><time>2026-05-01T13:17:55.793Z</time></trkpt><trkpt lat="45.422635" lon="8.1381133"><ele>229.0</ele><time>2026-05-01T13:17:56.793Z</time></trkpt><trkpt lat="45.42251" lon="8.13822"><ele>229.0</ele><time>2026-05-01T13:17:57.792Z</time></trkpt><trkpt lat="45.4223833" lon="8.138335"><ele>229.0</ele><time>2026-05-01T13:17:58.793Z</time></trkpt><trkpt lat="45.42225" lon="8.13846"><ele>228.66666666666666</ele><time>2026-05-01T13:17:59.793Z</time></trkpt><trkpt lat="45.4221033" lon="8.1385883"><ele>228.33333333333331</ele><time>2026-05-01T13:18:00.793Z</time></trkpt><trkpt lat="45.4219467" lon="8.1387217"><ele>228.0</ele><time>2026-05-01T13:18:01.793Z</time></trkpt><trkpt lat="45.421795" lon="8.1388483"><ele>228.0</ele><time>2026-05-01T13:18:02.793Z</time></trkpt><trkpt lat="45.4216183" lon="8.138985"><ele>228.0</ele><time>2026-05-01T13:18:03.793Z</time></trkpt><trkpt lat="45.4214667" lon="8.1391217"><ele>228.0</ele><time>2026-05-01T13:18:04.793Z</time></trkpt><trkpt lat="45.42131" lon="8.1392617"><ele>227.0</ele><time>2026-05-01T13:18:05.793Z</time></trkpt><trkpt lat="45.421155" lon="8.139395"><ele>226.0</ele><time>2026-05-01T13:18:06.793Z</time></trkpt><trkpt lat="45.4209917" lon="8.1395417"><ele>225.0</ele><time>2026-05-01T13:18:07.793Z</time></trkpt><trkpt lat="45.420825" lon="8.13969"><ele>225.0</ele><time>2026-05-01T13:18:08.793Z</time></trkpt><trkpt lat="45.4206617" lon="8.1398367"><ele>225.0</ele><time>2026-05-01T13:18:09.793Z</time></trkpt><trkpt lat="45.4205017" lon="8.1399833"><ele>225.0</ele><time>2026-05-01T13:18:10.793Z</time></trkpt><trkpt lat="45.4203433" lon="8.1401267"><ele>224.0</ele><time>2026-05-01T13:18:11.793Z</time></trkpt><trkpt lat="45.420185" lon="8.14026"><ele>223.0</ele><time>2026-05-01T13:18:12.793Z</time></trkpt><trkpt lat="45.420015" lon="8.1404033"><ele>222.0</ele><time>2026-05-01T13:18:13.793Z</time></trkpt><trkpt lat="45.4198533" lon="8.140545"><ele>222.0</ele><time>2026-05-01T13:18:14.792Z</time></trkpt><trkpt lat="45.41969" lon="8.1406817"><ele>222.0</ele><time>2026-05-01T13:18:15.793Z</time></trkpt><trkpt lat="45.419515" lon="8.1408283"><ele>222.0</ele><time>2026-05-01T13:18:16.792Z</time></trkpt><trkpt lat="45.419335" lon="8.140985"><ele>222.33333333333331</ele><time>2026-05-01T13:18:17.793Z</time></trkpt><trkpt lat="45.41916" lon="8.1411317"><ele>222.66666666666666</ele><time>2026-05-01T13:18:18.793Z</time></trkpt><trkpt lat="45.4189833" lon="8.1412783"><ele>223.0</ele><time>2026-05-01T13:18:19.793Z</time></trkpt><trkpt lat="45.4188133" lon="8.1414283"><ele>222.66666666666666</ele><time>2026-05-01T13:18:20.793Z</time></trkpt><trkpt lat="45.418645" lon="8.14158"><ele>222.33333333333331</ele><time>2026-05-01T13:18:21.793Z</time></trkpt><trkpt lat="45.4184783" lon="8.1417283"><ele>222.0</ele><time>2026-05-01T13:18:22.793Z</time></trkpt><trkpt lat="45.4183033" lon="8.1418667"><ele>222.0</ele><time>2026-05-01T13:18:23.793Z</time></trkpt><trkpt lat="45.4181317" lon="8.1420167"><ele>222.0</ele><time>2026-05-01T13:18:24.793Z</time></trkpt><trkpt lat="45.4179617" lon="8.1421633"><ele>222.0</ele><time>2026-05-01T13:18:25.793Z</time></trkpt><trkpt lat="45.4177867" lon="8.1423167"><ele>221.66666666666669</ele><time>2026-05-01T13:18:26.792Z</time></trkpt><trkpt lat="45.4176133" lon="8.1424683"><ele>221.33333333333334</ele><time>2026-05-01T13:18:27.793Z</time></trkpt><trkpt lat="45.4174417" lon="8.142615"><ele>221.0</ele><time>2026-05-01T13:18:28.793Z</time></trkpt><trkpt lat="45.4172633" lon="8.1427567"><ele>221.0</ele><time>2026-05-01T13:18:29.793Z</time></trkpt><trkpt lat="45.41709" lon="8.1429117"><ele>221.0</ele><time>2026-05-01T13:18:30.793Z</time></trkpt><trkpt lat="45.4169133" lon="8.1430667"><ele>221.0</ele><time>2026-05-01T13:18:31.793Z</time></trkpt><trkpt lat="45.4167417" lon="8.14321"><ele>221.0</ele><time>2026-05-01T13:18:32.793Z</time></trkpt><trkpt lat="45.41657" lon="8.143355"><ele>221.0</ele><time>2026-05-01T13:18:33.793Z</time></trkpt><trkpt lat="45.4164017" lon="8.143515"><ele>221.0</ele><time>2026-05-01T13:18:34.793Z</time></trkpt><trkpt lat="45.4162317" lon="8.1436717"><ele>220.66666666666669</ele><time>2026-05-01T13:18:35.793Z</time></trkpt><trkpt lat="45.4160633" lon="8.1438233"><ele>220.33333333333331</ele><time>2026-05-01T13:18:36.793Z</time></trkpt><trkpt lat="45.4158967" lon="8.14397"><ele>220.0</ele><time>2026-05-01T13:18:37.792Z</time></trkpt><trkpt lat="45.4157217" lon="8.144115"><ele>220.0</ele><time>2026-05-01T13:18:38.793Z</time></trkpt><trkpt lat="45.41555" lon="8.1442667"><ele>220.0</ele><time>2026-05-01T13:18:39.793Z</time></trkpt><trkpt lat="45.41538" lon="8.1444117"><ele>220.0</ele><time>2026-05-01T13:18:40.793Z</time></trkpt><trkpt lat="45.4152133" lon="8.1445417"><ele>220.33333333333331</ele><time>2026-05-01T13:18:41.793Z</time></trkpt><trkpt lat="45.4150467" lon="8.1446717"><ele>220.66666666666669</ele><time>2026-05-01T13:18:42.793Z</time></trkpt><trkpt lat="45.41487" lon="8.144795"><ele>221.0</ele><time>2026-05-01T13:18:43.792Z</time></trkpt><trkpt lat="45.4146917" lon="8.1449083"><ele>220.66666666666669</ele><time>2026-05-01T13:18:44.793Z</time></trkpt><trkpt lat="45.4145117" lon="8.1450183"><ele>220.33333333333331</ele><time>2026-05-01T13:18:45.793Z</time></trkpt><trkpt lat="45.4143317" lon="8.145125"><ele>220.0</ele><time>2026-05-01T13:18:46.793Z</time></trkpt><trkpt lat="45.41415" lon="8.1452383"><ele>220.0</ele><time>2026-05-01T13:18:47.793Z</time></trkpt><trkpt lat="45.4139633" lon="8.14536"><ele>220.0</ele><time>2026-05-01T13:18:48.793Z</time></trkpt><trkpt lat="45.4137733" lon="8.1454833"><ele>220.0</ele><time>2026-05-01T13:18:49.793Z</time></trkpt><trkpt lat="45.4135833" lon="8.1455983"><ele>219.66666666666666</ele><time>2026-05-01T13:18:50.793Z</time></trkpt><trkpt lat="45.4134" lon="8.1457033"><ele>219.33333333333331</ele><time>2026-05-01T13:18:51.793Z</time></trkpt><trkpt lat="45.4132167" lon="8.1458083"><ele>219.0</ele><time>2026-05-01T13:18:52.793Z</time></trkpt><trkpt lat="45.41303" lon="8.145915"><ele>218.66666666666669</ele><time>2026-05-01T13:18:53.793Z</time></trkpt><trkpt lat="45.4128417" lon="8.14603"><ele>218.33333333333334</ele><time>2026-05-01T13:18:54.793Z</time></trkpt><trkpt lat="45.4126583" lon="8.14615"><ele>218.0</ele><time>2026-05-01T13:18:55.792Z</time></trkpt><trkpt lat="45.4124783" lon="8.146255"><ele>218.0</ele><time>2026-05-01T13:18:56.792Z</time></trkpt><trkpt lat="45.4123017" lon="8.14636"><ele>218.0</ele><time>2026-05-01T13:18:57.792Z</time></trkpt><trkpt lat="45.4121217" lon="8.1464733"><ele>218.0</ele><time>2026-05-01T13:18:58.793Z</time></trkpt><trkpt lat="45.4119483" lon="8.1465783"><ele>218.0</ele><time>2026-05-01T13:18:59.792Z</time></trkpt><trkpt lat="45.411785" lon="8.1466633"><ele>218.0</ele><time>2026-05-01T13:19:00.793Z</time></trkpt><trkpt lat="45.41163" lon="8.1467633"><ele>218.0</ele><time>2026-05-01T13:19:01.793Z</time></trkpt><trkpt lat="45.41148" lon="8.14687"><ele>218.0</ele><time>2026-05-01T13:19:02.792Z</time></trkpt><trkpt lat="45.4113367" lon="8.1470017"><ele>218.0</ele><time>2026-05-01T13:19:03.792Z</time></trkpt><trkpt lat="45.4111967" lon="8.1471533"><ele>218.0</ele><time>2026-05-01T13:19:04.793Z</time></trkpt><trkpt lat="45.4110567" lon="8.1473283"><ele>218.0</ele><time>2026-05-01T13:19:05.793Z</time></trkpt><trkpt lat="45.4109283" lon="8.1474983"><ele>218.0</ele><time>2026-05-01T13:19:06.793Z</time></trkpt><trkpt lat="45.41079" lon="8.14768"><ele>218.0</ele><time>2026-05-01T13:19:07.793Z</time></trkpt><trkpt lat="45.41064" lon="8.1478633"><ele>218.0</ele><time>2026-05-01T13:19:08.793Z</time></trkpt><trkpt lat="45.4104967" lon="8.1480433"><ele>218.0</ele><time>2026-05-01T13:19:09.793Z</time></trkpt><trkpt lat="45.4103467" lon="8.1482217"><ele>218.0</ele><time>2026-05-01T13:19:10.793Z</time></trkpt><trkpt lat="45.4101933" lon="8.1484183"><ele>217.0</ele><time>2026-05-01T13:19:11.793Z</time></trkpt><trkpt lat="45.4100467" lon="8.1486083"><ele>216.0</ele><time>2026-05-01T13:19:12.793Z</time></trkpt><trkpt lat="45.4098967" lon="8.1488"><ele>215.0</ele><time>2026-05-01T13:19:13.793Z</time></trkpt><trkpt lat="45.4097367" lon="8.148985"><ele>215.33333333333334</ele><time>2026-05-01T13:19:14.793Z</time></trkpt><trkpt lat="45.409585" lon="8.1491783"><ele>215.66666666666669</ele><time>2026-05-01T13:19:15.793Z</time></trkpt><trkpt lat="45.4094283" lon="8.1493667"><ele>216.0</ele><time>2026-05-01T13:19:16.793Z</time></trkpt><trkpt lat="45.409265" lon="8.1495533"><ele>216.0</ele><time>2026-05-01T13:19:17.793Z</time></trkpt><trkpt lat="45.40911" lon="8.1497367"><ele>216.0</ele><time>2026-05-01T13:19:18.793Z</time></trkpt><trkpt lat="45.4089583" lon="8.1499267"><ele>216.0</ele><time>2026-05-01T13:19:19.793Z</time></trkpt><trkpt lat="45.4088167" lon="8.1501083"><ele>216.33333333333331</ele><time>2026-05-01T13:19:20.793Z</time></trkpt><trkpt lat="45.4086733" lon="8.1502917"><ele>216.66666666666666</ele><time>2026-05-01T13:19:21.793Z</time></trkpt><trkpt lat="45.4085283" lon="8.1504833"><ele>217.0</ele><time>2026-05-01T13:19:22.793Z</time></trkpt><trkpt lat="45.40838" lon="8.1506617"><ele>216.33333333333331</ele><time>2026-05-01T13:19:23.793Z</time></trkpt><trkpt lat="45.408245" lon="8.15084"><ele>215.66666666666669</ele><time>2026-05-01T13:19:24.793Z</time></trkpt><trkpt lat="45.4081167" lon="8.1510083"><ele>215.0</ele><time>2026-05-01T13:19:25.793Z</time></trkpt><trkpt lat="45.407975" lon="8.1511683"><ele>214.33333333333334</ele><time>2026-05-01T13:19:26.793Z</time></trkpt><trkpt lat="45.4078383" lon="8.1513067"><ele>213.66666666666669</ele><time>2026-05-01T13:19:27.793Z</time></trkpt><trkpt lat="45.40769" lon="8.1514183"><ele>213.0</ele><time>2026-05-01T13:19:28.793Z</time></trkpt><trkpt lat="45.407535" lon="8.1514933"><ele>213.0</ele><time>2026-05-01T13:19:29.793Z</time></trkpt><trkpt lat="45.4073667" lon="8.151545"><ele>213.0</ele><time>2026-05-01T13:19:30.793Z</time></trkpt><trkpt lat="45.4072067" lon="8.1516017"><ele>213.0</ele><time>2026-05-01T13:19:31.793Z</time></trkpt><trkpt lat="45.4070367" lon="8.1516567"><ele>212.66666666666669</ele><time>2026-05-01T13:19:32.793Z</time></trkpt><trkpt lat="45.4068717" lon="8.15171"><ele>212.33333333333334</ele><time>2026-05-01T13:19:33.793Z</time></trkpt><trkpt lat="45.4067133" lon="8.1517633"><ele>212.0</ele><time>2026-05-01T13:19:34.793Z</time></trkpt><trkpt lat="45.40656" lon="8.15181"><ele>212.0</ele><time>2026-05-01T13:19:35.793Z</time></trkpt><trkpt lat="45.4064217" lon="8.1518567"><ele>212.0</ele><time>2026-05-01T13:19:36.793Z</time></trkpt><trkpt lat="45.4063183" lon="8.1518867"><ele>212.0</ele><time>2026-05-01T13:19:37.793Z</time></trkpt><trkpt lat="45.4062117" lon="8.1518667"><ele>212.0</ele><time>2026-05-01T13:19:38.792Z</time></trkpt><trkpt lat="45.4061167" lon="8.151835"><ele>212.0</ele><time>2026-05-01T13:19:39.793Z</time></trkpt><trkpt lat="45.4060217" lon="8.1518283"><ele>212.0</ele><time>2026-05-01T13:19:40.793Z</time></trkpt><trkpt lat="45.4059317" lon="8.1518783"><ele>212.0</ele><time>2026-05-01T13:19:41.793Z</time></trkpt><trkpt lat="45.4058467" lon="8.1519733"><ele>212.0</ele><time>2026-05-01T13:19:42.793Z</time></trkpt><trkpt lat="45.4057467" lon="8.1520733"><ele>212.0</ele><time>2026-05-01T13:19:43.793Z</time></trkpt><trkpt lat="45.40562" lon="8.1521367"><ele>212.0</ele><time>2026-05-01T13:19:44.793Z</time></trkpt><trkpt lat="45.4054683" lon="8.15219"><ele>212.0</ele><time>2026-05-01T13:19:45.793Z</time></trkpt><trkpt lat="45.405305" lon="8.1522383"><ele>212.0</ele><time>2026-05-01T13:19:46.793Z</time></trkpt><trkpt lat="45.405135" lon="8.1522933"><ele>212.0</ele><time>2026-05-01T13:19:47.793Z</time></trkpt><trkpt lat="45.4049533" lon="8.1523583"><ele>212.0</ele><time>2026-05-01T13:19:48.793Z</time></trkpt><trkpt lat="45.4047633" lon="8.1524183"><ele>212.0</ele><time>2026-05-01T13:19:49.793Z</time></trkpt><trkpt lat="45.4045783" lon="8.1524783"><ele>211.66666666666669</ele><time>2026-05-01T13:19:50.793Z</time></trkpt><trkpt lat="45.404385" lon="8.15255"><ele>211.33333333333331</ele><time>2026-05-01T13:19:51.793Z</time></trkpt><trkpt lat="45.4041933" lon="8.15263"><ele>211.0</ele><time>2026-05-01T13:19:52.793Z</time></trkpt><trkpt lat="45.4039983" lon="8.1526983"><ele>211.0</ele><time>2026-05-01T13:19:53.793Z</time></trkpt><trkpt lat="45.4037983" lon="8.1527617"><ele>211.0</ele><time>2026-05-01T13:19:54.793Z</time></trkpt><trkpt lat="45.4036" lon="8.15283"><ele>211.0</ele><time>2026-05-01T13:19:55.793Z</time></trkpt><trkpt lat="45.4034017" lon="8.1528983"><ele>211.0</ele><time>2026-05-01T13:19:56.793Z</time></trkpt><trkpt lat="45.4031983" lon="8.1529633"><ele>211.0</ele><time>2026-05-01T13:19:57.793Z</time></trkpt><trkpt lat="45.4029933" lon="8.1530433"><ele>211.0</ele><time>2026-05-01T13:19:58.793Z</time></trkpt><trkpt lat="45.4027967" lon="8.1531083"><ele>210.66666666666666</ele><time>2026-05-01T13:19:59.793Z</time></trkpt><trkpt lat="45.4025933" lon="8.153175"><ele>210.33333333333331</ele><time>2026-05-01T13:20:00.793Z</time></trkpt><trkpt lat="45.4023983" lon="8.1532367"><ele>210.0</ele><time>2026-05-01T13:20:01.793Z</time></trkpt><trkpt lat="45.4022033" lon="8.153315"><ele>208.66666666666669</ele><time>2026-05-01T13:20:02.793Z</time></trkpt><trkpt lat="45.4020067" lon="8.1533833"><ele>207.33333333333334</ele><time>2026-05-01T13:20:03.793Z</time></trkpt><trkpt lat="45.4018117" lon="8.15346"><ele>206.0</ele><time>2026-05-01T13:20:04.793Z</time></trkpt><trkpt lat="45.4016183" lon="8.1535217"><ele>206.0</ele><time>2026-05-01T13:20:05.793Z</time></trkpt><trkpt lat="45.4014283" lon="8.1535867"><ele>206.0</ele><time>2026-05-01T13:20:06.793Z</time></trkpt><trkpt lat="45.4012383" lon="8.1536467"><ele>206.0</ele><time>2026-05-01T13:20:07.793Z</time></trkpt><trkpt lat="45.4010483" lon="8.1537117"><ele>205.0</ele><time>2026-05-01T13:20:08.793Z</time></trkpt><trkpt lat="45.4008617" lon="8.1537683"><ele>204.0</ele><time>2026-05-01T13:20:09.793Z</time></trkpt><trkpt lat="45.400675" lon="8.15384"><ele>203.0</ele><time>2026-05-01T13:20:10.793Z</time></trkpt><trkpt lat="45.40049" lon="8.153915"><ele>202.66666666666669</ele><time>2026-05-01T13:20:11.793Z</time></trkpt><trkpt lat="45.4003117" lon="8.1539817"><ele>202.33333333333331</ele><time>2026-05-01T13:20:12.793Z</time></trkpt><trkpt lat="45.4001283" lon="8.154045"><ele>202.0</ele><time>2026-05-01T13:20:13.793Z</time></trkpt><trkpt lat="45.39995" lon="8.1541033"><ele>202.0</ele><time>2026-05-01T13:20:14.793Z</time></trkpt><trkpt lat="45.399765" lon="8.1541767"><ele>202.0</ele><time>2026-05-01T13:20:15.793Z</time></trkpt><trkpt lat="45.3995933" lon="8.1542383"><ele>202.0</ele><time>2026-05-01T13:20:16.793Z</time></trkpt><trkpt lat="45.39942" lon="8.1542833"><ele>201.66666666666666</ele><time>2026-05-01T13:20:17.793Z</time></trkpt><trkpt lat="45.3992517" lon="8.1543533"><ele>201.33333333333331</ele><time>2026-05-01T13:20:18.793Z</time></trkpt><trkpt lat="45.3990867" lon="8.15445"><ele>201.0</ele><time>2026-05-01T13:20:19.793Z</time></trkpt><trkpt lat="45.39893" lon="8.1545683"><ele>200.33333333333331</ele><time>2026-05-01T13:20:20.793Z</time></trkpt><trkpt lat="45.3987833" lon="8.1547217"><ele>199.66666666666666</ele><time>2026-05-01T13:20:21.793Z</time></trkpt><trkpt lat="45.3986417" lon="8.1548983"><ele>199.0</ele><time>2026-05-01T13:20:22.793Z</time></trkpt><trkpt lat="45.39852" lon="8.1550983"><ele>199.0</ele><time>2026-05-01T13:20:23.793Z</time></trkpt><trkpt lat="45.39841" lon="8.1553083"><ele>199.0</ele><time>2026-05-01T13:20:24.793Z</time></trkpt><trkpt lat="45.3982983" lon="8.15553"><ele>199.0</ele><time>2026-05-01T13:20:25.793Z</time></trkpt><trkpt lat="45.3981833" lon="8.155745"><ele>199.0</ele><time>2026-05-01T13:20:26.793Z</time></trkpt><trkpt lat="45.3980717" lon="8.15597"><ele>199.0</ele><time>2026-05-01T13:20:27.793Z</time></trkpt><trkpt lat="45.3979533" lon="8.156185"><ele>199.0</ele><time>2026-05-01T13:20:28.793Z</time></trkpt><trkpt lat="45.3978433" lon="8.1564133"><ele>199.0</ele><time>2026-05-01T13:20:29.793Z</time></trkpt><trkpt lat="45.397725" lon="8.156635"><ele>199.0</ele><time>2026-05-01T13:20:30.793Z</time></trkpt><trkpt lat="45.3975767" lon="8.1568183"><ele>199.0</ele><time>2026-05-01T13:20:31.793Z</time></trkpt><trkpt lat="45.3974283" lon="8.15698"><ele>199.0</ele><time>2026-05-01T13:20:32.793Z</time></trkpt><trkpt lat="45.397255" lon="8.1571417"><ele>199.0</ele><time>2026-05-01T13:20:33.793Z</time></trkpt><trkpt lat="45.397095" lon="8.1573067"><ele>199.0</ele><time>2026-05-01T13:20:34.793Z</time></trkpt><trkpt lat="45.396925" lon="8.157465"><ele>199.33333333333331</ele><time>2026-05-01T13:20:35.793Z</time></trkpt><trkpt lat="45.3967617" lon="8.1576217"><ele>199.66666666666669</ele><time>2026-05-01T13:20:36.793Z</time></trkpt><trkpt lat="45.3966083" lon="8.157785"><ele>200.0</ele><time>2026-05-01T13:20:37.793Z</time></trkpt><trkpt lat="45.3964567" lon="8.1579367"><ele>199.33333333333334</ele><time>2026-05-01T13:20:38.793Z</time></trkpt><trkpt lat="45.39631" lon="8.1580917"><ele>198.66666666666669</ele><time>2026-05-01T13:20:39.793Z</time></trkpt><trkpt lat="45.3961683" lon="8.1582467"><ele>198.0</ele><time>2026-05-01T13:20:40.793Z</time></trkpt><trkpt lat="45.3960267" lon="8.158395"><ele>198.0</ele><time>2026-05-01T13:20:41.793Z</time></trkpt><trkpt lat="45.3958967" lon="8.1585417"><ele>198.0</ele><time>2026-05-01T13:20:42.793Z</time></trkpt><trkpt lat="45.3957667" lon="8.15871"><ele>198.0</ele><time>2026-05-01T13:20:43.793Z</time></trkpt><trkpt lat="45.3956433" lon="8.1588917"><ele>199.0</ele><time>2026-05-01T13:20:44.793Z</time></trkpt><trkpt lat="45.3955317" lon="8.1590883"><ele>200.0</ele><time>2026-05-01T13:20:45.793Z</time></trkpt><trkpt lat="45.3954383" lon="8.1592883"><ele>201.0</ele><time>2026-05-01T13:20:46.792Z</time></trkpt><trkpt lat="45.3953383" lon="8.1594917"><ele>199.33333333333331</ele><time>2026-05-01T13:20:47.793Z</time></trkpt><trkpt lat="45.395245" lon="8.1596883"><ele>197.66666666666666</ele><time>2026-05-01T13:20:48.793Z</time></trkpt><trkpt lat="45.3951617" lon="8.1598817"><ele>196.0</ele><time>2026-05-01T13:20:49.793Z</time></trkpt><trkpt lat="45.3950733" lon="8.1600733"><ele>196.0</ele><time>2026-05-01T13:20:50.793Z</time></trkpt><trkpt lat="45.3949817" lon="8.1602683"><ele>196.0</ele><time>2026-05-01T13:20:51.793Z</time></trkpt><trkpt lat="45.3948883" lon="8.1604583"><ele>196.0</ele><time>2026-05-01T13:20:52.793Z</time></trkpt><trkpt lat="45.3947983" lon="8.160655"><ele>196.66666666666666</ele><time>2026-05-01T13:20:53.793Z</time></trkpt><trkpt lat="45.3947017" lon="8.1608467"><ele>197.33333333333331</ele><time>2026-05-01T13:20:54.793Z</time></trkpt><trkpt lat="45.3945983" lon="8.161045"><ele>198.0</ele><time>2026-05-01T13:20:55.793Z</time></trkpt><trkpt lat="45.3944983" lon="8.161245"><ele>196.66666666666669</ele><time>2026-05-01T13:20:56.793Z</time></trkpt><trkpt lat="45.3943933" lon="8.1614333"><ele>195.33333333333334</ele><time>2026-05-01T13:20:57.793Z</time></trkpt><trkpt lat="45.3942883" lon="8.1616133"><ele>194.0</ele><time>2026-05-01T13:20:58.793Z</time></trkpt><trkpt lat="45.3941817" lon="8.1617733"><ele>194.0</ele><time>2026-05-01T13:20:59.793Z</time></trkpt><trkpt lat="45.39406" lon="8.1619067"><ele>194.0</ele><time>2026-05-01T13:21:00.793Z</time></trkpt><trkpt lat="45.39393" lon="8.1620067"><ele>194.0</ele><time>2026-05-01T13:21:01.793Z</time></trkpt><trkpt lat="45.3937883" lon="8.162045"><ele>194.0</ele><time>2026-05-01T13:21:02.793Z</time></trkpt><trkpt lat="45.3936417" lon="8.162065"><ele>193.66666666666669</ele><time>2026-05-01T13:21:03.793Z</time></trkpt><trkpt lat="45.3934867" lon="8.16209"><ele>193.33333333333331</ele><time>2026-05-01T13:21:04.793Z</time></trkpt><trkpt lat="45.39332" lon="8.16212"><ele>193.0</ele><time>2026-05-01T13:21:05.793Z</time></trkpt><trkpt lat="45.3931467" lon="8.1621433"><ele>192.33333333333331</ele><time>2026-05-01T13:21:06.793Z</time></trkpt><trkpt lat="45.39297" lon="8.1621733"><ele>191.66666666666666</ele><time>2026-05-01T13:21:07.793Z</time></trkpt><trkpt lat="45.392795" lon="8.1622017"><ele>191.0</ele><time>2026-05-01T13:21:08.793Z</time></trkpt><trkpt lat="45.3926217" lon="8.16223"><ele>191.0</ele><time>2026-05-01T13:21:09.792Z</time></trkpt><trkpt lat="45.3924367" lon="8.1622583"><ele>191.0</ele><time>2026-05-01T13:21:10.793Z</time></trkpt><trkpt lat="45.3922533" lon="8.16229"><ele>191.0</ele><time>2026-05-01T13:21:11.792Z</time></trkpt><trkpt lat="45.3920633" lon="8.1623217"><ele>190.66666666666666</ele><time>2026-05-01T13:21:12.793Z</time></trkpt><trkpt lat="45.391875" lon="8.1623467"><ele>190.33333333333334</ele><time>2026-05-01T13:21:13.792Z</time></trkpt><trkpt lat="45.3916883" lon="8.16238"><ele>190.0</ele><time>2026-05-01T13:21:14.793Z</time></trkpt><trkpt lat="45.391495" lon="8.1624167"><ele>189.66666666666669</ele><time>2026-05-01T13:21:15.793Z</time></trkpt><trkpt lat="45.3913083" lon="8.1624517"><ele>189.33333333333334</ele><time>2026-05-01T13:21:16.793Z</time></trkpt><trkpt lat="45.3911267" lon="8.162485"><ele>189.0</ele><time>2026-05-01T13:21:17.793Z</time></trkpt><trkpt lat="45.3909383" lon="8.1625183"><ele>189.0</ele><time>2026-05-01T13:21:18.793Z</time></trkpt><trkpt lat="45.3907533" lon="8.1625517"><ele>189.0</ele><time>2026-05-01T13:21:19.793Z</time></trkpt><trkpt lat="45.3905683" lon="8.162585"><ele>189.0</ele><time>2026-05-01T13:21:20.793Z</time></trkpt><trkpt lat="45.3903817" lon="8.1626217"><ele>188.66666666666666</ele><time>2026-05-01T13:21:21.793Z</time></trkpt><trkpt lat="45.3902033" lon="8.1626517"><ele>188.33333333333331</ele><time>2026-05-01T13:21:22.793Z</time></trkpt><trkpt lat="45.3900183" lon="8.16268"><ele>188.0</ele><time>2026-05-01T13:21:23.793Z</time></trkpt><trkpt lat="45.3898383" lon="8.162715"><ele>188.0</ele><time>2026-05-01T13:21:24.793Z</time></trkpt><trkpt lat="45.38966" lon="8.1627483"><ele>188.0</ele><time>2026-05-01T13:21:25.793Z</time></trkpt><trkpt lat="45.3894867" lon="8.16278"><ele>188.0</ele><time>2026-05-01T13:21:26.793Z</time></trkpt><trkpt lat="45.389315" lon="8.1628083"><ele>188.0</ele><time>2026-05-01T13:21:27.793Z</time></trkpt><trkpt lat="45.3891417" lon="8.1628367"><ele>188.0</ele><time>2026-05-01T13:21:28.793Z</time></trkpt><trkpt lat="45.3889667" lon="8.1628783"><ele>188.0</ele><time>2026-05-01T13:21:29.793Z</time></trkpt><trkpt lat="45.3887967" lon="8.1629033"><ele>187.66666666666666</ele><time>2026-05-01T13:21:30.793Z</time></trkpt><trkpt lat="45.3886233" lon="8.162925"><ele>187.33333333333334</ele><time>2026-05-01T13:21:31.793Z</time></trkpt><trkpt lat="45.3884567" lon="8.1629483"><ele>187.0</ele><time>2026-05-01T13:21:32.793Z</time></trkpt><trkpt lat="45.3882983" lon="8.1629767"><ele>187.0</ele><time>2026-05-01T13:21:33.793Z</time></trkpt><trkpt lat="45.38815" lon="8.1630083"><ele>187.0</ele><time>2026-05-01T13:21:34.793Z</time></trkpt><trkpt lat="45.388" lon="8.163055"><ele>187.0</ele><time>2026-05-01T13:21:35.793Z</time></trkpt><trkpt lat="45.38785" lon="8.1631217"><ele>187.66666666666669</ele><time>2026-05-01T13:21:36.793Z</time></trkpt><trkpt lat="45.3877" lon="8.163205"><ele>188.33333333333334</ele><time>2026-05-01T13:21:37.793Z</time></trkpt><trkpt lat="45.38755" lon="8.1633133"><ele>189.0</ele><time>2026-05-01T13:21:38.793Z</time></trkpt><trkpt lat="45.387405" lon="8.1634183"><ele>189.0</ele><time>2026-05-01T13:21:39.793Z</time></trkpt><trkpt lat="45.387275" lon="8.16352"><ele>189.0</ele><time>2026-05-01T13:21:40.793Z</time></trkpt><trkpt lat="45.3871433" lon="8.1636333"><ele>189.0</ele><time>2026-05-01T13:21:41.793Z</time></trkpt><trkpt lat="45.387005" lon="8.16375"><ele>188.66666666666666</ele><time>2026-05-01T13:21:42.793Z</time></trkpt><trkpt lat="45.3868633" lon="8.1638667"><ele>188.33333333333331</ele><time>2026-05-01T13:21:43.793Z</time></trkpt><trkpt lat="45.3867183" lon="8.1639883"><ele>188.0</ele><time>2026-05-01T13:21:44.793Z</time></trkpt><trkpt lat="45.3865667" lon="8.1641167"><ele>188.0</ele><time>2026-05-01T13:21:45.793Z</time></trkpt><trkpt lat="45.3864133" lon="8.1642567"><ele>188.0</ele><time>2026-05-01T13:21:46.793Z</time></trkpt><trkpt lat="45.3862483" lon="8.1643967"><ele>188.0</ele><time>2026-05-01T13:21:47.793Z</time></trkpt><trkpt lat="45.3860817" lon="8.1645383"><ele>188.33333333333331</ele><time>2026-05-01T13:21:48.793Z</time></trkpt><trkpt lat="45.3859033" lon="8.164675"><ele>188.66666666666666</ele><time>2026-05-01T13:21:49.793Z</time></trkpt><trkpt lat="45.3857233" lon="8.1648283"><ele>189.0</ele><time>2026-05-01T13:21:50.793Z</time></trkpt><trkpt lat="45.3855433" lon="8.1649833"><ele>188.66666666666666</ele><time>2026-05-01T13:21:51.793Z</time></trkpt><trkpt lat="45.385365" lon="8.165135"><ele>188.33333333333331</ele><time>2026-05-01T13:21:52.792Z</time></trkpt><trkpt lat="45.3851867" lon="8.1652867"><ele>188.0</ele><time>2026-05-01T13:21:53.793Z</time></trkpt><trkpt lat="45.385005" lon="8.1654367"><ele>188.0</ele><time>2026-05-01T13:21:54.793Z</time></trkpt><trkpt lat="45.3848133" lon="8.16559"><ele>188.0</ele><time>2026-05-01T13:21:55.793Z</time></trkpt><trkpt lat="45.38463" lon="8.1657383"><ele>188.0</ele><time>2026-05-01T13:21:56.793Z</time></trkpt><trkpt lat="45.3844417" lon="8.165885"><ele>188.0</ele><time>2026-05-01T13:21:57.793Z</time></trkpt><trkpt lat="45.3842533" lon="8.1660367"><ele>188.0</ele><time>2026-05-01T13:21:58.793Z</time></trkpt><trkpt lat="45.3840633" lon="8.1661833"><ele>188.0</ele><time>2026-05-01T13:21:59.793Z</time></trkpt><trkpt lat="45.3838767" lon="8.1663217"><ele>187.33333333333331</ele><time>2026-05-01T13:22:00.793Z</time></trkpt><trkpt lat="45.3836883" lon="8.166465"><ele>186.66666666666666</ele><time>2026-05-01T13:22:01.793Z</time></trkpt><trkpt lat="45.3835" lon="8.1666133"><ele>186.0</ele><time>2026-05-01T13:22:02.793Z</time></trkpt><trkpt lat="45.38331" lon="8.1667467"><ele>186.0</ele><time>2026-05-01T13:22:03.793Z</time></trkpt><trkpt lat="45.3831267" lon="8.166885"><ele>186.0</ele><time>2026-05-01T13:22:04.793Z</time></trkpt><trkpt lat="45.3829367" lon="8.1670317"><ele>186.0</ele><time>2026-05-01T13:22:05.793Z</time></trkpt><trkpt lat="45.3827517" lon="8.16717"><ele>186.0</ele><time>2026-05-01T13:22:06.793Z</time></trkpt><trkpt lat="45.38257" lon="8.1673017"><ele>186.0</ele><time>2026-05-01T13:22:07.793Z</time></trkpt><trkpt lat="45.3823883" lon="8.167445"><ele>186.0</ele><time>2026-05-01T13:22:08.793Z</time></trkpt><trkpt lat="45.382205" lon="8.167585"><ele>185.66666666666666</ele><time>2026-05-01T13:22:09.793Z</time></trkpt><trkpt lat="45.3820283" lon="8.16773"><ele>185.33333333333331</ele><time>2026-05-01T13:22:10.793Z</time></trkpt><trkpt lat="45.381855" lon="8.16789"><ele>185.0</ele><time>2026-05-01T13:22:11.793Z</time></trkpt><trkpt lat="45.3816867" lon="8.168045"><ele>185.33333333333331</ele><time>2026-05-01T13:22:12.793Z</time></trkpt><trkpt lat="45.3815167" lon="8.16821"><ele>185.66666666666666</ele><time>2026-05-01T13:22:13.793Z</time></trkpt><trkpt lat="45.3813517" lon="8.1683683"><ele>186.0</ele><time>2026-05-01T13:22:14.793Z</time></trkpt><trkpt lat="45.38119" lon="8.16853"><ele>185.33333333333334</ele><time>2026-05-01T13:22:15.793Z</time></trkpt><trkpt lat="45.3810267" lon="8.1686933"><ele>184.66666666666669</ele><time>2026-05-01T13:22:16.793Z</time></trkpt><trkpt lat="45.3808633" lon="8.168845"><ele>184.0</ele><time>2026-05-01T13:22:17.793Z</time></trkpt><trkpt lat="45.380705" lon="8.169"><ele>184.0</ele><time>2026-05-01T13:22:18.793Z</time></trkpt><trkpt lat="45.38055" lon="8.1691617"><ele>184.0</ele><time>2026-05-01T13:22:19.793Z</time></trkpt><trkpt lat="45.380395" lon="8.1693217"><ele>184.0</ele><time>2026-05-01T13:22:20.793Z</time></trkpt><trkpt lat="45.3802417" lon="8.1694833"><ele>184.66666666666669</ele><time>2026-05-01T13:22:21.793Z</time></trkpt><trkpt lat="45.38008" lon="8.1696417"><ele>185.33333333333334</ele><time>2026-05-01T13:22:22.793Z</time></trkpt><trkpt lat="45.3799167" lon="8.1697867"><ele>186.0</ele><time>2026-05-01T13:22:23.793Z</time></trkpt><trkpt lat="45.3797517" lon="8.169935"><ele>185.66666666666666</ele><time>2026-05-01T13:22:24.793Z</time></trkpt><trkpt lat="45.379585" lon="8.17007"><ele>185.33333333333331</ele><time>2026-05-01T13:22:25.793Z</time></trkpt><trkpt lat="45.3794133" lon="8.1702033"><ele>185.0</ele><time>2026-05-01T13:22:26.793Z</time></trkpt><trkpt lat="45.3792333" lon="8.1703217"><ele>185.0</ele><time>2026-05-01T13:22:27.792Z</time></trkpt><trkpt lat="45.3790517" lon="8.1704367"><ele>185.0</ele><time>2026-05-01T13:22:28.793Z</time></trkpt><trkpt lat="45.378875" lon="8.1705467"><ele>185.0</ele><time>2026-05-01T13:22:29.793Z</time></trkpt><trkpt lat="45.37869" lon="8.1706433"><ele>185.0</ele><time>2026-05-01T13:22:30.793Z</time></trkpt><trkpt lat="45.3784983" lon="8.17073"><ele>185.0</ele><time>2026-05-01T13:22:31.793Z</time></trkpt><trkpt lat="45.3783067" lon="8.170805"><ele>185.0</ele><time>2026-05-01T13:22:32.793Z</time></trkpt><trkpt lat="45.37811" lon="8.1708733"><ele>184.33333333333331</ele><time>2026-05-01T13:22:33.793Z</time></trkpt><trkpt lat="45.377915" lon="8.1709317"><ele>183.66666666666666</ele><time>2026-05-01T13:22:34.793Z</time></trkpt><trkpt lat="45.3777183" lon="8.1709833"><ele>183.0</ele><time>2026-05-01T13:22:35.793Z</time></trkpt><trkpt lat="45.3775183" lon="8.1710267"><ele>183.0</ele><time>2026-05-01T13:22:36.793Z</time></trkpt><trkpt lat="45.3773167" lon="8.1710717"><ele>183.0</ele><time>2026-05-01T13:22:37.793Z</time></trkpt><trkpt lat="45.377115" lon="8.1711117"><ele>183.0</ele><time>2026-05-01T13:22:38.793Z</time></trkpt><trkpt lat="45.3769133" lon="8.1711533"><ele>183.0</ele><time>2026-05-01T13:22:39.793Z</time></trkpt><trkpt lat="45.3767167" lon="8.1711917"><ele>183.0</ele><time>2026-05-01T13:22:40.793Z</time></trkpt><trkpt lat="45.376515" lon="8.17123"><ele>183.0</ele><time>2026-05-01T13:22:41.793Z</time></trkpt><trkpt lat="45.3763133" lon="8.1712633"><ele>182.66666666666666</ele><time>2026-05-01T13:22:42.793Z</time></trkpt><trkpt lat="45.376115" lon="8.171295"><ele>182.33333333333331</ele><time>2026-05-01T13:22:43.793Z</time></trkpt><trkpt lat="45.375915" lon="8.1713233"><ele>182.0</ele><time>2026-05-01T13:22:44.793Z</time></trkpt><trkpt lat="45.3757133" lon="8.1713567"><ele>182.33333333333331</ele><time>2026-05-01T13:22:45.793Z</time></trkpt><trkpt lat="45.37552" lon="8.17139"><ele>182.66666666666666</ele><time>2026-05-01T13:22:46.793Z</time></trkpt><trkpt lat="45.3753233" lon="8.1714167"><ele>183.0</ele><time>2026-05-01T13:22:47.793Z</time></trkpt><trkpt lat="45.3751417" lon="8.171455"><ele>183.0</ele><time>2026-05-01T13:22:48.793Z</time></trkpt><trkpt lat="45.3749667" lon="8.171505"><ele>183.0</ele><time>2026-05-01T13:22:49.793Z</time></trkpt><trkpt lat="45.3747883" lon="8.1715617"><ele>183.0</ele><time>2026-05-01T13:22:50.793Z</time></trkpt><trkpt lat="45.3746133" lon="8.1716333"><ele>183.33333333333334</ele><time>2026-05-01T13:22:51.793Z</time></trkpt><trkpt lat="45.3744383" lon="8.1716933"><ele>183.66666666666669</ele><time>2026-05-01T13:22:52.793Z</time></trkpt><trkpt lat="45.3742617" lon="8.1717617"><ele>184.0</ele><time>2026-05-01T13:22:53.793Z</time></trkpt><trkpt lat="45.374085" lon="8.1718333"><ele>184.0</ele><time>2026-05-01T13:22:54.792Z</time></trkpt><trkpt lat="45.3739067" lon="8.1718967"><ele>184.0</ele><time>2026-05-01T13:22:55.793Z</time></trkpt><trkpt lat="45.37373" lon="8.17196"><ele>184.0</ele><time>2026-05-01T13:22:56.793Z</time></trkpt><trkpt lat="45.3735583" lon="8.17202"><ele>184.66666666666669</ele><time>2026-05-01T13:22:57.793Z</time></trkpt><trkpt lat="45.373385" lon="8.172085"><ele>185.33333333333334</ele><time>2026-05-01T13:22:58.793Z</time></trkpt><trkpt lat="45.3732283" lon="8.172115"><ele>186.0</ele><time>2026-05-01T13:22:59.793Z</time></trkpt><trkpt lat="45.37306" lon="8.1721717"><ele>186.33333333333334</ele><time>2026-05-01T13:23:00.793Z</time></trkpt><trkpt lat="45.3729" lon="8.1722417"><ele>186.66666666666669</ele><time>2026-05-01T13:23:01.793Z</time></trkpt><trkpt lat="45.3727417" lon="8.1722967"><ele>187.0</ele><time>2026-05-01T13:23:02.793Z</time></trkpt><trkpt lat="45.3725933" lon="8.1723433"><ele>187.0</ele><time>2026-05-01T13:23:03.793Z</time></trkpt><trkpt lat="45.3724617" lon="8.17238"><ele>187.0</ele><time>2026-05-01T13:23:04.793Z</time></trkpt><trkpt lat="45.3723467" lon="8.1723933"><ele>187.0</ele><time>2026-05-01T13:23:05.793Z</time></trkpt><trkpt lat="45.37226" lon="8.1723767"><ele>187.0</ele><time>2026-05-01T13:23:06.793Z</time></trkpt><trkpt lat="45.37218" lon="8.1723583"><ele>187.0</ele><time>2026-05-01T13:23:07.793Z</time></trkpt><trkpt lat="45.37211" lon="8.1723033"><ele>186.8</ele><time>2026-05-01T13:23:08.793Z</time></trkpt><trkpt lat="45.3720417" lon="8.172265"><ele>186.6</ele><time>2026-05-01T13:23:09.793Z</time></trkpt><trkpt lat="45.3719217" lon="8.172275"><ele>186.4</ele><time>2026-05-01T13:23:11.793Z</time></trkpt><trkpt lat="45.3718633" lon="8.1724333"><ele>186.20000000000002</ele><time>2026-05-01T13:23:13.793Z</time></trkpt><trkpt lat="45.371855" lon="8.17256"><ele>186.0</ele><time>2026-05-01T13:23:14.793Z</time></trkpt><trkpt lat="45.3718383" lon="8.1727117"><ele>185.75</ele><time>2026-05-01T13:23:15.793Z</time></trkpt><trkpt lat="45.3718117" lon="8.172875"><ele>185.5</ele><time>2026-05-01T13:23:16.793Z</time></trkpt><trkpt lat="45.3717767" lon="8.1730533"><ele>185.25</ele><time>2026-05-01T13:23:17.793Z</time></trkpt><trkpt lat="45.3717383" lon="8.1732433"><ele>185.0</ele><time>2026-05-01T13:23:18.793Z</time></trkpt><trkpt lat="45.371695" lon="8.1734383"><ele>185.0</ele><time>2026-05-01T13:23:19.793Z</time></trkpt><trkpt lat="45.3716517" lon="8.1736217"><ele>185.0</ele><time>2026-05-01T13:23:20.793Z</time></trkpt><trkpt lat="45.3716167" lon="8.1737967"><ele>185.0</ele><time>2026-05-01T13:23:21.793Z</time></trkpt><trkpt lat="45.3715817" lon="8.173955"><ele>185.0</ele><time>2026-05-01T13:23:22.793Z</time></trkpt><trkpt lat="45.3715367" lon="8.1741017"><ele>185.5</ele><time>2026-05-01T13:23:23.793Z</time></trkpt><trkpt lat="45.3714917" lon="8.1742533"><ele>186.0</ele><time>2026-05-01T13:23:24.793Z</time></trkpt><trkpt lat="45.3714517" lon="8.174405"><ele>186.5</ele><time>2026-05-01T13:23:25.793Z</time></trkpt><trkpt lat="45.3714067" lon="8.174555"><ele>187.0</ele><time>2026-05-01T13:23:26.793Z</time></trkpt><trkpt lat="45.3713633" lon="8.1747017"><ele>186.39999999999998</ele><time>2026-05-01T13:23:27.793Z</time></trkpt><trkpt lat="45.3713217" lon="8.1748433"><ele>185.79999999999998</ele><time>2026-05-01T13:23:28.793Z</time></trkpt><trkpt lat="45.3712833" lon="8.1749783"><ele>185.2</ele><time>2026-05-01T13:23:29.792Z</time></trkpt><trkpt lat="45.3712467" lon="8.1751067"><ele>184.6</ele><time>2026-05-01T13:23:30.793Z</time></trkpt><trkpt lat="45.3712133" lon="8.1752317"><ele>184.0</ele><time>2026-05-01T13:23:31.793Z</time></trkpt><trkpt lat="45.3711817" lon="8.1753433"><ele>184.0</ele><time>2026-05-01T13:23:32.793Z</time></trkpt><trkpt lat="45.3711467" lon="8.17548"><ele>184.0</ele><time>2026-05-01T13:23:33.793Z</time></trkpt><trkpt lat="45.3711017" lon="8.1756283"><ele>184.0</ele><time>2026-05-01T13:23:34.792Z</time></trkpt><trkpt lat="45.3710583" lon="8.17578"><ele>184.0</ele><time>2026-05-01T13:23:35.793Z</time></trkpt><trkpt lat="45.3710017" lon="8.1759383"><ele>184.0</ele><time>2026-05-01T13:23:36.793Z</time></trkpt><trkpt lat="45.3709417" lon="8.1761017"><ele>184.0</ele><time>2026-05-01T13:23:37.793Z</time></trkpt><trkpt lat="45.370885" lon="8.17627"><ele>184.0</ele><time>2026-05-01T13:23:38.792Z</time></trkpt><trkpt lat="45.37082" lon="8.176445"><ele>184.0</ele><time>2026-05-01T13:23:39.793Z</time></trkpt><trkpt lat="45.370745" lon="8.1766133"><ele>183.5</ele><time>2026-05-01T13:23:40.793Z</time></trkpt><trkpt lat="45.370675" lon="8.1767867"><ele>183.0</ele><time>2026-05-01T13:23:41.793Z</time></trkpt><trkpt lat="45.3706017" lon="8.17697"><ele>182.5</ele><time>2026-05-01T13:23:42.793Z</time></trkpt><trkpt lat="45.37053" lon="8.17715"><ele>182.0</ele><time>2026-05-01T13:23:43.793Z</time></trkpt><trkpt lat="45.37046" lon="8.177335"><ele>181.5</ele><time>2026-05-01T13:23:44.793Z</time></trkpt><trkpt lat="45.3703833" lon="8.1775183"><ele>181.0</ele><time>2026-05-01T13:23:45.793Z</time></trkpt><trkpt lat="45.37031" lon="8.1777"><ele>180.5</ele><time>2026-05-01T13:23:46.793Z</time></trkpt><trkpt lat="45.3702383" lon="8.17788"><ele>180.0</ele><time>2026-05-01T13:23:47.793Z</time></trkpt><trkpt lat="45.3701633" lon="8.1780683"><ele>180.0</ele><time>2026-05-01T13:23:48.793Z</time></trkpt><trkpt lat="45.3700933" lon="8.1782583"><ele>180.0</ele><time>2026-05-01T13:23:49.793Z</time></trkpt><trkpt lat="45.370015" lon="8.1784417"><ele>180.0</ele><time>2026-05-01T13:23:50.793Z</time></trkpt><trkpt lat="45.3699367" lon="8.1786333"><ele>180.0</ele><time>2026-05-01T13:23:51.793Z</time></trkpt><trkpt lat="45.36986" lon="8.1788233"><ele>180.0</ele><time>2026-05-01T13:23:52.793Z</time></trkpt><trkpt lat="45.3697967" lon="8.1790083"><ele>180.0</ele><time>2026-05-01T13:23:53.793Z</time></trkpt><trkpt lat="45.36974" lon="8.17919"><ele>180.0</ele><time>2026-05-01T13:23:54.793Z</time></trkpt><trkpt lat="45.3696717" lon="8.17937"><ele>180.5</ele><time>2026-05-01T13:23:55.793Z</time></trkpt><trkpt lat="45.3696067" lon="8.179535"><ele>181.0</ele><time>2026-05-01T13:23:56.793Z</time></trkpt><trkpt lat="45.36954" lon="8.179695"><ele>181.5</ele><time>2026-05-01T13:23:57.793Z</time></trkpt><trkpt lat="45.3694733" lon="8.17985"><ele>182.0</ele><time>2026-05-01T13:23:58.793Z</time></trkpt><trkpt lat="45.369415" lon="8.1800033"><ele>182.0</ele><time>2026-05-01T13:23:59.793Z</time></trkpt><trkpt lat="45.36936" lon="8.1801533"><ele>182.0</ele><time>2026-05-01T13:24:00.793Z</time></trkpt><trkpt lat="45.3693067" lon="8.1802833"><ele>182.0</ele><time>2026-05-01T13:24:01.793Z</time></trkpt><trkpt lat="45.3692667" lon="8.1803917"><ele>182.0</ele><time>2026-05-01T13:24:02.793Z</time></trkpt><trkpt lat="45.36922" lon="8.1804817"><ele>182.0</ele><time>2026-05-01T13:24:03.793Z</time></trkpt><trkpt lat="45.3691683" lon="8.180555"><ele>182.0</ele><time>2026-05-01T13:24:04.793Z</time></trkpt><trkpt lat="45.36911" lon="8.1806367"><ele>182.0</ele><time>2026-05-01T13:24:05.793Z</time></trkpt><trkpt lat="45.369055" lon="8.1807267"><ele>182.0</ele><time>2026-05-01T13:24:06.793Z</time></trkpt><trkpt lat="45.3690117" lon="8.1808417"><ele>182.0</ele><time>2026-05-01T13:24:07.793Z</time></trkpt><trkpt lat="45.368985" lon="8.1809633"><ele>182.0</ele><time>2026-05-01T13:24:08.793Z</time></trkpt><trkpt lat="45.36896" lon="8.181085"><ele>182.0</ele><time>2026-05-01T13:24:09.793Z</time></trkpt><trkpt lat="45.3689317" lon="8.1812217"><ele>181.75</ele><time>2026-05-01T13:24:10.793Z</time></trkpt><trkpt lat="45.3688917" lon="8.18138"><ele>181.5</ele><time>2026-05-01T13:24:11.793Z</time></trkpt><trkpt lat="45.3688317" lon="8.18156"><ele>181.25</ele><time>2026-05-01T13:24:12.793Z</time></trkpt><trkpt lat="45.3687517" lon="8.181775"><ele>181.0</ele><time>2026-05-01T13:24:13.793Z</time></trkpt><trkpt lat="45.3686617" lon="8.182005"><ele>181.0</ele><time>2026-05-01T13:24:14.792Z</time></trkpt><trkpt lat="45.3685567" lon="8.1822433"><ele>181.0</ele><time>2026-05-01T13:24:15.793Z</time></trkpt><trkpt lat="45.3684483" lon="8.1824867"><ele>181.0</ele><time>2026-05-01T13:24:16.793Z</time></trkpt><trkpt lat="45.36835" lon="8.1827367"><ele>180.66666666666669</ele><time>2026-05-01T13:24:17.793Z</time></trkpt><trkpt lat="45.36824" lon="8.1830017"><ele>180.33333333333334</ele><time>2026-05-01T13:24:18.793Z</time></trkpt><trkpt lat="45.3681367" lon="8.18326"><ele>180.0</ele><time>2026-05-01T13:24:19.793Z</time></trkpt><trkpt lat="45.368035" lon="8.1835183"><ele>180.33333333333334</ele><time>2026-05-01T13:24:20.793Z</time></trkpt><trkpt lat="45.3679317" lon="8.1837633"><ele>180.66666666666669</ele><time>2026-05-01T13:24:21.793Z</time></trkpt><trkpt lat="45.3678233" lon="8.1840033"><ele>181.0</ele><time>2026-05-01T13:24:22.793Z</time></trkpt><trkpt lat="45.3677033" lon="8.1842417"><ele>181.0</ele><time>2026-05-01T13:24:23.793Z</time></trkpt><trkpt lat="45.3675683" lon="8.1844467"><ele>181.0</ele><time>2026-05-01T13:24:24.793Z</time></trkpt><trkpt lat="45.3674183" lon="8.184645"><ele>181.0</ele><time>2026-05-01T13:24:25.793Z</time></trkpt><trkpt lat="45.3672583" lon="8.18483"><ele>181.33333333333334</ele><time>2026-05-01T13:24:26.793Z</time></trkpt><trkpt lat="45.3670867" lon="8.1850033"><ele>181.66666666666666</ele><time>2026-05-01T13:24:27.793Z</time></trkpt><trkpt lat="45.366905" lon="8.1851533"><ele>182.0</ele><time>2026-05-01T13:24:28.793Z</time></trkpt><trkpt lat="45.3667133" lon="8.1853033"><ele>182.0</ele><time>2026-05-01T13:24:29.793Z</time></trkpt><trkpt lat="45.3665233" lon="8.18545"><ele>182.0</ele><time>2026-05-01T13:24:30.793Z</time></trkpt><trkpt lat="45.36634" lon="8.1855717"><ele>182.0</ele><time>2026-05-01T13:24:31.793Z</time></trkpt><trkpt lat="45.3661533" lon="8.1857117"><ele>182.0</ele><time>2026-05-01T13:24:32.793Z</time></trkpt><trkpt lat="45.3659667" lon="8.1858633"><ele>182.0</ele><time>2026-05-01T13:24:33.793Z</time></trkpt><trkpt lat="45.3657817" lon="8.18601"><ele>182.0</ele><time>2026-05-01T13:24:34.793Z</time></trkpt><trkpt lat="45.3655933" lon="8.1861533"><ele>182.0</ele><time>2026-05-01T13:24:35.793Z</time></trkpt><trkpt lat="45.365405" lon="8.186295"><ele>182.0</ele><time>2026-05-01T13:24:36.793Z</time></trkpt><trkpt lat="45.36523" lon="8.1864267"><ele>182.0</ele><time>2026-05-01T13:24:37.793Z</time></trkpt><trkpt lat="45.3650567" lon="8.1865467"><ele>181.66666666666666</ele><time>2026-05-01T13:24:38.793Z</time></trkpt><trkpt lat="45.3648933" lon="8.1866683"><ele>181.33333333333334</ele><time>2026-05-01T13:24:39.793Z</time></trkpt><trkpt lat="45.36473" lon="8.18679"><ele>181.0</ele><time>2026-05-01T13:24:40.793Z</time></trkpt><trkpt lat="45.3645617" lon="8.1869133"><ele>180.0</ele><time>2026-05-01T13:24:41.793Z</time></trkpt><trkpt lat="45.3643983" lon="8.1870367"><ele>179.0</ele><time>2026-05-01T13:24:42.793Z</time></trkpt><trkpt lat="45.364235" lon="8.1871717"><ele>178.0</ele><time>2026-05-01T13:24:43.793Z</time></trkpt><trkpt lat="45.3640783" lon="8.1873217"><ele>178.33333333333334</ele><time>2026-05-01T13:24:44.793Z</time></trkpt><trkpt lat="45.3639317" lon="8.1874733"><ele>178.66666666666666</ele><time>2026-05-01T13:24:45.793Z</time></trkpt><trkpt lat="45.3637883" lon="8.1876283"><ele>179.0</ele><time>2026-05-01T13:24:46.793Z</time></trkpt><trkpt lat="45.363665" lon="8.18777"><ele>179.0</ele><time>2026-05-01T13:24:47.793Z</time></trkpt><trkpt lat="45.3635517" lon="8.18792"><ele>179.0</ele><time>2026-05-01T13:24:48.793Z</time></trkpt><trkpt lat="45.363445" lon="8.1880633"><ele>179.0</ele><time>2026-05-01T13:24:49.793Z</time></trkpt><trkpt lat="45.36335" lon="8.1881983"><ele>179.0</ele><time>2026-05-01T13:24:50.793Z</time></trkpt><trkpt lat="45.3632633" lon="8.1883217"><ele>179.0</ele><time>2026-05-01T13:24:51.793Z</time></trkpt><trkpt lat="45.3631867" lon="8.18842"><ele>179.0</ele><time>2026-05-01T13:24:52.792Z</time></trkpt><trkpt lat="45.363125" lon="8.1884917"><ele>179.0</ele><time>2026-05-01T13:24:53.793Z</time></trkpt><trkpt lat="45.36302" lon="8.18853"><ele>179.0</ele><time>2026-05-01T13:24:55.793Z</time></trkpt><trkpt lat="45.3629317" lon="8.1884467"><ele>179.0</ele><time>2026-05-01T13:24:57.792Z</time></trkpt><trkpt lat="45.3628983" lon="8.1882683"><ele>179.0</ele><time>2026-05-01T13:24:59.792Z</time></trkpt><trkpt lat="45.3629083" lon="8.1881333"><ele>179.0</ele><time>2026-05-01T13:25:00.793Z</time></trkpt><trkpt lat="45.362955" lon="8.1879817"><ele>179.0</ele><time>2026-05-01T13:25:01.793Z</time></trkpt><trkpt lat="45.3630033" lon="8.1878067"><ele>179.0</ele><time>2026-05-01T13:25:02.793Z</time></trkpt><trkpt lat="45.363055" lon="8.18762"><ele>179.0</ele><time>2026-05-01T13:25:03.793Z</time></trkpt><trkpt lat="45.363105" lon="8.1874183"><ele>179.0</ele><time>2026-05-01T13:25:04.793Z</time></trkpt><trkpt lat="45.3631583" lon="8.1872067"><ele>179.0</ele><time>2026-05-01T13:25:05.793Z</time></trkpt><trkpt lat="45.3632117" lon="8.1869833"><ele>179.0</ele><time>2026-05-01T13:25:06.793Z</time></trkpt><trkpt lat="45.36327" lon="8.1867533"><ele>179.0</ele><time>2026-05-01T13:25:07.793Z</time></trkpt><trkpt lat="45.3633183" lon="8.1865133"><ele>179.0</ele><time>2026-05-01T13:25:08.793Z</time></trkpt><trkpt lat="45.36338" lon="8.18627"><ele>179.0</ele><time>2026-05-01T13:25:09.793Z</time></trkpt><trkpt lat="45.3634383" lon="8.1860367"><ele>179.0</ele><time>2026-05-01T13:25:10.793Z</time></trkpt><trkpt lat="45.36349" lon="8.1858017"><ele>179.0</ele><time>2026-05-01T13:25:11.793Z</time></trkpt><trkpt lat="45.3635417" lon="8.1855867"><ele>178.75</ele><time>2026-05-01T13:25:12.793Z</time></trkpt><trkpt lat="45.3635883" lon="8.18539"><ele>178.5</ele><time>2026-05-01T13:25:13.792Z</time></trkpt><trkpt lat="45.3636367" lon="8.1851917"><ele>178.25</ele><time>2026-05-01T13:25:14.792Z</time></trkpt><trkpt lat="45.363685" lon="8.1849883"><ele>178.0</ele><time>2026-05-01T13:25:15.792Z</time></trkpt><trkpt lat="45.3637283" lon="8.1847817"><ele>178.0</ele><time>2026-05-01T13:25:16.792Z</time></trkpt><trkpt lat="45.3637667" lon="8.1845783"><ele>178.0</ele><time>2026-05-01T13:25:17.792Z</time></trkpt><trkpt lat="45.3638117" lon="8.18438"><ele>178.0</ele><time>2026-05-01T13:25:18.792Z</time></trkpt><trkpt lat="45.3638517" lon="8.1841983"><ele>178.0</ele><time>2026-05-01T13:25:19.792Z</time></trkpt><trkpt lat="45.3638917" lon="8.1840433"><ele>178.33333333333334</ele><time>2026-05-01T13:25:20.792Z</time></trkpt><trkpt lat="45.3639267" lon="8.1839083"><ele>178.66666666666669</ele><time>2026-05-01T13:25:21.792Z</time></trkpt><trkpt lat="45.3639567" lon="8.1837933"><ele>179.0</ele><time>2026-05-01T13:25:22.792Z</time></trkpt><trkpt lat="45.3639583" lon="8.1837033"><ele>179.33333333333334</ele><time>2026-05-01T13:25:23.792Z</time></trkpt><trkpt lat="45.3638967" lon="8.1835717"><ele>179.66666666666666</ele><time>2026-05-01T13:25:25.791Z</time></trkpt><trkpt lat="45.3638283" lon="8.18353"><ele>180.0</ele><time>2026-05-01T13:25:26.792Z</time></trkpt><trkpt lat="45.36374" lon="8.1835083"><ele>180.0</ele><time>2026-05-01T13:25:27.792Z</time></trkpt><trkpt lat="45.3636367" lon="8.183485"><ele>180.0</ele><time>2026-05-01T13:25:28.792Z</time></trkpt><trkpt lat="45.363525" lon="8.1834667"><ele>180.0</ele><time>2026-05-01T13:25:29.792Z</time></trkpt><trkpt lat="45.36341" lon="8.183445"><ele>180.0</ele><time>2026-05-01T13:25:30.792Z</time></trkpt><trkpt lat="45.3632867" lon="8.1834267"><ele>180.0</ele><time>2026-05-01T13:25:31.792Z</time></trkpt><trkpt lat="45.3631617" lon="8.183405"><ele>180.0</ele><time>2026-05-01T13:25:32.792Z</time></trkpt><trkpt lat="45.3630383" lon="8.1833817"><ele>180.0</ele><time>2026-05-01T13:25:33.792Z</time></trkpt><trkpt lat="45.3629217" lon="8.1833683"><ele>180.0</ele><time>2026-05-01T13:25:34.792Z</time></trkpt><trkpt lat="45.36282" lon="8.183355"><ele>180.0</ele><time>2026-05-01T13:25:35.791Z</time></trkpt><trkpt lat="45.362735" lon="8.183335"><ele>180.0</ele><time>2026-05-01T13:25:36.792Z</time></trkpt><trkpt lat="45.36263" lon="8.1832917"><ele>180.0</ele><time>2026-05-01T13:25:38.792Z</time></trkpt><trkpt lat="45.3626433" lon="8.183155"><ele>180.0</ele><time>2026-05-01T13:25:41.792Z</time></trkpt><trkpt lat="45.36271" lon="8.1830117"><ele>180.0</ele><time>2026-05-01T13:25:43.792Z</time></trkpt><trkpt lat="45.3627617" lon="8.18291"><ele>180.0</ele><time>2026-05-01T13:25:44.792Z</time></trkpt><trkpt lat="45.362805" lon="8.1827917"><ele>180.0</ele><time>2026-05-01T13:25:45.792Z</time></trkpt><trkpt lat="45.3628567" lon="8.18267"><ele>180.0</ele><time>2026-05-01T13:25:46.792Z</time></trkpt><trkpt lat="45.3629117" lon="8.1825417"><ele>180.0</ele><time>2026-05-01T13:25:47.792Z</time></trkpt><trkpt lat="45.362965" lon="8.18241"><ele>180.0</ele><time>2026-05-01T13:25:48.792Z</time></trkpt><trkpt lat="45.363015" lon="8.1822583"><ele>180.4</ele><time>2026-05-01T13:25:49.792Z</time></trkpt><trkpt lat="45.3630717" lon="8.182115"><ele>180.8</ele><time>2026-05-01T13:25:50.792Z</time></trkpt><trkpt lat="45.36313" lon="8.18198"><ele>181.2</ele><time>2026-05-01T13:25:51.792Z</time></trkpt><trkpt lat="45.3631833" lon="8.1818517"><ele>181.6</ele><time>2026-05-01T13:25:52.792Z</time></trkpt><trkpt lat="45.3632317" lon="8.18173"><ele>182.0</ele><time>2026-05-01T13:25:53.792Z</time></trkpt><trkpt lat="45.363275" lon="8.1816283"><ele>182.0</ele><time>2026-05-01T13:25:54.792Z</time></trkpt><trkpt lat="45.3633167" lon="8.18153"><ele>182.0</ele><time>2026-05-01T13:25:55.792Z</time></trkpt><trkpt lat="45.3633533" lon="8.1814433"><ele>182.0</ele><time>2026-05-01T13:25:56.792Z</time></trkpt><trkpt lat="45.3633917" lon="8.1813617"><ele>182.0</ele><time>2026-05-01T13:25:57.792Z</time></trkpt><trkpt lat="45.36344" lon="8.1812483"><ele>182.0</ele><time>2026-05-01T13:25:59.792Z</time></trkpt><trkpt lat="45.363475" lon="8.1811617"><ele>182.0</ele><time>2026-05-01T13:26:02.791Z</time></trkpt><trkpt lat="45.3634533" lon="8.1810767"><ele>182.0</ele><time>2026-05-01T13:26:04.792Z</time></trkpt><trkpt lat="45.3633783" lon="8.1809167"><ele>181.8</ele><time>2026-05-01T13:26:06.791Z</time></trkpt><trkpt lat="45.3633217" lon="8.180815"><ele>181.6</ele><time>2026-05-01T13:26:07.792Z</time></trkpt><trkpt lat="45.3632667" lon="8.1806983"><ele>181.4</ele><time>2026-05-01T13:26:08.792Z</time></trkpt><trkpt lat="45.3632017" lon="8.1805817"><ele>181.20000000000002</ele><time>2026-05-01T13:26:09.792Z</time></trkpt><trkpt lat="45.3631367" lon="8.180465"><ele>181.0</ele><time>2026-05-01T13:26:10.792Z</time></trkpt><trkpt lat="45.363075" lon="8.180355"><ele>181.0</ele><time>2026-05-01T13:26:11.792Z</time></trkpt><trkpt lat="45.3630083" lon="8.1802417"><ele>181.0</ele><time>2026-05-01T13:26:12.792Z</time></trkpt><trkpt lat="45.3629317" lon="8.1801183"><ele>181.0</ele><time>2026-05-01T13:26:13.792Z</time></trkpt><trkpt lat="45.3628533" lon="8.1799667"><ele>181.0</ele><time>2026-05-01T13:26:14.792Z</time></trkpt><trkpt lat="45.3627667" lon="8.1798183"><ele>181.0</ele><time>2026-05-01T13:26:15.792Z</time></trkpt><trkpt lat="45.36268" lon="8.1796567"><ele>181.0</ele><time>2026-05-01T13:26:16.792Z</time></trkpt><trkpt lat="45.3625933" lon="8.179495"><ele>181.0</ele><time>2026-05-01T13:26:17.792Z</time></trkpt><trkpt lat="45.362505" lon="8.1793417"><ele>181.0</ele><time>2026-05-01T13:26:18.792Z</time></trkpt><trkpt lat="45.3624167" lon="8.179185"><ele>181.0</ele><time>2026-05-01T13:26:19.792Z</time></trkpt><trkpt lat="45.3623267" lon="8.1790333"><ele>181.0</ele><time>2026-05-01T13:26:20.792Z</time></trkpt><trkpt lat="45.3622367" lon="8.1788717"><ele>181.0</ele><time>2026-05-01T13:26:21.792Z</time></trkpt><trkpt lat="45.36215" lon="8.17871"><ele>181.0</ele><time>2026-05-01T13:26:22.791Z</time></trkpt><trkpt lat="45.3620633" lon="8.178555"><ele>181.25</ele><time>2026-05-01T13:26:23.792Z</time></trkpt><trkpt lat="45.3619817" lon="8.1784133"><ele>181.5</ele><time>2026-05-01T13:26:24.792Z</time></trkpt><trkpt lat="45.3619033" lon="8.178285"><ele>181.75</ele><time>2026-05-01T13:26:25.792Z</time></trkpt><trkpt lat="45.361825" lon="8.17818"><ele>182.0</ele><time>2026-05-01T13:26:26.792Z</time></trkpt><trkpt lat="45.3617317" lon="8.1780983"><ele>182.0</ele><time>2026-05-01T13:26:27.792Z</time></trkpt><trkpt lat="45.3616183" lon="8.1780433"><ele>182.0</ele><time>2026-05-01T13:26:28.792Z</time></trkpt><trkpt lat="45.36148" lon="8.1779967"><ele>182.0</ele><time>2026-05-01T13:26:29.791Z</time></trkpt><trkpt lat="45.3613333" lon="8.1779383"><ele>182.0</ele><time>2026-05-01T13:26:30.792Z</time></trkpt><trkpt lat="45.3611883" lon="8.1778833"><ele>181.33333333333331</ele><time>2026-05-01T13:26:31.792Z</time></trkpt><trkpt lat="45.361045" lon="8.177825"><ele>180.66666666666666</ele><time>2026-05-01T13:26:32.792Z</time></trkpt><trkpt lat="45.3608983" lon="8.177755"><ele>180.0</ele><time>2026-05-01T13:26:33.792Z</time></trkpt><trkpt lat="45.3607517" lon="8.1776783"><ele>180.0</ele><time>2026-05-01T13:26:34.792Z</time></trkpt><trkpt lat="45.36061" lon="8.177605"><ele>180.0</ele><time>2026-05-01T13:26:35.792Z</time></trkpt><trkpt lat="45.3604633" lon="8.1775433"><ele>180.0</ele><time>2026-05-01T13:26:36.791Z</time></trkpt><trkpt lat="45.3603217" lon="8.1774817"><ele>179.75</ele><time>2026-05-01T13:26:37.792Z</time></trkpt><trkpt lat="45.3602033" lon="8.1774317"><ele>179.5</ele><time>2026-05-01T13:26:38.792Z</time></trkpt><trkpt lat="45.3600933" lon="8.177375"><ele>179.25</ele><time>2026-05-01T13:26:39.792Z</time></trkpt><trkpt lat="45.3599867" lon="8.1773133"><ele>179.0</ele><time>2026-05-01T13:26:40.792Z</time></trkpt><trkpt lat="45.3598833" lon="8.1772583"><ele>178.79999999999998</ele><time>2026-05-01T13:26:41.792Z</time></trkpt><trkpt lat="45.3597833" lon="8.1771933"><ele>178.6</ele><time>2026-05-01T13:26:42.792Z</time></trkpt><trkpt lat="45.3596917" lon="8.1771267"><ele>178.4</ele><time>2026-05-01T13:26:43.792Z</time></trkpt><trkpt lat="45.3596083" lon="8.177055"><ele>178.2</ele><time>2026-05-01T13:26:44.792Z</time></trkpt><trkpt lat="45.3595417" lon="8.1769867"><ele>178.0</ele><time>2026-05-01T13:26:45.792Z</time></trkpt><trkpt lat="45.3594867" lon="8.17693"><ele>178.60000000000002</ele><time>2026-05-01T13:26:46.792Z</time></trkpt><trkpt lat="45.3594283" lon="8.1768883"><ele>179.20000000000002</ele><time>2026-05-01T13:26:47.792Z</time></trkpt><trkpt lat="45.3593333" lon="8.17688"><ele>179.8</ele><time>2026-05-01T13:26:49.792Z</time></trkpt><trkpt lat="45.35927" lon="8.1769967"><ele>180.4</ele><time>2026-05-01T13:26:51.792Z</time></trkpt><trkpt lat="45.3592333" lon="8.1771017"><ele>181.0</ele><time>2026-05-01T13:26:52.792Z</time></trkpt><trkpt lat="45.3591867" lon="8.1772483"><ele>180.5</ele><time>2026-05-01T13:26:53.792Z</time></trkpt><trkpt lat="45.3591283" lon="8.1774117"><ele>180.0</ele><time>2026-05-01T13:26:54.792Z</time></trkpt><trkpt lat="45.3590667" lon="8.1775733"><ele>179.5</ele><time>2026-05-01T13:26:55.791Z</time></trkpt><trkpt lat="45.359" lon="8.17775"><ele>179.0</ele><time>2026-05-01T13:26:56.792Z</time></trkpt><trkpt lat="45.3589267" lon="8.1779283"><ele>179.0</ele><time>2026-05-01T13:26:57.791Z</time></trkpt><trkpt lat="45.358845" lon="8.1781033"><ele>179.0</ele><time>2026-05-01T13:26:58.792Z</time></trkpt><trkpt lat="45.35874" lon="8.1782633"><ele>179.0</ele><time>2026-05-01T13:26:59.792Z</time></trkpt><trkpt lat="45.3586283" lon="8.1784283"><ele>179.33333333333331</ele><time>2026-05-01T13:27:00.792Z</time></trkpt><trkpt lat="45.3585267" lon="8.1785983"><ele>179.66666666666666</ele><time>2026-05-01T13:27:01.792Z</time></trkpt><trkpt lat="45.3584217" lon="8.178775"><ele>180.0</ele><time>2026-05-01T13:27:02.792Z</time></trkpt><trkpt lat="45.3583233" lon="8.1789583"><ele>180.0</ele><time>2026-05-01T13:27:03.792Z</time></trkpt><trkpt lat="45.3582383" lon="8.1791383"><ele>180.0</ele><time>2026-05-01T13:27:04.792Z</time></trkpt><trkpt lat="45.3581467" lon="8.17932"><ele>180.0</ele><time>2026-05-01T13:27:05.792Z</time></trkpt><trkpt lat="45.3580667" lon="8.179485"><ele>180.0</ele><time>2026-05-01T13:27:06.792Z</time></trkpt><trkpt lat="45.3579833" lon="8.1796517"><ele>180.0</ele><time>2026-05-01T13:27:07.792Z</time></trkpt><trkpt lat="45.3578983" lon="8.179805"><ele>180.0</ele><time>2026-05-01T13:27:08.792Z</time></trkpt><trkpt lat="45.3578283" lon="8.1799567"><ele>180.0</ele><time>2026-05-01T13:27:09.792Z</time></trkpt><trkpt lat="45.35776" lon="8.1801317"><ele>179.75</ele><time>2026-05-01T13:27:10.791Z</time></trkpt><trkpt lat="45.3577033" lon="8.1803"><ele>179.5</ele><time>2026-05-01T13:27:11.792Z</time></trkpt><trkpt lat="45.35766" lon="8.1804667"><ele>179.25</ele><time>2026-05-01T13:27:12.792Z</time></trkpt><trkpt lat="45.3576267" lon="8.18063"><ele>179.0</ele><time>2026-05-01T13:27:13.792Z</time></trkpt><trkpt lat="45.3575933" lon="8.18078"><ele>179.0</ele><time>2026-05-01T13:27:14.792Z</time></trkpt><trkpt lat="45.357565" lon="8.180905"><ele>179.0</ele><time>2026-05-01T13:27:15.792Z</time></trkpt><trkpt lat="45.3575433" lon="8.18102"><ele>179.0</ele><time>2026-05-01T13:27:16.792Z</time></trkpt><trkpt lat="45.3575233" lon="8.1811283"><ele>179.0</ele><time>2026-05-01T13:27:17.791Z</time></trkpt><trkpt lat="45.35751" lon="8.181225"><ele>179.0</ele><time>2026-05-01T13:27:18.792Z</time></trkpt><trkpt lat="45.3574917" lon="8.1813783"><ele>179.0</ele><time>2026-05-01T13:27:20.792Z</time></trkpt><trkpt lat="45.357445" lon="8.181455"><ele>179.0</ele><time>2026-05-01T13:27:22.792Z</time></trkpt><trkpt lat="45.3573567" lon="8.1814517"><ele>179.0</ele><time>2026-05-01T13:27:24.792Z</time></trkpt><trkpt lat="45.3572833" lon="8.1814283"><ele>179.0</ele><time>2026-05-01T13:27:25.792Z</time></trkpt><trkpt lat="45.3571933" lon="8.1814033"><ele>179.0</ele><time>2026-05-01T13:27:26.792Z</time></trkpt><trkpt lat="45.3570883" lon="8.1813883"><ele>179.0</ele><time>2026-05-01T13:27:27.792Z</time></trkpt><trkpt lat="45.35697" lon="8.1813767"><ele>179.0</ele><time>2026-05-01T13:27:28.792Z</time></trkpt><trkpt lat="45.3568417" lon="8.1813567"><ele>179.0</ele><time>2026-05-01T13:27:29.792Z</time></trkpt><trkpt lat="45.3567033" lon="8.181325"><ele>179.0</ele><time>2026-05-01T13:27:30.792Z</time></trkpt><trkpt lat="45.3565567" lon="8.1812817"><ele>179.0</ele><time>2026-05-01T13:27:31.792Z</time></trkpt><trkpt lat="45.356415" lon="8.181225"><ele>179.0</ele><time>2026-05-01T13:27:32.792Z</time></trkpt><trkpt lat="45.3562633" lon="8.1811583"><ele>179.0</ele><time>2026-05-01T13:27:33.792Z</time></trkpt><trkpt lat="45.356115" lon="8.1810783"><ele>179.0</ele><time>2026-05-01T13:27:34.792Z</time></trkpt><trkpt lat="45.3559633" lon="8.1810017"><ele>179.0</ele><time>2026-05-01T13:27:35.792Z</time></trkpt><trkpt lat="45.3558117" lon="8.1809117"><ele>179.0</ele><time>2026-05-01T13:27:36.792Z</time></trkpt><trkpt lat="45.355655" lon="8.1808267"><ele>179.0</ele><time>2026-05-01T13:27:37.792Z</time></trkpt><trkpt lat="45.3555033" lon="8.1807533"><ele>179.0</ele><time>2026-05-01T13:27:38.792Z</time></trkpt><trkpt lat="45.3553467" lon="8.1806867"><ele>179.0</ele><time>2026-05-01T13:27:39.792Z</time></trkpt><trkpt lat="45.3551733" lon="8.1806267"><ele>179.0</ele><time>2026-05-01T13:27:40.792Z</time></trkpt><trkpt lat="45.35499" lon="8.180565"><ele>179.0</ele><time>2026-05-01T13:27:41.792Z</time></trkpt><trkpt lat="45.3548183" lon="8.18051"><ele>179.0</ele><time>2026-05-01T13:27:42.792Z</time></trkpt><trkpt lat="45.35464" lon="8.1804583"><ele>179.0</ele><time>2026-05-01T13:27:43.792Z</time></trkpt><trkpt lat="45.3544583" lon="8.1804"><ele>178.66666666666666</ele><time>2026-05-01T13:27:44.792Z</time></trkpt><trkpt lat="45.354285" lon="8.1803417"><ele>178.33333333333334</ele><time>2026-05-01T13:27:45.792Z</time></trkpt><trkpt lat="45.354115" lon="8.1802733"><ele>178.0</ele><time>2026-05-01T13:27:46.792Z</time></trkpt><trkpt lat="45.35396" lon="8.1802067"><ele>178.33333333333334</ele><time>2026-05-01T13:27:47.792Z</time></trkpt><trkpt lat="45.353805" lon="8.180135"><ele>178.66666666666666</ele><time>2026-05-01T13:27:48.792Z</time></trkpt><trkpt lat="45.3536433" lon="8.180065"><ele>179.0</ele><time>2026-05-01T13:27:49.792Z</time></trkpt><trkpt lat="45.353485" lon="8.179985"><ele>179.0</ele><time>2026-05-01T13:27:50.792Z</time></trkpt><trkpt lat="45.3533417" lon="8.1799183"><ele>179.0</ele><time>2026-05-01T13:27:51.792Z</time></trkpt><trkpt lat="45.353205" lon="8.179865"><ele>179.0</ele><time>2026-05-01T13:27:52.792Z</time></trkpt><trkpt lat="45.3530783" lon="8.1798167"><ele>179.0</ele><time>2026-05-01T13:27:53.792Z</time></trkpt><trkpt lat="45.3529583" lon="8.1797683"><ele>179.0</ele><time>2026-05-01T13:27:54.792Z</time></trkpt><trkpt lat="45.3528533" lon="8.1797267"><ele>179.0</ele><time>2026-05-01T13:27:55.792Z</time></trkpt><trkpt lat="45.3527483" lon="8.1796867"><ele>179.0</ele><time>2026-05-01T13:27:56.792Z</time></trkpt><trkpt lat="45.3526567" lon="8.1796533"><ele>179.0</ele><time>2026-05-01T13:27:57.792Z</time></trkpt><trkpt lat="45.3525817" lon="8.179615"><ele>179.0</ele><time>2026-05-01T13:27:58.792Z</time></trkpt><trkpt lat="45.3524933" lon="8.1795117"><ele>179.0</ele><time>2026-05-01T13:28:00.792Z</time></trkpt><trkpt lat="45.3524833" lon="8.17936"><ele>179.0</ele><time>2026-05-01T13:28:02.792Z</time></trkpt><trkpt lat="45.3525467" lon="8.1792"><ele>179.0</ele><time>2026-05-01T13:28:04.792Z</time></trkpt><trkpt lat="45.3525333" lon="8.1790667"><ele>179.0</ele><time>2026-05-01T13:28:06.792Z</time></trkpt><trkpt lat="45.3524567" lon="8.1789667"><ele>179.0</ele><time>2026-05-01T13:28:08.792Z</time></trkpt><trkpt lat="45.3523983" lon="8.178915"><ele>179.0</ele><time>2026-05-01T13:28:09.792Z</time></trkpt><trkpt lat="45.3522983" lon="8.1788167"><ele>179.0</ele><time>2026-05-01T13:28:11.792Z</time></trkpt><trkpt lat="45.3521767" lon="8.1788283"><ele>179.0</ele><time>2026-05-01T13:28:13.792Z</time></trkpt><trkpt lat="45.3520933" lon="8.178855"><ele>179.0</ele><time>2026-05-01T13:28:15.792Z</time></trkpt><trkpt lat="45.3520367" lon="8.1789083"><ele>179.0</ele><time>2026-05-01T13:28:16.792Z</time></trkpt><trkpt lat="45.35199" lon="8.1789717"><ele>179.0</ele><time>2026-05-01T13:28:17.792Z</time></trkpt><trkpt lat="45.3519633" lon="8.1790783"><ele>179.0</ele><time>2026-05-01T13:28:18.792Z</time></trkpt><trkpt lat="45.3519267" lon="8.1792067"><ele>179.0</ele><time>2026-05-01T13:28:19.792Z</time></trkpt><trkpt lat="45.3519017" lon="8.1793267"><ele>179.0</ele><time>2026-05-01T13:28:20.792Z</time></trkpt><trkpt lat="45.35185" lon="8.1794083"><ele>179.0</ele><time>2026-05-01T13:28:21.791Z</time></trkpt><trkpt lat="45.351735" lon="8.1794467"><ele>179.0</ele><time>2026-05-01T13:28:23.792Z</time></trkpt><trkpt lat="45.351645" lon="8.1794217"><ele>179.0</ele><time>2026-05-01T13:28:24.792Z</time></trkpt><trkpt lat="45.3515317" lon="8.1793717"><ele>179.0</ele><time>2026-05-01T13:28:25.792Z</time></trkpt><trkpt lat="45.3513883" lon="8.1793167"><ele>179.0</ele><time>2026-05-01T13:28:26.792Z</time></trkpt><trkpt lat="45.3512367" lon="8.1792633"><ele>179.0</ele><time>2026-05-01T13:28:27.792Z</time></trkpt><trkpt lat="45.3510817" lon="8.1792383"><ele>179.0</ele><time>2026-05-01T13:28:28.792Z</time></trkpt><trkpt lat="45.3509167" lon="8.1792117"><ele>179.0</ele><time>2026-05-01T13:28:29.792Z</time></trkpt><trkpt lat="45.3507583" lon="8.1791783"><ele>179.0</ele><time>2026-05-01T13:28:30.792Z</time></trkpt><trkpt lat="45.3505917" lon="8.1791233"><ele>179.0</ele><time>2026-05-01T13:28:31.792Z</time></trkpt><trkpt lat="45.35042" lon="8.1790717"><ele>179.0</ele><time>2026-05-01T13:28:32.792Z</time></trkpt><trkpt lat="45.35025" lon="8.1790083"><ele>178.66666666666666</ele><time>2026-05-01T13:28:33.792Z</time></trkpt><trkpt lat="45.350075" lon="8.1789467"><ele>178.33333333333334</ele><time>2026-05-01T13:28:34.792Z</time></trkpt><trkpt lat="45.3499133" lon="8.1788833"><ele>178.0</ele><time>2026-05-01T13:28:35.792Z</time></trkpt><trkpt lat="45.349765" lon="8.1788383"><ele>178.25</ele><time>2026-05-01T13:28:36.792Z</time></trkpt><trkpt lat="45.3496333" lon="8.1788"><ele>178.5</ele><time>2026-05-01T13:28:37.792Z</time></trkpt><trkpt lat="45.3495233" lon="8.17878"><ele>178.75</ele><time>2026-05-01T13:28:38.792Z</time></trkpt><trkpt lat="45.3494083" lon="8.1788083"><ele>179.0</ele><time>2026-05-01T13:28:39.792Z</time></trkpt><trkpt lat="45.349275" lon="8.1788767"><ele>179.0</ele><time>2026-05-01T13:28:40.792Z</time></trkpt><trkpt lat="45.349135" lon="8.1789433"><ele>179.0</ele><time>2026-05-01T13:28:41.792Z</time></trkpt><trkpt lat="45.3490183" lon="8.1789933"><ele>179.0</ele><time>2026-05-01T13:28:42.792Z</time></trkpt><trkpt lat="45.3489183" lon="8.1790133"><ele>179.0</ele><time>2026-05-01T13:28:43.792Z</time></trkpt><trkpt lat="45.3488333" lon="8.1789983"><ele>179.25</ele><time>2026-05-01T13:28:44.792Z</time></trkpt><trkpt lat="45.348755" lon="8.1789633"><ele>179.5</ele><time>2026-05-01T13:28:45.791Z</time></trkpt><trkpt lat="45.3486733" lon="8.1788933"><ele>179.75</ele><time>2026-05-01T13:28:46.792Z</time></trkpt><trkpt lat="45.3485717" lon="8.178785"><ele>180.0</ele><time>2026-05-01T13:28:47.792Z</time></trkpt><trkpt lat="45.3484517" lon="8.1786583"><ele>180.0</ele><time>2026-05-01T13:28:48.792Z</time></trkpt><trkpt lat="45.3483133" lon="8.1785183"><ele>180.0</ele><time>2026-05-01T13:28:49.792Z</time></trkpt><trkpt lat="45.3481783" lon="8.17838"><ele>180.0</ele><time>2026-05-01T13:28:50.792Z</time></trkpt><trkpt lat="45.3480467" lon="8.17825"><ele>180.0</ele><time>2026-05-01T13:28:51.792Z</time></trkpt><trkpt lat="45.3479117" lon="8.1781133"><ele>180.0</ele><time>2026-05-01T13:28:52.792Z</time></trkpt><trkpt lat="45.347785" lon="8.1779833"><ele>180.0</ele><time>2026-05-01T13:28:53.792Z</time></trkpt><trkpt lat="45.347665" lon="8.1778617"><ele>180.0</ele><time>2026-05-01T13:28:54.792Z</time></trkpt><trkpt lat="45.3475583" lon="8.1777383"><ele>180.0</ele><time>2026-05-01T13:28:55.792Z</time></trkpt><trkpt lat="45.3474617" lon="8.1776383"><ele>180.0</ele><time>2026-05-01T13:28:56.792Z</time></trkpt><trkpt lat="45.3473733" lon="8.1775433"><ele>180.0</ele><time>2026-05-01T13:28:57.792Z</time></trkpt><trkpt lat="45.3472883" lon="8.17745"><ele>180.0</ele><time>2026-05-01T13:28:58.792Z</time></trkpt><trkpt lat="45.3472083" lon="8.1773683"><ele>180.0</ele><time>2026-05-01T13:28:59.792Z</time></trkpt><trkpt lat="45.34713" lon="8.1772867"><ele>180.0</ele><time>2026-05-01T13:29:00.792Z</time></trkpt><trkpt lat="45.3470517" lon="8.1772017"><ele>180.0</ele><time>2026-05-01T13:29:01.792Z</time></trkpt><trkpt lat="45.346975" lon="8.177125"><ele>180.0</ele><time>2026-05-01T13:29:02.792Z</time></trkpt><trkpt lat="45.3469017" lon="8.1770533"><ele>180.0</ele><time>2026-05-01T13:29:03.792Z</time></trkpt><trkpt lat="45.3468283" lon="8.1769817"><ele>180.0</ele><time>2026-05-01T13:29:04.792Z</time></trkpt><trkpt lat="45.3467583" lon="8.17691"><ele>180.0</ele><time>2026-05-01T13:29:05.792Z</time></trkpt><trkpt lat="45.346695" lon="8.1768517"><ele>180.0</ele><time>2026-05-01T13:29:06.792Z</time></trkpt><trkpt lat="45.3466033" lon="8.1767733"><ele>180.0</ele><time>2026-05-01T13:29:08.792Z</time></trkpt><trkpt lat="45.34653" lon="8.1767867"><ele>180.0</ele><time>2026-05-01T13:29:10.792Z</time></trkpt><trkpt lat="45.3464683" lon="8.1768433"><ele>180.2</ele><time>2026-05-01T13:29:13.792Z</time></trkpt><trkpt lat="45.3463667" lon="8.1767667"><ele>180.4</ele><time>2026-05-01T13:29:15.791Z</time></trkpt><trkpt lat="45.3462933" lon="8.176695"><ele>180.60000000000002</ele><time>2026-05-01T13:29:16.791Z</time></trkpt><trkpt lat="45.346215" lon="8.17661"><ele>180.8</ele><time>2026-05-01T13:29:17.792Z</time></trkpt><trkpt lat="45.3461367" lon="8.1765267"><ele>181.0</ele><time>2026-05-01T13:29:18.792Z</time></trkpt><trkpt lat="45.3460533" lon="8.1764483"><ele>181.0</ele><time>2026-05-01T13:29:19.792Z</time></trkpt><trkpt lat="45.3459783" lon="8.1763667"><ele>181.0</ele><time>2026-05-01T13:29:20.792Z</time></trkpt><trkpt lat="45.3458983" lon="8.17628"><ele>181.0</ele><time>2026-05-01T13:29:21.792Z</time></trkpt><trkpt lat="45.3458333" lon="8.1761867"><ele>181.0</ele><time>2026-05-01T13:29:22.792Z</time></trkpt><trkpt lat="45.3457617" lon="8.176115"><ele>181.0</ele><time>2026-05-01T13:29:23.792Z</time></trkpt><trkpt lat="45.3457033" lon="8.1760467"><ele>181.0</ele><time>2026-05-01T13:29:24.792Z</time></trkpt><trkpt lat="45.3456483" lon="8.1759883"><ele>181.0</ele><time>2026-05-01T13:29:25.792Z</time></trkpt><trkpt lat="45.3455933" lon="8.175935"><ele>181.0</ele><time>2026-05-01T13:29:27.792Z</time></trkpt><trkpt lat="45.345535" lon="8.1758983"><ele>181.0</ele><time>2026-05-01T13:29:30.792Z</time></trkpt><trkpt lat="45.3454567" lon="8.1759983"><ele>181.0</ele><time>2026-05-01T13:29:58.792Z</time></trkpt><trkpt lat="45.345335" lon="8.1761067"><ele>181.0</ele><time>2026-05-01T13:30:00.792Z</time></trkpt><trkpt lat="45.3452667" lon="8.1761583"><ele>180.83333333333334</ele><time>2026-05-01T13:30:01.792Z</time></trkpt><trkpt lat="45.345195" lon="8.1761967"><ele>180.66666666666669</ele><time>2026-05-01T13:30:02.792Z</time></trkpt><trkpt lat="45.3451283" lon="8.176245"><ele>180.5</ele><time>2026-05-01T13:30:03.792Z</time></trkpt><trkpt lat="45.3450483" lon="8.1762783"><ele>180.33333333333334</ele><time>2026-05-01T13:30:04.792Z</time></trkpt><trkpt lat="45.34496" lon="8.176315"><ele>180.16666666666666</ele><time>2026-05-01T13:30:05.792Z</time></trkpt><trkpt lat="45.3448683" lon="8.1763567"><ele>180.0</ele><time>2026-05-01T13:30:06.792Z</time></trkpt><trkpt lat="45.3447767" lon="8.176405"><ele>179.8</ele><time>2026-05-01T13:30:07.792Z</time></trkpt><trkpt lat="45.3446933" lon="8.176455"><ele>179.6</ele><time>2026-05-01T13:30:08.792Z</time></trkpt><trkpt lat="45.3446267" lon="8.1764917"><ele>179.39999999999998</ele><time>2026-05-01T13:30:09.792Z</time></trkpt><trkpt lat="45.3445317" lon="8.1765"><ele>179.2</ele><time>2026-05-01T13:30:11.792Z</time></trkpt><trkpt lat="45.34442" lon="8.17639"><ele>179.0</ele><time>2026-05-01T13:30:13.791Z</time></trkpt><trkpt lat="45.3443467" lon="8.1762933"><ele>179.0</ele><time>2026-05-01T13:30:14.792Z</time></trkpt><trkpt lat="45.3442683" lon="8.176195"><ele>179.0</ele><time>2026-05-01T13:30:15.792Z</time></trkpt><trkpt lat="45.34418" lon="8.176085"><ele>179.0</ele><time>2026-05-01T13:30:16.792Z</time></trkpt><trkpt lat="45.3440883" lon="8.1759583"><ele>179.0</ele><time>2026-05-01T13:30:17.792Z</time></trkpt><trkpt lat="45.3440017" lon="8.1758517"><ele>179.0</ele><time>2026-05-01T13:30:18.792Z</time></trkpt><trkpt lat="45.34392" lon="8.1757517"><ele>179.0</ele><time>2026-05-01T13:30:19.792Z</time></trkpt><trkpt lat="45.3438333" lon="8.175655"><ele>179.0</ele><time>2026-05-01T13:30:20.792Z</time></trkpt><trkpt lat="45.343765" lon="8.1755633"><ele>179.0</ele><time>2026-05-01T13:30:21.792Z</time></trkpt><trkpt lat="45.343705" lon="8.1754867"><ele>179.0</ele><time>2026-05-01T13:30:22.792Z</time></trkpt><trkpt lat="45.3436133" lon="8.1754083"><ele>179.0</ele><time>2026-05-01T13:30:24.792Z</time></trkpt><trkpt lat="45.34354" lon="8.1754117"><ele>179.0</ele><time>2026-05-01T13:30:28.792Z</time></trkpt><trkpt lat="45.3434883" lon="8.1755083"><ele>179.0</ele><time>2026-05-01T13:30:30.792Z</time></trkpt><trkpt lat="45.3434467" lon="8.17561"><ele>179.0</ele><time>2026-05-01T13:30:31.792Z</time></trkpt><trkpt lat="45.343395" lon="8.1757217"><ele>179.0</ele><time>2026-05-01T13:30:32.792Z</time></trkpt><trkpt lat="45.3433383" lon="8.1758467"><ele>179.0</ele><time>2026-05-01T13:30:33.792Z</time></trkpt><trkpt lat="45.3432683" lon="8.1759867"><ele>179.0</ele><time>2026-05-01T13:30:34.792Z</time></trkpt><trkpt lat="45.3431933" lon="8.1761217"><ele>179.0</ele><time>2026-05-01T13:30:35.792Z</time></trkpt><trkpt lat="45.34311" lon="8.1762567"><ele>179.0</ele><time>2026-05-01T13:30:36.792Z</time></trkpt><trkpt lat="45.34303" lon="8.176365"><ele>179.0</ele><time>2026-05-01T13:30:37.792Z</time></trkpt><trkpt lat="45.3429717" lon="8.17648"><ele>179.39999999999998</ele><time>2026-05-01T13:30:38.792Z</time></trkpt><trkpt lat="45.3429183" lon="8.1765817"><ele>179.8</ele><time>2026-05-01T13:30:39.792Z</time></trkpt><trkpt lat="45.3428617" lon="8.1766833"><ele>180.2</ele><time>2026-05-01T13:30:40.792Z</time></trkpt><trkpt lat="45.34281" lon="8.1767717"><ele>180.60000000000002</ele><time>2026-05-01T13:30:41.792Z</time></trkpt><trkpt lat="45.3427217" lon="8.1768433"><ele>181.0</ele><time>2026-05-01T13:30:43.792Z</time></trkpt><trkpt lat="45.34262" lon="8.1768"><ele>181.0</ele><time>2026-05-01T13:30:46.792Z</time></trkpt><trkpt lat="45.34256" lon="8.1767583"><ele>181.0</ele><time>2026-05-01T13:30:47.792Z</time></trkpt><trkpt lat="45.34249" lon="8.17671"><ele>181.0</ele><time>2026-05-01T13:30:48.792Z</time></trkpt><trkpt lat="45.3424167" lon="8.176655"><ele>181.0</ele><time>2026-05-01T13:30:49.792Z</time></trkpt><trkpt lat="45.3423483" lon="8.1766017"><ele>181.0</ele><time>2026-05-01T13:30:50.791Z</time></trkpt><trkpt lat="45.34228" lon="8.17653"><ele>181.0</ele><time>2026-05-01T13:30:51.792Z</time></trkpt><trkpt lat="45.3422133" lon="8.1764533"><ele>181.16666666666669</ele><time>2026-05-01T13:30:52.792Z</time></trkpt><trkpt lat="45.3421433" lon="8.1763833"><ele>181.33333333333334</ele><time>2026-05-01T13:30:53.792Z</time></trkpt><trkpt lat="45.34207" lon="8.1763167"><ele>181.5</ele><time>2026-05-01T13:30:54.792Z</time></trkpt><trkpt lat="45.34201" lon="8.17625"><ele>181.66666666666666</ele><time>2026-05-01T13:30:55.792Z</time></trkpt><trkpt lat="45.341945" lon="8.1762333"><ele>181.83333333333331</ele><time>2026-05-01T13:30:56.792Z</time></trkpt><trkpt lat="45.3418717" lon="8.1762683"><ele>182.0</ele><time>2026-05-01T13:30:58.791Z</time></trkpt><trkpt lat="45.341805" lon="8.1763983"><ele>182.0</ele><time>2026-05-01T13:31:00.792Z</time></trkpt><trkpt lat="45.34176" lon="8.1764917"><ele>182.0</ele><time>2026-05-01T13:31:01.792Z</time></trkpt><trkpt lat="45.3417033" lon="8.1765967"><ele>182.0</ele><time>2026-05-01T13:31:02.792Z</time></trkpt><trkpt lat="45.3416417" lon="8.1767017"><ele>182.0</ele><time>2026-05-01T13:31:03.792Z</time></trkpt><trkpt lat="45.3415817" lon="8.1768017"><ele>182.0</ele><time>2026-05-01T13:31:04.792Z</time></trkpt><trkpt lat="45.341505" lon="8.1768967"><ele>181.8</ele><time>2026-05-01T13:31:05.791Z</time></trkpt><trkpt lat="45.3414117" lon="8.1769783"><ele>181.6</ele><time>2026-05-01T13:31:06.792Z</time></trkpt><trkpt lat="45.3413117" lon="8.177045"><ele>181.4</ele><time>2026-05-01T13:31:07.792Z</time></trkpt><trkpt lat="45.341215" lon="8.1771117"><ele>181.20000000000002</ele><time>2026-05-01T13:31:08.792Z</time></trkpt><trkpt lat="45.3411167" lon="8.1771783"><ele>181.0</ele><time>2026-05-01T13:31:09.792Z</time></trkpt><trkpt lat="45.3410017" lon="8.1772383"><ele>180.5</ele><time>2026-05-01T13:31:10.792Z</time></trkpt><trkpt lat="45.3408933" lon="8.177295"><ele>180.0</ele><time>2026-05-01T13:31:11.792Z</time></trkpt><trkpt lat="45.3407917" lon="8.177345"><ele>179.5</ele><time>2026-05-01T13:31:12.792Z</time></trkpt><trkpt lat="45.3406983" lon="8.17743"><ele>179.0</ele><time>2026-05-01T13:31:13.792Z</time></trkpt><trkpt lat="45.3405917" lon="8.1775283"><ele>178.75</ele><time>2026-05-01T13:31:14.792Z</time></trkpt><trkpt lat="45.34048" lon="8.1776433"><ele>178.5</ele><time>2026-05-01T13:31:15.792Z</time></trkpt><trkpt lat="45.3403733" lon="8.177775"><ele>178.25</ele><time>2026-05-01T13:31:16.792Z</time></trkpt><trkpt lat="45.3402617" lon="8.1778817"><ele>178.0</ele><time>2026-05-01T13:31:17.792Z</time></trkpt><trkpt lat="45.3401517" lon="8.1780017"><ele>178.0</ele><time>2026-05-01T13:31:18.792Z</time></trkpt><trkpt lat="45.3400433" lon="8.1781133"><ele>178.0</ele><time>2026-05-01T13:31:19.792Z</time></trkpt><trkpt lat="45.3399383" lon="8.1782217"><ele>178.0</ele><time>2026-05-01T13:31:20.791Z</time></trkpt><trkpt lat="45.339835" lon="8.17833"><ele>178.0</ele><time>2026-05-01T13:31:21.792Z</time></trkpt><trkpt lat="45.3397367" lon="8.1784333"><ele>178.0</ele><time>2026-05-01T13:31:22.792Z</time></trkpt><trkpt lat="45.3396417" lon="8.1785533"><ele>178.0</ele><time>2026-05-01T13:31:23.792Z</time></trkpt><trkpt lat="45.3395367" lon="8.1786667"><ele>178.0</ele><time>2026-05-01T13:31:24.792Z</time></trkpt><trkpt lat="45.3394367" lon="8.1787633"><ele>178.0</ele><time>2026-05-01T13:31:25.792Z</time></trkpt><trkpt lat="45.3393333" lon="8.178875"><ele>178.0</ele><time>2026-05-01T13:31:26.792Z</time></trkpt><trkpt lat="45.3392383" lon="8.17899"><ele>178.0</ele><time>2026-05-01T13:31:27.792Z</time></trkpt><trkpt lat="45.3391517" lon="8.1790933"><ele>178.0</ele><time>2026-05-01T13:31:28.791Z</time></trkpt><trkpt lat="45.3390617" lon="8.1791867"><ele>178.0</ele><time>2026-05-01T13:31:29.791Z</time></trkpt><trkpt lat="45.338985" lon="8.1792717"><ele>178.0</ele><time>2026-05-01T13:31:30.792Z</time></trkpt><trkpt lat="45.3389117" lon="8.1793383"><ele>177.8</ele><time>2026-05-01T13:31:31.792Z</time></trkpt><trkpt lat="45.3388483" lon="8.1794083"><ele>177.60000000000002</ele><time>2026-05-01T13:31:32.791Z</time></trkpt><trkpt lat="45.3387783" lon="8.1794767"><ele>177.39999999999998</ele><time>2026-05-01T13:31:33.792Z</time></trkpt><trkpt lat="45.3386983" lon="8.179575"><ele>177.2</ele><time>2026-05-01T13:31:34.792Z</time></trkpt><trkpt lat="45.3386117" lon="8.1796833"><ele>177.0</ele><time>2026-05-01T13:31:35.792Z</time></trkpt><trkpt lat="45.338505" lon="8.1798"><ele>176.66666666666666</ele><time>2026-05-01T13:31:36.792Z</time></trkpt><trkpt lat="45.3383767" lon="8.179915"><ele>176.33333333333331</ele><time>2026-05-01T13:31:37.792Z</time></trkpt><trkpt lat="45.3382317" lon="8.1800467"><ele>176.0</ele><time>2026-05-01T13:31:38.792Z</time></trkpt><trkpt lat="45.3380767" lon="8.1801833"><ele>176.0</ele><time>2026-05-01T13:31:39.792Z</time></trkpt><trkpt lat="45.3379233" lon="8.180325"><ele>176.0</ele><time>2026-05-01T13:31:40.791Z</time></trkpt><trkpt lat="45.3377617" lon="8.1804617"><ele>176.0</ele><time>2026-05-01T13:31:41.792Z</time></trkpt><trkpt lat="45.3376033" lon="8.180605"><ele>176.0</ele><time>2026-05-01T13:31:42.792Z</time></trkpt><trkpt lat="45.3374383" lon="8.1807483"><ele>176.0</ele><time>2026-05-01T13:31:43.792Z</time></trkpt><trkpt lat="45.3372783" lon="8.1808983"><ele>176.0</ele><time>2026-05-01T13:31:44.792Z</time></trkpt><trkpt lat="45.3371233" lon="8.181045"><ele>175.33333333333331</ele><time>2026-05-01T13:31:45.792Z</time></trkpt><trkpt lat="45.3369617" lon="8.1812067"><ele>174.66666666666666</ele><time>2026-05-01T13:31:46.792Z</time></trkpt><trkpt lat="45.3367983" lon="8.1813467"><ele>174.0</ele><time>2026-05-01T13:31:47.792Z</time></trkpt><trkpt lat="45.3366383" lon="8.1814967"><ele>174.33333333333334</ele><time>2026-05-01T13:31:48.792Z</time></trkpt><trkpt lat="45.3364783" lon="8.1816417"><ele>174.66666666666669</ele><time>2026-05-01T13:31:49.791Z</time></trkpt><trkpt lat="45.3363217" lon="8.1817767"><ele>175.0</ele><time>2026-05-01T13:31:50.792Z</time></trkpt><trkpt lat="45.33617" lon="8.181915"><ele>175.0</ele><time>2026-05-01T13:31:51.792Z</time></trkpt><trkpt lat="45.3360283" lon="8.182045"><ele>175.0</ele><time>2026-05-01T13:31:52.792Z</time></trkpt><trkpt lat="45.3358933" lon="8.1821567"><ele>175.0</ele><time>2026-05-01T13:31:53.792Z</time></trkpt><trkpt lat="45.3357667" lon="8.1822733"><ele>175.0</ele><time>2026-05-01T13:31:54.792Z</time></trkpt><trkpt lat="45.335645" lon="8.182385"><ele>175.0</ele><time>2026-05-01T13:31:55.792Z</time></trkpt><trkpt lat="45.33553" lon="8.182495"><ele>175.0</ele><time>2026-05-01T13:31:56.792Z</time></trkpt><trkpt lat="45.3354133" lon="8.1826033"><ele>175.0</ele><time>2026-05-01T13:31:57.792Z</time></trkpt><trkpt lat="45.335295" lon="8.1827067"><ele>175.25</ele><time>2026-05-01T13:31:58.792Z</time></trkpt><trkpt lat="45.33518" lon="8.1828117"><ele>175.5</ele><time>2026-05-01T13:31:59.792Z</time></trkpt><trkpt lat="45.3350617" lon="8.1829167"><ele>175.75</ele><time>2026-05-01T13:32:00.791Z</time></trkpt><trkpt lat="45.334935" lon="8.1830267"><ele>176.0</ele><time>2026-05-01T13:32:01.791Z</time></trkpt><trkpt lat="45.334815" lon="8.1831333"><ele>175.5</ele><time>2026-05-01T13:32:02.792Z</time></trkpt><trkpt lat="45.3347" lon="8.18325"><ele>175.0</ele><time>2026-05-01T13:32:03.792Z</time></trkpt><trkpt lat="45.3345867" lon="8.1833567"><ele>174.5</ele><time>2026-05-01T13:32:04.792Z</time></trkpt><trkpt lat="45.3344783" lon="8.1834517"><ele>174.0</ele><time>2026-05-01T13:32:05.792Z</time></trkpt><trkpt lat="45.3343767" lon="8.183535"><ele>174.0</ele><time>2026-05-01T13:32:06.792Z</time></trkpt><trkpt lat="45.33429" lon="8.1836267"><ele>174.0</ele><time>2026-05-01T13:32:07.792Z</time></trkpt><trkpt lat="45.33423" lon="8.1837117"><ele>174.0</ele><time>2026-05-01T13:32:08.792Z</time></trkpt><trkpt lat="45.3341983" lon="8.183805"><ele>174.0</ele><time>2026-05-01T13:32:09.792Z</time></trkpt><trkpt lat="45.3342017" lon="8.183965"><ele>174.0</ele><time>2026-05-01T13:32:11.792Z</time></trkpt><trkpt lat="45.3342417" lon="8.1840567"><ele>173.83333333333334</ele><time>2026-05-01T13:32:12.791Z</time></trkpt><trkpt lat="45.3343" lon="8.18415"><ele>173.66666666666666</ele><time>2026-05-01T13:32:13.792Z</time></trkpt><trkpt lat="45.3343617" lon="8.184225"><ele>173.5</ele><time>2026-05-01T13:32:14.791Z</time></trkpt><trkpt lat="45.334405" lon="8.1842917"><ele>173.33333333333331</ele><time>2026-05-01T13:32:15.792Z</time></trkpt><trkpt lat="45.3344133" lon="8.1843983"><ele>173.16666666666666</ele><time>2026-05-01T13:32:17.791Z</time></trkpt><trkpt lat="45.33434" lon="8.1845117"><ele>173.0</ele><time>2026-05-01T13:32:19.791Z</time></trkpt><trkpt lat="45.3342867" lon="8.184585"><ele>173.0</ele><time>2026-05-01T13:32:20.792Z</time></trkpt><trkpt lat="45.33422" lon="8.184685"><ele>173.0</ele><time>2026-05-01T13:32:21.792Z</time></trkpt><trkpt lat="45.33415" lon="8.1848067"><ele>173.0</ele><time>2026-05-01T13:32:22.792Z</time></trkpt><trkpt lat="45.3340817" lon="8.1849383"><ele>173.0</ele><time>2026-05-01T13:32:23.792Z</time></trkpt><trkpt lat="45.334015" lon="8.185075"><ele>173.0</ele><time>2026-05-01T13:32:24.792Z</time></trkpt><trkpt lat="45.333945" lon="8.18523"><ele>173.0</ele><time>2026-05-01T13:32:25.792Z</time></trkpt><trkpt lat="45.3338817" lon="8.185415"><ele>173.0</ele><time>2026-05-01T13:32:26.792Z</time></trkpt><trkpt lat="45.3338183" lon="8.18561"><ele>173.0</ele><time>2026-05-01T13:32:27.792Z</time></trkpt><trkpt lat="45.3337567" lon="8.185815"><ele>173.33333333333331</ele><time>2026-05-01T13:32:28.792Z</time></trkpt><trkpt lat="45.3336933" lon="8.1860383"><ele>173.66666666666666</ele><time>2026-05-01T13:32:29.792Z</time></trkpt><trkpt lat="45.3336217" lon="8.18625"><ele>174.0</ele><time>2026-05-01T13:32:30.792Z</time></trkpt><trkpt lat="45.3335517" lon="8.186455"><ele>174.0</ele><time>2026-05-01T13:32:31.791Z</time></trkpt><trkpt lat="45.3334733" lon="8.1866633"><ele>174.0</ele><time>2026-05-01T13:32:32.792Z</time></trkpt><trkpt lat="45.33338" lon="8.186875"><ele>174.0</ele><time>2026-05-01T13:32:33.792Z</time></trkpt><trkpt lat="45.333285" lon="8.1870833"><ele>174.0</ele><time>2026-05-01T13:32:34.792Z</time></trkpt><trkpt lat="45.33318" lon="8.1873033"><ele>174.0</ele><time>2026-05-01T13:32:35.792Z</time></trkpt><trkpt lat="45.3330667" lon="8.18753"><ele>174.0</ele><time>2026-05-01T13:32:36.792Z</time></trkpt><trkpt lat="45.3329467" lon="8.1877517"><ele>174.0</ele><time>2026-05-01T13:32:37.792Z</time></trkpt><trkpt lat="45.3328267" lon="8.1879883"><ele>174.0</ele><time>2026-05-01T13:32:38.792Z</time></trkpt><trkpt lat="45.3327" lon="8.1882167"><ele>174.0</ele><time>2026-05-01T13:32:39.792Z</time></trkpt><trkpt lat="45.3325683" lon="8.1884617"><ele>173.5</ele><time>2026-05-01T13:32:40.792Z</time></trkpt><trkpt lat="45.3324417" lon="8.1887267"><ele>173.0</ele><time>2026-05-01T13:32:41.792Z</time></trkpt><trkpt lat="45.332315" lon="8.1889917"><ele>172.33333333333331</ele><time>2026-05-01T13:32:42.792Z</time></trkpt><trkpt lat="45.3321917" lon="8.1892517"><ele>171.66666666666666</ele><time>2026-05-01T13:32:43.792Z</time></trkpt><trkpt lat="45.3320617" lon="8.1895"><ele>171.0</ele><time>2026-05-01T13:32:44.792Z</time></trkpt><trkpt lat="45.3319367" lon="8.1897467"><ele>171.33333333333334</ele><time>2026-05-01T13:32:45.792Z</time></trkpt><trkpt lat="45.3317983" lon="8.1899883"><ele>171.66666666666669</ele><time>2026-05-01T13:32:46.792Z</time></trkpt><trkpt lat="45.331655" lon="8.1902283"><ele>172.0</ele><time>2026-05-01T13:32:47.792Z</time></trkpt><trkpt lat="45.33151" lon="8.190465"><ele>172.0</ele><time>2026-05-01T13:32:48.792Z</time></trkpt><trkpt lat="45.3313733" lon="8.19071"><ele>172.0</ele><time>2026-05-01T13:32:49.792Z</time></trkpt><trkpt lat="45.3312233" lon="8.1909617"><ele>172.0</ele><time>2026-05-01T13:32:50.792Z</time></trkpt><trkpt lat="45.3310867" lon="8.1912083"><ele>172.0</ele><time>2026-05-01T13:32:51.792Z</time></trkpt><trkpt lat="45.33094" lon="8.19146"><ele>171.66666666666669</ele><time>2026-05-01T13:32:52.792Z</time></trkpt><trkpt lat="45.3308067" lon="8.1917017"><ele>171.33333333333334</ele><time>2026-05-01T13:32:53.792Z</time></trkpt><trkpt lat="45.3306817" lon="8.19194"><ele>171.0</ele><time>2026-05-01T13:32:54.792Z</time></trkpt><trkpt lat="45.3305667" lon="8.1921533"><ele>171.33333333333334</ele><time>2026-05-01T13:32:55.792Z</time></trkpt><trkpt lat="45.3304717" lon="8.1923417"><ele>171.66666666666669</ele><time>2026-05-01T13:32:56.792Z</time></trkpt><trkpt lat="45.33038" lon="8.1925117"><ele>172.0</ele><time>2026-05-01T13:32:57.792Z</time></trkpt><trkpt lat="45.3302933" lon="8.1926983"><ele>172.0</ele><time>2026-05-01T13:32:58.792Z</time></trkpt><trkpt lat="45.3302183" lon="8.19289"><ele>172.0</ele><time>2026-05-01T13:32:59.792Z</time></trkpt><trkpt lat="45.330145" lon="8.1930767"><ele>172.0</ele><time>2026-05-01T13:33:00.792Z</time></trkpt><trkpt lat="45.3300517" lon="8.1932883"><ele>171.0</ele><time>2026-05-01T13:33:01.792Z</time></trkpt><trkpt lat="45.3299633" lon="8.19351"><ele>170.0</ele><time>2026-05-01T13:33:02.792Z</time></trkpt><trkpt lat="45.3298767" lon="8.1937267"><ele>169.0</ele><time>2026-05-01T13:33:03.792Z</time></trkpt><trkpt lat="45.3297917" lon="8.19397"><ele>169.33333333333334</ele><time>2026-05-01T13:33:04.791Z</time></trkpt><trkpt lat="45.329705" lon="8.194195"><ele>169.66666666666666</ele><time>2026-05-01T13:33:05.792Z</time></trkpt><trkpt lat="45.3296233" lon="8.1944117"><ele>170.0</ele><time>2026-05-01T13:33:06.792Z</time></trkpt><trkpt lat="45.3295283" lon="8.1946233"><ele>170.0</ele><time>2026-05-01T13:33:07.792Z</time></trkpt><trkpt lat="45.329435" lon="8.1948367"><ele>170.0</ele><time>2026-05-01T13:33:08.792Z</time></trkpt><trkpt lat="45.3293483" lon="8.19504"><ele>170.0</ele><time>2026-05-01T13:33:09.792Z</time></trkpt><trkpt lat="45.32926" lon="8.19525"><ele>170.0</ele><time>2026-05-01T13:33:10.792Z</time></trkpt><trkpt lat="45.32918" lon="8.19546"><ele>170.0</ele><time>2026-05-01T13:33:11.792Z</time></trkpt><trkpt lat="45.3290967" lon="8.1956583"><ele>170.0</ele><time>2026-05-01T13:33:12.792Z</time></trkpt><trkpt lat="45.3290167" lon="8.1958567"><ele>170.0</ele><time>2026-05-01T13:33:13.792Z</time></trkpt><trkpt lat="45.328935" lon="8.1960467"><ele>170.0</ele><time>2026-05-01T13:33:14.792Z</time></trkpt><trkpt lat="45.3288667" lon="8.1962333"><ele>170.0</ele><time>2026-05-01T13:33:15.792Z</time></trkpt><trkpt lat="45.3287833" lon="8.1964367"><ele>170.0</ele><time>2026-05-01T13:33:16.792Z</time></trkpt><trkpt lat="45.3287217" lon="8.1966267"><ele>170.0</ele><time>2026-05-01T13:33:17.792Z</time></trkpt><trkpt lat="45.3286517" lon="8.19682"><ele>170.0</ele><time>2026-05-01T13:33:18.792Z</time></trkpt><trkpt lat="45.32857" lon="8.1970217"><ele>170.0</ele><time>2026-05-01T13:33:19.792Z</time></trkpt><trkpt lat="45.3284917" lon="8.1972367"><ele>170.0</ele><time>2026-05-01T13:33:20.792Z</time></trkpt><trkpt lat="45.3284083" lon="8.1974567"><ele>170.0</ele><time>2026-05-01T13:33:21.792Z</time></trkpt><trkpt lat="45.328325" lon="8.1976867"><ele>169.66666666666666</ele><time>2026-05-01T13:33:22.792Z</time></trkpt><trkpt lat="45.3282267" lon="8.1979233"><ele>169.33333333333334</ele><time>2026-05-01T13:33:23.792Z</time></trkpt><trkpt lat="45.32814" lon="8.1981583"><ele>169.0</ele><time>2026-05-01T13:33:24.792Z</time></trkpt><trkpt lat="45.3280517" lon="8.1983867"><ele>169.0</ele><time>2026-05-01T13:33:25.791Z</time></trkpt><trkpt lat="45.327965" lon="8.1986117"><ele>169.0</ele><time>2026-05-01T13:33:26.792Z</time></trkpt><trkpt lat="45.3278767" lon="8.19882"><ele>169.0</ele><time>2026-05-01T13:33:27.792Z</time></trkpt><trkpt lat="45.327795" lon="8.19903"><ele>169.0</ele><time>2026-05-01T13:33:28.792Z</time></trkpt><trkpt lat="45.3277217" lon="8.1992283"><ele>169.0</ele><time>2026-05-01T13:33:29.792Z</time></trkpt><trkpt lat="45.32766" lon="8.1994233"><ele>169.0</ele><time>2026-05-01T13:33:30.792Z</time></trkpt><trkpt lat="45.3275817" lon="8.1996217"><ele>169.0</ele><time>2026-05-01T13:33:31.792Z</time></trkpt><trkpt lat="45.3275083" lon="8.1998133"><ele>169.0</ele><time>2026-05-01T13:33:32.792Z</time></trkpt><trkpt lat="45.3274383" lon="8.199995"><ele>169.0</ele><time>2026-05-01T13:33:33.792Z</time></trkpt><trkpt lat="45.3273733" lon="8.200165"><ele>169.0</ele><time>2026-05-01T13:33:34.792Z</time></trkpt><trkpt lat="45.3273133" lon="8.2003217"><ele>169.0</ele><time>2026-05-01T13:33:35.792Z</time></trkpt><trkpt lat="45.3272617" lon="8.20047"><ele>169.0</ele><time>2026-05-01T13:33:36.791Z</time></trkpt><trkpt lat="45.327205" lon="8.2005967"><ele>169.0</ele><time>2026-05-01T13:33:37.792Z</time></trkpt><trkpt lat="45.3271483" lon="8.2007083"><ele>169.0</ele><time>2026-05-01T13:33:38.791Z</time></trkpt><trkpt lat="45.3270967" lon="8.2008267"><ele>169.0</ele><time>2026-05-01T13:33:39.791Z</time></trkpt><trkpt lat="45.3270467" lon="8.2009417"><ele>169.0</ele><time>2026-05-01T13:33:40.792Z</time></trkpt><trkpt lat="45.3269983" lon="8.2010533"><ele>169.0</ele><time>2026-05-01T13:33:41.792Z</time></trkpt><trkpt lat="45.3269583" lon="8.201155"><ele>169.0</ele><time>2026-05-01T13:33:42.792Z</time></trkpt><trkpt lat="45.3269217" lon="8.2012383"><ele>169.0</ele><time>2026-05-01T13:33:43.792Z</time></trkpt><trkpt lat="45.326875" lon="8.2013683"><ele>169.0</ele><time>2026-05-01T13:33:45.792Z</time></trkpt><trkpt lat="45.3268367" lon="8.2014767"><ele>169.0</ele><time>2026-05-01T13:33:47.792Z</time></trkpt><trkpt lat="45.32678" lon="8.2015783"><ele>168.83333333333334</ele><time>2026-05-01T13:33:49.792Z</time></trkpt><trkpt lat="45.3267217" lon="8.2016817"><ele>168.66666666666669</ele><time>2026-05-01T13:33:51.792Z</time></trkpt><trkpt lat="45.32666" lon="8.2017817"><ele>168.5</ele><time>2026-05-01T13:33:53.792Z</time></trkpt><trkpt lat="45.3266083" lon="8.2018733"><ele>168.33333333333334</ele><time>2026-05-01T13:33:55.792Z</time></trkpt><trkpt lat="45.326565" lon="8.201965"><ele>168.16666666666666</ele><time>2026-05-01T13:33:57.792Z</time></trkpt><trkpt lat="45.3265083" lon="8.2020683"><ele>168.0</ele><time>2026-05-01T13:33:59.792Z</time></trkpt><trkpt lat="45.3264517" lon="8.2021517"><ele>168.0</ele><time>2026-05-01T13:36:02.791Z</time></trkpt><trkpt lat="45.3263983" lon="8.2023033"><ele>168.0</ele><time>2026-05-01T13:36:04.791Z</time></trkpt><trkpt lat="45.3263617" lon="8.2023917"><ele>168.0</ele><time>2026-05-01T13:36:05.791Z</time></trkpt><trkpt lat="45.32631" lon="8.2024917"><ele>168.0</ele><time>2026-05-01T13:36:06.791Z</time></trkpt><trkpt lat="45.3262533" lon="8.2026"><ele>168.0</ele><time>2026-05-01T13:36:07.791Z</time></trkpt><trkpt lat="45.3261983" lon="8.2027183"><ele>168.0</ele><time>2026-05-01T13:36:08.791Z</time></trkpt><trkpt lat="45.3261333" lon="8.2028433"><ele>168.0</ele><time>2026-05-01T13:36:09.791Z</time></trkpt><trkpt lat="45.3260683" lon="8.2029533"><ele>168.0</ele><time>2026-05-01T13:36:10.791Z</time></trkpt><trkpt lat="45.326005" lon="8.2030667"><ele>168.0</ele><time>2026-05-01T13:36:11.791Z</time></trkpt><trkpt lat="45.3259417" lon="8.203175"><ele>168.0</ele><time>2026-05-01T13:36:12.791Z</time></trkpt><trkpt lat="45.325885" lon="8.2032683"><ele>168.0</ele><time>2026-05-01T13:36:13.791Z</time></trkpt><trkpt lat="45.325835" lon="8.2033517"><ele>168.0</ele><time>2026-05-01T13:36:14.791Z</time></trkpt><trkpt lat="45.32579" lon="8.203435"><ele>168.0</ele><time>2026-05-01T13:36:15.791Z</time></trkpt><trkpt lat="45.3257467" lon="8.203515"><ele>168.0</ele><time>2026-05-01T13:36:16.791Z</time></trkpt><trkpt lat="45.3256617" lon="8.2036567"><ele>168.0</ele><time>2026-05-01T13:36:18.791Z</time></trkpt><trkpt lat="45.3256167" lon="8.2037383"><ele>168.0</ele><time>2026-05-01T13:36:19.791Z</time></trkpt><trkpt lat="45.32558" lon="8.2038183"><ele>168.0</ele><time>2026-05-01T13:36:20.791Z</time></trkpt><trkpt lat="45.3255433" lon="8.2038917"><ele>168.0</ele><time>2026-05-01T13:36:21.791Z</time></trkpt><trkpt lat="45.3254783" lon="8.2040167"><ele>168.0</ele><time>2026-05-01T13:36:23.791Z</time></trkpt><trkpt lat="45.3254183" lon="8.204115"><ele>168.0</ele><time>2026-05-01T13:36:25.791Z</time></trkpt><trkpt lat="45.3253533" lon="8.2042133"><ele>168.0</ele><time>2026-05-01T13:36:27.791Z</time></trkpt><trkpt lat="45.3252983" lon="8.2043067"><ele>168.0</ele><time>2026-05-01T13:36:29.791Z</time></trkpt><trkpt lat="45.3252167" lon="8.20442"><ele>167.8</ele><time>2026-05-01T13:36:31.791Z</time></trkpt><trkpt lat="45.325165" lon="8.2044833"><ele>167.60000000000002</ele><time>2026-05-01T13:36:32.791Z</time></trkpt><trkpt lat="45.325115" lon="8.2045517"><ele>167.39999999999998</ele><time>2026-05-01T13:36:33.791Z</time></trkpt><trkpt lat="45.325035" lon="8.204675"><ele>167.2</ele><time>2026-05-01T13:36:35.791Z</time></trkpt><trkpt lat="45.32497" lon="8.2047417"><ele>167.0</ele><time>2026-05-01T13:36:37.791Z</time></trkpt><trkpt lat="45.3248567" lon="8.2047933"><ele>167.0</ele><time>2026-05-01T13:36:39.791Z</time></trkpt><trkpt lat="45.3247833" lon="8.2048017"><ele>167.0</ele><time>2026-05-01T13:36:40.791Z</time></trkpt><trkpt lat="45.3247133" lon="8.2048083"><ele>167.0</ele><time>2026-05-01T13:36:41.791Z</time></trkpt><trkpt lat="45.324605" lon="8.20478"><ele>167.0</ele><time>2026-05-01T13:36:43.791Z</time></trkpt><trkpt lat="45.32456" lon="8.204695"><ele>167.0</ele><time>2026-05-01T13:36:45.791Z</time></trkpt><trkpt lat="45.3245033" lon="8.2046083"><ele>167.0</ele><time>2026-05-01T13:36:47.791Z</time></trkpt><trkpt lat="45.3243983" lon="8.2046033"><ele>166.75</ele><time>2026-05-01T13:36:49.79Z</time></trkpt><trkpt lat="45.3243117" lon="8.2046533"><ele>166.5</ele><time>2026-05-01T13:36:50.791Z</time></trkpt><trkpt lat="45.324205" lon="8.2047183"><ele>166.25</ele><time>2026-05-01T13:36:51.79Z</time></trkpt><trkpt lat="45.3240933" lon="8.2047883"><ele>166.0</ele><time>2026-05-01T13:36:52.791Z</time></trkpt><trkpt lat="45.3239733" lon="8.20486"><ele>166.16666666666669</ele><time>2026-05-01T13:36:53.791Z</time></trkpt><trkpt lat="45.3238667" lon="8.2049317"><ele>166.33333333333334</ele><time>2026-05-01T13:36:54.791Z</time></trkpt><trkpt lat="45.3237783" lon="8.2049833"><ele>166.5</ele><time>2026-05-01T13:36:55.791Z</time></trkpt><trkpt lat="45.3237167" lon="8.2050167"><ele>166.66666666666666</ele><time>2026-05-01T13:36:56.791Z</time></trkpt><trkpt lat="45.3236533" lon="8.2050333"><ele>166.83333333333331</ele><time>2026-05-01T13:36:58.791Z</time></trkpt><trkpt lat="45.3235917" lon="8.2050533"><ele>167.0</ele><time>2026-05-01T13:37:01.791Z</time></trkpt><trkpt lat="45.3235483" lon="8.2049667"><ele>167.0</ele><time>2026-05-01T13:37:05.791Z</time></trkpt><trkpt lat="45.3234917" lon="8.2049067"><ele>167.0</ele><time>2026-05-01T13:37:08.791Z</time></trkpt><trkpt lat="45.32342" lon="8.2048467"><ele>167.0</ele><time>2026-05-01T13:37:11.791Z</time></trkpt><trkpt lat="45.3233533" lon="8.2048033"><ele>167.0</ele><time>2026-05-01T13:37:14.791Z</time></trkpt><trkpt lat="45.3232783" lon="8.2047517"><ele>167.0</ele><time>2026-05-01T13:37:17.791Z</time></trkpt><trkpt lat="45.323205" lon="8.204685"><ele>167.0</ele><time>2026-05-01T13:37:20.79Z</time></trkpt><trkpt lat="45.3231283" lon="8.2046683"><ele>167.0</ele><time>2026-05-01T13:37:53.791Z</time></trkpt><trkpt lat="45.3230517" lon="8.2046533"><ele>167.0</ele><time>2026-05-01T13:37:54.791Z</time></trkpt><trkpt lat="45.3229567" lon="8.2046217"><ele>167.0</ele><time>2026-05-01T13:37:55.791Z</time></trkpt><trkpt lat="45.32284" lon="8.2045867"><ele>167.0</ele><time>2026-05-01T13:37:56.791Z</time></trkpt><trkpt lat="45.3227017" lon="8.2045467"><ele>167.0</ele><time>2026-05-01T13:37:57.791Z</time></trkpt><trkpt lat="45.32256" lon="8.2044917"><ele>167.0</ele><time>2026-05-01T13:37:58.791Z</time></trkpt><trkpt lat="45.3224133" lon="8.2044317"><ele>167.0</ele><time>2026-05-01T13:37:59.791Z</time></trkpt><trkpt lat="45.322265" lon="8.2043733"><ele>167.0</ele><time>2026-05-01T13:38:00.791Z</time></trkpt><trkpt lat="45.3221067" lon="8.204305"><ele>167.0</ele><time>2026-05-01T13:38:01.79Z</time></trkpt><trkpt lat="45.3219517" lon="8.20424"><ele>167.0</ele><time>2026-05-01T13:38:02.791Z</time></trkpt><trkpt lat="45.3217983" lon="8.20418"><ele>167.0</ele><time>2026-05-01T13:38:03.791Z</time></trkpt><trkpt lat="45.321645" lon="8.20413"><ele>167.0</ele><time>2026-05-01T13:38:04.791Z</time></trkpt><trkpt lat="45.321485" lon="8.2040733"><ele>167.0</ele><time>2026-05-01T13:38:05.791Z</time></trkpt><trkpt lat="45.3213233" lon="8.20401"><ele>167.0</ele><time>2026-05-01T13:38:06.791Z</time></trkpt><trkpt lat="45.32117" lon="8.2039433"><ele>167.33333333333331</ele><time>2026-05-01T13:38:07.79Z</time></trkpt><trkpt lat="45.3210333" lon="8.20388"><ele>167.66666666666666</ele><time>2026-05-01T13:38:08.791Z</time></trkpt><trkpt lat="45.3208867" lon="8.20383"><ele>168.0</ele><time>2026-05-01T13:38:09.791Z</time></trkpt><trkpt lat="45.3207317" lon="8.2037733"><ele>168.0</ele><time>2026-05-01T13:38:10.791Z</time></trkpt><trkpt lat="45.3205833" lon="8.2037217"><ele>168.0</ele><time>2026-05-01T13:38:11.791Z</time></trkpt><trkpt lat="45.3204317" lon="8.2036583"><ele>168.0</ele><time>2026-05-01T13:38:12.791Z</time></trkpt><trkpt lat="45.3202833" lon="8.203595"><ele>167.75</ele><time>2026-05-01T13:38:13.791Z</time></trkpt><trkpt lat="45.3201383" lon="8.2035333"><ele>167.5</ele><time>2026-05-01T13:38:14.791Z</time></trkpt><trkpt lat="45.3200067" lon="8.2034883"><ele>167.25</ele><time>2026-05-01T13:38:15.79Z</time></trkpt><trkpt lat="45.3198533" lon="8.2034333"><ele>167.0</ele><time>2026-05-01T13:38:16.791Z</time></trkpt><trkpt lat="45.3197183" lon="8.2033983"><ele>166.66666666666666</ele><time>2026-05-01T13:38:17.791Z</time></trkpt><trkpt lat="45.3195717" lon="8.2033633"><ele>166.33333333333334</ele><time>2026-05-01T13:38:18.791Z</time></trkpt><trkpt lat="45.319415" lon="8.2033383"><ele>166.0</ele><time>2026-05-01T13:38:19.791Z</time></trkpt><trkpt lat="45.3192533" lon="8.2032917"><ele>166.0</ele><time>2026-05-01T13:38:20.791Z</time></trkpt><trkpt lat="45.3191083" lon="8.2032467"><ele>166.0</ele><time>2026-05-01T13:38:21.791Z</time></trkpt><trkpt lat="45.318965" lon="8.20321"><ele>166.0</ele><time>2026-05-01T13:38:22.791Z</time></trkpt><trkpt lat="45.3188317" lon="8.203175"><ele>166.0</ele><time>2026-05-01T13:38:23.791Z</time></trkpt><trkpt lat="45.3186933" lon="8.20313"><ele>165.75</ele><time>2026-05-01T13:38:24.791Z</time></trkpt><trkpt lat="45.3185633" lon="8.20309"><ele>165.5</ele><time>2026-05-01T13:38:25.791Z</time></trkpt><trkpt lat="45.3184233" lon="8.203055"><ele>165.25</ele><time>2026-05-01T13:38:26.791Z</time></trkpt><trkpt lat="45.3182867" lon="8.20301"><ele>165.0</ele><time>2026-05-01T13:38:27.791Z</time></trkpt><trkpt lat="45.31816" lon="8.2029683"><ele>165.4</ele><time>2026-05-01T13:38:28.791Z</time></trkpt><trkpt lat="45.31805" lon="8.202925"><ele>165.8</ele><time>2026-05-01T13:38:29.79Z</time></trkpt><trkpt lat="45.3179533" lon="8.2028967"><ele>166.2</ele><time>2026-05-01T13:38:30.791Z</time></trkpt><trkpt lat="45.3178767" lon="8.202875"><ele>166.6</ele><time>2026-05-01T13:38:31.791Z</time></trkpt><trkpt lat="45.317765" lon="8.2028567"><ele>167.0</ele><time>2026-05-01T13:38:33.79Z</time></trkpt><trkpt lat="45.3177" lon="8.202835"><ele>167.0</ele><time>2026-05-01T13:38:48.791Z</time></trkpt><trkpt lat="45.3176283" lon="8.2027167"><ele>167.0</ele><time>2026-05-01T13:38:53.791Z</time></trkpt><trkpt lat="45.3175983" lon="8.2026317"><ele>167.0</ele><time>2026-05-01T13:38:54.791Z</time></trkpt><trkpt lat="45.3175683" lon="8.2025283"><ele>167.0</ele><time>2026-05-01T13:38:55.791Z</time></trkpt><trkpt lat="45.3175417" lon="8.20241"><ele>167.0</ele><time>2026-05-01T13:38:56.791Z</time></trkpt><trkpt lat="45.3175133" lon="8.2022717"><ele>167.0</ele><time>2026-05-01T13:38:57.791Z</time></trkpt><trkpt lat="45.317475" lon="8.202125"><ele>167.0</ele><time>2026-05-01T13:38:58.791Z</time></trkpt><trkpt lat="45.317435" lon="8.2019567"><ele>167.0</ele><time>2026-05-01T13:38:59.79Z</time></trkpt><trkpt lat="45.317395" lon="8.2017917"><ele>167.0</ele><time>2026-05-01T13:39:00.791Z</time></trkpt><trkpt lat="45.31735" lon="8.2016067"><ele>167.0</ele><time>2026-05-01T13:39:01.79Z</time></trkpt><trkpt lat="45.3173033" lon="8.2014133"><ele>167.0</ele><time>2026-05-01T13:39:02.79Z</time></trkpt><trkpt lat="45.31725" lon="8.2012133"><ele>167.0</ele><time>2026-05-01T13:39:03.791Z</time></trkpt><trkpt lat="45.3171983" lon="8.20101"><ele>167.0</ele><time>2026-05-01T13:39:04.791Z</time></trkpt><trkpt lat="45.31714" lon="8.2007983"><ele>166.66666666666666</ele><time>2026-05-01T13:39:05.791Z</time></trkpt><trkpt lat="45.317085" lon="8.2005967"><ele>166.33333333333334</ele><time>2026-05-01T13:39:06.791Z</time></trkpt><trkpt lat="45.3170367" lon="8.2003867"><ele>166.0</ele><time>2026-05-01T13:39:07.791Z</time></trkpt><trkpt lat="45.3169817" lon="8.20018"><ele>166.0</ele><time>2026-05-01T13:39:08.791Z</time></trkpt><trkpt lat="45.3169333" lon="8.199985"><ele>166.0</ele><time>2026-05-01T13:39:09.79Z</time></trkpt><trkpt lat="45.3168833" lon="8.1997883"><ele>166.0</ele><time>2026-05-01T13:39:10.791Z</time></trkpt><trkpt lat="45.316835" lon="8.1995933"><ele>166.0</ele><time>2026-05-01T13:39:11.791Z</time></trkpt><trkpt lat="45.3167867" lon="8.1994"><ele>166.0</ele><time>2026-05-01T13:39:12.79Z</time></trkpt><trkpt lat="45.3167433" lon="8.1992067"><ele>166.0</ele><time>2026-05-01T13:39:13.791Z</time></trkpt><trkpt lat="45.3167017" lon="8.1990267"><ele>166.0</ele><time>2026-05-01T13:39:14.791Z</time></trkpt><trkpt lat="45.316665" lon="8.1988583"><ele>166.0</ele><time>2026-05-01T13:39:15.791Z</time></trkpt><trkpt lat="45.316625" lon="8.1986933"><ele>166.0</ele><time>2026-05-01T13:39:16.791Z</time></trkpt><trkpt lat="45.3165917" lon="8.198545"><ele>166.0</ele><time>2026-05-01T13:39:17.791Z</time></trkpt><trkpt lat="45.3165583" lon="8.1984133"><ele>166.0</ele><time>2026-05-01T13:39:18.791Z</time></trkpt><trkpt lat="45.31653" lon="8.19829"><ele>166.0</ele><time>2026-05-01T13:39:19.79Z</time></trkpt><trkpt lat="45.3165067" lon="8.1981917"><ele>166.0</ele><time>2026-05-01T13:39:20.79Z</time></trkpt><trkpt lat="45.3164833" lon="8.198095"><ele>166.0</ele><time>2026-05-01T13:39:22.791Z</time></trkpt><trkpt lat="45.3164383" lon="8.1979017"><ele>166.0</ele><time>2026-05-01T13:39:37.791Z</time></trkpt><trkpt lat="45.31639" lon="8.1977317"><ele>166.0</ele><time>2026-05-01T13:39:38.791Z</time></trkpt><trkpt lat="45.3163267" lon="8.197555"><ele>166.0</ele><time>2026-05-01T13:39:39.791Z</time></trkpt><trkpt lat="45.316255" lon="8.197375"><ele>166.0</ele><time>2026-05-01T13:39:40.791Z</time></trkpt><trkpt lat="45.31619" lon="8.197185"><ele>166.0</ele><time>2026-05-01T13:39:41.791Z</time></trkpt><trkpt lat="45.3161217" lon="8.1969983"><ele>166.0</ele><time>2026-05-01T13:39:42.791Z</time></trkpt><trkpt lat="45.31606" lon="8.1968117"><ele>166.0</ele><time>2026-05-01T13:39:43.791Z</time></trkpt><trkpt lat="45.3159867" lon="8.1966233"><ele>166.0</ele><time>2026-05-01T13:39:44.791Z</time></trkpt><trkpt lat="45.315925" lon="8.1964367"><ele>166.25</ele><time>2026-05-01T13:39:45.791Z</time></trkpt><trkpt lat="45.3158667" lon="8.196265"><ele>166.5</ele><time>2026-05-01T13:39:46.791Z</time></trkpt><trkpt lat="45.3157967" lon="8.1960833"><ele>166.75</ele><time>2026-05-01T13:39:47.791Z</time></trkpt><trkpt lat="45.31574" lon="8.1959083"><ele>167.0</ele><time>2026-05-01T13:39:48.791Z</time></trkpt><trkpt lat="45.3156733" lon="8.1957383"><ele>167.0</ele><time>2026-05-01T13:39:49.791Z</time></trkpt><trkpt lat="45.3156167" lon="8.1955767"><ele>167.0</ele><time>2026-05-01T13:39:50.791Z</time></trkpt><trkpt lat="45.31556" lon="8.1954117"><ele>167.0</ele><time>2026-05-01T13:39:51.791Z</time></trkpt><trkpt lat="45.3155083" lon="8.19526"><ele>167.0</ele><time>2026-05-01T13:39:52.791Z</time></trkpt><trkpt lat="45.3154667" lon="8.1951217"><ele>167.0</ele><time>2026-05-01T13:39:53.791Z</time></trkpt><trkpt lat="45.3154267" lon="8.19498"><ele>167.0</ele><time>2026-05-01T13:39:54.791Z</time></trkpt><trkpt lat="45.31538" lon="8.19483"><ele>167.0</ele><time>2026-05-01T13:39:55.791Z</time></trkpt><trkpt lat="45.3153367" lon="8.19466"><ele>167.0</ele><time>2026-05-01T13:39:56.791Z</time></trkpt><trkpt lat="45.3152917" lon="8.1944767"><ele>167.0</ele><time>2026-05-01T13:39:57.791Z</time></trkpt><trkpt lat="45.315245" lon="8.194285"><ele>167.0</ele><time>2026-05-01T13:39:58.791Z</time></trkpt><trkpt lat="45.315205" lon="8.194085"><ele>167.0</ele><time>2026-05-01T13:39:59.791Z</time></trkpt><trkpt lat="45.3151617" lon="8.1938933"><ele>167.0</ele><time>2026-05-01T13:40:00.791Z</time></trkpt><trkpt lat="45.31512" lon="8.1937"><ele>167.0</ele><time>2026-05-01T13:40:01.791Z</time></trkpt><trkpt lat="45.31508" lon="8.1935083"><ele>167.0</ele><time>2026-05-01T13:40:02.791Z</time></trkpt><trkpt lat="45.3150433" lon="8.1933067"><ele>167.0</ele><time>2026-05-01T13:40:03.791Z</time></trkpt><trkpt lat="45.315" lon="8.193105"><ele>167.0</ele><time>2026-05-01T13:40:04.791Z</time></trkpt><trkpt lat="45.3149483" lon="8.1928983"><ele>167.0</ele><time>2026-05-01T13:40:05.791Z</time></trkpt><trkpt lat="45.3149017" lon="8.1926917"><ele>167.0</ele><time>2026-05-01T13:40:06.791Z</time></trkpt><trkpt lat="45.3148583" lon="8.1924733"><ele>167.0</ele><time>2026-05-01T13:40:07.791Z</time></trkpt><trkpt lat="45.3148183" lon="8.1922517"><ele>167.0</ele><time>2026-05-01T13:40:08.791Z</time></trkpt><trkpt lat="45.3147767" lon="8.192025"><ele>167.0</ele><time>2026-05-01T13:40:09.791Z</time></trkpt><trkpt lat="45.314725" lon="8.1918067"><ele>167.0</ele><time>2026-05-01T13:40:10.791Z</time></trkpt><trkpt lat="45.3146767" lon="8.1915933"><ele>166.66666666666666</ele><time>2026-05-01T13:40:11.791Z</time></trkpt><trkpt lat="45.3146317" lon="8.19137"><ele>166.33333333333334</ele><time>2026-05-01T13:40:12.79Z</time></trkpt><trkpt lat="45.3145867" lon="8.19114"><ele>166.0</ele><time>2026-05-01T13:40:13.791Z</time></trkpt><trkpt lat="45.3145417" lon="8.190905"><ele>166.0</ele><time>2026-05-01T13:40:14.791Z</time></trkpt><trkpt lat="45.3144917" lon="8.1906817"><ele>166.0</ele><time>2026-05-01T13:40:15.791Z</time></trkpt><trkpt lat="45.314445" lon="8.1904617"><ele>166.0</ele><time>2026-05-01T13:40:16.791Z</time></trkpt><trkpt lat="45.3144" lon="8.1902367"><ele>166.33333333333334</ele><time>2026-05-01T13:40:17.791Z</time></trkpt><trkpt lat="45.3143433" lon="8.19"><ele>166.66666666666666</ele><time>2026-05-01T13:40:18.791Z</time></trkpt><trkpt lat="45.3143017" lon="8.189775"><ele>167.0</ele><time>2026-05-01T13:40:19.791Z</time></trkpt><trkpt lat="45.3142533" lon="8.1895283"><ele>167.0</ele><time>2026-05-01T13:40:20.791Z</time></trkpt><trkpt lat="45.3142" lon="8.18929"><ele>167.0</ele><time>2026-05-01T13:40:21.791Z</time></trkpt><trkpt lat="45.3141483" lon="8.18905"><ele>167.0</ele><time>2026-05-01T13:40:22.791Z</time></trkpt><trkpt lat="45.3141017" lon="8.1888283"><ele>167.25</ele><time>2026-05-01T13:40:23.791Z</time></trkpt><trkpt lat="45.31406" lon="8.1886333"><ele>167.5</ele><time>2026-05-01T13:40:24.791Z</time></trkpt><trkpt lat="45.3140217" lon="8.188455"><ele>167.75</ele><time>2026-05-01T13:40:25.791Z</time></trkpt><trkpt lat="45.3139867" lon="8.1882967"><ele>168.0</ele><time>2026-05-01T13:40:26.791Z</time></trkpt><trkpt lat="45.3139567" lon="8.1881467"><ele>168.0</ele><time>2026-05-01T13:40:27.791Z</time></trkpt><trkpt lat="45.3139283" lon="8.18802"><ele>168.0</ele><time>2026-05-01T13:40:28.791Z</time></trkpt><trkpt lat="45.31391" lon="8.1879117"><ele>168.0</ele><time>2026-05-01T13:40:29.791Z</time></trkpt><trkpt lat="45.3138967" lon="8.187785"><ele>168.0</ele><time>2026-05-01T13:40:31.791Z</time></trkpt><trkpt lat="45.31396" lon="8.18773"><ele>168.0</ele><time>2026-05-01T13:40:33.791Z</time></trkpt><trkpt lat="45.31407" lon="8.187735"><ele>168.0</ele><time>2026-05-01T13:40:35.791Z</time></trkpt><trkpt lat="45.3141617" lon="8.1877467"><ele>168.0</ele><time>2026-05-01T13:40:36.791Z</time></trkpt><trkpt lat="45.3142717" lon="8.1877383"><ele>168.0</ele><time>2026-05-01T13:40:37.791Z</time></trkpt><trkpt lat="45.3143933" lon="8.18772"><ele>168.0</ele><time>2026-05-01T13:40:38.791Z</time></trkpt><trkpt lat="45.31452" lon="8.1876933"><ele>168.0</ele><time>2026-05-01T13:40:39.791Z</time></trkpt><trkpt lat="45.3146417" lon="8.1876667"><ele>168.0</ele><time>2026-05-01T13:40:40.79Z</time></trkpt><trkpt lat="45.3147383" lon="8.18763"><ele>168.0</ele><time>2026-05-01T13:40:41.791Z</time></trkpt><trkpt lat="45.31482" lon="8.18757"><ele>168.0</ele><time>2026-05-01T13:40:42.791Z</time></trkpt><trkpt lat="45.3148983" lon="8.1874967"><ele>168.0</ele><time>2026-05-01T13:40:43.791Z</time></trkpt><trkpt lat="45.3149667" lon="8.1874017"><ele>168.0</ele><time>2026-05-01T13:40:44.791Z</time></trkpt><trkpt lat="45.3150267" lon="8.1873067"><ele>168.16666666666666</ele><time>2026-05-01T13:40:45.791Z</time></trkpt><trkpt lat="45.3150717" lon="8.18724"><ele>168.33333333333334</ele><time>2026-05-01T13:40:46.791Z</time></trkpt><trkpt lat="45.31512" lon="8.1871233"><ele>168.5</ele><time>2026-05-01T13:40:48.791Z</time></trkpt><trkpt lat="45.3150817" lon="8.1870133"><ele>168.66666666666669</ele><time>2026-05-01T13:40:50.791Z</time></trkpt><trkpt lat="45.3150283" lon="8.186965"><ele>168.83333333333334</ele><time>2026-05-01T13:40:51.791Z</time></trkpt><trkpt lat="45.3149567" lon="8.186905"><ele>169.0</ele><time>2026-05-01T13:40:52.791Z</time></trkpt><trkpt lat="45.3148733" lon="8.1868233"><ele>169.0</ele><time>2026-05-01T13:40:53.791Z</time></trkpt><trkpt lat="45.314795" lon="8.186725"><ele>169.0</ele><time>2026-05-01T13:40:54.791Z</time></trkpt><trkpt lat="45.31471" lon="8.1866117"><ele>169.0</ele><time>2026-05-01T13:40:55.791Z</time></trkpt><trkpt lat="45.3146267" lon="8.186505"><ele>169.0</ele><time>2026-05-01T13:40:56.791Z</time></trkpt><trkpt lat="45.3145367" lon="8.186395"><ele>169.25</ele><time>2026-05-01T13:40:57.791Z</time></trkpt><trkpt lat="45.3144533" lon="8.18628"><ele>169.5</ele><time>2026-05-01T13:40:58.79Z</time></trkpt><trkpt lat="45.3143667" lon="8.18618"><ele>169.75</ele><time>2026-05-01T13:40:59.791Z</time></trkpt><trkpt lat="45.3142717" lon="8.186075"><ele>170.0</ele><time>2026-05-01T13:41:00.791Z</time></trkpt><trkpt lat="45.31417" lon="8.185975"><ele>170.0</ele><time>2026-05-01T13:41:01.791Z</time></trkpt><trkpt lat="45.3140717" lon="8.1858733"><ele>170.0</ele><time>2026-05-01T13:41:02.791Z</time></trkpt><trkpt lat="45.3139733" lon="8.18576"><ele>170.0</ele><time>2026-05-01T13:41:03.791Z</time></trkpt><trkpt lat="45.3138783" lon="8.18565"><ele>170.0</ele><time>2026-05-01T13:41:04.791Z</time></trkpt><trkpt lat="45.31379" lon="8.1855383"><ele>169.5</ele><time>2026-05-01T13:41:05.791Z</time></trkpt><trkpt lat="45.313705" lon="8.18542"><ele>169.0</ele><time>2026-05-01T13:41:06.791Z</time></trkpt><trkpt lat="45.3136167" lon="8.1853083"><ele>168.5</ele><time>2026-05-01T13:41:07.791Z</time></trkpt><trkpt lat="45.3135283" lon="8.18519"><ele>168.0</ele><time>2026-05-01T13:41:08.791Z</time></trkpt><trkpt lat="45.313435" lon="8.18508"><ele>168.0</ele><time>2026-05-01T13:41:09.791Z</time></trkpt><trkpt lat="45.31334" lon="8.18497"><ele>168.0</ele><time>2026-05-01T13:41:10.791Z</time></trkpt><trkpt lat="45.3132483" lon="8.18486"><ele>168.0</ele><time>2026-05-01T13:41:11.791Z</time></trkpt><trkpt lat="45.313165" lon="8.1847467"><ele>168.0</ele><time>2026-05-01T13:41:12.791Z</time></trkpt><trkpt lat="45.3130867" lon="8.1846417"><ele>168.0</ele><time>2026-05-01T13:41:13.791Z</time></trkpt><trkpt lat="45.3130117" lon="8.18455"><ele>168.0</ele><time>2026-05-01T13:41:14.791Z</time></trkpt><trkpt lat="45.3129517" lon="8.18447"><ele>168.0</ele><time>2026-05-01T13:41:15.791Z</time></trkpt><trkpt lat="45.3129067" lon="8.1843917"><ele>168.0</ele><time>2026-05-01T13:41:16.791Z</time></trkpt><trkpt lat="45.312845" lon="8.1842533"><ele>168.0</ele><time>2026-05-01T13:41:18.791Z</time></trkpt><trkpt lat="45.3128183" lon="8.1841583"><ele>168.0</ele><time>2026-05-01T13:41:19.79Z</time></trkpt><trkpt lat="45.3128017" lon="8.1840533"><ele>167.83333333333334</ele><time>2026-05-01T13:41:20.791Z</time></trkpt><trkpt lat="45.3127933" lon="8.183935"><ele>167.66666666666666</ele><time>2026-05-01T13:41:21.791Z</time></trkpt><trkpt lat="45.31278" lon="8.18383"><ele>167.5</ele><time>2026-05-01T13:41:22.791Z</time></trkpt><trkpt lat="45.3127683" lon="8.1837317"><ele>167.33333333333331</ele><time>2026-05-01T13:41:23.791Z</time></trkpt><trkpt lat="45.3127567" lon="8.1836367"><ele>167.16666666666666</ele><time>2026-05-01T13:41:24.791Z</time></trkpt><trkpt lat="45.3127467" lon="8.1835283"><ele>167.0</ele><time>2026-05-01T13:41:25.791Z</time></trkpt><trkpt lat="45.3127317" lon="8.1834217"><ele>167.0</ele><time>2026-05-01T13:41:26.791Z</time></trkpt><trkpt lat="45.3127117" lon="8.18331"><ele>167.0</ele><time>2026-05-01T13:41:27.791Z</time></trkpt><trkpt lat="45.31269" lon="8.1831917"><ele>167.0</ele><time>2026-05-01T13:41:28.791Z</time></trkpt><trkpt lat="45.312665" lon="8.1830583"><ele>167.0</ele><time>2026-05-01T13:41:29.791Z</time></trkpt><trkpt lat="45.3126483" lon="8.1829233"><ele>167.0</ele><time>2026-05-01T13:41:30.791Z</time></trkpt><trkpt lat="45.3126233" lon="8.18276"><ele>167.25</ele><time>2026-05-01T13:41:31.791Z</time></trkpt><trkpt lat="45.3125917" lon="8.1826"><ele>167.5</ele><time>2026-05-01T13:41:32.79Z</time></trkpt><trkpt lat="45.31256" lon="8.182435"><ele>167.75</ele><time>2026-05-01T13:41:33.791Z</time></trkpt><trkpt lat="45.312535" lon="8.1822633"><ele>168.0</ele><time>2026-05-01T13:41:34.791Z</time></trkpt><trkpt lat="45.31251" lon="8.182095"><ele>168.25</ele><time>2026-05-01T13:41:35.79Z</time></trkpt><trkpt lat="45.31248" lon="8.18192"><ele>168.5</ele><time>2026-05-01T13:41:36.79Z</time></trkpt><trkpt lat="45.312455" lon="8.18174"><ele>168.75</ele><time>2026-05-01T13:41:37.79Z</time></trkpt><trkpt lat="45.312425" lon="8.1815583"><ele>169.0</ele><time>2026-05-01T13:41:38.79Z</time></trkpt><trkpt lat="45.3123967" lon="8.1813717"><ele>169.0</ele><time>2026-05-01T13:41:39.79Z</time></trkpt><trkpt lat="45.3123683" lon="8.1811833"><ele>169.0</ele><time>2026-05-01T13:41:40.79Z</time></trkpt><trkpt lat="45.3123433" lon="8.18099"><ele>169.0</ele><time>2026-05-01T13:41:41.79Z</time></trkpt><trkpt lat="45.3123167" lon="8.18079"><ele>169.0</ele><time>2026-05-01T13:41:42.79Z</time></trkpt><trkpt lat="45.3122828" lon="8.1805959"><ele>169.0</ele><time>2026-05-01T13:41:43.79Z</time></trkpt><trkpt lat="45.3122426" lon="8.1803965"><ele>169.0</ele><time>2026-05-01T13:41:44.79Z</time></trkpt><trkpt lat="45.3122087" lon="8.1801885"><ele>169.0</ele><time>2026-05-01T13:41:45.79Z</time></trkpt><trkpt lat="45.3121792" lon="8.1799828"><ele>169.0</ele><time>2026-05-01T13:41:46.79Z</time></trkpt><trkpt lat="45.3121527" lon="8.1797701"><ele>169.0</ele><time>2026-05-01T13:41:47.79Z</time></trkpt><trkpt lat="45.3121208" lon="8.1795614"><ele>169.0</ele><time>2026-05-01T13:41:48.789Z</time></trkpt><trkpt lat="45.3120909" lon="8.1793564"><ele>169.0</ele><time>2026-05-01T13:41:49.79Z</time></trkpt><trkpt lat="45.3120547" lon="8.179148"><ele>169.0</ele><time>2026-05-01T13:41:50.79Z</time></trkpt><trkpt lat="45.3120218" lon="8.1789464"><ele>169.0</ele><time>2026-05-01T13:41:51.79Z</time></trkpt><trkpt lat="45.311991" lon="8.1787523"><ele>169.0</ele><time>2026-05-01T13:41:52.79Z</time></trkpt><trkpt lat="45.3119607" lon="8.1785507"><ele>169.0</ele><time>2026-05-01T13:41:53.79Z</time></trkpt><trkpt lat="45.3119327" lon="8.1783493"><ele>169.0</ele><time>2026-05-01T13:41:54.79Z</time></trkpt><trkpt lat="45.3119011" lon="8.1781475"><ele>168.75</ele><time>2026-05-01T13:41:55.79Z</time></trkpt><trkpt lat="45.31187" lon="8.1779442"><ele>168.5</ele><time>2026-05-01T13:41:56.789Z</time></trkpt><trkpt lat="45.3118403" lon="8.1777461"><ele>168.25</ele><time>2026-05-01T13:41:57.79Z</time></trkpt><trkpt lat="45.3118089" lon="8.1775496"><ele>168.0</ele><time>2026-05-01T13:41:58.79Z</time></trkpt><trkpt lat="45.3117785" lon="8.1773513"><ele>167.75</ele><time>2026-05-01T13:41:59.79Z</time></trkpt><trkpt lat="45.3117486" lon="8.1771513"><ele>167.5</ele><time>2026-05-01T13:42:00.79Z</time></trkpt><trkpt lat="45.3117207" lon="8.1769506"><ele>167.25</ele><time>2026-05-01T13:42:01.79Z</time></trkpt><trkpt lat="45.3116895" lon="8.1767479"><ele>167.0</ele><time>2026-05-01T13:42:02.79Z</time></trkpt><trkpt lat="45.3116555" lon="8.1765395"><ele>167.25</ele><time>2026-05-01T13:42:03.79Z</time></trkpt><trkpt lat="45.3116222" lon="8.1763423"><ele>167.5</ele><time>2026-05-01T13:42:04.79Z</time></trkpt><trkpt lat="45.3115879" lon="8.1761524"><ele>167.75</ele><time>2026-05-01T13:42:05.79Z</time></trkpt><trkpt lat="45.3115613" lon="8.1759664"><ele>168.0</ele><time>2026-05-01T13:42:06.79Z</time></trkpt><trkpt lat="45.3115337" lon="8.1757799"><ele>168.25</ele><time>2026-05-01T13:42:07.79Z</time></trkpt><trkpt lat="45.3115081" lon="8.175594"><ele>168.5</ele><time>2026-05-01T13:42:08.79Z</time></trkpt><trkpt lat="45.3114813" lon="8.1754086"><ele>168.75</ele><time>2026-05-01T13:42:09.789Z</time></trkpt><trkpt lat="45.3114545" lon="8.1752254"><ele>169.0</ele><time>2026-05-01T13:42:10.79Z</time></trkpt><trkpt lat="45.3114248" lon="8.1750407"><ele>169.0</ele><time>2026-05-01T13:42:11.79Z</time></trkpt><trkpt lat="45.3113948" lon="8.174858"><ele>169.0</ele><time>2026-05-01T13:42:12.79Z</time></trkpt><trkpt lat="45.311366" lon="8.174682"><ele>169.0</ele><time>2026-05-01T13:42:13.789Z</time></trkpt><trkpt lat="45.3113395" lon="8.1744997"><ele>169.0</ele><time>2026-05-01T13:42:14.79Z</time></trkpt><trkpt lat="45.3113108" lon="8.1743175"><ele>169.0</ele><time>2026-05-01T13:42:15.79Z</time></trkpt><trkpt lat="45.3112869" lon="8.1741366"><ele>169.0</ele><time>2026-05-01T13:42:16.79Z</time></trkpt><trkpt lat="45.3112569" lon="8.1739539"><ele>169.0</ele><time>2026-05-01T13:42:17.79Z</time></trkpt><trkpt lat="45.3112252" lon="8.1737707"><ele>169.0</ele><time>2026-05-01T13:42:18.79Z</time></trkpt><trkpt lat="45.3111922" lon="8.1735934"><ele>169.5</ele><time>2026-05-01T13:42:19.79Z</time></trkpt><trkpt lat="45.3111576" lon="8.1734167"><ele>170.0</ele><time>2026-05-01T13:42:20.79Z</time></trkpt><trkpt lat="45.3111243" lon="8.1732379"><ele>170.5</ele><time>2026-05-01T13:42:21.79Z</time></trkpt><trkpt lat="45.3110944" lon="8.1730672"><ele>171.0</ele><time>2026-05-01T13:42:22.79Z</time></trkpt><trkpt lat="45.3110573" lon="8.1729016"><ele>171.5</ele><time>2026-05-01T13:42:23.79Z</time></trkpt><trkpt lat="45.3110236" lon="8.172734"><ele>172.0</ele><time>2026-05-01T13:42:24.79Z</time></trkpt><trkpt lat="45.310994" lon="8.1725638"><ele>172.5</ele><time>2026-05-01T13:42:25.79Z</time></trkpt><trkpt lat="45.31096" lon="8.1723888"><ele>173.0</ele><time>2026-05-01T13:42:26.79Z</time></trkpt><trkpt lat="45.3109238" lon="8.1722136"><ele>173.25</ele><time>2026-05-01T13:42:27.79Z</time></trkpt><trkpt lat="45.3108886" lon="8.1720424"><ele>173.5</ele><time>2026-05-01T13:42:28.79Z</time></trkpt><trkpt lat="45.3108537" lon="8.1718869"><ele>173.75</ele><time>2026-05-01T13:42:29.79Z</time></trkpt><trkpt lat="45.3108323" lon="8.1717263"><ele>174.0</ele><time>2026-05-01T13:42:30.79Z</time></trkpt><trkpt lat="45.3108121" lon="8.1715767"><ele>173.83333333333334</ele><time>2026-05-01T13:42:31.79Z</time></trkpt><trkpt lat="45.310791" lon="8.1714463"><ele>173.66666666666666</ele><time>2026-05-01T13:42:32.79Z</time></trkpt><trkpt lat="45.3107711" lon="8.1713278"><ele>173.5</ele><time>2026-05-01T13:42:33.79Z</time></trkpt><trkpt lat="45.3107529" lon="8.1712188"><ele>173.33333333333331</ele><time>2026-05-01T13:42:34.79Z</time></trkpt><trkpt lat="45.31073" lon="8.171133"><ele>173.16666666666666</ele><time>2026-05-01T13:42:35.79Z</time></trkpt><trkpt lat="45.3106569" lon="8.1710502"><ele>173.0</ele><time>2026-05-01T13:42:37.79Z</time></trkpt><trkpt lat="45.3105521" lon="8.1710816"><ele>172.8</ele><time>2026-05-01T13:42:39.79Z</time></trkpt><trkpt lat="45.3104865" lon="8.1711162"><ele>172.60000000000002</ele><time>2026-05-01T13:42:40.79Z</time></trkpt><trkpt lat="45.3104275" lon="8.1711688"><ele>172.39999999999998</ele><time>2026-05-01T13:42:41.79Z</time></trkpt><trkpt lat="45.3103523" lon="8.1712681"><ele>172.2</ele><time>2026-05-01T13:42:42.79Z</time></trkpt><trkpt lat="45.3102715" lon="8.1714125"><ele>172.0</ele><time>2026-05-01T13:42:43.79Z</time></trkpt><trkpt lat="45.3101859" lon="8.171572"><ele>172.0</ele><time>2026-05-01T13:42:44.79Z</time></trkpt><trkpt lat="45.3100935" lon="8.1717177"><ele>172.0</ele><time>2026-05-01T13:42:45.79Z</time></trkpt><trkpt lat="45.309994" lon="8.1718595"><ele>172.0</ele><time>2026-05-01T13:42:46.79Z</time></trkpt><trkpt lat="45.3098844" lon="8.1719997"><ele>172.0</ele><time>2026-05-01T13:42:47.79Z</time></trkpt><trkpt lat="45.3097748" lon="8.1721355"><ele>171.25</ele><time>2026-05-01T13:42:48.79Z</time></trkpt><trkpt lat="45.3096659" lon="8.1722703"><ele>170.5</ele><time>2026-05-01T13:42:49.79Z</time></trkpt><trkpt lat="45.3095532" lon="8.1724026"><ele>169.75</ele><time>2026-05-01T13:42:50.79Z</time></trkpt><trkpt lat="45.3094398" lon="8.1725435"><ele>169.0</ele><time>2026-05-01T13:42:51.79Z</time></trkpt><trkpt lat="45.3093238" lon="8.1726797"><ele>169.0</ele><time>2026-05-01T13:42:52.79Z</time></trkpt><trkpt lat="45.3092108" lon="8.1728247"><ele>169.0</ele><time>2026-05-01T13:42:53.79Z</time></trkpt><trkpt lat="45.3090967" lon="8.172971"><ele>169.0</ele><time>2026-05-01T13:42:54.79Z</time></trkpt><trkpt lat="45.3089846" lon="8.1731125"><ele>169.0</ele><time>2026-05-01T13:42:55.789Z</time></trkpt><trkpt lat="45.3088753" lon="8.1732501"><ele>169.0</ele><time>2026-05-01T13:42:56.79Z</time></trkpt><trkpt lat="45.3087653" lon="8.1733903"><ele>169.0</ele><time>2026-05-01T13:42:57.79Z</time></trkpt><trkpt lat="45.3086566" lon="8.1735277"><ele>169.0</ele><time>2026-05-01T13:42:58.79Z</time></trkpt><trkpt lat="45.3085483" lon="8.1736631"><ele>169.0</ele><time>2026-05-01T13:42:59.79Z</time></trkpt><trkpt lat="45.3084375" lon="8.1738081"><ele>169.0</ele><time>2026-05-01T13:43:00.79Z</time></trkpt><trkpt lat="45.3083273" lon="8.1739475"><ele>169.0</ele><time>2026-05-01T13:43:01.79Z</time></trkpt><trkpt lat="45.308216" lon="8.1740833"><ele>169.0</ele><time>2026-05-01T13:43:02.79Z</time></trkpt><trkpt lat="45.3081059" lon="8.1742172"><ele>169.25</ele><time>2026-05-01T13:43:03.79Z</time></trkpt><trkpt lat="45.3080013" lon="8.1743562"><ele>169.5</ele><time>2026-05-01T13:43:04.79Z</time></trkpt><trkpt lat="45.3079021" lon="8.1744931"><ele>169.75</ele><time>2026-05-01T13:43:05.79Z</time></trkpt><trkpt lat="45.3078072" lon="8.1746124"><ele>170.0</ele><time>2026-05-01T13:43:06.79Z</time></trkpt><trkpt lat="45.3077243" lon="8.1747194"><ele>170.0</ele><time>2026-05-01T13:43:07.79Z</time></trkpt><trkpt lat="45.3076509" lon="8.1748094"><ele>170.0</ele><time>2026-05-01T13:43:08.79Z</time></trkpt><trkpt lat="45.3075882" lon="8.1748907"><ele>170.0</ele><time>2026-05-01T13:43:09.79Z</time></trkpt><trkpt lat="45.307529" lon="8.174963"><ele>170.0</ele><time>2026-05-01T13:43:10.789Z</time></trkpt><trkpt lat="45.3074751" lon="8.1750409"><ele>170.0</ele><time>2026-05-01T13:43:11.79Z</time></trkpt><trkpt lat="45.3074213" lon="8.1751061"><ele>170.0</ele><time>2026-05-01T13:43:12.79Z</time></trkpt><trkpt lat="45.3073662" lon="8.1751614"><ele>170.0</ele><time>2026-05-01T13:43:13.79Z</time></trkpt><trkpt lat="45.3072713" lon="8.1752707"><ele>170.0</ele><time>2026-05-01T13:43:15.79Z</time></trkpt><trkpt lat="45.3071929" lon="8.1753754"><ele>170.0</ele><time>2026-05-01T13:43:17.79Z</time></trkpt><trkpt lat="45.3071127" lon="8.1754818"><ele>170.0</ele><time>2026-05-01T13:43:19.79Z</time></trkpt><trkpt lat="45.3070652" lon="8.1755407"><ele>170.0</ele><time>2026-05-01T13:43:20.79Z</time></trkpt><trkpt lat="45.3070204" lon="8.1756084"><ele>169.83333333333331</ele><time>2026-05-01T13:43:21.79Z</time></trkpt><trkpt lat="45.306974" lon="8.1756893"><ele>169.66666666666666</ele><time>2026-05-01T13:43:22.79Z</time></trkpt><trkpt lat="45.3069203" lon="8.1757691"><ele>169.5</ele><time>2026-05-01T13:43:23.79Z</time></trkpt><trkpt lat="45.3068644" lon="8.1758441"><ele>169.33333333333334</ele><time>2026-05-01T13:43:24.789Z</time></trkpt><trkpt lat="45.3068085" lon="8.1759167"><ele>169.16666666666669</ele><time>2026-05-01T13:43:25.79Z</time></trkpt><trkpt lat="45.3067518" lon="8.17599"><ele>169.0</ele><time>2026-05-01T13:43:26.789Z</time></trkpt><trkpt lat="45.306691" lon="8.1760653"><ele>169.0</ele><time>2026-05-01T13:43:27.79Z</time></trkpt><trkpt lat="45.3066303" lon="8.1761408"><ele>169.0</ele><time>2026-05-01T13:43:28.79Z</time></trkpt><trkpt lat="45.306566" lon="8.1762148"><ele>169.0</ele><time>2026-05-01T13:43:29.79Z</time></trkpt><trkpt lat="45.3065029" lon="8.1762855"><ele>169.0</ele><time>2026-05-01T13:43:30.79Z</time></trkpt><trkpt lat="45.3064343" lon="8.176364"><ele>169.0</ele><time>2026-05-01T13:43:31.789Z</time></trkpt><trkpt lat="45.3063685" lon="8.1764479"><ele>169.0</ele><time>2026-05-01T13:43:32.79Z</time></trkpt><trkpt lat="45.3063046" lon="8.1765325"><ele>169.0</ele><time>2026-05-01T13:43:33.79Z</time></trkpt><trkpt lat="45.3062388" lon="8.1766219"><ele>169.0</ele><time>2026-05-01T13:43:34.79Z</time></trkpt><trkpt lat="45.3061746" lon="8.1767034"><ele>169.0</ele><time>2026-05-01T13:43:35.79Z</time></trkpt><trkpt lat="45.3061117" lon="8.1767889"><ele>169.0</ele><time>2026-05-01T13:43:36.79Z</time></trkpt><trkpt lat="45.3060555" lon="8.1768648"><ele>169.0</ele><time>2026-05-01T13:43:37.79Z</time></trkpt><trkpt lat="45.3059994" lon="8.1769394"><ele>169.0</ele><time>2026-05-01T13:43:38.79Z</time></trkpt><trkpt lat="45.3059486" lon="8.1770097"><ele>169.0</ele><time>2026-05-01T13:43:39.79Z</time></trkpt><trkpt lat="45.3059" lon="8.1770807"><ele>169.0</ele><time>2026-05-01T13:43:40.79Z</time></trkpt><trkpt lat="45.3058434" lon="8.1771633"><ele>169.0</ele><time>2026-05-01T13:43:41.79Z</time></trkpt><trkpt lat="45.3057771" lon="8.177248"><ele>169.0</ele><time>2026-05-01T13:43:42.79Z</time></trkpt><trkpt lat="45.3057046" lon="8.177335"><ele>169.0</ele><time>2026-05-01T13:43:43.79Z</time></trkpt><trkpt lat="45.3056279" lon="8.1774254"><ele>169.0</ele><time>2026-05-01T13:43:44.79Z</time></trkpt><trkpt lat="45.3055497" lon="8.1775179"><ele>168.2</ele><time>2026-05-01T13:43:45.79Z</time></trkpt><trkpt lat="45.3054679" lon="8.1776149"><ele>167.39999999999998</ele><time>2026-05-01T13:43:46.79Z</time></trkpt><trkpt lat="45.305383" lon="8.1777107"><ele>166.6</ele><time>2026-05-01T13:43:47.79Z</time></trkpt><trkpt lat="45.3053014" lon="8.1778156"><ele>165.8</ele><time>2026-05-01T13:43:48.79Z</time></trkpt><trkpt lat="45.3052198" lon="8.1779213"><ele>165.0</ele><time>2026-05-01T13:43:49.79Z</time></trkpt><trkpt lat="45.3051372" lon="8.1780317"><ele>165.0</ele><time>2026-05-01T13:43:50.789Z</time></trkpt><trkpt lat="45.3050541" lon="8.1781387"><ele>165.0</ele><time>2026-05-01T13:43:51.79Z</time></trkpt><trkpt lat="45.3049696" lon="8.1782518"><ele>165.0</ele><time>2026-05-01T13:43:52.79Z</time></trkpt><trkpt lat="45.3048868" lon="8.1783593"><ele>165.0</ele><time>2026-05-01T13:43:53.79Z</time></trkpt><trkpt lat="45.3047954" lon="8.1784767"><ele>165.5</ele><time>2026-05-01T13:43:54.79Z</time></trkpt><trkpt lat="45.3047015" lon="8.1785971"><ele>166.0</ele><time>2026-05-01T13:43:55.79Z</time></trkpt><trkpt lat="45.3046023" lon="8.1787191"><ele>166.5</ele><time>2026-05-01T13:43:56.79Z</time></trkpt><trkpt lat="45.3044949" lon="8.1788566"><ele>167.0</ele><time>2026-05-01T13:43:57.79Z</time></trkpt><trkpt lat="45.3043838" lon="8.1790041"><ele>167.0</ele><time>2026-05-01T13:43:58.79Z</time></trkpt><trkpt lat="45.3042674" lon="8.1791573"><ele>167.0</ele><time>2026-05-01T13:43:59.79Z</time></trkpt><trkpt lat="45.3041489" lon="8.1793079"><ele>167.0</ele><time>2026-05-01T13:44:00.79Z</time></trkpt><trkpt lat="45.3040276" lon="8.1794587"><ele>167.0</ele><time>2026-05-01T13:44:01.79Z</time></trkpt><trkpt lat="45.303908" lon="8.1796157"><ele>167.0</ele><time>2026-05-01T13:44:02.789Z</time></trkpt><trkpt lat="45.3037837" lon="8.1797718"><ele>167.0</ele><time>2026-05-01T13:44:03.789Z</time></trkpt><trkpt lat="45.3036607" lon="8.1799247"><ele>166.66666666666666</ele><time>2026-05-01T13:44:04.789Z</time></trkpt><trkpt lat="45.3035395" lon="8.1800805"><ele>166.33333333333334</ele><time>2026-05-01T13:44:05.79Z</time></trkpt><trkpt lat="45.3034179" lon="8.1802458"><ele>166.0</ele><time>2026-05-01T13:44:06.79Z</time></trkpt><trkpt lat="45.3033003" lon="8.1803986"><ele>166.0</ele><time>2026-05-01T13:44:07.79Z</time></trkpt><trkpt lat="45.3031821" lon="8.180549"><ele>166.0</ele><time>2026-05-01T13:44:08.79Z</time></trkpt><trkpt lat="45.3030608" lon="8.1806998"><ele>166.0</ele><time>2026-05-01T13:44:09.79Z</time></trkpt><trkpt lat="45.3029502" lon="8.1808416"><ele>165.66666666666669</ele><time>2026-05-01T13:44:10.79Z</time></trkpt><trkpt lat="45.3028409" lon="8.1809812"><ele>165.33333333333334</ele><time>2026-05-01T13:44:11.79Z</time></trkpt><trkpt lat="45.3027289" lon="8.1811257"><ele>165.0</ele><time>2026-05-01T13:44:12.79Z</time></trkpt><trkpt lat="45.3026144" lon="8.1812683"><ele>165.0</ele><time>2026-05-01T13:44:13.79Z</time></trkpt><trkpt lat="45.3024979" lon="8.1814114"><ele>165.0</ele><time>2026-05-01T13:44:14.79Z</time></trkpt><trkpt lat="45.302381" lon="8.1815559"><ele>165.0</ele><time>2026-05-01T13:44:15.79Z</time></trkpt><trkpt lat="45.3022667" lon="8.1817055"><ele>165.0</ele><time>2026-05-01T13:44:16.79Z</time></trkpt><trkpt lat="45.3021508" lon="8.1818543"><ele>165.0</ele><time>2026-05-01T13:44:17.79Z</time></trkpt><trkpt lat="45.3020344" lon="8.182001"><ele>165.0</ele><time>2026-05-01T13:44:18.79Z</time></trkpt><trkpt lat="45.3019178" lon="8.1821456"><ele>165.0</ele><time>2026-05-01T13:44:19.79Z</time></trkpt><trkpt lat="45.3018032" lon="8.1822897"><ele>165.0</ele><time>2026-05-01T13:44:20.79Z</time></trkpt><trkpt lat="45.301682" lon="8.182443"><ele>165.0</ele><time>2026-05-01T13:44:21.79Z</time></trkpt><trkpt lat="45.3015572" lon="8.1825991"><ele>164.66666666666666</ele><time>2026-05-01T13:44:22.79Z</time></trkpt><trkpt lat="45.301431" lon="8.1827618"><ele>164.33333333333331</ele><time>2026-05-01T13:44:23.79Z</time></trkpt><trkpt lat="45.301305" lon="8.1829246"><ele>164.0</ele><time>2026-05-01T13:44:24.79Z</time></trkpt><trkpt lat="45.3011801" lon="8.18308"><ele>164.0</ele><time>2026-05-01T13:44:25.79Z</time></trkpt><trkpt lat="45.3010596" lon="8.1832354"><ele>164.0</ele><time>2026-05-01T13:44:26.79Z</time></trkpt><trkpt lat="45.3009436" lon="8.1833919"><ele>164.0</ele><time>2026-05-01T13:44:27.79Z</time></trkpt><trkpt lat="45.3008225" lon="8.1835413"><ele>164.0</ele><time>2026-05-01T13:44:28.79Z</time></trkpt><trkpt lat="45.3007009" lon="8.1836962"><ele>164.0</ele><time>2026-05-01T13:44:29.79Z</time></trkpt><trkpt lat="45.300585" lon="8.1838564"><ele>164.0</ele><time>2026-05-01T13:44:30.79Z</time></trkpt><trkpt lat="45.3004636" lon="8.1840102"><ele>164.66666666666666</ele><time>2026-05-01T13:44:31.79Z</time></trkpt><trkpt lat="45.300343" lon="8.1841668"><ele>165.33333333333334</ele><time>2026-05-01T13:44:32.79Z</time></trkpt><trkpt lat="45.3002229" lon="8.1843123"><ele>166.0</ele><time>2026-05-01T13:44:33.79Z</time></trkpt><trkpt lat="45.3001017" lon="8.1844597"><ele>166.0</ele><time>2026-05-01T13:44:34.79Z</time></trkpt><trkpt lat="45.299984" lon="8.184607"><ele>166.0</ele><time>2026-05-01T13:44:35.79Z</time></trkpt><trkpt lat="45.29987" lon="8.1847517"><ele>166.0</ele><time>2026-05-01T13:44:36.79Z</time></trkpt><trkpt lat="45.2997496" lon="8.1848974"><ele>166.0</ele><time>2026-05-01T13:44:37.79Z</time></trkpt><trkpt lat="45.2996273" lon="8.185047"><ele>166.0</ele><time>2026-05-01T13:44:38.79Z</time></trkpt><trkpt lat="45.299513" lon="8.1851925"><ele>166.0</ele><time>2026-05-01T13:44:39.79Z</time></trkpt><trkpt lat="45.2993984" lon="8.1853438"><ele>166.0</ele><time>2026-05-01T13:44:40.79Z</time></trkpt><trkpt lat="45.2992847" lon="8.1854967"><ele>166.0</ele><time>2026-05-01T13:44:41.79Z</time></trkpt><trkpt lat="45.2991679" lon="8.1856463"><ele>166.0</ele><time>2026-05-01T13:44:42.79Z</time></trkpt><trkpt lat="45.2990534" lon="8.1857874"><ele>165.33333333333334</ele><time>2026-05-01T13:44:43.79Z</time></trkpt><trkpt lat="45.2989412" lon="8.1859321"><ele>164.66666666666666</ele><time>2026-05-01T13:44:44.789Z</time></trkpt><trkpt lat="45.2988283" lon="8.1860768"><ele>164.0</ele><time>2026-05-01T13:44:45.79Z</time></trkpt><trkpt lat="45.2987136" lon="8.1862259"><ele>164.0</ele><time>2026-05-01T13:44:46.79Z</time></trkpt><trkpt lat="45.2986013" lon="8.1863714"><ele>164.0</ele><time>2026-05-01T13:44:47.79Z</time></trkpt><trkpt lat="45.2984882" lon="8.1865131"><ele>164.0</ele><time>2026-05-01T13:44:48.79Z</time></trkpt><trkpt lat="45.2983737" lon="8.1866606"><ele>164.0</ele><time>2026-05-01T13:44:49.79Z</time></trkpt><trkpt lat="45.2982587" lon="8.1868061"><ele>164.0</ele><time>2026-05-01T13:44:50.79Z</time></trkpt><trkpt lat="45.2981426" lon="8.1869528"><ele>164.0</ele><time>2026-05-01T13:44:51.79Z</time></trkpt><trkpt lat="45.2980249" lon="8.1871041"><ele>163.66666666666666</ele><time>2026-05-01T13:44:52.79Z</time></trkpt><trkpt lat="45.2979049" lon="8.1872534"><ele>163.33333333333334</ele><time>2026-05-01T13:44:53.79Z</time></trkpt><trkpt lat="45.2977855" lon="8.1874077"><ele>163.0</ele><time>2026-05-01T13:44:54.79Z</time></trkpt><trkpt lat="45.2976642" lon="8.1875668"><ele>163.0</ele><time>2026-05-01T13:44:55.79Z</time></trkpt><trkpt lat="45.297542" lon="8.1877245"><ele>163.0</ele><time>2026-05-01T13:44:56.79Z</time></trkpt><trkpt lat="45.2974186" lon="8.1878793"><ele>163.0</ele><time>2026-05-01T13:44:57.79Z</time></trkpt><trkpt lat="45.2972955" lon="8.1880391"><ele>162.66666666666669</ele><time>2026-05-01T13:44:58.79Z</time></trkpt><trkpt lat="45.2971734" lon="8.1881982"><ele>162.33333333333334</ele><time>2026-05-01T13:44:59.789Z</time></trkpt><trkpt lat="45.2970504" lon="8.1883491"><ele>162.0</ele><time>2026-05-01T13:45:00.79Z</time></trkpt><trkpt lat="45.2969274" lon="8.1884976"><ele>162.0</ele><time>2026-05-01T13:45:01.79Z</time></trkpt><trkpt lat="45.2968055" lon="8.1886523"><ele>162.0</ele><time>2026-05-01T13:45:02.79Z</time></trkpt><trkpt lat="45.2966849" lon="8.1888111"><ele>162.0</ele><time>2026-05-01T13:45:03.79Z</time></trkpt><trkpt lat="45.2965622" lon="8.1889657"><ele>162.0</ele><time>2026-05-01T13:45:04.79Z</time></trkpt><trkpt lat="45.2964383" lon="8.18912"><ele>162.0</ele><time>2026-05-01T13:45:05.79Z</time></trkpt><trkpt lat="45.2963117" lon="8.1892817"><ele>162.0</ele><time>2026-05-01T13:45:06.79Z</time></trkpt><trkpt lat="45.2961867" lon="8.1894417"><ele>162.0</ele><time>2026-05-01T13:45:07.79Z</time></trkpt><trkpt lat="45.296075" lon="8.1896"><ele>162.0</ele><time>2026-05-01T13:45:08.79Z</time></trkpt><trkpt lat="45.2959533" lon="8.1897667"><ele>162.0</ele><time>2026-05-01T13:45:09.79Z</time></trkpt><trkpt lat="45.29584" lon="8.1899083"><ele>162.0</ele><time>2026-05-01T13:45:10.79Z</time></trkpt><trkpt lat="45.29572" lon="8.1900683"><ele>162.0</ele><time>2026-05-01T13:45:11.79Z</time></trkpt><trkpt lat="45.295605" lon="8.19024"><ele>162.0</ele><time>2026-05-01T13:45:12.79Z</time></trkpt><trkpt lat="45.295505" lon="8.1904033"><ele>162.0</ele><time>2026-05-01T13:45:13.79Z</time></trkpt><trkpt lat="45.2954033" lon="8.19057"><ele>162.0</ele><time>2026-05-01T13:45:14.79Z</time></trkpt><trkpt lat="45.2953117" lon="8.1907317"><ele>162.0</ele><time>2026-05-01T13:45:15.789Z</time></trkpt><trkpt lat="45.2952283" lon="8.1908833"><ele>162.0</ele><time>2026-05-01T13:45:16.79Z</time></trkpt><trkpt lat="45.2951533" lon="8.1910333"><ele>162.0</ele><time>2026-05-01T13:45:17.79Z</time></trkpt><trkpt lat="45.2950917" lon="8.1911883"><ele>162.0</ele><time>2026-05-01T13:45:18.79Z</time></trkpt><trkpt lat="45.2950467" lon="8.19136"><ele>162.0</ele><time>2026-05-01T13:45:19.79Z</time></trkpt><trkpt lat="45.2950183" lon="8.1915267"><ele>162.0</ele><time>2026-05-01T13:45:20.79Z</time></trkpt><trkpt lat="45.295" lon="8.1916983"><ele>162.0</ele><time>2026-05-01T13:45:21.79Z</time></trkpt><trkpt lat="45.295" lon="8.191855"><ele>162.0</ele><time>2026-05-01T13:45:22.79Z</time></trkpt><trkpt lat="45.2949867" lon="8.19205"><ele>162.0</ele><time>2026-05-01T13:45:23.79Z</time></trkpt><trkpt lat="45.29497" lon="8.1922117"><ele>162.0</ele><time>2026-05-01T13:45:24.79Z</time></trkpt><trkpt lat="45.2949583" lon="8.192375"><ele>162.39999999999998</ele><time>2026-05-01T13:45:25.79Z</time></trkpt><trkpt lat="45.2949383" lon="8.1925167"><ele>162.79999999999998</ele><time>2026-05-01T13:45:26.79Z</time></trkpt><trkpt lat="45.29491" lon="8.1926433"><ele>163.2</ele><time>2026-05-01T13:45:27.79Z</time></trkpt><trkpt lat="45.2948667" lon="8.192755"><ele>163.6</ele><time>2026-05-01T13:45:28.79Z</time></trkpt><trkpt lat="45.2948167" lon="8.19287"><ele>164.0</ele><time>2026-05-01T13:45:29.79Z</time></trkpt><trkpt lat="45.2947567" lon="8.1929933"><ele>163.75</ele><time>2026-05-01T13:45:30.789Z</time></trkpt><trkpt lat="45.2946817" lon="8.1931083"><ele>163.5</ele><time>2026-05-01T13:45:31.79Z</time></trkpt><trkpt lat="45.2946067" lon="8.1932333"><ele>163.25</ele><time>2026-05-01T13:45:32.789Z</time></trkpt><trkpt lat="45.2945283" lon="8.193365"><ele>163.0</ele><time>2026-05-01T13:45:33.79Z</time></trkpt><trkpt lat="45.294455" lon="8.1934983"><ele>163.0</ele><time>2026-05-01T13:45:34.79Z</time></trkpt><trkpt lat="45.2943817" lon="8.1936333"><ele>163.0</ele><time>2026-05-01T13:45:35.789Z</time></trkpt><trkpt lat="45.294315" lon="8.193765"><ele>163.0</ele><time>2026-05-01T13:45:36.79Z</time></trkpt><trkpt lat="45.2942567" lon="8.1938817"><ele>163.0</ele><time>2026-05-01T13:45:37.79Z</time></trkpt><trkpt lat="45.2942083" lon="8.1939733"><ele>163.0</ele><time>2026-05-01T13:45:38.79Z</time></trkpt><trkpt lat="45.29417" lon="8.1940467"><ele>163.0</ele><time>2026-05-01T13:45:39.79Z</time></trkpt><trkpt lat="45.2940983" lon="8.1941667"><ele>163.0</ele><time>2026-05-01T13:45:41.79Z</time></trkpt><trkpt lat="45.294025" lon="8.19421"><ele>163.0</ele><time>2026-05-01T13:45:43.79Z</time></trkpt><trkpt lat="45.29393" lon="8.1941317"><ele>163.0</ele><time>2026-05-01T13:45:45.79Z</time></trkpt><trkpt lat="45.2938767" lon="8.19407"><ele>163.0</ele><time>2026-05-01T13:45:46.79Z</time></trkpt><trkpt lat="45.2938217" lon="8.1940133"><ele>163.0</ele><time>2026-05-01T13:45:47.79Z</time></trkpt><trkpt lat="45.2937633" lon="8.1939567"><ele>163.0</ele><time>2026-05-01T13:45:48.79Z</time></trkpt><trkpt lat="45.2937067" lon="8.1939017"><ele>163.0</ele><time>2026-05-01T13:45:49.79Z</time></trkpt><trkpt lat="45.293645" lon="8.1938483"><ele>163.0</ele><time>2026-05-01T13:45:50.79Z</time></trkpt><trkpt lat="45.2935817" lon="8.193785"><ele>163.0</ele><time>2026-05-01T13:45:51.79Z</time></trkpt><trkpt lat="45.2935117" lon="8.1937233"><ele>163.0</ele><time>2026-05-01T13:45:52.79Z</time></trkpt><trkpt lat="45.2934383" lon="8.1936667"><ele>163.0</ele><time>2026-05-01T13:45:53.79Z</time></trkpt><trkpt lat="45.29336" lon="8.1936017"><ele>163.0</ele><time>2026-05-01T13:45:54.79Z</time></trkpt><trkpt lat="45.2932767" lon="8.19353"><ele>163.0</ele><time>2026-05-01T13:45:55.79Z</time></trkpt><trkpt lat="45.29319" lon="8.19346"><ele>163.0</ele><time>2026-05-01T13:45:56.79Z</time></trkpt><trkpt lat="45.293105" lon="8.1933867"><ele>163.0</ele><time>2026-05-01T13:45:57.79Z</time></trkpt><trkpt lat="45.2930233" lon="8.1933133"><ele>163.0</ele><time>2026-05-01T13:45:58.79Z</time></trkpt><trkpt lat="45.2929333" lon="8.1932383"><ele>162.8</ele><time>2026-05-01T13:45:59.79Z</time></trkpt><trkpt lat="45.2928483" lon="8.1931617"><ele>162.60000000000002</ele><time>2026-05-01T13:46:00.79Z</time></trkpt><trkpt lat="45.29276" lon="8.1930867"><ele>162.39999999999998</ele><time>2026-05-01T13:46:01.79Z</time></trkpt><trkpt lat="45.2926717" lon="8.1930083"><ele>162.2</ele><time>2026-05-01T13:46:02.79Z</time></trkpt><trkpt lat="45.2925817" lon="8.19293"><ele>162.0</ele><time>2026-05-01T13:46:03.79Z</time></trkpt><trkpt lat="45.292495" lon="8.192865"><ele>162.0</ele><time>2026-05-01T13:46:04.79Z</time></trkpt><trkpt lat="45.2924083" lon="8.1927817"><ele>162.0</ele><time>2026-05-01T13:46:05.79Z</time></trkpt><trkpt lat="45.2923133" lon="8.192705"><ele>162.0</ele><time>2026-05-01T13:46:06.79Z</time></trkpt><trkpt lat="45.2922283" lon="8.1926183"><ele>162.0</ele><time>2026-05-01T13:46:07.79Z</time></trkpt><trkpt lat="45.2921433" lon="8.192535"><ele>162.0</ele><time>2026-05-01T13:46:08.789Z</time></trkpt><trkpt lat="45.2920667" lon="8.19245"><ele>161.8</ele><time>2026-05-01T13:46:09.79Z</time></trkpt><trkpt lat="45.2919817" lon="8.1923583"><ele>161.6</ele><time>2026-05-01T13:46:10.79Z</time></trkpt><trkpt lat="45.2918983" lon="8.1922633"><ele>161.4</ele><time>2026-05-01T13:46:11.79Z</time></trkpt><trkpt lat="45.2918183" lon="8.1921717"><ele>161.20000000000002</ele><time>2026-05-01T13:46:12.79Z</time></trkpt><trkpt lat="45.2917367" lon="8.1920917"><ele>161.0</ele><time>2026-05-01T13:46:13.79Z</time></trkpt><trkpt lat="45.29166" lon="8.1920117"><ele>161.0</ele><time>2026-05-01T13:46:14.79Z</time></trkpt><trkpt lat="45.2915817" lon="8.191925"><ele>161.0</ele><time>2026-05-01T13:46:15.79Z</time></trkpt><trkpt lat="45.2915083" lon="8.1918367"><ele>161.0</ele><time>2026-05-01T13:46:16.79Z</time></trkpt><trkpt lat="45.291425" lon="8.1917383"><ele>161.0</ele><time>2026-05-01T13:46:17.79Z</time></trkpt><trkpt lat="45.291345" lon="8.1916383"><ele>161.0</ele><time>2026-05-01T13:46:18.79Z</time></trkpt><trkpt lat="45.2912667" lon="8.1915433"><ele>161.20000000000002</ele><time>2026-05-01T13:46:19.79Z</time></trkpt><trkpt lat="45.2911833" lon="8.1914433"><ele>161.4</ele><time>2026-05-01T13:46:20.79Z</time></trkpt><trkpt lat="45.2910983" lon="8.1913483"><ele>161.6</ele><time>2026-05-01T13:46:21.79Z</time></trkpt><trkpt lat="45.2910167" lon="8.1912517"><ele>161.8</ele><time>2026-05-01T13:46:22.79Z</time></trkpt><trkpt lat="45.2909333" lon="8.19115"><ele>162.0</ele><time>2026-05-01T13:46:23.79Z</time></trkpt><trkpt lat="45.2908483" lon="8.1910517"><ele>162.0</ele><time>2026-05-01T13:46:24.79Z</time></trkpt><trkpt lat="45.290765" lon="8.1909567"><ele>162.0</ele><time>2026-05-01T13:46:25.79Z</time></trkpt><trkpt lat="45.290685" lon="8.19086"><ele>162.0</ele><time>2026-05-01T13:46:26.79Z</time></trkpt><trkpt lat="45.2906033" lon="8.1907633"><ele>162.0</ele><time>2026-05-01T13:46:27.79Z</time></trkpt><trkpt lat="45.2905217" lon="8.1906667"><ele>162.0</ele><time>2026-05-01T13:46:28.79Z</time></trkpt><trkpt lat="45.29044" lon="8.1905667"><ele>161.8</ele><time>2026-05-01T13:46:29.789Z</time></trkpt><trkpt lat="45.2903567" lon="8.1904633"><ele>161.6</ele><time>2026-05-01T13:46:30.79Z</time></trkpt><trkpt lat="45.2902767" lon="8.1903617"><ele>161.4</ele><time>2026-05-01T13:46:31.79Z</time></trkpt><trkpt lat="45.2901867" lon="8.1902617"><ele>161.20000000000002</ele><time>2026-05-01T13:46:32.789Z</time></trkpt><trkpt lat="45.2900983" lon="8.190165"><ele>161.0</ele><time>2026-05-01T13:46:33.79Z</time></trkpt><trkpt lat="45.290015" lon="8.1900783"><ele>161.0</ele><time>2026-05-01T13:46:34.79Z</time></trkpt><trkpt lat="45.2899317" lon="8.1899783"><ele>161.0</ele><time>2026-05-01T13:46:35.79Z</time></trkpt><trkpt lat="45.2898483" lon="8.189875"><ele>161.0</ele><time>2026-05-01T13:46:36.79Z</time></trkpt><trkpt lat="45.289765" lon="8.1897783"><ele>161.0</ele><time>2026-05-01T13:46:37.79Z</time></trkpt><trkpt lat="45.2896817" lon="8.18968"><ele>161.0</ele><time>2026-05-01T13:46:38.79Z</time></trkpt><trkpt lat="45.2896067" lon="8.189585"><ele>161.20000000000002</ele><time>2026-05-01T13:46:39.79Z</time></trkpt><trkpt lat="45.2895317" lon="8.1894967"><ele>161.4</ele><time>2026-05-01T13:46:40.79Z</time></trkpt><trkpt lat="45.2894633" lon="8.1894167"><ele>161.6</ele><time>2026-05-01T13:46:41.79Z</time></trkpt><trkpt lat="45.2894067" lon="8.1893417"><ele>161.8</ele><time>2026-05-01T13:46:42.79Z</time></trkpt><trkpt lat="45.2893517" lon="8.1892683"><ele>162.0</ele><time>2026-05-01T13:46:43.79Z</time></trkpt><trkpt lat="45.2892617" lon="8.1891683"><ele>162.0</ele><time>2026-05-01T13:46:45.79Z</time></trkpt><trkpt lat="45.28918" lon="8.18912"><ele>162.0</ele><time>2026-05-01T13:46:48.79Z</time></trkpt><trkpt lat="45.2891183" lon="8.1891767"><ele>162.0</ele><time>2026-05-01T13:46:51.79Z</time></trkpt><trkpt lat="45.2891867" lon="8.1891533"><ele>162.0</ele><time>2026-05-01T13:48:40.79Z</time></trkpt><trkpt lat="45.2892167" lon="8.1890183"><ele>162.0</ele><time>2026-05-01T13:48:42.79Z</time></trkpt><trkpt lat="45.28925" lon="8.1889367"><ele>162.0</ele><time>2026-05-01T13:48:43.79Z</time></trkpt><trkpt lat="45.2892783" lon="8.1888417"><ele>162.0</ele><time>2026-05-01T13:48:44.79Z</time></trkpt><trkpt lat="45.28931" lon="8.1887417"><ele>162.0</ele><time>2026-05-01T13:48:45.79Z</time></trkpt><trkpt lat="45.2893417" lon="8.1886233"><ele>162.0</ele><time>2026-05-01T13:48:46.79Z</time></trkpt><trkpt lat="45.2893817" lon="8.1884967"><ele>162.0</ele><time>2026-05-01T13:48:47.79Z</time></trkpt><trkpt lat="45.2894183" lon="8.1883583"><ele>162.0</ele><time>2026-05-01T13:48:48.79Z</time></trkpt><trkpt lat="45.2894533" lon="8.1882"><ele>162.33333333333334</ele><time>2026-05-01T13:48:49.79Z</time></trkpt><trkpt lat="45.2894917" lon="8.188035"><ele>162.66666666666669</ele><time>2026-05-01T13:48:50.79Z</time></trkpt><trkpt lat="45.2895267" lon="8.1878667"><ele>163.0</ele><time>2026-05-01T13:48:51.79Z</time></trkpt><trkpt lat="45.2896017" lon="8.1875233"><ele>163.0</ele><time>2026-05-01T13:48:53.79Z</time></trkpt><trkpt lat="45.2896483" lon="8.1873467"><ele>163.0</ele><time>2026-05-01T13:48:54.79Z</time></trkpt><trkpt lat="45.2896983" lon="8.1871683"><ele>163.0</ele><time>2026-05-01T13:48:55.79Z</time></trkpt><trkpt lat="45.2897467" lon="8.1869833"><ele>163.0</ele><time>2026-05-01T13:48:56.79Z</time></trkpt><trkpt lat="45.2897883" lon="8.1867933"><ele>162.5</ele><time>2026-05-01T13:48:57.79Z</time></trkpt><trkpt lat="45.2898317" lon="8.1865983"><ele>162.0</ele><time>2026-05-01T13:48:58.79Z</time></trkpt><trkpt lat="45.2898733" lon="8.1863867"><ele>161.5</ele><time>2026-05-01T13:48:59.79Z</time></trkpt><trkpt lat="45.2899167" lon="8.1861867"><ele>161.0</ele><time>2026-05-01T13:49:00.79Z</time></trkpt><trkpt lat="45.28997" lon="8.1859867"><ele>161.0</ele><time>2026-05-01T13:49:01.79Z</time></trkpt><trkpt lat="45.29002" lon="8.1857817"><ele>161.0</ele><time>2026-05-01T13:49:02.79Z</time></trkpt><trkpt lat="45.29007" lon="8.185575"><ele>161.0</ele><time>2026-05-01T13:49:03.79Z</time></trkpt><trkpt lat="45.2901167" lon="8.1853683"><ele>161.33333333333331</ele><time>2026-05-01T13:49:04.79Z</time></trkpt><trkpt lat="45.2901683" lon="8.1851633"><ele>161.66666666666666</ele><time>2026-05-01T13:49:05.79Z</time></trkpt><trkpt lat="45.290215" lon="8.1849567"><ele>162.0</ele><time>2026-05-01T13:49:06.79Z</time></trkpt><trkpt lat="45.2902667" lon="8.184755"><ele>162.0</ele><time>2026-05-01T13:49:07.79Z</time></trkpt><trkpt lat="45.2903183" lon="8.1845433"><ele>162.0</ele><time>2026-05-01T13:49:08.79Z</time></trkpt><trkpt lat="45.2903717" lon="8.1843383"><ele>162.0</ele><time>2026-05-01T13:49:09.79Z</time></trkpt><trkpt lat="45.29042" lon="8.18412"><ele>162.0</ele><time>2026-05-01T13:49:10.79Z</time></trkpt><trkpt lat="45.2904667" lon="8.1839"><ele>162.0</ele><time>2026-05-01T13:49:11.79Z</time></trkpt><trkpt lat="45.2905083" lon="8.1836783"><ele>162.0</ele><time>2026-05-01T13:49:12.79Z</time></trkpt><trkpt lat="45.29056" lon="8.1834533"><ele>162.33333333333334</ele><time>2026-05-01T13:49:13.79Z</time></trkpt><trkpt lat="45.290615" lon="8.1832267"><ele>162.66666666666669</ele><time>2026-05-01T13:49:14.79Z</time></trkpt><trkpt lat="45.2906717" lon="8.1830017"><ele>163.0</ele><time>2026-05-01T13:49:15.79Z</time></trkpt><trkpt lat="45.2907233" lon="8.1827767"><ele>163.0</ele><time>2026-05-01T13:49:16.79Z</time></trkpt><trkpt lat="45.29078" lon="8.18255"><ele>163.0</ele><time>2026-05-01T13:49:17.79Z</time></trkpt><trkpt lat="45.29083" lon="8.1823267"><ele>163.0</ele><time>2026-05-01T13:49:18.789Z</time></trkpt><trkpt lat="45.29088" lon="8.1820983"><ele>163.0</ele><time>2026-05-01T13:49:19.789Z</time></trkpt><trkpt lat="45.2909333" lon="8.1818617"><ele>163.0</ele><time>2026-05-01T13:49:20.789Z</time></trkpt><trkpt lat="45.2909833" lon="8.181635"><ele>163.0</ele><time>2026-05-01T13:49:21.789Z</time></trkpt><trkpt lat="45.29104" lon="8.1814117"><ele>163.33333333333334</ele><time>2026-05-01T13:49:22.789Z</time></trkpt><trkpt lat="45.2910867" lon="8.18119"><ele>163.66666666666666</ele><time>2026-05-01T13:49:23.789Z</time></trkpt><trkpt lat="45.29114" lon="8.180975"><ele>164.0</ele><time>2026-05-01T13:49:24.789Z</time></trkpt><trkpt lat="45.291195" lon="8.1807567"><ele>163.66666666666666</ele><time>2026-05-01T13:49:25.789Z</time></trkpt><trkpt lat="45.2912467" lon="8.180535"><ele>163.33333333333334</ele><time>2026-05-01T13:49:26.789Z</time></trkpt><trkpt lat="45.291305" lon="8.1803167"><ele>163.0</ele><time>2026-05-01T13:49:27.789Z</time></trkpt><trkpt lat="45.2913717" lon="8.1801083"><ele>163.0</ele><time>2026-05-01T13:49:28.789Z</time></trkpt><trkpt lat="45.2914467" lon="8.1799117"><ele>163.0</ele><time>2026-05-01T13:49:29.789Z</time></trkpt><trkpt lat="45.2915217" lon="8.1797033"><ele>163.0</ele><time>2026-05-01T13:49:30.789Z</time></trkpt><trkpt lat="45.291595" lon="8.1794983"><ele>163.33333333333334</ele><time>2026-05-01T13:49:31.789Z</time></trkpt><trkpt lat="45.291675" lon="8.17929"><ele>163.66666666666666</ele><time>2026-05-01T13:49:32.789Z</time></trkpt><trkpt lat="45.2917583" lon="8.1790783"><ele>164.0</ele><time>2026-05-01T13:49:33.789Z</time></trkpt><trkpt lat="45.2918333" lon="8.1788617"><ele>164.0</ele><time>2026-05-01T13:49:34.789Z</time></trkpt><trkpt lat="45.2919117" lon="8.1786567"><ele>164.0</ele><time>2026-05-01T13:49:35.789Z</time></trkpt><trkpt lat="45.2919867" lon="8.1784383"><ele>164.0</ele><time>2026-05-01T13:49:36.789Z</time></trkpt><trkpt lat="45.29207" lon="8.1782283"><ele>164.0</ele><time>2026-05-01T13:49:37.789Z</time></trkpt><trkpt lat="45.292155" lon="8.1780167"><ele>164.0</ele><time>2026-05-01T13:49:38.789Z</time></trkpt><trkpt lat="45.2922383" lon="8.1777983"><ele>164.0</ele><time>2026-05-01T13:49:39.789Z</time></trkpt><trkpt lat="45.29232" lon="8.1775767"><ele>164.33333333333331</ele><time>2026-05-01T13:49:40.789Z</time></trkpt><trkpt lat="45.2923933" lon="8.1773617"><ele>164.66666666666666</ele><time>2026-05-01T13:49:41.789Z</time></trkpt><trkpt lat="45.2924683" lon="8.1771483"><ele>165.0</ele><time>2026-05-01T13:49:42.789Z</time></trkpt><trkpt lat="45.2925483" lon="8.1769433"><ele>165.0</ele><time>2026-05-01T13:49:43.789Z</time></trkpt><trkpt lat="45.292635" lon="8.1767267"><ele>165.0</ele><time>2026-05-01T13:49:44.789Z</time></trkpt><trkpt lat="45.2927133" lon="8.17651"><ele>165.0</ele><time>2026-05-01T13:49:45.789Z</time></trkpt><trkpt lat="45.2927933" lon="8.176295"><ele>165.0</ele><time>2026-05-01T13:49:46.789Z</time></trkpt><trkpt lat="45.2928717" lon="8.1760667"><ele>165.0</ele><time>2026-05-01T13:49:47.788Z</time></trkpt><trkpt lat="45.2929533" lon="8.17584"><ele>165.0</ele><time>2026-05-01T13:49:48.789Z</time></trkpt><trkpt lat="45.2930333" lon="8.175615"><ele>164.66666666666666</ele><time>2026-05-01T13:49:49.789Z</time></trkpt><trkpt lat="45.293115" lon="8.1753917"><ele>164.33333333333331</ele><time>2026-05-01T13:49:50.789Z</time></trkpt><trkpt lat="45.2931967" lon="8.17518"><ele>164.0</ele><time>2026-05-01T13:49:51.789Z</time></trkpt><trkpt lat="45.2932767" lon="8.1749617"><ele>164.33333333333331</ele><time>2026-05-01T13:49:52.789Z</time></trkpt><trkpt lat="45.293355" lon="8.1747417"><ele>164.66666666666666</ele><time>2026-05-01T13:49:53.789Z</time></trkpt><trkpt lat="45.29343" lon="8.17452"><ele>165.0</ele><time>2026-05-01T13:49:54.789Z</time></trkpt><trkpt lat="45.2935067" lon="8.1743"><ele>165.0</ele><time>2026-05-01T13:49:55.789Z</time></trkpt><trkpt lat="45.2935867" lon="8.1740933"><ele>165.0</ele><time>2026-05-01T13:49:56.789Z</time></trkpt><trkpt lat="45.2936683" lon="8.1738917"><ele>165.0</ele><time>2026-05-01T13:49:57.789Z</time></trkpt><trkpt lat="45.2937417" lon="8.17369"><ele>165.0</ele><time>2026-05-01T13:49:58.789Z</time></trkpt><trkpt lat="45.293825" lon="8.1734917"><ele>165.0</ele><time>2026-05-01T13:49:59.789Z</time></trkpt><trkpt lat="45.2939133" lon="8.1733033"><ele>165.0</ele><time>2026-05-01T13:50:00.789Z</time></trkpt><trkpt lat="45.294" lon="8.1731117"><ele>165.0</ele><time>2026-05-01T13:50:01.789Z</time></trkpt><trkpt lat="45.2940833" lon="8.17291"><ele>165.0</ele><time>2026-05-01T13:50:02.789Z</time></trkpt><trkpt lat="45.2941733" lon="8.1727167"><ele>165.0</ele><time>2026-05-01T13:50:03.789Z</time></trkpt><trkpt lat="45.29426" lon="8.1725167"><ele>165.0</ele><time>2026-05-01T13:50:04.789Z</time></trkpt><trkpt lat="45.294345" lon="8.1723167"><ele>165.0</ele><time>2026-05-01T13:50:05.789Z</time></trkpt><trkpt lat="45.294425" lon="8.17212"><ele>165.0</ele><time>2026-05-01T13:50:06.789Z</time></trkpt><trkpt lat="45.2945133" lon="8.171915"><ele>165.0</ele><time>2026-05-01T13:50:07.789Z</time></trkpt><trkpt lat="45.294605" lon="8.1717133"><ele>165.0</ele><time>2026-05-01T13:50:08.789Z</time></trkpt><trkpt lat="45.294695" lon="8.1714967"><ele>165.0</ele><time>2026-05-01T13:50:09.789Z</time></trkpt><trkpt lat="45.2947867" lon="8.171285"><ele>165.33333333333334</ele><time>2026-05-01T13:50:10.789Z</time></trkpt><trkpt lat="45.2948717" lon="8.1710733"><ele>165.66666666666669</ele><time>2026-05-01T13:50:11.789Z</time></trkpt><trkpt lat="45.2949467" lon="8.1708617"><ele>166.0</ele><time>2026-05-01T13:50:12.789Z</time></trkpt><trkpt lat="45.295025" lon="8.1706483"><ele>166.0</ele><time>2026-05-01T13:50:13.789Z</time></trkpt><trkpt lat="45.2951067" lon="8.1704333"><ele>166.0</ele><time>2026-05-01T13:50:14.789Z</time></trkpt><trkpt lat="45.2951867" lon="8.17021"><ele>166.0</ele><time>2026-05-01T13:50:15.789Z</time></trkpt><trkpt lat="45.295265" lon="8.16999"><ele>166.33333333333334</ele><time>2026-05-01T13:50:16.789Z</time></trkpt><trkpt lat="45.2953417" lon="8.1697817"><ele>166.66666666666666</ele><time>2026-05-01T13:50:17.789Z</time></trkpt><trkpt lat="45.2954217" lon="8.1695717"><ele>167.0</ele><time>2026-05-01T13:50:18.789Z</time></trkpt><trkpt lat="45.2954967" lon="8.1693567"><ele>167.0</ele><time>2026-05-01T13:50:19.789Z</time></trkpt><trkpt lat="45.2955717" lon="8.1691517"><ele>167.0</ele><time>2026-05-01T13:50:20.789Z</time></trkpt><trkpt lat="45.29565" lon="8.1689383"><ele>167.0</ele><time>2026-05-01T13:50:21.789Z</time></trkpt><trkpt lat="45.2957283" lon="8.1687183"><ele>167.0</ele><time>2026-05-01T13:50:22.789Z</time></trkpt><trkpt lat="45.2958033" lon="8.1685133"><ele>167.0</ele><time>2026-05-01T13:50:23.789Z</time></trkpt><trkpt lat="45.295885" lon="8.1683083"><ele>167.0</ele><time>2026-05-01T13:50:24.789Z</time></trkpt><trkpt lat="45.29596" lon="8.16809"><ele>167.33333333333331</ele><time>2026-05-01T13:50:25.788Z</time></trkpt><trkpt lat="45.2960433" lon="8.1678783"><ele>167.66666666666666</ele><time>2026-05-01T13:50:26.789Z</time></trkpt><trkpt lat="45.2961217" lon="8.1676633"><ele>168.0</ele><time>2026-05-01T13:50:27.789Z</time></trkpt><trkpt lat="45.2962017" lon="8.167445"><ele>167.66666666666666</ele><time>2026-05-01T13:50:28.789Z</time></trkpt><trkpt lat="45.2962817" lon="8.16723"><ele>167.33333333333331</ele><time>2026-05-01T13:50:29.789Z</time></trkpt><trkpt lat="45.29636" lon="8.1670133"><ele>167.0</ele><time>2026-05-01T13:50:30.789Z</time></trkpt><trkpt lat="45.2964383" lon="8.1667983"><ele>167.0</ele><time>2026-05-01T13:50:31.789Z</time></trkpt><trkpt lat="45.29651" lon="8.16659"><ele>167.0</ele><time>2026-05-01T13:50:32.789Z</time></trkpt><trkpt lat="45.2965817" lon="8.16639"><ele>167.0</ele><time>2026-05-01T13:50:33.789Z</time></trkpt><trkpt lat="45.29664" lon="8.1661967"><ele>167.0</ele><time>2026-05-01T13:50:34.789Z</time></trkpt><trkpt lat="45.2967" lon="8.16602"><ele>167.0</ele><time>2026-05-01T13:50:35.789Z</time></trkpt><trkpt lat="45.2967533" lon="8.16585"><ele>167.0</ele><time>2026-05-01T13:50:36.789Z</time></trkpt><trkpt lat="45.2968083" lon="8.1657133"><ele>167.0</ele><time>2026-05-01T13:50:37.788Z</time></trkpt><trkpt lat="45.2968533" lon="8.1656067"><ele>167.0</ele><time>2026-05-01T13:50:38.789Z</time></trkpt><trkpt lat="45.2968967" lon="8.16552"><ele>167.0</ele><time>2026-05-01T13:50:39.789Z</time></trkpt><trkpt lat="45.2969417" lon="8.165445"><ele>167.0</ele><time>2026-05-01T13:50:40.789Z</time></trkpt><trkpt lat="45.2969867" lon="8.1653783"><ele>167.0</ele><time>2026-05-01T13:50:41.789Z</time></trkpt><trkpt lat="45.29706" lon="8.165255"><ele>167.0</ele><time>2026-05-01T13:50:43.789Z</time></trkpt><trkpt lat="45.29713" lon="8.1651417"><ele>167.0</ele><time>2026-05-01T13:50:45.789Z</time></trkpt><trkpt lat="45.2972067" lon="8.1650167"><ele>167.0</ele><time>2026-05-01T13:50:47.789Z</time></trkpt><trkpt lat="45.2972833" lon="8.1648683"><ele>167.0</ele><time>2026-05-01T13:50:49.789Z</time></trkpt><trkpt lat="45.2973283" lon="8.1647783"><ele>167.0</ele><time>2026-05-01T13:50:50.789Z</time></trkpt><trkpt lat="45.2973783" lon="8.1646733"><ele>167.0</ele><time>2026-05-01T13:50:51.789Z</time></trkpt><trkpt lat="45.297435" lon="8.1645667"><ele>167.0</ele><time>2026-05-01T13:50:52.789Z</time></trkpt><trkpt lat="45.29749" lon="8.1644533"><ele>167.2</ele><time>2026-05-01T13:50:53.789Z</time></trkpt><trkpt lat="45.297545" lon="8.1643317"><ele>167.39999999999998</ele><time>2026-05-01T13:50:54.789Z</time></trkpt><trkpt lat="45.2976017" lon="8.1642017"><ele>167.60000000000002</ele><time>2026-05-01T13:50:55.789Z</time></trkpt><trkpt lat="45.29766" lon="8.16407"><ele>167.8</ele><time>2026-05-01T13:50:56.789Z</time></trkpt><trkpt lat="45.2977183" lon="8.16393"><ele>168.0</ele><time>2026-05-01T13:50:57.789Z</time></trkpt><trkpt lat="45.2977783" lon="8.1637883"><ele>168.0</ele><time>2026-05-01T13:50:58.789Z</time></trkpt><trkpt lat="45.29784" lon="8.1636333"><ele>168.0</ele><time>2026-05-01T13:50:59.789Z</time></trkpt><trkpt lat="45.2978983" lon="8.16348"><ele>168.0</ele><time>2026-05-01T13:51:00.789Z</time></trkpt><trkpt lat="45.2979617" lon="8.163315"><ele>168.0</ele><time>2026-05-01T13:51:01.789Z</time></trkpt><trkpt lat="45.2980317" lon="8.16315"><ele>168.0</ele><time>2026-05-01T13:51:02.789Z</time></trkpt><trkpt lat="45.2981017" lon="8.1629717"><ele>168.0</ele><time>2026-05-01T13:51:03.789Z</time></trkpt><trkpt lat="45.2981683" lon="8.1627883"><ele>168.0</ele><time>2026-05-01T13:51:04.789Z</time></trkpt><trkpt lat="45.29824" lon="8.1626083"><ele>168.0</ele><time>2026-05-01T13:51:05.789Z</time></trkpt><trkpt lat="45.298315" lon="8.1624183"><ele>168.0</ele><time>2026-05-01T13:51:06.789Z</time></trkpt><trkpt lat="45.298395" lon="8.1622283"><ele>168.0</ele><time>2026-05-01T13:51:07.789Z</time></trkpt><trkpt lat="45.29847" lon="8.16203"><ele>168.0</ele><time>2026-05-01T13:51:08.789Z</time></trkpt><trkpt lat="45.298545" lon="8.16183"><ele>168.0</ele><time>2026-05-01T13:51:09.789Z</time></trkpt><trkpt lat="45.298625" lon="8.1616317"><ele>168.0</ele><time>2026-05-01T13:51:10.789Z</time></trkpt><trkpt lat="45.2987083" lon="8.1614183"><ele>168.0</ele><time>2026-05-01T13:51:11.789Z</time></trkpt><trkpt lat="45.29879" lon="8.1612133"><ele>168.33333333333334</ele><time>2026-05-01T13:51:12.789Z</time></trkpt><trkpt lat="45.298865" lon="8.16101"><ele>168.66666666666669</ele><time>2026-05-01T13:51:13.789Z</time></trkpt><trkpt lat="45.2989367" lon="8.1608233"><ele>169.0</ele><time>2026-05-01T13:51:14.789Z</time></trkpt><trkpt lat="45.2990133" lon="8.1606533"><ele>169.25</ele><time>2026-05-01T13:51:15.789Z</time></trkpt><trkpt lat="45.2990883" lon="8.1604867"><ele>169.5</ele><time>2026-05-01T13:51:16.788Z</time></trkpt><trkpt lat="45.299155" lon="8.1603167"><ele>169.75</ele><time>2026-05-01T13:51:17.789Z</time></trkpt><trkpt lat="45.2992383" lon="8.160135"><ele>170.0</ele><time>2026-05-01T13:51:18.789Z</time></trkpt><trkpt lat="45.2993217" lon="8.1599383"><ele>169.66666666666666</ele><time>2026-05-01T13:51:19.789Z</time></trkpt><trkpt lat="45.299405" lon="8.1597417"><ele>169.33333333333334</ele><time>2026-05-01T13:51:20.789Z</time></trkpt><trkpt lat="45.2994833" lon="8.1595433"><ele>169.0</ele><time>2026-05-01T13:51:21.789Z</time></trkpt><trkpt lat="45.2995717" lon="8.15934"><ele>169.0</ele><time>2026-05-01T13:51:22.789Z</time></trkpt><trkpt lat="45.29966" lon="8.1591417"><ele>169.0</ele><time>2026-05-01T13:51:23.789Z</time></trkpt><trkpt lat="45.2997467" lon="8.15894"><ele>169.0</ele><time>2026-05-01T13:51:24.789Z</time></trkpt><trkpt lat="45.2998317" lon="8.1587317"><ele>169.0</ele><time>2026-05-01T13:51:25.789Z</time></trkpt><trkpt lat="45.299925" lon="8.1585283"><ele>169.0</ele><time>2026-05-01T13:51:26.789Z</time></trkpt><trkpt lat="45.3000083" lon="8.1583317"><ele>169.0</ele><time>2026-05-01T13:51:27.789Z</time></trkpt><trkpt lat="45.3000983" lon="8.1581233"><ele>169.0</ele><time>2026-05-01T13:51:28.789Z</time></trkpt><trkpt lat="45.30018" lon="8.1579083"><ele>169.0</ele><time>2026-05-01T13:51:29.789Z</time></trkpt><trkpt lat="45.300265" lon="8.157685"><ele>169.0</ele><time>2026-05-01T13:51:30.789Z</time></trkpt><trkpt lat="45.3003567" lon="8.1574733"><ele>169.33333333333334</ele><time>2026-05-01T13:51:31.789Z</time></trkpt><trkpt lat="45.3004467" lon="8.1572683"><ele>169.66666666666666</ele><time>2026-05-01T13:51:32.789Z</time></trkpt><trkpt lat="45.3005367" lon="8.1570517"><ele>170.0</ele><time>2026-05-01T13:51:33.789Z</time></trkpt><trkpt lat="45.30062" lon="8.1568467"><ele>170.33333333333331</ele><time>2026-05-01T13:51:34.789Z</time></trkpt><trkpt lat="45.3006967" lon="8.15664"><ele>170.66666666666666</ele><time>2026-05-01T13:51:35.789Z</time></trkpt><trkpt lat="45.3007683" lon="8.1564467"><ele>171.0</ele><time>2026-05-01T13:51:36.789Z</time></trkpt><trkpt lat="45.3008333" lon="8.15626"><ele>170.75</ele><time>2026-05-01T13:51:37.789Z</time></trkpt><trkpt lat="45.30089" lon="8.15608"><ele>170.5</ele><time>2026-05-01T13:51:38.789Z</time></trkpt><trkpt lat="45.3009267" lon="8.1559167"><ele>170.25</ele><time>2026-05-01T13:51:39.789Z</time></trkpt><trkpt lat="45.3009233" lon="8.15575"><ele>170.0</ele><time>2026-05-01T13:51:40.789Z</time></trkpt><trkpt lat="45.3008933" lon="8.1555717"><ele>170.0</ele><time>2026-05-01T13:51:41.789Z</time></trkpt><trkpt lat="45.3008383" lon="8.1553933"><ele>170.0</ele><time>2026-05-01T13:51:42.789Z</time></trkpt><trkpt lat="45.3007767" lon="8.1552033"><ele>170.0</ele><time>2026-05-01T13:51:43.789Z</time></trkpt><trkpt lat="45.30071" lon="8.1550117"><ele>170.0</ele><time>2026-05-01T13:51:44.789Z</time></trkpt><trkpt lat="45.3006517" lon="8.1548283"><ele>170.0</ele><time>2026-05-01T13:51:45.789Z</time></trkpt><trkpt lat="45.3005967" lon="8.154635"><ele>170.0</ele><time>2026-05-01T13:51:46.788Z</time></trkpt><trkpt lat="45.300535" lon="8.1544467"><ele>170.0</ele><time>2026-05-01T13:51:47.789Z</time></trkpt><trkpt lat="45.3004817" lon="8.1542533"><ele>170.0</ele><time>2026-05-01T13:51:48.789Z</time></trkpt><trkpt lat="45.3004433" lon="8.1540883"><ele>170.2</ele><time>2026-05-01T13:51:49.789Z</time></trkpt><trkpt lat="45.3004117" lon="8.1539433"><ele>170.4</ele><time>2026-05-01T13:51:50.789Z</time></trkpt><trkpt lat="45.3003917" lon="8.153815"><ele>170.60000000000002</ele><time>2026-05-01T13:51:51.789Z</time></trkpt><trkpt lat="45.3003767" lon="8.1537067"><ele>170.8</ele><time>2026-05-01T13:51:52.789Z</time></trkpt><trkpt lat="45.3003717" lon="8.1536133"><ele>171.0</ele><time>2026-05-01T13:51:53.789Z</time></trkpt><trkpt lat="45.300385" lon="8.153425"><ele>171.0</ele><time>2026-05-01T13:51:55.789Z</time></trkpt><trkpt lat="45.3004283" lon="8.1533233"><ele>171.0</ele><time>2026-05-01T13:51:56.789Z</time></trkpt><trkpt lat="45.3004917" lon="8.1532183"><ele>171.0</ele><time>2026-05-01T13:51:57.789Z</time></trkpt><trkpt lat="45.3005683" lon="8.1530967"><ele>171.0</ele><time>2026-05-01T13:51:58.789Z</time></trkpt><trkpt lat="45.3006633" lon="8.152965"><ele>171.0</ele><time>2026-05-01T13:51:59.789Z</time></trkpt><trkpt lat="45.3007567" lon="8.1528233"><ele>171.0</ele><time>2026-05-01T13:52:00.789Z</time></trkpt><trkpt lat="45.30085" lon="8.1526633"><ele>171.0</ele><time>2026-05-01T13:52:01.789Z</time></trkpt><trkpt lat="45.300945" lon="8.15251"><ele>171.0</ele><time>2026-05-01T13:52:02.789Z</time></trkpt><trkpt lat="45.30105" lon="8.1523433"><ele>171.0</ele><time>2026-05-01T13:52:03.789Z</time></trkpt><trkpt lat="45.3011583" lon="8.1521683"><ele>171.0</ele><time>2026-05-01T13:52:04.789Z</time></trkpt><trkpt lat="45.301265" lon="8.15198"><ele>171.0</ele><time>2026-05-01T13:52:05.789Z</time></trkpt><trkpt lat="45.3013717" lon="8.1517917"><ele>171.0</ele><time>2026-05-01T13:52:06.789Z</time></trkpt><trkpt lat="45.301475" lon="8.1516017"><ele>171.0</ele><time>2026-05-01T13:52:07.789Z</time></trkpt><trkpt lat="45.30158" lon="8.1514133"><ele>171.0</ele><time>2026-05-01T13:52:08.788Z</time></trkpt><trkpt lat="45.30168" lon="8.151235"><ele>171.0</ele><time>2026-05-01T13:52:09.789Z</time></trkpt><trkpt lat="45.3017817" lon="8.151055"><ele>171.0</ele><time>2026-05-01T13:52:10.788Z</time></trkpt><trkpt lat="45.3018883" lon="8.1508683"><ele>171.0</ele><time>2026-05-01T13:52:11.789Z</time></trkpt><trkpt lat="45.302" lon="8.1506867"><ele>171.0</ele><time>2026-05-01T13:52:12.789Z</time></trkpt><trkpt lat="45.30211" lon="8.1505033"><ele>171.33333333333334</ele><time>2026-05-01T13:52:13.789Z</time></trkpt><trkpt lat="45.3022267" lon="8.1503283"><ele>171.66666666666669</ele><time>2026-05-01T13:52:14.789Z</time></trkpt><trkpt lat="45.30234" lon="8.150145"><ele>172.0</ele><time>2026-05-01T13:52:15.789Z</time></trkpt><trkpt lat="45.3024567" lon="8.1499667"><ele>172.33333333333334</ele><time>2026-05-01T13:52:16.789Z</time></trkpt><trkpt lat="45.302575" lon="8.1497817"><ele>172.66666666666666</ele><time>2026-05-01T13:52:17.789Z</time></trkpt><trkpt lat="45.3026883" lon="8.1495983"><ele>173.0</ele><time>2026-05-01T13:52:18.789Z</time></trkpt><trkpt lat="45.3028067" lon="8.1494217"><ele>173.0</ele><time>2026-05-01T13:52:19.789Z</time></trkpt><trkpt lat="45.302915" lon="8.1492317"><ele>173.0</ele><time>2026-05-01T13:52:20.789Z</time></trkpt><trkpt lat="45.3030233" lon="8.1490333"><ele>173.0</ele><time>2026-05-01T13:52:21.788Z</time></trkpt><trkpt lat="45.3031217" lon="8.1488317"><ele>172.66666666666666</ele><time>2026-05-01T13:52:22.789Z</time></trkpt><trkpt lat="45.3032133" lon="8.1486183"><ele>172.33333333333334</ele><time>2026-05-01T13:52:23.789Z</time></trkpt><trkpt lat="45.303285" lon="8.1483967"><ele>172.0</ele><time>2026-05-01T13:52:24.789Z</time></trkpt><trkpt lat="45.303355" lon="8.1481717"><ele>172.0</ele><time>2026-05-01T13:52:25.789Z</time></trkpt><trkpt lat="45.3034317" lon="8.1479367"><ele>172.0</ele><time>2026-05-01T13:52:26.789Z</time></trkpt><trkpt lat="45.3034983" lon="8.1477167"><ele>172.0</ele><time>2026-05-01T13:52:27.789Z</time></trkpt><trkpt lat="45.3035733" lon="8.1474983"><ele>172.0</ele><time>2026-05-01T13:52:28.789Z</time></trkpt><trkpt lat="45.3036533" lon="8.1472767"><ele>172.0</ele><time>2026-05-01T13:52:29.789Z</time></trkpt><trkpt lat="45.3037333" lon="8.147065"><ele>172.0</ele><time>2026-05-01T13:52:30.789Z</time></trkpt><trkpt lat="45.3038183" lon="8.1468483"><ele>172.0</ele><time>2026-05-01T13:52:31.789Z</time></trkpt><trkpt lat="45.30391" lon="8.1466383"><ele>172.0</ele><time>2026-05-01T13:52:32.788Z</time></trkpt><trkpt lat="45.304005" lon="8.1464333"><ele>172.0</ele><time>2026-05-01T13:52:33.788Z</time></trkpt><trkpt lat="45.304095" lon="8.1462267"><ele>172.33333333333334</ele><time>2026-05-01T13:52:34.789Z</time></trkpt><trkpt lat="45.3041867" lon="8.146015"><ele>172.66666666666666</ele><time>2026-05-01T13:52:35.789Z</time></trkpt><trkpt lat="45.3042817" lon="8.1458083"><ele>173.0</ele><time>2026-05-01T13:52:36.789Z</time></trkpt><trkpt lat="45.3043783" lon="8.145615"><ele>173.33333333333331</ele><time>2026-05-01T13:52:37.789Z</time></trkpt><trkpt lat="45.3044733" lon="8.1454167"><ele>173.66666666666666</ele><time>2026-05-01T13:52:38.788Z</time></trkpt><trkpt lat="45.304565" lon="8.1452117"><ele>174.0</ele><time>2026-05-01T13:52:39.789Z</time></trkpt><trkpt lat="45.3046483" lon="8.1449983"><ele>174.0</ele><time>2026-05-01T13:52:40.789Z</time></trkpt><trkpt lat="45.3047283" lon="8.1447833"><ele>174.0</ele><time>2026-05-01T13:52:41.789Z</time></trkpt><trkpt lat="45.30481" lon="8.1445633"><ele>174.0</ele><time>2026-05-01T13:52:42.789Z</time></trkpt><trkpt lat="45.3048917" lon="8.1443417"><ele>174.0</ele><time>2026-05-01T13:52:43.789Z</time></trkpt><trkpt lat="45.3049817" lon="8.1441233"><ele>174.0</ele><time>2026-05-01T13:52:44.789Z</time></trkpt><trkpt lat="45.3050633" lon="8.143905"><ele>174.0</ele><time>2026-05-01T13:52:45.789Z</time></trkpt><trkpt lat="45.305145" lon="8.1436867"><ele>174.0</ele><time>2026-05-01T13:52:46.788Z</time></trkpt><trkpt lat="45.3052433" lon="8.1434683"><ele>174.0</ele><time>2026-05-01T13:52:47.789Z</time></trkpt><trkpt lat="45.3053417" lon="8.1432567"><ele>174.0</ele><time>2026-05-01T13:52:48.789Z</time></trkpt><trkpt lat="45.30545" lon="8.1430533"><ele>174.0</ele><time>2026-05-01T13:52:49.789Z</time></trkpt><trkpt lat="45.30555" lon="8.14286"><ele>174.0</ele><time>2026-05-01T13:52:50.789Z</time></trkpt><trkpt lat="45.3056583" lon="8.1426583"><ele>174.0</ele><time>2026-05-01T13:52:51.789Z</time></trkpt><trkpt lat="45.3057583" lon="8.142455"><ele>174.33333333333334</ele><time>2026-05-01T13:52:52.789Z</time></trkpt><trkpt lat="45.3058567" lon="8.142245"><ele>174.66666666666669</ele><time>2026-05-01T13:52:53.789Z</time></trkpt><trkpt lat="45.3059567" lon="8.1420333"><ele>175.0</ele><time>2026-05-01T13:52:54.789Z</time></trkpt><trkpt lat="45.3060483" lon="8.1418233"><ele>175.0</ele><time>2026-05-01T13:52:55.789Z</time></trkpt><trkpt lat="45.3061283" lon="8.1416"><ele>175.0</ele><time>2026-05-01T13:52:56.789Z</time></trkpt><trkpt lat="45.3062217" lon="8.14138"><ele>175.0</ele><time>2026-05-01T13:52:57.789Z</time></trkpt><trkpt lat="45.3063033" lon="8.1411583"><ele>175.33333333333334</ele><time>2026-05-01T13:52:58.789Z</time></trkpt><trkpt lat="45.3063933" lon="8.1409383"><ele>175.66666666666666</ele><time>2026-05-01T13:52:59.789Z</time></trkpt><trkpt lat="45.3064767" lon="8.14071"><ele>176.0</ele><time>2026-05-01T13:53:00.789Z</time></trkpt><trkpt lat="45.3065667" lon="8.1404933"><ele>176.33333333333331</ele><time>2026-05-01T13:53:01.789Z</time></trkpt><trkpt lat="45.3066467" lon="8.1402683"><ele>176.66666666666666</ele><time>2026-05-01T13:53:02.789Z</time></trkpt><trkpt lat="45.3067383" lon="8.1400333"><ele>177.0</ele><time>2026-05-01T13:53:03.789Z</time></trkpt><trkpt lat="45.3068267" lon="8.1398067"><ele>177.0</ele><time>2026-05-01T13:53:04.789Z</time></trkpt><trkpt lat="45.3069333" lon="8.13958"><ele>177.0</ele><time>2026-05-01T13:53:05.789Z</time></trkpt><trkpt lat="45.30703" lon="8.1393533"><ele>177.0</ele><time>2026-05-01T13:53:06.789Z</time></trkpt><trkpt lat="45.30712" lon="8.1391333"><ele>176.66666666666666</ele><time>2026-05-01T13:53:07.789Z</time></trkpt><trkpt lat="45.30723" lon="8.1389167"><ele>176.33333333333331</ele><time>2026-05-01T13:53:08.789Z</time></trkpt><trkpt lat="45.3073517" lon="8.1387017"><ele>176.0</ele><time>2026-05-01T13:53:09.789Z</time></trkpt><trkpt lat="45.3074583" lon="8.1384833"><ele>176.0</ele><time>2026-05-01T13:53:10.788Z</time></trkpt><trkpt lat="45.3075667" lon="8.1382583"><ele>176.0</ele><time>2026-05-01T13:53:11.789Z</time></trkpt><trkpt lat="45.3076617" lon="8.138045"><ele>176.0</ele><time>2026-05-01T13:53:12.789Z</time></trkpt><trkpt lat="45.3077633" lon="8.1378283"><ele>176.33333333333331</ele><time>2026-05-01T13:53:13.789Z</time></trkpt><trkpt lat="45.307865" lon="8.1376167"><ele>176.66666666666666</ele><time>2026-05-01T13:53:14.789Z</time></trkpt><trkpt lat="45.30797" lon="8.1373917"><ele>177.0</ele><time>2026-05-01T13:53:15.789Z</time></trkpt><trkpt lat="45.308065" lon="8.1371933"><ele>177.33333333333334</ele><time>2026-05-01T13:53:16.789Z</time></trkpt><trkpt lat="45.3081667" lon="8.1369833"><ele>177.66666666666669</ele><time>2026-05-01T13:53:17.788Z</time></trkpt><trkpt lat="45.3082683" lon="8.1367717"><ele>178.0</ele><time>2026-05-01T13:53:18.789Z</time></trkpt><trkpt lat="45.30837" lon="8.13656"><ele>177.66666666666669</ele><time>2026-05-01T13:53:19.789Z</time></trkpt><trkpt lat="45.3084433" lon="8.1363533"><ele>177.33333333333334</ele><time>2026-05-01T13:53:20.789Z</time></trkpt><trkpt lat="45.308535" lon="8.1361533"><ele>177.0</ele><time>2026-05-01T13:53:21.789Z</time></trkpt><trkpt lat="45.308635" lon="8.1359433"><ele>177.0</ele><time>2026-05-01T13:53:22.789Z</time></trkpt><trkpt lat="45.3087383" lon="8.135735"><ele>177.0</ele><time>2026-05-01T13:53:23.789Z</time></trkpt><trkpt lat="45.30883" lon="8.1355383"><ele>177.0</ele><time>2026-05-01T13:53:24.789Z</time></trkpt><trkpt lat="45.3089183" lon="8.1353567"><ele>176.75</ele><time>2026-05-01T13:53:25.789Z</time></trkpt><trkpt lat="45.309005" lon="8.13518"><ele>176.5</ele><time>2026-05-01T13:53:26.789Z</time></trkpt><trkpt lat="45.3090733" lon="8.135015"><ele>176.25</ele><time>2026-05-01T13:53:27.789Z</time></trkpt><trkpt lat="45.3091383" lon="8.1348517"><ele>176.0</ele><time>2026-05-01T13:53:28.789Z</time></trkpt><trkpt lat="45.30919" lon="8.1346833"><ele>176.5</ele><time>2026-05-01T13:53:29.789Z</time></trkpt><trkpt lat="45.3092183" lon="8.1345183"><ele>177.0</ele><time>2026-05-01T13:53:30.789Z</time></trkpt><trkpt lat="45.3092183" lon="8.1343383"><ele>177.5</ele><time>2026-05-01T13:53:31.789Z</time></trkpt><trkpt lat="45.3092" lon="8.1341483"><ele>178.0</ele><time>2026-05-01T13:53:32.789Z</time></trkpt><trkpt lat="45.3091583" lon="8.1339467"><ele>178.66666666666669</ele><time>2026-05-01T13:53:33.789Z</time></trkpt><trkpt lat="45.30912" lon="8.1337383"><ele>179.33333333333334</ele><time>2026-05-01T13:53:34.789Z</time></trkpt><trkpt lat="45.3090833" lon="8.1335183"><ele>180.0</ele><time>2026-05-01T13:53:35.789Z</time></trkpt><trkpt lat="45.30906" lon="8.1333033"><ele>179.66666666666666</ele><time>2026-05-01T13:53:36.789Z</time></trkpt><trkpt lat="45.30904" lon="8.1330933"><ele>179.33333333333331</ele><time>2026-05-01T13:53:37.789Z</time></trkpt><trkpt lat="45.30903" lon="8.1328683"><ele>179.0</ele><time>2026-05-01T13:53:38.789Z</time></trkpt><trkpt lat="45.3090117" lon="8.1326483"><ele>179.0</ele><time>2026-05-01T13:53:39.789Z</time></trkpt><trkpt lat="45.3089933" lon="8.1324317"><ele>179.0</ele><time>2026-05-01T13:53:40.789Z</time></trkpt><trkpt lat="45.3089717" lon="8.1322133"><ele>179.0</ele><time>2026-05-01T13:53:41.789Z</time></trkpt><trkpt lat="45.3089517" lon="8.1319933"><ele>179.0</ele><time>2026-05-01T13:53:42.789Z</time></trkpt><trkpt lat="45.3089367" lon="8.1317767"><ele>179.0</ele><time>2026-05-01T13:53:43.789Z</time></trkpt><trkpt lat="45.3089117" lon="8.13156"><ele>179.0</ele><time>2026-05-01T13:53:44.789Z</time></trkpt><trkpt lat="45.3088817" lon="8.1313267"><ele>179.0</ele><time>2026-05-01T13:53:45.789Z</time></trkpt><trkpt lat="45.30885" lon="8.1311"><ele>179.0</ele><time>2026-05-01T13:53:46.789Z</time></trkpt><trkpt lat="45.3088183" lon="8.1308817"><ele>179.0</ele><time>2026-05-01T13:53:47.789Z</time></trkpt><trkpt lat="45.3087833" lon="8.1306817"><ele>179.25</ele><time>2026-05-01T13:53:48.789Z</time></trkpt><trkpt lat="45.30876" lon="8.1304817"><ele>179.5</ele><time>2026-05-01T13:53:49.789Z</time></trkpt><trkpt lat="45.308735" lon="8.1303033"><ele>179.75</ele><time>2026-05-01T13:53:50.789Z</time></trkpt><trkpt lat="45.3087233" lon="8.130135"><ele>180.0</ele><time>2026-05-01T13:53:51.789Z</time></trkpt><trkpt lat="45.3087133" lon="8.129945"><ele>180.25</ele><time>2026-05-01T13:53:52.789Z</time></trkpt><trkpt lat="45.30871" lon="8.12975"><ele>180.5</ele><time>2026-05-01T13:53:53.789Z</time></trkpt><trkpt lat="45.3087067" lon="8.1295583"><ele>180.75</ele><time>2026-05-01T13:53:54.789Z</time></trkpt><trkpt lat="45.3087117" lon="8.12935"><ele>181.0</ele><time>2026-05-01T13:53:55.789Z</time></trkpt><trkpt lat="45.30872" lon="8.1291417"><ele>181.33333333333334</ele><time>2026-05-01T13:53:56.789Z</time></trkpt><trkpt lat="45.3087233" lon="8.128925"><ele>181.66666666666666</ele><time>2026-05-01T13:53:57.789Z</time></trkpt><trkpt lat="45.30873" lon="8.1287167"><ele>182.0</ele><time>2026-05-01T13:53:58.789Z</time></trkpt><trkpt lat="45.308735" lon="8.1284917"><ele>182.0</ele><time>2026-05-01T13:53:59.789Z</time></trkpt><trkpt lat="45.3087333" lon="8.1282683"><ele>182.0</ele><time>2026-05-01T13:54:00.789Z</time></trkpt><trkpt lat="45.3087417" lon="8.1280517"><ele>182.0</ele><time>2026-05-01T13:54:01.789Z</time></trkpt><trkpt lat="45.30875" lon="8.1278383"><ele>181.66666666666666</ele><time>2026-05-01T13:54:02.789Z</time></trkpt><trkpt lat="45.3087783" lon="8.12761"><ele>181.33333333333334</ele><time>2026-05-01T13:54:03.789Z</time></trkpt><trkpt lat="45.3088017" lon="8.1273983"><ele>181.0</ele><time>2026-05-01T13:54:04.789Z</time></trkpt><trkpt lat="45.308825" lon="8.1271983"><ele>181.0</ele><time>2026-05-01T13:54:05.789Z</time></trkpt><trkpt lat="45.3088617" lon="8.1270033"><ele>181.0</ele><time>2026-05-01T13:54:06.789Z</time></trkpt><trkpt lat="45.308895" lon="8.1268367"><ele>181.0</ele><time>2026-05-01T13:54:07.789Z</time></trkpt><trkpt lat="45.3089317" lon="8.1266667"><ele>181.0</ele><time>2026-05-01T13:54:08.789Z</time></trkpt><trkpt lat="45.3089633" lon="8.1265033"><ele>180.75</ele><time>2026-05-01T13:54:09.789Z</time></trkpt><trkpt lat="45.308975" lon="8.1263367"><ele>180.5</ele><time>2026-05-01T13:54:10.789Z</time></trkpt><trkpt lat="45.30898" lon="8.1261783"><ele>180.25</ele><time>2026-05-01T13:54:11.789Z</time></trkpt><trkpt lat="45.3089733" lon="8.1260017"><ele>180.0</ele><time>2026-05-01T13:54:12.789Z</time></trkpt><trkpt lat="45.3089467" lon="8.1258167"><ele>180.75</ele><time>2026-05-01T13:54:13.789Z</time></trkpt><trkpt lat="45.308905" lon="8.1256333"><ele>181.5</ele><time>2026-05-01T13:54:14.789Z</time></trkpt><trkpt lat="45.3088567" lon="8.1254417"><ele>182.25</ele><time>2026-05-01T13:54:15.789Z</time></trkpt><trkpt lat="45.3088133" lon="8.1252583"><ele>183.0</ele><time>2026-05-01T13:54:16.789Z</time></trkpt><trkpt lat="45.3087817" lon="8.12509"><ele>183.0</ele><time>2026-05-01T13:54:17.789Z</time></trkpt><trkpt lat="45.308755" lon="8.1249217"><ele>183.0</ele><time>2026-05-01T13:54:18.789Z</time></trkpt><trkpt lat="45.3087183" lon="8.1247617"><ele>183.0</ele><time>2026-05-01T13:54:19.789Z</time></trkpt><trkpt lat="45.3086883" lon="8.1246017"><ele>183.0</ele><time>2026-05-01T13:54:20.789Z</time></trkpt><trkpt lat="45.308655" lon="8.124445"><ele>183.0</ele><time>2026-05-01T13:54:21.789Z</time></trkpt><trkpt lat="45.3086333" lon="8.1242833"><ele>183.0</ele><time>2026-05-01T13:54:22.789Z</time></trkpt><trkpt lat="45.30861" lon="8.1241333"><ele>183.0</ele><time>2026-05-01T13:54:23.789Z</time></trkpt><trkpt lat="45.3085783" lon="8.12401"><ele>183.0</ele><time>2026-05-01T13:54:24.789Z</time></trkpt><trkpt lat="45.3085483" lon="8.1238933"><ele>183.0</ele><time>2026-05-01T13:54:25.789Z</time></trkpt><trkpt lat="45.308535" lon="8.123775"><ele>183.0</ele><time>2026-05-01T13:54:26.789Z</time></trkpt><trkpt lat="45.30853" lon="8.123655"><ele>183.0</ele><time>2026-05-01T13:54:27.789Z</time></trkpt><trkpt lat="45.308535" lon="8.1235433"><ele>183.0</ele><time>2026-05-01T13:54:28.789Z</time></trkpt><trkpt lat="45.3085633" lon="8.12342"><ele>183.0</ele><time>2026-05-01T13:54:29.789Z</time></trkpt><trkpt lat="45.3086133" lon="8.1233067"><ele>183.0</ele><time>2026-05-01T13:54:30.789Z</time></trkpt><trkpt lat="45.3086517" lon="8.1231933"><ele>183.0</ele><time>2026-05-01T13:54:31.788Z</time></trkpt><trkpt lat="45.3086883" lon="8.12309"><ele>183.0</ele><time>2026-05-01T13:54:32.789Z</time></trkpt><trkpt lat="45.3087317" lon="8.1229617"><ele>183.0</ele><time>2026-05-01T13:54:34.789Z</time></trkpt><trkpt lat="45.3087117" lon="8.1228583"><ele>183.0</ele><time>2026-05-01T13:54:37.789Z</time></trkpt><trkpt lat="45.3085917" lon="8.122755"><ele>183.0</ele><time>2026-05-01T13:54:39.789Z</time></trkpt><trkpt lat="45.3084883" lon="8.12267"><ele>183.0</ele><time>2026-05-01T13:54:40.789Z</time></trkpt><trkpt lat="45.3083667" lon="8.1225667"><ele>183.0</ele><time>2026-05-01T13:54:41.789Z</time></trkpt><trkpt lat="45.3082233" lon="8.1224433"><ele>183.0</ele><time>2026-05-01T13:54:42.789Z</time></trkpt><trkpt lat="45.3080833" lon="8.1223283"><ele>183.0</ele><time>2026-05-01T13:54:43.789Z</time></trkpt><trkpt lat="45.307945" lon="8.1221983"><ele>183.5</ele><time>2026-05-01T13:54:44.789Z</time></trkpt><trkpt lat="45.3077983" lon="8.122115"><ele>184.0</ele><time>2026-05-01T13:54:45.789Z</time></trkpt><trkpt lat="45.3076617" lon="8.1220217"><ele>184.5</ele><time>2026-05-01T13:54:46.789Z</time></trkpt><trkpt lat="45.3075367" lon="8.121935"><ele>185.0</ele><time>2026-05-01T13:54:47.789Z</time></trkpt><trkpt lat="45.3074183" lon="8.12184"><ele>185.0</ele><time>2026-05-01T13:54:48.789Z</time></trkpt><trkpt lat="45.3072983" lon="8.1217433"><ele>185.0</ele><time>2026-05-01T13:54:49.789Z</time></trkpt><trkpt lat="45.3071933" lon="8.12162"><ele>185.0</ele><time>2026-05-01T13:54:50.789Z</time></trkpt><trkpt lat="45.3070667" lon="8.121535"><ele>185.0</ele><time>2026-05-01T13:54:51.789Z</time></trkpt><trkpt lat="45.3069383" lon="8.12147"><ele>184.75</ele><time>2026-05-01T13:54:52.789Z</time></trkpt><trkpt lat="45.3068133" lon="8.12139"><ele>184.5</ele><time>2026-05-01T13:54:53.789Z</time></trkpt><trkpt lat="45.3066983" lon="8.1213"><ele>184.25</ele><time>2026-05-01T13:54:54.789Z</time></trkpt><trkpt lat="45.306575" lon="8.1212217"><ele>184.0</ele><time>2026-05-01T13:54:55.789Z</time></trkpt><trkpt lat="45.3064667" lon="8.1211217"><ele>183.5</ele><time>2026-05-01T13:54:56.789Z</time></trkpt><trkpt lat="45.306355" lon="8.121015"><ele>183.0</ele><time>2026-05-01T13:54:57.789Z</time></trkpt><trkpt lat="45.3062533" lon="8.1208983"><ele>182.5</ele><time>2026-05-01T13:54:58.789Z</time></trkpt><trkpt lat="45.306165" lon="8.1207833"><ele>182.0</ele><time>2026-05-01T13:54:59.789Z</time></trkpt><trkpt lat="45.306075" lon="8.1207017"><ele>182.0</ele><time>2026-05-01T13:55:00.789Z</time></trkpt><trkpt lat="45.3060033" lon="8.12063"><ele>182.0</ele><time>2026-05-01T13:55:01.789Z</time></trkpt><trkpt lat="45.3059517" lon="8.1205733"><ele>182.0</ele><time>2026-05-01T13:55:02.789Z</time></trkpt><trkpt lat="45.30587" lon="8.120435"><ele>182.0</ele><time>2026-05-01T13:55:04.788Z</time></trkpt><trkpt lat="45.305815" lon="8.1203533"><ele>182.0</ele><time>2026-05-01T13:55:05.789Z</time></trkpt><trkpt lat="45.3057417" lon="8.1202633"><ele>182.0</ele><time>2026-05-01T13:55:06.789Z</time></trkpt><trkpt lat="45.3056567" lon="8.12016"><ele>182.0</ele><time>2026-05-01T13:55:07.789Z</time></trkpt><trkpt lat="45.3055617" lon="8.1200383"><ele>182.0</ele><time>2026-05-01T13:55:08.789Z</time></trkpt><trkpt lat="45.3054683" lon="8.1199117"><ele>182.0</ele><time>2026-05-01T13:55:09.789Z</time></trkpt><trkpt lat="45.3053717" lon="8.11978"><ele>182.5</ele><time>2026-05-01T13:55:10.789Z</time></trkpt><trkpt lat="45.3052683" lon="8.119645"><ele>183.0</ele><time>2026-05-01T13:55:11.789Z</time></trkpt><trkpt lat="45.30517" lon="8.1195"><ele>183.5</ele><time>2026-05-01T13:55:12.789Z</time></trkpt><trkpt lat="45.3050783" lon="8.1193317"><ele>184.0</ele><time>2026-05-01T13:55:13.789Z</time></trkpt><trkpt lat="45.3049817" lon="8.1191617"><ele>184.0</ele><time>2026-05-01T13:55:14.789Z</time></trkpt><trkpt lat="45.3048783" lon="8.1189967"><ele>184.0</ele><time>2026-05-01T13:55:15.789Z</time></trkpt><trkpt lat="45.3047817" lon="8.1188417"><ele>184.0</ele><time>2026-05-01T13:55:16.789Z</time></trkpt><trkpt lat="45.3046817" lon="8.1186883"><ele>184.0</ele><time>2026-05-01T13:55:17.789Z</time></trkpt><trkpt lat="45.304585" lon="8.118535"><ele>183.5</ele><time>2026-05-01T13:55:18.789Z</time></trkpt><trkpt lat="45.304495" lon="8.11837"><ele>183.0</ele><time>2026-05-01T13:55:19.789Z</time></trkpt><trkpt lat="45.3044017" lon="8.1182133"><ele>182.5</ele><time>2026-05-01T13:55:20.789Z</time></trkpt><trkpt lat="45.3043033" lon="8.1180733"><ele>182.0</ele><time>2026-05-01T13:55:21.788Z</time></trkpt><trkpt lat="45.3042117" lon="8.1179133"><ele>182.0</ele><time>2026-05-01T13:55:22.789Z</time></trkpt><trkpt lat="45.3041167" lon="8.1177717"><ele>182.0</ele><time>2026-05-01T13:55:23.789Z</time></trkpt><trkpt lat="45.30402" lon="8.117625"><ele>182.0</ele><time>2026-05-01T13:55:24.789Z</time></trkpt><trkpt lat="45.3039317" lon="8.1174917"><ele>182.0</ele><time>2026-05-01T13:55:25.789Z</time></trkpt><trkpt lat="45.30385" lon="8.1173417"><ele>182.0</ele><time>2026-05-01T13:55:26.789Z</time></trkpt><trkpt lat="45.3037617" lon="8.117185"><ele>182.0</ele><time>2026-05-01T13:55:27.789Z</time></trkpt><trkpt lat="45.3036733" lon="8.1170233"><ele>182.0</ele><time>2026-05-01T13:55:28.789Z</time></trkpt><trkpt lat="45.3035767" lon="8.1168867"><ele>182.0</ele><time>2026-05-01T13:55:29.789Z</time></trkpt><trkpt lat="45.3034783" lon="8.1167317"><ele>182.0</ele><time>2026-05-01T13:55:30.789Z</time></trkpt><trkpt lat="45.303385" lon="8.11657"><ele>182.0</ele><time>2026-05-01T13:55:31.789Z</time></trkpt><trkpt lat="45.3032883" lon="8.1164133"><ele>182.0</ele><time>2026-05-01T13:55:32.789Z</time></trkpt><trkpt lat="45.3031883" lon="8.1162683"><ele>182.0</ele><time>2026-05-01T13:55:33.788Z</time></trkpt><trkpt lat="45.3030917" lon="8.1161033"><ele>182.0</ele><time>2026-05-01T13:55:34.789Z</time></trkpt><trkpt lat="45.3029833" lon="8.115945"><ele>182.0</ele><time>2026-05-01T13:55:35.789Z</time></trkpt><trkpt lat="45.3028833" lon="8.1157767"><ele>182.0</ele><time>2026-05-01T13:55:36.789Z</time></trkpt><trkpt lat="45.3027783" lon="8.1156083"><ele>182.0</ele><time>2026-05-01T13:55:37.789Z</time></trkpt><trkpt lat="45.3026633" lon="8.11543"><ele>182.0</ele><time>2026-05-01T13:55:38.789Z</time></trkpt><trkpt lat="45.30256" lon="8.11525"><ele>182.0</ele><time>2026-05-01T13:55:39.789Z</time></trkpt><trkpt lat="45.3024533" lon="8.1150783"><ele>182.0</ele><time>2026-05-01T13:55:40.789Z</time></trkpt><trkpt lat="45.3023483" lon="8.114905"><ele>182.0</ele><time>2026-05-01T13:55:41.789Z</time></trkpt><trkpt lat="45.3022467" lon="8.1147333"><ele>182.0</ele><time>2026-05-01T13:55:42.789Z</time></trkpt><trkpt lat="45.302145" lon="8.11456"><ele>181.75</ele><time>2026-05-01T13:55:43.788Z</time></trkpt><trkpt lat="45.3020517" lon="8.1143867"><ele>181.5</ele><time>2026-05-01T13:55:44.789Z</time></trkpt><trkpt lat="45.301955" lon="8.114235"><ele>181.25</ele><time>2026-05-01T13:55:45.789Z</time></trkpt><trkpt lat="45.3018733" lon="8.1140933"><ele>181.0</ele><time>2026-05-01T13:55:46.789Z</time></trkpt><trkpt lat="45.3018067" lon="8.1139633"><ele>181.0</ele><time>2026-05-01T13:55:47.789Z</time></trkpt><trkpt lat="45.3017567" lon="8.11383"><ele>181.0</ele><time>2026-05-01T13:55:48.789Z</time></trkpt><trkpt lat="45.3017467" lon="8.1137167"><ele>181.0</ele><time>2026-05-01T13:55:49.788Z</time></trkpt><trkpt lat="45.30175" lon="8.1136033"><ele>181.0</ele><time>2026-05-01T13:55:50.789Z</time></trkpt><trkpt lat="45.3017433" lon="8.1135083"><ele>181.0</ele><time>2026-05-01T13:55:51.789Z</time></trkpt><trkpt lat="45.3017133" lon="8.1134183"><ele>181.0</ele><time>2026-05-01T13:55:52.789Z</time></trkpt><trkpt lat="45.3016517" lon="8.11333"><ele>181.0</ele><time>2026-05-01T13:55:53.789Z</time></trkpt><trkpt lat="45.3015567" lon="8.1132617"><ele>181.0</ele><time>2026-05-01T13:55:54.789Z</time></trkpt><trkpt lat="45.3014333" lon="8.1132017"><ele>181.0</ele><time>2026-05-01T13:55:55.789Z</time></trkpt><trkpt lat="45.3013067" lon="8.1131017"><ele>181.0</ele><time>2026-05-01T13:55:56.789Z</time></trkpt><trkpt lat="45.3011983" lon="8.1129783"><ele>181.33333333333334</ele><time>2026-05-01T13:55:57.789Z</time></trkpt><trkpt lat="45.3010917" lon="8.1128317"><ele>181.66666666666666</ele><time>2026-05-01T13:55:58.789Z</time></trkpt><trkpt lat="45.30098" lon="8.11267"><ele>182.0</ele><time>2026-05-01T13:55:59.789Z</time></trkpt><trkpt lat="45.30088" lon="8.1124933"><ele>182.33333333333331</ele><time>2026-05-01T13:56:00.789Z</time></trkpt><trkpt lat="45.3007867" lon="8.1123233"><ele>182.66666666666666</ele><time>2026-05-01T13:56:01.789Z</time></trkpt><trkpt lat="45.30067" lon="8.1121583"><ele>183.0</ele><time>2026-05-01T13:56:02.789Z</time></trkpt><trkpt lat="45.3005617" lon="8.111985"><ele>183.0</ele><time>2026-05-01T13:56:03.788Z</time></trkpt><trkpt lat="45.3004483" lon="8.1118217"><ele>183.0</ele><time>2026-05-01T13:56:04.789Z</time></trkpt><trkpt lat="45.300335" lon="8.11166"><ele>183.0</ele><time>2026-05-01T13:56:05.789Z</time></trkpt><trkpt lat="45.300225" lon="8.1114933"><ele>182.33333333333334</ele><time>2026-05-01T13:56:06.789Z</time></trkpt><trkpt lat="45.3001167" lon="8.1113183"><ele>181.66666666666669</ele><time>2026-05-01T13:56:07.789Z</time></trkpt><trkpt lat="45.30001" lon="8.111135"><ele>181.0</ele><time>2026-05-01T13:56:08.789Z</time></trkpt><trkpt lat="45.2999" lon="8.1109567"><ele>181.0</ele><time>2026-05-01T13:56:09.789Z</time></trkpt><trkpt lat="45.2997917" lon="8.1107617"><ele>181.0</ele><time>2026-05-01T13:56:10.789Z</time></trkpt><trkpt lat="45.299685" lon="8.11058"><ele>181.0</ele><time>2026-05-01T13:56:11.789Z</time></trkpt><trkpt lat="45.29958" lon="8.1103983"><ele>181.33333333333334</ele><time>2026-05-01T13:56:12.789Z</time></trkpt><trkpt lat="45.2994667" lon="8.1102183"><ele>181.66666666666666</ele><time>2026-05-01T13:56:13.789Z</time></trkpt><trkpt lat="45.2993567" lon="8.1100267"><ele>182.0</ele><time>2026-05-01T13:56:14.789Z</time></trkpt><trkpt lat="45.2992383" lon="8.10984"><ele>182.0</ele><time>2026-05-01T13:56:15.789Z</time></trkpt><trkpt lat="45.29912" lon="8.1096617"><ele>182.0</ele><time>2026-05-01T13:56:16.789Z</time></trkpt><trkpt lat="45.2990067" lon="8.10948"><ele>182.0</ele><time>2026-05-01T13:56:17.789Z</time></trkpt><trkpt lat="45.29889" lon="8.1092933"><ele>181.66666666666666</ele><time>2026-05-01T13:56:18.789Z</time></trkpt><trkpt lat="45.2987767" lon="8.1090983"><ele>181.33333333333334</ele><time>2026-05-01T13:56:19.789Z</time></trkpt><trkpt lat="45.29866" lon="8.108905"><ele>181.0</ele><time>2026-05-01T13:56:20.789Z</time></trkpt><trkpt lat="45.2985417" lon="8.1087083"><ele>181.0</ele><time>2026-05-01T13:56:21.789Z</time></trkpt><trkpt lat="45.29843" lon="8.10852"><ele>181.0</ele><time>2026-05-01T13:56:22.789Z</time></trkpt><trkpt lat="45.2983083" lon="8.1083367"><ele>181.0</ele><time>2026-05-01T13:56:23.789Z</time></trkpt><trkpt lat="45.29819" lon="8.10815"><ele>180.66666666666669</ele><time>2026-05-01T13:56:24.788Z</time></trkpt><trkpt lat="45.298075" lon="8.1079633"><ele>180.33333333333334</ele><time>2026-05-01T13:56:25.789Z</time></trkpt><trkpt lat="45.2979583" lon="8.1077783"><ele>180.0</ele><time>2026-05-01T13:56:26.789Z</time></trkpt><trkpt lat="45.29784" lon="8.107585"><ele>180.66666666666666</ele><time>2026-05-01T13:56:27.789Z</time></trkpt><trkpt lat="45.2977233" lon="8.1073933"><ele>181.33333333333331</ele><time>2026-05-01T13:56:28.789Z</time></trkpt><trkpt lat="45.297605" lon="8.1072033"><ele>182.0</ele><time>2026-05-01T13:56:29.789Z</time></trkpt><trkpt lat="45.2974867" lon="8.107015"><ele>182.0</ele><time>2026-05-01T13:56:30.789Z</time></trkpt><trkpt lat="45.297375" lon="8.10683"><ele>182.0</ele><time>2026-05-01T13:56:31.789Z</time></trkpt><trkpt lat="45.297265" lon="8.1066483"><ele>182.0</ele><time>2026-05-01T13:56:32.789Z</time></trkpt><trkpt lat="45.2971517" lon="8.1064633"><ele>181.0</ele><time>2026-05-01T13:56:33.789Z</time></trkpt><trkpt lat="45.297035" lon="8.1062717"><ele>180.0</ele><time>2026-05-01T13:56:34.789Z</time></trkpt><trkpt lat="45.29681" lon="8.1058817"><ele>180.33333333333334</ele><time>2026-05-01T13:56:36.789Z</time></trkpt><trkpt lat="45.2966933" lon="8.1056967"><ele>180.66666666666669</ele><time>2026-05-01T13:56:37.789Z</time></trkpt><trkpt lat="45.2965817" lon="8.1055117"><ele>181.0</ele><time>2026-05-01T13:56:38.788Z</time></trkpt><trkpt lat="45.29647" lon="8.1053317"><ele>181.0</ele><time>2026-05-01T13:56:39.789Z</time></trkpt><trkpt lat="45.296355" lon="8.1051633"><ele>181.0</ele><time>2026-05-01T13:56:40.789Z</time></trkpt><trkpt lat="45.29624" lon="8.104985"><ele>181.0</ele><time>2026-05-01T13:56:41.789Z</time></trkpt><trkpt lat="45.29613" lon="8.1048"><ele>181.0</ele><time>2026-05-01T13:56:42.789Z</time></trkpt><trkpt lat="45.2960183" lon="8.1046133"><ele>181.0</ele><time>2026-05-01T13:56:43.789Z</time></trkpt><trkpt lat="45.2959083" lon="8.10443"><ele>181.0</ele><time>2026-05-01T13:56:44.789Z</time></trkpt><trkpt lat="45.2958" lon="8.10425"><ele>181.66666666666669</ele><time>2026-05-01T13:56:45.789Z</time></trkpt><trkpt lat="45.2956817" lon="8.1040617"><ele>182.33333333333334</ele><time>2026-05-01T13:56:46.789Z</time></trkpt><trkpt lat="45.2955683" lon="8.1038717"><ele>183.0</ele><time>2026-05-01T13:56:47.789Z</time></trkpt><trkpt lat="45.295445" lon="8.1036633"><ele>183.0</ele><time>2026-05-01T13:56:48.789Z</time></trkpt><trkpt lat="45.2953117" lon="8.103465"><ele>183.0</ele><time>2026-05-01T13:56:49.789Z</time></trkpt><trkpt lat="45.2951883" lon="8.1032667"><ele>183.0</ele><time>2026-05-01T13:56:50.789Z</time></trkpt><trkpt lat="45.2950717" lon="8.1030783"><ele>183.0</ele><time>2026-05-01T13:56:51.789Z</time></trkpt><trkpt lat="45.2949633" lon="8.1028983"><ele>183.0</ele><time>2026-05-01T13:56:52.789Z</time></trkpt><trkpt lat="45.2948583" lon="8.1027283"><ele>183.0</ele><time>2026-05-01T13:56:53.789Z</time></trkpt><trkpt lat="45.2947533" lon="8.1025633"><ele>182.75</ele><time>2026-05-01T13:56:54.789Z</time></trkpt><trkpt lat="45.2946583" lon="8.102405"><ele>182.5</ele><time>2026-05-01T13:56:55.789Z</time></trkpt><trkpt lat="45.2945717" lon="8.102255"><ele>182.25</ele><time>2026-05-01T13:56:56.789Z</time></trkpt><trkpt lat="45.2944867" lon="8.10211"><ele>182.0</ele><time>2026-05-01T13:56:57.789Z</time></trkpt><trkpt lat="45.2943967" lon="8.1019717"><ele>182.0</ele><time>2026-05-01T13:56:58.789Z</time></trkpt><trkpt lat="45.2943" lon="8.10182"><ele>182.0</ele><time>2026-05-01T13:56:59.789Z</time></trkpt><trkpt lat="45.2942083" lon="8.1016717"><ele>182.0</ele><time>2026-05-01T13:57:00.789Z</time></trkpt><trkpt lat="45.2941233" lon="8.101525"><ele>182.0</ele><time>2026-05-01T13:57:01.789Z</time></trkpt><trkpt lat="45.2940383" lon="8.1013733"><ele>182.0</ele><time>2026-05-01T13:57:02.789Z</time></trkpt><trkpt lat="45.2939567" lon="8.1012283"><ele>182.0</ele><time>2026-05-01T13:57:03.789Z</time></trkpt><trkpt lat="45.2938733" lon="8.1010833"><ele>182.0</ele><time>2026-05-01T13:57:04.789Z</time></trkpt><trkpt lat="45.2937883" lon="8.10095"><ele>182.0</ele><time>2026-05-01T13:57:05.789Z</time></trkpt><trkpt lat="45.2937033" lon="8.1008283"><ele>182.2</ele><time>2026-05-01T13:57:06.789Z</time></trkpt><trkpt lat="45.293625" lon="8.1007117"><ele>182.39999999999998</ele><time>2026-05-01T13:57:07.789Z</time></trkpt><trkpt lat="45.2935583" lon="8.1006017"><ele>182.60000000000002</ele><time>2026-05-01T13:57:08.789Z</time></trkpt><trkpt lat="45.2935083" lon="8.1005083"><ele>182.8</ele><time>2026-05-01T13:57:09.789Z</time></trkpt><trkpt lat="45.2934417" lon="8.10042"><ele>183.0</ele><time>2026-05-01T13:57:11.789Z</time></trkpt><trkpt lat="45.2933867" lon="8.1004883"><ele>183.0</ele><time>2026-05-01T13:57:14.789Z</time></trkpt><trkpt lat="45.2933333" lon="8.10063"><ele>183.0</ele><time>2026-05-01T13:57:16.789Z</time></trkpt><trkpt lat="45.29328" lon="8.1007467"><ele>183.0</ele><time>2026-05-01T13:57:17.789Z</time></trkpt><trkpt lat="45.293225" lon="8.1008717"><ele>183.0</ele><time>2026-05-01T13:57:18.788Z</time></trkpt><trkpt lat="45.2931683" lon="8.1010017"><ele>183.0</ele><time>2026-05-01T13:57:19.789Z</time></trkpt><trkpt lat="45.293105" lon="8.1011467"><ele>182.75</ele><time>2026-05-01T13:57:20.789Z</time></trkpt><trkpt lat="45.2930417" lon="8.10129"><ele>182.5</ele><time>2026-05-01T13:57:21.789Z</time></trkpt><trkpt lat="45.2929817" lon="8.1014483"><ele>182.25</ele><time>2026-05-01T13:57:22.788Z</time></trkpt><trkpt lat="45.2929183" lon="8.1016083"><ele>182.0</ele><time>2026-05-01T13:57:23.789Z</time></trkpt><trkpt lat="45.2928667" lon="8.101755"><ele>182.0</ele><time>2026-05-01T13:57:24.789Z</time></trkpt><trkpt lat="45.2928167" lon="8.1018833"><ele>182.0</ele><time>2026-05-01T13:57:25.789Z</time></trkpt><trkpt lat="45.2927617" lon="8.1019967"><ele>182.0</ele><time>2026-05-01T13:57:26.789Z</time></trkpt><trkpt lat="45.292715" lon="8.10211"><ele>182.0</ele><time>2026-05-01T13:57:27.789Z</time></trkpt><trkpt lat="45.2926667" lon="8.1022083"><ele>182.0</ele><time>2026-05-01T13:57:28.789Z</time></trkpt><trkpt lat="45.2926233" lon="8.1023067"><ele>182.0</ele><time>2026-05-01T13:57:29.789Z</time></trkpt><trkpt lat="45.2925783" lon="8.1024"><ele>182.0</ele><time>2026-05-01T13:57:30.789Z</time></trkpt><trkpt lat="45.2925417" lon="8.1024767"><ele>182.0</ele><time>2026-05-01T13:57:31.789Z</time></trkpt><trkpt lat="45.292525" lon="8.1025967"><ele>182.0</ele><time>2026-05-01T13:57:33.789Z</time></trkpt><trkpt lat="45.29256" lon="8.1027267"><ele>182.0</ele><time>2026-05-01T13:57:35.788Z</time></trkpt><trkpt lat="45.2925917" lon="8.10281"><ele>182.0</ele><time>2026-05-01T13:57:36.789Z</time></trkpt><trkpt lat="45.2926267" lon="8.1029033"><ele>182.0</ele><time>2026-05-01T13:57:37.789Z</time></trkpt><trkpt lat="45.29267" lon="8.103005"><ele>182.0</ele><time>2026-05-01T13:57:38.789Z</time></trkpt><trkpt lat="45.29271" lon="8.1031033"><ele>182.0</ele><time>2026-05-01T13:57:39.789Z</time></trkpt><trkpt lat="45.292745" lon="8.1031917"><ele>182.0</ele><time>2026-05-01T13:57:40.789Z</time></trkpt><trkpt lat="45.2927917" lon="8.1033267"><ele>182.0</ele><time>2026-05-01T13:57:42.789Z</time></trkpt><trkpt lat="45.2927867" lon="8.10348"><ele>182.0</ele><time>2026-05-01T13:57:49.788Z</time></trkpt><trkpt lat="45.29284" lon="8.1035983"><ele>182.0</ele><time>2026-05-01T13:57:51.789Z</time></trkpt><trkpt lat="45.2928767" lon="8.1036717"><ele>182.0</ele><time>2026-05-01T13:57:52.789Z</time></trkpt><trkpt lat="45.2929133" lon="8.10375"><ele>182.0</ele><time>2026-05-01T13:57:53.789Z</time></trkpt><trkpt lat="45.2929483" lon="8.1038267"><ele>182.0</ele><time>2026-05-01T13:57:54.789Z</time></trkpt><trkpt lat="45.2930183" lon="8.1039767"><ele>182.0</ele><time>2026-05-01T13:57:56.789Z</time></trkpt><trkpt lat="45.29309" lon="8.1041183"><ele>182.0</ele><time>2026-05-01T13:57:58.789Z</time></trkpt><trkpt lat="45.29312" lon="8.10423"><ele>181.8</ele><time>2026-05-01T13:58:00.789Z</time></trkpt><trkpt lat="45.2930867" lon="8.10432"><ele>181.6</ele><time>2026-05-01T13:58:02.789Z</time></trkpt><trkpt lat="45.2930217" lon="8.1044417"><ele>181.4</ele><time>2026-05-01T13:58:04.789Z</time></trkpt><trkpt lat="45.2929467" lon="8.104595"><ele>181.20000000000002</ele><time>2026-05-01T13:58:06.789Z</time></trkpt><trkpt lat="45.292905" lon="8.104685"><ele>181.0</ele><time>2026-05-01T13:58:07.789Z</time></trkpt><trkpt lat="45.29286" lon="8.1047783"><ele>181.0</ele><time>2026-05-01T13:58:08.789Z</time></trkpt><trkpt lat="45.2928133" lon="8.1048717"><ele>181.0</ele><time>2026-05-01T13:58:09.788Z</time></trkpt><trkpt lat="45.2927717" lon="8.1049567"><ele>181.0</ele><time>2026-05-01T13:58:10.788Z</time></trkpt><trkpt lat="45.29271" lon="8.1050883"><ele>181.0</ele><time>2026-05-01T13:58:12.788Z</time></trkpt><trkpt lat="45.292665" lon="8.1051883"><ele>181.0</ele><time>2026-05-01T13:58:14.788Z</time></trkpt><trkpt lat="45.292615" lon="8.1052883"><ele>181.0</ele><time>2026-05-01T13:58:16.788Z</time></trkpt><trkpt lat="45.29256" lon="8.1054"><ele>180.83333333333334</ele><time>2026-05-01T13:58:18.787Z</time></trkpt><trkpt lat="45.2925017" lon="8.1055033"><ele>180.66666666666669</ele><time>2026-05-01T13:58:20.788Z</time></trkpt><trkpt lat="45.29245" lon="8.10559"><ele>180.5</ele><time>2026-05-01T13:58:22.788Z</time></trkpt><trkpt lat="45.292395" lon="8.1056433"><ele>180.33333333333334</ele><time>2026-05-01T13:58:25.788Z</time></trkpt><trkpt lat="45.2923067" lon="8.105575"><ele>180.16666666666666</ele><time>2026-05-01T13:58:34.788Z</time></trkpt><trkpt lat="45.2922633" lon="8.1055017"><ele>180.0</ele><time>2026-05-01T13:58:35.788Z</time></trkpt><trkpt lat="45.2922117" lon="8.1054217"><ele>180.0</ele><time>2026-05-01T13:58:36.788Z</time></trkpt><trkpt lat="45.2921617" lon="8.1053383"><ele>180.0</ele><time>2026-05-01T13:58:37.788Z</time></trkpt><trkpt lat="45.2921183" lon="8.105265"><ele>180.0</ele><time>2026-05-01T13:58:38.788Z</time></trkpt><trkpt lat="45.2920667" lon="8.1052"><ele>180.0</ele><time>2026-05-01T13:58:39.788Z</time></trkpt><trkpt lat="45.2920067" lon="8.1051233"><ele>180.0</ele><time>2026-05-01T13:58:40.788Z</time></trkpt><trkpt lat="45.2919467" lon="8.1050417"><ele>180.0</ele><time>2026-05-01T13:58:41.788Z</time></trkpt><trkpt lat="45.291885" lon="8.10496"><ele>180.0</ele><time>2026-05-01T13:58:42.788Z</time></trkpt><trkpt lat="45.2918133" lon="8.10487"><ele>180.0</ele><time>2026-05-01T13:58:43.788Z</time></trkpt><trkpt lat="45.2917483" lon="8.1047867"><ele>180.0</ele><time>2026-05-01T13:58:44.788Z</time></trkpt><trkpt lat="45.2916833" lon="8.1047067"><ele>180.0</ele><time>2026-05-01T13:58:45.788Z</time></trkpt><trkpt lat="45.2916233" lon="8.104635"><ele>180.0</ele><time>2026-05-01T13:58:46.788Z</time></trkpt><trkpt lat="45.29156" lon="8.1045633"><ele>180.0</ele><time>2026-05-01T13:58:47.788Z</time></trkpt><trkpt lat="45.2915033" lon="8.1044767"><ele>180.0</ele><time>2026-05-01T13:58:48.788Z</time></trkpt><trkpt lat="45.2914433" lon="8.104395"><ele>180.0</ele><time>2026-05-01T13:58:49.788Z</time></trkpt><trkpt lat="45.2913867" lon="8.1043217"><ele>180.0</ele><time>2026-05-01T13:58:50.788Z</time></trkpt><trkpt lat="45.2913267" lon="8.104255"><ele>180.0</ele><time>2026-05-01T13:58:51.788Z</time></trkpt><trkpt lat="45.29127" lon="8.104195"><ele>180.0</ele><time>2026-05-01T13:58:52.787Z</time></trkpt><trkpt lat="45.2912167" lon="8.1041433"><ele>180.0</ele><time>2026-05-01T13:58:53.788Z</time></trkpt><trkpt lat="45.2911333" lon="8.1040867"><ele>179.8</ele><time>2026-05-01T13:58:55.788Z</time></trkpt><trkpt lat="45.291055" lon="8.10413"><ele>179.6</ele><time>2026-05-01T13:58:57.788Z</time></trkpt><trkpt lat="45.2909883" lon="8.1042783"><ele>179.39999999999998</ele><time>2026-05-01T13:58:59.788Z</time></trkpt><trkpt lat="45.2909417" lon="8.1043767"><ele>179.2</ele><time>2026-05-01T13:59:00.788Z</time></trkpt><trkpt lat="45.2908917" lon="8.1044817"><ele>179.0</ele><time>2026-05-01T13:59:01.788Z</time></trkpt><trkpt lat="45.2908383" lon="8.1045933"><ele>179.0</ele><time>2026-05-01T13:59:02.788Z</time></trkpt><trkpt lat="45.2907883" lon="8.1047"><ele>179.0</ele><time>2026-05-01T13:59:03.788Z</time></trkpt><trkpt lat="45.2907417" lon="8.1048017"><ele>179.0</ele><time>2026-05-01T13:59:04.788Z</time></trkpt><trkpt lat="45.2906867" lon="8.1049217"><ele>179.0</ele><time>2026-05-01T13:59:05.787Z</time></trkpt><trkpt lat="45.2906333" lon="8.1050467"><ele>179.0</ele><time>2026-05-01T13:59:06.788Z</time></trkpt><trkpt lat="45.2905833" lon="8.10516"><ele>178.79999999999998</ele><time>2026-05-01T13:59:07.788Z</time></trkpt><trkpt lat="45.29053" lon="8.1052667"><ele>178.6</ele><time>2026-05-01T13:59:08.788Z</time></trkpt><trkpt lat="45.2904783" lon="8.105375"><ele>178.4</ele><time>2026-05-01T13:59:09.788Z</time></trkpt><trkpt lat="45.290425" lon="8.10549"><ele>178.2</ele><time>2026-05-01T13:59:10.788Z</time></trkpt><trkpt lat="45.29037" lon="8.1056133"><ele>178.0</ele><time>2026-05-01T13:59:11.788Z</time></trkpt><trkpt lat="45.2903167" lon="8.1057283"><ele>178.2</ele><time>2026-05-01T13:59:12.788Z</time></trkpt><trkpt lat="45.29026" lon="8.105855"><ele>178.4</ele><time>2026-05-01T13:59:13.788Z</time></trkpt><trkpt lat="45.2902" lon="8.1059783"><ele>178.6</ele><time>2026-05-01T13:59:14.788Z</time></trkpt><trkpt lat="45.2901383" lon="8.1061117"><ele>178.79999999999998</ele><time>2026-05-01T13:59:15.788Z</time></trkpt><trkpt lat="45.2900833" lon="8.106245"><ele>179.0</ele><time>2026-05-01T13:59:16.788Z</time></trkpt><trkpt lat="45.29002" lon="8.1063783"><ele>179.0</ele><time>2026-05-01T13:59:17.788Z</time></trkpt><trkpt lat="45.28996" lon="8.1065133"><ele>179.0</ele><time>2026-05-01T13:59:18.788Z</time></trkpt><trkpt lat="45.289905" lon="8.1066467"><ele>179.0</ele><time>2026-05-01T13:59:19.788Z</time></trkpt><trkpt lat="45.2898517" lon="8.1067717"><ele>179.0</ele><time>2026-05-01T13:59:20.788Z</time></trkpt><trkpt lat="45.2898" lon="8.10689"><ele>179.0</ele><time>2026-05-01T13:59:21.788Z</time></trkpt><trkpt lat="45.28974" lon="8.107005"><ele>179.0</ele><time>2026-05-01T13:59:22.788Z</time></trkpt><trkpt lat="45.289685" lon="8.1071233"><ele>179.0</ele><time>2026-05-01T13:59:23.788Z</time></trkpt><trkpt lat="45.2896233" lon="8.1072417"><ele>179.0</ele><time>2026-05-01T13:59:24.788Z</time></trkpt><trkpt lat="45.28957" lon="8.1073667"><ele>179.0</ele><time>2026-05-01T13:59:25.788Z</time></trkpt><trkpt lat="45.2895233" lon="8.1074917"><ele>179.0</ele><time>2026-05-01T13:59:26.788Z</time></trkpt><trkpt lat="45.2894683" lon="8.1076117"><ele>179.0</ele><time>2026-05-01T13:59:27.788Z</time></trkpt><trkpt lat="45.28941" lon="8.1077417"><ele>179.0</ele><time>2026-05-01T13:59:28.788Z</time></trkpt><trkpt lat="45.28935" lon="8.107875"><ele>179.0</ele><time>2026-05-01T13:59:29.788Z</time></trkpt><trkpt lat="45.28929" lon="8.1080033"><ele>179.0</ele><time>2026-05-01T13:59:30.788Z</time></trkpt><trkpt lat="45.2892217" lon="8.1081383"><ele>179.0</ele><time>2026-05-01T13:59:31.788Z</time></trkpt><trkpt lat="45.2891533" lon="8.1082717"><ele>179.0</ele><time>2026-05-01T13:59:32.788Z</time></trkpt><trkpt lat="45.2890967" lon="8.1084133"><ele>179.0</ele><time>2026-05-01T13:59:33.788Z</time></trkpt><trkpt lat="45.2890283" lon="8.1085533"><ele>179.0</ele><time>2026-05-01T13:59:34.788Z</time></trkpt><trkpt lat="45.2889583" lon="8.1086883"><ele>179.0</ele><time>2026-05-01T13:59:35.788Z</time></trkpt><trkpt lat="45.2888933" lon="8.10883"><ele>179.0</ele><time>2026-05-01T13:59:36.788Z</time></trkpt><trkpt lat="45.2888233" lon="8.1089733"><ele>179.0</ele><time>2026-05-01T13:59:37.788Z</time></trkpt><trkpt lat="45.2887567" lon="8.109125"><ele>179.0</ele><time>2026-05-01T13:59:38.788Z</time></trkpt><trkpt lat="45.2886867" lon="8.1092683"><ele>179.0</ele><time>2026-05-01T13:59:39.788Z</time></trkpt><trkpt lat="45.2886233" lon="8.10941"><ele>179.0</ele><time>2026-05-01T13:59:40.788Z</time></trkpt><trkpt lat="45.2885517" lon="8.10955"><ele>179.0</ele><time>2026-05-01T13:59:41.788Z</time></trkpt><trkpt lat="45.28849" lon="8.1096983"><ele>179.0</ele><time>2026-05-01T13:59:42.788Z</time></trkpt><trkpt lat="45.28843" lon="8.10984"><ele>179.0</ele><time>2026-05-01T13:59:43.788Z</time></trkpt><trkpt lat="45.2883717" lon="8.1099717"><ele>179.2</ele><time>2026-05-01T13:59:44.788Z</time></trkpt><trkpt lat="45.28832" lon="8.1100983"><ele>179.39999999999998</ele><time>2026-05-01T13:59:45.788Z</time></trkpt><trkpt lat="45.288255" lon="8.1102167"><ele>179.6</ele><time>2026-05-01T13:59:46.788Z</time></trkpt><trkpt lat="45.2881883" lon="8.1103367"><ele>179.8</ele><time>2026-05-01T13:59:47.788Z</time></trkpt><trkpt lat="45.2881067" lon="8.110435"><ele>180.0</ele><time>2026-05-01T13:59:48.788Z</time></trkpt><trkpt lat="45.2880117" lon="8.1105233"><ele>179.5</ele><time>2026-05-01T13:59:49.788Z</time></trkpt><trkpt lat="45.2879167" lon="8.1106"><ele>179.0</ele><time>2026-05-01T13:59:50.788Z</time></trkpt><trkpt lat="45.287815" lon="8.1106717"><ele>178.5</ele><time>2026-05-01T13:59:51.788Z</time></trkpt><trkpt lat="45.2877083" lon="8.110745"><ele>178.0</ele><time>2026-05-01T13:59:52.788Z</time></trkpt><trkpt lat="45.2876" lon="8.1108217"><ele>177.75</ele><time>2026-05-01T13:59:53.788Z</time></trkpt><trkpt lat="45.2875067" lon="8.1108933"><ele>177.5</ele><time>2026-05-01T13:59:54.788Z</time></trkpt><trkpt lat="45.2874067" lon="8.11098"><ele>177.25</ele><time>2026-05-01T13:59:55.788Z</time></trkpt><trkpt lat="45.287305" lon="8.1110567"><ele>177.0</ele><time>2026-05-01T13:59:56.788Z</time></trkpt><trkpt lat="45.2872" lon="8.1111233"><ele>177.0</ele><time>2026-05-01T13:59:57.788Z</time></trkpt><trkpt lat="45.2871017" lon="8.1111933"><ele>177.0</ele><time>2026-05-01T13:59:58.788Z</time></trkpt><trkpt lat="45.2870083" lon="8.1112867"><ele>177.0</ele><time>2026-05-01T13:59:59.788Z</time></trkpt><trkpt lat="45.2869233" lon="8.1114017"><ele>177.0</ele><time>2026-05-01T14:00:00.788Z</time></trkpt><trkpt lat="45.2868417" lon="8.111525"><ele>176.8</ele><time>2026-05-01T14:00:01.787Z</time></trkpt><trkpt lat="45.286775" lon="8.1116567"><ele>176.6</ele><time>2026-05-01T14:00:02.788Z</time></trkpt><trkpt lat="45.28672" lon="8.1117783"><ele>176.4</ele><time>2026-05-01T14:00:03.788Z</time></trkpt><trkpt lat="45.2866783" lon="8.1118883"><ele>176.20000000000002</ele><time>2026-05-01T14:00:04.788Z</time></trkpt><trkpt lat="45.28664" lon="8.1119717"><ele>176.0</ele><time>2026-05-01T14:00:05.788Z</time></trkpt><trkpt lat="45.28656" lon="8.112045"><ele>176.0</ele><time>2026-05-01T14:00:07.788Z</time></trkpt><trkpt lat="45.28646" lon="8.1119767"><ele>176.0</ele><time>2026-05-01T14:00:09.788Z</time></trkpt><trkpt lat="45.2863833" lon="8.1119067"><ele>176.0</ele><time>2026-05-01T14:00:10.788Z</time></trkpt><trkpt lat="45.2863" lon="8.11183"><ele>176.0</ele><time>2026-05-01T14:00:11.788Z</time></trkpt><trkpt lat="45.2862083" lon="8.1117483"><ele>176.0</ele><time>2026-05-01T14:00:12.788Z</time></trkpt><trkpt lat="45.2861067" lon="8.1116717"><ele>176.0</ele><time>2026-05-01T14:00:13.788Z</time></trkpt><trkpt lat="45.2860083" lon="8.1115983"><ele>176.0</ele><time>2026-05-01T14:00:14.788Z</time></trkpt><trkpt lat="45.2858983" lon="8.111505"><ele>176.0</ele><time>2026-05-01T14:00:15.788Z</time></trkpt><trkpt lat="45.2857833" lon="8.1114133"><ele>176.0</ele><time>2026-05-01T14:00:16.788Z</time></trkpt><trkpt lat="45.2856767" lon="8.1113167"><ele>176.25</ele><time>2026-05-01T14:00:17.788Z</time></trkpt><trkpt lat="45.285565" lon="8.11123"><ele>176.5</ele><time>2026-05-01T14:00:18.788Z</time></trkpt><trkpt lat="45.2854567" lon="8.1111483"><ele>176.75</ele><time>2026-05-01T14:00:19.788Z</time></trkpt><trkpt lat="45.2853533" lon="8.1110583"><ele>177.0</ele><time>2026-05-01T14:00:20.788Z</time></trkpt><trkpt lat="45.2852633" lon="8.1109783"><ele>177.0</ele><time>2026-05-01T14:00:21.788Z</time></trkpt><trkpt lat="45.2851817" lon="8.110905"><ele>177.0</ele><time>2026-05-01T14:00:22.788Z</time></trkpt><trkpt lat="45.2851133" lon="8.11085"><ele>177.0</ele><time>2026-05-01T14:00:23.788Z</time></trkpt><trkpt lat="45.2850533" lon="8.1108"><ele>177.0</ele><time>2026-05-01T14:00:24.787Z</time></trkpt><trkpt lat="45.2849967" lon="8.1107583"><ele>177.0</ele><time>2026-05-01T14:00:25.788Z</time></trkpt><trkpt lat="45.2849" lon="8.11076"><ele>177.0</ele><time>2026-05-01T14:00:27.788Z</time></trkpt><trkpt lat="45.284815" lon="8.1108867"><ele>177.0</ele><time>2026-05-01T14:00:29.788Z</time></trkpt><trkpt lat="45.284775" lon="8.110995"><ele>177.0</ele><time>2026-05-01T14:00:30.788Z</time></trkpt><trkpt lat="45.2847383" lon="8.1111183"><ele>177.0</ele><time>2026-05-01T14:00:31.788Z</time></trkpt><trkpt lat="45.2847" lon="8.1112417"><ele>177.0</ele><time>2026-05-01T14:00:32.788Z</time></trkpt><trkpt lat="45.2846633" lon="8.11138"><ele>177.0</ele><time>2026-05-01T14:00:33.788Z</time></trkpt><trkpt lat="45.2846283" lon="8.1115317"><ele>176.5</ele><time>2026-05-01T14:00:34.788Z</time></trkpt><trkpt lat="45.2845833" lon="8.1116967"><ele>176.0</ele><time>2026-05-01T14:00:35.788Z</time></trkpt><trkpt lat="45.2845217" lon="8.1118633"><ele>175.5</ele><time>2026-05-01T14:00:36.788Z</time></trkpt><trkpt lat="45.2844683" lon="8.1120367"><ele>175.0</ele><time>2026-05-01T14:00:37.788Z</time></trkpt><trkpt lat="45.2844117" lon="8.1122133"><ele>175.0</ele><time>2026-05-01T14:00:38.788Z</time></trkpt><trkpt lat="45.2843633" lon="8.112385"><ele>175.0</ele><time>2026-05-01T14:00:39.788Z</time></trkpt><trkpt lat="45.28431" lon="8.1125583"><ele>175.0</ele><time>2026-05-01T14:00:40.787Z</time></trkpt><trkpt lat="45.2842567" lon="8.1127333"><ele>175.0</ele><time>2026-05-01T14:00:41.788Z</time></trkpt><trkpt lat="45.28421" lon="8.1129017"><ele>175.0</ele><time>2026-05-01T14:00:42.788Z</time></trkpt><trkpt lat="45.2841567" lon="8.113075"><ele>175.0</ele><time>2026-05-01T14:00:43.788Z</time></trkpt><trkpt lat="45.284105" lon="8.1132483"><ele>175.0</ele><time>2026-05-01T14:00:44.788Z</time></trkpt><trkpt lat="45.2840533" lon="8.113415"><ele>175.0</ele><time>2026-05-01T14:00:45.788Z</time></trkpt><trkpt lat="45.2840017" lon="8.1135883"><ele>175.0</ele><time>2026-05-01T14:00:46.788Z</time></trkpt><trkpt lat="45.2839517" lon="8.11375"><ele>175.0</ele><time>2026-05-01T14:00:47.788Z</time></trkpt><trkpt lat="45.283905" lon="8.1139117"><ele>175.0</ele><time>2026-05-01T14:00:48.788Z</time></trkpt><trkpt lat="45.2838633" lon="8.11407"><ele>175.0</ele><time>2026-05-01T14:00:49.788Z</time></trkpt><trkpt lat="45.2838183" lon="8.1142433"><ele>174.75</ele><time>2026-05-01T14:00:50.788Z</time></trkpt><trkpt lat="45.283755" lon="8.1143933"><ele>174.5</ele><time>2026-05-01T14:00:51.788Z</time></trkpt><trkpt lat="45.2836717" lon="8.1145483"><ele>174.25</ele><time>2026-05-01T14:00:52.788Z</time></trkpt><trkpt lat="45.2835917" lon="8.1146983"><ele>174.0</ele><time>2026-05-01T14:00:53.788Z</time></trkpt><trkpt lat="45.2835117" lon="8.1148517"><ele>174.0</ele><time>2026-05-01T14:00:54.788Z</time></trkpt><trkpt lat="45.28343" lon="8.1150067"><ele>174.0</ele><time>2026-05-01T14:00:55.787Z</time></trkpt><trkpt lat="45.2833567" lon="8.115165"><ele>174.0</ele><time>2026-05-01T14:00:56.788Z</time></trkpt><trkpt lat="45.2832817" lon="8.1153267"><ele>174.0</ele><time>2026-05-01T14:00:57.787Z</time></trkpt><trkpt lat="45.2832033" lon="8.1154933"><ele>174.0</ele><time>2026-05-01T14:00:58.788Z</time></trkpt><trkpt lat="45.2831267" lon="8.1156383"><ele>174.0</ele><time>2026-05-01T14:00:59.788Z</time></trkpt><trkpt lat="45.2830583" lon="8.11577"><ele>174.0</ele><time>2026-05-01T14:01:00.788Z</time></trkpt><trkpt lat="45.2829983" lon="8.1159"><ele>174.0</ele><time>2026-05-01T14:01:01.788Z</time></trkpt><trkpt lat="45.2829317" lon="8.1160233"><ele>174.0</ele><time>2026-05-01T14:01:02.788Z</time></trkpt><trkpt lat="45.2828733" lon="8.1161383"><ele>174.0</ele><time>2026-05-01T14:01:03.788Z</time></trkpt><trkpt lat="45.28282" lon="8.1162517"><ele>174.0</ele><time>2026-05-01T14:01:04.787Z</time></trkpt><trkpt lat="45.2827633" lon="8.11636"><ele>174.0</ele><time>2026-05-01T14:01:05.788Z</time></trkpt><trkpt lat="45.2827117" lon="8.1164733"><ele>174.0</ele><time>2026-05-01T14:01:06.788Z</time></trkpt><trkpt lat="45.28266" lon="8.1165817"><ele>174.0</ele><time>2026-05-01T14:01:07.788Z</time></trkpt><trkpt lat="45.28261" lon="8.116685"><ele>174.0</ele><time>2026-05-01T14:01:08.788Z</time></trkpt><trkpt lat="45.28256" lon="8.11678"><ele>174.0</ele><time>2026-05-01T14:01:09.788Z</time></trkpt><trkpt lat="45.282515" lon="8.1168783"><ele>174.0</ele><time>2026-05-01T14:01:10.788Z</time></trkpt><trkpt lat="45.28247" lon="8.116975"><ele>174.0</ele><time>2026-05-01T14:01:11.788Z</time></trkpt><trkpt lat="45.2824283" lon="8.1170633"><ele>174.0</ele><time>2026-05-01T14:01:12.788Z</time></trkpt><trkpt lat="45.28239" lon="8.117145"><ele>174.0</ele><time>2026-05-01T14:01:13.788Z</time></trkpt><trkpt lat="45.2823467" lon="8.1172233"><ele>174.0</ele><time>2026-05-01T14:01:14.788Z</time></trkpt><trkpt lat="45.28231" lon="8.1173"><ele>174.0</ele><time>2026-05-01T14:01:15.788Z</time></trkpt><trkpt lat="45.282245" lon="8.11743"><ele>174.0</ele><time>2026-05-01T14:01:17.788Z</time></trkpt><trkpt lat="45.2822" lon="8.1175367"><ele>174.0</ele><time>2026-05-01T14:01:19.788Z</time></trkpt><trkpt lat="45.28213" lon="8.1176017"><ele>174.0</ele><time>2026-05-01T14:01:22.788Z</time></trkpt><trkpt lat="45.282045" lon="8.117585"><ele>174.39999999999998</ele><time>2026-05-01T14:01:24.788Z</time></trkpt><trkpt lat="45.2819433" lon="8.117575"><ele>174.8</ele><time>2026-05-01T14:01:26.788Z</time></trkpt><trkpt lat="45.2818383" lon="8.1175567"><ele>175.2</ele><time>2026-05-01T14:01:28.788Z</time></trkpt><trkpt lat="45.281715" lon="8.11755"><ele>175.60000000000002</ele><time>2026-05-01T14:01:30.788Z</time></trkpt><trkpt lat="45.281605" lon="8.1175567"><ele>176.0</ele><time>2026-05-01T14:01:32.788Z</time></trkpt><trkpt lat="45.2815333" lon="8.1175883"><ele>176.0</ele><time>2026-05-01T14:01:34.788Z</time></trkpt><trkpt lat="45.281485" lon="8.1176983"><ele>176.0</ele><time>2026-05-01T14:01:36.788Z</time></trkpt><trkpt lat="45.2814417" lon="8.1178517"><ele>176.0</ele><time>2026-05-01T14:01:38.788Z</time></trkpt><trkpt lat="45.2814017" lon="8.1180033"><ele>176.0</ele><time>2026-05-01T14:01:40.788Z</time></trkpt><trkpt lat="45.281365" lon="8.118165"><ele>176.0</ele><time>2026-05-01T14:01:42.788Z</time></trkpt><trkpt lat="45.2813167" lon="8.1183233"><ele>176.0</ele><time>2026-05-01T14:01:44.788Z</time></trkpt><trkpt lat="45.281275" lon="8.1184817"><ele>176.0</ele><time>2026-05-01T14:01:46.788Z</time></trkpt><trkpt lat="45.2812067" lon="8.1185883"><ele>176.0</ele><time>2026-05-01T14:01:48.788Z</time></trkpt><trkpt lat="45.28112" lon="8.1185917"><ele>176.0</ele><time>2026-05-01T14:01:50.788Z</time></trkpt><trkpt lat="45.28102" lon="8.118505"><ele>176.0</ele><time>2026-05-01T14:01:52.788Z</time></trkpt><trkpt lat="45.2809617" lon="8.1184483"><ele>176.0</ele><time>2026-05-01T14:01:53.788Z</time></trkpt><trkpt lat="45.2809017" lon="8.1183883"><ele>176.0</ele><time>2026-05-01T14:01:54.787Z</time></trkpt><trkpt lat="45.2808383" lon="8.118335"><ele>176.0</ele><time>2026-05-01T14:01:55.788Z</time></trkpt><trkpt lat="45.28077" lon="8.1182767"><ele>176.0</ele><time>2026-05-01T14:01:56.788Z</time></trkpt><trkpt lat="45.2807033" lon="8.1182117"><ele>176.0</ele><time>2026-05-01T14:01:57.788Z</time></trkpt><trkpt lat="45.2806383" lon="8.1181517"><ele>176.0</ele><time>2026-05-01T14:01:58.788Z</time></trkpt><trkpt lat="45.2805783" lon="8.1181017"><ele>175.83333333333331</ele><time>2026-05-01T14:01:59.788Z</time></trkpt><trkpt lat="45.2805117" lon="8.11805"><ele>175.66666666666666</ele><time>2026-05-01T14:02:00.788Z</time></trkpt><trkpt lat="45.2804417" lon="8.1179867"><ele>175.5</ele><time>2026-05-01T14:02:01.788Z</time></trkpt><trkpt lat="45.2803533" lon="8.1179233"><ele>175.33333333333334</ele><time>2026-05-01T14:02:02.788Z</time></trkpt><trkpt lat="45.280265" lon="8.1178667"><ele>175.16666666666669</ele><time>2026-05-01T14:02:03.787Z</time></trkpt><trkpt lat="45.2801867" lon="8.1178033"><ele>175.0</ele><time>2026-05-01T14:02:04.788Z</time></trkpt><trkpt lat="45.280105" lon="8.117735"><ele>175.0</ele><time>2026-05-01T14:02:05.788Z</time></trkpt><trkpt lat="45.28002" lon="8.11767"><ele>175.0</ele><time>2026-05-01T14:02:06.788Z</time></trkpt><trkpt lat="45.2799283" lon="8.1175983"><ele>175.0</ele><time>2026-05-01T14:02:07.788Z</time></trkpt><trkpt lat="45.27983" lon="8.1175183"><ele>175.0</ele><time>2026-05-01T14:02:08.788Z</time></trkpt><trkpt lat="45.2797233" lon="8.117435"><ele>175.0</ele><time>2026-05-01T14:02:09.788Z</time></trkpt><trkpt lat="45.2796083" lon="8.11734"><ele>174.75</ele><time>2026-05-01T14:02:10.788Z</time></trkpt><trkpt lat="45.2794933" lon="8.1172417"><ele>174.5</ele><time>2026-05-01T14:02:11.788Z</time></trkpt><trkpt lat="45.2793633" lon="8.1171333"><ele>174.25</ele><time>2026-05-01T14:02:12.788Z</time></trkpt><trkpt lat="45.279235" lon="8.1170233"><ele>174.0</ele><time>2026-05-01T14:02:13.788Z</time></trkpt><trkpt lat="45.2791067" lon="8.1169133"><ele>174.0</ele><time>2026-05-01T14:02:14.788Z</time></trkpt><trkpt lat="45.27897" lon="8.116805"><ele>174.0</ele><time>2026-05-01T14:02:15.788Z</time></trkpt><trkpt lat="45.27884" lon="8.1166917"><ele>174.0</ele><time>2026-05-01T14:02:16.788Z</time></trkpt><trkpt lat="45.2787083" lon="8.1165883"><ele>174.0</ele><time>2026-05-01T14:02:17.788Z</time></trkpt><trkpt lat="45.2785733" lon="8.1164817"><ele>174.0</ele><time>2026-05-01T14:02:18.788Z</time></trkpt><trkpt lat="45.2784383" lon="8.1163633"><ele>174.0</ele><time>2026-05-01T14:02:19.787Z</time></trkpt><trkpt lat="45.2783017" lon="8.1162433"><ele>174.0</ele><time>2026-05-01T14:02:20.788Z</time></trkpt><trkpt lat="45.27817" lon="8.116135"><ele>174.0</ele><time>2026-05-01T14:02:21.787Z</time></trkpt><trkpt lat="45.278045" lon="8.1160283"><ele>174.0</ele><time>2026-05-01T14:02:22.788Z</time></trkpt><trkpt lat="45.2779283" lon="8.1159317"><ele>174.0</ele><time>2026-05-01T14:02:23.788Z</time></trkpt><trkpt lat="45.277825" lon="8.11584"><ele>174.2</ele><time>2026-05-01T14:02:24.788Z</time></trkpt><trkpt lat="45.2777167" lon="8.1157567"><ele>174.39999999999998</ele><time>2026-05-01T14:02:25.788Z</time></trkpt><trkpt lat="45.2776217" lon="8.115675"><ele>174.6</ele><time>2026-05-01T14:02:26.788Z</time></trkpt><trkpt lat="45.2775433" lon="8.1156017"><ele>174.8</ele><time>2026-05-01T14:02:27.788Z</time></trkpt><trkpt lat="45.27748" lon="8.1155417"><ele>175.0</ele><time>2026-05-01T14:02:28.788Z</time></trkpt><trkpt lat="45.2773967" lon="8.1154533"><ele>175.0</ele><time>2026-05-01T14:02:30.788Z</time></trkpt><trkpt lat="45.277335" lon="8.115405"><ele>175.0</ele><time>2026-05-01T14:04:00.788Z</time></trkpt><trkpt lat="45.277255" lon="8.1154733"><ele>175.0</ele><time>2026-05-01T14:04:02.788Z</time></trkpt><trkpt lat="45.277215" lon="8.1155517"><ele>175.0</ele><time>2026-05-01T14:04:03.788Z</time></trkpt><trkpt lat="45.2771833" lon="8.1156567"><ele>175.0</ele><time>2026-05-01T14:04:04.788Z</time></trkpt><trkpt lat="45.27715" lon="8.1157667"><ele>175.0</ele><time>2026-05-01T14:04:05.788Z</time></trkpt><trkpt lat="45.2771033" lon="8.115895"><ele>174.75</ele><time>2026-05-01T14:04:06.787Z</time></trkpt><trkpt lat="45.2770567" lon="8.1160467"><ele>174.5</ele><time>2026-05-01T14:04:07.788Z</time></trkpt><trkpt lat="45.2770017" lon="8.1162117"><ele>174.25</ele><time>2026-05-01T14:04:08.788Z</time></trkpt><trkpt lat="45.2769517" lon="8.1163833"><ele>174.0</ele><time>2026-05-01T14:04:09.788Z</time></trkpt><trkpt lat="45.2768933" lon="8.116555"><ele>174.0</ele><time>2026-05-01T14:04:10.788Z</time></trkpt><trkpt lat="45.2768367" lon="8.1167317"><ele>174.0</ele><time>2026-05-01T14:04:11.788Z</time></trkpt><trkpt lat="45.276775" lon="8.1169217"><ele>174.0</ele><time>2026-05-01T14:04:12.788Z</time></trkpt><trkpt lat="45.2767167" lon="8.1171283"><ele>174.0</ele><time>2026-05-01T14:04:13.788Z</time></trkpt><trkpt lat="45.2766533" lon="8.1173317"><ele>174.0</ele><time>2026-05-01T14:04:14.788Z</time></trkpt><trkpt lat="45.2765817" lon="8.1175467"><ele>174.0</ele><time>2026-05-01T14:04:15.788Z</time></trkpt><trkpt lat="45.2764383" lon="8.1179883"><ele>174.66666666666666</ele><time>2026-05-01T14:04:17.788Z</time></trkpt><trkpt lat="45.2763683" lon="8.11822"><ele>175.33333333333331</ele><time>2026-05-01T14:04:18.788Z</time></trkpt><trkpt lat="45.2762933" lon="8.11844"><ele>176.0</ele><time>2026-05-01T14:04:19.788Z</time></trkpt><trkpt lat="45.276215" lon="8.1186733"><ele>176.33333333333331</ele><time>2026-05-01T14:04:20.788Z</time></trkpt><trkpt lat="45.2761367" lon="8.11891"><ele>176.66666666666666</ele><time>2026-05-01T14:04:21.788Z</time></trkpt><trkpt lat="45.2760417" lon="8.1191467"><ele>177.0</ele><time>2026-05-01T14:04:22.788Z</time></trkpt><trkpt lat="45.275955" lon="8.1193833"><ele>176.0</ele><time>2026-05-01T14:04:23.788Z</time></trkpt><trkpt lat="45.2758717" lon="8.11962"><ele>175.0</ele><time>2026-05-01T14:04:24.788Z</time></trkpt><trkpt lat="45.2757867" lon="8.1198433"><ele>174.0</ele><time>2026-05-01T14:04:25.788Z</time></trkpt><trkpt lat="45.2757083" lon="8.1200833"><ele>173.66666666666666</ele><time>2026-05-01T14:04:26.787Z</time></trkpt><trkpt lat="45.2756267" lon="8.1203133"><ele>173.33333333333331</ele><time>2026-05-01T14:04:27.787Z</time></trkpt><trkpt lat="45.27554" lon="8.120545"><ele>173.0</ele><time>2026-05-01T14:04:28.788Z</time></trkpt><trkpt lat="45.27546" lon="8.1207717"><ele>172.66666666666666</ele><time>2026-05-01T14:04:29.788Z</time></trkpt><trkpt lat="45.27538" lon="8.1209967"><ele>172.33333333333334</ele><time>2026-05-01T14:04:30.788Z</time></trkpt><trkpt lat="45.2752967" lon="8.1212317"><ele>172.0</ele><time>2026-05-01T14:04:31.788Z</time></trkpt><trkpt lat="45.27522" lon="8.1214617"><ele>172.0</ele><time>2026-05-01T14:04:32.788Z</time></trkpt><trkpt lat="45.2751467" lon="8.1216917"><ele>172.0</ele><time>2026-05-01T14:04:33.788Z</time></trkpt><trkpt lat="45.27507" lon="8.1219233"><ele>172.0</ele><time>2026-05-01T14:04:34.788Z</time></trkpt><trkpt lat="45.27499" lon="8.1221567"><ele>172.0</ele><time>2026-05-01T14:04:35.788Z</time></trkpt><trkpt lat="45.274905" lon="8.1223967"><ele>172.0</ele><time>2026-05-01T14:04:36.788Z</time></trkpt><trkpt lat="45.274815" lon="8.122625"><ele>172.0</ele><time>2026-05-01T14:04:37.788Z</time></trkpt><trkpt lat="45.2747283" lon="8.12286"><ele>172.0</ele><time>2026-05-01T14:04:38.788Z</time></trkpt><trkpt lat="45.27465" lon="8.1231017"><ele>172.0</ele><time>2026-05-01T14:04:39.788Z</time></trkpt><trkpt lat="45.274565" lon="8.12334"><ele>172.0</ele><time>2026-05-01T14:04:40.788Z</time></trkpt><trkpt lat="45.2744867" lon="8.1235817"><ele>172.0</ele><time>2026-05-01T14:04:41.788Z</time></trkpt><trkpt lat="45.2744017" lon="8.1238233"><ele>172.0</ele><time>2026-05-01T14:04:42.788Z</time></trkpt><trkpt lat="45.274315" lon="8.1240633"><ele>172.0</ele><time>2026-05-01T14:04:43.788Z</time></trkpt><trkpt lat="45.2742267" lon="8.124295"><ele>172.0</ele><time>2026-05-01T14:04:44.788Z</time></trkpt><trkpt lat="45.27413" lon="8.1245433"><ele>172.0</ele><time>2026-05-01T14:04:45.788Z</time></trkpt><trkpt lat="45.2740533" lon="8.1247817"><ele>172.0</ele><time>2026-05-01T14:04:46.788Z</time></trkpt><trkpt lat="45.2739667" lon="8.125015"><ele>171.33333333333334</ele><time>2026-05-01T14:04:47.788Z</time></trkpt><trkpt lat="45.2738817" lon="8.1252467"><ele>170.66666666666666</ele><time>2026-05-01T14:04:48.788Z</time></trkpt><trkpt lat="45.273795" lon="8.1254867"><ele>170.0</ele><time>2026-05-01T14:04:49.788Z</time></trkpt><trkpt lat="45.273715" lon="8.12571"><ele>170.0</ele><time>2026-05-01T14:04:50.787Z</time></trkpt><trkpt lat="45.2736383" lon="8.1259467"><ele>170.0</ele><time>2026-05-01T14:04:51.788Z</time></trkpt><trkpt lat="45.273555" lon="8.1261817"><ele>170.0</ele><time>2026-05-01T14:04:52.788Z</time></trkpt><trkpt lat="45.27347" lon="8.12642"><ele>170.0</ele><time>2026-05-01T14:04:53.788Z</time></trkpt><trkpt lat="45.2733883" lon="8.1266567"><ele>170.0</ele><time>2026-05-01T14:04:54.788Z</time></trkpt><trkpt lat="45.2733067" lon="8.12689"><ele>170.0</ele><time>2026-05-01T14:04:55.788Z</time></trkpt><trkpt lat="45.2732217" lon="8.1271317"><ele>170.0</ele><time>2026-05-01T14:04:56.788Z</time></trkpt><trkpt lat="45.273135" lon="8.127365"><ele>170.0</ele><time>2026-05-01T14:04:57.788Z</time></trkpt><trkpt lat="45.2730533" lon="8.1275967"><ele>170.0</ele><time>2026-05-01T14:04:58.788Z</time></trkpt><trkpt lat="45.2729733" lon="8.1278333"><ele>169.66666666666666</ele><time>2026-05-01T14:04:59.788Z</time></trkpt><trkpt lat="45.2728883" lon="8.128065"><ele>169.33333333333334</ele><time>2026-05-01T14:05:00.788Z</time></trkpt><trkpt lat="45.2728033" lon="8.1283017"><ele>169.0</ele><time>2026-05-01T14:05:01.787Z</time></trkpt><trkpt lat="45.2727183" lon="8.1285367"><ele>169.0</ele><time>2026-05-01T14:05:02.788Z</time></trkpt><trkpt lat="45.272635" lon="8.1287733"><ele>169.0</ele><time>2026-05-01T14:05:03.788Z</time></trkpt><trkpt lat="45.2725567" lon="8.1289883"><ele>169.0</ele><time>2026-05-01T14:05:04.788Z</time></trkpt><trkpt lat="45.27248" lon="8.1292083"><ele>169.0</ele><time>2026-05-01T14:05:05.788Z</time></trkpt><trkpt lat="45.2724" lon="8.1294433"><ele>169.0</ele><time>2026-05-01T14:05:06.788Z</time></trkpt><trkpt lat="45.2723167" lon="8.1296617"><ele>169.0</ele><time>2026-05-01T14:05:07.788Z</time></trkpt><trkpt lat="45.2722383" lon="8.1298883"><ele>169.0</ele><time>2026-05-01T14:05:08.788Z</time></trkpt><trkpt lat="45.2721617" lon="8.1301017"><ele>169.0</ele><time>2026-05-01T14:05:09.788Z</time></trkpt><trkpt lat="45.2720867" lon="8.13032"><ele>169.0</ele><time>2026-05-01T14:05:10.788Z</time></trkpt><trkpt lat="45.2720183" lon="8.1305183"><ele>169.0</ele><time>2026-05-01T14:05:11.788Z</time></trkpt><trkpt lat="45.2719483" lon="8.130705"><ele>169.0</ele><time>2026-05-01T14:05:12.788Z</time></trkpt><trkpt lat="45.2718717" lon="8.1308967"><ele>169.0</ele><time>2026-05-01T14:05:13.788Z</time></trkpt><trkpt lat="45.2717917" lon="8.1310917"><ele>169.0</ele><time>2026-05-01T14:05:14.788Z</time></trkpt><trkpt lat="45.2717183" lon="8.13127"><ele>169.0</ele><time>2026-05-01T14:05:15.788Z</time></trkpt><trkpt lat="45.271635" lon="8.1314417"><ele>169.0</ele><time>2026-05-01T14:05:16.788Z</time></trkpt><trkpt lat="45.2715517" lon="8.131615"><ele>169.0</ele><time>2026-05-01T14:05:17.788Z</time></trkpt><trkpt lat="45.2714717" lon="8.13179"><ele>169.0</ele><time>2026-05-01T14:05:18.788Z</time></trkpt><trkpt lat="45.2713967" lon="8.1319467"><ele>169.0</ele><time>2026-05-01T14:05:19.788Z</time></trkpt><trkpt lat="45.2713167" lon="8.132105"><ele>169.0</ele><time>2026-05-01T14:05:20.788Z</time></trkpt><trkpt lat="45.2712417" lon="8.1322533"><ele>169.0</ele><time>2026-05-01T14:05:21.788Z</time></trkpt><trkpt lat="45.2711683" lon="8.1324167"><ele>168.75</ele><time>2026-05-01T14:05:22.788Z</time></trkpt><trkpt lat="45.2710883" lon="8.1325867"><ele>168.5</ele><time>2026-05-01T14:05:23.787Z</time></trkpt><trkpt lat="45.2710017" lon="8.1327533"><ele>168.25</ele><time>2026-05-01T14:05:24.788Z</time></trkpt><trkpt lat="45.2709167" lon="8.13293"><ele>168.0</ele><time>2026-05-01T14:05:25.788Z</time></trkpt><trkpt lat="45.2708267" lon="8.13311"><ele>168.0</ele><time>2026-05-01T14:05:26.788Z</time></trkpt><trkpt lat="45.270745" lon="8.1332917"><ele>168.0</ele><time>2026-05-01T14:05:27.788Z</time></trkpt><trkpt lat="45.27066" lon="8.1334833"><ele>168.0</ele><time>2026-05-01T14:05:28.788Z</time></trkpt><trkpt lat="45.270575" lon="8.133675"><ele>167.66666666666666</ele><time>2026-05-01T14:05:29.788Z</time></trkpt><trkpt lat="45.27048" lon="8.1338583"><ele>167.33333333333331</ele><time>2026-05-01T14:05:30.788Z</time></trkpt><trkpt lat="45.2703767" lon="8.1340483"><ele>167.0</ele><time>2026-05-01T14:05:31.787Z</time></trkpt><trkpt lat="45.2702717" lon="8.1342217"><ele>167.0</ele><time>2026-05-01T14:05:32.788Z</time></trkpt><trkpt lat="45.2701667" lon="8.1344117"><ele>167.0</ele><time>2026-05-01T14:05:33.788Z</time></trkpt><trkpt lat="45.2700583" lon="8.1346067"><ele>167.0</ele><time>2026-05-01T14:05:34.788Z</time></trkpt><trkpt lat="45.2699383" lon="8.1348017"><ele>167.0</ele><time>2026-05-01T14:05:35.788Z</time></trkpt><trkpt lat="45.2698267" lon="8.1349967"><ele>167.0</ele><time>2026-05-01T14:05:36.788Z</time></trkpt><trkpt lat="45.2697083" lon="8.1351967"><ele>167.0</ele><time>2026-05-01T14:05:37.788Z</time></trkpt><trkpt lat="45.2695983" lon="8.1353933"><ele>167.0</ele><time>2026-05-01T14:05:38.788Z</time></trkpt><trkpt lat="45.2694733" lon="8.1356017"><ele>167.0</ele><time>2026-05-01T14:05:39.788Z</time></trkpt><trkpt lat="45.2693567" lon="8.1358017"><ele>167.0</ele><time>2026-05-01T14:05:40.788Z</time></trkpt><trkpt lat="45.2692367" lon="8.1359983"><ele>167.0</ele><time>2026-05-01T14:05:41.788Z</time></trkpt><trkpt lat="45.2691217" lon="8.1361917"><ele>167.0</ele><time>2026-05-01T14:05:42.788Z</time></trkpt><trkpt lat="45.2690067" lon="8.1363933"><ele>167.0</ele><time>2026-05-01T14:05:43.788Z</time></trkpt><trkpt lat="45.2688917" lon="8.1365967"><ele>167.0</ele><time>2026-05-01T14:05:44.788Z</time></trkpt><trkpt lat="45.268765" lon="8.1367983"><ele>167.0</ele><time>2026-05-01T14:05:45.788Z</time></trkpt><trkpt lat="45.2686467" lon="8.1369983"><ele>167.0</ele><time>2026-05-01T14:05:46.788Z</time></trkpt><trkpt lat="45.2685367" lon="8.137205"><ele>167.0</ele><time>2026-05-01T14:05:47.788Z</time></trkpt><trkpt lat="45.26842" lon="8.13741"><ele>167.0</ele><time>2026-05-01T14:05:48.788Z</time></trkpt><trkpt lat="45.2683117" lon="8.1375917"><ele>167.0</ele><time>2026-05-01T14:05:49.788Z</time></trkpt><trkpt lat="45.268205" lon="8.1377733"><ele>166.75</ele><time>2026-05-01T14:05:50.788Z</time></trkpt><trkpt lat="45.2681067" lon="8.1379417"><ele>166.5</ele><time>2026-05-01T14:05:51.788Z</time></trkpt><trkpt lat="45.268015" lon="8.138095"><ele>166.25</ele><time>2026-05-01T14:05:52.788Z</time></trkpt><trkpt lat="45.2679233" lon="8.1382433"><ele>166.0</ele><time>2026-05-01T14:05:53.788Z</time></trkpt><trkpt lat="45.2678433" lon="8.1383867"><ele>166.0</ele><time>2026-05-01T14:05:54.788Z</time></trkpt><trkpt lat="45.2677733" lon="8.1385167"><ele>166.0</ele><time>2026-05-01T14:05:55.788Z</time></trkpt><trkpt lat="45.2677117" lon="8.1386283"><ele>166.0</ele><time>2026-05-01T14:05:56.788Z</time></trkpt><trkpt lat="45.2676567" lon="8.1387183"><ele>166.0</ele><time>2026-05-01T14:05:57.788Z</time></trkpt><trkpt lat="45.26761" lon="8.1387867"><ele>166.0</ele><time>2026-05-01T14:05:58.788Z</time></trkpt><trkpt lat="45.26754" lon="8.1388217"><ele>166.0</ele><time>2026-05-01T14:06:00.788Z</time></trkpt><trkpt lat="45.267475" lon="8.13876"><ele>166.0</ele><time>2026-05-01T14:06:03.788Z</time></trkpt><trkpt lat="45.2674067" lon="8.1386983"><ele>166.0</ele><time>2026-05-01T14:06:05.788Z</time></trkpt><trkpt lat="45.2673267" lon="8.13863"><ele>166.0</ele><time>2026-05-01T14:06:07.788Z</time></trkpt><trkpt lat="45.2672133" lon="8.1385367"><ele>166.0</ele><time>2026-05-01T14:06:09.788Z</time></trkpt><trkpt lat="45.267145" lon="8.1384867"><ele>166.0</ele><time>2026-05-01T14:06:10.788Z</time></trkpt><trkpt lat="45.26707" lon="8.1384317"><ele>166.0</ele><time>2026-05-01T14:06:11.788Z</time></trkpt><trkpt lat="45.2669933" lon="8.13838"><ele>166.0</ele><time>2026-05-01T14:06:12.788Z</time></trkpt><trkpt lat="45.2669183" lon="8.138325"><ele>166.0</ele><time>2026-05-01T14:06:13.788Z</time></trkpt><trkpt lat="45.266835" lon="8.1382567"><ele>166.0</ele><time>2026-05-01T14:06:14.788Z</time></trkpt><trkpt lat="45.2667533" lon="8.1381933"><ele>166.0</ele><time>2026-05-01T14:06:15.788Z</time></trkpt><trkpt lat="45.2666717" lon="8.1381283"><ele>166.0</ele><time>2026-05-01T14:06:16.788Z</time></trkpt><trkpt lat="45.2665917" lon="8.1380633"><ele>166.0</ele><time>2026-05-01T14:06:17.788Z</time></trkpt><trkpt lat="45.2665117" lon="8.138"><ele>166.0</ele><time>2026-05-01T14:06:18.788Z</time></trkpt><trkpt lat="45.2664317" lon="8.13794"><ele>166.0</ele><time>2026-05-01T14:06:19.788Z</time></trkpt><trkpt lat="45.2663583" lon="8.1378783"><ele>166.0</ele><time>2026-05-01T14:06:20.788Z</time></trkpt><trkpt lat="45.2662883" lon="8.13782"><ele>166.0</ele><time>2026-05-01T14:06:21.787Z</time></trkpt><trkpt lat="45.2662217" lon="8.1377583"><ele>166.0</ele><time>2026-05-01T14:06:22.787Z</time></trkpt><trkpt lat="45.2661517" lon="8.1376983"><ele>166.0</ele><time>2026-05-01T14:06:23.787Z</time></trkpt><trkpt lat="45.2660883" lon="8.1376483"><ele>166.0</ele><time>2026-05-01T14:06:24.787Z</time></trkpt><trkpt lat="45.265985" lon="8.1375633"><ele>166.0</ele><time>2026-05-01T14:06:26.787Z</time></trkpt><trkpt lat="45.265885" lon="8.1374817"><ele>166.0</ele><time>2026-05-01T14:06:28.787Z</time></trkpt><trkpt lat="45.2657967" lon="8.1374133"><ele>166.16666666666669</ele><time>2026-05-01T14:06:30.787Z</time></trkpt><trkpt lat="45.2657233" lon="8.1373517"><ele>166.33333333333334</ele><time>2026-05-01T14:06:32.787Z</time></trkpt><trkpt lat="45.265645" lon="8.1372817"><ele>166.5</ele><time>2026-05-01T14:06:34.787Z</time></trkpt><trkpt lat="45.265575" lon="8.1372267"><ele>166.66666666666666</ele><time>2026-05-01T14:06:36.787Z</time></trkpt><trkpt lat="45.2655183" lon="8.1371833"><ele>166.83333333333331</ele><time>2026-05-01T14:06:38.787Z</time></trkpt><trkpt lat="45.2654567" lon="8.13714"><ele>167.0</ele><time>2026-05-01T14:06:40.787Z</time></trkpt><trkpt lat="45.2653833" lon="8.13713"><ele>167.2</ele><time>2026-05-01T14:06:42.787Z</time></trkpt><trkpt lat="45.2653217" lon="8.1371867"><ele>167.39999999999998</ele><time>2026-05-01T14:06:44.787Z</time></trkpt><trkpt lat="45.2652667" lon="8.1372983"><ele>167.60000000000002</ele><time>2026-05-01T14:06:46.786Z</time></trkpt><trkpt lat="45.2652167" lon="8.1374533"><ele>167.8</ele><time>2026-05-01T14:06:48.787Z</time></trkpt><trkpt lat="45.2651567" lon="8.1376017"><ele>168.0</ele><time>2026-05-01T14:06:50.787Z</time></trkpt><trkpt lat="45.2650983" lon="8.1376983"><ele>168.0</ele><time>2026-05-01T14:06:52.787Z</time></trkpt><trkpt lat="45.2650183" lon="8.1376617"><ele>168.0</ele><time>2026-05-01T14:06:55.787Z</time></trkpt><trkpt lat="45.26491" lon="8.1375667"><ele>168.0</ele><time>2026-05-01T14:06:57.787Z</time></trkpt><trkpt lat="45.2648467" lon="8.1375117"><ele>168.0</ele><time>2026-05-01T14:06:58.787Z</time></trkpt><trkpt lat="45.26478" lon="8.137465"><ele>168.0</ele><time>2026-05-01T14:06:59.786Z</time></trkpt><trkpt lat="45.2647133" lon="8.1374117"><ele>168.0</ele><time>2026-05-01T14:07:00.787Z</time></trkpt><trkpt lat="45.2646567" lon="8.1373667"><ele>167.5</ele><time>2026-05-01T14:07:01.787Z</time></trkpt><trkpt lat="45.2645733" lon="8.1372917"><ele>167.0</ele><time>2026-05-01T14:07:03.787Z</time></trkpt><trkpt lat="45.2645267" lon="8.1372183"><ele>166.5</ele><time>2026-05-01T14:07:05.787Z</time></trkpt><trkpt lat="45.2645367" lon="8.1371267"><ele>166.0</ele><time>2026-05-01T14:07:07.787Z</time></trkpt><trkpt lat="45.2645883" lon="8.1370267"><ele>165.5</ele><time>2026-05-01T14:07:09.787Z</time></trkpt><trkpt lat="45.264605" lon="8.13694"><ele>165.0</ele><time>2026-05-01T14:07:12.786Z</time></trkpt><trkpt lat="45.2645567" lon="8.136865"><ele>165.0</ele><time>2026-05-01T14:07:15.787Z</time></trkpt><trkpt lat="45.2645333" lon="8.1367567"><ele>165.0</ele><time>2026-05-01T14:07:17.787Z</time></trkpt><trkpt lat="45.26451" lon="8.1366483"><ele>165.0</ele><time>2026-05-01T14:07:19.787Z</time></trkpt><trkpt lat="45.264455" lon="8.1365483"><ele>165.0</ele><time>2026-05-01T14:07:21.787Z</time></trkpt><trkpt lat="45.2643367" lon="8.13648"><ele>165.0</ele><time>2026-05-01T14:07:23.787Z</time></trkpt><trkpt lat="45.2642567" lon="8.1364467"><ele>165.0</ele><time>2026-05-01T14:07:24.787Z</time></trkpt><trkpt lat="45.264165" lon="8.1364083"><ele>165.0</ele><time>2026-05-01T14:07:25.787Z</time></trkpt><trkpt lat="45.264065" lon="8.13636"><ele>165.0</ele><time>2026-05-01T14:07:26.786Z</time></trkpt><trkpt lat="45.263965" lon="8.1363217"><ele>165.0</ele><time>2026-05-01T14:07:27.787Z</time></trkpt><trkpt lat="45.263855" lon="8.1362717"><ele>165.0</ele><time>2026-05-01T14:07:28.787Z</time></trkpt><trkpt lat="45.26375" lon="8.1362283"><ele>164.75</ele><time>2026-05-01T14:07:29.787Z</time></trkpt><trkpt lat="45.2636383" lon="8.136175"><ele>164.5</ele><time>2026-05-01T14:07:30.787Z</time></trkpt><trkpt lat="45.263525" lon="8.1361233"><ele>164.25</ele><time>2026-05-01T14:07:31.787Z</time></trkpt><trkpt lat="45.2634033" lon="8.1360733"><ele>164.0</ele><time>2026-05-01T14:07:32.787Z</time></trkpt><trkpt lat="45.263285" lon="8.13603"><ele>164.0</ele><time>2026-05-01T14:07:33.786Z</time></trkpt><trkpt lat="45.26316" lon="8.135985"><ele>164.0</ele><time>2026-05-01T14:07:34.787Z</time></trkpt><trkpt lat="45.2630367" lon="8.1359233"><ele>164.0</ele><time>2026-05-01T14:07:35.787Z</time></trkpt><trkpt lat="45.262905" lon="8.1358617"><ele>164.0</ele><time>2026-05-01T14:07:36.787Z</time></trkpt><trkpt lat="45.2627767" lon="8.1358017"><ele>164.25</ele><time>2026-05-01T14:07:37.787Z</time></trkpt><trkpt lat="45.26265" lon="8.1357433"><ele>164.5</ele><time>2026-05-01T14:07:38.787Z</time></trkpt><trkpt lat="45.262525" lon="8.1356983"><ele>164.75</ele><time>2026-05-01T14:07:39.787Z</time></trkpt><trkpt lat="45.262405" lon="8.1356583"><ele>165.0</ele><time>2026-05-01T14:07:40.787Z</time></trkpt><trkpt lat="45.2622883" lon="8.135615"><ele>165.25</ele><time>2026-05-01T14:07:41.787Z</time></trkpt><trkpt lat="45.262165" lon="8.1355683"><ele>165.5</ele><time>2026-05-01T14:07:42.787Z</time></trkpt><trkpt lat="45.26204" lon="8.135515"><ele>165.75</ele><time>2026-05-01T14:07:43.787Z</time></trkpt><trkpt lat="45.2619233" lon="8.1354567"><ele>166.0</ele><time>2026-05-01T14:07:44.787Z</time></trkpt><trkpt lat="45.261795" lon="8.135405"><ele>166.0</ele><time>2026-05-01T14:07:45.787Z</time></trkpt><trkpt lat="45.2616683" lon="8.1353483"><ele>166.0</ele><time>2026-05-01T14:07:46.787Z</time></trkpt><trkpt lat="45.26154" lon="8.13529"><ele>166.0</ele><time>2026-05-01T14:07:47.786Z</time></trkpt><trkpt lat="45.26141" lon="8.13522"><ele>166.0</ele><time>2026-05-01T14:07:48.787Z</time></trkpt><trkpt lat="45.2612767" lon="8.135175"><ele>166.0</ele><time>2026-05-01T14:07:49.787Z</time></trkpt><trkpt lat="45.2611433" lon="8.1351233"><ele>166.0</ele><time>2026-05-01T14:07:50.787Z</time></trkpt><trkpt lat="45.26101" lon="8.135065"><ele>166.0</ele><time>2026-05-01T14:07:51.787Z</time></trkpt><trkpt lat="45.26089" lon="8.135005"><ele>166.0</ele><time>2026-05-01T14:07:52.787Z</time></trkpt><trkpt lat="45.260765" lon="8.1349583"><ele>166.0</ele><time>2026-05-01T14:07:53.787Z</time></trkpt><trkpt lat="45.2606383" lon="8.1349"><ele>166.0</ele><time>2026-05-01T14:07:54.787Z</time></trkpt><trkpt lat="45.26051" lon="8.134845"><ele>166.0</ele><time>2026-05-01T14:07:55.787Z</time></trkpt><trkpt lat="45.2603833" lon="8.13479"><ele>166.0</ele><time>2026-05-01T14:07:56.787Z</time></trkpt><trkpt lat="45.2602583" lon="8.1347483"><ele>166.0</ele><time>2026-05-01T14:07:57.787Z</time></trkpt><trkpt lat="45.2601317" lon="8.134695"><ele>166.0</ele><time>2026-05-01T14:07:58.787Z</time></trkpt><trkpt lat="45.2600067" lon="8.1346367"><ele>166.0</ele><time>2026-05-01T14:07:59.787Z</time></trkpt><trkpt lat="45.25988" lon="8.134585"><ele>166.0</ele><time>2026-05-01T14:08:00.787Z</time></trkpt><trkpt lat="45.2597467" lon="8.1345267"><ele>165.75</ele><time>2026-05-01T14:08:01.787Z</time></trkpt><trkpt lat="45.25962" lon="8.134475"><ele>165.5</ele><time>2026-05-01T14:08:02.786Z</time></trkpt><trkpt lat="45.259495" lon="8.134425"><ele>165.25</ele><time>2026-05-01T14:08:03.787Z</time></trkpt><trkpt lat="45.259365" lon="8.1343783"><ele>165.0</ele><time>2026-05-01T14:08:04.787Z</time></trkpt><trkpt lat="45.25924" lon="8.1343167"><ele>165.0</ele><time>2026-05-01T14:08:05.787Z</time></trkpt><trkpt lat="45.25911" lon="8.13425"><ele>165.0</ele><time>2026-05-01T14:08:06.787Z</time></trkpt><trkpt lat="45.2589883" lon="8.1342033"><ele>165.0</ele><time>2026-05-01T14:08:07.787Z</time></trkpt><trkpt lat="45.258865" lon="8.1341567"><ele>165.0</ele><time>2026-05-01T14:08:08.787Z</time></trkpt><trkpt lat="45.2587467" lon="8.1341133"><ele>165.0</ele><time>2026-05-01T14:08:09.787Z</time></trkpt><trkpt lat="45.2586317" lon="8.1340633"><ele>165.0</ele><time>2026-05-01T14:08:10.787Z</time></trkpt><trkpt lat="45.2585117" lon="8.13402"><ele>165.0</ele><time>2026-05-01T14:08:11.787Z</time></trkpt><trkpt lat="45.2583867" lon="8.1339717"><ele>165.0</ele><time>2026-05-01T14:08:12.786Z</time></trkpt><trkpt lat="45.2582667" lon="8.13392"><ele>165.0</ele><time>2026-05-01T14:08:13.787Z</time></trkpt><trkpt lat="45.258145" lon="8.1338633"><ele>165.0</ele><time>2026-05-01T14:08:14.787Z</time></trkpt><trkpt lat="45.2580267" lon="8.1338017"><ele>165.0</ele><time>2026-05-01T14:08:15.787Z</time></trkpt><trkpt lat="45.257905" lon="8.1337417"><ele>165.0</ele><time>2026-05-01T14:08:16.787Z</time></trkpt><trkpt lat="45.2577833" lon="8.1336817"><ele>165.0</ele><time>2026-05-01T14:08:17.787Z</time></trkpt><trkpt lat="45.257665" lon="8.13363"><ele>165.0</ele><time>2026-05-01T14:08:18.787Z</time></trkpt><trkpt lat="45.2575483" lon="8.1335817"><ele>165.0</ele><time>2026-05-01T14:08:19.787Z</time></trkpt><trkpt lat="45.25744" lon="8.1335367"><ele>165.0</ele><time>2026-05-01T14:08:20.787Z</time></trkpt><trkpt lat="45.2573333" lon="8.133495"><ele>164.83333333333334</ele><time>2026-05-01T14:08:21.787Z</time></trkpt><trkpt lat="45.2572283" lon="8.1334567"><ele>164.66666666666666</ele><time>2026-05-01T14:08:22.787Z</time></trkpt><trkpt lat="45.2571283" lon="8.1334117"><ele>164.5</ele><time>2026-05-01T14:08:23.787Z</time></trkpt><trkpt lat="45.2570483" lon="8.1333717"><ele>164.33333333333331</ele><time>2026-05-01T14:08:24.787Z</time></trkpt><trkpt lat="45.2569833" lon="8.1333417"><ele>164.16666666666666</ele><time>2026-05-01T14:08:25.787Z</time></trkpt><trkpt lat="45.2569233" lon="8.1333033"><ele>164.0</ele><time>2026-05-01T14:08:26.787Z</time></trkpt><trkpt lat="45.25686" lon="8.133275"><ele>164.0</ele><time>2026-05-01T14:08:27.787Z</time></trkpt><trkpt lat="45.2567817" lon="8.1332533"><ele>164.0</ele><time>2026-05-01T14:08:28.787Z</time></trkpt><trkpt lat="45.2567067" lon="8.1332267"><ele>164.0</ele><time>2026-05-01T14:08:29.787Z</time></trkpt><trkpt lat="45.25664" lon="8.133195"><ele>164.0</ele><time>2026-05-01T14:08:30.787Z</time></trkpt><trkpt lat="45.25658" lon="8.1331633"><ele>164.0</ele><time>2026-05-01T14:08:31.787Z</time></trkpt><trkpt lat="45.2564867" lon="8.1331283"><ele>164.0</ele><time>2026-05-01T14:08:33.787Z</time></trkpt><trkpt lat="45.2563917" lon="8.13309"><ele>164.2</ele><time>2026-05-01T14:08:35.787Z</time></trkpt><trkpt lat="45.2562933" lon="8.1330533"><ele>164.39999999999998</ele><time>2026-05-01T14:08:37.787Z</time></trkpt><trkpt lat="45.256195" lon="8.1330133"><ele>164.6</ele><time>2026-05-01T14:08:39.787Z</time></trkpt><trkpt lat="45.2560767" lon="8.1329567"><ele>164.8</ele><time>2026-05-01T14:08:41.787Z</time></trkpt><trkpt lat="45.2560033" lon="8.1329283"><ele>165.0</ele><time>2026-05-01T14:08:42.787Z</time></trkpt><trkpt lat="45.2559167" lon="8.1328933"><ele>165.0</ele><time>2026-05-01T14:08:43.787Z</time></trkpt><trkpt lat="45.2558217" lon="8.1328467"><ele>165.0</ele><time>2026-05-01T14:08:44.787Z</time></trkpt><trkpt lat="45.255725" lon="8.13281"><ele>165.0</ele><time>2026-05-01T14:08:45.787Z</time></trkpt><trkpt lat="45.2556267" lon="8.1327683"><ele>165.0</ele><time>2026-05-01T14:08:46.787Z</time></trkpt><trkpt lat="45.2555267" lon="8.1327267"><ele>165.0</ele><time>2026-05-01T14:08:47.787Z</time></trkpt><trkpt lat="45.255425" lon="8.132685"><ele>164.75</ele><time>2026-05-01T14:08:48.787Z</time></trkpt><trkpt lat="45.255315" lon="8.1326317"><ele>164.5</ele><time>2026-05-01T14:08:49.787Z</time></trkpt><trkpt lat="45.25521" lon="8.1325833"><ele>164.25</ele><time>2026-05-01T14:08:50.787Z</time></trkpt><trkpt lat="45.2550983" lon="8.132545"><ele>164.0</ele><time>2026-05-01T14:08:51.787Z</time></trkpt><trkpt lat="45.25498" lon="8.1325"><ele>164.0</ele><time>2026-05-01T14:08:52.787Z</time></trkpt><trkpt lat="45.2548733" lon="8.1324533"><ele>164.0</ele><time>2026-05-01T14:08:53.787Z</time></trkpt><trkpt lat="45.2547633" lon="8.1324"><ele>164.0</ele><time>2026-05-01T14:08:54.787Z</time></trkpt><trkpt lat="45.2546517" lon="8.1323533"><ele>164.0</ele><time>2026-05-01T14:08:55.787Z</time></trkpt><trkpt lat="45.2545333" lon="8.132305"><ele>163.75</ele><time>2026-05-01T14:08:56.786Z</time></trkpt><trkpt lat="45.25442" lon="8.13225"><ele>163.5</ele><time>2026-05-01T14:08:57.787Z</time></trkpt><trkpt lat="45.2543017" lon="8.1322067"><ele>163.25</ele><time>2026-05-01T14:08:58.787Z</time></trkpt><trkpt lat="45.2541817" lon="8.1321567"><ele>163.0</ele><time>2026-05-01T14:08:59.787Z</time></trkpt><trkpt lat="45.25406" lon="8.13211"><ele>163.25</ele><time>2026-05-01T14:09:00.787Z</time></trkpt><trkpt lat="45.2539383" lon="8.13207"><ele>163.5</ele><time>2026-05-01T14:09:01.787Z</time></trkpt><trkpt lat="45.25382" lon="8.13202"><ele>163.75</ele><time>2026-05-01T14:09:02.787Z</time></trkpt><trkpt lat="45.2537033" lon="8.1319733"><ele>164.0</ele><time>2026-05-01T14:09:03.787Z</time></trkpt><trkpt lat="45.25358" lon="8.1319233"><ele>164.0</ele><time>2026-05-01T14:09:04.787Z</time></trkpt><trkpt lat="45.2534583" lon="8.1318667"><ele>164.0</ele><time>2026-05-01T14:09:05.787Z</time></trkpt><trkpt lat="45.2533333" lon="8.1318083"><ele>164.0</ele><time>2026-05-01T14:09:06.787Z</time></trkpt><trkpt lat="45.2532133" lon="8.13176"><ele>164.0</ele><time>2026-05-01T14:09:07.787Z</time></trkpt><trkpt lat="45.2530883" lon="8.13171"><ele>163.75</ele><time>2026-05-01T14:09:08.787Z</time></trkpt><trkpt lat="45.2529633" lon="8.1316583"><ele>163.5</ele><time>2026-05-01T14:09:09.787Z</time></trkpt><trkpt lat="45.2528517" lon="8.1315983"><ele>163.25</ele><time>2026-05-01T14:09:10.787Z</time></trkpt><trkpt lat="45.252735" lon="8.131545"><ele>163.0</ele><time>2026-05-01T14:09:11.787Z</time></trkpt><trkpt lat="45.2526133" lon="8.1315017"><ele>163.0</ele><time>2026-05-01T14:09:12.787Z</time></trkpt><trkpt lat="45.2524983" lon="8.1314517"><ele>163.0</ele><time>2026-05-01T14:09:13.787Z</time></trkpt><trkpt lat="45.2523783" lon="8.1314"><ele>163.0</ele><time>2026-05-01T14:09:14.786Z</time></trkpt><trkpt lat="45.2522583" lon="8.13136"><ele>163.0</ele><time>2026-05-01T14:09:15.787Z</time></trkpt><trkpt lat="45.2521367" lon="8.1313133"><ele>163.0</ele><time>2026-05-01T14:09:16.787Z</time></trkpt><trkpt lat="45.2520133" lon="8.131255"><ele>163.0</ele><time>2026-05-01T14:09:17.787Z</time></trkpt><trkpt lat="45.2518883" lon="8.1312017"><ele>163.0</ele><time>2026-05-01T14:09:18.787Z</time></trkpt><trkpt lat="45.2517617" lon="8.1311483"><ele>163.0</ele><time>2026-05-01T14:09:19.787Z</time></trkpt><trkpt lat="45.2516267" lon="8.131095"><ele>163.0</ele><time>2026-05-01T14:09:20.787Z</time></trkpt><trkpt lat="45.2514983" lon="8.1310367"><ele>163.0</ele><time>2026-05-01T14:09:21.787Z</time></trkpt><trkpt lat="45.251375" lon="8.1309883"><ele>163.0</ele><time>2026-05-01T14:09:22.787Z</time></trkpt><trkpt lat="45.2512483" lon="8.13094"><ele>163.0</ele><time>2026-05-01T14:09:23.787Z</time></trkpt><trkpt lat="45.25112" lon="8.1308917"><ele>163.0</ele><time>2026-05-01T14:09:24.787Z</time></trkpt><trkpt lat="45.2509917" lon="8.1308333"><ele>163.0</ele><time>2026-05-01T14:09:25.787Z</time></trkpt><trkpt lat="45.2508683" lon="8.1307717"><ele>163.0</ele><time>2026-05-01T14:09:26.787Z</time></trkpt><trkpt lat="45.2507417" lon="8.130715"><ele>163.0</ele><time>2026-05-01T14:09:27.787Z</time></trkpt><trkpt lat="45.2506133" lon="8.1306583"><ele>162.5</ele><time>2026-05-01T14:09:28.787Z</time></trkpt><trkpt lat="45.2504867" lon="8.130605"><ele>162.0</ele><time>2026-05-01T14:09:29.787Z</time></trkpt><trkpt lat="45.2503617" lon="8.13055"><ele>161.5</ele><time>2026-05-01T14:09:30.787Z</time></trkpt><trkpt lat="45.2502383" lon="8.130495"><ele>161.0</ele><time>2026-05-01T14:09:31.787Z</time></trkpt><trkpt lat="45.2501133" lon="8.130445"><ele>161.0</ele><time>2026-05-01T14:09:32.787Z</time></trkpt><trkpt lat="45.2499883" lon="8.1303967"><ele>161.0</ele><time>2026-05-01T14:09:33.787Z</time></trkpt><trkpt lat="45.2498683" lon="8.1303383"><ele>161.0</ele><time>2026-05-01T14:09:34.786Z</time></trkpt><trkpt lat="45.2497467" lon="8.1302867"><ele>161.0</ele><time>2026-05-01T14:09:35.787Z</time></trkpt><trkpt lat="45.249625" lon="8.1302417"><ele>161.5</ele><time>2026-05-01T14:09:36.787Z</time></trkpt><trkpt lat="45.2494983" lon="8.1301883"><ele>162.0</ele><time>2026-05-01T14:09:37.787Z</time></trkpt><trkpt lat="45.249375" lon="8.130135"><ele>162.5</ele><time>2026-05-01T14:09:38.786Z</time></trkpt><trkpt lat="45.249255" lon="8.130085"><ele>163.0</ele><time>2026-05-01T14:09:39.787Z</time></trkpt><trkpt lat="45.2491367" lon="8.1300417"><ele>163.0</ele><time>2026-05-01T14:09:40.786Z</time></trkpt><trkpt lat="45.2490233" lon="8.13"><ele>163.0</ele><time>2026-05-01T14:09:41.787Z</time></trkpt><trkpt lat="45.2489183" lon="8.1299517"><ele>163.0</ele><time>2026-05-01T14:09:42.787Z</time></trkpt><trkpt lat="45.2488167" lon="8.1299033"><ele>163.0</ele><time>2026-05-01T14:09:43.787Z</time></trkpt><trkpt lat="45.2487217" lon="8.1298533"><ele>163.0</ele><time>2026-05-01T14:09:44.787Z</time></trkpt><trkpt lat="45.2486317" lon="8.1298083"><ele>162.8</ele><time>2026-05-01T14:09:45.787Z</time></trkpt><trkpt lat="45.2485417" lon="8.1297733"><ele>162.60000000000002</ele><time>2026-05-01T14:09:46.787Z</time></trkpt><trkpt lat="45.2484633" lon="8.12974"><ele>162.39999999999998</ele><time>2026-05-01T14:09:47.787Z</time></trkpt><trkpt lat="45.248395" lon="8.1297217"><ele>162.2</ele><time>2026-05-01T14:09:48.787Z</time></trkpt><trkpt lat="45.2482867" lon="8.1296967"><ele>162.0</ele><time>2026-05-01T14:09:50.787Z</time></trkpt><trkpt lat="45.248195" lon="8.1297483"><ele>162.0</ele><time>2026-05-01T14:09:53.787Z</time></trkpt><trkpt lat="45.2480883" lon="8.129805"><ele>162.0</ele><time>2026-05-01T14:09:55.787Z</time></trkpt><trkpt lat="45.2480217" lon="8.1298367"><ele>162.0</ele><time>2026-05-01T14:09:56.787Z</time></trkpt><trkpt lat="45.2479483" lon="8.1298733"><ele>162.0</ele><time>2026-05-01T14:09:57.787Z</time></trkpt><trkpt lat="45.2478783" lon="8.12992"><ele>162.0</ele><time>2026-05-01T14:09:58.787Z</time></trkpt><trkpt lat="45.247805" lon="8.1299667"><ele>162.0</ele><time>2026-05-01T14:09:59.787Z</time></trkpt><trkpt lat="45.2477233" lon="8.13002"><ele>162.0</ele><time>2026-05-01T14:10:00.787Z</time></trkpt><trkpt lat="45.2476483" lon="8.13006"><ele>162.0</ele><time>2026-05-01T14:10:01.787Z</time></trkpt><trkpt lat="45.247565" lon="8.1301"><ele>162.0</ele><time>2026-05-01T14:10:02.787Z</time></trkpt><trkpt lat="45.2474767" lon="8.1301483"><ele>162.0</ele><time>2026-05-01T14:10:03.787Z</time></trkpt><trkpt lat="45.2473783" lon="8.1302033"><ele>162.0</ele><time>2026-05-01T14:10:04.787Z</time></trkpt><trkpt lat="45.24728" lon="8.1302583"><ele>162.0</ele><time>2026-05-01T14:10:05.787Z</time></trkpt><trkpt lat="45.247185" lon="8.1303133"><ele>162.0</ele><time>2026-05-01T14:10:06.787Z</time></trkpt><trkpt lat="45.24709" lon="8.1303667"><ele>162.0</ele><time>2026-05-01T14:10:07.787Z</time></trkpt><trkpt lat="45.2469983" lon="8.13043"><ele>162.0</ele><time>2026-05-01T14:10:08.787Z</time></trkpt><trkpt lat="45.2468933" lon="8.1304917"><ele>162.0</ele><time>2026-05-01T14:10:09.787Z</time></trkpt><trkpt lat="45.24679" lon="8.1305533"><ele>162.0</ele><time>2026-05-01T14:10:10.787Z</time></trkpt><trkpt lat="45.2466867" lon="8.1306117"><ele>162.0</ele><time>2026-05-01T14:10:11.787Z</time></trkpt><trkpt lat="45.24658" lon="8.1306683"><ele>162.0</ele><time>2026-05-01T14:10:12.787Z</time></trkpt><trkpt lat="45.24648" lon="8.130725"><ele>162.0</ele><time>2026-05-01T14:10:13.787Z</time></trkpt><trkpt lat="45.2463767" lon="8.1307867"><ele>162.0</ele><time>2026-05-01T14:10:14.787Z</time></trkpt><trkpt lat="45.246275" lon="8.13085"><ele>162.2</ele><time>2026-05-01T14:10:15.787Z</time></trkpt><trkpt lat="45.246175" lon="8.1309133"><ele>162.39999999999998</ele><time>2026-05-01T14:10:16.787Z</time></trkpt><trkpt lat="45.24607" lon="8.13097"><ele>162.60000000000002</ele><time>2026-05-01T14:10:17.787Z</time></trkpt><trkpt lat="45.2459733" lon="8.1310267"><ele>162.8</ele><time>2026-05-01T14:10:18.787Z</time></trkpt><trkpt lat="45.2458717" lon="8.1310833"><ele>163.0</ele><time>2026-05-01T14:10:19.787Z</time></trkpt><trkpt lat="45.2457733" lon="8.13114"><ele>163.0</ele><time>2026-05-01T14:10:20.786Z</time></trkpt><trkpt lat="45.2456833" lon="8.131195"><ele>163.0</ele><time>2026-05-01T14:10:21.786Z</time></trkpt><trkpt lat="45.2455967" lon="8.131245"><ele>163.0</ele><time>2026-05-01T14:10:22.787Z</time></trkpt><trkpt lat="45.2455183" lon="8.1312883"><ele>163.0</ele><time>2026-05-01T14:10:23.787Z</time></trkpt><trkpt lat="45.2454533" lon="8.1313283"><ele>163.0</ele><time>2026-05-01T14:10:24.787Z</time></trkpt><trkpt lat="45.24536" lon="8.1313867"><ele>163.0</ele><time>2026-05-01T14:10:26.787Z</time></trkpt><trkpt lat="45.2452767" lon="8.1313983"><ele>163.0</ele><time>2026-05-01T14:10:28.787Z</time></trkpt><trkpt lat="45.2451967" lon="8.1312917"><ele>163.0</ele><time>2026-05-01T14:10:30.787Z</time></trkpt><trkpt lat="45.24517" lon="8.1311933"><ele>163.0</ele><time>2026-05-01T14:10:31.787Z</time></trkpt><trkpt lat="45.2451417" lon="8.1310783"><ele>163.0</ele><time>2026-05-01T14:10:32.787Z</time></trkpt><trkpt lat="45.2451217" lon="8.1309567"><ele>163.0</ele><time>2026-05-01T14:10:33.787Z</time></trkpt><trkpt lat="45.245085" lon="8.130845"><ele>163.0</ele><time>2026-05-01T14:10:34.787Z</time></trkpt><trkpt lat="45.2450417" lon="8.1307167"><ele>163.5</ele><time>2026-05-01T14:10:35.787Z</time></trkpt><trkpt lat="45.2450033" lon="8.1305767"><ele>164.0</ele><time>2026-05-01T14:10:36.786Z</time></trkpt><trkpt lat="45.2449667" lon="8.1304267"><ele>164.5</ele><time>2026-05-01T14:10:37.787Z</time></trkpt><trkpt lat="45.2449317" lon="8.1302633"><ele>165.0</ele><time>2026-05-01T14:10:38.787Z</time></trkpt><trkpt lat="45.2449067" lon="8.1301033"><ele>165.0</ele><time>2026-05-01T14:10:39.787Z</time></trkpt><trkpt lat="45.2448717" lon="8.1299733"><ele>165.0</ele><time>2026-05-01T14:10:40.787Z</time></trkpt><trkpt lat="45.2448417" lon="8.1298433"><ele>165.0</ele><time>2026-05-01T14:10:41.787Z</time></trkpt><trkpt lat="45.2448067" lon="8.1297"><ele>165.0</ele><time>2026-05-01T14:10:42.786Z</time></trkpt><trkpt lat="45.2447633" lon="8.1295383"><ele>165.0</ele><time>2026-05-01T14:10:43.787Z</time></trkpt><trkpt lat="45.24472" lon="8.12938"><ele>164.75</ele><time>2026-05-01T14:10:44.787Z</time></trkpt><trkpt lat="45.2446783" lon="8.1292167"><ele>164.5</ele><time>2026-05-01T14:10:45.787Z</time></trkpt><trkpt lat="45.244635" lon="8.1290517"><ele>164.25</ele><time>2026-05-01T14:10:46.787Z</time></trkpt><trkpt lat="45.2445967" lon="8.1288867"><ele>164.0</ele><time>2026-05-01T14:10:47.787Z</time></trkpt><trkpt lat="45.2445633" lon="8.1287533"><ele>163.6</ele><time>2026-05-01T14:10:48.787Z</time></trkpt><trkpt lat="45.2445283" lon="8.1286133"><ele>163.2</ele><time>2026-05-01T14:10:49.787Z</time></trkpt><trkpt lat="45.2444717" lon="8.1284867"><ele>162.79999999999998</ele><time>2026-05-01T14:10:50.787Z</time></trkpt><trkpt lat="45.2444033" lon="8.1283667"><ele>162.39999999999998</ele><time>2026-05-01T14:10:51.786Z</time></trkpt><trkpt lat="45.2443267" lon="8.1282367"><ele>162.0</ele><time>2026-05-01T14:10:52.787Z</time></trkpt><trkpt lat="45.2442533" lon="8.1281"><ele>162.0</ele><time>2026-05-01T14:10:53.787Z</time></trkpt><trkpt lat="45.2441733" lon="8.1279467"><ele>162.0</ele><time>2026-05-01T14:10:54.787Z</time></trkpt><trkpt lat="45.2440833" lon="8.1277917"><ele>162.0</ele><time>2026-05-01T14:10:55.787Z</time></trkpt><trkpt lat="45.2439883" lon="8.1276283"><ele>162.0</ele><time>2026-05-01T14:10:56.787Z</time></trkpt><trkpt lat="45.2438983" lon="8.1274617"><ele>161.66666666666666</ele><time>2026-05-01T14:10:57.787Z</time></trkpt><trkpt lat="45.24381" lon="8.1272967"><ele>161.33333333333331</ele><time>2026-05-01T14:10:58.787Z</time></trkpt><trkpt lat="45.24372" lon="8.1271233"><ele>161.0</ele><time>2026-05-01T14:10:59.787Z</time></trkpt><trkpt lat="45.2436267" lon="8.12695"><ele>161.0</ele><time>2026-05-01T14:11:00.787Z</time></trkpt><trkpt lat="45.243525" lon="8.1267733"><ele>161.0</ele><time>2026-05-01T14:11:01.787Z</time></trkpt><trkpt lat="45.24343" lon="8.126595"><ele>161.0</ele><time>2026-05-01T14:11:02.787Z</time></trkpt><trkpt lat="45.243335" lon="8.1264233"><ele>161.33333333333331</ele><time>2026-05-01T14:11:03.787Z</time></trkpt><trkpt lat="45.243235" lon="8.1262433"><ele>161.66666666666666</ele><time>2026-05-01T14:11:04.787Z</time></trkpt><trkpt lat="45.2431367" lon="8.12607"><ele>162.0</ele><time>2026-05-01T14:11:05.787Z</time></trkpt><trkpt lat="45.2430367" lon="8.1258933"><ele>162.0</ele><time>2026-05-01T14:11:06.787Z</time></trkpt><trkpt lat="45.2429483" lon="8.12571"><ele>162.0</ele><time>2026-05-01T14:11:07.787Z</time></trkpt><trkpt lat="45.2428483" lon="8.1255267"><ele>162.0</ele><time>2026-05-01T14:11:08.787Z</time></trkpt><trkpt lat="45.242745" lon="8.1253483"><ele>162.0</ele><time>2026-05-01T14:11:09.787Z</time></trkpt><trkpt lat="45.24264" lon="8.1251733"><ele>162.0</ele><time>2026-05-01T14:11:10.787Z</time></trkpt><trkpt lat="45.2425283" lon="8.1249933"><ele>162.0</ele><time>2026-05-01T14:11:11.787Z</time></trkpt><trkpt lat="45.2424217" lon="8.12481"><ele>162.0</ele><time>2026-05-01T14:11:12.787Z</time></trkpt><trkpt lat="45.2423267" lon="8.124635"><ele>162.0</ele><time>2026-05-01T14:11:13.787Z</time></trkpt><trkpt lat="45.2422333" lon="8.12445"><ele>162.0</ele><time>2026-05-01T14:11:14.787Z</time></trkpt><trkpt lat="45.2421383" lon="8.124265"><ele>161.66666666666666</ele><time>2026-05-01T14:11:15.787Z</time></trkpt><trkpt lat="45.2420333" lon="8.124085"><ele>161.33333333333331</ele><time>2026-05-01T14:11:16.787Z</time></trkpt><trkpt lat="45.2419333" lon="8.123895"><ele>161.0</ele><time>2026-05-01T14:11:17.787Z</time></trkpt><trkpt lat="45.2418333" lon="8.1237183"><ele>161.0</ele><time>2026-05-01T14:11:18.787Z</time></trkpt><trkpt lat="45.2417283" lon="8.1235417"><ele>161.0</ele><time>2026-05-01T14:11:19.787Z</time></trkpt><trkpt lat="45.2416283" lon="8.1233533"><ele>161.0</ele><time>2026-05-01T14:11:20.787Z</time></trkpt><trkpt lat="45.24152" lon="8.123165"><ele>161.33333333333331</ele><time>2026-05-01T14:11:21.787Z</time></trkpt><trkpt lat="45.241425" lon="8.1229767"><ele>161.66666666666666</ele><time>2026-05-01T14:11:22.787Z</time></trkpt><trkpt lat="45.2413167" lon="8.1227867"><ele>162.0</ele><time>2026-05-01T14:11:23.787Z</time></trkpt><trkpt lat="45.2412083" lon="8.1225967"><ele>162.0</ele><time>2026-05-01T14:11:24.787Z</time></trkpt><trkpt lat="45.2411" lon="8.12241"><ele>162.0</ele><time>2026-05-01T14:11:25.787Z</time></trkpt><trkpt lat="45.2409917" lon="8.1222217"><ele>162.0</ele><time>2026-05-01T14:11:26.787Z</time></trkpt><trkpt lat="45.24089" lon="8.122035"><ele>162.0</ele><time>2026-05-01T14:11:27.787Z</time></trkpt><trkpt lat="45.2407817" lon="8.1218517"><ele>162.0</ele><time>2026-05-01T14:11:28.787Z</time></trkpt><trkpt lat="45.2406717" lon="8.121665"><ele>162.0</ele><time>2026-05-01T14:11:29.787Z</time></trkpt><trkpt lat="45.2405617" lon="8.1214733"><ele>162.0</ele><time>2026-05-01T14:11:30.787Z</time></trkpt><trkpt lat="45.240455" lon="8.121265"><ele>162.0</ele><time>2026-05-01T14:11:31.787Z</time></trkpt><trkpt lat="45.2403483" lon="8.12106"><ele>162.0</ele><time>2026-05-01T14:11:32.786Z</time></trkpt><trkpt lat="45.2402433" lon="8.120855"><ele>162.66666666666666</ele><time>2026-05-01T14:11:33.787Z</time></trkpt><trkpt lat="45.2401317" lon="8.1206517"><ele>163.33333333333331</ele><time>2026-05-01T14:11:34.787Z</time></trkpt><trkpt lat="45.24002" lon="8.1204667"><ele>164.0</ele><time>2026-05-01T14:11:35.787Z</time></trkpt><trkpt lat="45.239915" lon="8.120265"><ele>163.66666666666666</ele><time>2026-05-01T14:11:36.787Z</time></trkpt><trkpt lat="45.2397983" lon="8.1200733"><ele>163.33333333333334</ele><time>2026-05-01T14:11:37.787Z</time></trkpt><trkpt lat="45.2396883" lon="8.1198767"><ele>163.0</ele><time>2026-05-01T14:11:38.787Z</time></trkpt><trkpt lat="45.2395883" lon="8.1196767"><ele>162.66666666666669</ele><time>2026-05-01T14:11:39.787Z</time></trkpt><trkpt lat="45.239475" lon="8.1194783"><ele>162.33333333333334</ele><time>2026-05-01T14:11:40.787Z</time></trkpt><trkpt lat="45.2393733" lon="8.119285"><ele>162.0</ele><time>2026-05-01T14:11:41.787Z</time></trkpt><trkpt lat="45.2392683" lon="8.11908"><ele>162.0</ele><time>2026-05-01T14:11:42.787Z</time></trkpt><trkpt lat="45.2391517" lon="8.11888"><ele>162.0</ele><time>2026-05-01T14:11:43.787Z</time></trkpt><trkpt lat="45.23904" lon="8.1186933"><ele>162.0</ele><time>2026-05-01T14:11:44.787Z</time></trkpt><trkpt lat="45.2389267" lon="8.1184817"><ele>162.0</ele><time>2026-05-01T14:11:45.787Z</time></trkpt><trkpt lat="45.2388217" lon="8.1182717"><ele>162.0</ele><time>2026-05-01T14:11:46.787Z</time></trkpt><trkpt lat="45.2387167" lon="8.1180767"><ele>162.0</ele><time>2026-05-01T14:11:47.787Z</time></trkpt><trkpt lat="45.2386067" lon="8.1178783"><ele>162.0</ele><time>2026-05-01T14:11:48.786Z</time></trkpt><trkpt lat="45.238495" lon="8.1176817"><ele>162.0</ele><time>2026-05-01T14:11:49.787Z</time></trkpt><trkpt lat="45.2383667" lon="8.1174867"><ele>162.0</ele><time>2026-05-01T14:11:50.787Z</time></trkpt><trkpt lat="45.2382383" lon="8.1173033"><ele>162.0</ele><time>2026-05-01T14:11:51.787Z</time></trkpt><trkpt lat="45.2381083" lon="8.1171217"><ele>162.0</ele><time>2026-05-01T14:11:52.787Z</time></trkpt><trkpt lat="45.23799" lon="8.116925"><ele>162.0</ele><time>2026-05-01T14:11:53.787Z</time></trkpt><trkpt lat="45.2378767" lon="8.1167167"><ele>162.0</ele><time>2026-05-01T14:11:54.787Z</time></trkpt><trkpt lat="45.2377567" lon="8.1165117"><ele>162.0</ele><time>2026-05-01T14:11:55.787Z</time></trkpt><trkpt lat="45.23765" lon="8.1163033"><ele>162.0</ele><time>2026-05-01T14:11:56.787Z</time></trkpt><trkpt lat="45.2375483" lon="8.1160867"><ele>162.0</ele><time>2026-05-01T14:11:57.787Z</time></trkpt><trkpt lat="45.2374433" lon="8.1158733"><ele>162.0</ele><time>2026-05-01T14:11:58.787Z</time></trkpt><trkpt lat="45.23733" lon="8.115665"><ele>162.0</ele><time>2026-05-01T14:11:59.787Z</time></trkpt><trkpt lat="45.237215" lon="8.1154583"><ele>162.0</ele><time>2026-05-01T14:12:00.787Z</time></trkpt><trkpt lat="45.2371" lon="8.1152567"><ele>162.0</ele><time>2026-05-01T14:12:01.787Z</time></trkpt><trkpt lat="45.2369767" lon="8.1150683"><ele>162.0</ele><time>2026-05-01T14:12:02.787Z</time></trkpt><trkpt lat="45.23685" lon="8.1148733"><ele>161.33333333333334</ele><time>2026-05-01T14:12:03.787Z</time></trkpt><trkpt lat="45.2367433" lon="8.1146667"><ele>160.66666666666669</ele><time>2026-05-01T14:12:04.786Z</time></trkpt><trkpt lat="45.236635" lon="8.1144733"><ele>160.0</ele><time>2026-05-01T14:12:05.787Z</time></trkpt><trkpt lat="45.2365317" lon="8.11427"><ele>160.0</ele><time>2026-05-01T14:12:06.787Z</time></trkpt><trkpt lat="45.23642" lon="8.114055"><ele>160.0</ele><time>2026-05-01T14:12:07.787Z</time></trkpt><trkpt lat="45.2363117" lon="8.1138317"><ele>160.0</ele><time>2026-05-01T14:12:08.787Z</time></trkpt><trkpt lat="45.23622" lon="8.1136167"><ele>160.0</ele><time>2026-05-01T14:12:09.787Z</time></trkpt><trkpt lat="45.236125" lon="8.1134017"><ele>160.0</ele><time>2026-05-01T14:12:10.787Z</time></trkpt><trkpt lat="45.2360333" lon="8.113195"><ele>160.0</ele><time>2026-05-01T14:12:11.787Z</time></trkpt><trkpt lat="45.2359367" lon="8.1129883"><ele>160.33333333333334</ele><time>2026-05-01T14:12:12.787Z</time></trkpt><trkpt lat="45.2358267" lon="8.1127817"><ele>160.66666666666666</ele><time>2026-05-01T14:12:13.787Z</time></trkpt><trkpt lat="45.2357217" lon="8.112565"><ele>161.0</ele><time>2026-05-01T14:12:14.787Z</time></trkpt><trkpt lat="45.2983972" lon="7.6170702"><ele>341.0</ele><time>2026-05-01T17:58:50.507Z</time></trkpt></trkseg></trk></gpx>